<?xml version="1.0" encoding="UTF-8" standalone="no" ?>
<gpx xmlns="http://www.topografix.com/GPX/1/1" xmlns:xsi="http://www.w3.org/2001/XMLSchema-instance" xsi:schemaLocation="http://www.topografix.com/GPX/1/1 http://www.topografix.com/GPX/1/1/gpx.xsd" version="1.1" creator="VisuGPX - https://www.visugpx.com">
  <metadata>
    <name>Wailly </name>
    <desc><![CDATA[Cœur et santé
31 pax ]]></desc>
  </metadata>
  <trk>
    <name><![CDATA[Wailly _1]]></name>
    <trkseg>
      <trkpt lat="49.76862" lon="2.15533">
        <ele>81.2</ele>
        <time>2023-06-21T12:06:44Z</time>
      </trkpt>
      <trkpt lat="49.76861" lon="2.15532">
        <ele>81.2</ele>
        <time>2023-06-21T12:06:45Z</time>
      </trkpt>
      <trkpt lat="49.76861" lon="2.15531">
        <ele>81.3</ele>
        <time>2023-06-21T12:06:46Z</time>
      </trkpt>
      <trkpt lat="49.7686" lon="2.1553">
        <ele>81.3</ele>
        <time>2023-06-21T12:06:47Z</time>
      </trkpt>
      <trkpt lat="49.7686" lon="2.15529">
        <ele>81.3</ele>
        <time>2023-06-21T12:06:48Z</time>
      </trkpt>
      <trkpt lat="49.76859" lon="2.15527">
        <ele>81.3</ele>
        <time>2023-06-21T12:06:49Z</time>
      </trkpt>
      <trkpt lat="49.76858" lon="2.15525">
        <ele>81.4</ele>
        <time>2023-06-21T12:06:50Z</time>
      </trkpt>
      <trkpt lat="49.76858" lon="2.15523">
        <ele>81.4</ele>
        <time>2023-06-21T12:06:51Z</time>
      </trkpt>
      <trkpt lat="49.76858" lon="2.15522">
        <ele>81.4</ele>
        <time>2023-06-21T12:06:52Z</time>
      </trkpt>
      <trkpt lat="49.76858" lon="2.15521">
        <ele>81.5</ele>
        <time>2023-06-21T12:06:54Z</time>
      </trkpt>
      <trkpt lat="49.76858" lon="2.15518">
        <ele>81.5</ele>
        <time>2023-06-21T12:06:55Z</time>
      </trkpt>
      <trkpt lat="49.76858" lon="2.15516">
        <ele>81.6</ele>
        <time>2023-06-21T12:06:56Z</time>
      </trkpt>
      <trkpt lat="49.76858" lon="2.15513">
        <ele>81.6</ele>
        <time>2023-06-21T12:06:57Z</time>
      </trkpt>
      <trkpt lat="49.76858" lon="2.15511">
        <ele>81.6</ele>
        <time>2023-06-21T12:06:58Z</time>
      </trkpt>
      <trkpt lat="49.76858" lon="2.15509">
        <ele>81.7</ele>
        <time>2023-06-21T12:06:59Z</time>
      </trkpt>
      <trkpt lat="49.76859" lon="2.15508">
        <ele>81.7</ele>
        <time>2023-06-21T12:07:01Z</time>
      </trkpt>
      <trkpt lat="49.76859" lon="2.15506">
        <ele>81.8</ele>
        <time>2023-06-21T12:07:02Z</time>
      </trkpt>
      <trkpt lat="49.7686" lon="2.15505">
        <ele>81.8</ele>
        <time>2023-06-21T12:07:03Z</time>
      </trkpt>
      <trkpt lat="49.7686" lon="2.15504">
        <ele>81.8</ele>
        <time>2023-06-21T12:07:04Z</time>
      </trkpt>
      <trkpt lat="49.76861" lon="2.155">
        <ele>81.9</ele>
        <time>2023-06-21T12:07:05Z</time>
      </trkpt>
      <trkpt lat="49.76861" lon="2.15498">
        <ele>81.9</ele>
        <time>2023-06-21T12:07:07Z</time>
      </trkpt>
      <trkpt lat="49.76862" lon="2.15497">
        <ele>82</ele>
        <time>2023-06-21T12:07:09Z</time>
      </trkpt>
      <trkpt lat="49.76862" lon="2.15495">
        <ele>82</ele>
        <time>2023-06-21T12:07:10Z</time>
      </trkpt>
      <trkpt lat="49.76862" lon="2.15493">
        <ele>82.1</ele>
        <time>2023-06-21T12:07:11Z</time>
      </trkpt>
      <trkpt lat="49.76862" lon="2.15492">
        <ele>82.1</ele>
        <time>2023-06-21T12:07:12Z</time>
      </trkpt>
      <trkpt lat="49.76862" lon="2.15492">
        <ele>82.1</ele>
        <time>2023-06-21T12:07:13Z</time>
      </trkpt>
      <trkpt lat="49.76862" lon="2.15491">
        <ele>82.1</ele>
        <time>2023-06-21T12:07:14Z</time>
      </trkpt>
      <trkpt lat="49.76863" lon="2.15489">
        <ele>82.2</ele>
        <time>2023-06-21T12:07:16Z</time>
      </trkpt>
      <trkpt lat="49.76863" lon="2.15487">
        <ele>82.2</ele>
        <time>2023-06-21T12:07:17Z</time>
      </trkpt>
      <trkpt lat="49.76864" lon="2.15485">
        <ele>82.3</ele>
        <time>2023-06-21T12:07:18Z</time>
      </trkpt>
      <trkpt lat="49.76864" lon="2.15484">
        <ele>82.3</ele>
        <time>2023-06-21T12:07:19Z</time>
      </trkpt>
      <trkpt lat="49.76866" lon="2.15482">
        <ele>82.4</ele>
        <time>2023-06-21T12:07:20Z</time>
      </trkpt>
      <trkpt lat="49.76867" lon="2.15481">
        <ele>82.4</ele>
        <time>2023-06-21T12:07:21Z</time>
      </trkpt>
      <trkpt lat="49.76867" lon="2.1548">
        <ele>82.4</ele>
        <time>2023-06-21T12:07:23Z</time>
      </trkpt>
      <trkpt lat="49.76868" lon="2.15479">
        <ele>82.5</ele>
        <time>2023-06-21T12:07:24Z</time>
      </trkpt>
      <trkpt lat="49.76868" lon="2.15477">
        <ele>82.5</ele>
        <time>2023-06-21T12:07:25Z</time>
      </trkpt>
      <trkpt lat="49.76869" lon="2.15476">
        <ele>82.6</ele>
        <time>2023-06-21T12:07:26Z</time>
      </trkpt>
      <trkpt lat="49.7687" lon="2.15474">
        <ele>82.6</ele>
        <time>2023-06-21T12:07:27Z</time>
      </trkpt>
      <trkpt lat="49.76871" lon="2.15473">
        <ele>82.7</ele>
        <time>2023-06-21T12:07:28Z</time>
      </trkpt>
      <trkpt lat="49.76872" lon="2.15472">
        <ele>82.7</ele>
        <time>2023-06-21T12:07:30Z</time>
      </trkpt>
      <trkpt lat="49.76873" lon="2.1547">
        <ele>82.7</ele>
        <time>2023-06-21T12:07:31Z</time>
      </trkpt>
      <trkpt lat="49.76873" lon="2.15468">
        <ele>82.8</ele>
        <time>2023-06-21T12:07:32Z</time>
      </trkpt>
      <trkpt lat="49.76872" lon="2.15465">
        <ele>82.9</ele>
        <time>2023-06-21T12:07:33Z</time>
      </trkpt>
      <trkpt lat="49.76872" lon="2.15464">
        <ele>82.9</ele>
        <time>2023-06-21T12:07:34Z</time>
      </trkpt>
      <trkpt lat="49.76871" lon="2.15463">
        <ele>82.9</ele>
        <time>2023-06-21T12:07:35Z</time>
      </trkpt>
      <trkpt lat="49.76871" lon="2.15461">
        <ele>82.9</ele>
        <time>2023-06-21T12:07:37Z</time>
      </trkpt>
      <trkpt lat="49.7687" lon="2.15459">
        <ele>83</ele>
        <time>2023-06-21T12:07:38Z</time>
      </trkpt>
      <trkpt lat="49.7687" lon="2.15457">
        <ele>83</ele>
        <time>2023-06-21T12:07:39Z</time>
      </trkpt>
      <trkpt lat="49.7687" lon="2.15454">
        <ele>83.1</ele>
        <time>2023-06-21T12:07:40Z</time>
      </trkpt>
      <trkpt lat="49.7687" lon="2.15451">
        <ele>83.1</ele>
        <time>2023-06-21T12:07:41Z</time>
      </trkpt>
      <trkpt lat="49.7687" lon="2.1545">
        <ele>83.2</ele>
        <time>2023-06-21T12:07:42Z</time>
      </trkpt>
      <trkpt lat="49.7687" lon="2.15448">
        <ele>83.2</ele>
        <time>2023-06-21T12:07:43Z</time>
      </trkpt>
      <trkpt lat="49.7687" lon="2.15445">
        <ele>83.3</ele>
        <time>2023-06-21T12:07:44Z</time>
      </trkpt>
      <trkpt lat="49.7687" lon="2.15443">
        <ele>83.3</ele>
        <time>2023-06-21T12:07:46Z</time>
      </trkpt>
      <trkpt lat="49.7687" lon="2.15442">
        <ele>83.3</ele>
        <time>2023-06-21T12:07:47Z</time>
      </trkpt>
      <trkpt lat="49.7687" lon="2.15439">
        <ele>83.3</ele>
        <time>2023-06-21T12:07:48Z</time>
      </trkpt>
      <trkpt lat="49.7687" lon="2.15437">
        <ele>83.4</ele>
        <time>2023-06-21T12:07:49Z</time>
      </trkpt>
      <trkpt lat="49.76871" lon="2.15434">
        <ele>83.4</ele>
        <time>2023-06-21T12:07:50Z</time>
      </trkpt>
      <trkpt lat="49.76872" lon="2.15433">
        <ele>83.4</ele>
        <time>2023-06-21T12:07:51Z</time>
      </trkpt>
      <trkpt lat="49.76872" lon="2.15432">
        <ele>83.5</ele>
        <time>2023-06-21T12:07:52Z</time>
      </trkpt>
      <trkpt lat="49.76873" lon="2.15429">
        <ele>83.5</ele>
        <time>2023-06-21T12:07:54Z</time>
      </trkpt>
      <trkpt lat="49.76874" lon="2.15428">
        <ele>83.5</ele>
        <time>2023-06-21T12:07:55Z</time>
      </trkpt>
      <trkpt lat="49.76874" lon="2.15427">
        <ele>83.5</ele>
        <time>2023-06-21T12:07:56Z</time>
      </trkpt>
      <trkpt lat="49.76875" lon="2.15424">
        <ele>83.6</ele>
        <time>2023-06-21T12:07:57Z</time>
      </trkpt>
      <trkpt lat="49.76875" lon="2.15423">
        <ele>83.6</ele>
        <time>2023-06-21T12:07:58Z</time>
      </trkpt>
      <trkpt lat="49.76876" lon="2.15422">
        <ele>83.6</ele>
        <time>2023-06-21T12:07:59Z</time>
      </trkpt>
      <trkpt lat="49.76877" lon="2.15418">
        <ele>83.7</ele>
        <time>2023-06-21T12:08:00Z</time>
      </trkpt>
      <trkpt lat="49.76878" lon="2.15417">
        <ele>83.7</ele>
        <time>2023-06-21T12:08:02Z</time>
      </trkpt>
      <trkpt lat="49.76878" lon="2.15416">
        <ele>83.7</ele>
        <time>2023-06-21T12:08:03Z</time>
      </trkpt>
      <trkpt lat="49.76879" lon="2.15414">
        <ele>83.7</ele>
        <time>2023-06-21T12:08:04Z</time>
      </trkpt>
      <trkpt lat="49.7688" lon="2.15413">
        <ele>83.7</ele>
        <time>2023-06-21T12:08:05Z</time>
      </trkpt>
      <trkpt lat="49.76881" lon="2.1541">
        <ele>83.7</ele>
        <time>2023-06-21T12:08:07Z</time>
      </trkpt>
      <trkpt lat="49.76882" lon="2.15408">
        <ele>83.7</ele>
        <time>2023-06-21T12:08:08Z</time>
      </trkpt>
      <trkpt lat="49.76882" lon="2.15406">
        <ele>83.8</ele>
        <time>2023-06-21T12:08:09Z</time>
      </trkpt>
      <trkpt lat="49.76883" lon="2.15404">
        <ele>83.8</ele>
        <time>2023-06-21T12:08:10Z</time>
      </trkpt>
      <trkpt lat="49.76884" lon="2.15401">
        <ele>83.8</ele>
        <time>2023-06-21T12:08:11Z</time>
      </trkpt>
      <trkpt lat="49.76884" lon="2.154">
        <ele>83.8</ele>
        <time>2023-06-21T12:08:12Z</time>
      </trkpt>
      <trkpt lat="49.76885" lon="2.15398">
        <ele>83.8</ele>
        <time>2023-06-21T12:08:13Z</time>
      </trkpt>
      <trkpt lat="49.76886" lon="2.15396">
        <ele>83.8</ele>
        <time>2023-06-21T12:08:15Z</time>
      </trkpt>
      <trkpt lat="49.76886" lon="2.15395">
        <ele>83.8</ele>
        <time>2023-06-21T12:08:16Z</time>
      </trkpt>
      <trkpt lat="49.76887" lon="2.15394">
        <ele>83.8</ele>
        <time>2023-06-21T12:08:17Z</time>
      </trkpt>
      <trkpt lat="49.76888" lon="2.15392">
        <ele>83.8</ele>
        <time>2023-06-21T12:08:18Z</time>
      </trkpt>
      <trkpt lat="49.76888" lon="2.1539">
        <ele>83.8</ele>
        <time>2023-06-21T12:08:19Z</time>
      </trkpt>
      <trkpt lat="49.76889" lon="2.15389">
        <ele>83.8</ele>
        <time>2023-06-21T12:08:21Z</time>
      </trkpt>
      <trkpt lat="49.7689" lon="2.15387">
        <ele>83.8</ele>
        <time>2023-06-21T12:08:22Z</time>
      </trkpt>
      <trkpt lat="49.7689" lon="2.15386">
        <ele>83.8</ele>
        <time>2023-06-21T12:08:23Z</time>
      </trkpt>
      <trkpt lat="49.76891" lon="2.15385">
        <ele>83.8</ele>
        <time>2023-06-21T12:08:24Z</time>
      </trkpt>
      <trkpt lat="49.76892" lon="2.15384">
        <ele>83.8</ele>
        <time>2023-06-21T12:08:25Z</time>
      </trkpt>
      <trkpt lat="49.76893" lon="2.15383">
        <ele>83.8</ele>
        <time>2023-06-21T12:08:26Z</time>
      </trkpt>
      <trkpt lat="49.76893" lon="2.15381">
        <ele>83.8</ele>
        <time>2023-06-21T12:08:28Z</time>
      </trkpt>
      <trkpt lat="49.76893" lon="2.1538">
        <ele>83.8</ele>
        <time>2023-06-21T12:08:29Z</time>
      </trkpt>
      <trkpt lat="49.76894" lon="2.15378">
        <ele>83.8</ele>
        <time>2023-06-21T12:08:30Z</time>
      </trkpt>
      <trkpt lat="49.76894" lon="2.15377">
        <ele>83.8</ele>
        <time>2023-06-21T12:08:31Z</time>
      </trkpt>
      <trkpt lat="49.76894" lon="2.15376">
        <ele>83.8</ele>
        <time>2023-06-21T12:08:32Z</time>
      </trkpt>
      <trkpt lat="49.76894" lon="2.15374">
        <ele>83.7</ele>
        <time>2023-06-21T12:08:33Z</time>
      </trkpt>
      <trkpt lat="49.76894" lon="2.15373">
        <ele>83.7</ele>
        <time>2023-06-21T12:08:34Z</time>
      </trkpt>
      <trkpt lat="49.76894" lon="2.15371">
        <ele>83.7</ele>
        <time>2023-06-21T12:08:36Z</time>
      </trkpt>
      <trkpt lat="49.76894" lon="2.15369">
        <ele>83.7</ele>
        <time>2023-06-21T12:08:37Z</time>
      </trkpt>
      <trkpt lat="49.76894" lon="2.15368">
        <ele>83.6</ele>
        <time>2023-06-21T12:08:38Z</time>
      </trkpt>
      <trkpt lat="49.76893" lon="2.15367">
        <ele>83.6</ele>
        <time>2023-06-21T12:08:39Z</time>
      </trkpt>
      <trkpt lat="49.76892" lon="2.15365">
        <ele>83.6</ele>
        <time>2023-06-21T12:08:40Z</time>
      </trkpt>
      <trkpt lat="49.76891" lon="2.15364">
        <ele>83.5</ele>
        <time>2023-06-21T12:08:42Z</time>
      </trkpt>
      <trkpt lat="49.7689" lon="2.15362">
        <ele>83.5</ele>
        <time>2023-06-21T12:08:43Z</time>
      </trkpt>
      <trkpt lat="49.76889" lon="2.15361">
        <ele>83.5</ele>
        <time>2023-06-21T12:08:44Z</time>
      </trkpt>
      <trkpt lat="49.76888" lon="2.15361">
        <ele>83.4</ele>
        <time>2023-06-21T12:08:46Z</time>
      </trkpt>
      <trkpt lat="49.76887" lon="2.15361">
        <ele>83.4</ele>
        <time>2023-06-21T12:08:47Z</time>
      </trkpt>
      <trkpt lat="49.76886" lon="2.15361">
        <ele>83.4</ele>
        <time>2023-06-21T12:08:48Z</time>
      </trkpt>
      <trkpt lat="49.76886" lon="2.15361">
        <ele>83.4</ele>
        <time>2023-06-21T12:08:49Z</time>
      </trkpt>
      <trkpt lat="49.76885" lon="2.1536">
        <ele>83.4</ele>
        <time>2023-06-21T12:08:50Z</time>
      </trkpt>
      <trkpt lat="49.76885" lon="2.1536">
        <ele>83.4</ele>
        <time>2023-06-21T12:08:51Z</time>
      </trkpt>
      <trkpt lat="49.76885" lon="2.15359">
        <ele>83.4</ele>
        <time>2023-06-21T12:08:53Z</time>
      </trkpt>
      <trkpt lat="49.76884" lon="2.15358">
        <ele>83.4</ele>
        <time>2023-06-21T12:08:54Z</time>
      </trkpt>
      <trkpt lat="49.76883" lon="2.15357">
        <ele>83.3</ele>
        <time>2023-06-21T12:08:55Z</time>
      </trkpt>
      <trkpt lat="49.76883" lon="2.15356">
        <ele>83.3</ele>
        <time>2023-06-21T12:08:56Z</time>
      </trkpt>
      <trkpt lat="49.76882" lon="2.15355">
        <ele>83.3</ele>
        <time>2023-06-21T12:08:57Z</time>
      </trkpt>
      <trkpt lat="49.76881" lon="2.15353">
        <ele>83.3</ele>
        <time>2023-06-21T12:08:58Z</time>
      </trkpt>
      <trkpt lat="49.7688" lon="2.15352">
        <ele>83.3</ele>
        <time>2023-06-21T12:08:59Z</time>
      </trkpt>
      <trkpt lat="49.76879" lon="2.15351">
        <ele>83.3</ele>
        <time>2023-06-21T12:09:01Z</time>
      </trkpt>
      <trkpt lat="49.76879" lon="2.1535">
        <ele>83.3</ele>
        <time>2023-06-21T12:09:02Z</time>
      </trkpt>
      <trkpt lat="49.76878" lon="2.15349">
        <ele>83.2</ele>
        <time>2023-06-21T12:09:03Z</time>
      </trkpt>
      <trkpt lat="49.76876" lon="2.15348">
        <ele>83.2</ele>
        <time>2023-06-21T12:09:04Z</time>
      </trkpt>
      <trkpt lat="49.76874" lon="2.15345">
        <ele>83.2</ele>
        <time>2023-06-21T12:09:05Z</time>
      </trkpt>
      <trkpt lat="49.76873" lon="2.15345">
        <ele>83.2</ele>
        <time>2023-06-21T12:09:06Z</time>
      </trkpt>
      <trkpt lat="49.76871" lon="2.15343">
        <ele>83.2</ele>
        <time>2023-06-21T12:09:07Z</time>
      </trkpt>
      <trkpt lat="49.7687" lon="2.15342">
        <ele>83.1</ele>
        <time>2023-06-21T12:09:08Z</time>
      </trkpt>
      <trkpt lat="49.76869" lon="2.1534">
        <ele>83.1</ele>
        <time>2023-06-21T12:09:10Z</time>
      </trkpt>
      <trkpt lat="49.76868" lon="2.15339">
        <ele>83.1</ele>
        <time>2023-06-21T12:09:11Z</time>
      </trkpt>
      <trkpt lat="49.76867" lon="2.15337">
        <ele>83.1</ele>
        <time>2023-06-21T12:09:12Z</time>
      </trkpt>
      <trkpt lat="49.76866" lon="2.15336">
        <ele>83.1</ele>
        <time>2023-06-21T12:09:13Z</time>
      </trkpt>
      <trkpt lat="49.76864" lon="2.15334">
        <ele>83.1</ele>
        <time>2023-06-21T12:09:14Z</time>
      </trkpt>
      <trkpt lat="49.76864" lon="2.15333">
        <ele>83.1</ele>
        <time>2023-06-21T12:09:16Z</time>
      </trkpt>
      <trkpt lat="49.76863" lon="2.15331">
        <ele>83.1</ele>
        <time>2023-06-21T12:09:17Z</time>
      </trkpt>
      <trkpt lat="49.76862" lon="2.1533">
        <ele>83.1</ele>
        <time>2023-06-21T12:09:18Z</time>
      </trkpt>
      <trkpt lat="49.76862" lon="2.15329">
        <ele>83.1</ele>
        <time>2023-06-21T12:09:19Z</time>
      </trkpt>
      <trkpt lat="49.76861" lon="2.15328">
        <ele>83.1</ele>
        <time>2023-06-21T12:09:20Z</time>
      </trkpt>
      <trkpt lat="49.7686" lon="2.15327">
        <ele>83.1</ele>
        <time>2023-06-21T12:09:21Z</time>
      </trkpt>
      <trkpt lat="49.76858" lon="2.15324">
        <ele>83.1</ele>
        <time>2023-06-21T12:09:23Z</time>
      </trkpt>
      <trkpt lat="49.76857" lon="2.15321">
        <ele>83.1</ele>
        <time>2023-06-21T12:09:25Z</time>
      </trkpt>
      <trkpt lat="49.76856" lon="2.15321">
        <ele>83.1</ele>
        <time>2023-06-21T12:09:26Z</time>
      </trkpt>
      <trkpt lat="49.76855" lon="2.15319">
        <ele>83.1</ele>
        <time>2023-06-21T12:09:27Z</time>
      </trkpt>
      <trkpt lat="49.76854" lon="2.15318">
        <ele>83.1</ele>
        <time>2023-06-21T12:09:28Z</time>
      </trkpt>
      <trkpt lat="49.76853" lon="2.15317">
        <ele>83.1</ele>
        <time>2023-06-21T12:09:29Z</time>
      </trkpt>
      <trkpt lat="49.76852" lon="2.15315">
        <ele>83.1</ele>
        <time>2023-06-21T12:09:30Z</time>
      </trkpt>
      <trkpt lat="49.7685" lon="2.15314">
        <ele>83.1</ele>
        <time>2023-06-21T12:09:32Z</time>
      </trkpt>
      <trkpt lat="49.7685" lon="2.15313">
        <ele>83.1</ele>
        <time>2023-06-21T12:09:33Z</time>
      </trkpt>
      <trkpt lat="49.76848" lon="2.15312">
        <ele>83.1</ele>
        <time>2023-06-21T12:09:34Z</time>
      </trkpt>
      <trkpt lat="49.76847" lon="2.15311">
        <ele>83.1</ele>
        <time>2023-06-21T12:09:35Z</time>
      </trkpt>
      <trkpt lat="49.76846" lon="2.1531">
        <ele>83.1</ele>
        <time>2023-06-21T12:09:36Z</time>
      </trkpt>
      <trkpt lat="49.76845" lon="2.15308">
        <ele>83.1</ele>
        <time>2023-06-21T12:09:37Z</time>
      </trkpt>
      <trkpt lat="49.76844" lon="2.15307">
        <ele>83.1</ele>
        <time>2023-06-21T12:09:38Z</time>
      </trkpt>
      <trkpt lat="49.76843" lon="2.15306">
        <ele>83.1</ele>
        <time>2023-06-21T12:09:39Z</time>
      </trkpt>
      <trkpt lat="49.76842" lon="2.15305">
        <ele>83.1</ele>
        <time>2023-06-21T12:09:40Z</time>
      </trkpt>
      <trkpt lat="49.76841" lon="2.15304">
        <ele>83.1</ele>
        <time>2023-06-21T12:09:41Z</time>
      </trkpt>
      <trkpt lat="49.76839" lon="2.15303">
        <ele>83.1</ele>
        <time>2023-06-21T12:09:43Z</time>
      </trkpt>
      <trkpt lat="49.76838" lon="2.15302">
        <ele>83.1</ele>
        <time>2023-06-21T12:09:44Z</time>
      </trkpt>
      <trkpt lat="49.76838" lon="2.15301">
        <ele>83.1</ele>
        <time>2023-06-21T12:09:45Z</time>
      </trkpt>
      <trkpt lat="49.76837" lon="2.153">
        <ele>83.1</ele>
        <time>2023-06-21T12:09:46Z</time>
      </trkpt>
      <trkpt lat="49.76836" lon="2.15299">
        <ele>83.1</ele>
        <time>2023-06-21T12:09:47Z</time>
      </trkpt>
      <trkpt lat="49.76835" lon="2.15298">
        <ele>83.1</ele>
        <time>2023-06-21T12:09:48Z</time>
      </trkpt>
      <trkpt lat="49.76834" lon="2.15297">
        <ele>83.1</ele>
        <time>2023-06-21T12:09:49Z</time>
      </trkpt>
      <trkpt lat="49.76833" lon="2.15296">
        <ele>83.1</ele>
        <time>2023-06-21T12:09:50Z</time>
      </trkpt>
      <trkpt lat="49.76832" lon="2.15295">
        <ele>83.1</ele>
        <time>2023-06-21T12:09:52Z</time>
      </trkpt>
      <trkpt lat="49.76831" lon="2.15294">
        <ele>83.2</ele>
        <time>2023-06-21T12:09:53Z</time>
      </trkpt>
      <trkpt lat="49.76831" lon="2.15293">
        <ele>83.2</ele>
        <time>2023-06-21T12:09:54Z</time>
      </trkpt>
      <trkpt lat="49.7683" lon="2.15292">
        <ele>83.2</ele>
        <time>2023-06-21T12:09:55Z</time>
      </trkpt>
      <trkpt lat="49.7683" lon="2.15291">
        <ele>83.2</ele>
        <time>2023-06-21T12:09:56Z</time>
      </trkpt>
      <trkpt lat="49.76829" lon="2.1529">
        <ele>83.2</ele>
        <time>2023-06-21T12:09:57Z</time>
      </trkpt>
      <trkpt lat="49.76828" lon="2.15288">
        <ele>83.2</ele>
        <time>2023-06-21T12:09:58Z</time>
      </trkpt>
      <trkpt lat="49.76826" lon="2.15287">
        <ele>83.2</ele>
        <time>2023-06-21T12:09:59Z</time>
      </trkpt>
      <trkpt lat="49.76825" lon="2.15285">
        <ele>83.2</ele>
        <time>2023-06-21T12:10:01Z</time>
      </trkpt>
      <trkpt lat="49.76824" lon="2.15284">
        <ele>83.2</ele>
        <time>2023-06-21T12:10:02Z</time>
      </trkpt>
      <trkpt lat="49.76823" lon="2.15283">
        <ele>83.2</ele>
        <time>2023-06-21T12:10:03Z</time>
      </trkpt>
      <trkpt lat="49.76822" lon="2.15282">
        <ele>83.3</ele>
        <time>2023-06-21T12:10:04Z</time>
      </trkpt>
      <trkpt lat="49.76821" lon="2.15281">
        <ele>83.3</ele>
        <time>2023-06-21T12:10:05Z</time>
      </trkpt>
      <trkpt lat="49.7682" lon="2.15281">
        <ele>83.3</ele>
        <time>2023-06-21T12:10:06Z</time>
      </trkpt>
      <trkpt lat="49.76819" lon="2.1528">
        <ele>83.3</ele>
        <time>2023-06-21T12:10:07Z</time>
      </trkpt>
      <trkpt lat="49.76818" lon="2.15279">
        <ele>83.3</ele>
        <time>2023-06-21T12:10:08Z</time>
      </trkpt>
      <trkpt lat="49.76817" lon="2.15278">
        <ele>83.3</ele>
        <time>2023-06-21T12:10:09Z</time>
      </trkpt>
      <trkpt lat="49.76816" lon="2.15277">
        <ele>83.3</ele>
        <time>2023-06-21T12:10:11Z</time>
      </trkpt>
      <trkpt lat="49.76815" lon="2.15277">
        <ele>83.3</ele>
        <time>2023-06-21T12:10:12Z</time>
      </trkpt>
      <trkpt lat="49.76814" lon="2.15276">
        <ele>83.3</ele>
        <time>2023-06-21T12:10:13Z</time>
      </trkpt>
      <trkpt lat="49.76813" lon="2.15275">
        <ele>83.3</ele>
        <time>2023-06-21T12:10:15Z</time>
      </trkpt>
      <trkpt lat="49.76811" lon="2.15274">
        <ele>83.4</ele>
        <time>2023-06-21T12:10:16Z</time>
      </trkpt>
      <trkpt lat="49.7681" lon="2.15273">
        <ele>83.4</ele>
        <time>2023-06-21T12:10:17Z</time>
      </trkpt>
      <trkpt lat="49.76809" lon="2.15272">
        <ele>83.4</ele>
        <time>2023-06-21T12:10:18Z</time>
      </trkpt>
      <trkpt lat="49.76808" lon="2.15271">
        <ele>83.4</ele>
        <time>2023-06-21T12:10:19Z</time>
      </trkpt>
      <trkpt lat="49.76807" lon="2.1527">
        <ele>83.4</ele>
        <time>2023-06-21T12:10:21Z</time>
      </trkpt>
      <trkpt lat="49.76807" lon="2.1527">
        <ele>83.4</ele>
        <time>2023-06-21T12:10:22Z</time>
      </trkpt>
      <trkpt lat="49.76806" lon="2.15269">
        <ele>83.4</ele>
        <time>2023-06-21T12:10:23Z</time>
      </trkpt>
      <trkpt lat="49.76805" lon="2.15268">
        <ele>83.4</ele>
        <time>2023-06-21T12:10:24Z</time>
      </trkpt>
      <trkpt lat="49.76803" lon="2.15268">
        <ele>83.4</ele>
        <time>2023-06-21T12:10:25Z</time>
      </trkpt>
      <trkpt lat="49.76802" lon="2.15267">
        <ele>83.4</ele>
        <time>2023-06-21T12:10:26Z</time>
      </trkpt>
      <trkpt lat="49.76801" lon="2.15267">
        <ele>83.5</ele>
        <time>2023-06-21T12:10:27Z</time>
      </trkpt>
      <trkpt lat="49.768" lon="2.15266">
        <ele>83.5</ele>
        <time>2023-06-21T12:10:28Z</time>
      </trkpt>
      <trkpt lat="49.768" lon="2.15265">
        <ele>83.5</ele>
        <time>2023-06-21T12:10:30Z</time>
      </trkpt>
      <trkpt lat="49.76799" lon="2.15264">
        <ele>83.5</ele>
        <time>2023-06-21T12:10:31Z</time>
      </trkpt>
      <trkpt lat="49.76798" lon="2.15263">
        <ele>83.5</ele>
        <time>2023-06-21T12:10:32Z</time>
      </trkpt>
      <trkpt lat="49.76797" lon="2.15262">
        <ele>83.5</ele>
        <time>2023-06-21T12:10:33Z</time>
      </trkpt>
      <trkpt lat="49.76796" lon="2.15261">
        <ele>83.5</ele>
        <time>2023-06-21T12:10:34Z</time>
      </trkpt>
      <trkpt lat="49.76794" lon="2.1526">
        <ele>83.5</ele>
        <time>2023-06-21T12:10:35Z</time>
      </trkpt>
      <trkpt lat="49.76794" lon="2.1526">
        <ele>83.5</ele>
        <time>2023-06-21T12:10:36Z</time>
      </trkpt>
      <trkpt lat="49.76793" lon="2.15259">
        <ele>83.5</ele>
        <time>2023-06-21T12:10:37Z</time>
      </trkpt>
      <trkpt lat="49.76791" lon="2.15258">
        <ele>83.5</ele>
        <time>2023-06-21T12:10:38Z</time>
      </trkpt>
      <trkpt lat="49.7679" lon="2.15257">
        <ele>83.6</ele>
        <time>2023-06-21T12:10:39Z</time>
      </trkpt>
      <trkpt lat="49.76788" lon="2.15256">
        <ele>83.6</ele>
        <time>2023-06-21T12:10:41Z</time>
      </trkpt>
      <trkpt lat="49.76787" lon="2.15255">
        <ele>83.6</ele>
        <time>2023-06-21T12:10:42Z</time>
      </trkpt>
      <trkpt lat="49.76787" lon="2.15255">
        <ele>83.6</ele>
        <time>2023-06-21T12:10:43Z</time>
      </trkpt>
      <trkpt lat="49.76786" lon="2.15253">
        <ele>83.6</ele>
        <time>2023-06-21T12:10:44Z</time>
      </trkpt>
      <trkpt lat="49.76784" lon="2.15252">
        <ele>83.6</ele>
        <time>2023-06-21T12:10:45Z</time>
      </trkpt>
      <trkpt lat="49.76782" lon="2.1525">
        <ele>83.6</ele>
        <time>2023-06-21T12:10:46Z</time>
      </trkpt>
      <trkpt lat="49.76781" lon="2.15249">
        <ele>83.6</ele>
        <time>2023-06-21T12:10:48Z</time>
      </trkpt>
      <trkpt lat="49.7678" lon="2.15249">
        <ele>83.6</ele>
        <time>2023-06-21T12:10:49Z</time>
      </trkpt>
      <trkpt lat="49.76779" lon="2.15248">
        <ele>83.7</ele>
        <time>2023-06-21T12:10:50Z</time>
      </trkpt>
      <trkpt lat="49.76778" lon="2.15247">
        <ele>83.7</ele>
        <time>2023-06-21T12:10:51Z</time>
      </trkpt>
      <trkpt lat="49.76777" lon="2.15246">
        <ele>83.7</ele>
        <time>2023-06-21T12:10:52Z</time>
      </trkpt>
      <trkpt lat="49.76776" lon="2.15245">
        <ele>83.7</ele>
        <time>2023-06-21T12:10:54Z</time>
      </trkpt>
      <trkpt lat="49.76775" lon="2.15244">
        <ele>83.7</ele>
        <time>2023-06-21T12:10:55Z</time>
      </trkpt>
      <trkpt lat="49.76774" lon="2.15242">
        <ele>83.7</ele>
        <time>2023-06-21T12:10:56Z</time>
      </trkpt>
      <trkpt lat="49.76772" lon="2.1524">
        <ele>83.7</ele>
        <time>2023-06-21T12:10:57Z</time>
      </trkpt>
      <trkpt lat="49.76772" lon="2.15239">
        <ele>83.7</ele>
        <time>2023-06-21T12:10:58Z</time>
      </trkpt>
      <trkpt lat="49.76771" lon="2.15239">
        <ele>83.7</ele>
        <time>2023-06-21T12:10:59Z</time>
      </trkpt>
      <trkpt lat="49.76769" lon="2.15237">
        <ele>83.7</ele>
        <time>2023-06-21T12:11:00Z</time>
      </trkpt>
      <trkpt lat="49.76768" lon="2.15236">
        <ele>83.8</ele>
        <time>2023-06-21T12:11:01Z</time>
      </trkpt>
      <trkpt lat="49.76767" lon="2.15235">
        <ele>83.8</ele>
        <time>2023-06-21T12:11:03Z</time>
      </trkpt>
      <trkpt lat="49.76765" lon="2.15234">
        <ele>83.8</ele>
        <time>2023-06-21T12:11:04Z</time>
      </trkpt>
      <trkpt lat="49.76764" lon="2.15233">
        <ele>83.8</ele>
        <time>2023-06-21T12:11:05Z</time>
      </trkpt>
      <trkpt lat="49.76762" lon="2.15233">
        <ele>83.8</ele>
        <time>2023-06-21T12:11:06Z</time>
      </trkpt>
      <trkpt lat="49.7676" lon="2.15231">
        <ele>83.8</ele>
        <time>2023-06-21T12:11:08Z</time>
      </trkpt>
      <trkpt lat="49.76759" lon="2.15231">
        <ele>83.8</ele>
        <time>2023-06-21T12:11:09Z</time>
      </trkpt>
      <trkpt lat="49.76757" lon="2.15229">
        <ele>83.8</ele>
        <time>2023-06-21T12:11:10Z</time>
      </trkpt>
      <trkpt lat="49.76756" lon="2.15229">
        <ele>83.9</ele>
        <time>2023-06-21T12:11:11Z</time>
      </trkpt>
      <trkpt lat="49.76756" lon="2.15228">
        <ele>83.9</ele>
        <time>2023-06-21T12:11:12Z</time>
      </trkpt>
      <trkpt lat="49.76755" lon="2.15228">
        <ele>83.9</ele>
        <time>2023-06-21T12:11:13Z</time>
      </trkpt>
      <trkpt lat="49.76753" lon="2.15227">
        <ele>83.9</ele>
        <time>2023-06-21T12:11:14Z</time>
      </trkpt>
      <trkpt lat="49.76752" lon="2.15227">
        <ele>83.9</ele>
        <time>2023-06-21T12:11:16Z</time>
      </trkpt>
      <trkpt lat="49.76751" lon="2.15226">
        <ele>83.9</ele>
        <time>2023-06-21T12:11:17Z</time>
      </trkpt>
      <trkpt lat="49.7675" lon="2.15225">
        <ele>83.9</ele>
        <time>2023-06-21T12:11:18Z</time>
      </trkpt>
      <trkpt lat="49.76749" lon="2.15225">
        <ele>83.9</ele>
        <time>2023-06-21T12:11:19Z</time>
      </trkpt>
      <trkpt lat="49.76747" lon="2.15223">
        <ele>83.9</ele>
        <time>2023-06-21T12:11:20Z</time>
      </trkpt>
      <trkpt lat="49.76747" lon="2.15223">
        <ele>83.9</ele>
        <time>2023-06-21T12:11:21Z</time>
      </trkpt>
      <trkpt lat="49.76746" lon="2.15222">
        <ele>83.9</ele>
        <time>2023-06-21T12:11:22Z</time>
      </trkpt>
      <trkpt lat="49.76744" lon="2.15222">
        <ele>84</ele>
        <time>2023-06-21T12:11:23Z</time>
      </trkpt>
      <trkpt lat="49.76743" lon="2.15221">
        <ele>84</ele>
        <time>2023-06-21T12:11:24Z</time>
      </trkpt>
      <trkpt lat="49.76741" lon="2.1522">
        <ele>84</ele>
        <time>2023-06-21T12:11:26Z</time>
      </trkpt>
      <trkpt lat="49.7674" lon="2.1522">
        <ele>84</ele>
        <time>2023-06-21T12:11:27Z</time>
      </trkpt>
      <trkpt lat="49.76739" lon="2.1522">
        <ele>84</ele>
        <time>2023-06-21T12:11:28Z</time>
      </trkpt>
      <trkpt lat="49.76738" lon="2.15219">
        <ele>84</ele>
        <time>2023-06-21T12:11:29Z</time>
      </trkpt>
      <trkpt lat="49.76736" lon="2.15218">
        <ele>84</ele>
        <time>2023-06-21T12:11:30Z</time>
      </trkpt>
      <trkpt lat="49.76735" lon="2.15217">
        <ele>84</ele>
        <time>2023-06-21T12:11:31Z</time>
      </trkpt>
      <trkpt lat="49.76733" lon="2.15216">
        <ele>84</ele>
        <time>2023-06-21T12:11:32Z</time>
      </trkpt>
      <trkpt lat="49.76731" lon="2.15216">
        <ele>84.1</ele>
        <time>2023-06-21T12:11:34Z</time>
      </trkpt>
      <trkpt lat="49.7673" lon="2.15215">
        <ele>84.1</ele>
        <time>2023-06-21T12:11:35Z</time>
      </trkpt>
      <trkpt lat="49.7673" lon="2.15215">
        <ele>84.1</ele>
        <time>2023-06-21T12:11:36Z</time>
      </trkpt>
      <trkpt lat="49.76727" lon="2.15214">
        <ele>84.1</ele>
        <time>2023-06-21T12:11:37Z</time>
      </trkpt>
      <trkpt lat="49.76726" lon="2.15214">
        <ele>84.1</ele>
        <time>2023-06-21T12:11:39Z</time>
      </trkpt>
      <trkpt lat="49.76725" lon="2.15214">
        <ele>84.1</ele>
        <time>2023-06-21T12:11:40Z</time>
      </trkpt>
      <trkpt lat="49.76724" lon="2.15214">
        <ele>84.1</ele>
        <time>2023-06-21T12:11:41Z</time>
      </trkpt>
      <trkpt lat="49.76723" lon="2.15214">
        <ele>84.1</ele>
        <time>2023-06-21T12:11:42Z</time>
      </trkpt>
      <trkpt lat="49.76721" lon="2.15213">
        <ele>84.1</ele>
        <time>2023-06-21T12:11:43Z</time>
      </trkpt>
      <trkpt lat="49.7672" lon="2.15213">
        <ele>84.2</ele>
        <time>2023-06-21T12:11:44Z</time>
      </trkpt>
      <trkpt lat="49.76719" lon="2.15212">
        <ele>84.2</ele>
        <time>2023-06-21T12:11:45Z</time>
      </trkpt>
      <trkpt lat="49.76718" lon="2.15212">
        <ele>84.2</ele>
        <time>2023-06-21T12:11:46Z</time>
      </trkpt>
      <trkpt lat="49.76717" lon="2.15212">
        <ele>84.2</ele>
        <time>2023-06-21T12:11:48Z</time>
      </trkpt>
      <trkpt lat="49.76716" lon="2.15211">
        <ele>84.2</ele>
        <time>2023-06-21T12:11:49Z</time>
      </trkpt>
      <trkpt lat="49.76715" lon="2.15211">
        <ele>84.2</ele>
        <time>2023-06-21T12:11:50Z</time>
      </trkpt>
      <trkpt lat="49.76714" lon="2.15211">
        <ele>84.2</ele>
        <time>2023-06-21T12:11:51Z</time>
      </trkpt>
      <trkpt lat="49.76712" lon="2.1521">
        <ele>84.2</ele>
        <time>2023-06-21T12:11:52Z</time>
      </trkpt>
      <trkpt lat="49.76711" lon="2.15209">
        <ele>84.2</ele>
        <time>2023-06-21T12:11:54Z</time>
      </trkpt>
      <trkpt lat="49.7671" lon="2.15209">
        <ele>84.2</ele>
        <time>2023-06-21T12:11:55Z</time>
      </trkpt>
      <trkpt lat="49.76709" lon="2.15208">
        <ele>84.3</ele>
        <time>2023-06-21T12:11:56Z</time>
      </trkpt>
      <trkpt lat="49.76708" lon="2.15208">
        <ele>84.3</ele>
        <time>2023-06-21T12:11:57Z</time>
      </trkpt>
      <trkpt lat="49.76707" lon="2.15208">
        <ele>84.3</ele>
        <time>2023-06-21T12:11:58Z</time>
      </trkpt>
      <trkpt lat="49.76707" lon="2.15208">
        <ele>84.3</ele>
        <time>2023-06-21T12:11:59Z</time>
      </trkpt>
      <trkpt lat="49.76706" lon="2.15207">
        <ele>84.3</ele>
        <time>2023-06-21T12:12:00Z</time>
      </trkpt>
      <trkpt lat="49.76704" lon="2.15207">
        <ele>84.3</ele>
        <time>2023-06-21T12:12:01Z</time>
      </trkpt>
      <trkpt lat="49.76703" lon="2.15206">
        <ele>84.3</ele>
        <time>2023-06-21T12:12:03Z</time>
      </trkpt>
      <trkpt lat="49.76701" lon="2.15206">
        <ele>84.3</ele>
        <time>2023-06-21T12:12:04Z</time>
      </trkpt>
      <trkpt lat="49.767" lon="2.15205">
        <ele>84.3</ele>
        <time>2023-06-21T12:12:05Z</time>
      </trkpt>
      <trkpt lat="49.76699" lon="2.15205">
        <ele>84.4</ele>
        <time>2023-06-21T12:12:06Z</time>
      </trkpt>
      <trkpt lat="49.76697" lon="2.15204">
        <ele>84.4</ele>
        <time>2023-06-21T12:12:07Z</time>
      </trkpt>
      <trkpt lat="49.76696" lon="2.15203">
        <ele>84.4</ele>
        <time>2023-06-21T12:12:08Z</time>
      </trkpt>
      <trkpt lat="49.76695" lon="2.15203">
        <ele>84.4</ele>
        <time>2023-06-21T12:12:09Z</time>
      </trkpt>
      <trkpt lat="49.76694" lon="2.15202">
        <ele>84.4</ele>
        <time>2023-06-21T12:12:10Z</time>
      </trkpt>
      <trkpt lat="49.76692" lon="2.15201">
        <ele>84.4</ele>
        <time>2023-06-21T12:12:12Z</time>
      </trkpt>
      <trkpt lat="49.76691" lon="2.15201">
        <ele>84.4</ele>
        <time>2023-06-21T12:12:13Z</time>
      </trkpt>
      <trkpt lat="49.76691" lon="2.152">
        <ele>84.4</ele>
        <time>2023-06-21T12:12:14Z</time>
      </trkpt>
      <trkpt lat="49.76689" lon="2.152">
        <ele>84.4</ele>
        <time>2023-06-21T12:12:15Z</time>
      </trkpt>
      <trkpt lat="49.76688" lon="2.15199">
        <ele>84.5</ele>
        <time>2023-06-21T12:12:16Z</time>
      </trkpt>
      <trkpt lat="49.76687" lon="2.15198">
        <ele>84.5</ele>
        <time>2023-06-21T12:12:18Z</time>
      </trkpt>
      <trkpt lat="49.76686" lon="2.15198">
        <ele>84.5</ele>
        <time>2023-06-21T12:12:19Z</time>
      </trkpt>
      <trkpt lat="49.76685" lon="2.15197">
        <ele>84.5</ele>
        <time>2023-06-21T12:12:20Z</time>
      </trkpt>
      <trkpt lat="49.76684" lon="2.15196">
        <ele>84.5</ele>
        <time>2023-06-21T12:12:21Z</time>
      </trkpt>
      <trkpt lat="49.76683" lon="2.15196">
        <ele>84.5</ele>
        <time>2023-06-21T12:12:22Z</time>
      </trkpt>
      <trkpt lat="49.76682" lon="2.15195">
        <ele>84.5</ele>
        <time>2023-06-21T12:12:23Z</time>
      </trkpt>
      <trkpt lat="49.76681" lon="2.15194">
        <ele>84.5</ele>
        <time>2023-06-21T12:12:24Z</time>
      </trkpt>
      <trkpt lat="49.76679" lon="2.15191">
        <ele>84.6</ele>
        <time>2023-06-21T12:12:26Z</time>
      </trkpt>
      <trkpt lat="49.76678" lon="2.15191">
        <ele>84.6</ele>
        <time>2023-06-21T12:12:27Z</time>
      </trkpt>
      <trkpt lat="49.76677" lon="2.15189">
        <ele>84.6</ele>
        <time>2023-06-21T12:12:28Z</time>
      </trkpt>
      <trkpt lat="49.76676" lon="2.15188">
        <ele>84.6</ele>
        <time>2023-06-21T12:12:29Z</time>
      </trkpt>
      <trkpt lat="49.76674" lon="2.15187">
        <ele>84.6</ele>
        <time>2023-06-21T12:12:30Z</time>
      </trkpt>
      <trkpt lat="49.76673" lon="2.15185">
        <ele>84.7</ele>
        <time>2023-06-21T12:12:32Z</time>
      </trkpt>
      <trkpt lat="49.76672" lon="2.15184">
        <ele>84.7</ele>
        <time>2023-06-21T12:12:33Z</time>
      </trkpt>
      <trkpt lat="49.76671" lon="2.15183">
        <ele>84.7</ele>
        <time>2023-06-21T12:12:35Z</time>
      </trkpt>
      <trkpt lat="49.7667" lon="2.15182">
        <ele>84.7</ele>
        <time>2023-06-21T12:12:36Z</time>
      </trkpt>
      <trkpt lat="49.76669" lon="2.15181">
        <ele>84.7</ele>
        <time>2023-06-21T12:12:37Z</time>
      </trkpt>
      <trkpt lat="49.76668" lon="2.1518">
        <ele>84.7</ele>
        <time>2023-06-21T12:12:38Z</time>
      </trkpt>
      <trkpt lat="49.76666" lon="2.15178">
        <ele>84.8</ele>
        <time>2023-06-21T12:12:39Z</time>
      </trkpt>
      <trkpt lat="49.76665" lon="2.15178">
        <ele>84.8</ele>
        <time>2023-06-21T12:12:40Z</time>
      </trkpt>
      <trkpt lat="49.76665" lon="2.15177">
        <ele>84.8</ele>
        <time>2023-06-21T12:12:41Z</time>
      </trkpt>
      <trkpt lat="49.76664" lon="2.15176">
        <ele>84.8</ele>
        <time>2023-06-21T12:12:43Z</time>
      </trkpt>
      <trkpt lat="49.76663" lon="2.15175">
        <ele>84.8</ele>
        <time>2023-06-21T12:12:44Z</time>
      </trkpt>
      <trkpt lat="49.76662" lon="2.15175">
        <ele>84.8</ele>
        <time>2023-06-21T12:12:45Z</time>
      </trkpt>
      <trkpt lat="49.76661" lon="2.15174">
        <ele>84.8</ele>
        <time>2023-06-21T12:12:46Z</time>
      </trkpt>
      <trkpt lat="49.7666" lon="2.15173">
        <ele>84.8</ele>
        <time>2023-06-21T12:12:47Z</time>
      </trkpt>
      <trkpt lat="49.76659" lon="2.15172">
        <ele>84.8</ele>
        <time>2023-06-21T12:12:49Z</time>
      </trkpt>
      <trkpt lat="49.76657" lon="2.15171">
        <ele>84.9</ele>
        <time>2023-06-21T12:12:50Z</time>
      </trkpt>
      <trkpt lat="49.76657" lon="2.1517">
        <ele>84.9</ele>
        <time>2023-06-21T12:12:51Z</time>
      </trkpt>
      <trkpt lat="49.76656" lon="2.1517">
        <ele>84.9</ele>
        <time>2023-06-21T12:12:52Z</time>
      </trkpt>
      <trkpt lat="49.76655" lon="2.15169">
        <ele>84.9</ele>
        <time>2023-06-21T12:12:53Z</time>
      </trkpt>
      <trkpt lat="49.76654" lon="2.15168">
        <ele>84.9</ele>
        <time>2023-06-21T12:12:55Z</time>
      </trkpt>
      <trkpt lat="49.76653" lon="2.15168">
        <ele>84.9</ele>
        <time>2023-06-21T12:12:56Z</time>
      </trkpt>
      <trkpt lat="49.76652" lon="2.15167">
        <ele>84.9</ele>
        <time>2023-06-21T12:12:57Z</time>
      </trkpt>
      <trkpt lat="49.76651" lon="2.15167">
        <ele>84.9</ele>
        <time>2023-06-21T12:12:58Z</time>
      </trkpt>
      <trkpt lat="49.76651" lon="2.15166">
        <ele>85</ele>
        <time>2023-06-21T12:12:59Z</time>
      </trkpt>
      <trkpt lat="49.76649" lon="2.15165">
        <ele>85</ele>
        <time>2023-06-21T12:13:01Z</time>
      </trkpt>
      <trkpt lat="49.76648" lon="2.15164">
        <ele>85</ele>
        <time>2023-06-21T12:13:02Z</time>
      </trkpt>
      <trkpt lat="49.76648" lon="2.15163">
        <ele>85</ele>
        <time>2023-06-21T12:13:03Z</time>
      </trkpt>
      <trkpt lat="49.76647" lon="2.15162">
        <ele>85</ele>
        <time>2023-06-21T12:13:04Z</time>
      </trkpt>
      <trkpt lat="49.76646" lon="2.15161">
        <ele>85</ele>
        <time>2023-06-21T12:13:05Z</time>
      </trkpt>
      <trkpt lat="49.76645" lon="2.1516">
        <ele>85.1</ele>
        <time>2023-06-21T12:13:06Z</time>
      </trkpt>
      <trkpt lat="49.76644" lon="2.15159">
        <ele>85.1</ele>
        <time>2023-06-21T12:13:08Z</time>
      </trkpt>
      <trkpt lat="49.76643" lon="2.15158">
        <ele>85.1</ele>
        <time>2023-06-21T12:13:09Z</time>
      </trkpt>
      <trkpt lat="49.76642" lon="2.15156">
        <ele>85.1</ele>
        <time>2023-06-21T12:13:10Z</time>
      </trkpt>
      <trkpt lat="49.76641" lon="2.15155">
        <ele>85.1</ele>
        <time>2023-06-21T12:13:11Z</time>
      </trkpt>
      <trkpt lat="49.7664" lon="2.15153">
        <ele>85.2</ele>
        <time>2023-06-21T12:13:12Z</time>
      </trkpt>
      <trkpt lat="49.76639" lon="2.15152">
        <ele>85.2</ele>
        <time>2023-06-21T12:13:13Z</time>
      </trkpt>
      <trkpt lat="49.76638" lon="2.15152">
        <ele>85.2</ele>
        <time>2023-06-21T12:13:14Z</time>
      </trkpt>
      <trkpt lat="49.76637" lon="2.1515">
        <ele>85.2</ele>
        <time>2023-06-21T12:13:16Z</time>
      </trkpt>
      <trkpt lat="49.76637" lon="2.15149">
        <ele>85.2</ele>
        <time>2023-06-21T12:13:17Z</time>
      </trkpt>
      <trkpt lat="49.76636" lon="2.15148">
        <ele>85.3</ele>
        <time>2023-06-21T12:13:18Z</time>
      </trkpt>
      <trkpt lat="49.76635" lon="2.15147">
        <ele>85.3</ele>
        <time>2023-06-21T12:13:19Z</time>
      </trkpt>
      <trkpt lat="49.76634" lon="2.15146">
        <ele>85.3</ele>
        <time>2023-06-21T12:13:20Z</time>
      </trkpt>
      <trkpt lat="49.76633" lon="2.15144">
        <ele>85.3</ele>
        <time>2023-06-21T12:13:21Z</time>
      </trkpt>
      <trkpt lat="49.76632" lon="2.15143">
        <ele>85.3</ele>
        <time>2023-06-21T12:13:22Z</time>
      </trkpt>
      <trkpt lat="49.76632" lon="2.15142">
        <ele>85.4</ele>
        <time>2023-06-21T12:13:24Z</time>
      </trkpt>
      <trkpt lat="49.76631" lon="2.15141">
        <ele>85.4</ele>
        <time>2023-06-21T12:13:25Z</time>
      </trkpt>
      <trkpt lat="49.7663" lon="2.1514">
        <ele>85.4</ele>
        <time>2023-06-21T12:13:26Z</time>
      </trkpt>
      <trkpt lat="49.76629" lon="2.15138">
        <ele>85.4</ele>
        <time>2023-06-21T12:13:27Z</time>
      </trkpt>
      <trkpt lat="49.76628" lon="2.15137">
        <ele>85.5</ele>
        <time>2023-06-21T12:13:28Z</time>
      </trkpt>
      <trkpt lat="49.76626" lon="2.15135">
        <ele>85.5</ele>
        <time>2023-06-21T12:13:29Z</time>
      </trkpt>
      <trkpt lat="49.76625" lon="2.15134">
        <ele>85.5</ele>
        <time>2023-06-21T12:13:30Z</time>
      </trkpt>
      <trkpt lat="49.76624" lon="2.15133">
        <ele>85.5</ele>
        <time>2023-06-21T12:13:32Z</time>
      </trkpt>
      <trkpt lat="49.76624" lon="2.15132">
        <ele>85.5</ele>
        <time>2023-06-21T12:13:33Z</time>
      </trkpt>
      <trkpt lat="49.76623" lon="2.15131">
        <ele>85.5</ele>
        <time>2023-06-21T12:13:34Z</time>
      </trkpt>
      <trkpt lat="49.76622" lon="2.1513">
        <ele>85.6</ele>
        <time>2023-06-21T12:13:35Z</time>
      </trkpt>
      <trkpt lat="49.76621" lon="2.15129">
        <ele>85.6</ele>
        <time>2023-06-21T12:13:36Z</time>
      </trkpt>
      <trkpt lat="49.7662" lon="2.15128">
        <ele>85.6</ele>
        <time>2023-06-21T12:13:37Z</time>
      </trkpt>
      <trkpt lat="49.76619" lon="2.15127">
        <ele>85.6</ele>
        <time>2023-06-21T12:13:38Z</time>
      </trkpt>
      <trkpt lat="49.76619" lon="2.15126">
        <ele>85.6</ele>
        <time>2023-06-21T12:13:40Z</time>
      </trkpt>
      <trkpt lat="49.76618" lon="2.15125">
        <ele>85.7</ele>
        <time>2023-06-21T12:13:41Z</time>
      </trkpt>
      <trkpt lat="49.76617" lon="2.15125">
        <ele>85.7</ele>
        <time>2023-06-21T12:13:42Z</time>
      </trkpt>
      <trkpt lat="49.76616" lon="2.15124">
        <ele>85.7</ele>
        <time>2023-06-21T12:13:43Z</time>
      </trkpt>
      <trkpt lat="49.76614" lon="2.15123">
        <ele>85.7</ele>
        <time>2023-06-21T12:13:44Z</time>
      </trkpt>
      <trkpt lat="49.76613" lon="2.15122">
        <ele>85.7</ele>
        <time>2023-06-21T12:13:45Z</time>
      </trkpt>
      <trkpt lat="49.76613" lon="2.15121">
        <ele>85.7</ele>
        <time>2023-06-21T12:13:46Z</time>
      </trkpt>
      <trkpt lat="49.76611" lon="2.15119">
        <ele>85.8</ele>
        <time>2023-06-21T12:13:48Z</time>
      </trkpt>
      <trkpt lat="49.7661" lon="2.15118">
        <ele>85.8</ele>
        <time>2023-06-21T12:13:49Z</time>
      </trkpt>
      <trkpt lat="49.7661" lon="2.15117">
        <ele>85.8</ele>
        <time>2023-06-21T12:13:50Z</time>
      </trkpt>
      <trkpt lat="49.76608" lon="2.15115">
        <ele>85.8</ele>
        <time>2023-06-21T12:13:51Z</time>
      </trkpt>
      <trkpt lat="49.76608" lon="2.15114">
        <ele>85.8</ele>
        <time>2023-06-21T12:13:52Z</time>
      </trkpt>
      <trkpt lat="49.76607" lon="2.15113">
        <ele>85.9</ele>
        <time>2023-06-21T12:13:53Z</time>
      </trkpt>
      <trkpt lat="49.76606" lon="2.15112">
        <ele>85.9</ele>
        <time>2023-06-21T12:13:54Z</time>
      </trkpt>
      <trkpt lat="49.76605" lon="2.15111">
        <ele>85.9</ele>
        <time>2023-06-21T12:13:55Z</time>
      </trkpt>
      <trkpt lat="49.76604" lon="2.1511">
        <ele>85.9</ele>
        <time>2023-06-21T12:13:57Z</time>
      </trkpt>
      <trkpt lat="49.76604" lon="2.15108">
        <ele>85.9</ele>
        <time>2023-06-21T12:13:58Z</time>
      </trkpt>
      <trkpt lat="49.76603" lon="2.15107">
        <ele>86</ele>
        <time>2023-06-21T12:13:59Z</time>
      </trkpt>
      <trkpt lat="49.76602" lon="2.15106">
        <ele>86</ele>
        <time>2023-06-21T12:14:00Z</time>
      </trkpt>
      <trkpt lat="49.76601" lon="2.15103">
        <ele>86</ele>
        <time>2023-06-21T12:14:01Z</time>
      </trkpt>
      <trkpt lat="49.766" lon="2.15102">
        <ele>86</ele>
        <time>2023-06-21T12:14:02Z</time>
      </trkpt>
      <trkpt lat="49.76599" lon="2.15101">
        <ele>86.1</ele>
        <time>2023-06-21T12:14:03Z</time>
      </trkpt>
      <trkpt lat="49.76598" lon="2.151">
        <ele>86.1</ele>
        <time>2023-06-21T12:14:05Z</time>
      </trkpt>
      <trkpt lat="49.76597" lon="2.15099">
        <ele>86.1</ele>
        <time>2023-06-21T12:14:06Z</time>
      </trkpt>
      <trkpt lat="49.76596" lon="2.15097">
        <ele>86.1</ele>
        <time>2023-06-21T12:14:07Z</time>
      </trkpt>
      <trkpt lat="49.76596" lon="2.15097">
        <ele>86.2</ele>
        <time>2023-06-21T12:14:08Z</time>
      </trkpt>
      <trkpt lat="49.76595" lon="2.15095">
        <ele>86.2</ele>
        <time>2023-06-21T12:14:09Z</time>
      </trkpt>
      <trkpt lat="49.76594" lon="2.15093">
        <ele>86.2</ele>
        <time>2023-06-21T12:14:10Z</time>
      </trkpt>
      <trkpt lat="49.76593" lon="2.15092">
        <ele>86.2</ele>
        <time>2023-06-21T12:14:11Z</time>
      </trkpt>
      <trkpt lat="49.76592" lon="2.15091">
        <ele>86.2</ele>
        <time>2023-06-21T12:14:12Z</time>
      </trkpt>
      <trkpt lat="49.76592" lon="2.15089">
        <ele>86.3</ele>
        <time>2023-06-21T12:14:14Z</time>
      </trkpt>
      <trkpt lat="49.76591" lon="2.15088">
        <ele>86.3</ele>
        <time>2023-06-21T12:14:15Z</time>
      </trkpt>
      <trkpt lat="49.7659" lon="2.15087">
        <ele>86.3</ele>
        <time>2023-06-21T12:14:16Z</time>
      </trkpt>
      <trkpt lat="49.76589" lon="2.15085">
        <ele>86.3</ele>
        <time>2023-06-21T12:14:17Z</time>
      </trkpt>
      <trkpt lat="49.76588" lon="2.15084">
        <ele>86.3</ele>
        <time>2023-06-21T12:14:18Z</time>
      </trkpt>
      <trkpt lat="49.76588" lon="2.15083">
        <ele>86.4</ele>
        <time>2023-06-21T12:14:20Z</time>
      </trkpt>
      <trkpt lat="49.76587" lon="2.15081">
        <ele>86.4</ele>
        <time>2023-06-21T12:14:21Z</time>
      </trkpt>
      <trkpt lat="49.76586" lon="2.1508">
        <ele>86.4</ele>
        <time>2023-06-21T12:14:22Z</time>
      </trkpt>
      <trkpt lat="49.76585" lon="2.15077">
        <ele>86.4</ele>
        <time>2023-06-21T12:14:23Z</time>
      </trkpt>
      <trkpt lat="49.76584" lon="2.15076">
        <ele>86.4</ele>
        <time>2023-06-21T12:14:24Z</time>
      </trkpt>
      <trkpt lat="49.76584" lon="2.15075">
        <ele>86.5</ele>
        <time>2023-06-21T12:14:25Z</time>
      </trkpt>
      <trkpt lat="49.76582" lon="2.15073">
        <ele>86.5</ele>
        <time>2023-06-21T12:14:27Z</time>
      </trkpt>
      <trkpt lat="49.76581" lon="2.15072">
        <ele>86.5</ele>
        <time>2023-06-21T12:14:29Z</time>
      </trkpt>
      <trkpt lat="49.76581" lon="2.15072">
        <ele>86.5</ele>
        <time>2023-06-21T12:14:30Z</time>
      </trkpt>
      <trkpt lat="49.7658" lon="2.1507">
        <ele>86.5</ele>
        <time>2023-06-21T12:14:31Z</time>
      </trkpt>
      <trkpt lat="49.76579" lon="2.15069">
        <ele>86.6</ele>
        <time>2023-06-21T12:14:32Z</time>
      </trkpt>
      <trkpt lat="49.76578" lon="2.15068">
        <ele>86.6</ele>
        <time>2023-06-21T12:14:33Z</time>
      </trkpt>
      <trkpt lat="49.76578" lon="2.15066">
        <ele>86.6</ele>
        <time>2023-06-21T12:14:34Z</time>
      </trkpt>
      <trkpt lat="49.76576" lon="2.15063">
        <ele>86.6</ele>
        <time>2023-06-21T12:14:36Z</time>
      </trkpt>
      <trkpt lat="49.76576" lon="2.15062">
        <ele>86.7</ele>
        <time>2023-06-21T12:14:38Z</time>
      </trkpt>
      <trkpt lat="49.76575" lon="2.1506">
        <ele>86.7</ele>
        <time>2023-06-21T12:14:39Z</time>
      </trkpt>
      <trkpt lat="49.76574" lon="2.15059">
        <ele>86.7</ele>
        <time>2023-06-21T12:14:40Z</time>
      </trkpt>
      <trkpt lat="49.76573" lon="2.15056">
        <ele>86.7</ele>
        <time>2023-06-21T12:14:41Z</time>
      </trkpt>
      <trkpt lat="49.76572" lon="2.15055">
        <ele>86.8</ele>
        <time>2023-06-21T12:14:42Z</time>
      </trkpt>
      <trkpt lat="49.76571" lon="2.15053">
        <ele>86.8</ele>
        <time>2023-06-21T12:14:43Z</time>
      </trkpt>
      <trkpt lat="49.76571" lon="2.15051">
        <ele>86.8</ele>
        <time>2023-06-21T12:14:45Z</time>
      </trkpt>
      <trkpt lat="49.76571" lon="2.15051">
        <ele>86.8</ele>
        <time>2023-06-21T12:14:46Z</time>
      </trkpt>
      <trkpt lat="49.7657" lon="2.1505">
        <ele>86.8</ele>
        <time>2023-06-21T12:14:47Z</time>
      </trkpt>
      <trkpt lat="49.7657" lon="2.15048">
        <ele>86.9</ele>
        <time>2023-06-21T12:14:48Z</time>
      </trkpt>
      <trkpt lat="49.76569" lon="2.15046">
        <ele>86.9</ele>
        <time>2023-06-21T12:14:49Z</time>
      </trkpt>
      <trkpt lat="49.76569" lon="2.15043">
        <ele>86.9</ele>
        <time>2023-06-21T12:14:50Z</time>
      </trkpt>
      <trkpt lat="49.76569" lon="2.15042">
        <ele>86.9</ele>
        <time>2023-06-21T12:14:52Z</time>
      </trkpt>
      <trkpt lat="49.76568" lon="2.15041">
        <ele>86.9</ele>
        <time>2023-06-21T12:14:53Z</time>
      </trkpt>
      <trkpt lat="49.76567" lon="2.15038">
        <ele>87</ele>
        <time>2023-06-21T12:14:54Z</time>
      </trkpt>
      <trkpt lat="49.76567" lon="2.15036">
        <ele>87</ele>
        <time>2023-06-21T12:14:55Z</time>
      </trkpt>
      <trkpt lat="49.76566" lon="2.15035">
        <ele>87</ele>
        <time>2023-06-21T12:14:56Z</time>
      </trkpt>
      <trkpt lat="49.76566" lon="2.15034">
        <ele>87</ele>
        <time>2023-06-21T12:14:57Z</time>
      </trkpt>
      <trkpt lat="49.76565" lon="2.15032">
        <ele>87.1</ele>
        <time>2023-06-21T12:14:58Z</time>
      </trkpt>
      <trkpt lat="49.76564" lon="2.1503">
        <ele>87.1</ele>
        <time>2023-06-21T12:15:00Z</time>
      </trkpt>
      <trkpt lat="49.76564" lon="2.15028">
        <ele>87.1</ele>
        <time>2023-06-21T12:15:01Z</time>
      </trkpt>
      <trkpt lat="49.76563" lon="2.15025">
        <ele>87.1</ele>
        <time>2023-06-21T12:15:02Z</time>
      </trkpt>
      <trkpt lat="49.76561" lon="2.15022">
        <ele>87.2</ele>
        <time>2023-06-21T12:15:03Z</time>
      </trkpt>
      <trkpt lat="49.76561" lon="2.1502">
        <ele>87.2</ele>
        <time>2023-06-21T12:15:05Z</time>
      </trkpt>
      <trkpt lat="49.7656" lon="2.15019">
        <ele>87.2</ele>
        <time>2023-06-21T12:15:06Z</time>
      </trkpt>
      <trkpt lat="49.7656" lon="2.15018">
        <ele>87.2</ele>
        <time>2023-06-21T12:15:07Z</time>
      </trkpt>
      <trkpt lat="49.76559" lon="2.15016">
        <ele>87.2</ele>
        <time>2023-06-21T12:15:08Z</time>
      </trkpt>
      <trkpt lat="49.76558" lon="2.15012">
        <ele>87.3</ele>
        <time>2023-06-21T12:15:09Z</time>
      </trkpt>
      <trkpt lat="49.76557" lon="2.15011">
        <ele>87.3</ele>
        <time>2023-06-21T12:15:11Z</time>
      </trkpt>
      <trkpt lat="49.76556" lon="2.15009">
        <ele>87.3</ele>
        <time>2023-06-21T12:15:13Z</time>
      </trkpt>
      <trkpt lat="49.76555" lon="2.15008">
        <ele>87.3</ele>
        <time>2023-06-21T12:15:14Z</time>
      </trkpt>
      <trkpt lat="49.76554" lon="2.15006">
        <ele>87.3</ele>
        <time>2023-06-21T12:15:15Z</time>
      </trkpt>
      <trkpt lat="49.76554" lon="2.15005">
        <ele>87.3</ele>
        <time>2023-06-21T12:15:16Z</time>
      </trkpt>
      <trkpt lat="49.76553" lon="2.15004">
        <ele>87.3</ele>
        <time>2023-06-21T12:15:17Z</time>
      </trkpt>
      <trkpt lat="49.76552" lon="2.15002">
        <ele>87.4</ele>
        <time>2023-06-21T12:15:18Z</time>
      </trkpt>
      <trkpt lat="49.76551" lon="2.15">
        <ele>87.4</ele>
        <time>2023-06-21T12:15:19Z</time>
      </trkpt>
      <trkpt lat="49.7655" lon="2.14997">
        <ele>87.4</ele>
        <time>2023-06-21T12:15:21Z</time>
      </trkpt>
      <trkpt lat="49.76549" lon="2.14996">
        <ele>87.4</ele>
        <time>2023-06-21T12:15:22Z</time>
      </trkpt>
      <trkpt lat="49.76549" lon="2.14996">
        <ele>87.4</ele>
        <time>2023-06-21T12:15:23Z</time>
      </trkpt>
      <trkpt lat="49.76547" lon="2.14993">
        <ele>87.4</ele>
        <time>2023-06-21T12:15:24Z</time>
      </trkpt>
      <trkpt lat="49.76546" lon="2.14992">
        <ele>87.5</ele>
        <time>2023-06-21T12:15:25Z</time>
      </trkpt>
      <trkpt lat="49.76546" lon="2.14991">
        <ele>87.5</ele>
        <time>2023-06-21T12:15:26Z</time>
      </trkpt>
      <trkpt lat="49.76545" lon="2.14989">
        <ele>87.5</ele>
        <time>2023-06-21T12:15:27Z</time>
      </trkpt>
      <trkpt lat="49.76544" lon="2.14988">
        <ele>87.5</ele>
        <time>2023-06-21T12:15:28Z</time>
      </trkpt>
      <trkpt lat="49.76544" lon="2.14987">
        <ele>87.5</ele>
        <time>2023-06-21T12:15:29Z</time>
      </trkpt>
      <trkpt lat="49.76543" lon="2.14985">
        <ele>87.5</ele>
        <time>2023-06-21T12:15:30Z</time>
      </trkpt>
      <trkpt lat="49.76542" lon="2.14984">
        <ele>87.5</ele>
        <time>2023-06-21T12:15:32Z</time>
      </trkpt>
      <trkpt lat="49.76542" lon="2.14983">
        <ele>87.5</ele>
        <time>2023-06-21T12:15:33Z</time>
      </trkpt>
      <trkpt lat="49.7654" lon="2.1498">
        <ele>87.6</ele>
        <time>2023-06-21T12:15:34Z</time>
      </trkpt>
      <trkpt lat="49.7654" lon="2.14979">
        <ele>87.6</ele>
        <time>2023-06-21T12:15:35Z</time>
      </trkpt>
      <trkpt lat="49.76539" lon="2.14978">
        <ele>87.6</ele>
        <time>2023-06-21T12:15:36Z</time>
      </trkpt>
      <trkpt lat="49.76538" lon="2.14976">
        <ele>87.6</ele>
        <time>2023-06-21T12:15:37Z</time>
      </trkpt>
      <trkpt lat="49.76537" lon="2.14975">
        <ele>87.6</ele>
        <time>2023-06-21T12:15:38Z</time>
      </trkpt>
      <trkpt lat="49.76536" lon="2.14972">
        <ele>87.6</ele>
        <time>2023-06-21T12:15:39Z</time>
      </trkpt>
      <trkpt lat="49.76535" lon="2.14971">
        <ele>87.6</ele>
        <time>2023-06-21T12:15:41Z</time>
      </trkpt>
      <trkpt lat="49.76535" lon="2.1497">
        <ele>87.6</ele>
        <time>2023-06-21T12:15:42Z</time>
      </trkpt>
      <trkpt lat="49.76534" lon="2.14968">
        <ele>87.7</ele>
        <time>2023-06-21T12:15:43Z</time>
      </trkpt>
      <trkpt lat="49.76533" lon="2.14967">
        <ele>87.7</ele>
        <time>2023-06-21T12:15:44Z</time>
      </trkpt>
      <trkpt lat="49.76533" lon="2.14966">
        <ele>87.7</ele>
        <time>2023-06-21T12:15:45Z</time>
      </trkpt>
      <trkpt lat="49.76531" lon="2.14964">
        <ele>87.7</ele>
        <time>2023-06-21T12:15:46Z</time>
      </trkpt>
      <trkpt lat="49.7653" lon="2.14961">
        <ele>87.7</ele>
        <time>2023-06-21T12:15:48Z</time>
      </trkpt>
      <trkpt lat="49.76528" lon="2.14959">
        <ele>87.8</ele>
        <time>2023-06-21T12:15:49Z</time>
      </trkpt>
      <trkpt lat="49.76528" lon="2.14958">
        <ele>87.8</ele>
        <time>2023-06-21T12:15:50Z</time>
      </trkpt>
      <trkpt lat="49.76527" lon="2.14956">
        <ele>87.8</ele>
        <time>2023-06-21T12:15:51Z</time>
      </trkpt>
      <trkpt lat="49.76525" lon="2.14954">
        <ele>87.8</ele>
        <time>2023-06-21T12:15:52Z</time>
      </trkpt>
      <trkpt lat="49.76525" lon="2.14953">
        <ele>87.8</ele>
        <time>2023-06-21T12:15:53Z</time>
      </trkpt>
      <trkpt lat="49.76524" lon="2.14952">
        <ele>87.8</ele>
        <time>2023-06-21T12:15:54Z</time>
      </trkpt>
      <trkpt lat="49.76523" lon="2.14951">
        <ele>87.8</ele>
        <time>2023-06-21T12:15:56Z</time>
      </trkpt>
      <trkpt lat="49.76522" lon="2.1495">
        <ele>87.8</ele>
        <time>2023-06-21T12:15:57Z</time>
      </trkpt>
      <trkpt lat="49.76522" lon="2.14949">
        <ele>87.9</ele>
        <time>2023-06-21T12:15:58Z</time>
      </trkpt>
      <trkpt lat="49.76521" lon="2.14948">
        <ele>87.9</ele>
        <time>2023-06-21T12:15:59Z</time>
      </trkpt>
      <trkpt lat="49.76521" lon="2.14948">
        <ele>87.9</ele>
        <time>2023-06-21T12:16:00Z</time>
      </trkpt>
      <trkpt lat="49.7652" lon="2.14947">
        <ele>87.9</ele>
        <time>2023-06-21T12:16:01Z</time>
      </trkpt>
      <trkpt lat="49.76519" lon="2.14945">
        <ele>87.9</ele>
        <time>2023-06-21T12:16:03Z</time>
      </trkpt>
      <trkpt lat="49.76518" lon="2.14944">
        <ele>87.9</ele>
        <time>2023-06-21T12:16:04Z</time>
      </trkpt>
      <trkpt lat="49.76517" lon="2.14942">
        <ele>87.9</ele>
        <time>2023-06-21T12:16:05Z</time>
      </trkpt>
      <trkpt lat="49.76516" lon="2.14941">
        <ele>87.9</ele>
        <time>2023-06-21T12:16:06Z</time>
      </trkpt>
      <trkpt lat="49.76515" lon="2.14939">
        <ele>88</ele>
        <time>2023-06-21T12:16:08Z</time>
      </trkpt>
      <trkpt lat="49.76514" lon="2.14938">
        <ele>88</ele>
        <time>2023-06-21T12:16:09Z</time>
      </trkpt>
      <trkpt lat="49.76512" lon="2.14937">
        <ele>88</ele>
        <time>2023-06-21T12:16:10Z</time>
      </trkpt>
      <trkpt lat="49.76511" lon="2.14935">
        <ele>88</ele>
        <time>2023-06-21T12:16:11Z</time>
      </trkpt>
      <trkpt lat="49.7651" lon="2.14934">
        <ele>88</ele>
        <time>2023-06-21T12:16:13Z</time>
      </trkpt>
      <trkpt lat="49.76509" lon="2.14933">
        <ele>88</ele>
        <time>2023-06-21T12:16:14Z</time>
      </trkpt>
      <trkpt lat="49.76507" lon="2.14931">
        <ele>88.1</ele>
        <time>2023-06-21T12:16:15Z</time>
      </trkpt>
      <trkpt lat="49.76507" lon="2.14931">
        <ele>88.1</ele>
        <time>2023-06-21T12:16:16Z</time>
      </trkpt>
      <trkpt lat="49.76506" lon="2.1493">
        <ele>88.1</ele>
        <time>2023-06-21T12:16:17Z</time>
      </trkpt>
      <trkpt lat="49.76504" lon="2.14927">
        <ele>88.1</ele>
        <time>2023-06-21T12:16:18Z</time>
      </trkpt>
      <trkpt lat="49.76503" lon="2.14926">
        <ele>88.1</ele>
        <time>2023-06-21T12:16:20Z</time>
      </trkpt>
      <trkpt lat="49.76502" lon="2.14925">
        <ele>88.1</ele>
        <time>2023-06-21T12:16:21Z</time>
      </trkpt>
      <trkpt lat="49.76502" lon="2.14924">
        <ele>88.2</ele>
        <time>2023-06-21T12:16:22Z</time>
      </trkpt>
      <trkpt lat="49.76501" lon="2.14923">
        <ele>88.2</ele>
        <time>2023-06-21T12:16:23Z</time>
      </trkpt>
      <trkpt lat="49.76499" lon="2.14921">
        <ele>88.2</ele>
        <time>2023-06-21T12:16:25Z</time>
      </trkpt>
      <trkpt lat="49.76498" lon="2.1492">
        <ele>88.2</ele>
        <time>2023-06-21T12:16:26Z</time>
      </trkpt>
      <trkpt lat="49.76497" lon="2.14918">
        <ele>88.3</ele>
        <time>2023-06-21T12:16:27Z</time>
      </trkpt>
      <trkpt lat="49.76496" lon="2.14916">
        <ele>88.3</ele>
        <time>2023-06-21T12:16:28Z</time>
      </trkpt>
      <trkpt lat="49.76495" lon="2.14915">
        <ele>88.3</ele>
        <time>2023-06-21T12:16:29Z</time>
      </trkpt>
      <trkpt lat="49.76494" lon="2.14913">
        <ele>88.3</ele>
        <time>2023-06-21T12:16:30Z</time>
      </trkpt>
      <trkpt lat="49.76493" lon="2.14912">
        <ele>88.4</ele>
        <time>2023-06-21T12:16:32Z</time>
      </trkpt>
      <trkpt lat="49.76493" lon="2.14911">
        <ele>88.4</ele>
        <time>2023-06-21T12:16:33Z</time>
      </trkpt>
      <trkpt lat="49.76491" lon="2.14909">
        <ele>88.4</ele>
        <time>2023-06-21T12:16:34Z</time>
      </trkpt>
      <trkpt lat="49.7649" lon="2.14907">
        <ele>88.4</ele>
        <time>2023-06-21T12:16:35Z</time>
      </trkpt>
      <trkpt lat="49.7649" lon="2.14906">
        <ele>88.5</ele>
        <time>2023-06-21T12:16:36Z</time>
      </trkpt>
      <trkpt lat="49.76489" lon="2.14905">
        <ele>88.5</ele>
        <time>2023-06-21T12:16:37Z</time>
      </trkpt>
      <trkpt lat="49.76487" lon="2.14904">
        <ele>88.5</ele>
        <time>2023-06-21T12:16:38Z</time>
      </trkpt>
      <trkpt lat="49.76486" lon="2.14902">
        <ele>88.6</ele>
        <time>2023-06-21T12:16:39Z</time>
      </trkpt>
      <trkpt lat="49.76485" lon="2.14901">
        <ele>88.6</ele>
        <time>2023-06-21T12:16:41Z</time>
      </trkpt>
      <trkpt lat="49.76485" lon="2.149">
        <ele>88.6</ele>
        <time>2023-06-21T12:16:42Z</time>
      </trkpt>
      <trkpt lat="49.76483" lon="2.14898">
        <ele>88.6</ele>
        <time>2023-06-21T12:16:43Z</time>
      </trkpt>
      <trkpt lat="49.76483" lon="2.14896">
        <ele>88.7</ele>
        <time>2023-06-21T12:16:44Z</time>
      </trkpt>
      <trkpt lat="49.76482" lon="2.14895">
        <ele>88.7</ele>
        <time>2023-06-21T12:16:45Z</time>
      </trkpt>
      <trkpt lat="49.76481" lon="2.14893">
        <ele>88.7</ele>
        <time>2023-06-21T12:16:46Z</time>
      </trkpt>
      <trkpt lat="49.7648" lon="2.14892">
        <ele>88.7</ele>
        <time>2023-06-21T12:16:47Z</time>
      </trkpt>
      <trkpt lat="49.76479" lon="2.14891">
        <ele>88.8</ele>
        <time>2023-06-21T12:16:48Z</time>
      </trkpt>
      <trkpt lat="49.76478" lon="2.1489">
        <ele>88.8</ele>
        <time>2023-06-21T12:16:50Z</time>
      </trkpt>
      <trkpt lat="49.76477" lon="2.14889">
        <ele>88.8</ele>
        <time>2023-06-21T12:16:51Z</time>
      </trkpt>
      <trkpt lat="49.76477" lon="2.14888">
        <ele>88.8</ele>
        <time>2023-06-21T12:16:52Z</time>
      </trkpt>
      <trkpt lat="49.76476" lon="2.14888">
        <ele>88.8</ele>
        <time>2023-06-21T12:16:53Z</time>
      </trkpt>
      <trkpt lat="49.76476" lon="2.14887">
        <ele>88.8</ele>
        <time>2023-06-21T12:16:54Z</time>
      </trkpt>
      <trkpt lat="49.76475" lon="2.14886">
        <ele>88.9</ele>
        <time>2023-06-21T12:16:55Z</time>
      </trkpt>
      <trkpt lat="49.76474" lon="2.14885">
        <ele>88.9</ele>
        <time>2023-06-21T12:16:56Z</time>
      </trkpt>
      <trkpt lat="49.76473" lon="2.14883">
        <ele>88.9</ele>
        <time>2023-06-21T12:16:57Z</time>
      </trkpt>
      <trkpt lat="49.76472" lon="2.14882">
        <ele>88.9</ele>
        <time>2023-06-21T12:16:59Z</time>
      </trkpt>
      <trkpt lat="49.76472" lon="2.14881">
        <ele>89</ele>
        <time>2023-06-21T12:17:00Z</time>
      </trkpt>
      <trkpt lat="49.76472" lon="2.1488">
        <ele>89</ele>
        <time>2023-06-21T12:17:01Z</time>
      </trkpt>
      <trkpt lat="49.76471" lon="2.14877">
        <ele>89</ele>
        <time>2023-06-21T12:17:02Z</time>
      </trkpt>
      <trkpt lat="49.7647" lon="2.14876">
        <ele>89</ele>
        <time>2023-06-21T12:17:03Z</time>
      </trkpt>
      <trkpt lat="49.76469" lon="2.14875">
        <ele>89.1</ele>
        <time>2023-06-21T12:17:05Z</time>
      </trkpt>
      <trkpt lat="49.76469" lon="2.14873">
        <ele>89.1</ele>
        <time>2023-06-21T12:17:06Z</time>
      </trkpt>
      <trkpt lat="49.76468" lon="2.14872">
        <ele>89.1</ele>
        <time>2023-06-21T12:17:07Z</time>
      </trkpt>
      <trkpt lat="49.76467" lon="2.14871">
        <ele>89.1</ele>
        <time>2023-06-21T12:17:08Z</time>
      </trkpt>
      <trkpt lat="49.76466" lon="2.14869">
        <ele>89.2</ele>
        <time>2023-06-21T12:17:09Z</time>
      </trkpt>
      <trkpt lat="49.76465" lon="2.14868">
        <ele>89.2</ele>
        <time>2023-06-21T12:17:10Z</time>
      </trkpt>
      <trkpt lat="49.76465" lon="2.14867">
        <ele>89.2</ele>
        <time>2023-06-21T12:17:11Z</time>
      </trkpt>
      <trkpt lat="49.76464" lon="2.14865">
        <ele>89.2</ele>
        <time>2023-06-21T12:17:13Z</time>
      </trkpt>
      <trkpt lat="49.76463" lon="2.14863">
        <ele>89.3</ele>
        <time>2023-06-21T12:17:14Z</time>
      </trkpt>
      <trkpt lat="49.76462" lon="2.1486">
        <ele>89.3</ele>
        <time>2023-06-21T12:17:15Z</time>
      </trkpt>
      <trkpt lat="49.76461" lon="2.14859">
        <ele>89.3</ele>
        <time>2023-06-21T12:17:16Z</time>
      </trkpt>
      <trkpt lat="49.76461" lon="2.14859">
        <ele>89.3</ele>
        <time>2023-06-21T12:17:17Z</time>
      </trkpt>
      <trkpt lat="49.7646" lon="2.14857">
        <ele>89.4</ele>
        <time>2023-06-21T12:17:18Z</time>
      </trkpt>
      <trkpt lat="49.76459" lon="2.14856">
        <ele>89.4</ele>
        <time>2023-06-21T12:17:19Z</time>
      </trkpt>
      <trkpt lat="49.76458" lon="2.14855">
        <ele>89.4</ele>
        <time>2023-06-21T12:17:21Z</time>
      </trkpt>
      <trkpt lat="49.76458" lon="2.14854">
        <ele>89.4</ele>
        <time>2023-06-21T12:17:22Z</time>
      </trkpt>
      <trkpt lat="49.76457" lon="2.14853">
        <ele>89.4</ele>
        <time>2023-06-21T12:17:23Z</time>
      </trkpt>
      <trkpt lat="49.76456" lon="2.14852">
        <ele>89.5</ele>
        <time>2023-06-21T12:17:24Z</time>
      </trkpt>
      <trkpt lat="49.76455" lon="2.1485">
        <ele>89.5</ele>
        <time>2023-06-21T12:17:25Z</time>
      </trkpt>
      <trkpt lat="49.76454" lon="2.14849">
        <ele>89.5</ele>
        <time>2023-06-21T12:17:26Z</time>
      </trkpt>
      <trkpt lat="49.76453" lon="2.14847">
        <ele>89.6</ele>
        <time>2023-06-21T12:17:27Z</time>
      </trkpt>
      <trkpt lat="49.76451" lon="2.14846">
        <ele>89.6</ele>
        <time>2023-06-21T12:17:28Z</time>
      </trkpt>
      <trkpt lat="49.7645" lon="2.14845">
        <ele>89.6</ele>
        <time>2023-06-21T12:17:30Z</time>
      </trkpt>
      <trkpt lat="49.7645" lon="2.14844">
        <ele>89.6</ele>
        <time>2023-06-21T12:17:31Z</time>
      </trkpt>
      <trkpt lat="49.76449" lon="2.14843">
        <ele>89.6</ele>
        <time>2023-06-21T12:17:32Z</time>
      </trkpt>
      <trkpt lat="49.76447" lon="2.14842">
        <ele>89.7</ele>
        <time>2023-06-21T12:17:33Z</time>
      </trkpt>
      <trkpt lat="49.76446" lon="2.14841">
        <ele>89.7</ele>
        <time>2023-06-21T12:17:34Z</time>
      </trkpt>
      <trkpt lat="49.76446" lon="2.1484">
        <ele>89.7</ele>
        <time>2023-06-21T12:17:35Z</time>
      </trkpt>
      <trkpt lat="49.76444" lon="2.14839">
        <ele>89.7</ele>
        <time>2023-06-21T12:17:36Z</time>
      </trkpt>
      <trkpt lat="49.76443" lon="2.14838">
        <ele>89.8</ele>
        <time>2023-06-21T12:17:37Z</time>
      </trkpt>
      <trkpt lat="49.76442" lon="2.14835">
        <ele>89.8</ele>
        <time>2023-06-21T12:17:39Z</time>
      </trkpt>
      <trkpt lat="49.76441" lon="2.14834">
        <ele>89.8</ele>
        <time>2023-06-21T12:17:40Z</time>
      </trkpt>
      <trkpt lat="49.7644" lon="2.14833">
        <ele>89.9</ele>
        <time>2023-06-21T12:17:41Z</time>
      </trkpt>
      <trkpt lat="49.76439" lon="2.14832">
        <ele>89.9</ele>
        <time>2023-06-21T12:17:42Z</time>
      </trkpt>
      <trkpt lat="49.76438" lon="2.1483">
        <ele>89.9</ele>
        <time>2023-06-21T12:17:43Z</time>
      </trkpt>
      <trkpt lat="49.76437" lon="2.14829">
        <ele>90</ele>
        <time>2023-06-21T12:17:44Z</time>
      </trkpt>
      <trkpt lat="49.76436" lon="2.14828">
        <ele>90</ele>
        <time>2023-06-21T12:17:45Z</time>
      </trkpt>
      <trkpt lat="49.76435" lon="2.14826">
        <ele>90</ele>
        <time>2023-06-21T12:17:47Z</time>
      </trkpt>
      <trkpt lat="49.76434" lon="2.14825">
        <ele>90</ele>
        <time>2023-06-21T12:17:48Z</time>
      </trkpt>
      <trkpt lat="49.76433" lon="2.14825">
        <ele>90.1</ele>
        <time>2023-06-21T12:17:49Z</time>
      </trkpt>
      <trkpt lat="49.76433" lon="2.14824">
        <ele>90.1</ele>
        <time>2023-06-21T12:17:50Z</time>
      </trkpt>
      <trkpt lat="49.76432" lon="2.14823">
        <ele>90.1</ele>
        <time>2023-06-21T12:17:51Z</time>
      </trkpt>
      <trkpt lat="49.76431" lon="2.14822">
        <ele>90.1</ele>
        <time>2023-06-21T12:17:53Z</time>
      </trkpt>
      <trkpt lat="49.7643" lon="2.14821">
        <ele>90.2</ele>
        <time>2023-06-21T12:17:54Z</time>
      </trkpt>
      <trkpt lat="49.76429" lon="2.1482">
        <ele>90.2</ele>
        <time>2023-06-21T12:17:55Z</time>
      </trkpt>
      <trkpt lat="49.76429" lon="2.14819">
        <ele>90.2</ele>
        <time>2023-06-21T12:17:56Z</time>
      </trkpt>
      <trkpt lat="49.76427" lon="2.14817">
        <ele>90.3</ele>
        <time>2023-06-21T12:17:57Z</time>
      </trkpt>
      <trkpt lat="49.76426" lon="2.14816">
        <ele>90.3</ele>
        <time>2023-06-21T12:17:59Z</time>
      </trkpt>
      <trkpt lat="49.76426" lon="2.14815">
        <ele>90.3</ele>
        <time>2023-06-21T12:18:00Z</time>
      </trkpt>
      <trkpt lat="49.76425" lon="2.14814">
        <ele>90.3</ele>
        <time>2023-06-21T12:18:01Z</time>
      </trkpt>
      <trkpt lat="49.76425" lon="2.14813">
        <ele>90.3</ele>
        <time>2023-06-21T12:18:02Z</time>
      </trkpt>
      <trkpt lat="49.76424" lon="2.14813">
        <ele>90.4</ele>
        <time>2023-06-21T12:18:03Z</time>
      </trkpt>
      <trkpt lat="49.76423" lon="2.14812">
        <ele>90.4</ele>
        <time>2023-06-21T12:18:04Z</time>
      </trkpt>
      <trkpt lat="49.76423" lon="2.1481">
        <ele>90.4</ele>
        <time>2023-06-21T12:18:06Z</time>
      </trkpt>
      <trkpt lat="49.76422" lon="2.14809">
        <ele>90.4</ele>
        <time>2023-06-21T12:18:07Z</time>
      </trkpt>
      <trkpt lat="49.76421" lon="2.14808">
        <ele>90.5</ele>
        <time>2023-06-21T12:18:08Z</time>
      </trkpt>
      <trkpt lat="49.7642" lon="2.14807">
        <ele>90.5</ele>
        <time>2023-06-21T12:18:09Z</time>
      </trkpt>
      <trkpt lat="49.76419" lon="2.14805">
        <ele>90.5</ele>
        <time>2023-06-21T12:18:10Z</time>
      </trkpt>
      <trkpt lat="49.76419" lon="2.14804">
        <ele>90.6</ele>
        <time>2023-06-21T12:18:11Z</time>
      </trkpt>
      <trkpt lat="49.76417" lon="2.14802">
        <ele>90.6</ele>
        <time>2023-06-21T12:18:13Z</time>
      </trkpt>
      <trkpt lat="49.76416" lon="2.14801">
        <ele>90.6</ele>
        <time>2023-06-21T12:18:14Z</time>
      </trkpt>
      <trkpt lat="49.76415" lon="2.14799">
        <ele>90.7</ele>
        <time>2023-06-21T12:18:15Z</time>
      </trkpt>
      <trkpt lat="49.76414" lon="2.14797">
        <ele>90.7</ele>
        <time>2023-06-21T12:18:16Z</time>
      </trkpt>
      <trkpt lat="49.76413" lon="2.14796">
        <ele>90.8</ele>
        <time>2023-06-21T12:18:17Z</time>
      </trkpt>
      <trkpt lat="49.76411" lon="2.14794">
        <ele>90.8</ele>
        <time>2023-06-21T12:18:19Z</time>
      </trkpt>
      <trkpt lat="49.7641" lon="2.14792">
        <ele>90.9</ele>
        <time>2023-06-21T12:18:20Z</time>
      </trkpt>
      <trkpt lat="49.76409" lon="2.1479">
        <ele>90.9</ele>
        <time>2023-06-21T12:18:21Z</time>
      </trkpt>
      <trkpt lat="49.76408" lon="2.14788">
        <ele>90.9</ele>
        <time>2023-06-21T12:18:22Z</time>
      </trkpt>
      <trkpt lat="49.76407" lon="2.14786">
        <ele>91</ele>
        <time>2023-06-21T12:18:23Z</time>
      </trkpt>
      <trkpt lat="49.76406" lon="2.14785">
        <ele>91</ele>
        <time>2023-06-21T12:18:24Z</time>
      </trkpt>
      <trkpt lat="49.76406" lon="2.14785">
        <ele>91</ele>
        <time>2023-06-21T12:18:25Z</time>
      </trkpt>
      <trkpt lat="49.76405" lon="2.14783">
        <ele>91</ele>
        <time>2023-06-21T12:18:27Z</time>
      </trkpt>
      <trkpt lat="49.76404" lon="2.14783">
        <ele>91.1</ele>
        <time>2023-06-21T12:18:28Z</time>
      </trkpt>
      <trkpt lat="49.76403" lon="2.14782">
        <ele>91.1</ele>
        <time>2023-06-21T12:18:29Z</time>
      </trkpt>
      <trkpt lat="49.76401" lon="2.1478">
        <ele>91.2</ele>
        <time>2023-06-21T12:18:30Z</time>
      </trkpt>
      <trkpt lat="49.76401" lon="2.14779">
        <ele>91.2</ele>
        <time>2023-06-21T12:18:31Z</time>
      </trkpt>
      <trkpt lat="49.764" lon="2.14778">
        <ele>91.2</ele>
        <time>2023-06-21T12:18:32Z</time>
      </trkpt>
      <trkpt lat="49.76399" lon="2.14777">
        <ele>91.2</ele>
        <time>2023-06-21T12:18:33Z</time>
      </trkpt>
      <trkpt lat="49.76398" lon="2.14776">
        <ele>91.3</ele>
        <time>2023-06-21T12:18:35Z</time>
      </trkpt>
      <trkpt lat="49.76397" lon="2.14775">
        <ele>91.3</ele>
        <time>2023-06-21T12:18:36Z</time>
      </trkpt>
      <trkpt lat="49.76396" lon="2.14773">
        <ele>91.3</ele>
        <time>2023-06-21T12:18:37Z</time>
      </trkpt>
      <trkpt lat="49.76395" lon="2.14772">
        <ele>91.4</ele>
        <time>2023-06-21T12:18:38Z</time>
      </trkpt>
      <trkpt lat="49.76394" lon="2.1477">
        <ele>91.4</ele>
        <time>2023-06-21T12:18:39Z</time>
      </trkpt>
      <trkpt lat="49.76392" lon="2.14769">
        <ele>91.5</ele>
        <time>2023-06-21T12:18:41Z</time>
      </trkpt>
      <trkpt lat="49.76392" lon="2.14768">
        <ele>91.5</ele>
        <time>2023-06-21T12:18:42Z</time>
      </trkpt>
      <trkpt lat="49.76391" lon="2.14767">
        <ele>91.5</ele>
        <time>2023-06-21T12:18:43Z</time>
      </trkpt>
      <trkpt lat="49.76389" lon="2.14766">
        <ele>91.5</ele>
        <time>2023-06-21T12:18:44Z</time>
      </trkpt>
      <trkpt lat="49.76388" lon="2.14765">
        <ele>91.6</ele>
        <time>2023-06-21T12:18:45Z</time>
      </trkpt>
      <trkpt lat="49.76387" lon="2.14764">
        <ele>91.6</ele>
        <time>2023-06-21T12:18:46Z</time>
      </trkpt>
      <trkpt lat="49.76386" lon="2.14763">
        <ele>91.6</ele>
        <time>2023-06-21T12:18:47Z</time>
      </trkpt>
      <trkpt lat="49.76385" lon="2.14762">
        <ele>91.7</ele>
        <time>2023-06-21T12:18:48Z</time>
      </trkpt>
      <trkpt lat="49.76385" lon="2.14761">
        <ele>91.7</ele>
        <time>2023-06-21T12:18:50Z</time>
      </trkpt>
      <trkpt lat="49.76384" lon="2.1476">
        <ele>91.7</ele>
        <time>2023-06-21T12:18:51Z</time>
      </trkpt>
      <trkpt lat="49.76383" lon="2.14758">
        <ele>91.7</ele>
        <time>2023-06-21T12:18:52Z</time>
      </trkpt>
      <trkpt lat="49.76382" lon="2.14757">
        <ele>91.8</ele>
        <time>2023-06-21T12:18:53Z</time>
      </trkpt>
      <trkpt lat="49.76381" lon="2.14756">
        <ele>91.8</ele>
        <time>2023-06-21T12:18:54Z</time>
      </trkpt>
      <trkpt lat="49.7638" lon="2.14755">
        <ele>91.8</ele>
        <time>2023-06-21T12:18:55Z</time>
      </trkpt>
      <trkpt lat="49.76379" lon="2.14754">
        <ele>91.9</ele>
        <time>2023-06-21T12:18:57Z</time>
      </trkpt>
      <trkpt lat="49.76379" lon="2.14753">
        <ele>91.9</ele>
        <time>2023-06-21T12:18:58Z</time>
      </trkpt>
      <trkpt lat="49.76378" lon="2.14753">
        <ele>91.9</ele>
        <time>2023-06-21T12:18:59Z</time>
      </trkpt>
      <trkpt lat="49.76377" lon="2.14751">
        <ele>92</ele>
        <time>2023-06-21T12:19:00Z</time>
      </trkpt>
      <trkpt lat="49.76376" lon="2.14749">
        <ele>92</ele>
        <time>2023-06-21T12:19:01Z</time>
      </trkpt>
      <trkpt lat="49.76375" lon="2.14748">
        <ele>92</ele>
        <time>2023-06-21T12:19:02Z</time>
      </trkpt>
      <trkpt lat="49.76374" lon="2.14747">
        <ele>92.1</ele>
        <time>2023-06-21T12:19:03Z</time>
      </trkpt>
      <trkpt lat="49.76374" lon="2.14746">
        <ele>92.1</ele>
        <time>2023-06-21T12:19:04Z</time>
      </trkpt>
      <trkpt lat="49.76373" lon="2.14745">
        <ele>92.1</ele>
        <time>2023-06-21T12:19:06Z</time>
      </trkpt>
      <trkpt lat="49.76372" lon="2.14743">
        <ele>92.1</ele>
        <time>2023-06-21T12:19:07Z</time>
      </trkpt>
      <trkpt lat="49.76371" lon="2.14742">
        <ele>92.2</ele>
        <time>2023-06-21T12:19:08Z</time>
      </trkpt>
      <trkpt lat="49.7637" lon="2.14741">
        <ele>92.2</ele>
        <time>2023-06-21T12:19:09Z</time>
      </trkpt>
      <trkpt lat="49.7637" lon="2.1474">
        <ele>92.2</ele>
        <time>2023-06-21T12:19:10Z</time>
      </trkpt>
      <trkpt lat="49.76369" lon="2.14739">
        <ele>92.3</ele>
        <time>2023-06-21T12:19:11Z</time>
      </trkpt>
      <trkpt lat="49.76368" lon="2.14737">
        <ele>92.3</ele>
        <time>2023-06-21T12:19:12Z</time>
      </trkpt>
      <trkpt lat="49.76367" lon="2.14736">
        <ele>92.3</ele>
        <time>2023-06-21T12:19:14Z</time>
      </trkpt>
      <trkpt lat="49.76366" lon="2.14735">
        <ele>92.4</ele>
        <time>2023-06-21T12:19:15Z</time>
      </trkpt>
      <trkpt lat="49.76365" lon="2.14733">
        <ele>92.4</ele>
        <time>2023-06-21T12:19:16Z</time>
      </trkpt>
      <trkpt lat="49.76364" lon="2.14732">
        <ele>92.5</ele>
        <time>2023-06-21T12:19:17Z</time>
      </trkpt>
      <trkpt lat="49.76362" lon="2.1473">
        <ele>92.5</ele>
        <time>2023-06-21T12:19:18Z</time>
      </trkpt>
      <trkpt lat="49.76361" lon="2.14729">
        <ele>92.6</ele>
        <time>2023-06-21T12:19:20Z</time>
      </trkpt>
      <trkpt lat="49.7636" lon="2.14728">
        <ele>92.6</ele>
        <time>2023-06-21T12:19:21Z</time>
      </trkpt>
      <trkpt lat="49.76359" lon="2.14727">
        <ele>92.6</ele>
        <time>2023-06-21T12:19:22Z</time>
      </trkpt>
      <trkpt lat="49.76358" lon="2.14726">
        <ele>92.7</ele>
        <time>2023-06-21T12:19:23Z</time>
      </trkpt>
      <trkpt lat="49.76357" lon="2.14725">
        <ele>92.7</ele>
        <time>2023-06-21T12:19:25Z</time>
      </trkpt>
      <trkpt lat="49.76356" lon="2.14724">
        <ele>92.7</ele>
        <time>2023-06-21T12:19:26Z</time>
      </trkpt>
      <trkpt lat="49.76355" lon="2.14723">
        <ele>92.8</ele>
        <time>2023-06-21T12:19:27Z</time>
      </trkpt>
      <trkpt lat="49.76354" lon="2.14722">
        <ele>92.8</ele>
        <time>2023-06-21T12:19:28Z</time>
      </trkpt>
      <trkpt lat="49.76353" lon="2.14721">
        <ele>92.8</ele>
        <time>2023-06-21T12:19:29Z</time>
      </trkpt>
      <trkpt lat="49.76352" lon="2.14721">
        <ele>92.9</ele>
        <time>2023-06-21T12:19:30Z</time>
      </trkpt>
      <trkpt lat="49.76351" lon="2.1472">
        <ele>92.9</ele>
        <time>2023-06-21T12:19:31Z</time>
      </trkpt>
      <trkpt lat="49.7635" lon="2.1472">
        <ele>92.9</ele>
        <time>2023-06-21T12:19:32Z</time>
      </trkpt>
      <trkpt lat="49.76349" lon="2.14719">
        <ele>93</ele>
        <time>2023-06-21T12:19:34Z</time>
      </trkpt>
      <trkpt lat="49.76348" lon="2.14718">
        <ele>93</ele>
        <time>2023-06-21T12:19:35Z</time>
      </trkpt>
      <trkpt lat="49.76347" lon="2.14717">
        <ele>93</ele>
        <time>2023-06-21T12:19:36Z</time>
      </trkpt>
      <trkpt lat="49.76345" lon="2.14716">
        <ele>93.1</ele>
        <time>2023-06-21T12:19:38Z</time>
      </trkpt>
      <trkpt lat="49.76344" lon="2.14715">
        <ele>93.1</ele>
        <time>2023-06-21T12:19:39Z</time>
      </trkpt>
      <trkpt lat="49.76342" lon="2.14714">
        <ele>93.2</ele>
        <time>2023-06-21T12:19:40Z</time>
      </trkpt>
      <trkpt lat="49.76341" lon="2.14712">
        <ele>93.2</ele>
        <time>2023-06-21T12:19:41Z</time>
      </trkpt>
      <trkpt lat="49.7634" lon="2.14711">
        <ele>93.2</ele>
        <time>2023-06-21T12:19:42Z</time>
      </trkpt>
      <trkpt lat="49.7634" lon="2.1471">
        <ele>93.3</ele>
        <time>2023-06-21T12:19:43Z</time>
      </trkpt>
      <trkpt lat="49.76339" lon="2.14707">
        <ele>93.3</ele>
        <time>2023-06-21T12:19:44Z</time>
      </trkpt>
      <trkpt lat="49.76338" lon="2.14705">
        <ele>93.3</ele>
        <time>2023-06-21T12:19:45Z</time>
      </trkpt>
      <trkpt lat="49.76338" lon="2.14704">
        <ele>93.4</ele>
        <time>2023-06-21T12:19:46Z</time>
      </trkpt>
      <trkpt lat="49.76335" lon="2.14701">
        <ele>93.5</ele>
        <time>2023-06-21T12:19:48Z</time>
      </trkpt>
      <trkpt lat="49.76334" lon="2.14699">
        <ele>93.5</ele>
        <time>2023-06-21T12:19:49Z</time>
      </trkpt>
      <trkpt lat="49.76333" lon="2.14698">
        <ele>93.5</ele>
        <time>2023-06-21T12:19:51Z</time>
      </trkpt>
      <trkpt lat="49.76332" lon="2.14696">
        <ele>93.6</ele>
        <time>2023-06-21T12:19:52Z</time>
      </trkpt>
      <trkpt lat="49.76331" lon="2.14695">
        <ele>93.6</ele>
        <time>2023-06-21T12:19:53Z</time>
      </trkpt>
      <trkpt lat="49.76329" lon="2.14693">
        <ele>93.7</ele>
        <time>2023-06-21T12:19:54Z</time>
      </trkpt>
      <trkpt lat="49.76328" lon="2.14692">
        <ele>93.7</ele>
        <time>2023-06-21T12:19:55Z</time>
      </trkpt>
      <trkpt lat="49.76327" lon="2.14692">
        <ele>93.7</ele>
        <time>2023-06-21T12:19:56Z</time>
      </trkpt>
      <trkpt lat="49.76326" lon="2.1469">
        <ele>93.7</ele>
        <time>2023-06-21T12:19:58Z</time>
      </trkpt>
      <trkpt lat="49.76325" lon="2.14689">
        <ele>93.8</ele>
        <time>2023-06-21T12:19:59Z</time>
      </trkpt>
      <trkpt lat="49.76324" lon="2.14687">
        <ele>93.8</ele>
        <time>2023-06-21T12:20:00Z</time>
      </trkpt>
      <trkpt lat="49.76323" lon="2.14686">
        <ele>93.8</ele>
        <time>2023-06-21T12:20:01Z</time>
      </trkpt>
      <trkpt lat="49.76323" lon="2.14685">
        <ele>93.9</ele>
        <time>2023-06-21T12:20:02Z</time>
      </trkpt>
      <trkpt lat="49.76321" lon="2.14683">
        <ele>93.9</ele>
        <time>2023-06-21T12:20:03Z</time>
      </trkpt>
      <trkpt lat="49.7632" lon="2.14681">
        <ele>94</ele>
        <time>2023-06-21T12:20:04Z</time>
      </trkpt>
      <trkpt lat="49.76319" lon="2.1468">
        <ele>94</ele>
        <time>2023-06-21T12:20:05Z</time>
      </trkpt>
      <trkpt lat="49.76318" lon="2.14679">
        <ele>94</ele>
        <time>2023-06-21T12:20:06Z</time>
      </trkpt>
      <trkpt lat="49.76317" lon="2.14677">
        <ele>94.1</ele>
        <time>2023-06-21T12:20:08Z</time>
      </trkpt>
      <trkpt lat="49.76316" lon="2.14676">
        <ele>94.1</ele>
        <time>2023-06-21T12:20:09Z</time>
      </trkpt>
      <trkpt lat="49.76315" lon="2.14674">
        <ele>94.1</ele>
        <time>2023-06-21T12:20:10Z</time>
      </trkpt>
      <trkpt lat="49.76314" lon="2.14674">
        <ele>94.2</ele>
        <time>2023-06-21T12:20:11Z</time>
      </trkpt>
      <trkpt lat="49.76313" lon="2.14672">
        <ele>94.2</ele>
        <time>2023-06-21T12:20:12Z</time>
      </trkpt>
      <trkpt lat="49.76312" lon="2.14671">
        <ele>94.2</ele>
        <time>2023-06-21T12:20:13Z</time>
      </trkpt>
      <trkpt lat="49.76311" lon="2.1467">
        <ele>94.2</ele>
        <time>2023-06-21T12:20:15Z</time>
      </trkpt>
      <trkpt lat="49.76311" lon="2.14669">
        <ele>94.3</ele>
        <time>2023-06-21T12:20:16Z</time>
      </trkpt>
      <trkpt lat="49.7631" lon="2.14668">
        <ele>94.3</ele>
        <time>2023-06-21T12:20:17Z</time>
      </trkpt>
      <trkpt lat="49.76309" lon="2.14667">
        <ele>94.3</ele>
        <time>2023-06-21T12:20:18Z</time>
      </trkpt>
      <trkpt lat="49.76307" lon="2.14665">
        <ele>94.4</ele>
        <time>2023-06-21T12:20:20Z</time>
      </trkpt>
      <trkpt lat="49.76306" lon="2.14664">
        <ele>94.4</ele>
        <time>2023-06-21T12:20:21Z</time>
      </trkpt>
      <trkpt lat="49.76305" lon="2.14662">
        <ele>94.5</ele>
        <time>2023-06-21T12:20:22Z</time>
      </trkpt>
      <trkpt lat="49.76304" lon="2.14661">
        <ele>94.5</ele>
        <time>2023-06-21T12:20:23Z</time>
      </trkpt>
      <trkpt lat="49.76304" lon="2.14659">
        <ele>94.5</ele>
        <time>2023-06-21T12:20:24Z</time>
      </trkpt>
      <trkpt lat="49.76303" lon="2.14658">
        <ele>94.6</ele>
        <time>2023-06-21T12:20:25Z</time>
      </trkpt>
      <trkpt lat="49.76301" lon="2.14656">
        <ele>94.6</ele>
        <time>2023-06-21T12:20:26Z</time>
      </trkpt>
      <trkpt lat="49.763" lon="2.14655">
        <ele>94.7</ele>
        <time>2023-06-21T12:20:28Z</time>
      </trkpt>
      <trkpt lat="49.763" lon="2.14654">
        <ele>94.7</ele>
        <time>2023-06-21T12:20:29Z</time>
      </trkpt>
      <trkpt lat="49.76298" lon="2.14652">
        <ele>94.7</ele>
        <time>2023-06-21T12:20:30Z</time>
      </trkpt>
      <trkpt lat="49.76297" lon="2.14651">
        <ele>94.8</ele>
        <time>2023-06-21T12:20:31Z</time>
      </trkpt>
      <trkpt lat="49.76296" lon="2.1465">
        <ele>94.8</ele>
        <time>2023-06-21T12:20:32Z</time>
      </trkpt>
      <trkpt lat="49.76295" lon="2.14649">
        <ele>94.8</ele>
        <time>2023-06-21T12:20:33Z</time>
      </trkpt>
      <trkpt lat="49.76294" lon="2.14647">
        <ele>94.9</ele>
        <time>2023-06-21T12:20:34Z</time>
      </trkpt>
      <trkpt lat="49.76292" lon="2.14647">
        <ele>94.9</ele>
        <time>2023-06-21T12:20:35Z</time>
      </trkpt>
      <trkpt lat="49.76291" lon="2.14646">
        <ele>95</ele>
        <time>2023-06-21T12:20:37Z</time>
      </trkpt>
      <trkpt lat="49.7629" lon="2.14644">
        <ele>95</ele>
        <time>2023-06-21T12:20:38Z</time>
      </trkpt>
      <trkpt lat="49.76288" lon="2.14643">
        <ele>95.1</ele>
        <time>2023-06-21T12:20:39Z</time>
      </trkpt>
      <trkpt lat="49.76287" lon="2.14643">
        <ele>95.1</ele>
        <time>2023-06-21T12:20:40Z</time>
      </trkpt>
      <trkpt lat="49.76287" lon="2.14642">
        <ele>95.1</ele>
        <time>2023-06-21T12:20:41Z</time>
      </trkpt>
      <trkpt lat="49.76285" lon="2.14641">
        <ele>95.2</ele>
        <time>2023-06-21T12:20:43Z</time>
      </trkpt>
      <trkpt lat="49.76284" lon="2.1464">
        <ele>95.2</ele>
        <time>2023-06-21T12:20:44Z</time>
      </trkpt>
      <trkpt lat="49.76281" lon="2.14638">
        <ele>95.3</ele>
        <time>2023-06-21T12:20:46Z</time>
      </trkpt>
      <trkpt lat="49.76279" lon="2.14636">
        <ele>95.3</ele>
        <time>2023-06-21T12:20:48Z</time>
      </trkpt>
      <trkpt lat="49.76278" lon="2.14635">
        <ele>95.4</ele>
        <time>2023-06-21T12:20:50Z</time>
      </trkpt>
      <trkpt lat="49.76277" lon="2.14634">
        <ele>95.4</ele>
        <time>2023-06-21T12:20:51Z</time>
      </trkpt>
      <trkpt lat="49.76276" lon="2.14633">
        <ele>95.4</ele>
        <time>2023-06-21T12:20:52Z</time>
      </trkpt>
      <trkpt lat="49.76275" lon="2.14632">
        <ele>95.5</ele>
        <time>2023-06-21T12:20:53Z</time>
      </trkpt>
      <trkpt lat="49.76273" lon="2.14631">
        <ele>95.5</ele>
        <time>2023-06-21T12:20:55Z</time>
      </trkpt>
      <trkpt lat="49.76272" lon="2.1463">
        <ele>95.5</ele>
        <time>2023-06-21T12:20:56Z</time>
      </trkpt>
      <trkpt lat="49.76271" lon="2.14629">
        <ele>95.6</ele>
        <time>2023-06-21T12:20:57Z</time>
      </trkpt>
      <trkpt lat="49.7627" lon="2.14628">
        <ele>95.6</ele>
        <time>2023-06-21T12:20:58Z</time>
      </trkpt>
      <trkpt lat="49.76269" lon="2.14627">
        <ele>95.6</ele>
        <time>2023-06-21T12:20:59Z</time>
      </trkpt>
      <trkpt lat="49.76268" lon="2.14625">
        <ele>95.6</ele>
        <time>2023-06-21T12:21:00Z</time>
      </trkpt>
      <trkpt lat="49.76267" lon="2.14624">
        <ele>95.7</ele>
        <time>2023-06-21T12:21:02Z</time>
      </trkpt>
      <trkpt lat="49.76266" lon="2.14623">
        <ele>95.7</ele>
        <time>2023-06-21T12:21:03Z</time>
      </trkpt>
      <trkpt lat="49.76265" lon="2.14621">
        <ele>95.7</ele>
        <time>2023-06-21T12:21:04Z</time>
      </trkpt>
      <trkpt lat="49.76264" lon="2.1462">
        <ele>95.7</ele>
        <time>2023-06-21T12:21:05Z</time>
      </trkpt>
      <trkpt lat="49.76263" lon="2.1462">
        <ele>95.8</ele>
        <time>2023-06-21T12:21:06Z</time>
      </trkpt>
      <trkpt lat="49.76262" lon="2.14618">
        <ele>95.8</ele>
        <time>2023-06-21T12:21:08Z</time>
      </trkpt>
      <trkpt lat="49.7626" lon="2.14617">
        <ele>95.8</ele>
        <time>2023-06-21T12:21:09Z</time>
      </trkpt>
      <trkpt lat="49.7626" lon="2.14616">
        <ele>95.9</ele>
        <time>2023-06-21T12:21:10Z</time>
      </trkpt>
      <trkpt lat="49.76259" lon="2.14615">
        <ele>95.9</ele>
        <time>2023-06-21T12:21:11Z</time>
      </trkpt>
      <trkpt lat="49.76257" lon="2.14614">
        <ele>95.9</ele>
        <time>2023-06-21T12:21:12Z</time>
      </trkpt>
      <trkpt lat="49.76256" lon="2.14613">
        <ele>96</ele>
        <time>2023-06-21T12:21:13Z</time>
      </trkpt>
      <trkpt lat="49.76255" lon="2.14612">
        <ele>96</ele>
        <time>2023-06-21T12:21:14Z</time>
      </trkpt>
      <trkpt lat="49.76253" lon="2.1461">
        <ele>96</ele>
        <time>2023-06-21T12:21:16Z</time>
      </trkpt>
      <trkpt lat="49.76252" lon="2.14609">
        <ele>96.1</ele>
        <time>2023-06-21T12:21:17Z</time>
      </trkpt>
      <trkpt lat="49.76252" lon="2.14609">
        <ele>96.1</ele>
        <time>2023-06-21T12:21:18Z</time>
      </trkpt>
      <trkpt lat="49.76251" lon="2.14608">
        <ele>96.1</ele>
        <time>2023-06-21T12:21:19Z</time>
      </trkpt>
      <trkpt lat="49.7625" lon="2.14607">
        <ele>96.1</ele>
        <time>2023-06-21T12:21:20Z</time>
      </trkpt>
      <trkpt lat="49.76249" lon="2.14605">
        <ele>96.2</ele>
        <time>2023-06-21T12:21:21Z</time>
      </trkpt>
      <trkpt lat="49.76248" lon="2.14604">
        <ele>96.2</ele>
        <time>2023-06-21T12:21:22Z</time>
      </trkpt>
      <trkpt lat="49.76247" lon="2.14603">
        <ele>96.2</ele>
        <time>2023-06-21T12:21:23Z</time>
      </trkpt>
      <trkpt lat="49.76246" lon="2.14602">
        <ele>96.2</ele>
        <time>2023-06-21T12:21:25Z</time>
      </trkpt>
      <trkpt lat="49.76245" lon="2.14601">
        <ele>96.3</ele>
        <time>2023-06-21T12:21:26Z</time>
      </trkpt>
      <trkpt lat="49.76243" lon="2.14599">
        <ele>96.3</ele>
        <time>2023-06-21T12:21:27Z</time>
      </trkpt>
      <trkpt lat="49.76241" lon="2.14597">
        <ele>96.4</ele>
        <time>2023-06-21T12:21:28Z</time>
      </trkpt>
      <trkpt lat="49.7624" lon="2.14596">
        <ele>96.4</ele>
        <time>2023-06-21T12:21:29Z</time>
      </trkpt>
      <trkpt lat="49.76239" lon="2.14595">
        <ele>96.4</ele>
        <time>2023-06-21T12:21:30Z</time>
      </trkpt>
      <trkpt lat="49.76237" lon="2.14593">
        <ele>96.4</ele>
        <time>2023-06-21T12:21:31Z</time>
      </trkpt>
      <trkpt lat="49.76236" lon="2.14592">
        <ele>96.5</ele>
        <time>2023-06-21T12:21:32Z</time>
      </trkpt>
      <trkpt lat="49.76235" lon="2.14591">
        <ele>96.5</ele>
        <time>2023-06-21T12:21:34Z</time>
      </trkpt>
      <trkpt lat="49.76234" lon="2.1459">
        <ele>96.5</ele>
        <time>2023-06-21T12:21:35Z</time>
      </trkpt>
      <trkpt lat="49.76233" lon="2.14589">
        <ele>96.5</ele>
        <time>2023-06-21T12:21:36Z</time>
      </trkpt>
      <trkpt lat="49.76232" lon="2.14588">
        <ele>96.5</ele>
        <time>2023-06-21T12:21:37Z</time>
      </trkpt>
      <trkpt lat="49.76231" lon="2.14587">
        <ele>96.5</ele>
        <time>2023-06-21T12:21:38Z</time>
      </trkpt>
      <trkpt lat="49.7623" lon="2.14586">
        <ele>96.5</ele>
        <time>2023-06-21T12:21:39Z</time>
      </trkpt>
      <trkpt lat="49.76228" lon="2.14584">
        <ele>96.5</ele>
        <time>2023-06-21T12:21:40Z</time>
      </trkpt>
      <trkpt lat="49.76227" lon="2.14583">
        <ele>96.5</ele>
        <time>2023-06-21T12:21:41Z</time>
      </trkpt>
      <trkpt lat="49.76225" lon="2.14582">
        <ele>96.5</ele>
        <time>2023-06-21T12:21:43Z</time>
      </trkpt>
      <trkpt lat="49.76224" lon="2.14581">
        <ele>96.5</ele>
        <time>2023-06-21T12:21:44Z</time>
      </trkpt>
      <trkpt lat="49.76223" lon="2.1458">
        <ele>96.5</ele>
        <time>2023-06-21T12:21:45Z</time>
      </trkpt>
      <trkpt lat="49.76222" lon="2.14579">
        <ele>96.5</ele>
        <time>2023-06-21T12:21:46Z</time>
      </trkpt>
      <trkpt lat="49.76219" lon="2.14577">
        <ele>96.4</ele>
        <time>2023-06-21T12:21:48Z</time>
      </trkpt>
      <trkpt lat="49.76219" lon="2.14576">
        <ele>96.4</ele>
        <time>2023-06-21T12:21:49Z</time>
      </trkpt>
      <trkpt lat="49.76217" lon="2.14575">
        <ele>96.4</ele>
        <time>2023-06-21T12:21:50Z</time>
      </trkpt>
      <trkpt lat="49.76216" lon="2.14574">
        <ele>96.3</ele>
        <time>2023-06-21T12:21:51Z</time>
      </trkpt>
      <trkpt lat="49.76215" lon="2.14574">
        <ele>96.3</ele>
        <time>2023-06-21T12:21:53Z</time>
      </trkpt>
      <trkpt lat="49.76214" lon="2.14573">
        <ele>96.3</ele>
        <time>2023-06-21T12:21:54Z</time>
      </trkpt>
      <trkpt lat="49.76213" lon="2.14573">
        <ele>96.3</ele>
        <time>2023-06-21T12:21:55Z</time>
      </trkpt>
      <trkpt lat="49.76212" lon="2.14572">
        <ele>96.2</ele>
        <time>2023-06-21T12:21:56Z</time>
      </trkpt>
      <trkpt lat="49.76211" lon="2.14571">
        <ele>96.2</ele>
        <time>2023-06-21T12:21:57Z</time>
      </trkpt>
      <trkpt lat="49.7621" lon="2.1457">
        <ele>96.2</ele>
        <time>2023-06-21T12:21:58Z</time>
      </trkpt>
      <trkpt lat="49.76207" lon="2.14569">
        <ele>96.1</ele>
        <time>2023-06-21T12:21:59Z</time>
      </trkpt>
      <trkpt lat="49.76207" lon="2.14569">
        <ele>96.1</ele>
        <time>2023-06-21T12:22:01Z</time>
      </trkpt>
      <trkpt lat="49.76206" lon="2.14568">
        <ele>96.1</ele>
        <time>2023-06-21T12:22:02Z</time>
      </trkpt>
      <trkpt lat="49.76204" lon="2.14567">
        <ele>96</ele>
        <time>2023-06-21T12:22:03Z</time>
      </trkpt>
      <trkpt lat="49.76203" lon="2.14567">
        <ele>95.9</ele>
        <time>2023-06-21T12:22:04Z</time>
      </trkpt>
      <trkpt lat="49.76202" lon="2.14566">
        <ele>95.9</ele>
        <time>2023-06-21T12:22:05Z</time>
      </trkpt>
      <trkpt lat="49.762" lon="2.14565">
        <ele>95.8</ele>
        <time>2023-06-21T12:22:06Z</time>
      </trkpt>
      <trkpt lat="49.76199" lon="2.14565">
        <ele>95.8</ele>
        <time>2023-06-21T12:22:07Z</time>
      </trkpt>
      <trkpt lat="49.76199" lon="2.14564">
        <ele>95.8</ele>
        <time>2023-06-21T12:22:08Z</time>
      </trkpt>
      <trkpt lat="49.76198" lon="2.14564">
        <ele>95.7</ele>
        <time>2023-06-21T12:22:10Z</time>
      </trkpt>
      <trkpt lat="49.76197" lon="2.14563">
        <ele>95.7</ele>
        <time>2023-06-21T12:22:11Z</time>
      </trkpt>
      <trkpt lat="49.76195" lon="2.14562">
        <ele>95.7</ele>
        <time>2023-06-21T12:22:12Z</time>
      </trkpt>
      <trkpt lat="49.76194" lon="2.14561">
        <ele>95.6</ele>
        <time>2023-06-21T12:22:13Z</time>
      </trkpt>
      <trkpt lat="49.76193" lon="2.1456">
        <ele>95.6</ele>
        <time>2023-06-21T12:22:14Z</time>
      </trkpt>
      <trkpt lat="49.76192" lon="2.1456">
        <ele>95.5</ele>
        <time>2023-06-21T12:22:15Z</time>
      </trkpt>
      <trkpt lat="49.76191" lon="2.14559">
        <ele>95.5</ele>
        <time>2023-06-21T12:22:16Z</time>
      </trkpt>
      <trkpt lat="49.76191" lon="2.14558">
        <ele>95.4</ele>
        <time>2023-06-21T12:22:18Z</time>
      </trkpt>
      <trkpt lat="49.76189" lon="2.14557">
        <ele>95.4</ele>
        <time>2023-06-21T12:22:19Z</time>
      </trkpt>
      <trkpt lat="49.76188" lon="2.14555">
        <ele>95.3</ele>
        <time>2023-06-21T12:22:20Z</time>
      </trkpt>
      <trkpt lat="49.76187" lon="2.14554">
        <ele>95.3</ele>
        <time>2023-06-21T12:22:21Z</time>
      </trkpt>
      <trkpt lat="49.76186" lon="2.14553">
        <ele>95.2</ele>
        <time>2023-06-21T12:22:22Z</time>
      </trkpt>
      <trkpt lat="49.76186" lon="2.14552">
        <ele>95.2</ele>
        <time>2023-06-21T12:22:23Z</time>
      </trkpt>
      <trkpt lat="49.76185" lon="2.14551">
        <ele>95.1</ele>
        <time>2023-06-21T12:22:25Z</time>
      </trkpt>
      <trkpt lat="49.76183" lon="2.14551">
        <ele>95.1</ele>
        <time>2023-06-21T12:22:26Z</time>
      </trkpt>
      <trkpt lat="49.76182" lon="2.1455">
        <ele>95</ele>
        <time>2023-06-21T12:22:27Z</time>
      </trkpt>
      <trkpt lat="49.76181" lon="2.1455">
        <ele>95</ele>
        <time>2023-06-21T12:22:28Z</time>
      </trkpt>
      <trkpt lat="49.76181" lon="2.1455">
        <ele>94.9</ele>
        <time>2023-06-21T12:22:29Z</time>
      </trkpt>
      <trkpt lat="49.7618" lon="2.14549">
        <ele>94.9</ele>
        <time>2023-06-21T12:22:30Z</time>
      </trkpt>
      <trkpt lat="49.76179" lon="2.14548">
        <ele>94.9</ele>
        <time>2023-06-21T12:22:32Z</time>
      </trkpt>
      <trkpt lat="49.76179" lon="2.14547">
        <ele>94.8</ele>
        <time>2023-06-21T12:22:33Z</time>
      </trkpt>
      <trkpt lat="49.76178" lon="2.14546">
        <ele>94.8</ele>
        <time>2023-06-21T12:22:34Z</time>
      </trkpt>
      <trkpt lat="49.76178" lon="2.14545">
        <ele>94.8</ele>
        <time>2023-06-21T12:22:36Z</time>
      </trkpt>
      <trkpt lat="49.76178" lon="2.14545">
        <ele>94.8</ele>
        <time>2023-06-21T12:22:37Z</time>
      </trkpt>
      <trkpt lat="49.76178" lon="2.14545">
        <ele>94.8</ele>
        <time>2023-06-21T12:22:38Z</time>
      </trkpt>
      <trkpt lat="49.76178" lon="2.14545">
        <ele>94.8</ele>
        <time>2023-06-21T12:22:40Z</time>
      </trkpt>
      <trkpt lat="49.76178" lon="2.14545">
        <ele>94.8</ele>
        <time>2023-06-21T12:22:41Z</time>
      </trkpt>
      <trkpt lat="49.76179" lon="2.14545">
        <ele>94.8</ele>
        <time>2023-06-21T12:22:42Z</time>
      </trkpt>
      <trkpt lat="49.76179" lon="2.14545">
        <ele>94.8</ele>
        <time>2023-06-21T12:22:44Z</time>
      </trkpt>
      <trkpt lat="49.76179" lon="2.14545">
        <ele>94.8</ele>
        <time>2023-06-21T12:22:45Z</time>
      </trkpt>
      <trkpt lat="49.76179" lon="2.14545">
        <ele>94.8</ele>
        <time>2023-06-21T12:22:46Z</time>
      </trkpt>
      <trkpt lat="49.76179" lon="2.14545">
        <ele>94.8</ele>
        <time>2023-06-21T12:22:48Z</time>
      </trkpt>
      <trkpt lat="49.76179" lon="2.14545">
        <ele>94.8</ele>
        <time>2023-06-21T12:22:49Z</time>
      </trkpt>
      <trkpt lat="49.76179" lon="2.14545">
        <ele>94.8</ele>
        <time>2023-06-21T12:22:50Z</time>
      </trkpt>
      <trkpt lat="49.76179" lon="2.14545">
        <ele>94.8</ele>
        <time>2023-06-21T12:22:52Z</time>
      </trkpt>
      <trkpt lat="49.76179" lon="2.14545">
        <ele>94.8</ele>
        <time>2023-06-21T12:22:53Z</time>
      </trkpt>
      <trkpt lat="49.76179" lon="2.14545">
        <ele>94.8</ele>
        <time>2023-06-21T12:22:54Z</time>
      </trkpt>
      <trkpt lat="49.76179" lon="2.14545">
        <ele>94.8</ele>
        <time>2023-06-21T12:22:55Z</time>
      </trkpt>
      <trkpt lat="49.76179" lon="2.14545">
        <ele>94.8</ele>
        <time>2023-06-21T12:22:56Z</time>
      </trkpt>
      <trkpt lat="49.76179" lon="2.14546">
        <ele>94.8</ele>
        <time>2023-06-21T12:22:57Z</time>
      </trkpt>
      <trkpt lat="49.7618" lon="2.14546">
        <ele>94.8</ele>
        <time>2023-06-21T12:22:58Z</time>
      </trkpt>
      <trkpt lat="49.7618" lon="2.14546">
        <ele>94.8</ele>
        <time>2023-06-21T12:22:59Z</time>
      </trkpt>
      <trkpt lat="49.7618" lon="2.14546">
        <ele>94.8</ele>
        <time>2023-06-21T12:23:00Z</time>
      </trkpt>
      <trkpt lat="49.7618" lon="2.14546">
        <ele>94.8</ele>
        <time>2023-06-21T12:23:01Z</time>
      </trkpt>
      <trkpt lat="49.7618" lon="2.14546">
        <ele>94.8</ele>
        <time>2023-06-21T12:23:02Z</time>
      </trkpt>
      <trkpt lat="49.7618" lon="2.14546">
        <ele>94.8</ele>
        <time>2023-06-21T12:23:03Z</time>
      </trkpt>
      <trkpt lat="49.7618" lon="2.14546">
        <ele>94.8</ele>
        <time>2023-06-21T12:23:04Z</time>
      </trkpt>
      <trkpt lat="49.7618" lon="2.14546">
        <ele>94.8</ele>
        <time>2023-06-21T12:23:05Z</time>
      </trkpt>
      <trkpt lat="49.7618" lon="2.14546">
        <ele>94.8</ele>
        <time>2023-06-21T12:23:06Z</time>
      </trkpt>
      <trkpt lat="49.7618" lon="2.14546">
        <ele>94.8</ele>
        <time>2023-06-21T12:23:07Z</time>
      </trkpt>
      <trkpt lat="49.7618" lon="2.14546">
        <ele>94.9</ele>
        <time>2023-06-21T12:23:08Z</time>
      </trkpt>
      <trkpt lat="49.7618" lon="2.14546">
        <ele>94.9</ele>
        <time>2023-06-21T12:23:09Z</time>
      </trkpt>
      <trkpt lat="49.76181" lon="2.14546">
        <ele>94.9</ele>
        <time>2023-06-21T12:23:10Z</time>
      </trkpt>
      <trkpt lat="49.76181" lon="2.14546">
        <ele>94.9</ele>
        <time>2023-06-21T12:23:11Z</time>
      </trkpt>
      <trkpt lat="49.76181" lon="2.14546">
        <ele>94.9</ele>
        <time>2023-06-21T12:23:12Z</time>
      </trkpt>
      <trkpt lat="49.76181" lon="2.14547">
        <ele>94.9</ele>
        <time>2023-06-21T12:23:13Z</time>
      </trkpt>
      <trkpt lat="49.76181" lon="2.14547">
        <ele>94.9</ele>
        <time>2023-06-21T12:23:14Z</time>
      </trkpt>
      <trkpt lat="49.76181" lon="2.14547">
        <ele>94.9</ele>
        <time>2023-06-21T12:23:15Z</time>
      </trkpt>
      <trkpt lat="49.76181" lon="2.14547">
        <ele>94.9</ele>
        <time>2023-06-21T12:23:16Z</time>
      </trkpt>
      <trkpt lat="49.76181" lon="2.14547">
        <ele>94.9</ele>
        <time>2023-06-21T12:23:17Z</time>
      </trkpt>
      <trkpt lat="49.76181" lon="2.14547">
        <ele>94.9</ele>
        <time>2023-06-21T12:23:18Z</time>
      </trkpt>
      <trkpt lat="49.76181" lon="2.14547">
        <ele>94.9</ele>
        <time>2023-06-21T12:23:19Z</time>
      </trkpt>
      <trkpt lat="49.76181" lon="2.14547">
        <ele>94.9</ele>
        <time>2023-06-21T12:23:20Z</time>
      </trkpt>
      <trkpt lat="49.76181" lon="2.14547">
        <ele>94.9</ele>
        <time>2023-06-21T12:23:21Z</time>
      </trkpt>
      <trkpt lat="49.76181" lon="2.14547">
        <ele>94.9</ele>
        <time>2023-06-21T12:23:22Z</time>
      </trkpt>
      <trkpt lat="49.76182" lon="2.14547">
        <ele>94.9</ele>
        <time>2023-06-21T12:23:23Z</time>
      </trkpt>
      <trkpt lat="49.76182" lon="2.14547">
        <ele>94.9</ele>
        <time>2023-06-21T12:23:24Z</time>
      </trkpt>
      <trkpt lat="49.76182" lon="2.14547">
        <ele>94.9</ele>
        <time>2023-06-21T12:23:25Z</time>
      </trkpt>
      <trkpt lat="49.76182" lon="2.14547">
        <ele>94.9</ele>
        <time>2023-06-21T12:23:26Z</time>
      </trkpt>
      <trkpt lat="49.76182" lon="2.14547">
        <ele>94.9</ele>
        <time>2023-06-21T12:23:27Z</time>
      </trkpt>
      <trkpt lat="49.76182" lon="2.14547">
        <ele>94.9</ele>
        <time>2023-06-21T12:23:28Z</time>
      </trkpt>
      <trkpt lat="49.76182" lon="2.14547">
        <ele>94.9</ele>
        <time>2023-06-21T12:23:29Z</time>
      </trkpt>
      <trkpt lat="49.76182" lon="2.14548">
        <ele>94.9</ele>
        <time>2023-06-21T12:23:30Z</time>
      </trkpt>
      <trkpt lat="49.76182" lon="2.14548">
        <ele>94.9</ele>
        <time>2023-06-21T12:23:31Z</time>
      </trkpt>
      <trkpt lat="49.76182" lon="2.14548">
        <ele>94.9</ele>
        <time>2023-06-21T12:23:32Z</time>
      </trkpt>
      <trkpt lat="49.76182" lon="2.14548">
        <ele>94.9</ele>
        <time>2023-06-21T12:23:33Z</time>
      </trkpt>
      <trkpt lat="49.76182" lon="2.14548">
        <ele>94.9</ele>
        <time>2023-06-21T12:23:34Z</time>
      </trkpt>
      <trkpt lat="49.76182" lon="2.14548">
        <ele>94.9</ele>
        <time>2023-06-21T12:23:35Z</time>
      </trkpt>
      <trkpt lat="49.76183" lon="2.14548">
        <ele>94.9</ele>
        <time>2023-06-21T12:23:36Z</time>
      </trkpt>
      <trkpt lat="49.76183" lon="2.14548">
        <ele>94.9</ele>
        <time>2023-06-21T12:23:37Z</time>
      </trkpt>
      <trkpt lat="49.76183" lon="2.14548">
        <ele>94.9</ele>
        <time>2023-06-21T12:23:38Z</time>
      </trkpt>
      <trkpt lat="49.76183" lon="2.14548">
        <ele>95</ele>
        <time>2023-06-21T12:23:39Z</time>
      </trkpt>
      <trkpt lat="49.76183" lon="2.14548">
        <ele>95</ele>
        <time>2023-06-21T12:23:40Z</time>
      </trkpt>
      <trkpt lat="49.76183" lon="2.14548">
        <ele>95</ele>
        <time>2023-06-21T12:23:41Z</time>
      </trkpt>
      <trkpt lat="49.76183" lon="2.14548">
        <ele>95</ele>
        <time>2023-06-21T12:23:42Z</time>
      </trkpt>
      <trkpt lat="49.76183" lon="2.14548">
        <ele>95</ele>
        <time>2023-06-21T12:23:43Z</time>
      </trkpt>
      <trkpt lat="49.76183" lon="2.14548">
        <ele>95</ele>
        <time>2023-06-21T12:23:44Z</time>
      </trkpt>
      <trkpt lat="49.76183" lon="2.14548">
        <ele>95</ele>
        <time>2023-06-21T12:23:45Z</time>
      </trkpt>
      <trkpt lat="49.76183" lon="2.14548">
        <ele>95</ele>
        <time>2023-06-21T12:23:46Z</time>
      </trkpt>
      <trkpt lat="49.76187" lon="2.14553">
        <ele>95.1</ele>
        <time>2023-06-21T12:23:47Z</time>
      </trkpt>
      <trkpt lat="49.76188" lon="2.14553">
        <ele>95.2</ele>
        <time>2023-06-21T12:23:48Z</time>
      </trkpt>
      <trkpt lat="49.76187" lon="2.14553">
        <ele>95.2</ele>
        <time>2023-06-21T12:23:49Z</time>
      </trkpt>
      <trkpt lat="49.76188" lon="2.14552">
        <ele>95.2</ele>
        <time>2023-06-21T12:23:50Z</time>
      </trkpt>
      <trkpt lat="49.76188" lon="2.14551">
        <ele>95.2</ele>
        <time>2023-06-21T12:23:52Z</time>
      </trkpt>
      <trkpt lat="49.76189" lon="2.1455">
        <ele>95.3</ele>
        <time>2023-06-21T12:23:53Z</time>
      </trkpt>
      <trkpt lat="49.76191" lon="2.14549">
        <ele>95.3</ele>
        <time>2023-06-21T12:23:55Z</time>
      </trkpt>
      <trkpt lat="49.76192" lon="2.14547">
        <ele>95.4</ele>
        <time>2023-06-21T12:23:56Z</time>
      </trkpt>
      <trkpt lat="49.76193" lon="2.14546">
        <ele>95.4</ele>
        <time>2023-06-21T12:23:58Z</time>
      </trkpt>
      <trkpt lat="49.76193" lon="2.14545">
        <ele>95.4</ele>
        <time>2023-06-21T12:23:59Z</time>
      </trkpt>
      <trkpt lat="49.76194" lon="2.14544">
        <ele>95.5</ele>
        <time>2023-06-21T12:24:00Z</time>
      </trkpt>
      <trkpt lat="49.76195" lon="2.14543">
        <ele>95.5</ele>
        <time>2023-06-21T12:24:02Z</time>
      </trkpt>
      <trkpt lat="49.76196" lon="2.14543">
        <ele>95.6</ele>
        <time>2023-06-21T12:24:03Z</time>
      </trkpt>
      <trkpt lat="49.76197" lon="2.14542">
        <ele>95.6</ele>
        <time>2023-06-21T12:24:04Z</time>
      </trkpt>
      <trkpt lat="49.76199" lon="2.14542">
        <ele>95.7</ele>
        <time>2023-06-21T12:24:05Z</time>
      </trkpt>
      <trkpt lat="49.762" lon="2.14541">
        <ele>95.7</ele>
        <time>2023-06-21T12:24:07Z</time>
      </trkpt>
      <trkpt lat="49.76201" lon="2.14541">
        <ele>95.7</ele>
        <time>2023-06-21T12:24:08Z</time>
      </trkpt>
      <trkpt lat="49.76202" lon="2.14541">
        <ele>95.8</ele>
        <time>2023-06-21T12:24:09Z</time>
      </trkpt>
      <trkpt lat="49.76204" lon="2.14541">
        <ele>95.8</ele>
        <time>2023-06-21T12:24:10Z</time>
      </trkpt>
      <trkpt lat="49.76204" lon="2.14541">
        <ele>95.8</ele>
        <time>2023-06-21T12:24:12Z</time>
      </trkpt>
      <trkpt lat="49.76204" lon="2.14542">
        <ele>95.9</ele>
        <time>2023-06-21T12:24:13Z</time>
      </trkpt>
      <trkpt lat="49.76205" lon="2.14541">
        <ele>95.9</ele>
        <time>2023-06-21T12:24:14Z</time>
      </trkpt>
      <trkpt lat="49.76206" lon="2.14541">
        <ele>95.9</ele>
        <time>2023-06-21T12:24:15Z</time>
      </trkpt>
      <trkpt lat="49.76207" lon="2.1454">
        <ele>96</ele>
        <time>2023-06-21T12:24:17Z</time>
      </trkpt>
      <trkpt lat="49.76208" lon="2.14539">
        <ele>96</ele>
        <time>2023-06-21T12:24:18Z</time>
      </trkpt>
      <trkpt lat="49.76208" lon="2.14539">
        <ele>96</ele>
        <time>2023-06-21T12:24:19Z</time>
      </trkpt>
      <trkpt lat="49.76209" lon="2.14538">
        <ele>96</ele>
        <time>2023-06-21T12:24:20Z</time>
      </trkpt>
      <trkpt lat="49.76211" lon="2.14538">
        <ele>96.1</ele>
        <time>2023-06-21T12:24:22Z</time>
      </trkpt>
      <trkpt lat="49.76211" lon="2.14538">
        <ele>96.1</ele>
        <time>2023-06-21T12:24:24Z</time>
      </trkpt>
      <trkpt lat="49.76212" lon="2.14538">
        <ele>96.1</ele>
        <time>2023-06-21T12:24:25Z</time>
      </trkpt>
      <trkpt lat="49.76212" lon="2.14538">
        <ele>96.1</ele>
        <time>2023-06-21T12:24:26Z</time>
      </trkpt>
      <trkpt lat="49.76212" lon="2.14538">
        <ele>96.1</ele>
        <time>2023-06-21T12:24:28Z</time>
      </trkpt>
      <trkpt lat="49.76212" lon="2.14538">
        <ele>96.1</ele>
        <time>2023-06-21T12:24:29Z</time>
      </trkpt>
      <trkpt lat="49.76213" lon="2.14538">
        <ele>96.1</ele>
        <time>2023-06-21T12:24:30Z</time>
      </trkpt>
      <trkpt lat="49.76213" lon="2.14538">
        <ele>96.1</ele>
        <time>2023-06-21T12:24:32Z</time>
      </trkpt>
      <trkpt lat="49.76213" lon="2.14538">
        <ele>96.2</ele>
        <time>2023-06-21T12:24:33Z</time>
      </trkpt>
      <trkpt lat="49.76213" lon="2.14538">
        <ele>96.2</ele>
        <time>2023-06-21T12:24:34Z</time>
      </trkpt>
      <trkpt lat="49.76214" lon="2.14538">
        <ele>96.2</ele>
        <time>2023-06-21T12:24:36Z</time>
      </trkpt>
      <trkpt lat="49.76214" lon="2.14538">
        <ele>96.2</ele>
        <time>2023-06-21T12:24:37Z</time>
      </trkpt>
      <trkpt lat="49.76214" lon="2.14538">
        <ele>96.2</ele>
        <time>2023-06-21T12:24:38Z</time>
      </trkpt>
      <trkpt lat="49.76214" lon="2.14538">
        <ele>96.2</ele>
        <time>2023-06-21T12:24:40Z</time>
      </trkpt>
      <trkpt lat="49.76214" lon="2.14538">
        <ele>96.2</ele>
        <time>2023-06-21T12:24:41Z</time>
      </trkpt>
      <trkpt lat="49.76215" lon="2.14538">
        <ele>96.2</ele>
        <time>2023-06-21T12:24:42Z</time>
      </trkpt>
      <trkpt lat="49.76215" lon="2.14538">
        <ele>96.2</ele>
        <time>2023-06-21T12:24:43Z</time>
      </trkpt>
      <trkpt lat="49.76215" lon="2.14537">
        <ele>96.2</ele>
        <time>2023-06-21T12:24:44Z</time>
      </trkpt>
      <trkpt lat="49.76215" lon="2.14537">
        <ele>96.2</ele>
        <time>2023-06-21T12:24:46Z</time>
      </trkpt>
      <trkpt lat="49.76216" lon="2.14537">
        <ele>96.2</ele>
        <time>2023-06-21T12:24:47Z</time>
      </trkpt>
      <trkpt lat="49.76216" lon="2.14537">
        <ele>96.2</ele>
        <time>2023-06-21T12:24:48Z</time>
      </trkpt>
      <trkpt lat="49.76218" lon="2.14536">
        <ele>96.3</ele>
        <time>2023-06-21T12:24:49Z</time>
      </trkpt>
      <trkpt lat="49.76219" lon="2.14536">
        <ele>96.4</ele>
        <time>2023-06-21T12:24:50Z</time>
      </trkpt>
      <trkpt lat="49.7622" lon="2.14535">
        <ele>96.4</ele>
        <time>2023-06-21T12:24:51Z</time>
      </trkpt>
      <trkpt lat="49.76221" lon="2.14535">
        <ele>96.4</ele>
        <time>2023-06-21T12:24:53Z</time>
      </trkpt>
      <trkpt lat="49.76222" lon="2.14535">
        <ele>96.5</ele>
        <time>2023-06-21T12:24:54Z</time>
      </trkpt>
      <trkpt lat="49.76223" lon="2.14535">
        <ele>96.5</ele>
        <time>2023-06-21T12:24:55Z</time>
      </trkpt>
      <trkpt lat="49.76223" lon="2.14534">
        <ele>96.5</ele>
        <time>2023-06-21T12:24:56Z</time>
      </trkpt>
      <trkpt lat="49.76224" lon="2.14534">
        <ele>96.5</ele>
        <time>2023-06-21T12:24:57Z</time>
      </trkpt>
      <trkpt lat="49.76225" lon="2.14534">
        <ele>96.6</ele>
        <time>2023-06-21T12:24:58Z</time>
      </trkpt>
      <trkpt lat="49.76227" lon="2.14533">
        <ele>96.6</ele>
        <time>2023-06-21T12:24:59Z</time>
      </trkpt>
      <trkpt lat="49.76228" lon="2.14533">
        <ele>96.7</ele>
        <time>2023-06-21T12:25:00Z</time>
      </trkpt>
      <trkpt lat="49.76229" lon="2.14534">
        <ele>96.7</ele>
        <time>2023-06-21T12:25:02Z</time>
      </trkpt>
      <trkpt lat="49.7623" lon="2.14534">
        <ele>96.7</ele>
        <time>2023-06-21T12:25:03Z</time>
      </trkpt>
      <trkpt lat="49.76231" lon="2.14534">
        <ele>96.8</ele>
        <time>2023-06-21T12:25:04Z</time>
      </trkpt>
      <trkpt lat="49.76232" lon="2.14533">
        <ele>96.8</ele>
        <time>2023-06-21T12:25:05Z</time>
      </trkpt>
      <trkpt lat="49.76233" lon="2.14533">
        <ele>96.8</ele>
        <time>2023-06-21T12:25:06Z</time>
      </trkpt>
      <trkpt lat="49.76234" lon="2.14532">
        <ele>96.9</ele>
        <time>2023-06-21T12:25:07Z</time>
      </trkpt>
      <trkpt lat="49.76236" lon="2.14532">
        <ele>96.9</ele>
        <time>2023-06-21T12:25:08Z</time>
      </trkpt>
      <trkpt lat="49.76239" lon="2.14531">
        <ele>97</ele>
        <time>2023-06-21T12:25:10Z</time>
      </trkpt>
      <trkpt lat="49.76241" lon="2.1453">
        <ele>97</ele>
        <time>2023-06-21T12:25:12Z</time>
      </trkpt>
      <trkpt lat="49.76242" lon="2.14529">
        <ele>97.1</ele>
        <time>2023-06-21T12:25:13Z</time>
      </trkpt>
      <trkpt lat="49.76244" lon="2.14528">
        <ele>97.1</ele>
        <time>2023-06-21T12:25:14Z</time>
      </trkpt>
      <trkpt lat="49.76247" lon="2.14527">
        <ele>97.2</ele>
        <time>2023-06-21T12:25:15Z</time>
      </trkpt>
      <trkpt lat="49.76248" lon="2.14527">
        <ele>97.2</ele>
        <time>2023-06-21T12:25:17Z</time>
      </trkpt>
      <trkpt lat="49.76249" lon="2.14527">
        <ele>97.3</ele>
        <time>2023-06-21T12:25:18Z</time>
      </trkpt>
      <trkpt lat="49.7625" lon="2.14527">
        <ele>97.3</ele>
        <time>2023-06-21T12:25:19Z</time>
      </trkpt>
      <trkpt lat="49.76251" lon="2.14526">
        <ele>97.3</ele>
        <time>2023-06-21T12:25:20Z</time>
      </trkpt>
      <trkpt lat="49.76254" lon="2.14526">
        <ele>97.4</ele>
        <time>2023-06-21T12:25:21Z</time>
      </trkpt>
      <trkpt lat="49.76255" lon="2.14526">
        <ele>97.4</ele>
        <time>2023-06-21T12:25:23Z</time>
      </trkpt>
      <trkpt lat="49.76256" lon="2.14526">
        <ele>97.4</ele>
        <time>2023-06-21T12:25:25Z</time>
      </trkpt>
      <trkpt lat="49.76257" lon="2.14526">
        <ele>97.5</ele>
        <time>2023-06-21T12:25:26Z</time>
      </trkpt>
      <trkpt lat="49.76258" lon="2.14525">
        <ele>97.5</ele>
        <time>2023-06-21T12:25:27Z</time>
      </trkpt>
      <trkpt lat="49.7626" lon="2.14525">
        <ele>97.5</ele>
        <time>2023-06-21T12:25:28Z</time>
      </trkpt>
      <trkpt lat="49.76261" lon="2.14525">
        <ele>97.6</ele>
        <time>2023-06-21T12:25:30Z</time>
      </trkpt>
      <trkpt lat="49.76262" lon="2.14525">
        <ele>97.6</ele>
        <time>2023-06-21T12:25:31Z</time>
      </trkpt>
      <trkpt lat="49.76263" lon="2.14525">
        <ele>97.6</ele>
        <time>2023-06-21T12:25:32Z</time>
      </trkpt>
      <trkpt lat="49.76264" lon="2.14524">
        <ele>97.6</ele>
        <time>2023-06-21T12:25:33Z</time>
      </trkpt>
      <trkpt lat="49.76265" lon="2.14524">
        <ele>97.6</ele>
        <time>2023-06-21T12:25:34Z</time>
      </trkpt>
      <trkpt lat="49.76266" lon="2.14523">
        <ele>97.6</ele>
        <time>2023-06-21T12:25:35Z</time>
      </trkpt>
      <trkpt lat="49.76268" lon="2.14523">
        <ele>97.7</ele>
        <time>2023-06-21T12:25:36Z</time>
      </trkpt>
      <trkpt lat="49.7627" lon="2.14522">
        <ele>97.7</ele>
        <time>2023-06-21T12:25:38Z</time>
      </trkpt>
      <trkpt lat="49.7627" lon="2.14522">
        <ele>97.7</ele>
        <time>2023-06-21T12:25:39Z</time>
      </trkpt>
      <trkpt lat="49.76271" lon="2.14522">
        <ele>97.7</ele>
        <time>2023-06-21T12:25:40Z</time>
      </trkpt>
      <trkpt lat="49.76272" lon="2.14521">
        <ele>97.7</ele>
        <time>2023-06-21T12:25:41Z</time>
      </trkpt>
      <trkpt lat="49.76274" lon="2.14521">
        <ele>97.7</ele>
        <time>2023-06-21T12:25:43Z</time>
      </trkpt>
      <trkpt lat="49.76275" lon="2.1452">
        <ele>97.8</ele>
        <time>2023-06-21T12:25:44Z</time>
      </trkpt>
      <trkpt lat="49.76275" lon="2.1452">
        <ele>97.8</ele>
        <time>2023-06-21T12:25:45Z</time>
      </trkpt>
      <trkpt lat="49.76276" lon="2.1452">
        <ele>97.8</ele>
        <time>2023-06-21T12:25:46Z</time>
      </trkpt>
      <trkpt lat="49.76278" lon="2.14519">
        <ele>97.8</ele>
        <time>2023-06-21T12:25:47Z</time>
      </trkpt>
      <trkpt lat="49.76279" lon="2.14519">
        <ele>97.8</ele>
        <time>2023-06-21T12:25:49Z</time>
      </trkpt>
      <trkpt lat="49.7628" lon="2.14518">
        <ele>97.8</ele>
        <time>2023-06-21T12:25:50Z</time>
      </trkpt>
      <trkpt lat="49.76281" lon="2.14518">
        <ele>97.8</ele>
        <time>2023-06-21T12:25:51Z</time>
      </trkpt>
      <trkpt lat="49.76281" lon="2.14518">
        <ele>97.8</ele>
        <time>2023-06-21T12:25:52Z</time>
      </trkpt>
      <trkpt lat="49.76282" lon="2.14517">
        <ele>97.8</ele>
        <time>2023-06-21T12:25:53Z</time>
      </trkpt>
      <trkpt lat="49.76283" lon="2.14517">
        <ele>97.8</ele>
        <time>2023-06-21T12:25:55Z</time>
      </trkpt>
      <trkpt lat="49.76284" lon="2.14517">
        <ele>97.8</ele>
        <time>2023-06-21T12:25:56Z</time>
      </trkpt>
      <trkpt lat="49.76284" lon="2.14517">
        <ele>97.8</ele>
        <time>2023-06-21T12:25:57Z</time>
      </trkpt>
      <trkpt lat="49.76285" lon="2.14517">
        <ele>97.8</ele>
        <time>2023-06-21T12:25:58Z</time>
      </trkpt>
      <trkpt lat="49.76286" lon="2.14517">
        <ele>97.8</ele>
        <time>2023-06-21T12:25:59Z</time>
      </trkpt>
      <trkpt lat="49.76286" lon="2.14517">
        <ele>97.8</ele>
        <time>2023-06-21T12:26:00Z</time>
      </trkpt>
      <trkpt lat="49.76287" lon="2.14516">
        <ele>97.8</ele>
        <time>2023-06-21T12:26:02Z</time>
      </trkpt>
      <trkpt lat="49.76288" lon="2.14516">
        <ele>97.8</ele>
        <time>2023-06-21T12:26:03Z</time>
      </trkpt>
      <trkpt lat="49.76289" lon="2.14516">
        <ele>97.8</ele>
        <time>2023-06-21T12:26:04Z</time>
      </trkpt>
      <trkpt lat="49.7629" lon="2.14515">
        <ele>97.8</ele>
        <time>2023-06-21T12:26:05Z</time>
      </trkpt>
      <trkpt lat="49.76291" lon="2.14515">
        <ele>97.8</ele>
        <time>2023-06-21T12:26:06Z</time>
      </trkpt>
      <trkpt lat="49.76292" lon="2.14514">
        <ele>97.8</ele>
        <time>2023-06-21T12:26:08Z</time>
      </trkpt>
      <trkpt lat="49.76292" lon="2.14514">
        <ele>97.8</ele>
        <time>2023-06-21T12:26:09Z</time>
      </trkpt>
      <trkpt lat="49.76293" lon="2.14513">
        <ele>97.8</ele>
        <time>2023-06-21T12:26:10Z</time>
      </trkpt>
      <trkpt lat="49.76294" lon="2.14512">
        <ele>97.8</ele>
        <time>2023-06-21T12:26:11Z</time>
      </trkpt>
      <trkpt lat="49.76295" lon="2.14512">
        <ele>97.8</ele>
        <time>2023-06-21T12:26:12Z</time>
      </trkpt>
      <trkpt lat="49.76296" lon="2.14512">
        <ele>97.8</ele>
        <time>2023-06-21T12:26:13Z</time>
      </trkpt>
      <trkpt lat="49.76298" lon="2.14512">
        <ele>97.8</ele>
        <time>2023-06-21T12:26:15Z</time>
      </trkpt>
      <trkpt lat="49.76299" lon="2.14511">
        <ele>97.8</ele>
        <time>2023-06-21T12:26:16Z</time>
      </trkpt>
      <trkpt lat="49.763" lon="2.14511">
        <ele>97.8</ele>
        <time>2023-06-21T12:26:17Z</time>
      </trkpt>
      <trkpt lat="49.76302" lon="2.14511">
        <ele>97.8</ele>
        <time>2023-06-21T12:26:18Z</time>
      </trkpt>
      <trkpt lat="49.76303" lon="2.1451">
        <ele>97.8</ele>
        <time>2023-06-21T12:26:19Z</time>
      </trkpt>
      <trkpt lat="49.76304" lon="2.1451">
        <ele>97.8</ele>
        <time>2023-06-21T12:26:20Z</time>
      </trkpt>
      <trkpt lat="49.76305" lon="2.1451">
        <ele>97.8</ele>
        <time>2023-06-21T12:26:21Z</time>
      </trkpt>
      <trkpt lat="49.76307" lon="2.1451">
        <ele>97.8</ele>
        <time>2023-06-21T12:26:23Z</time>
      </trkpt>
      <trkpt lat="49.76308" lon="2.14509">
        <ele>97.8</ele>
        <time>2023-06-21T12:26:24Z</time>
      </trkpt>
      <trkpt lat="49.7631" lon="2.14509">
        <ele>97.8</ele>
        <time>2023-06-21T12:26:25Z</time>
      </trkpt>
      <trkpt lat="49.76311" lon="2.14509">
        <ele>97.8</ele>
        <time>2023-06-21T12:26:26Z</time>
      </trkpt>
      <trkpt lat="49.76311" lon="2.14509">
        <ele>97.8</ele>
        <time>2023-06-21T12:26:27Z</time>
      </trkpt>
      <trkpt lat="49.76314" lon="2.14509">
        <ele>97.8</ele>
        <time>2023-06-21T12:26:29Z</time>
      </trkpt>
      <trkpt lat="49.76315" lon="2.14508">
        <ele>97.7</ele>
        <time>2023-06-21T12:26:30Z</time>
      </trkpt>
      <trkpt lat="49.76315" lon="2.14508">
        <ele>97.7</ele>
        <time>2023-06-21T12:26:31Z</time>
      </trkpt>
      <trkpt lat="49.76316" lon="2.14508">
        <ele>97.7</ele>
        <time>2023-06-21T12:26:32Z</time>
      </trkpt>
      <trkpt lat="49.76317" lon="2.14507">
        <ele>97.7</ele>
        <time>2023-06-21T12:26:33Z</time>
      </trkpt>
      <trkpt lat="49.76319" lon="2.14506">
        <ele>97.7</ele>
        <time>2023-06-21T12:26:34Z</time>
      </trkpt>
      <trkpt lat="49.7632" lon="2.14506">
        <ele>97.7</ele>
        <time>2023-06-21T12:26:36Z</time>
      </trkpt>
      <trkpt lat="49.76321" lon="2.14505">
        <ele>97.7</ele>
        <time>2023-06-21T12:26:37Z</time>
      </trkpt>
      <trkpt lat="49.76323" lon="2.14504">
        <ele>97.7</ele>
        <time>2023-06-21T12:26:38Z</time>
      </trkpt>
      <trkpt lat="49.76323" lon="2.14503">
        <ele>97.7</ele>
        <time>2023-06-21T12:26:39Z</time>
      </trkpt>
      <trkpt lat="49.76324" lon="2.14502">
        <ele>97.6</ele>
        <time>2023-06-21T12:26:40Z</time>
      </trkpt>
      <trkpt lat="49.76324" lon="2.14501">
        <ele>97.6</ele>
        <time>2023-06-21T12:26:41Z</time>
      </trkpt>
      <trkpt lat="49.76325" lon="2.14499">
        <ele>97.6</ele>
        <time>2023-06-21T12:26:43Z</time>
      </trkpt>
      <trkpt lat="49.76325" lon="2.14497">
        <ele>97.6</ele>
        <time>2023-06-21T12:26:44Z</time>
      </trkpt>
      <trkpt lat="49.76325" lon="2.14496">
        <ele>97.6</ele>
        <time>2023-06-21T12:26:45Z</time>
      </trkpt>
      <trkpt lat="49.76326" lon="2.14495">
        <ele>97.6</ele>
        <time>2023-06-21T12:26:46Z</time>
      </trkpt>
      <trkpt lat="49.76327" lon="2.14494">
        <ele>97.6</ele>
        <time>2023-06-21T12:26:47Z</time>
      </trkpt>
      <trkpt lat="49.76328" lon="2.14494">
        <ele>97.6</ele>
        <time>2023-06-21T12:26:48Z</time>
      </trkpt>
      <trkpt lat="49.7633" lon="2.14493">
        <ele>97.5</ele>
        <time>2023-06-21T12:26:49Z</time>
      </trkpt>
      <trkpt lat="49.76332" lon="2.14493">
        <ele>97.5</ele>
        <time>2023-06-21T12:26:51Z</time>
      </trkpt>
      <trkpt lat="49.76333" lon="2.14493">
        <ele>97.5</ele>
        <time>2023-06-21T12:26:52Z</time>
      </trkpt>
      <trkpt lat="49.76334" lon="2.14492">
        <ele>97.5</ele>
        <time>2023-06-21T12:26:53Z</time>
      </trkpt>
      <trkpt lat="49.76336" lon="2.14491">
        <ele>97.5</ele>
        <time>2023-06-21T12:26:55Z</time>
      </trkpt>
      <trkpt lat="49.76337" lon="2.1449">
        <ele>97.5</ele>
        <time>2023-06-21T12:26:56Z</time>
      </trkpt>
      <trkpt lat="49.76338" lon="2.1449">
        <ele>97.5</ele>
        <time>2023-06-21T12:26:57Z</time>
      </trkpt>
      <trkpt lat="49.7634" lon="2.14488">
        <ele>97.6</ele>
        <time>2023-06-21T12:26:59Z</time>
      </trkpt>
      <trkpt lat="49.76342" lon="2.14486">
        <ele>97.7</ele>
        <time>2023-06-21T12:27:01Z</time>
      </trkpt>
      <trkpt lat="49.76341" lon="2.14483">
        <ele>97.7</ele>
        <time>2023-06-21T12:27:02Z</time>
      </trkpt>
      <trkpt lat="49.76341" lon="2.14481">
        <ele>97.8</ele>
        <time>2023-06-21T12:27:03Z</time>
      </trkpt>
      <trkpt lat="49.7634" lon="2.14477">
        <ele>97.9</ele>
        <time>2023-06-21T12:27:04Z</time>
      </trkpt>
      <trkpt lat="49.76339" lon="2.14473">
        <ele>98</ele>
        <time>2023-06-21T12:27:06Z</time>
      </trkpt>
      <trkpt lat="49.76337" lon="2.14468">
        <ele>98.1</ele>
        <time>2023-06-21T12:27:08Z</time>
      </trkpt>
      <trkpt lat="49.76337" lon="2.14467">
        <ele>98.2</ele>
        <time>2023-06-21T12:27:09Z</time>
      </trkpt>
      <trkpt lat="49.76336" lon="2.14465">
        <ele>98.2</ele>
        <time>2023-06-21T12:27:10Z</time>
      </trkpt>
      <trkpt lat="49.76335" lon="2.14463">
        <ele>98.3</ele>
        <time>2023-06-21T12:27:11Z</time>
      </trkpt>
      <trkpt lat="49.76334" lon="2.14459">
        <ele>98.4</ele>
        <time>2023-06-21T12:27:13Z</time>
      </trkpt>
      <trkpt lat="49.76333" lon="2.14458">
        <ele>98.5</ele>
        <time>2023-06-21T12:27:15Z</time>
      </trkpt>
      <trkpt lat="49.76332" lon="2.14457">
        <ele>98.5</ele>
        <time>2023-06-21T12:27:16Z</time>
      </trkpt>
      <trkpt lat="49.76331" lon="2.14455">
        <ele>98.6</ele>
        <time>2023-06-21T12:27:17Z</time>
      </trkpt>
      <trkpt lat="49.76331" lon="2.14454">
        <ele>98.6</ele>
        <time>2023-06-21T12:27:18Z</time>
      </trkpt>
      <trkpt lat="49.7633" lon="2.14453">
        <ele>98.6</ele>
        <time>2023-06-21T12:27:20Z</time>
      </trkpt>
      <trkpt lat="49.76329" lon="2.14452">
        <ele>98.7</ele>
        <time>2023-06-21T12:27:21Z</time>
      </trkpt>
      <trkpt lat="49.76329" lon="2.1445">
        <ele>98.7</ele>
        <time>2023-06-21T12:27:22Z</time>
      </trkpt>
      <trkpt lat="49.76328" lon="2.14449">
        <ele>98.7</ele>
        <time>2023-06-21T12:27:23Z</time>
      </trkpt>
      <trkpt lat="49.76328" lon="2.14448">
        <ele>98.8</ele>
        <time>2023-06-21T12:27:24Z</time>
      </trkpt>
      <trkpt lat="49.76327" lon="2.14446">
        <ele>98.9</ele>
        <time>2023-06-21T12:27:26Z</time>
      </trkpt>
      <trkpt lat="49.76326" lon="2.14445">
        <ele>98.9</ele>
        <time>2023-06-21T12:27:27Z</time>
      </trkpt>
      <trkpt lat="49.76326" lon="2.14443">
        <ele>98.9</ele>
        <time>2023-06-21T12:27:28Z</time>
      </trkpt>
      <trkpt lat="49.76325" lon="2.14442">
        <ele>99</ele>
        <time>2023-06-21T12:27:29Z</time>
      </trkpt>
      <trkpt lat="49.76324" lon="2.14439">
        <ele>99</ele>
        <time>2023-06-21T12:27:31Z</time>
      </trkpt>
      <trkpt lat="49.76323" lon="2.14437">
        <ele>99.1</ele>
        <time>2023-06-21T12:27:33Z</time>
      </trkpt>
      <trkpt lat="49.76323" lon="2.14436">
        <ele>99.1</ele>
        <time>2023-06-21T12:27:34Z</time>
      </trkpt>
      <trkpt lat="49.76322" lon="2.14434">
        <ele>99.2</ele>
        <time>2023-06-21T12:27:35Z</time>
      </trkpt>
      <trkpt lat="49.76321" lon="2.14433">
        <ele>99.2</ele>
        <time>2023-06-21T12:27:36Z</time>
      </trkpt>
      <trkpt lat="49.7632" lon="2.14431">
        <ele>99.3</ele>
        <time>2023-06-21T12:27:38Z</time>
      </trkpt>
      <trkpt lat="49.7632" lon="2.1443">
        <ele>99.3</ele>
        <time>2023-06-21T12:27:39Z</time>
      </trkpt>
      <trkpt lat="49.76319" lon="2.14428">
        <ele>99.4</ele>
        <time>2023-06-21T12:27:40Z</time>
      </trkpt>
      <trkpt lat="49.76318" lon="2.14426">
        <ele>99.4</ele>
        <time>2023-06-21T12:27:42Z</time>
      </trkpt>
      <trkpt lat="49.76318" lon="2.14425">
        <ele>99.5</ele>
        <time>2023-06-21T12:27:43Z</time>
      </trkpt>
      <trkpt lat="49.76318" lon="2.14424">
        <ele>99.5</ele>
        <time>2023-06-21T12:27:44Z</time>
      </trkpt>
      <trkpt lat="49.76317" lon="2.14423">
        <ele>99.5</ele>
        <time>2023-06-21T12:27:45Z</time>
      </trkpt>
      <trkpt lat="49.76316" lon="2.14422">
        <ele>99.6</ele>
        <time>2023-06-21T12:27:46Z</time>
      </trkpt>
      <trkpt lat="49.76316" lon="2.14421">
        <ele>99.6</ele>
        <time>2023-06-21T12:27:47Z</time>
      </trkpt>
      <trkpt lat="49.76315" lon="2.14419">
        <ele>99.7</ele>
        <time>2023-06-21T12:27:49Z</time>
      </trkpt>
      <trkpt lat="49.76314" lon="2.14418">
        <ele>99.7</ele>
        <time>2023-06-21T12:27:50Z</time>
      </trkpt>
      <trkpt lat="49.76314" lon="2.14416">
        <ele>99.8</ele>
        <time>2023-06-21T12:27:51Z</time>
      </trkpt>
      <trkpt lat="49.76313" lon="2.14415">
        <ele>99.8</ele>
        <time>2023-06-21T12:27:52Z</time>
      </trkpt>
      <trkpt lat="49.76312" lon="2.14412">
        <ele>99.9</ele>
        <time>2023-06-21T12:27:54Z</time>
      </trkpt>
      <trkpt lat="49.76312" lon="2.14411">
        <ele>99.9</ele>
        <time>2023-06-21T12:27:55Z</time>
      </trkpt>
      <trkpt lat="49.76311" lon="2.14409">
        <ele>100</ele>
        <time>2023-06-21T12:27:56Z</time>
      </trkpt>
      <trkpt lat="49.76311" lon="2.14408">
        <ele>100</ele>
        <time>2023-06-21T12:27:57Z</time>
      </trkpt>
      <trkpt lat="49.76309" lon="2.14405">
        <ele>100.1</ele>
        <time>2023-06-21T12:27:59Z</time>
      </trkpt>
      <trkpt lat="49.76309" lon="2.14404">
        <ele>100.1</ele>
        <time>2023-06-21T12:28:00Z</time>
      </trkpt>
      <trkpt lat="49.76309" lon="2.14403">
        <ele>100.1</ele>
        <time>2023-06-21T12:28:01Z</time>
      </trkpt>
      <trkpt lat="49.76308" lon="2.14401">
        <ele>100.2</ele>
        <time>2023-06-21T12:28:02Z</time>
      </trkpt>
      <trkpt lat="49.76307" lon="2.14398">
        <ele>100.3</ele>
        <time>2023-06-21T12:28:04Z</time>
      </trkpt>
      <trkpt lat="49.76307" lon="2.14396">
        <ele>100.3</ele>
        <time>2023-06-21T12:28:05Z</time>
      </trkpt>
      <trkpt lat="49.76306" lon="2.14395">
        <ele>100.4</ele>
        <time>2023-06-21T12:28:06Z</time>
      </trkpt>
      <trkpt lat="49.76305" lon="2.14391">
        <ele>100.5</ele>
        <time>2023-06-21T12:28:07Z</time>
      </trkpt>
      <trkpt lat="49.76305" lon="2.1439">
        <ele>100.5</ele>
        <time>2023-06-21T12:28:09Z</time>
      </trkpt>
      <trkpt lat="49.76304" lon="2.14388">
        <ele>100.6</ele>
        <time>2023-06-21T12:28:10Z</time>
      </trkpt>
      <trkpt lat="49.76304" lon="2.14387">
        <ele>100.6</ele>
        <time>2023-06-21T12:28:11Z</time>
      </trkpt>
      <trkpt lat="49.76303" lon="2.14385">
        <ele>100.6</ele>
        <time>2023-06-21T12:28:12Z</time>
      </trkpt>
      <trkpt lat="49.76303" lon="2.14383">
        <ele>100.7</ele>
        <time>2023-06-21T12:28:13Z</time>
      </trkpt>
      <trkpt lat="49.76302" lon="2.14381">
        <ele>100.7</ele>
        <time>2023-06-21T12:28:15Z</time>
      </trkpt>
      <trkpt lat="49.76302" lon="2.1438">
        <ele>100.8</ele>
        <time>2023-06-21T12:28:16Z</time>
      </trkpt>
      <trkpt lat="49.76302" lon="2.14378">
        <ele>100.8</ele>
        <time>2023-06-21T12:28:17Z</time>
      </trkpt>
      <trkpt lat="49.76301" lon="2.14377">
        <ele>100.9</ele>
        <time>2023-06-21T12:28:18Z</time>
      </trkpt>
      <trkpt lat="49.76301" lon="2.14375">
        <ele>100.9</ele>
        <time>2023-06-21T12:28:20Z</time>
      </trkpt>
      <trkpt lat="49.763" lon="2.14374">
        <ele>100.9</ele>
        <time>2023-06-21T12:28:21Z</time>
      </trkpt>
      <trkpt lat="49.763" lon="2.14373">
        <ele>101</ele>
        <time>2023-06-21T12:28:22Z</time>
      </trkpt>
      <trkpt lat="49.76299" lon="2.14371">
        <ele>101</ele>
        <time>2023-06-21T12:28:24Z</time>
      </trkpt>
      <trkpt lat="49.76299" lon="2.14369">
        <ele>101.1</ele>
        <time>2023-06-21T12:28:25Z</time>
      </trkpt>
      <trkpt lat="49.76298" lon="2.14368">
        <ele>101.1</ele>
        <time>2023-06-21T12:28:26Z</time>
      </trkpt>
      <trkpt lat="49.76297" lon="2.14367">
        <ele>101.1</ele>
        <time>2023-06-21T12:28:27Z</time>
      </trkpt>
      <trkpt lat="49.76297" lon="2.14365">
        <ele>101.2</ele>
        <time>2023-06-21T12:28:28Z</time>
      </trkpt>
      <trkpt lat="49.76296" lon="2.14363">
        <ele>101.3</ele>
        <time>2023-06-21T12:28:30Z</time>
      </trkpt>
      <trkpt lat="49.76295" lon="2.14361">
        <ele>101.3</ele>
        <time>2023-06-21T12:28:31Z</time>
      </trkpt>
      <trkpt lat="49.76294" lon="2.14359">
        <ele>101.4</ele>
        <time>2023-06-21T12:28:32Z</time>
      </trkpt>
      <trkpt lat="49.76294" lon="2.14358">
        <ele>101.4</ele>
        <time>2023-06-21T12:28:33Z</time>
      </trkpt>
      <trkpt lat="49.76293" lon="2.14355">
        <ele>101.5</ele>
        <time>2023-06-21T12:28:35Z</time>
      </trkpt>
      <trkpt lat="49.76293" lon="2.14354">
        <ele>101.5</ele>
        <time>2023-06-21T12:28:36Z</time>
      </trkpt>
      <trkpt lat="49.76292" lon="2.14353">
        <ele>101.6</ele>
        <time>2023-06-21T12:28:37Z</time>
      </trkpt>
      <trkpt lat="49.76292" lon="2.14351">
        <ele>101.6</ele>
        <time>2023-06-21T12:28:38Z</time>
      </trkpt>
      <trkpt lat="49.76292" lon="2.14348">
        <ele>101.7</ele>
        <time>2023-06-21T12:28:39Z</time>
      </trkpt>
      <trkpt lat="49.76291" lon="2.14345">
        <ele>101.8</ele>
        <time>2023-06-21T12:28:41Z</time>
      </trkpt>
      <trkpt lat="49.76291" lon="2.14343">
        <ele>101.8</ele>
        <time>2023-06-21T12:28:42Z</time>
      </trkpt>
      <trkpt lat="49.76291" lon="2.14342">
        <ele>101.8</ele>
        <time>2023-06-21T12:28:43Z</time>
      </trkpt>
      <trkpt lat="49.7629" lon="2.14341">
        <ele>101.9</ele>
        <time>2023-06-21T12:28:44Z</time>
      </trkpt>
      <trkpt lat="49.76289" lon="2.14339">
        <ele>101.9</ele>
        <time>2023-06-21T12:28:46Z</time>
      </trkpt>
      <trkpt lat="49.76289" lon="2.14337">
        <ele>102</ele>
        <time>2023-06-21T12:28:47Z</time>
      </trkpt>
      <trkpt lat="49.76288" lon="2.14336">
        <ele>102</ele>
        <time>2023-06-21T12:28:48Z</time>
      </trkpt>
      <trkpt lat="49.76288" lon="2.14334">
        <ele>102.1</ele>
        <time>2023-06-21T12:28:50Z</time>
      </trkpt>
      <trkpt lat="49.76287" lon="2.14333">
        <ele>102.1</ele>
        <time>2023-06-21T12:28:51Z</time>
      </trkpt>
      <trkpt lat="49.76287" lon="2.14333">
        <ele>102.1</ele>
        <time>2023-06-21T12:28:52Z</time>
      </trkpt>
      <trkpt lat="49.76286" lon="2.14332">
        <ele>102.2</ele>
        <time>2023-06-21T12:28:53Z</time>
      </trkpt>
      <trkpt lat="49.76285" lon="2.1433">
        <ele>102.2</ele>
        <time>2023-06-21T12:28:54Z</time>
      </trkpt>
      <trkpt lat="49.76285" lon="2.14329">
        <ele>102.2</ele>
        <time>2023-06-21T12:28:55Z</time>
      </trkpt>
      <trkpt lat="49.76284" lon="2.14326">
        <ele>102.3</ele>
        <time>2023-06-21T12:28:57Z</time>
      </trkpt>
      <trkpt lat="49.76283" lon="2.14325">
        <ele>102.4</ele>
        <time>2023-06-21T12:28:59Z</time>
      </trkpt>
      <trkpt lat="49.76283" lon="2.14323">
        <ele>102.4</ele>
        <time>2023-06-21T12:29:00Z</time>
      </trkpt>
      <trkpt lat="49.76282" lon="2.14322">
        <ele>102.4</ele>
        <time>2023-06-21T12:29:01Z</time>
      </trkpt>
      <trkpt lat="49.76282" lon="2.14321">
        <ele>102.5</ele>
        <time>2023-06-21T12:29:02Z</time>
      </trkpt>
      <trkpt lat="49.76281" lon="2.14319">
        <ele>102.5</ele>
        <time>2023-06-21T12:29:04Z</time>
      </trkpt>
      <trkpt lat="49.76281" lon="2.14318">
        <ele>102.5</ele>
        <time>2023-06-21T12:29:05Z</time>
      </trkpt>
      <trkpt lat="49.7628" lon="2.14317">
        <ele>102.6</ele>
        <time>2023-06-21T12:29:06Z</time>
      </trkpt>
      <trkpt lat="49.7628" lon="2.14315">
        <ele>102.6</ele>
        <time>2023-06-21T12:29:08Z</time>
      </trkpt>
      <trkpt lat="49.76279" lon="2.14314">
        <ele>102.7</ele>
        <time>2023-06-21T12:29:09Z</time>
      </trkpt>
      <trkpt lat="49.76279" lon="2.14313">
        <ele>102.7</ele>
        <time>2023-06-21T12:29:10Z</time>
      </trkpt>
      <trkpt lat="49.76278" lon="2.14312">
        <ele>102.7</ele>
        <time>2023-06-21T12:29:11Z</time>
      </trkpt>
      <trkpt lat="49.76278" lon="2.14311">
        <ele>102.8</ele>
        <time>2023-06-21T12:29:12Z</time>
      </trkpt>
      <trkpt lat="49.76277" lon="2.14308">
        <ele>102.9</ele>
        <time>2023-06-21T12:29:13Z</time>
      </trkpt>
      <trkpt lat="49.76276" lon="2.14306">
        <ele>102.9</ele>
        <time>2023-06-21T12:29:15Z</time>
      </trkpt>
      <trkpt lat="49.76276" lon="2.14305">
        <ele>102.9</ele>
        <time>2023-06-21T12:29:16Z</time>
      </trkpt>
      <trkpt lat="49.76275" lon="2.14304">
        <ele>103</ele>
        <time>2023-06-21T12:29:17Z</time>
      </trkpt>
      <trkpt lat="49.76275" lon="2.14302">
        <ele>103</ele>
        <time>2023-06-21T12:29:18Z</time>
      </trkpt>
      <trkpt lat="49.76274" lon="2.143">
        <ele>103.1</ele>
        <time>2023-06-21T12:29:19Z</time>
      </trkpt>
      <trkpt lat="49.76273" lon="2.14298">
        <ele>103.1</ele>
        <time>2023-06-21T12:29:21Z</time>
      </trkpt>
      <trkpt lat="49.76273" lon="2.14297">
        <ele>103.2</ele>
        <time>2023-06-21T12:29:23Z</time>
      </trkpt>
      <trkpt lat="49.76273" lon="2.14295">
        <ele>103.2</ele>
        <time>2023-06-21T12:29:24Z</time>
      </trkpt>
      <trkpt lat="49.76272" lon="2.14294">
        <ele>103.2</ele>
        <time>2023-06-21T12:29:25Z</time>
      </trkpt>
      <trkpt lat="49.76272" lon="2.14292">
        <ele>103.3</ele>
        <time>2023-06-21T12:29:26Z</time>
      </trkpt>
      <trkpt lat="49.76271" lon="2.1429">
        <ele>103.3</ele>
        <time>2023-06-21T12:29:28Z</time>
      </trkpt>
      <trkpt lat="49.76271" lon="2.14289">
        <ele>103.4</ele>
        <time>2023-06-21T12:29:29Z</time>
      </trkpt>
      <trkpt lat="49.76271" lon="2.14287">
        <ele>103.4</ele>
        <time>2023-06-21T12:29:30Z</time>
      </trkpt>
      <trkpt lat="49.7627" lon="2.14286">
        <ele>103.5</ele>
        <time>2023-06-21T12:29:31Z</time>
      </trkpt>
      <trkpt lat="49.7627" lon="2.14284">
        <ele>103.5</ele>
        <time>2023-06-21T12:29:33Z</time>
      </trkpt>
      <trkpt lat="49.76269" lon="2.14283">
        <ele>103.6</ele>
        <time>2023-06-21T12:29:34Z</time>
      </trkpt>
      <trkpt lat="49.76269" lon="2.14281">
        <ele>103.6</ele>
        <time>2023-06-21T12:29:35Z</time>
      </trkpt>
      <trkpt lat="49.76268" lon="2.1428">
        <ele>103.6</ele>
        <time>2023-06-21T12:29:36Z</time>
      </trkpt>
      <trkpt lat="49.76268" lon="2.14279">
        <ele>103.7</ele>
        <time>2023-06-21T12:29:37Z</time>
      </trkpt>
      <trkpt lat="49.76267" lon="2.14276">
        <ele>103.7</ele>
        <time>2023-06-21T12:29:38Z</time>
      </trkpt>
      <trkpt lat="49.76267" lon="2.14274">
        <ele>103.8</ele>
        <time>2023-06-21T12:29:39Z</time>
      </trkpt>
      <trkpt lat="49.76267" lon="2.14273">
        <ele>103.8</ele>
        <time>2023-06-21T12:29:40Z</time>
      </trkpt>
      <trkpt lat="49.76266" lon="2.14272">
        <ele>103.9</ele>
        <time>2023-06-21T12:29:42Z</time>
      </trkpt>
      <trkpt lat="49.76266" lon="2.1427">
        <ele>103.9</ele>
        <time>2023-06-21T12:29:43Z</time>
      </trkpt>
      <trkpt lat="49.76266" lon="2.14269">
        <ele>103.9</ele>
        <time>2023-06-21T12:29:44Z</time>
      </trkpt>
      <trkpt lat="49.76265" lon="2.14267">
        <ele>104</ele>
        <time>2023-06-21T12:29:45Z</time>
      </trkpt>
      <trkpt lat="49.76265" lon="2.14266">
        <ele>104</ele>
        <time>2023-06-21T12:29:46Z</time>
      </trkpt>
      <trkpt lat="49.76264" lon="2.14264">
        <ele>104.1</ele>
        <time>2023-06-21T12:29:47Z</time>
      </trkpt>
      <trkpt lat="49.76264" lon="2.14263">
        <ele>104.1</ele>
        <time>2023-06-21T12:29:49Z</time>
      </trkpt>
      <trkpt lat="49.76263" lon="2.14262">
        <ele>104.1</ele>
        <time>2023-06-21T12:29:50Z</time>
      </trkpt>
      <trkpt lat="49.76263" lon="2.1426">
        <ele>104.2</ele>
        <time>2023-06-21T12:29:51Z</time>
      </trkpt>
      <trkpt lat="49.76263" lon="2.14259">
        <ele>104.2</ele>
        <time>2023-06-21T12:29:52Z</time>
      </trkpt>
      <trkpt lat="49.76262" lon="2.14257">
        <ele>104.3</ele>
        <time>2023-06-21T12:29:53Z</time>
      </trkpt>
      <trkpt lat="49.76261" lon="2.14255">
        <ele>104.3</ele>
        <time>2023-06-21T12:29:54Z</time>
      </trkpt>
      <trkpt lat="49.7626" lon="2.14252">
        <ele>104.4</ele>
        <time>2023-06-21T12:29:55Z</time>
      </trkpt>
      <trkpt lat="49.7626" lon="2.14251">
        <ele>104.4</ele>
        <time>2023-06-21T12:29:57Z</time>
      </trkpt>
      <trkpt lat="49.7626" lon="2.1425">
        <ele>104.5</ele>
        <time>2023-06-21T12:29:58Z</time>
      </trkpt>
      <trkpt lat="49.76259" lon="2.14248">
        <ele>104.5</ele>
        <time>2023-06-21T12:29:59Z</time>
      </trkpt>
      <trkpt lat="49.76259" lon="2.14247">
        <ele>104.5</ele>
        <time>2023-06-21T12:30:00Z</time>
      </trkpt>
      <trkpt lat="49.76258" lon="2.14245">
        <ele>104.6</ele>
        <time>2023-06-21T12:30:01Z</time>
      </trkpt>
      <trkpt lat="49.76257" lon="2.14243">
        <ele>104.7</ele>
        <time>2023-06-21T12:30:03Z</time>
      </trkpt>
      <trkpt lat="49.76256" lon="2.14241">
        <ele>104.7</ele>
        <time>2023-06-21T12:30:05Z</time>
      </trkpt>
      <trkpt lat="49.76256" lon="2.1424">
        <ele>104.7</ele>
        <time>2023-06-21T12:30:06Z</time>
      </trkpt>
      <trkpt lat="49.76255" lon="2.14239">
        <ele>104.8</ele>
        <time>2023-06-21T12:30:07Z</time>
      </trkpt>
      <trkpt lat="49.76255" lon="2.14238">
        <ele>104.8</ele>
        <time>2023-06-21T12:30:08Z</time>
      </trkpt>
      <trkpt lat="49.76254" lon="2.14236">
        <ele>104.9</ele>
        <time>2023-06-21T12:30:09Z</time>
      </trkpt>
      <trkpt lat="49.76253" lon="2.14234">
        <ele>104.9</ele>
        <time>2023-06-21T12:30:11Z</time>
      </trkpt>
      <trkpt lat="49.76253" lon="2.14233">
        <ele>105</ele>
        <time>2023-06-21T12:30:12Z</time>
      </trkpt>
      <trkpt lat="49.76253" lon="2.14231">
        <ele>105</ele>
        <time>2023-06-21T12:30:14Z</time>
      </trkpt>
      <trkpt lat="49.76252" lon="2.1423">
        <ele>105</ele>
        <time>2023-06-21T12:30:15Z</time>
      </trkpt>
      <trkpt lat="49.76252" lon="2.14228">
        <ele>105.1</ele>
        <time>2023-06-21T12:30:16Z</time>
      </trkpt>
      <trkpt lat="49.76252" lon="2.14227">
        <ele>105.1</ele>
        <time>2023-06-21T12:30:17Z</time>
      </trkpt>
      <trkpt lat="49.76251" lon="2.14225">
        <ele>105.2</ele>
        <time>2023-06-21T12:30:18Z</time>
      </trkpt>
      <trkpt lat="49.76251" lon="2.14224">
        <ele>105.2</ele>
        <time>2023-06-21T12:30:19Z</time>
      </trkpt>
      <trkpt lat="49.7625" lon="2.14222">
        <ele>105.2</ele>
        <time>2023-06-21T12:30:20Z</time>
      </trkpt>
      <trkpt lat="49.7625" lon="2.14221">
        <ele>105.3</ele>
        <time>2023-06-21T12:30:21Z</time>
      </trkpt>
      <trkpt lat="49.76249" lon="2.14219">
        <ele>105.3</ele>
        <time>2023-06-21T12:30:23Z</time>
      </trkpt>
      <trkpt lat="49.76249" lon="2.14217">
        <ele>105.4</ele>
        <time>2023-06-21T12:30:24Z</time>
      </trkpt>
      <trkpt lat="49.76248" lon="2.14216">
        <ele>105.4</ele>
        <time>2023-06-21T12:30:25Z</time>
      </trkpt>
      <trkpt lat="49.76248" lon="2.14215">
        <ele>105.5</ele>
        <time>2023-06-21T12:30:26Z</time>
      </trkpt>
      <trkpt lat="49.76248" lon="2.14214">
        <ele>105.5</ele>
        <time>2023-06-21T12:30:27Z</time>
      </trkpt>
      <trkpt lat="49.76247" lon="2.14212">
        <ele>105.6</ele>
        <time>2023-06-21T12:30:29Z</time>
      </trkpt>
      <trkpt lat="49.76246" lon="2.14211">
        <ele>105.6</ele>
        <time>2023-06-21T12:30:30Z</time>
      </trkpt>
      <trkpt lat="49.76246" lon="2.14209">
        <ele>105.6</ele>
        <time>2023-06-21T12:30:31Z</time>
      </trkpt>
      <trkpt lat="49.76245" lon="2.14208">
        <ele>105.7</ele>
        <time>2023-06-21T12:30:32Z</time>
      </trkpt>
      <trkpt lat="49.76245" lon="2.14207">
        <ele>105.7</ele>
        <time>2023-06-21T12:30:33Z</time>
      </trkpt>
      <trkpt lat="49.76244" lon="2.14205">
        <ele>105.7</ele>
        <time>2023-06-21T12:30:35Z</time>
      </trkpt>
      <trkpt lat="49.76244" lon="2.14203">
        <ele>105.8</ele>
        <time>2023-06-21T12:30:36Z</time>
      </trkpt>
      <trkpt lat="49.76244" lon="2.14202">
        <ele>105.8</ele>
        <time>2023-06-21T12:30:37Z</time>
      </trkpt>
      <trkpt lat="49.76243" lon="2.142">
        <ele>105.9</ele>
        <time>2023-06-21T12:30:38Z</time>
      </trkpt>
      <trkpt lat="49.76243" lon="2.14199">
        <ele>105.9</ele>
        <time>2023-06-21T12:30:39Z</time>
      </trkpt>
      <trkpt lat="49.76242" lon="2.14198">
        <ele>105.9</ele>
        <time>2023-06-21T12:30:41Z</time>
      </trkpt>
      <trkpt lat="49.76242" lon="2.14196">
        <ele>106</ele>
        <time>2023-06-21T12:30:42Z</time>
      </trkpt>
      <trkpt lat="49.76241" lon="2.14195">
        <ele>106</ele>
        <time>2023-06-21T12:30:43Z</time>
      </trkpt>
      <trkpt lat="49.7624" lon="2.14193">
        <ele>106.1</ele>
        <time>2023-06-21T12:30:45Z</time>
      </trkpt>
      <trkpt lat="49.7624" lon="2.14192">
        <ele>106.1</ele>
        <time>2023-06-21T12:30:46Z</time>
      </trkpt>
      <trkpt lat="49.7624" lon="2.14191">
        <ele>106.1</ele>
        <time>2023-06-21T12:30:47Z</time>
      </trkpt>
      <trkpt lat="49.76239" lon="2.1419">
        <ele>106.2</ele>
        <time>2023-06-21T12:30:48Z</time>
      </trkpt>
      <trkpt lat="49.76239" lon="2.14188">
        <ele>106.2</ele>
        <time>2023-06-21T12:30:49Z</time>
      </trkpt>
      <trkpt lat="49.76238" lon="2.14187">
        <ele>106.3</ele>
        <time>2023-06-21T12:30:51Z</time>
      </trkpt>
      <trkpt lat="49.76237" lon="2.14186">
        <ele>106.3</ele>
        <time>2023-06-21T12:30:52Z</time>
      </trkpt>
      <trkpt lat="49.76237" lon="2.14184">
        <ele>106.3</ele>
        <time>2023-06-21T12:30:53Z</time>
      </trkpt>
      <trkpt lat="49.76236" lon="2.14183">
        <ele>106.4</ele>
        <time>2023-06-21T12:30:54Z</time>
      </trkpt>
      <trkpt lat="49.76236" lon="2.14182">
        <ele>106.4</ele>
        <time>2023-06-21T12:30:55Z</time>
      </trkpt>
      <trkpt lat="49.76235" lon="2.1418">
        <ele>106.5</ele>
        <time>2023-06-21T12:30:56Z</time>
      </trkpt>
      <trkpt lat="49.76235" lon="2.14179">
        <ele>106.5</ele>
        <time>2023-06-21T12:30:57Z</time>
      </trkpt>
      <trkpt lat="49.76234" lon="2.14177">
        <ele>106.6</ele>
        <time>2023-06-21T12:30:58Z</time>
      </trkpt>
      <trkpt lat="49.76233" lon="2.14175">
        <ele>106.6</ele>
        <time>2023-06-21T12:31:00Z</time>
      </trkpt>
      <trkpt lat="49.76233" lon="2.14173">
        <ele>106.7</ele>
        <time>2023-06-21T12:31:01Z</time>
      </trkpt>
      <trkpt lat="49.76232" lon="2.14172">
        <ele>106.7</ele>
        <time>2023-06-21T12:31:02Z</time>
      </trkpt>
      <trkpt lat="49.76232" lon="2.14171">
        <ele>106.7</ele>
        <time>2023-06-21T12:31:03Z</time>
      </trkpt>
      <trkpt lat="49.76231" lon="2.14169">
        <ele>106.8</ele>
        <time>2023-06-21T12:31:04Z</time>
      </trkpt>
      <trkpt lat="49.76231" lon="2.14167">
        <ele>106.8</ele>
        <time>2023-06-21T12:31:05Z</time>
      </trkpt>
      <trkpt lat="49.7623" lon="2.14166">
        <ele>106.9</ele>
        <time>2023-06-21T12:31:07Z</time>
      </trkpt>
      <trkpt lat="49.76229" lon="2.14163">
        <ele>107</ele>
        <time>2023-06-21T12:31:08Z</time>
      </trkpt>
      <trkpt lat="49.76228" lon="2.14162">
        <ele>107</ele>
        <time>2023-06-21T12:31:09Z</time>
      </trkpt>
      <trkpt lat="49.76228" lon="2.14161">
        <ele>107</ele>
        <time>2023-06-21T12:31:10Z</time>
      </trkpt>
      <trkpt lat="49.76227" lon="2.14159">
        <ele>107.1</ele>
        <time>2023-06-21T12:31:12Z</time>
      </trkpt>
      <trkpt lat="49.76227" lon="2.14157">
        <ele>107.1</ele>
        <time>2023-06-21T12:31:13Z</time>
      </trkpt>
      <trkpt lat="49.76226" lon="2.14154">
        <ele>107.2</ele>
        <time>2023-06-21T12:31:14Z</time>
      </trkpt>
      <trkpt lat="49.76225" lon="2.14152">
        <ele>107.3</ele>
        <time>2023-06-21T12:31:15Z</time>
      </trkpt>
      <trkpt lat="49.76225" lon="2.14151">
        <ele>107.3</ele>
        <time>2023-06-21T12:31:16Z</time>
      </trkpt>
      <trkpt lat="49.76224" lon="2.14149">
        <ele>107.4</ele>
        <time>2023-06-21T12:31:17Z</time>
      </trkpt>
      <trkpt lat="49.76224" lon="2.14147">
        <ele>107.4</ele>
        <time>2023-06-21T12:31:19Z</time>
      </trkpt>
      <trkpt lat="49.76223" lon="2.14145">
        <ele>107.5</ele>
        <time>2023-06-21T12:31:20Z</time>
      </trkpt>
      <trkpt lat="49.76223" lon="2.14144">
        <ele>107.5</ele>
        <time>2023-06-21T12:31:21Z</time>
      </trkpt>
      <trkpt lat="49.76223" lon="2.14143">
        <ele>107.5</ele>
        <time>2023-06-21T12:31:22Z</time>
      </trkpt>
      <trkpt lat="49.76222" lon="2.14141">
        <ele>107.6</ele>
        <time>2023-06-21T12:31:23Z</time>
      </trkpt>
      <trkpt lat="49.76222" lon="2.1414">
        <ele>107.6</ele>
        <time>2023-06-21T12:31:24Z</time>
      </trkpt>
      <trkpt lat="49.76221" lon="2.14139">
        <ele>107.6</ele>
        <time>2023-06-21T12:31:26Z</time>
      </trkpt>
      <trkpt lat="49.76221" lon="2.14138">
        <ele>107.7</ele>
        <time>2023-06-21T12:31:27Z</time>
      </trkpt>
      <trkpt lat="49.7622" lon="2.14136">
        <ele>107.7</ele>
        <time>2023-06-21T12:31:28Z</time>
      </trkpt>
      <trkpt lat="49.7622" lon="2.14135">
        <ele>107.8</ele>
        <time>2023-06-21T12:31:29Z</time>
      </trkpt>
      <trkpt lat="49.76219" lon="2.14133">
        <ele>107.8</ele>
        <time>2023-06-21T12:31:30Z</time>
      </trkpt>
      <trkpt lat="49.76219" lon="2.14132">
        <ele>107.8</ele>
        <time>2023-06-21T12:31:31Z</time>
      </trkpt>
      <trkpt lat="49.76218" lon="2.14131">
        <ele>107.9</ele>
        <time>2023-06-21T12:31:33Z</time>
      </trkpt>
      <trkpt lat="49.76218" lon="2.1413">
        <ele>107.9</ele>
        <time>2023-06-21T12:31:34Z</time>
      </trkpt>
      <trkpt lat="49.76217" lon="2.14129">
        <ele>107.9</ele>
        <time>2023-06-21T12:31:35Z</time>
      </trkpt>
      <trkpt lat="49.76217" lon="2.14127">
        <ele>108</ele>
        <time>2023-06-21T12:31:36Z</time>
      </trkpt>
      <trkpt lat="49.76216" lon="2.14126">
        <ele>108</ele>
        <time>2023-06-21T12:31:37Z</time>
      </trkpt>
      <trkpt lat="49.76216" lon="2.14124">
        <ele>108.1</ele>
        <time>2023-06-21T12:31:38Z</time>
      </trkpt>
      <trkpt lat="49.76215" lon="2.14123">
        <ele>108.1</ele>
        <time>2023-06-21T12:31:39Z</time>
      </trkpt>
      <trkpt lat="49.76215" lon="2.14121">
        <ele>108.2</ele>
        <time>2023-06-21T12:31:40Z</time>
      </trkpt>
      <trkpt lat="49.76214" lon="2.1412">
        <ele>108.2</ele>
        <time>2023-06-21T12:31:42Z</time>
      </trkpt>
      <trkpt lat="49.76213" lon="2.14118">
        <ele>108.2</ele>
        <time>2023-06-21T12:31:43Z</time>
      </trkpt>
      <trkpt lat="49.76213" lon="2.14117">
        <ele>108.3</ele>
        <time>2023-06-21T12:31:44Z</time>
      </trkpt>
      <trkpt lat="49.76212" lon="2.14114">
        <ele>108.4</ele>
        <time>2023-06-21T12:31:45Z</time>
      </trkpt>
      <trkpt lat="49.76212" lon="2.14112">
        <ele>108.4</ele>
        <time>2023-06-21T12:31:46Z</time>
      </trkpt>
      <trkpt lat="49.76211" lon="2.14111">
        <ele>108.4</ele>
        <time>2023-06-21T12:31:47Z</time>
      </trkpt>
      <trkpt lat="49.76211" lon="2.1411">
        <ele>108.5</ele>
        <time>2023-06-21T12:31:48Z</time>
      </trkpt>
      <trkpt lat="49.7621" lon="2.14108">
        <ele>108.5</ele>
        <time>2023-06-21T12:31:50Z</time>
      </trkpt>
      <trkpt lat="49.7621" lon="2.14107">
        <ele>108.6</ele>
        <time>2023-06-21T12:31:51Z</time>
      </trkpt>
      <trkpt lat="49.76209" lon="2.14105">
        <ele>108.6</ele>
        <time>2023-06-21T12:31:52Z</time>
      </trkpt>
      <trkpt lat="49.76209" lon="2.14104">
        <ele>108.7</ele>
        <time>2023-06-21T12:31:53Z</time>
      </trkpt>
      <trkpt lat="49.76208" lon="2.14102">
        <ele>108.7</ele>
        <time>2023-06-21T12:31:54Z</time>
      </trkpt>
      <trkpt lat="49.76207" lon="2.14101">
        <ele>108.7</ele>
        <time>2023-06-21T12:31:56Z</time>
      </trkpt>
      <trkpt lat="49.76207" lon="2.14099">
        <ele>108.8</ele>
        <time>2023-06-21T12:31:57Z</time>
      </trkpt>
      <trkpt lat="49.76206" lon="2.14098">
        <ele>108.8</ele>
        <time>2023-06-21T12:31:58Z</time>
      </trkpt>
      <trkpt lat="49.76206" lon="2.14096">
        <ele>108.9</ele>
        <time>2023-06-21T12:31:59Z</time>
      </trkpt>
      <trkpt lat="49.76205" lon="2.14095">
        <ele>108.9</ele>
        <time>2023-06-21T12:32:00Z</time>
      </trkpt>
      <trkpt lat="49.76205" lon="2.14093">
        <ele>109</ele>
        <time>2023-06-21T12:32:01Z</time>
      </trkpt>
      <trkpt lat="49.76204" lon="2.14092">
        <ele>109</ele>
        <time>2023-06-21T12:32:02Z</time>
      </trkpt>
      <trkpt lat="49.76203" lon="2.14089">
        <ele>109.1</ele>
        <time>2023-06-21T12:32:03Z</time>
      </trkpt>
      <trkpt lat="49.76203" lon="2.14088">
        <ele>109.1</ele>
        <time>2023-06-21T12:32:05Z</time>
      </trkpt>
      <trkpt lat="49.76202" lon="2.14085">
        <ele>109.2</ele>
        <time>2023-06-21T12:32:06Z</time>
      </trkpt>
      <trkpt lat="49.76201" lon="2.14083">
        <ele>109.2</ele>
        <time>2023-06-21T12:32:08Z</time>
      </trkpt>
      <trkpt lat="49.76201" lon="2.14081">
        <ele>109.3</ele>
        <time>2023-06-21T12:32:09Z</time>
      </trkpt>
      <trkpt lat="49.762" lon="2.1408">
        <ele>109.3</ele>
        <time>2023-06-21T12:32:10Z</time>
      </trkpt>
      <trkpt lat="49.762" lon="2.14078">
        <ele>109.4</ele>
        <time>2023-06-21T12:32:11Z</time>
      </trkpt>
      <trkpt lat="49.76199" lon="2.14076">
        <ele>109.4</ele>
        <time>2023-06-21T12:32:12Z</time>
      </trkpt>
      <trkpt lat="49.76199" lon="2.14075">
        <ele>109.5</ele>
        <time>2023-06-21T12:32:13Z</time>
      </trkpt>
      <trkpt lat="49.76198" lon="2.14074">
        <ele>109.5</ele>
        <time>2023-06-21T12:32:15Z</time>
      </trkpt>
      <trkpt lat="49.76198" lon="2.14072">
        <ele>109.6</ele>
        <time>2023-06-21T12:32:16Z</time>
      </trkpt>
      <trkpt lat="49.76198" lon="2.14071">
        <ele>109.6</ele>
        <time>2023-06-21T12:32:17Z</time>
      </trkpt>
      <trkpt lat="49.76197" lon="2.14069">
        <ele>109.6</ele>
        <time>2023-06-21T12:32:18Z</time>
      </trkpt>
      <trkpt lat="49.76196" lon="2.14066">
        <ele>109.7</ele>
        <time>2023-06-21T12:32:19Z</time>
      </trkpt>
      <trkpt lat="49.76196" lon="2.14065">
        <ele>109.7</ele>
        <time>2023-06-21T12:32:20Z</time>
      </trkpt>
      <trkpt lat="49.76196" lon="2.14064">
        <ele>109.8</ele>
        <time>2023-06-21T12:32:21Z</time>
      </trkpt>
      <trkpt lat="49.76195" lon="2.14061">
        <ele>109.9</ele>
        <time>2023-06-21T12:32:23Z</time>
      </trkpt>
      <trkpt lat="49.76194" lon="2.1406">
        <ele>109.9</ele>
        <time>2023-06-21T12:32:24Z</time>
      </trkpt>
      <trkpt lat="49.76194" lon="2.14059">
        <ele>109.9</ele>
        <time>2023-06-21T12:32:25Z</time>
      </trkpt>
      <trkpt lat="49.76194" lon="2.14057">
        <ele>110</ele>
        <time>2023-06-21T12:32:26Z</time>
      </trkpt>
      <trkpt lat="49.76193" lon="2.14056">
        <ele>110</ele>
        <time>2023-06-21T12:32:27Z</time>
      </trkpt>
      <trkpt lat="49.76192" lon="2.14054">
        <ele>110.1</ele>
        <time>2023-06-21T12:32:28Z</time>
      </trkpt>
      <trkpt lat="49.76192" lon="2.14052">
        <ele>110.1</ele>
        <time>2023-06-21T12:32:30Z</time>
      </trkpt>
      <trkpt lat="49.76191" lon="2.14051">
        <ele>110.1</ele>
        <time>2023-06-21T12:32:31Z</time>
      </trkpt>
      <trkpt lat="49.76191" lon="2.1405">
        <ele>110.2</ele>
        <time>2023-06-21T12:32:32Z</time>
      </trkpt>
      <trkpt lat="49.7619" lon="2.14047">
        <ele>110.3</ele>
        <time>2023-06-21T12:32:33Z</time>
      </trkpt>
      <trkpt lat="49.76189" lon="2.14046">
        <ele>110.3</ele>
        <time>2023-06-21T12:32:35Z</time>
      </trkpt>
      <trkpt lat="49.76189" lon="2.14045">
        <ele>110.3</ele>
        <time>2023-06-21T12:32:36Z</time>
      </trkpt>
      <trkpt lat="49.76188" lon="2.14044">
        <ele>110.4</ele>
        <time>2023-06-21T12:32:37Z</time>
      </trkpt>
      <trkpt lat="49.76188" lon="2.14043">
        <ele>110.4</ele>
        <time>2023-06-21T12:32:38Z</time>
      </trkpt>
      <trkpt lat="49.76187" lon="2.14042">
        <ele>110.4</ele>
        <time>2023-06-21T12:32:39Z</time>
      </trkpt>
      <trkpt lat="49.76186" lon="2.1404">
        <ele>110.5</ele>
        <time>2023-06-21T12:32:40Z</time>
      </trkpt>
      <trkpt lat="49.76186" lon="2.14039">
        <ele>110.5</ele>
        <time>2023-06-21T12:32:41Z</time>
      </trkpt>
      <trkpt lat="49.76185" lon="2.14037">
        <ele>110.6</ele>
        <time>2023-06-21T12:32:43Z</time>
      </trkpt>
      <trkpt lat="49.76184" lon="2.14035">
        <ele>110.6</ele>
        <time>2023-06-21T12:32:44Z</time>
      </trkpt>
      <trkpt lat="49.76184" lon="2.14034">
        <ele>110.7</ele>
        <time>2023-06-21T12:32:45Z</time>
      </trkpt>
      <trkpt lat="49.76183" lon="2.14032">
        <ele>110.7</ele>
        <time>2023-06-21T12:32:46Z</time>
      </trkpt>
      <trkpt lat="49.76182" lon="2.1403">
        <ele>110.8</ele>
        <time>2023-06-21T12:32:47Z</time>
      </trkpt>
      <trkpt lat="49.76182" lon="2.14029">
        <ele>110.8</ele>
        <time>2023-06-21T12:32:48Z</time>
      </trkpt>
      <trkpt lat="49.76181" lon="2.14026">
        <ele>110.9</ele>
        <time>2023-06-21T12:32:50Z</time>
      </trkpt>
      <trkpt lat="49.7618" lon="2.14023">
        <ele>111</ele>
        <time>2023-06-21T12:32:51Z</time>
      </trkpt>
      <trkpt lat="49.76179" lon="2.14022">
        <ele>111</ele>
        <time>2023-06-21T12:32:52Z</time>
      </trkpt>
      <trkpt lat="49.76179" lon="2.14021">
        <ele>111</ele>
        <time>2023-06-21T12:32:53Z</time>
      </trkpt>
      <trkpt lat="49.76178" lon="2.14019">
        <ele>111.1</ele>
        <time>2023-06-21T12:32:54Z</time>
      </trkpt>
      <trkpt lat="49.76178" lon="2.14018">
        <ele>111.1</ele>
        <time>2023-06-21T12:32:56Z</time>
      </trkpt>
      <trkpt lat="49.76177" lon="2.14017">
        <ele>111.2</ele>
        <time>2023-06-21T12:32:57Z</time>
      </trkpt>
      <trkpt lat="49.76176" lon="2.14016">
        <ele>111.2</ele>
        <time>2023-06-21T12:32:58Z</time>
      </trkpt>
      <trkpt lat="49.76176" lon="2.14015">
        <ele>111.2</ele>
        <time>2023-06-21T12:32:59Z</time>
      </trkpt>
      <trkpt lat="49.76175" lon="2.14013">
        <ele>111.3</ele>
        <time>2023-06-21T12:33:00Z</time>
      </trkpt>
      <trkpt lat="49.76175" lon="2.14012">
        <ele>111.3</ele>
        <time>2023-06-21T12:33:01Z</time>
      </trkpt>
      <trkpt lat="49.76174" lon="2.14011">
        <ele>111.4</ele>
        <time>2023-06-21T12:33:03Z</time>
      </trkpt>
      <trkpt lat="49.76173" lon="2.14009">
        <ele>111.4</ele>
        <time>2023-06-21T12:33:04Z</time>
      </trkpt>
      <trkpt lat="49.76173" lon="2.14008">
        <ele>111.4</ele>
        <time>2023-06-21T12:33:05Z</time>
      </trkpt>
      <trkpt lat="49.76171" lon="2.14007">
        <ele>111.5</ele>
        <time>2023-06-21T12:33:06Z</time>
      </trkpt>
      <trkpt lat="49.7617" lon="2.14007">
        <ele>111.6</ele>
        <time>2023-06-21T12:33:07Z</time>
      </trkpt>
      <trkpt lat="49.76169" lon="2.14005">
        <ele>111.6</ele>
        <time>2023-06-21T12:33:09Z</time>
      </trkpt>
      <trkpt lat="49.76168" lon="2.14004">
        <ele>111.7</ele>
        <time>2023-06-21T12:33:10Z</time>
      </trkpt>
      <trkpt lat="49.76167" lon="2.14004">
        <ele>111.7</ele>
        <time>2023-06-21T12:33:11Z</time>
      </trkpt>
      <trkpt lat="49.76166" lon="2.14001">
        <ele>111.8</ele>
        <time>2023-06-21T12:33:12Z</time>
      </trkpt>
      <trkpt lat="49.76166" lon="2.14">
        <ele>111.8</ele>
        <time>2023-06-21T12:33:13Z</time>
      </trkpt>
      <trkpt lat="49.76165" lon="2.13999">
        <ele>111.8</ele>
        <time>2023-06-21T12:33:14Z</time>
      </trkpt>
      <trkpt lat="49.76164" lon="2.13998">
        <ele>111.9</ele>
        <time>2023-06-21T12:33:15Z</time>
      </trkpt>
      <trkpt lat="49.76164" lon="2.13996">
        <ele>111.9</ele>
        <time>2023-06-21T12:33:17Z</time>
      </trkpt>
      <trkpt lat="49.76163" lon="2.13996">
        <ele>112</ele>
        <time>2023-06-21T12:33:18Z</time>
      </trkpt>
      <trkpt lat="49.76163" lon="2.13995">
        <ele>112</ele>
        <time>2023-06-21T12:33:19Z</time>
      </trkpt>
      <trkpt lat="49.76163" lon="2.13993">
        <ele>112</ele>
        <time>2023-06-21T12:33:20Z</time>
      </trkpt>
      <trkpt lat="49.76163" lon="2.13992">
        <ele>112</ele>
        <time>2023-06-21T12:33:21Z</time>
      </trkpt>
      <trkpt lat="49.76162" lon="2.13991">
        <ele>112.1</ele>
        <time>2023-06-21T12:33:22Z</time>
      </trkpt>
      <trkpt lat="49.76161" lon="2.13988">
        <ele>112.2</ele>
        <time>2023-06-21T12:33:23Z</time>
      </trkpt>
      <trkpt lat="49.7616" lon="2.13987">
        <ele>112.2</ele>
        <time>2023-06-21T12:33:24Z</time>
      </trkpt>
      <trkpt lat="49.7616" lon="2.13986">
        <ele>112.2</ele>
        <time>2023-06-21T12:33:25Z</time>
      </trkpt>
      <trkpt lat="49.76159" lon="2.13984">
        <ele>112.3</ele>
        <time>2023-06-21T12:33:27Z</time>
      </trkpt>
      <trkpt lat="49.76159" lon="2.13983">
        <ele>112.3</ele>
        <time>2023-06-21T12:33:28Z</time>
      </trkpt>
      <trkpt lat="49.76159" lon="2.13982">
        <ele>112.3</ele>
        <time>2023-06-21T12:33:29Z</time>
      </trkpt>
      <trkpt lat="49.76158" lon="2.1398">
        <ele>112.4</ele>
        <time>2023-06-21T12:33:30Z</time>
      </trkpt>
      <trkpt lat="49.76158" lon="2.13979">
        <ele>112.4</ele>
        <time>2023-06-21T12:33:32Z</time>
      </trkpt>
      <trkpt lat="49.76157" lon="2.13978">
        <ele>112.5</ele>
        <time>2023-06-21T12:33:33Z</time>
      </trkpt>
      <trkpt lat="49.76157" lon="2.13977">
        <ele>112.5</ele>
        <time>2023-06-21T12:33:34Z</time>
      </trkpt>
      <trkpt lat="49.76157" lon="2.13976">
        <ele>112.5</ele>
        <time>2023-06-21T12:33:35Z</time>
      </trkpt>
      <trkpt lat="49.76156" lon="2.13975">
        <ele>112.6</ele>
        <time>2023-06-21T12:33:36Z</time>
      </trkpt>
      <trkpt lat="49.76156" lon="2.13973">
        <ele>112.6</ele>
        <time>2023-06-21T12:33:37Z</time>
      </trkpt>
      <trkpt lat="49.76155" lon="2.13971">
        <ele>112.7</ele>
        <time>2023-06-21T12:33:39Z</time>
      </trkpt>
      <trkpt lat="49.76155" lon="2.13969">
        <ele>112.7</ele>
        <time>2023-06-21T12:33:41Z</time>
      </trkpt>
      <trkpt lat="49.76154" lon="2.13968">
        <ele>112.7</ele>
        <time>2023-06-21T12:33:42Z</time>
      </trkpt>
      <trkpt lat="49.76154" lon="2.13967">
        <ele>112.8</ele>
        <time>2023-06-21T12:33:43Z</time>
      </trkpt>
      <trkpt lat="49.76154" lon="2.13966">
        <ele>112.8</ele>
        <time>2023-06-21T12:33:44Z</time>
      </trkpt>
      <trkpt lat="49.76153" lon="2.13965">
        <ele>112.8</ele>
        <time>2023-06-21T12:33:45Z</time>
      </trkpt>
      <trkpt lat="49.76153" lon="2.13963">
        <ele>112.9</ele>
        <time>2023-06-21T12:33:46Z</time>
      </trkpt>
      <trkpt lat="49.76152" lon="2.13962">
        <ele>112.9</ele>
        <time>2023-06-21T12:33:48Z</time>
      </trkpt>
      <trkpt lat="49.76151" lon="2.13961">
        <ele>113</ele>
        <time>2023-06-21T12:33:49Z</time>
      </trkpt>
      <trkpt lat="49.7615" lon="2.13958">
        <ele>113</ele>
        <time>2023-06-21T12:33:50Z</time>
      </trkpt>
      <trkpt lat="49.76149" lon="2.13957">
        <ele>113.1</ele>
        <time>2023-06-21T12:33:51Z</time>
      </trkpt>
      <trkpt lat="49.76149" lon="2.13956">
        <ele>113.1</ele>
        <time>2023-06-21T12:33:52Z</time>
      </trkpt>
      <trkpt lat="49.76148" lon="2.13955">
        <ele>113.2</ele>
        <time>2023-06-21T12:33:54Z</time>
      </trkpt>
      <trkpt lat="49.76147" lon="2.13953">
        <ele>113.2</ele>
        <time>2023-06-21T12:33:55Z</time>
      </trkpt>
      <trkpt lat="49.76146" lon="2.13952">
        <ele>113.2</ele>
        <time>2023-06-21T12:33:56Z</time>
      </trkpt>
      <trkpt lat="49.76146" lon="2.13951">
        <ele>113.3</ele>
        <time>2023-06-21T12:33:57Z</time>
      </trkpt>
      <trkpt lat="49.76145" lon="2.1395">
        <ele>113.3</ele>
        <time>2023-06-21T12:33:58Z</time>
      </trkpt>
      <trkpt lat="49.76144" lon="2.13948">
        <ele>113.4</ele>
        <time>2023-06-21T12:33:59Z</time>
      </trkpt>
      <trkpt lat="49.76144" lon="2.13946">
        <ele>113.4</ele>
        <time>2023-06-21T12:34:01Z</time>
      </trkpt>
      <trkpt lat="49.76143" lon="2.13945">
        <ele>113.5</ele>
        <time>2023-06-21T12:34:02Z</time>
      </trkpt>
      <trkpt lat="49.76143" lon="2.13944">
        <ele>113.5</ele>
        <time>2023-06-21T12:34:03Z</time>
      </trkpt>
      <trkpt lat="49.76142" lon="2.13942">
        <ele>113.5</ele>
        <time>2023-06-21T12:34:04Z</time>
      </trkpt>
      <trkpt lat="49.76141" lon="2.13941">
        <ele>113.6</ele>
        <time>2023-06-21T12:34:05Z</time>
      </trkpt>
      <trkpt lat="49.76141" lon="2.1394">
        <ele>113.6</ele>
        <time>2023-06-21T12:34:07Z</time>
      </trkpt>
      <trkpt lat="49.7614" lon="2.13938">
        <ele>113.7</ele>
        <time>2023-06-21T12:34:08Z</time>
      </trkpt>
      <trkpt lat="49.76139" lon="2.13937">
        <ele>113.7</ele>
        <time>2023-06-21T12:34:09Z</time>
      </trkpt>
      <trkpt lat="49.76139" lon="2.13935">
        <ele>113.8</ele>
        <time>2023-06-21T12:34:10Z</time>
      </trkpt>
      <trkpt lat="49.76138" lon="2.13934">
        <ele>113.8</ele>
        <time>2023-06-21T12:34:11Z</time>
      </trkpt>
      <trkpt lat="49.76137" lon="2.13933">
        <ele>113.8</ele>
        <time>2023-06-21T12:34:12Z</time>
      </trkpt>
      <trkpt lat="49.76136" lon="2.13932">
        <ele>113.9</ele>
        <time>2023-06-21T12:34:14Z</time>
      </trkpt>
      <trkpt lat="49.76136" lon="2.1393">
        <ele>113.9</ele>
        <time>2023-06-21T12:34:15Z</time>
      </trkpt>
      <trkpt lat="49.76135" lon="2.13929">
        <ele>114</ele>
        <time>2023-06-21T12:34:16Z</time>
      </trkpt>
      <trkpt lat="49.76134" lon="2.13928">
        <ele>114</ele>
        <time>2023-06-21T12:34:17Z</time>
      </trkpt>
      <trkpt lat="49.76132" lon="2.13926">
        <ele>114.1</ele>
        <time>2023-06-21T12:34:18Z</time>
      </trkpt>
      <trkpt lat="49.76132" lon="2.13925">
        <ele>114.1</ele>
        <time>2023-06-21T12:34:19Z</time>
      </trkpt>
      <trkpt lat="49.76131" lon="2.13924">
        <ele>114.2</ele>
        <time>2023-06-21T12:34:20Z</time>
      </trkpt>
      <trkpt lat="49.7613" lon="2.13923">
        <ele>114.2</ele>
        <time>2023-06-21T12:34:21Z</time>
      </trkpt>
      <trkpt lat="49.76129" lon="2.13922">
        <ele>114.3</ele>
        <time>2023-06-21T12:34:23Z</time>
      </trkpt>
      <trkpt lat="49.76128" lon="2.13921">
        <ele>114.3</ele>
        <time>2023-06-21T12:34:24Z</time>
      </trkpt>
      <trkpt lat="49.76128" lon="2.1392">
        <ele>114.3</ele>
        <time>2023-06-21T12:34:25Z</time>
      </trkpt>
      <trkpt lat="49.76127" lon="2.1392">
        <ele>114.4</ele>
        <time>2023-06-21T12:34:26Z</time>
      </trkpt>
      <trkpt lat="49.76126" lon="2.13919">
        <ele>114.4</ele>
        <time>2023-06-21T12:34:27Z</time>
      </trkpt>
      <trkpt lat="49.76125" lon="2.13917">
        <ele>114.5</ele>
        <time>2023-06-21T12:34:28Z</time>
      </trkpt>
      <trkpt lat="49.76124" lon="2.13916">
        <ele>114.5</ele>
        <time>2023-06-21T12:34:29Z</time>
      </trkpt>
      <trkpt lat="49.76123" lon="2.13915">
        <ele>114.6</ele>
        <time>2023-06-21T12:34:31Z</time>
      </trkpt>
      <trkpt lat="49.76121" lon="2.13913">
        <ele>114.7</ele>
        <time>2023-06-21T12:34:32Z</time>
      </trkpt>
      <trkpt lat="49.76121" lon="2.13912">
        <ele>114.7</ele>
        <time>2023-06-21T12:34:33Z</time>
      </trkpt>
      <trkpt lat="49.7612" lon="2.13911">
        <ele>114.7</ele>
        <time>2023-06-21T12:34:34Z</time>
      </trkpt>
      <trkpt lat="49.76119" lon="2.13909">
        <ele>114.8</ele>
        <time>2023-06-21T12:34:35Z</time>
      </trkpt>
      <trkpt lat="49.76118" lon="2.13908">
        <ele>114.8</ele>
        <time>2023-06-21T12:34:36Z</time>
      </trkpt>
      <trkpt lat="49.76116" lon="2.13906">
        <ele>114.9</ele>
        <time>2023-06-21T12:34:38Z</time>
      </trkpt>
      <trkpt lat="49.76115" lon="2.13906">
        <ele>115</ele>
        <time>2023-06-21T12:34:39Z</time>
      </trkpt>
      <trkpt lat="49.76115" lon="2.13905">
        <ele>115</ele>
        <time>2023-06-21T12:34:40Z</time>
      </trkpt>
      <trkpt lat="49.76113" lon="2.13903">
        <ele>115</ele>
        <time>2023-06-21T12:34:41Z</time>
      </trkpt>
      <trkpt lat="49.76113" lon="2.13903">
        <ele>115.1</ele>
        <time>2023-06-21T12:34:42Z</time>
      </trkpt>
      <trkpt lat="49.76112" lon="2.13902">
        <ele>115.1</ele>
        <time>2023-06-21T12:34:43Z</time>
      </trkpt>
      <trkpt lat="49.76111" lon="2.13901">
        <ele>115.1</ele>
        <time>2023-06-21T12:34:44Z</time>
      </trkpt>
      <trkpt lat="49.7611" lon="2.13899">
        <ele>115.2</ele>
        <time>2023-06-21T12:34:45Z</time>
      </trkpt>
      <trkpt lat="49.76109" lon="2.13898">
        <ele>115.3</ele>
        <time>2023-06-21T12:34:47Z</time>
      </trkpt>
      <trkpt lat="49.76108" lon="2.13897">
        <ele>115.3</ele>
        <time>2023-06-21T12:34:48Z</time>
      </trkpt>
      <trkpt lat="49.76107" lon="2.13896">
        <ele>115.3</ele>
        <time>2023-06-21T12:34:49Z</time>
      </trkpt>
      <trkpt lat="49.76107" lon="2.13895">
        <ele>115.4</ele>
        <time>2023-06-21T12:34:50Z</time>
      </trkpt>
      <trkpt lat="49.76106" lon="2.13893">
        <ele>115.4</ele>
        <time>2023-06-21T12:34:51Z</time>
      </trkpt>
      <trkpt lat="49.76105" lon="2.13891">
        <ele>115.5</ele>
        <time>2023-06-21T12:34:53Z</time>
      </trkpt>
      <trkpt lat="49.76104" lon="2.1389">
        <ele>115.6</ele>
        <time>2023-06-21T12:34:54Z</time>
      </trkpt>
      <trkpt lat="49.76103" lon="2.13889">
        <ele>115.6</ele>
        <time>2023-06-21T12:34:55Z</time>
      </trkpt>
      <trkpt lat="49.76102" lon="2.13887">
        <ele>115.6</ele>
        <time>2023-06-21T12:34:56Z</time>
      </trkpt>
      <trkpt lat="49.76101" lon="2.13886">
        <ele>115.7</ele>
        <time>2023-06-21T12:34:57Z</time>
      </trkpt>
      <trkpt lat="49.761" lon="2.13884">
        <ele>115.8</ele>
        <time>2023-06-21T12:34:59Z</time>
      </trkpt>
      <trkpt lat="49.76099" lon="2.13883">
        <ele>115.8</ele>
        <time>2023-06-21T12:35:00Z</time>
      </trkpt>
      <trkpt lat="49.76099" lon="2.13881">
        <ele>115.8</ele>
        <time>2023-06-21T12:35:01Z</time>
      </trkpt>
      <trkpt lat="49.76098" lon="2.1388">
        <ele>115.9</ele>
        <time>2023-06-21T12:35:02Z</time>
      </trkpt>
      <trkpt lat="49.76098" lon="2.13879">
        <ele>115.9</ele>
        <time>2023-06-21T12:35:03Z</time>
      </trkpt>
      <trkpt lat="49.76098" lon="2.13877">
        <ele>116</ele>
        <time>2023-06-21T12:35:04Z</time>
      </trkpt>
      <trkpt lat="49.76098" lon="2.13875">
        <ele>116</ele>
        <time>2023-06-21T12:35:05Z</time>
      </trkpt>
      <trkpt lat="49.76098" lon="2.13873">
        <ele>116.1</ele>
        <time>2023-06-21T12:35:07Z</time>
      </trkpt>
      <trkpt lat="49.76097" lon="2.13871">
        <ele>116.1</ele>
        <time>2023-06-21T12:35:08Z</time>
      </trkpt>
      <trkpt lat="49.76097" lon="2.1387">
        <ele>116.1</ele>
        <time>2023-06-21T12:35:09Z</time>
      </trkpt>
      <trkpt lat="49.76097" lon="2.13869">
        <ele>116.2</ele>
        <time>2023-06-21T12:35:10Z</time>
      </trkpt>
      <trkpt lat="49.76097" lon="2.13867">
        <ele>116.2</ele>
        <time>2023-06-21T12:35:11Z</time>
      </trkpt>
      <trkpt lat="49.76097" lon="2.13866">
        <ele>116.3</ele>
        <time>2023-06-21T12:35:12Z</time>
      </trkpt>
      <trkpt lat="49.76096" lon="2.13864">
        <ele>116.3</ele>
        <time>2023-06-21T12:35:13Z</time>
      </trkpt>
      <trkpt lat="49.76096" lon="2.13862">
        <ele>116.3</ele>
        <time>2023-06-21T12:35:14Z</time>
      </trkpt>
      <trkpt lat="49.76095" lon="2.13861">
        <ele>116.4</ele>
        <time>2023-06-21T12:35:15Z</time>
      </trkpt>
      <trkpt lat="49.76095" lon="2.13859">
        <ele>116.4</ele>
        <time>2023-06-21T12:35:17Z</time>
      </trkpt>
      <trkpt lat="49.76094" lon="2.13857">
        <ele>116.5</ele>
        <time>2023-06-21T12:35:18Z</time>
      </trkpt>
      <trkpt lat="49.76094" lon="2.13856">
        <ele>116.5</ele>
        <time>2023-06-21T12:35:19Z</time>
      </trkpt>
      <trkpt lat="49.76093" lon="2.13855">
        <ele>116.6</ele>
        <time>2023-06-21T12:35:20Z</time>
      </trkpt>
      <trkpt lat="49.76093" lon="2.13853">
        <ele>116.6</ele>
        <time>2023-06-21T12:35:21Z</time>
      </trkpt>
      <trkpt lat="49.76093" lon="2.13852">
        <ele>116.6</ele>
        <time>2023-06-21T12:35:22Z</time>
      </trkpt>
      <trkpt lat="49.76092" lon="2.1385">
        <ele>116.7</ele>
        <time>2023-06-21T12:35:24Z</time>
      </trkpt>
      <trkpt lat="49.76091" lon="2.13848">
        <ele>116.7</ele>
        <time>2023-06-21T12:35:25Z</time>
      </trkpt>
      <trkpt lat="49.76091" lon="2.13847">
        <ele>116.8</ele>
        <time>2023-06-21T12:35:26Z</time>
      </trkpt>
      <trkpt lat="49.7609" lon="2.13845">
        <ele>116.8</ele>
        <time>2023-06-21T12:35:27Z</time>
      </trkpt>
      <trkpt lat="49.7609" lon="2.13844">
        <ele>116.9</ele>
        <time>2023-06-21T12:35:28Z</time>
      </trkpt>
      <trkpt lat="49.76089" lon="2.13842">
        <ele>116.9</ele>
        <time>2023-06-21T12:35:30Z</time>
      </trkpt>
      <trkpt lat="49.76088" lon="2.1384">
        <ele>117</ele>
        <time>2023-06-21T12:35:31Z</time>
      </trkpt>
      <trkpt lat="49.76088" lon="2.13838">
        <ele>117</ele>
        <time>2023-06-21T12:35:33Z</time>
      </trkpt>
      <trkpt lat="49.76087" lon="2.13837">
        <ele>117.1</ele>
        <time>2023-06-21T12:35:34Z</time>
      </trkpt>
      <trkpt lat="49.76086" lon="2.13836">
        <ele>117.1</ele>
        <time>2023-06-21T12:35:35Z</time>
      </trkpt>
      <trkpt lat="49.76086" lon="2.13834">
        <ele>117.2</ele>
        <time>2023-06-21T12:35:36Z</time>
      </trkpt>
      <trkpt lat="49.76085" lon="2.13833">
        <ele>117.2</ele>
        <time>2023-06-21T12:35:37Z</time>
      </trkpt>
      <trkpt lat="49.76084" lon="2.13831">
        <ele>117.2</ele>
        <time>2023-06-21T12:35:39Z</time>
      </trkpt>
      <trkpt lat="49.76084" lon="2.1383">
        <ele>117.3</ele>
        <time>2023-06-21T12:35:40Z</time>
      </trkpt>
      <trkpt lat="49.76083" lon="2.13829">
        <ele>117.3</ele>
        <time>2023-06-21T12:35:41Z</time>
      </trkpt>
      <trkpt lat="49.76083" lon="2.13827">
        <ele>117.4</ele>
        <time>2023-06-21T12:35:42Z</time>
      </trkpt>
      <trkpt lat="49.76082" lon="2.13825">
        <ele>117.4</ele>
        <time>2023-06-21T12:35:43Z</time>
      </trkpt>
      <trkpt lat="49.76082" lon="2.13823">
        <ele>117.5</ele>
        <time>2023-06-21T12:35:45Z</time>
      </trkpt>
      <trkpt lat="49.76081" lon="2.13822">
        <ele>117.5</ele>
        <time>2023-06-21T12:35:46Z</time>
      </trkpt>
      <trkpt lat="49.76081" lon="2.1382">
        <ele>117.6</ele>
        <time>2023-06-21T12:35:47Z</time>
      </trkpt>
      <trkpt lat="49.7608" lon="2.13819">
        <ele>117.6</ele>
        <time>2023-06-21T12:35:48Z</time>
      </trkpt>
      <trkpt lat="49.76079" lon="2.13817">
        <ele>117.7</ele>
        <time>2023-06-21T12:35:50Z</time>
      </trkpt>
      <trkpt lat="49.76079" lon="2.13816">
        <ele>117.7</ele>
        <time>2023-06-21T12:35:51Z</time>
      </trkpt>
      <trkpt lat="49.76078" lon="2.13813">
        <ele>117.8</ele>
        <time>2023-06-21T12:35:52Z</time>
      </trkpt>
      <trkpt lat="49.76077" lon="2.13812">
        <ele>117.8</ele>
        <time>2023-06-21T12:35:53Z</time>
      </trkpt>
      <trkpt lat="49.76077" lon="2.13811">
        <ele>117.8</ele>
        <time>2023-06-21T12:35:54Z</time>
      </trkpt>
      <trkpt lat="49.76076" lon="2.13809">
        <ele>117.9</ele>
        <time>2023-06-21T12:35:55Z</time>
      </trkpt>
      <trkpt lat="49.76075" lon="2.13808">
        <ele>117.9</ele>
        <time>2023-06-21T12:35:56Z</time>
      </trkpt>
      <trkpt lat="49.76074" lon="2.13807">
        <ele>118</ele>
        <time>2023-06-21T12:35:58Z</time>
      </trkpt>
      <trkpt lat="49.76073" lon="2.13805">
        <ele>118</ele>
        <time>2023-06-21T12:35:59Z</time>
      </trkpt>
      <trkpt lat="49.76072" lon="2.13804">
        <ele>118.1</ele>
        <time>2023-06-21T12:36:00Z</time>
      </trkpt>
      <trkpt lat="49.76071" lon="2.13803">
        <ele>118.1</ele>
        <time>2023-06-21T12:36:01Z</time>
      </trkpt>
      <trkpt lat="49.76071" lon="2.13802">
        <ele>118.2</ele>
        <time>2023-06-21T12:36:02Z</time>
      </trkpt>
      <trkpt lat="49.7607" lon="2.13801">
        <ele>118.2</ele>
        <time>2023-06-21T12:36:04Z</time>
      </trkpt>
      <trkpt lat="49.76069" lon="2.138">
        <ele>118.2</ele>
        <time>2023-06-21T12:36:05Z</time>
      </trkpt>
      <trkpt lat="49.76068" lon="2.13799">
        <ele>118.3</ele>
        <time>2023-06-21T12:36:06Z</time>
      </trkpt>
      <trkpt lat="49.76067" lon="2.13798">
        <ele>118.3</ele>
        <time>2023-06-21T12:36:07Z</time>
      </trkpt>
      <trkpt lat="49.76066" lon="2.13797">
        <ele>118.4</ele>
        <time>2023-06-21T12:36:08Z</time>
      </trkpt>
      <trkpt lat="49.76065" lon="2.13795">
        <ele>118.4</ele>
        <time>2023-06-21T12:36:09Z</time>
      </trkpt>
      <trkpt lat="49.76065" lon="2.13794">
        <ele>118.5</ele>
        <time>2023-06-21T12:36:11Z</time>
      </trkpt>
      <trkpt lat="49.76064" lon="2.13793">
        <ele>118.5</ele>
        <time>2023-06-21T12:36:12Z</time>
      </trkpt>
      <trkpt lat="49.76063" lon="2.13792">
        <ele>118.6</ele>
        <time>2023-06-21T12:36:13Z</time>
      </trkpt>
      <trkpt lat="49.76062" lon="2.1379">
        <ele>118.6</ele>
        <time>2023-06-21T12:36:14Z</time>
      </trkpt>
      <trkpt lat="49.76061" lon="2.13789">
        <ele>118.7</ele>
        <time>2023-06-21T12:36:15Z</time>
      </trkpt>
      <trkpt lat="49.76061" lon="2.13787">
        <ele>118.7</ele>
        <time>2023-06-21T12:36:16Z</time>
      </trkpt>
      <trkpt lat="49.7606" lon="2.13786">
        <ele>118.8</ele>
        <time>2023-06-21T12:36:18Z</time>
      </trkpt>
      <trkpt lat="49.76059" lon="2.13785">
        <ele>118.8</ele>
        <time>2023-06-21T12:36:19Z</time>
      </trkpt>
      <trkpt lat="49.76059" lon="2.13783">
        <ele>118.8</ele>
        <time>2023-06-21T12:36:20Z</time>
      </trkpt>
      <trkpt lat="49.76058" lon="2.13782">
        <ele>118.9</ele>
        <time>2023-06-21T12:36:21Z</time>
      </trkpt>
      <trkpt lat="49.76057" lon="2.13781">
        <ele>118.9</ele>
        <time>2023-06-21T12:36:22Z</time>
      </trkpt>
      <trkpt lat="49.76056" lon="2.13778">
        <ele>119</ele>
        <time>2023-06-21T12:36:24Z</time>
      </trkpt>
      <trkpt lat="49.76055" lon="2.13777">
        <ele>119.1</ele>
        <time>2023-06-21T12:36:26Z</time>
      </trkpt>
      <trkpt lat="49.76054" lon="2.13775">
        <ele>119.1</ele>
        <time>2023-06-21T12:36:27Z</time>
      </trkpt>
      <trkpt lat="49.76054" lon="2.13774">
        <ele>119.1</ele>
        <time>2023-06-21T12:36:28Z</time>
      </trkpt>
      <trkpt lat="49.76053" lon="2.13773">
        <ele>119.2</ele>
        <time>2023-06-21T12:36:29Z</time>
      </trkpt>
      <trkpt lat="49.76052" lon="2.13771">
        <ele>119.2</ele>
        <time>2023-06-21T12:36:31Z</time>
      </trkpt>
      <trkpt lat="49.76051" lon="2.1377">
        <ele>119.3</ele>
        <time>2023-06-21T12:36:32Z</time>
      </trkpt>
      <trkpt lat="49.76051" lon="2.13769">
        <ele>119.3</ele>
        <time>2023-06-21T12:36:33Z</time>
      </trkpt>
      <trkpt lat="49.7605" lon="2.13768">
        <ele>119.3</ele>
        <time>2023-06-21T12:36:34Z</time>
      </trkpt>
      <trkpt lat="49.76049" lon="2.13767">
        <ele>119.4</ele>
        <time>2023-06-21T12:36:35Z</time>
      </trkpt>
      <trkpt lat="49.76048" lon="2.13766">
        <ele>119.4</ele>
        <time>2023-06-21T12:36:36Z</time>
      </trkpt>
      <trkpt lat="49.76047" lon="2.13765">
        <ele>119.5</ele>
        <time>2023-06-21T12:36:37Z</time>
      </trkpt>
      <trkpt lat="49.76046" lon="2.13764">
        <ele>119.5</ele>
        <time>2023-06-21T12:36:38Z</time>
      </trkpt>
      <trkpt lat="49.76046" lon="2.13762">
        <ele>119.6</ele>
        <time>2023-06-21T12:36:40Z</time>
      </trkpt>
      <trkpt lat="49.76045" lon="2.13761">
        <ele>119.6</ele>
        <time>2023-06-21T12:36:41Z</time>
      </trkpt>
      <trkpt lat="49.76044" lon="2.1376">
        <ele>119.7</ele>
        <time>2023-06-21T12:36:42Z</time>
      </trkpt>
      <trkpt lat="49.76042" lon="2.13757">
        <ele>119.7</ele>
        <time>2023-06-21T12:36:43Z</time>
      </trkpt>
      <trkpt lat="49.76042" lon="2.13756">
        <ele>119.8</ele>
        <time>2023-06-21T12:36:44Z</time>
      </trkpt>
      <trkpt lat="49.76041" lon="2.13755">
        <ele>119.8</ele>
        <time>2023-06-21T12:36:45Z</time>
      </trkpt>
      <trkpt lat="49.76041" lon="2.13754">
        <ele>119.9</ele>
        <time>2023-06-21T12:36:46Z</time>
      </trkpt>
      <trkpt lat="49.7604" lon="2.13752">
        <ele>119.9</ele>
        <time>2023-06-21T12:36:48Z</time>
      </trkpt>
      <trkpt lat="49.76039" lon="2.13751">
        <ele>120</ele>
        <time>2023-06-21T12:36:49Z</time>
      </trkpt>
      <trkpt lat="49.76039" lon="2.13749">
        <ele>120</ele>
        <time>2023-06-21T12:36:50Z</time>
      </trkpt>
      <trkpt lat="49.76038" lon="2.13748">
        <ele>120</ele>
        <time>2023-06-21T12:36:51Z</time>
      </trkpt>
      <trkpt lat="49.76037" lon="2.13746">
        <ele>120.1</ele>
        <time>2023-06-21T12:36:52Z</time>
      </trkpt>
      <trkpt lat="49.76037" lon="2.13745">
        <ele>120.1</ele>
        <time>2023-06-21T12:36:53Z</time>
      </trkpt>
      <trkpt lat="49.76036" lon="2.13743">
        <ele>120.2</ele>
        <time>2023-06-21T12:36:55Z</time>
      </trkpt>
      <trkpt lat="49.76036" lon="2.13742">
        <ele>120.2</ele>
        <time>2023-06-21T12:36:56Z</time>
      </trkpt>
      <trkpt lat="49.76035" lon="2.1374">
        <ele>120.3</ele>
        <time>2023-06-21T12:36:57Z</time>
      </trkpt>
      <trkpt lat="49.76035" lon="2.13739">
        <ele>120.3</ele>
        <time>2023-06-21T12:36:58Z</time>
      </trkpt>
      <trkpt lat="49.76034" lon="2.13737">
        <ele>120.4</ele>
        <time>2023-06-21T12:36:59Z</time>
      </trkpt>
      <trkpt lat="49.76033" lon="2.13734">
        <ele>120.4</ele>
        <time>2023-06-21T12:37:01Z</time>
      </trkpt>
      <trkpt lat="49.76033" lon="2.13733">
        <ele>120.5</ele>
        <time>2023-06-21T12:37:02Z</time>
      </trkpt>
      <trkpt lat="49.76032" lon="2.13732">
        <ele>120.5</ele>
        <time>2023-06-21T12:37:03Z</time>
      </trkpt>
      <trkpt lat="49.76031" lon="2.1373">
        <ele>120.6</ele>
        <time>2023-06-21T12:37:04Z</time>
      </trkpt>
      <trkpt lat="49.7603" lon="2.13729">
        <ele>120.6</ele>
        <time>2023-06-21T12:37:05Z</time>
      </trkpt>
      <trkpt lat="49.7603" lon="2.13728">
        <ele>120.6</ele>
        <time>2023-06-21T12:37:06Z</time>
      </trkpt>
      <trkpt lat="49.76028" lon="2.13725">
        <ele>120.7</ele>
        <time>2023-06-21T12:37:07Z</time>
      </trkpt>
      <trkpt lat="49.76028" lon="2.13724">
        <ele>120.8</ele>
        <time>2023-06-21T12:37:08Z</time>
      </trkpt>
      <trkpt lat="49.76028" lon="2.13723">
        <ele>120.8</ele>
        <time>2023-06-21T12:37:09Z</time>
      </trkpt>
      <trkpt lat="49.76027" lon="2.13722">
        <ele>120.8</ele>
        <time>2023-06-21T12:37:11Z</time>
      </trkpt>
      <trkpt lat="49.76026" lon="2.1372">
        <ele>120.9</ele>
        <time>2023-06-21T12:37:12Z</time>
      </trkpt>
      <trkpt lat="49.76026" lon="2.13719">
        <ele>120.9</ele>
        <time>2023-06-21T12:37:13Z</time>
      </trkpt>
      <trkpt lat="49.76025" lon="2.13718">
        <ele>121</ele>
        <time>2023-06-21T12:37:14Z</time>
      </trkpt>
      <trkpt lat="49.76024" lon="2.13716">
        <ele>121</ele>
        <time>2023-06-21T12:37:15Z</time>
      </trkpt>
      <trkpt lat="49.76023" lon="2.13715">
        <ele>121.1</ele>
        <time>2023-06-21T12:37:17Z</time>
      </trkpt>
      <trkpt lat="49.76023" lon="2.13714">
        <ele>121.1</ele>
        <time>2023-06-21T12:37:18Z</time>
      </trkpt>
      <trkpt lat="49.76022" lon="2.13712">
        <ele>121.1</ele>
        <time>2023-06-21T12:37:19Z</time>
      </trkpt>
      <trkpt lat="49.76022" lon="2.13711">
        <ele>121.2</ele>
        <time>2023-06-21T12:37:20Z</time>
      </trkpt>
      <trkpt lat="49.76021" lon="2.1371">
        <ele>121.2</ele>
        <time>2023-06-21T12:37:21Z</time>
      </trkpt>
      <trkpt lat="49.7602" lon="2.13709">
        <ele>121.3</ele>
        <time>2023-06-21T12:37:22Z</time>
      </trkpt>
      <trkpt lat="49.76018" lon="2.13706">
        <ele>121.4</ele>
        <time>2023-06-21T12:37:23Z</time>
      </trkpt>
      <trkpt lat="49.76017" lon="2.13705">
        <ele>121.4</ele>
        <time>2023-06-21T12:37:25Z</time>
      </trkpt>
      <trkpt lat="49.76016" lon="2.13703">
        <ele>121.5</ele>
        <time>2023-06-21T12:37:26Z</time>
      </trkpt>
      <trkpt lat="49.76016" lon="2.13702">
        <ele>121.5</ele>
        <time>2023-06-21T12:37:28Z</time>
      </trkpt>
      <trkpt lat="49.76015" lon="2.137">
        <ele>121.6</ele>
        <time>2023-06-21T12:37:29Z</time>
      </trkpt>
      <trkpt lat="49.76014" lon="2.13699">
        <ele>121.6</ele>
        <time>2023-06-21T12:37:30Z</time>
      </trkpt>
      <trkpt lat="49.76014" lon="2.13697">
        <ele>121.7</ele>
        <time>2023-06-21T12:37:31Z</time>
      </trkpt>
      <trkpt lat="49.76013" lon="2.13695">
        <ele>121.7</ele>
        <time>2023-06-21T12:37:33Z</time>
      </trkpt>
      <trkpt lat="49.76012" lon="2.13694">
        <ele>121.7</ele>
        <time>2023-06-21T12:37:34Z</time>
      </trkpt>
      <trkpt lat="49.76011" lon="2.13693">
        <ele>121.8</ele>
        <time>2023-06-21T12:37:35Z</time>
      </trkpt>
      <trkpt lat="49.7601" lon="2.13691">
        <ele>121.9</ele>
        <time>2023-06-21T12:37:36Z</time>
      </trkpt>
      <trkpt lat="49.76009" lon="2.1369">
        <ele>121.9</ele>
        <time>2023-06-21T12:37:38Z</time>
      </trkpt>
      <trkpt lat="49.76009" lon="2.13689">
        <ele>121.9</ele>
        <time>2023-06-21T12:37:39Z</time>
      </trkpt>
      <trkpt lat="49.76008" lon="2.13688">
        <ele>121.9</ele>
        <time>2023-06-21T12:37:40Z</time>
      </trkpt>
      <trkpt lat="49.76008" lon="2.13687">
        <ele>122</ele>
        <time>2023-06-21T12:37:42Z</time>
      </trkpt>
      <trkpt lat="49.76007" lon="2.13686">
        <ele>122</ele>
        <time>2023-06-21T12:37:43Z</time>
      </trkpt>
      <trkpt lat="49.76007" lon="2.13685">
        <ele>122</ele>
        <time>2023-06-21T12:37:44Z</time>
      </trkpt>
      <trkpt lat="49.76007" lon="2.13685">
        <ele>122.1</ele>
        <time>2023-06-21T12:37:45Z</time>
      </trkpt>
      <trkpt lat="49.76007" lon="2.13685">
        <ele>122.1</ele>
        <time>2023-06-21T12:37:46Z</time>
      </trkpt>
      <trkpt lat="49.76007" lon="2.13685">
        <ele>122.1</ele>
        <time>2023-06-21T12:37:48Z</time>
      </trkpt>
      <trkpt lat="49.76008" lon="2.13685">
        <ele>122.1</ele>
        <time>2023-06-21T12:37:49Z</time>
      </trkpt>
      <trkpt lat="49.76008" lon="2.13686">
        <ele>122.1</ele>
        <time>2023-06-21T12:37:51Z</time>
      </trkpt>
      <trkpt lat="49.76008" lon="2.13686">
        <ele>122.1</ele>
        <time>2023-06-21T12:37:52Z</time>
      </trkpt>
      <trkpt lat="49.76008" lon="2.13686">
        <ele>122.1</ele>
        <time>2023-06-21T12:37:53Z</time>
      </trkpt>
      <trkpt lat="49.76008" lon="2.13686">
        <ele>122.1</ele>
        <time>2023-06-21T12:37:54Z</time>
      </trkpt>
      <trkpt lat="49.76009" lon="2.13686">
        <ele>122.1</ele>
        <time>2023-06-21T12:37:56Z</time>
      </trkpt>
      <trkpt lat="49.76009" lon="2.13686">
        <ele>122.1</ele>
        <time>2023-06-21T12:37:57Z</time>
      </trkpt>
      <trkpt lat="49.76009" lon="2.13687">
        <ele>122.2</ele>
        <time>2023-06-21T12:37:58Z</time>
      </trkpt>
      <trkpt lat="49.76009" lon="2.13687">
        <ele>122.2</ele>
        <time>2023-06-21T12:38:00Z</time>
      </trkpt>
      <trkpt lat="49.7601" lon="2.13687">
        <ele>122.2</ele>
        <time>2023-06-21T12:38:01Z</time>
      </trkpt>
      <trkpt lat="49.7601" lon="2.13687">
        <ele>122.2</ele>
        <time>2023-06-21T12:38:02Z</time>
      </trkpt>
      <trkpt lat="49.7601" lon="2.13687">
        <ele>122.2</ele>
        <time>2023-06-21T12:38:04Z</time>
      </trkpt>
      <trkpt lat="49.7601" lon="2.13687">
        <ele>122.2</ele>
        <time>2023-06-21T12:38:05Z</time>
      </trkpt>
      <trkpt lat="49.7601" lon="2.13688">
        <ele>122.2</ele>
        <time>2023-06-21T12:38:06Z</time>
      </trkpt>
      <trkpt lat="49.76011" lon="2.13689">
        <ele>122.2</ele>
        <time>2023-06-21T12:38:07Z</time>
      </trkpt>
      <trkpt lat="49.76012" lon="2.13689">
        <ele>122.3</ele>
        <time>2023-06-21T12:38:08Z</time>
      </trkpt>
      <trkpt lat="49.76012" lon="2.1369">
        <ele>122.3</ele>
        <time>2023-06-21T12:38:09Z</time>
      </trkpt>
      <trkpt lat="49.76012" lon="2.13691">
        <ele>122.3</ele>
        <time>2023-06-21T12:38:10Z</time>
      </trkpt>
      <trkpt lat="49.76013" lon="2.13691">
        <ele>122.3</ele>
        <time>2023-06-21T12:38:11Z</time>
      </trkpt>
      <trkpt lat="49.76013" lon="2.13693">
        <ele>122.4</ele>
        <time>2023-06-21T12:38:12Z</time>
      </trkpt>
      <trkpt lat="49.76013" lon="2.13693">
        <ele>122.4</ele>
        <time>2023-06-21T12:38:13Z</time>
      </trkpt>
      <trkpt lat="49.76013" lon="2.13693">
        <ele>122.4</ele>
        <time>2023-06-21T12:38:14Z</time>
      </trkpt>
      <trkpt lat="49.76013" lon="2.13693">
        <ele>122.4</ele>
        <time>2023-06-21T12:38:15Z</time>
      </trkpt>
      <trkpt lat="49.76013" lon="2.13693">
        <ele>122.4</ele>
        <time>2023-06-21T12:38:16Z</time>
      </trkpt>
      <trkpt lat="49.76013" lon="2.13693">
        <ele>122.4</ele>
        <time>2023-06-21T12:38:17Z</time>
      </trkpt>
      <trkpt lat="49.76013" lon="2.13693">
        <ele>122.4</ele>
        <time>2023-06-21T12:38:18Z</time>
      </trkpt>
      <trkpt lat="49.76013" lon="2.13693">
        <ele>122.4</ele>
        <time>2023-06-21T12:38:19Z</time>
      </trkpt>
      <trkpt lat="49.76013" lon="2.13693">
        <ele>122.4</ele>
        <time>2023-06-21T12:38:20Z</time>
      </trkpt>
      <trkpt lat="49.76013" lon="2.13693">
        <ele>122.4</ele>
        <time>2023-06-21T12:38:21Z</time>
      </trkpt>
      <trkpt lat="49.76013" lon="2.13693">
        <ele>122.4</ele>
        <time>2023-06-21T12:38:22Z</time>
      </trkpt>
      <trkpt lat="49.76013" lon="2.13693">
        <ele>122.4</ele>
        <time>2023-06-21T12:38:23Z</time>
      </trkpt>
      <trkpt lat="49.76013" lon="2.13693">
        <ele>122.4</ele>
        <time>2023-06-21T12:38:24Z</time>
      </trkpt>
      <trkpt lat="49.76013" lon="2.13693">
        <ele>122.4</ele>
        <time>2023-06-21T12:38:25Z</time>
      </trkpt>
      <trkpt lat="49.76013" lon="2.13693">
        <ele>122.4</ele>
        <time>2023-06-21T12:38:26Z</time>
      </trkpt>
      <trkpt lat="49.76013" lon="2.13693">
        <ele>122.4</ele>
        <time>2023-06-21T12:38:27Z</time>
      </trkpt>
      <trkpt lat="49.76013" lon="2.13693">
        <ele>122.4</ele>
        <time>2023-06-21T12:38:28Z</time>
      </trkpt>
      <trkpt lat="49.76013" lon="2.13693">
        <ele>122.4</ele>
        <time>2023-06-21T12:38:29Z</time>
      </trkpt>
      <trkpt lat="49.76013" lon="2.13693">
        <ele>122.4</ele>
        <time>2023-06-21T12:38:30Z</time>
      </trkpt>
      <trkpt lat="49.76013" lon="2.13693">
        <ele>122.4</ele>
        <time>2023-06-21T12:38:31Z</time>
      </trkpt>
      <trkpt lat="49.76013" lon="2.13693">
        <ele>122.4</ele>
        <time>2023-06-21T12:38:32Z</time>
      </trkpt>
      <trkpt lat="49.76013" lon="2.13693">
        <ele>122.4</ele>
        <time>2023-06-21T12:38:33Z</time>
      </trkpt>
      <trkpt lat="49.76013" lon="2.13693">
        <ele>122.4</ele>
        <time>2023-06-21T12:38:34Z</time>
      </trkpt>
      <trkpt lat="49.76013" lon="2.13693">
        <ele>122.4</ele>
        <time>2023-06-21T12:38:35Z</time>
      </trkpt>
      <trkpt lat="49.76013" lon="2.13693">
        <ele>122.4</ele>
        <time>2023-06-21T12:38:36Z</time>
      </trkpt>
      <trkpt lat="49.76013" lon="2.13693">
        <ele>122.4</ele>
        <time>2023-06-21T12:38:37Z</time>
      </trkpt>
      <trkpt lat="49.76013" lon="2.13693">
        <ele>122.4</ele>
        <time>2023-06-21T12:38:38Z</time>
      </trkpt>
      <trkpt lat="49.76013" lon="2.13693">
        <ele>122.4</ele>
        <time>2023-06-21T12:38:39Z</time>
      </trkpt>
      <trkpt lat="49.76013" lon="2.13693">
        <ele>122.4</ele>
        <time>2023-06-21T12:38:40Z</time>
      </trkpt>
      <trkpt lat="49.76013" lon="2.13693">
        <ele>122.4</ele>
        <time>2023-06-21T12:38:41Z</time>
      </trkpt>
      <trkpt lat="49.76013" lon="2.13693">
        <ele>122.4</ele>
        <time>2023-06-21T12:38:42Z</time>
      </trkpt>
      <trkpt lat="49.76013" lon="2.13693">
        <ele>122.4</ele>
        <time>2023-06-21T12:38:43Z</time>
      </trkpt>
      <trkpt lat="49.76013" lon="2.13693">
        <ele>122.4</ele>
        <time>2023-06-21T12:38:44Z</time>
      </trkpt>
      <trkpt lat="49.76013" lon="2.13693">
        <ele>122.4</ele>
        <time>2023-06-21T12:38:45Z</time>
      </trkpt>
      <trkpt lat="49.76013" lon="2.13693">
        <ele>122.4</ele>
        <time>2023-06-21T12:38:46Z</time>
      </trkpt>
      <trkpt lat="49.76013" lon="2.13693">
        <ele>122.4</ele>
        <time>2023-06-21T12:38:47Z</time>
      </trkpt>
      <trkpt lat="49.76013" lon="2.13693">
        <ele>122.4</ele>
        <time>2023-06-21T12:38:48Z</time>
      </trkpt>
      <trkpt lat="49.76013" lon="2.13693">
        <ele>122.4</ele>
        <time>2023-06-21T12:38:49Z</time>
      </trkpt>
      <trkpt lat="49.76013" lon="2.13693">
        <ele>122.4</ele>
        <time>2023-06-21T12:38:50Z</time>
      </trkpt>
      <trkpt lat="49.76013" lon="2.13693">
        <ele>122.4</ele>
        <time>2023-06-21T12:38:51Z</time>
      </trkpt>
      <trkpt lat="49.76013" lon="2.13693">
        <ele>122.4</ele>
        <time>2023-06-21T12:38:52Z</time>
      </trkpt>
      <trkpt lat="49.76013" lon="2.13693">
        <ele>122.4</ele>
        <time>2023-06-21T12:38:53Z</time>
      </trkpt>
      <trkpt lat="49.76013" lon="2.13693">
        <ele>122.4</ele>
        <time>2023-06-21T12:38:54Z</time>
      </trkpt>
      <trkpt lat="49.76013" lon="2.13693">
        <ele>122.4</ele>
        <time>2023-06-21T12:38:55Z</time>
      </trkpt>
      <trkpt lat="49.76013" lon="2.13693">
        <ele>122.4</ele>
        <time>2023-06-21T12:38:56Z</time>
      </trkpt>
      <trkpt lat="49.76013" lon="2.13693">
        <ele>122.4</ele>
        <time>2023-06-21T12:38:57Z</time>
      </trkpt>
      <trkpt lat="49.76013" lon="2.13693">
        <ele>122.4</ele>
        <time>2023-06-21T12:38:58Z</time>
      </trkpt>
      <trkpt lat="49.76012" lon="2.13693">
        <ele>122.4</ele>
        <time>2023-06-21T12:38:59Z</time>
      </trkpt>
      <trkpt lat="49.76011" lon="2.13694">
        <ele>122.5</ele>
        <time>2023-06-21T12:39:00Z</time>
      </trkpt>
      <trkpt lat="49.7601" lon="2.13694">
        <ele>122.5</ele>
        <time>2023-06-21T12:39:01Z</time>
      </trkpt>
      <trkpt lat="49.7601" lon="2.13694">
        <ele>122.5</ele>
        <time>2023-06-21T12:39:02Z</time>
      </trkpt>
      <trkpt lat="49.7601" lon="2.13694">
        <ele>122.5</ele>
        <time>2023-06-21T12:39:03Z</time>
      </trkpt>
      <trkpt lat="49.7601" lon="2.13694">
        <ele>122.5</ele>
        <time>2023-06-21T12:39:04Z</time>
      </trkpt>
      <trkpt lat="49.7601" lon="2.13694">
        <ele>122.5</ele>
        <time>2023-06-21T12:39:05Z</time>
      </trkpt>
      <trkpt lat="49.7601" lon="2.13694">
        <ele>122.5</ele>
        <time>2023-06-21T12:39:06Z</time>
      </trkpt>
      <trkpt lat="49.7601" lon="2.13694">
        <ele>122.5</ele>
        <time>2023-06-21T12:39:07Z</time>
      </trkpt>
      <trkpt lat="49.7601" lon="2.13694">
        <ele>122.5</ele>
        <time>2023-06-21T12:39:08Z</time>
      </trkpt>
      <trkpt lat="49.7601" lon="2.13694">
        <ele>122.5</ele>
        <time>2023-06-21T12:39:09Z</time>
      </trkpt>
      <trkpt lat="49.7601" lon="2.13694">
        <ele>122.5</ele>
        <time>2023-06-21T12:39:10Z</time>
      </trkpt>
      <trkpt lat="49.7601" lon="2.13694">
        <ele>122.5</ele>
        <time>2023-06-21T12:39:11Z</time>
      </trkpt>
      <trkpt lat="49.7601" lon="2.13694">
        <ele>122.5</ele>
        <time>2023-06-21T12:39:12Z</time>
      </trkpt>
      <trkpt lat="49.7601" lon="2.13694">
        <ele>122.5</ele>
        <time>2023-06-21T12:39:13Z</time>
      </trkpt>
      <trkpt lat="49.7601" lon="2.13694">
        <ele>122.5</ele>
        <time>2023-06-21T12:39:14Z</time>
      </trkpt>
      <trkpt lat="49.7601" lon="2.13694">
        <ele>122.5</ele>
        <time>2023-06-21T12:39:15Z</time>
      </trkpt>
      <trkpt lat="49.7601" lon="2.13694">
        <ele>122.5</ele>
        <time>2023-06-21T12:39:16Z</time>
      </trkpt>
      <trkpt lat="49.7601" lon="2.13694">
        <ele>122.5</ele>
        <time>2023-06-21T12:39:17Z</time>
      </trkpt>
      <trkpt lat="49.7601" lon="2.13694">
        <ele>122.5</ele>
        <time>2023-06-21T12:39:18Z</time>
      </trkpt>
      <trkpt lat="49.7601" lon="2.13694">
        <ele>122.5</ele>
        <time>2023-06-21T12:39:19Z</time>
      </trkpt>
      <trkpt lat="49.7601" lon="2.13694">
        <ele>122.5</ele>
        <time>2023-06-21T12:39:20Z</time>
      </trkpt>
      <trkpt lat="49.7601" lon="2.13694">
        <ele>122.5</ele>
        <time>2023-06-21T12:39:21Z</time>
      </trkpt>
      <trkpt lat="49.7601" lon="2.13694">
        <ele>122.5</ele>
        <time>2023-06-21T12:39:22Z</time>
      </trkpt>
      <trkpt lat="49.7601" lon="2.13694">
        <ele>122.5</ele>
        <time>2023-06-21T12:39:23Z</time>
      </trkpt>
      <trkpt lat="49.7601" lon="2.13694">
        <ele>122.5</ele>
        <time>2023-06-21T12:39:24Z</time>
      </trkpt>
      <trkpt lat="49.7601" lon="2.13694">
        <ele>122.5</ele>
        <time>2023-06-21T12:39:25Z</time>
      </trkpt>
      <trkpt lat="49.7601" lon="2.13694">
        <ele>122.5</ele>
        <time>2023-06-21T12:39:26Z</time>
      </trkpt>
      <trkpt lat="49.7601" lon="2.13696">
        <ele>122.6</ele>
        <time>2023-06-21T12:39:27Z</time>
      </trkpt>
      <trkpt lat="49.7601" lon="2.13696">
        <ele>122.6</ele>
        <time>2023-06-21T12:39:29Z</time>
      </trkpt>
      <trkpt lat="49.7601" lon="2.13697">
        <ele>122.6</ele>
        <time>2023-06-21T12:39:30Z</time>
      </trkpt>
      <trkpt lat="49.76011" lon="2.13696">
        <ele>122.6</ele>
        <time>2023-06-21T12:39:31Z</time>
      </trkpt>
      <trkpt lat="49.76011" lon="2.13696">
        <ele>122.6</ele>
        <time>2023-06-21T12:39:33Z</time>
      </trkpt>
      <trkpt lat="49.76011" lon="2.13695">
        <ele>122.7</ele>
        <time>2023-06-21T12:39:34Z</time>
      </trkpt>
      <trkpt lat="49.76012" lon="2.13695">
        <ele>122.7</ele>
        <time>2023-06-21T12:39:36Z</time>
      </trkpt>
      <trkpt lat="49.76012" lon="2.13695">
        <ele>122.7</ele>
        <time>2023-06-21T12:39:37Z</time>
      </trkpt>
      <trkpt lat="49.76012" lon="2.13695">
        <ele>122.7</ele>
        <time>2023-06-21T12:39:38Z</time>
      </trkpt>
      <trkpt lat="49.76012" lon="2.13695">
        <ele>122.7</ele>
        <time>2023-06-21T12:39:39Z</time>
      </trkpt>
      <trkpt lat="49.76012" lon="2.13695">
        <ele>122.7</ele>
        <time>2023-06-21T12:39:40Z</time>
      </trkpt>
      <trkpt lat="49.76013" lon="2.13695">
        <ele>122.7</ele>
        <time>2023-06-21T12:39:42Z</time>
      </trkpt>
      <trkpt lat="49.76013" lon="2.13695">
        <ele>122.7</ele>
        <time>2023-06-21T12:39:44Z</time>
      </trkpt>
      <trkpt lat="49.76013" lon="2.13694">
        <ele>122.7</ele>
        <time>2023-06-21T12:39:45Z</time>
      </trkpt>
      <trkpt lat="49.76013" lon="2.13694">
        <ele>122.8</ele>
        <time>2023-06-21T12:39:46Z</time>
      </trkpt>
      <trkpt lat="49.76014" lon="2.13694">
        <ele>122.8</ele>
        <time>2023-06-21T12:39:48Z</time>
      </trkpt>
      <trkpt lat="49.76014" lon="2.13693">
        <ele>122.8</ele>
        <time>2023-06-21T12:39:49Z</time>
      </trkpt>
      <trkpt lat="49.76014" lon="2.13693">
        <ele>122.8</ele>
        <time>2023-06-21T12:39:50Z</time>
      </trkpt>
      <trkpt lat="49.76014" lon="2.13693">
        <ele>122.8</ele>
        <time>2023-06-21T12:39:51Z</time>
      </trkpt>
      <trkpt lat="49.76014" lon="2.13693">
        <ele>122.8</ele>
        <time>2023-06-21T12:39:52Z</time>
      </trkpt>
      <trkpt lat="49.76014" lon="2.13693">
        <ele>122.8</ele>
        <time>2023-06-21T12:39:53Z</time>
      </trkpt>
      <trkpt lat="49.76014" lon="2.13693">
        <ele>122.8</ele>
        <time>2023-06-21T12:39:54Z</time>
      </trkpt>
      <trkpt lat="49.76014" lon="2.13693">
        <ele>122.8</ele>
        <time>2023-06-21T12:39:55Z</time>
      </trkpt>
      <trkpt lat="49.76014" lon="2.13693">
        <ele>122.8</ele>
        <time>2023-06-21T12:39:56Z</time>
      </trkpt>
      <trkpt lat="49.76014" lon="2.13693">
        <ele>122.8</ele>
        <time>2023-06-21T12:39:57Z</time>
      </trkpt>
      <trkpt lat="49.76014" lon="2.13693">
        <ele>122.8</ele>
        <time>2023-06-21T12:39:58Z</time>
      </trkpt>
      <trkpt lat="49.76014" lon="2.13693">
        <ele>122.8</ele>
        <time>2023-06-21T12:39:59Z</time>
      </trkpt>
      <trkpt lat="49.76014" lon="2.13693">
        <ele>122.8</ele>
        <time>2023-06-21T12:40:00Z</time>
      </trkpt>
      <trkpt lat="49.76014" lon="2.13693">
        <ele>122.8</ele>
        <time>2023-06-21T12:40:01Z</time>
      </trkpt>
      <trkpt lat="49.76014" lon="2.13693">
        <ele>122.8</ele>
        <time>2023-06-21T12:40:02Z</time>
      </trkpt>
      <trkpt lat="49.76014" lon="2.13692">
        <ele>122.8</ele>
        <time>2023-06-21T12:40:03Z</time>
      </trkpt>
      <trkpt lat="49.76014" lon="2.13692">
        <ele>122.8</ele>
        <time>2023-06-21T12:40:05Z</time>
      </trkpt>
      <trkpt lat="49.76015" lon="2.13691">
        <ele>122.9</ele>
        <time>2023-06-21T12:40:06Z</time>
      </trkpt>
      <trkpt lat="49.76016" lon="2.13692">
        <ele>122.9</ele>
        <time>2023-06-21T12:40:08Z</time>
      </trkpt>
      <trkpt lat="49.76016" lon="2.13693">
        <ele>122.9</ele>
        <time>2023-06-21T12:40:09Z</time>
      </trkpt>
      <trkpt lat="49.76015" lon="2.13693">
        <ele>122.9</ele>
        <time>2023-06-21T12:40:11Z</time>
      </trkpt>
      <trkpt lat="49.76015" lon="2.13692">
        <ele>123</ele>
        <time>2023-06-21T12:40:12Z</time>
      </trkpt>
      <trkpt lat="49.76015" lon="2.13692">
        <ele>123</ele>
        <time>2023-06-21T12:40:14Z</time>
      </trkpt>
      <trkpt lat="49.76015" lon="2.13692">
        <ele>123</ele>
        <time>2023-06-21T12:40:15Z</time>
      </trkpt>
      <trkpt lat="49.76015" lon="2.13693">
        <ele>123</ele>
        <time>2023-06-21T12:40:16Z</time>
      </trkpt>
      <trkpt lat="49.76015" lon="2.13693">
        <ele>123</ele>
        <time>2023-06-21T12:40:18Z</time>
      </trkpt>
      <trkpt lat="49.76015" lon="2.13693">
        <ele>123</ele>
        <time>2023-06-21T12:40:19Z</time>
      </trkpt>
      <trkpt lat="49.76015" lon="2.13693">
        <ele>123</ele>
        <time>2023-06-21T12:40:21Z</time>
      </trkpt>
      <trkpt lat="49.76015" lon="2.13693">
        <ele>123</ele>
        <time>2023-06-21T12:40:22Z</time>
      </trkpt>
      <trkpt lat="49.76015" lon="2.13693">
        <ele>123</ele>
        <time>2023-06-21T12:40:24Z</time>
      </trkpt>
      <trkpt lat="49.76014" lon="2.13693">
        <ele>123</ele>
        <time>2023-06-21T12:40:25Z</time>
      </trkpt>
      <trkpt lat="49.76014" lon="2.13692">
        <ele>123</ele>
        <time>2023-06-21T12:40:26Z</time>
      </trkpt>
      <trkpt lat="49.76014" lon="2.13692">
        <ele>123</ele>
        <time>2023-06-21T12:40:27Z</time>
      </trkpt>
      <trkpt lat="49.76014" lon="2.13692">
        <ele>123</ele>
        <time>2023-06-21T12:40:28Z</time>
      </trkpt>
      <trkpt lat="49.76014" lon="2.13692">
        <ele>123</ele>
        <time>2023-06-21T12:40:29Z</time>
      </trkpt>
      <trkpt lat="49.76014" lon="2.13692">
        <ele>123</ele>
        <time>2023-06-21T12:40:30Z</time>
      </trkpt>
      <trkpt lat="49.76013" lon="2.13692">
        <ele>123</ele>
        <time>2023-06-21T12:40:31Z</time>
      </trkpt>
      <trkpt lat="49.76013" lon="2.13692">
        <ele>123</ele>
        <time>2023-06-21T12:40:32Z</time>
      </trkpt>
      <trkpt lat="49.76013" lon="2.13692">
        <ele>123</ele>
        <time>2023-06-21T12:40:33Z</time>
      </trkpt>
      <trkpt lat="49.76014" lon="2.13692">
        <ele>123</ele>
        <time>2023-06-21T12:40:34Z</time>
      </trkpt>
      <trkpt lat="49.76014" lon="2.13692">
        <ele>123</ele>
        <time>2023-06-21T12:40:35Z</time>
      </trkpt>
      <trkpt lat="49.76014" lon="2.13692">
        <ele>123</ele>
        <time>2023-06-21T12:40:36Z</time>
      </trkpt>
      <trkpt lat="49.76014" lon="2.13692">
        <ele>123.1</ele>
        <time>2023-06-21T12:40:37Z</time>
      </trkpt>
      <trkpt lat="49.76014" lon="2.13692">
        <ele>123.1</ele>
        <time>2023-06-21T12:40:38Z</time>
      </trkpt>
      <trkpt lat="49.76014" lon="2.13692">
        <ele>123.1</ele>
        <time>2023-06-21T12:40:39Z</time>
      </trkpt>
      <trkpt lat="49.76014" lon="2.13692">
        <ele>123.1</ele>
        <time>2023-06-21T12:40:40Z</time>
      </trkpt>
      <trkpt lat="49.76014" lon="2.13692">
        <ele>123.1</ele>
        <time>2023-06-21T12:40:41Z</time>
      </trkpt>
      <trkpt lat="49.76014" lon="2.13692">
        <ele>123.1</ele>
        <time>2023-06-21T12:40:42Z</time>
      </trkpt>
      <trkpt lat="49.76014" lon="2.13692">
        <ele>123.1</ele>
        <time>2023-06-21T12:40:43Z</time>
      </trkpt>
      <trkpt lat="49.76014" lon="2.13691">
        <ele>123.1</ele>
        <time>2023-06-21T12:40:44Z</time>
      </trkpt>
      <trkpt lat="49.76014" lon="2.13689">
        <ele>123.1</ele>
        <time>2023-06-21T12:40:46Z</time>
      </trkpt>
      <trkpt lat="49.76014" lon="2.13688">
        <ele>123.2</ele>
        <time>2023-06-21T12:40:47Z</time>
      </trkpt>
      <trkpt lat="49.76013" lon="2.13688">
        <ele>123.2</ele>
        <time>2023-06-21T12:40:48Z</time>
      </trkpt>
      <trkpt lat="49.76013" lon="2.13688">
        <ele>123.2</ele>
        <time>2023-06-21T12:40:49Z</time>
      </trkpt>
      <trkpt lat="49.76012" lon="2.13687">
        <ele>123.2</ele>
        <time>2023-06-21T12:40:50Z</time>
      </trkpt>
      <trkpt lat="49.76011" lon="2.13685">
        <ele>123.3</ele>
        <time>2023-06-21T12:40:52Z</time>
      </trkpt>
      <trkpt lat="49.7601" lon="2.13684">
        <ele>123.4</ele>
        <time>2023-06-21T12:40:54Z</time>
      </trkpt>
      <trkpt lat="49.76009" lon="2.13683">
        <ele>123.4</ele>
        <time>2023-06-21T12:40:55Z</time>
      </trkpt>
      <trkpt lat="49.76009" lon="2.13683">
        <ele>123.4</ele>
        <time>2023-06-21T12:40:56Z</time>
      </trkpt>
      <trkpt lat="49.76008" lon="2.13683">
        <ele>123.4</ele>
        <time>2023-06-21T12:40:57Z</time>
      </trkpt>
      <trkpt lat="49.76008" lon="2.13682">
        <ele>123.5</ele>
        <time>2023-06-21T12:40:59Z</time>
      </trkpt>
      <trkpt lat="49.76008" lon="2.13681">
        <ele>123.5</ele>
        <time>2023-06-21T12:41:00Z</time>
      </trkpt>
      <trkpt lat="49.76008" lon="2.1368">
        <ele>123.5</ele>
        <time>2023-06-21T12:41:02Z</time>
      </trkpt>
      <trkpt lat="49.76008" lon="2.1368">
        <ele>123.5</ele>
        <time>2023-06-21T12:41:03Z</time>
      </trkpt>
      <trkpt lat="49.76008" lon="2.1368">
        <ele>123.5</ele>
        <time>2023-06-21T12:41:04Z</time>
      </trkpt>
      <trkpt lat="49.76008" lon="2.13679">
        <ele>123.5</ele>
        <time>2023-06-21T12:41:05Z</time>
      </trkpt>
      <trkpt lat="49.76008" lon="2.13678">
        <ele>123.6</ele>
        <time>2023-06-21T12:41:07Z</time>
      </trkpt>
      <trkpt lat="49.76007" lon="2.13676">
        <ele>123.6</ele>
        <time>2023-06-21T12:41:08Z</time>
      </trkpt>
      <trkpt lat="49.76007" lon="2.13675">
        <ele>123.6</ele>
        <time>2023-06-21T12:41:09Z</time>
      </trkpt>
      <trkpt lat="49.76007" lon="2.13674">
        <ele>123.7</ele>
        <time>2023-06-21T12:41:10Z</time>
      </trkpt>
      <trkpt lat="49.76006" lon="2.13673">
        <ele>123.7</ele>
        <time>2023-06-21T12:41:11Z</time>
      </trkpt>
      <trkpt lat="49.76005" lon="2.13672">
        <ele>123.8</ele>
        <time>2023-06-21T12:41:12Z</time>
      </trkpt>
      <trkpt lat="49.76005" lon="2.13671">
        <ele>123.8</ele>
        <time>2023-06-21T12:41:14Z</time>
      </trkpt>
      <trkpt lat="49.76003" lon="2.13669">
        <ele>123.9</ele>
        <time>2023-06-21T12:41:15Z</time>
      </trkpt>
      <trkpt lat="49.76002" lon="2.13668">
        <ele>123.9</ele>
        <time>2023-06-21T12:41:17Z</time>
      </trkpt>
      <trkpt lat="49.76001" lon="2.13667">
        <ele>123.9</ele>
        <time>2023-06-21T12:41:18Z</time>
      </trkpt>
      <trkpt lat="49.76001" lon="2.13666">
        <ele>124</ele>
        <time>2023-06-21T12:41:19Z</time>
      </trkpt>
      <trkpt lat="49.76" lon="2.13665">
        <ele>124</ele>
        <time>2023-06-21T12:41:20Z</time>
      </trkpt>
      <trkpt lat="49.75999" lon="2.13664">
        <ele>124.1</ele>
        <time>2023-06-21T12:41:21Z</time>
      </trkpt>
      <trkpt lat="49.75997" lon="2.13661">
        <ele>124.2</ele>
        <time>2023-06-21T12:41:22Z</time>
      </trkpt>
      <trkpt lat="49.75996" lon="2.1366">
        <ele>124.2</ele>
        <time>2023-06-21T12:41:24Z</time>
      </trkpt>
      <trkpt lat="49.75995" lon="2.13658">
        <ele>124.3</ele>
        <time>2023-06-21T12:41:25Z</time>
      </trkpt>
      <trkpt lat="49.75994" lon="2.13657">
        <ele>124.3</ele>
        <time>2023-06-21T12:41:26Z</time>
      </trkpt>
      <trkpt lat="49.75992" lon="2.13655">
        <ele>124.4</ele>
        <time>2023-06-21T12:41:27Z</time>
      </trkpt>
      <trkpt lat="49.7599" lon="2.13652">
        <ele>124.5</ele>
        <time>2023-06-21T12:41:29Z</time>
      </trkpt>
      <trkpt lat="49.75988" lon="2.1365">
        <ele>124.6</ele>
        <time>2023-06-21T12:41:30Z</time>
      </trkpt>
      <trkpt lat="49.75986" lon="2.13648">
        <ele>124.7</ele>
        <time>2023-06-21T12:41:31Z</time>
      </trkpt>
      <trkpt lat="49.75985" lon="2.13647">
        <ele>124.8</ele>
        <time>2023-06-21T12:41:32Z</time>
      </trkpt>
      <trkpt lat="49.75984" lon="2.13645">
        <ele>124.8</ele>
        <time>2023-06-21T12:41:33Z</time>
      </trkpt>
      <trkpt lat="49.75983" lon="2.13644">
        <ele>124.9</ele>
        <time>2023-06-21T12:41:34Z</time>
      </trkpt>
      <trkpt lat="49.75983" lon="2.13643">
        <ele>124.9</ele>
        <time>2023-06-21T12:41:35Z</time>
      </trkpt>
      <trkpt lat="49.75982" lon="2.1364">
        <ele>125</ele>
        <time>2023-06-21T12:41:37Z</time>
      </trkpt>
      <trkpt lat="49.75981" lon="2.13639">
        <ele>125</ele>
        <time>2023-06-21T12:41:39Z</time>
      </trkpt>
      <trkpt lat="49.7598" lon="2.13638">
        <ele>125.1</ele>
        <time>2023-06-21T12:41:40Z</time>
      </trkpt>
      <trkpt lat="49.7598" lon="2.13637">
        <ele>125.1</ele>
        <time>2023-06-21T12:41:41Z</time>
      </trkpt>
      <trkpt lat="49.75979" lon="2.13636">
        <ele>125.1</ele>
        <time>2023-06-21T12:41:42Z</time>
      </trkpt>
      <trkpt lat="49.75979" lon="2.13634">
        <ele>125.2</ele>
        <time>2023-06-21T12:41:43Z</time>
      </trkpt>
      <trkpt lat="49.75978" lon="2.13634">
        <ele>125.2</ele>
        <time>2023-06-21T12:41:45Z</time>
      </trkpt>
      <trkpt lat="49.75978" lon="2.13633">
        <ele>125.2</ele>
        <time>2023-06-21T12:41:46Z</time>
      </trkpt>
      <trkpt lat="49.75978" lon="2.13633">
        <ele>125.2</ele>
        <time>2023-06-21T12:41:47Z</time>
      </trkpt>
      <trkpt lat="49.75977" lon="2.13632">
        <ele>125.2</ele>
        <time>2023-06-21T12:41:48Z</time>
      </trkpt>
      <trkpt lat="49.75977" lon="2.13632">
        <ele>125.3</ele>
        <time>2023-06-21T12:41:49Z</time>
      </trkpt>
      <trkpt lat="49.75977" lon="2.13632">
        <ele>125.3</ele>
        <time>2023-06-21T12:41:50Z</time>
      </trkpt>
      <trkpt lat="49.75977" lon="2.13631">
        <ele>125.3</ele>
        <time>2023-06-21T12:41:52Z</time>
      </trkpt>
      <trkpt lat="49.75976" lon="2.1363">
        <ele>125.3</ele>
        <time>2023-06-21T12:41:53Z</time>
      </trkpt>
      <trkpt lat="49.75976" lon="2.13629">
        <ele>125.4</ele>
        <time>2023-06-21T12:41:54Z</time>
      </trkpt>
      <trkpt lat="49.75975" lon="2.13626">
        <ele>125.4</ele>
        <time>2023-06-21T12:41:55Z</time>
      </trkpt>
      <trkpt lat="49.75974" lon="2.13625">
        <ele>125.5</ele>
        <time>2023-06-21T12:41:56Z</time>
      </trkpt>
      <trkpt lat="49.75974" lon="2.13624">
        <ele>125.5</ele>
        <time>2023-06-21T12:41:57Z</time>
      </trkpt>
      <trkpt lat="49.75974" lon="2.13622">
        <ele>125.5</ele>
        <time>2023-06-21T12:41:59Z</time>
      </trkpt>
      <trkpt lat="49.75974" lon="2.1362">
        <ele>125.6</ele>
        <time>2023-06-21T12:42:00Z</time>
      </trkpt>
      <trkpt lat="49.75974" lon="2.13619">
        <ele>125.6</ele>
        <time>2023-06-21T12:42:01Z</time>
      </trkpt>
      <trkpt lat="49.75974" lon="2.13618">
        <ele>125.7</ele>
        <time>2023-06-21T12:42:02Z</time>
      </trkpt>
      <trkpt lat="49.75974" lon="2.13616">
        <ele>125.7</ele>
        <time>2023-06-21T12:42:03Z</time>
      </trkpt>
      <trkpt lat="49.75974" lon="2.13614">
        <ele>125.8</ele>
        <time>2023-06-21T12:42:05Z</time>
      </trkpt>
      <trkpt lat="49.75973" lon="2.13612">
        <ele>125.8</ele>
        <time>2023-06-21T12:42:06Z</time>
      </trkpt>
      <trkpt lat="49.75973" lon="2.1361">
        <ele>125.9</ele>
        <time>2023-06-21T12:42:07Z</time>
      </trkpt>
      <trkpt lat="49.75972" lon="2.13609">
        <ele>125.9</ele>
        <time>2023-06-21T12:42:08Z</time>
      </trkpt>
      <trkpt lat="49.75971" lon="2.13608">
        <ele>125.9</ele>
        <time>2023-06-21T12:42:09Z</time>
      </trkpt>
      <trkpt lat="49.75971" lon="2.13606">
        <ele>126</ele>
        <time>2023-06-21T12:42:10Z</time>
      </trkpt>
      <trkpt lat="49.75971" lon="2.13605">
        <ele>126</ele>
        <time>2023-06-21T12:42:12Z</time>
      </trkpt>
      <trkpt lat="49.7597" lon="2.13603">
        <ele>126.1</ele>
        <time>2023-06-21T12:42:13Z</time>
      </trkpt>
      <trkpt lat="49.7597" lon="2.13602">
        <ele>126.1</ele>
        <time>2023-06-21T12:42:14Z</time>
      </trkpt>
      <trkpt lat="49.7597" lon="2.13601">
        <ele>126.1</ele>
        <time>2023-06-21T12:42:15Z</time>
      </trkpt>
      <trkpt lat="49.75969" lon="2.13598">
        <ele>126.2</ele>
        <time>2023-06-21T12:42:16Z</time>
      </trkpt>
      <trkpt lat="49.75969" lon="2.13596">
        <ele>126.2</ele>
        <time>2023-06-21T12:42:18Z</time>
      </trkpt>
      <trkpt lat="49.75968" lon="2.13595">
        <ele>126.3</ele>
        <time>2023-06-21T12:42:19Z</time>
      </trkpt>
      <trkpt lat="49.75968" lon="2.13593">
        <ele>126.3</ele>
        <time>2023-06-21T12:42:20Z</time>
      </trkpt>
      <trkpt lat="49.75967" lon="2.13592">
        <ele>126.4</ele>
        <time>2023-06-21T12:42:21Z</time>
      </trkpt>
      <trkpt lat="49.75964" lon="2.13587">
        <ele>126.6</ele>
        <time>2023-06-21T12:42:23Z</time>
      </trkpt>
      <trkpt lat="49.75962" lon="2.13585">
        <ele>126.6</ele>
        <time>2023-06-21T12:42:24Z</time>
      </trkpt>
      <trkpt lat="49.75961" lon="2.13583">
        <ele>126.7</ele>
        <time>2023-06-21T12:42:25Z</time>
      </trkpt>
      <trkpt lat="49.75958" lon="2.13581">
        <ele>126.8</ele>
        <time>2023-06-21T12:42:26Z</time>
      </trkpt>
      <trkpt lat="49.75958" lon="2.1358">
        <ele>126.9</ele>
        <time>2023-06-21T12:42:27Z</time>
      </trkpt>
      <trkpt lat="49.75957" lon="2.13578">
        <ele>126.9</ele>
        <time>2023-06-21T12:42:28Z</time>
      </trkpt>
      <trkpt lat="49.75956" lon="2.13577">
        <ele>127</ele>
        <time>2023-06-21T12:42:30Z</time>
      </trkpt>
      <trkpt lat="49.75955" lon="2.13577">
        <ele>127</ele>
        <time>2023-06-21T12:42:31Z</time>
      </trkpt>
      <trkpt lat="49.75955" lon="2.13576">
        <ele>127</ele>
        <time>2023-06-21T12:42:32Z</time>
      </trkpt>
      <trkpt lat="49.75955" lon="2.13576">
        <ele>127</ele>
        <time>2023-06-21T12:42:33Z</time>
      </trkpt>
      <trkpt lat="49.75954" lon="2.13575">
        <ele>127</ele>
        <time>2023-06-21T12:42:34Z</time>
      </trkpt>
      <trkpt lat="49.75953" lon="2.13574">
        <ele>127.1</ele>
        <time>2023-06-21T12:42:35Z</time>
      </trkpt>
      <trkpt lat="49.75952" lon="2.13573">
        <ele>127.1</ele>
        <time>2023-06-21T12:42:36Z</time>
      </trkpt>
      <trkpt lat="49.75951" lon="2.13572">
        <ele>127.2</ele>
        <time>2023-06-21T12:42:38Z</time>
      </trkpt>
      <trkpt lat="49.7595" lon="2.13571">
        <ele>127.2</ele>
        <time>2023-06-21T12:42:39Z</time>
      </trkpt>
      <trkpt lat="49.7595" lon="2.13569">
        <ele>127.3</ele>
        <time>2023-06-21T12:42:40Z</time>
      </trkpt>
      <trkpt lat="49.75948" lon="2.13568">
        <ele>127.3</ele>
        <time>2023-06-21T12:42:41Z</time>
      </trkpt>
      <trkpt lat="49.75947" lon="2.13566">
        <ele>127.4</ele>
        <time>2023-06-21T12:42:42Z</time>
      </trkpt>
      <trkpt lat="49.75946" lon="2.13565">
        <ele>127.5</ele>
        <time>2023-06-21T12:42:44Z</time>
      </trkpt>
      <trkpt lat="49.75945" lon="2.13563">
        <ele>127.5</ele>
        <time>2023-06-21T12:42:45Z</time>
      </trkpt>
      <trkpt lat="49.75945" lon="2.13562">
        <ele>127.5</ele>
        <time>2023-06-21T12:42:46Z</time>
      </trkpt>
      <trkpt lat="49.75944" lon="2.13561">
        <ele>127.6</ele>
        <time>2023-06-21T12:42:47Z</time>
      </trkpt>
      <trkpt lat="49.75943" lon="2.13559">
        <ele>127.6</ele>
        <time>2023-06-21T12:42:48Z</time>
      </trkpt>
      <trkpt lat="49.75943" lon="2.13559">
        <ele>127.6</ele>
        <time>2023-06-21T12:42:49Z</time>
      </trkpt>
      <trkpt lat="49.75943" lon="2.13559">
        <ele>127.6</ele>
        <time>2023-06-21T12:42:51Z</time>
      </trkpt>
      <trkpt lat="49.75943" lon="2.13558">
        <ele>127.7</ele>
        <time>2023-06-21T12:42:52Z</time>
      </trkpt>
      <trkpt lat="49.75942" lon="2.13557">
        <ele>127.7</ele>
        <time>2023-06-21T12:42:53Z</time>
      </trkpt>
      <trkpt lat="49.75942" lon="2.13555">
        <ele>127.7</ele>
        <time>2023-06-21T12:42:54Z</time>
      </trkpt>
      <trkpt lat="49.75941" lon="2.13553">
        <ele>127.8</ele>
        <time>2023-06-21T12:42:55Z</time>
      </trkpt>
      <trkpt lat="49.75941" lon="2.13551">
        <ele>127.9</ele>
        <time>2023-06-21T12:42:57Z</time>
      </trkpt>
      <trkpt lat="49.7594" lon="2.13549">
        <ele>127.9</ele>
        <time>2023-06-21T12:42:58Z</time>
      </trkpt>
      <trkpt lat="49.75939" lon="2.13547">
        <ele>128</ele>
        <time>2023-06-21T12:42:59Z</time>
      </trkpt>
      <trkpt lat="49.75937" lon="2.1354">
        <ele>128.2</ele>
        <time>2023-06-21T12:43:01Z</time>
      </trkpt>
      <trkpt lat="49.75937" lon="2.13538">
        <ele>128.2</ele>
        <time>2023-06-21T12:43:02Z</time>
      </trkpt>
      <trkpt lat="49.75936" lon="2.13536">
        <ele>128.3</ele>
        <time>2023-06-21T12:43:03Z</time>
      </trkpt>
      <trkpt lat="49.75936" lon="2.13533">
        <ele>128.3</ele>
        <time>2023-06-21T12:43:04Z</time>
      </trkpt>
      <trkpt lat="49.75935" lon="2.1353">
        <ele>128.4</ele>
        <time>2023-06-21T12:43:06Z</time>
      </trkpt>
      <trkpt lat="49.75935" lon="2.13528">
        <ele>128.5</ele>
        <time>2023-06-21T12:43:07Z</time>
      </trkpt>
      <trkpt lat="49.75934" lon="2.13526">
        <ele>128.5</ele>
        <time>2023-06-21T12:43:09Z</time>
      </trkpt>
      <trkpt lat="49.75934" lon="2.13523">
        <ele>128.6</ele>
        <time>2023-06-21T12:43:10Z</time>
      </trkpt>
      <trkpt lat="49.75934" lon="2.13521">
        <ele>128.7</ele>
        <time>2023-06-21T12:43:11Z</time>
      </trkpt>
      <trkpt lat="49.75933" lon="2.1352">
        <ele>128.7</ele>
        <time>2023-06-21T12:43:12Z</time>
      </trkpt>
      <trkpt lat="49.75933" lon="2.13518">
        <ele>128.7</ele>
        <time>2023-06-21T12:43:13Z</time>
      </trkpt>
      <trkpt lat="49.75933" lon="2.13516">
        <ele>128.8</ele>
        <time>2023-06-21T12:43:15Z</time>
      </trkpt>
      <trkpt lat="49.75933" lon="2.13514">
        <ele>128.8</ele>
        <time>2023-06-21T12:43:16Z</time>
      </trkpt>
      <trkpt lat="49.75932" lon="2.13513">
        <ele>128.9</ele>
        <time>2023-06-21T12:43:17Z</time>
      </trkpt>
      <trkpt lat="49.75932" lon="2.13512">
        <ele>128.9</ele>
        <time>2023-06-21T12:43:18Z</time>
      </trkpt>
      <trkpt lat="49.75932" lon="2.13511">
        <ele>128.9</ele>
        <time>2023-06-21T12:43:19Z</time>
      </trkpt>
      <trkpt lat="49.75932" lon="2.1351">
        <ele>128.9</ele>
        <time>2023-06-21T12:43:21Z</time>
      </trkpt>
      <trkpt lat="49.75932" lon="2.13509">
        <ele>129</ele>
        <time>2023-06-21T12:43:22Z</time>
      </trkpt>
      <trkpt lat="49.75932" lon="2.13508">
        <ele>129</ele>
        <time>2023-06-21T12:43:23Z</time>
      </trkpt>
      <trkpt lat="49.75932" lon="2.13506">
        <ele>129</ele>
        <time>2023-06-21T12:43:24Z</time>
      </trkpt>
      <trkpt lat="49.75931" lon="2.13504">
        <ele>129.1</ele>
        <time>2023-06-21T12:43:25Z</time>
      </trkpt>
      <trkpt lat="49.75931" lon="2.13502">
        <ele>129.2</ele>
        <time>2023-06-21T12:43:26Z</time>
      </trkpt>
      <trkpt lat="49.7593" lon="2.13499">
        <ele>129.3</ele>
        <time>2023-06-21T12:43:27Z</time>
      </trkpt>
      <trkpt lat="49.7593" lon="2.13496">
        <ele>129.3</ele>
        <time>2023-06-21T12:43:29Z</time>
      </trkpt>
      <trkpt lat="49.75929" lon="2.13492">
        <ele>129.4</ele>
        <time>2023-06-21T12:43:30Z</time>
      </trkpt>
      <trkpt lat="49.75928" lon="2.1349">
        <ele>129.5</ele>
        <time>2023-06-21T12:43:31Z</time>
      </trkpt>
      <trkpt lat="49.75927" lon="2.13488">
        <ele>129.5</ele>
        <time>2023-06-21T12:43:32Z</time>
      </trkpt>
      <trkpt lat="49.75927" lon="2.13486">
        <ele>129.6</ele>
        <time>2023-06-21T12:43:33Z</time>
      </trkpt>
      <trkpt lat="49.75926" lon="2.13483">
        <ele>129.7</ele>
        <time>2023-06-21T12:43:34Z</time>
      </trkpt>
      <trkpt lat="49.75925" lon="2.13481">
        <ele>129.7</ele>
        <time>2023-06-21T12:43:36Z</time>
      </trkpt>
      <trkpt lat="49.75925" lon="2.1348">
        <ele>129.8</ele>
        <time>2023-06-21T12:43:37Z</time>
      </trkpt>
      <trkpt lat="49.75924" lon="2.13478">
        <ele>129.8</ele>
        <time>2023-06-21T12:43:38Z</time>
      </trkpt>
      <trkpt lat="49.75923" lon="2.13477">
        <ele>129.9</ele>
        <time>2023-06-21T12:43:39Z</time>
      </trkpt>
      <trkpt lat="49.75922" lon="2.13475">
        <ele>129.9</ele>
        <time>2023-06-21T12:43:40Z</time>
      </trkpt>
      <trkpt lat="49.75921" lon="2.13473">
        <ele>130</ele>
        <time>2023-06-21T12:43:41Z</time>
      </trkpt>
      <trkpt lat="49.7592" lon="2.1347">
        <ele>130.1</ele>
        <time>2023-06-21T12:43:42Z</time>
      </trkpt>
      <trkpt lat="49.7592" lon="2.13468">
        <ele>130.1</ele>
        <time>2023-06-21T12:43:44Z</time>
      </trkpt>
      <trkpt lat="49.75919" lon="2.13466">
        <ele>130.2</ele>
        <time>2023-06-21T12:43:45Z</time>
      </trkpt>
      <trkpt lat="49.75918" lon="2.13464">
        <ele>130.2</ele>
        <time>2023-06-21T12:43:46Z</time>
      </trkpt>
      <trkpt lat="49.75918" lon="2.13462">
        <ele>130.3</ele>
        <time>2023-06-21T12:43:47Z</time>
      </trkpt>
      <trkpt lat="49.75917" lon="2.1346">
        <ele>130.4</ele>
        <time>2023-06-21T12:43:48Z</time>
      </trkpt>
      <trkpt lat="49.75916" lon="2.13457">
        <ele>130.4</ele>
        <time>2023-06-21T12:43:49Z</time>
      </trkpt>
      <trkpt lat="49.75915" lon="2.13455">
        <ele>130.5</ele>
        <time>2023-06-21T12:43:50Z</time>
      </trkpt>
      <trkpt lat="49.75915" lon="2.13453">
        <ele>130.6</ele>
        <time>2023-06-21T12:43:52Z</time>
      </trkpt>
      <trkpt lat="49.75914" lon="2.13451">
        <ele>130.6</ele>
        <time>2023-06-21T12:43:53Z</time>
      </trkpt>
      <trkpt lat="49.75914" lon="2.13451">
        <ele>130.6</ele>
        <time>2023-06-21T12:43:54Z</time>
      </trkpt>
      <trkpt lat="49.75914" lon="2.1345">
        <ele>130.6</ele>
        <time>2023-06-21T12:43:55Z</time>
      </trkpt>
      <trkpt lat="49.75914" lon="2.13449">
        <ele>130.7</ele>
        <time>2023-06-21T12:43:56Z</time>
      </trkpt>
      <trkpt lat="49.75913" lon="2.13447">
        <ele>130.7</ele>
        <time>2023-06-21T12:43:57Z</time>
      </trkpt>
      <trkpt lat="49.75913" lon="2.13447">
        <ele>130.7</ele>
        <time>2023-06-21T12:43:59Z</time>
      </trkpt>
      <trkpt lat="49.75913" lon="2.13446">
        <ele>130.7</ele>
        <time>2023-06-21T12:44:00Z</time>
      </trkpt>
      <trkpt lat="49.75913" lon="2.13446">
        <ele>130.8</ele>
        <time>2023-06-21T12:44:01Z</time>
      </trkpt>
      <trkpt lat="49.75912" lon="2.13444">
        <ele>130.8</ele>
        <time>2023-06-21T12:44:02Z</time>
      </trkpt>
      <trkpt lat="49.75911" lon="2.13442">
        <ele>130.9</ele>
        <time>2023-06-21T12:44:03Z</time>
      </trkpt>
      <trkpt lat="49.7591" lon="2.1344">
        <ele>130.9</ele>
        <time>2023-06-21T12:44:04Z</time>
      </trkpt>
      <trkpt lat="49.75909" lon="2.13438">
        <ele>131</ele>
        <time>2023-06-21T12:44:05Z</time>
      </trkpt>
      <trkpt lat="49.75909" lon="2.13437">
        <ele>131</ele>
        <time>2023-06-21T12:44:07Z</time>
      </trkpt>
      <trkpt lat="49.75908" lon="2.13436">
        <ele>131.1</ele>
        <time>2023-06-21T12:44:08Z</time>
      </trkpt>
      <trkpt lat="49.75908" lon="2.13434">
        <ele>131.1</ele>
        <time>2023-06-21T12:44:09Z</time>
      </trkpt>
      <trkpt lat="49.75907" lon="2.13433">
        <ele>131.2</ele>
        <time>2023-06-21T12:44:10Z</time>
      </trkpt>
      <trkpt lat="49.75906" lon="2.13431">
        <ele>131.2</ele>
        <time>2023-06-21T12:44:11Z</time>
      </trkpt>
      <trkpt lat="49.75905" lon="2.13429">
        <ele>131.3</ele>
        <time>2023-06-21T12:44:12Z</time>
      </trkpt>
      <trkpt lat="49.75904" lon="2.13427">
        <ele>131.4</ele>
        <time>2023-06-21T12:44:13Z</time>
      </trkpt>
      <trkpt lat="49.75903" lon="2.13425">
        <ele>131.4</ele>
        <time>2023-06-21T12:44:14Z</time>
      </trkpt>
      <trkpt lat="49.75902" lon="2.13423">
        <ele>131.5</ele>
        <time>2023-06-21T12:44:15Z</time>
      </trkpt>
      <trkpt lat="49.75901" lon="2.13421">
        <ele>131.5</ele>
        <time>2023-06-21T12:44:17Z</time>
      </trkpt>
      <trkpt lat="49.75901" lon="2.1342">
        <ele>131.6</ele>
        <time>2023-06-21T12:44:18Z</time>
      </trkpt>
      <trkpt lat="49.759" lon="2.13419">
        <ele>131.6</ele>
        <time>2023-06-21T12:44:19Z</time>
      </trkpt>
      <trkpt lat="49.759" lon="2.13418">
        <ele>131.6</ele>
        <time>2023-06-21T12:44:21Z</time>
      </trkpt>
      <trkpt lat="49.75899" lon="2.13417">
        <ele>131.7</ele>
        <time>2023-06-21T12:44:22Z</time>
      </trkpt>
      <trkpt lat="49.75899" lon="2.13416">
        <ele>131.7</ele>
        <time>2023-06-21T12:44:23Z</time>
      </trkpt>
      <trkpt lat="49.75898" lon="2.13415">
        <ele>131.7</ele>
        <time>2023-06-21T12:44:24Z</time>
      </trkpt>
      <trkpt lat="49.75898" lon="2.13414">
        <ele>131.8</ele>
        <time>2023-06-21T12:44:25Z</time>
      </trkpt>
      <trkpt lat="49.75898" lon="2.13413">
        <ele>131.8</ele>
        <time>2023-06-21T12:44:26Z</time>
      </trkpt>
      <trkpt lat="49.75898" lon="2.13413">
        <ele>131.8</ele>
        <time>2023-06-21T12:44:28Z</time>
      </trkpt>
      <trkpt lat="49.75897" lon="2.13412">
        <ele>131.8</ele>
        <time>2023-06-21T12:44:29Z</time>
      </trkpt>
      <trkpt lat="49.75897" lon="2.13411">
        <ele>131.8</ele>
        <time>2023-06-21T12:44:30Z</time>
      </trkpt>
      <trkpt lat="49.75896" lon="2.1341">
        <ele>131.9</ele>
        <time>2023-06-21T12:44:31Z</time>
      </trkpt>
      <trkpt lat="49.75896" lon="2.13409">
        <ele>131.9</ele>
        <time>2023-06-21T12:44:32Z</time>
      </trkpt>
      <trkpt lat="49.75895" lon="2.13407">
        <ele>132</ele>
        <time>2023-06-21T12:44:33Z</time>
      </trkpt>
      <trkpt lat="49.75894" lon="2.13406">
        <ele>132</ele>
        <time>2023-06-21T12:44:34Z</time>
      </trkpt>
      <trkpt lat="49.75894" lon="2.13405">
        <ele>132</ele>
        <time>2023-06-21T12:44:36Z</time>
      </trkpt>
      <trkpt lat="49.75893" lon="2.13403">
        <ele>132.1</ele>
        <time>2023-06-21T12:44:37Z</time>
      </trkpt>
      <trkpt lat="49.75893" lon="2.13403">
        <ele>132.1</ele>
        <time>2023-06-21T12:44:38Z</time>
      </trkpt>
      <trkpt lat="49.75892" lon="2.13403">
        <ele>132.1</ele>
        <time>2023-06-21T12:44:39Z</time>
      </trkpt>
      <trkpt lat="49.75892" lon="2.13402">
        <ele>132.1</ele>
        <time>2023-06-21T12:44:40Z</time>
      </trkpt>
      <trkpt lat="49.75891" lon="2.13401">
        <ele>132.2</ele>
        <time>2023-06-21T12:44:41Z</time>
      </trkpt>
      <trkpt lat="49.75891" lon="2.134">
        <ele>132.2</ele>
        <time>2023-06-21T12:44:42Z</time>
      </trkpt>
      <trkpt lat="49.7589" lon="2.13398">
        <ele>132.3</ele>
        <time>2023-06-21T12:44:44Z</time>
      </trkpt>
      <trkpt lat="49.75889" lon="2.13396">
        <ele>132.3</ele>
        <time>2023-06-21T12:44:45Z</time>
      </trkpt>
      <trkpt lat="49.75888" lon="2.13394">
        <ele>132.4</ele>
        <time>2023-06-21T12:44:46Z</time>
      </trkpt>
      <trkpt lat="49.75887" lon="2.13392">
        <ele>132.5</ele>
        <time>2023-06-21T12:44:47Z</time>
      </trkpt>
      <trkpt lat="49.75885" lon="2.13389">
        <ele>132.6</ele>
        <time>2023-06-21T12:44:48Z</time>
      </trkpt>
      <trkpt lat="49.75885" lon="2.13387">
        <ele>132.6</ele>
        <time>2023-06-21T12:44:49Z</time>
      </trkpt>
      <trkpt lat="49.75884" lon="2.13385">
        <ele>132.7</ele>
        <time>2023-06-21T12:44:50Z</time>
      </trkpt>
      <trkpt lat="49.75883" lon="2.13383">
        <ele>132.7</ele>
        <time>2023-06-21T12:44:51Z</time>
      </trkpt>
      <trkpt lat="49.75882" lon="2.13381">
        <ele>132.8</ele>
        <time>2023-06-21T12:44:53Z</time>
      </trkpt>
      <trkpt lat="49.75881" lon="2.13379">
        <ele>132.8</ele>
        <time>2023-06-21T12:44:54Z</time>
      </trkpt>
      <trkpt lat="49.75881" lon="2.13378">
        <ele>132.8</ele>
        <time>2023-06-21T12:44:55Z</time>
      </trkpt>
      <trkpt lat="49.75881" lon="2.13377">
        <ele>132.9</ele>
        <time>2023-06-21T12:44:56Z</time>
      </trkpt>
      <trkpt lat="49.7588" lon="2.13375">
        <ele>132.9</ele>
        <time>2023-06-21T12:44:57Z</time>
      </trkpt>
      <trkpt lat="49.7588" lon="2.13374">
        <ele>132.9</ele>
        <time>2023-06-21T12:44:58Z</time>
      </trkpt>
      <trkpt lat="49.75879" lon="2.13372">
        <ele>133</ele>
        <time>2023-06-21T12:45:00Z</time>
      </trkpt>
      <trkpt lat="49.75879" lon="2.13371">
        <ele>133</ele>
        <time>2023-06-21T12:45:01Z</time>
      </trkpt>
      <trkpt lat="49.75879" lon="2.1337">
        <ele>133</ele>
        <time>2023-06-21T12:45:02Z</time>
      </trkpt>
      <trkpt lat="49.75879" lon="2.13369">
        <ele>133</ele>
        <time>2023-06-21T12:45:03Z</time>
      </trkpt>
      <trkpt lat="49.75879" lon="2.13369">
        <ele>133</ele>
        <time>2023-06-21T12:45:04Z</time>
      </trkpt>
      <trkpt lat="49.75879" lon="2.13368">
        <ele>133</ele>
        <time>2023-06-21T12:45:05Z</time>
      </trkpt>
      <trkpt lat="49.75879" lon="2.13367">
        <ele>133.1</ele>
        <time>2023-06-21T12:45:06Z</time>
      </trkpt>
      <trkpt lat="49.75878" lon="2.13365">
        <ele>133.1</ele>
        <time>2023-06-21T12:45:08Z</time>
      </trkpt>
      <trkpt lat="49.75878" lon="2.13364">
        <ele>133.1</ele>
        <time>2023-06-21T12:45:09Z</time>
      </trkpt>
      <trkpt lat="49.75878" lon="2.13362">
        <ele>133.2</ele>
        <time>2023-06-21T12:45:10Z</time>
      </trkpt>
      <trkpt lat="49.75878" lon="2.13361">
        <ele>133.2</ele>
        <time>2023-06-21T12:45:11Z</time>
      </trkpt>
      <trkpt lat="49.75878" lon="2.13359">
        <ele>133.2</ele>
        <time>2023-06-21T12:45:12Z</time>
      </trkpt>
      <trkpt lat="49.75877" lon="2.13357">
        <ele>133.3</ele>
        <time>2023-06-21T12:45:13Z</time>
      </trkpt>
      <trkpt lat="49.75877" lon="2.13356">
        <ele>133.3</ele>
        <time>2023-06-21T12:45:14Z</time>
      </trkpt>
      <trkpt lat="49.75877" lon="2.13354">
        <ele>133.3</ele>
        <time>2023-06-21T12:45:15Z</time>
      </trkpt>
      <trkpt lat="49.75877" lon="2.13348">
        <ele>133.4</ele>
        <time>2023-06-21T12:45:17Z</time>
      </trkpt>
      <trkpt lat="49.75876" lon="2.13346">
        <ele>133.5</ele>
        <time>2023-06-21T12:45:19Z</time>
      </trkpt>
      <trkpt lat="49.75876" lon="2.13343">
        <ele>133.5</ele>
        <time>2023-06-21T12:45:20Z</time>
      </trkpt>
      <trkpt lat="49.75875" lon="2.1334">
        <ele>133.6</ele>
        <time>2023-06-21T12:45:22Z</time>
      </trkpt>
      <trkpt lat="49.75875" lon="2.13338">
        <ele>133.7</ele>
        <time>2023-06-21T12:45:23Z</time>
      </trkpt>
      <trkpt lat="49.75874" lon="2.13335">
        <ele>133.7</ele>
        <time>2023-06-21T12:45:24Z</time>
      </trkpt>
      <trkpt lat="49.75872" lon="2.13332">
        <ele>133.8</ele>
        <time>2023-06-21T12:45:25Z</time>
      </trkpt>
      <trkpt lat="49.7587" lon="2.13328">
        <ele>133.9</ele>
        <time>2023-06-21T12:45:26Z</time>
      </trkpt>
      <trkpt lat="49.7587" lon="2.13327">
        <ele>133.9</ele>
        <time>2023-06-21T12:45:27Z</time>
      </trkpt>
      <trkpt lat="49.75869" lon="2.13325">
        <ele>134</ele>
        <time>2023-06-21T12:45:28Z</time>
      </trkpt>
      <trkpt lat="49.75867" lon="2.13322">
        <ele>134</ele>
        <time>2023-06-21T12:45:30Z</time>
      </trkpt>
      <trkpt lat="49.75866" lon="2.13319">
        <ele>134.1</ele>
        <time>2023-06-21T12:45:31Z</time>
      </trkpt>
      <trkpt lat="49.75865" lon="2.13317">
        <ele>134.2</ele>
        <time>2023-06-21T12:45:32Z</time>
      </trkpt>
      <trkpt lat="49.75863" lon="2.13314">
        <ele>134.3</ele>
        <time>2023-06-21T12:45:33Z</time>
      </trkpt>
      <trkpt lat="49.75863" lon="2.13313">
        <ele>134.3</ele>
        <time>2023-06-21T12:45:34Z</time>
      </trkpt>
      <trkpt lat="49.75862" lon="2.13312">
        <ele>134.3</ele>
        <time>2023-06-21T12:45:35Z</time>
      </trkpt>
      <trkpt lat="49.75862" lon="2.13311">
        <ele>134.3</ele>
        <time>2023-06-21T12:45:36Z</time>
      </trkpt>
      <trkpt lat="49.75862" lon="2.1331">
        <ele>134.4</ele>
        <time>2023-06-21T12:45:37Z</time>
      </trkpt>
      <trkpt lat="49.75861" lon="2.13309">
        <ele>134.4</ele>
        <time>2023-06-21T12:45:39Z</time>
      </trkpt>
      <trkpt lat="49.75861" lon="2.13307">
        <ele>134.4</ele>
        <time>2023-06-21T12:45:40Z</time>
      </trkpt>
      <trkpt lat="49.75861" lon="2.13306">
        <ele>134.4</ele>
        <time>2023-06-21T12:45:41Z</time>
      </trkpt>
      <trkpt lat="49.75861" lon="2.13304">
        <ele>134.5</ele>
        <time>2023-06-21T12:45:42Z</time>
      </trkpt>
      <trkpt lat="49.75861" lon="2.13303">
        <ele>134.5</ele>
        <time>2023-06-21T12:45:43Z</time>
      </trkpt>
      <trkpt lat="49.75861" lon="2.13302">
        <ele>134.5</ele>
        <time>2023-06-21T12:45:44Z</time>
      </trkpt>
      <trkpt lat="49.7586" lon="2.13301">
        <ele>134.5</ele>
        <time>2023-06-21T12:45:45Z</time>
      </trkpt>
      <trkpt lat="49.7586" lon="2.13299">
        <ele>134.6</ele>
        <time>2023-06-21T12:45:46Z</time>
      </trkpt>
      <trkpt lat="49.7586" lon="2.13298">
        <ele>134.6</ele>
        <time>2023-06-21T12:45:48Z</time>
      </trkpt>
      <trkpt lat="49.7586" lon="2.13296">
        <ele>134.6</ele>
        <time>2023-06-21T12:45:49Z</time>
      </trkpt>
      <trkpt lat="49.7586" lon="2.13295">
        <ele>134.7</ele>
        <time>2023-06-21T12:45:50Z</time>
      </trkpt>
      <trkpt lat="49.7586" lon="2.13292">
        <ele>134.7</ele>
        <time>2023-06-21T12:45:51Z</time>
      </trkpt>
      <trkpt lat="49.75859" lon="2.1329">
        <ele>134.8</ele>
        <time>2023-06-21T12:45:53Z</time>
      </trkpt>
      <trkpt lat="49.75859" lon="2.13289">
        <ele>134.8</ele>
        <time>2023-06-21T12:45:54Z</time>
      </trkpt>
      <trkpt lat="49.75858" lon="2.13285">
        <ele>134.9</ele>
        <time>2023-06-21T12:45:55Z</time>
      </trkpt>
      <trkpt lat="49.75857" lon="2.13282">
        <ele>134.9</ele>
        <time>2023-06-21T12:45:57Z</time>
      </trkpt>
      <trkpt lat="49.75857" lon="2.1328">
        <ele>135</ele>
        <time>2023-06-21T12:45:58Z</time>
      </trkpt>
      <trkpt lat="49.75856" lon="2.13278">
        <ele>135</ele>
        <time>2023-06-21T12:45:59Z</time>
      </trkpt>
      <trkpt lat="49.75856" lon="2.13276">
        <ele>135.1</ele>
        <time>2023-06-21T12:46:00Z</time>
      </trkpt>
      <trkpt lat="49.75855" lon="2.13275">
        <ele>135.1</ele>
        <time>2023-06-21T12:46:02Z</time>
      </trkpt>
      <trkpt lat="49.75854" lon="2.13273">
        <ele>135.1</ele>
        <time>2023-06-21T12:46:03Z</time>
      </trkpt>
      <trkpt lat="49.75854" lon="2.13272">
        <ele>135.2</ele>
        <time>2023-06-21T12:46:05Z</time>
      </trkpt>
      <trkpt lat="49.75854" lon="2.13271">
        <ele>135.2</ele>
        <time>2023-06-21T12:46:06Z</time>
      </trkpt>
      <trkpt lat="49.75853" lon="2.13269">
        <ele>135.2</ele>
        <time>2023-06-21T12:46:07Z</time>
      </trkpt>
      <trkpt lat="49.75853" lon="2.13267">
        <ele>135.3</ele>
        <time>2023-06-21T12:46:08Z</time>
      </trkpt>
      <trkpt lat="49.75852" lon="2.13266">
        <ele>135.3</ele>
        <time>2023-06-21T12:46:09Z</time>
      </trkpt>
      <trkpt lat="49.75852" lon="2.13266">
        <ele>135.3</ele>
        <time>2023-06-21T12:46:11Z</time>
      </trkpt>
      <trkpt lat="49.75851" lon="2.13265">
        <ele>135.3</ele>
        <time>2023-06-21T12:46:12Z</time>
      </trkpt>
      <trkpt lat="49.75851" lon="2.13263">
        <ele>135.4</ele>
        <time>2023-06-21T12:46:14Z</time>
      </trkpt>
      <trkpt lat="49.7585" lon="2.13262">
        <ele>135.4</ele>
        <time>2023-06-21T12:46:15Z</time>
      </trkpt>
      <trkpt lat="49.7585" lon="2.13261">
        <ele>135.4</ele>
        <time>2023-06-21T12:46:16Z</time>
      </trkpt>
      <trkpt lat="49.7585" lon="2.1326">
        <ele>135.4</ele>
        <time>2023-06-21T12:46:17Z</time>
      </trkpt>
      <trkpt lat="49.75849" lon="2.13259">
        <ele>135.5</ele>
        <time>2023-06-21T12:46:18Z</time>
      </trkpt>
      <trkpt lat="49.75849" lon="2.13257">
        <ele>135.5</ele>
        <time>2023-06-21T12:46:20Z</time>
      </trkpt>
      <trkpt lat="49.75848" lon="2.13255">
        <ele>135.5</ele>
        <time>2023-06-21T12:46:21Z</time>
      </trkpt>
      <trkpt lat="49.75847" lon="2.13252">
        <ele>135.6</ele>
        <time>2023-06-21T12:46:23Z</time>
      </trkpt>
      <trkpt lat="49.75847" lon="2.1325">
        <ele>135.6</ele>
        <time>2023-06-21T12:46:24Z</time>
      </trkpt>
      <trkpt lat="49.75847" lon="2.13248">
        <ele>135.7</ele>
        <time>2023-06-21T12:46:25Z</time>
      </trkpt>
      <trkpt lat="49.75846" lon="2.13245">
        <ele>135.8</ele>
        <time>2023-06-21T12:46:26Z</time>
      </trkpt>
      <trkpt lat="49.75846" lon="2.13243">
        <ele>135.8</ele>
        <time>2023-06-21T12:46:28Z</time>
      </trkpt>
      <trkpt lat="49.75845" lon="2.13242">
        <ele>135.8</ele>
        <time>2023-06-21T12:46:29Z</time>
      </trkpt>
      <trkpt lat="49.75845" lon="2.13239">
        <ele>135.9</ele>
        <time>2023-06-21T12:46:30Z</time>
      </trkpt>
      <trkpt lat="49.75844" lon="2.13237">
        <ele>135.9</ele>
        <time>2023-06-21T12:46:31Z</time>
      </trkpt>
      <trkpt lat="49.75844" lon="2.13235">
        <ele>136</ele>
        <time>2023-06-21T12:46:32Z</time>
      </trkpt>
      <trkpt lat="49.75843" lon="2.13231">
        <ele>136</ele>
        <time>2023-06-21T12:46:34Z</time>
      </trkpt>
      <trkpt lat="49.75843" lon="2.13229">
        <ele>136.1</ele>
        <time>2023-06-21T12:46:35Z</time>
      </trkpt>
      <trkpt lat="49.75842" lon="2.13227">
        <ele>136.1</ele>
        <time>2023-06-21T12:46:36Z</time>
      </trkpt>
      <trkpt lat="49.75841" lon="2.13223">
        <ele>136.2</ele>
        <time>2023-06-21T12:46:37Z</time>
      </trkpt>
      <trkpt lat="49.7584" lon="2.13221">
        <ele>136.3</ele>
        <time>2023-06-21T12:46:38Z</time>
      </trkpt>
      <trkpt lat="49.75839" lon="2.13218">
        <ele>136.3</ele>
        <time>2023-06-21T12:46:39Z</time>
      </trkpt>
      <trkpt lat="49.75838" lon="2.13216">
        <ele>136.4</ele>
        <time>2023-06-21T12:46:41Z</time>
      </trkpt>
      <trkpt lat="49.75837" lon="2.13213">
        <ele>136.5</ele>
        <time>2023-06-21T12:46:42Z</time>
      </trkpt>
      <trkpt lat="49.75837" lon="2.13211">
        <ele>136.5</ele>
        <time>2023-06-21T12:46:43Z</time>
      </trkpt>
      <trkpt lat="49.75836" lon="2.13209">
        <ele>136.5</ele>
        <time>2023-06-21T12:46:44Z</time>
      </trkpt>
      <trkpt lat="49.75836" lon="2.13208">
        <ele>136.6</ele>
        <time>2023-06-21T12:46:45Z</time>
      </trkpt>
      <trkpt lat="49.75835" lon="2.13207">
        <ele>136.6</ele>
        <time>2023-06-21T12:46:46Z</time>
      </trkpt>
      <trkpt lat="49.75835" lon="2.13206">
        <ele>136.6</ele>
        <time>2023-06-21T12:46:47Z</time>
      </trkpt>
      <trkpt lat="49.75834" lon="2.13205">
        <ele>136.6</ele>
        <time>2023-06-21T12:46:49Z</time>
      </trkpt>
      <trkpt lat="49.75834" lon="2.13203">
        <ele>136.7</ele>
        <time>2023-06-21T12:46:50Z</time>
      </trkpt>
      <trkpt lat="49.75833" lon="2.13202">
        <ele>136.7</ele>
        <time>2023-06-21T12:46:51Z</time>
      </trkpt>
      <trkpt lat="49.75833" lon="2.13201">
        <ele>136.7</ele>
        <time>2023-06-21T12:46:52Z</time>
      </trkpt>
      <trkpt lat="49.75832" lon="2.132">
        <ele>136.7</ele>
        <time>2023-06-21T12:46:53Z</time>
      </trkpt>
      <trkpt lat="49.75832" lon="2.13199">
        <ele>136.8</ele>
        <time>2023-06-21T12:46:54Z</time>
      </trkpt>
      <trkpt lat="49.75831" lon="2.13196">
        <ele>136.8</ele>
        <time>2023-06-21T12:46:55Z</time>
      </trkpt>
      <trkpt lat="49.75831" lon="2.13195">
        <ele>136.9</ele>
        <time>2023-06-21T12:46:56Z</time>
      </trkpt>
      <trkpt lat="49.75831" lon="2.13194">
        <ele>136.9</ele>
        <time>2023-06-21T12:46:57Z</time>
      </trkpt>
      <trkpt lat="49.7583" lon="2.13193">
        <ele>136.9</ele>
        <time>2023-06-21T12:46:59Z</time>
      </trkpt>
      <trkpt lat="49.7583" lon="2.13192">
        <ele>136.9</ele>
        <time>2023-06-21T12:47:00Z</time>
      </trkpt>
      <trkpt lat="49.7583" lon="2.13191">
        <ele>136.9</ele>
        <time>2023-06-21T12:47:01Z</time>
      </trkpt>
      <trkpt lat="49.7583" lon="2.13189">
        <ele>137</ele>
        <time>2023-06-21T12:47:02Z</time>
      </trkpt>
      <trkpt lat="49.75829" lon="2.13187">
        <ele>137</ele>
        <time>2023-06-21T12:47:03Z</time>
      </trkpt>
      <trkpt lat="49.75828" lon="2.13184">
        <ele>137.1</ele>
        <time>2023-06-21T12:47:05Z</time>
      </trkpt>
      <trkpt lat="49.75828" lon="2.13183">
        <ele>137.1</ele>
        <time>2023-06-21T12:47:06Z</time>
      </trkpt>
      <trkpt lat="49.75827" lon="2.13181">
        <ele>137.2</ele>
        <time>2023-06-21T12:47:07Z</time>
      </trkpt>
      <trkpt lat="49.75827" lon="2.1318">
        <ele>137.2</ele>
        <time>2023-06-21T12:47:08Z</time>
      </trkpt>
      <trkpt lat="49.75826" lon="2.13178">
        <ele>137.2</ele>
        <time>2023-06-21T12:47:10Z</time>
      </trkpt>
      <trkpt lat="49.75825" lon="2.13176">
        <ele>137.3</ele>
        <time>2023-06-21T12:47:11Z</time>
      </trkpt>
      <trkpt lat="49.75825" lon="2.13173">
        <ele>137.3</ele>
        <time>2023-06-21T12:47:12Z</time>
      </trkpt>
      <trkpt lat="49.75824" lon="2.13171">
        <ele>137.4</ele>
        <time>2023-06-21T12:47:14Z</time>
      </trkpt>
      <trkpt lat="49.75824" lon="2.1317">
        <ele>137.4</ele>
        <time>2023-06-21T12:47:15Z</time>
      </trkpt>
      <trkpt lat="49.75824" lon="2.13168">
        <ele>137.4</ele>
        <time>2023-06-21T12:47:16Z</time>
      </trkpt>
      <trkpt lat="49.75823" lon="2.13167">
        <ele>137.5</ele>
        <time>2023-06-21T12:47:17Z</time>
      </trkpt>
      <trkpt lat="49.75823" lon="2.13164">
        <ele>137.5</ele>
        <time>2023-06-21T12:47:18Z</time>
      </trkpt>
      <trkpt lat="49.75823" lon="2.13163">
        <ele>137.6</ele>
        <time>2023-06-21T12:47:20Z</time>
      </trkpt>
      <trkpt lat="49.75823" lon="2.13161">
        <ele>137.6</ele>
        <time>2023-06-21T12:47:21Z</time>
      </trkpt>
      <trkpt lat="49.75823" lon="2.13161">
        <ele>137.6</ele>
        <time>2023-06-21T12:47:22Z</time>
      </trkpt>
      <trkpt lat="49.75823" lon="2.1316">
        <ele>137.6</ele>
        <time>2023-06-21T12:47:23Z</time>
      </trkpt>
      <trkpt lat="49.75823" lon="2.13158">
        <ele>137.7</ele>
        <time>2023-06-21T12:47:24Z</time>
      </trkpt>
      <trkpt lat="49.75823" lon="2.13156">
        <ele>137.7</ele>
        <time>2023-06-21T12:47:26Z</time>
      </trkpt>
      <trkpt lat="49.75823" lon="2.13155">
        <ele>137.7</ele>
        <time>2023-06-21T12:47:27Z</time>
      </trkpt>
      <trkpt lat="49.75822" lon="2.13153">
        <ele>137.8</ele>
        <time>2023-06-21T12:47:28Z</time>
      </trkpt>
      <trkpt lat="49.75822" lon="2.13152">
        <ele>137.8</ele>
        <time>2023-06-21T12:47:29Z</time>
      </trkpt>
      <trkpt lat="49.75822" lon="2.1315">
        <ele>137.8</ele>
        <time>2023-06-21T12:47:30Z</time>
      </trkpt>
      <trkpt lat="49.75821" lon="2.13148">
        <ele>137.9</ele>
        <time>2023-06-21T12:47:31Z</time>
      </trkpt>
      <trkpt lat="49.7582" lon="2.13147">
        <ele>137.9</ele>
        <time>2023-06-21T12:47:33Z</time>
      </trkpt>
      <trkpt lat="49.7582" lon="2.13145">
        <ele>137.9</ele>
        <time>2023-06-21T12:47:34Z</time>
      </trkpt>
      <trkpt lat="49.75819" lon="2.13144">
        <ele>138</ele>
        <time>2023-06-21T12:47:36Z</time>
      </trkpt>
      <trkpt lat="49.75819" lon="2.13143">
        <ele>138</ele>
        <time>2023-06-21T12:47:37Z</time>
      </trkpt>
      <trkpt lat="49.75818" lon="2.13141">
        <ele>138</ele>
        <time>2023-06-21T12:47:38Z</time>
      </trkpt>
      <trkpt lat="49.75816" lon="2.13139">
        <ele>138.1</ele>
        <time>2023-06-21T12:47:39Z</time>
      </trkpt>
      <trkpt lat="49.75815" lon="2.13137">
        <ele>138.2</ele>
        <time>2023-06-21T12:47:40Z</time>
      </trkpt>
      <trkpt lat="49.75814" lon="2.13135">
        <ele>138.2</ele>
        <time>2023-06-21T12:47:41Z</time>
      </trkpt>
      <trkpt lat="49.75813" lon="2.13134">
        <ele>138.2</ele>
        <time>2023-06-21T12:47:42Z</time>
      </trkpt>
      <trkpt lat="49.75812" lon="2.13132">
        <ele>138.3</ele>
        <time>2023-06-21T12:47:44Z</time>
      </trkpt>
      <trkpt lat="49.75812" lon="2.13132">
        <ele>138.3</ele>
        <time>2023-06-21T12:47:45Z</time>
      </trkpt>
      <trkpt lat="49.75812" lon="2.13131">
        <ele>138.3</ele>
        <time>2023-06-21T12:47:46Z</time>
      </trkpt>
      <trkpt lat="49.75811" lon="2.1313">
        <ele>138.3</ele>
        <time>2023-06-21T12:47:47Z</time>
      </trkpt>
      <trkpt lat="49.75811" lon="2.1313">
        <ele>138.3</ele>
        <time>2023-06-21T12:47:48Z</time>
      </trkpt>
      <trkpt lat="49.75811" lon="2.13129">
        <ele>138.4</ele>
        <time>2023-06-21T12:47:49Z</time>
      </trkpt>
      <trkpt lat="49.7581" lon="2.13127">
        <ele>138.4</ele>
        <time>2023-06-21T12:47:50Z</time>
      </trkpt>
      <trkpt lat="49.7581" lon="2.13126">
        <ele>138.4</ele>
        <time>2023-06-21T12:47:52Z</time>
      </trkpt>
      <trkpt lat="49.7581" lon="2.13124">
        <ele>138.5</ele>
        <time>2023-06-21T12:47:53Z</time>
      </trkpt>
      <trkpt lat="49.75809" lon="2.13123">
        <ele>138.5</ele>
        <time>2023-06-21T12:47:54Z</time>
      </trkpt>
      <trkpt lat="49.75809" lon="2.1312">
        <ele>138.6</ele>
        <time>2023-06-21T12:47:55Z</time>
      </trkpt>
      <trkpt lat="49.75808" lon="2.13118">
        <ele>138.6</ele>
        <time>2023-06-21T12:47:56Z</time>
      </trkpt>
      <trkpt lat="49.75808" lon="2.13117">
        <ele>138.6</ele>
        <time>2023-06-21T12:47:57Z</time>
      </trkpt>
      <trkpt lat="49.75808" lon="2.13115">
        <ele>138.7</ele>
        <time>2023-06-21T12:47:59Z</time>
      </trkpt>
      <trkpt lat="49.75807" lon="2.13113">
        <ele>138.7</ele>
        <time>2023-06-21T12:48:00Z</time>
      </trkpt>
      <trkpt lat="49.75807" lon="2.13112">
        <ele>138.7</ele>
        <time>2023-06-21T12:48:01Z</time>
      </trkpt>
      <trkpt lat="49.75806" lon="2.1311">
        <ele>138.8</ele>
        <time>2023-06-21T12:48:02Z</time>
      </trkpt>
      <trkpt lat="49.75806" lon="2.13108">
        <ele>138.8</ele>
        <time>2023-06-21T12:48:03Z</time>
      </trkpt>
      <trkpt lat="49.75805" lon="2.13107">
        <ele>138.8</ele>
        <time>2023-06-21T12:48:05Z</time>
      </trkpt>
      <trkpt lat="49.75805" lon="2.13106">
        <ele>138.9</ele>
        <time>2023-06-21T12:48:06Z</time>
      </trkpt>
      <trkpt lat="49.75805" lon="2.13105">
        <ele>138.9</ele>
        <time>2023-06-21T12:48:07Z</time>
      </trkpt>
      <trkpt lat="49.75805" lon="2.13104">
        <ele>138.9</ele>
        <time>2023-06-21T12:48:08Z</time>
      </trkpt>
      <trkpt lat="49.75803" lon="2.13102">
        <ele>139</ele>
        <time>2023-06-21T12:48:09Z</time>
      </trkpt>
      <trkpt lat="49.75803" lon="2.13101">
        <ele>139</ele>
        <time>2023-06-21T12:48:10Z</time>
      </trkpt>
      <trkpt lat="49.75802" lon="2.13099">
        <ele>139</ele>
        <time>2023-06-21T12:48:11Z</time>
      </trkpt>
      <trkpt lat="49.75801" lon="2.13097">
        <ele>139.1</ele>
        <time>2023-06-21T12:48:12Z</time>
      </trkpt>
      <trkpt lat="49.758" lon="2.13095">
        <ele>139.1</ele>
        <time>2023-06-21T12:48:13Z</time>
      </trkpt>
      <trkpt lat="49.75799" lon="2.13093">
        <ele>139.2</ele>
        <time>2023-06-21T12:48:15Z</time>
      </trkpt>
      <trkpt lat="49.75798" lon="2.13092">
        <ele>139.2</ele>
        <time>2023-06-21T12:48:16Z</time>
      </trkpt>
      <trkpt lat="49.75798" lon="2.13089">
        <ele>139.3</ele>
        <time>2023-06-21T12:48:17Z</time>
      </trkpt>
      <trkpt lat="49.75797" lon="2.13088">
        <ele>139.3</ele>
        <time>2023-06-21T12:48:19Z</time>
      </trkpt>
      <trkpt lat="49.75796" lon="2.13086">
        <ele>139.3</ele>
        <time>2023-06-21T12:48:20Z</time>
      </trkpt>
      <trkpt lat="49.75796" lon="2.13083">
        <ele>139.4</ele>
        <time>2023-06-21T12:48:21Z</time>
      </trkpt>
      <trkpt lat="49.75795" lon="2.13082">
        <ele>139.4</ele>
        <time>2023-06-21T12:48:22Z</time>
      </trkpt>
      <trkpt lat="49.75795" lon="2.13081">
        <ele>139.5</ele>
        <time>2023-06-21T12:48:23Z</time>
      </trkpt>
      <trkpt lat="49.75794" lon="2.13079">
        <ele>139.5</ele>
        <time>2023-06-21T12:48:25Z</time>
      </trkpt>
      <trkpt lat="49.75794" lon="2.13077">
        <ele>139.5</ele>
        <time>2023-06-21T12:48:26Z</time>
      </trkpt>
      <trkpt lat="49.75794" lon="2.13076">
        <ele>139.6</ele>
        <time>2023-06-21T12:48:27Z</time>
      </trkpt>
      <trkpt lat="49.75793" lon="2.13075">
        <ele>139.6</ele>
        <time>2023-06-21T12:48:28Z</time>
      </trkpt>
      <trkpt lat="49.75793" lon="2.13073">
        <ele>139.6</ele>
        <time>2023-06-21T12:48:29Z</time>
      </trkpt>
      <trkpt lat="49.75793" lon="2.13072">
        <ele>139.6</ele>
        <time>2023-06-21T12:48:30Z</time>
      </trkpt>
      <trkpt lat="49.75792" lon="2.1307">
        <ele>139.7</ele>
        <time>2023-06-21T12:48:32Z</time>
      </trkpt>
      <trkpt lat="49.75792" lon="2.13068">
        <ele>139.7</ele>
        <time>2023-06-21T12:48:33Z</time>
      </trkpt>
      <trkpt lat="49.75792" lon="2.13067">
        <ele>139.7</ele>
        <time>2023-06-21T12:48:34Z</time>
      </trkpt>
      <trkpt lat="49.75792" lon="2.13065">
        <ele>139.8</ele>
        <time>2023-06-21T12:48:35Z</time>
      </trkpt>
      <trkpt lat="49.75792" lon="2.13064">
        <ele>139.8</ele>
        <time>2023-06-21T12:48:36Z</time>
      </trkpt>
      <trkpt lat="49.75792" lon="2.13062">
        <ele>139.8</ele>
        <time>2023-06-21T12:48:37Z</time>
      </trkpt>
      <trkpt lat="49.75792" lon="2.13059">
        <ele>139.9</ele>
        <time>2023-06-21T12:48:39Z</time>
      </trkpt>
      <trkpt lat="49.75791" lon="2.13058">
        <ele>139.9</ele>
        <time>2023-06-21T12:48:40Z</time>
      </trkpt>
      <trkpt lat="49.75791" lon="2.13057">
        <ele>139.9</ele>
        <time>2023-06-21T12:48:41Z</time>
      </trkpt>
      <trkpt lat="49.75791" lon="2.13057">
        <ele>140</ele>
        <time>2023-06-21T12:48:42Z</time>
      </trkpt>
      <trkpt lat="49.7579" lon="2.13055">
        <ele>140</ele>
        <time>2023-06-21T12:48:43Z</time>
      </trkpt>
      <trkpt lat="49.7579" lon="2.13054">
        <ele>140</ele>
        <time>2023-06-21T12:48:44Z</time>
      </trkpt>
      <trkpt lat="49.7579" lon="2.13052">
        <ele>140.1</ele>
        <time>2023-06-21T12:48:45Z</time>
      </trkpt>
      <trkpt lat="49.75789" lon="2.1305">
        <ele>140.1</ele>
        <time>2023-06-21T12:48:46Z</time>
      </trkpt>
      <trkpt lat="49.75789" lon="2.13048">
        <ele>140.2</ele>
        <time>2023-06-21T12:48:48Z</time>
      </trkpt>
      <trkpt lat="49.75789" lon="2.13046">
        <ele>140.2</ele>
        <time>2023-06-21T12:48:49Z</time>
      </trkpt>
      <trkpt lat="49.75789" lon="2.13045">
        <ele>140.2</ele>
        <time>2023-06-21T12:48:50Z</time>
      </trkpt>
      <trkpt lat="49.75789" lon="2.13044">
        <ele>140.2</ele>
        <time>2023-06-21T12:48:51Z</time>
      </trkpt>
      <trkpt lat="49.75789" lon="2.13042">
        <ele>140.3</ele>
        <time>2023-06-21T12:48:52Z</time>
      </trkpt>
      <trkpt lat="49.75788" lon="2.13039">
        <ele>140.3</ele>
        <time>2023-06-21T12:48:54Z</time>
      </trkpt>
      <trkpt lat="49.75788" lon="2.13038">
        <ele>140.4</ele>
        <time>2023-06-21T12:48:55Z</time>
      </trkpt>
      <trkpt lat="49.75787" lon="2.13037">
        <ele>140.4</ele>
        <time>2023-06-21T12:48:56Z</time>
      </trkpt>
      <trkpt lat="49.75787" lon="2.13035">
        <ele>140.4</ele>
        <time>2023-06-21T12:48:57Z</time>
      </trkpt>
      <trkpt lat="49.75786" lon="2.13034">
        <ele>140.4</ele>
        <time>2023-06-21T12:48:58Z</time>
      </trkpt>
      <trkpt lat="49.75786" lon="2.13032">
        <ele>140.5</ele>
        <time>2023-06-21T12:49:00Z</time>
      </trkpt>
      <trkpt lat="49.75786" lon="2.13031">
        <ele>140.5</ele>
        <time>2023-06-21T12:49:01Z</time>
      </trkpt>
      <trkpt lat="49.75785" lon="2.1303">
        <ele>140.5</ele>
        <time>2023-06-21T12:49:02Z</time>
      </trkpt>
      <trkpt lat="49.75785" lon="2.1303">
        <ele>140.5</ele>
        <time>2023-06-21T12:49:03Z</time>
      </trkpt>
      <trkpt lat="49.75785" lon="2.13029">
        <ele>140.5</ele>
        <time>2023-06-21T12:49:04Z</time>
      </trkpt>
      <trkpt lat="49.75785" lon="2.13028">
        <ele>140.6</ele>
        <time>2023-06-21T12:49:05Z</time>
      </trkpt>
      <trkpt lat="49.75785" lon="2.13026">
        <ele>140.6</ele>
        <time>2023-06-21T12:49:07Z</time>
      </trkpt>
      <trkpt lat="49.75785" lon="2.13025">
        <ele>140.6</ele>
        <time>2023-06-21T12:49:08Z</time>
      </trkpt>
      <trkpt lat="49.75785" lon="2.13025">
        <ele>140.6</ele>
        <time>2023-06-21T12:49:09Z</time>
      </trkpt>
      <trkpt lat="49.75785" lon="2.13024">
        <ele>140.6</ele>
        <time>2023-06-21T12:49:10Z</time>
      </trkpt>
      <trkpt lat="49.75785" lon="2.13023">
        <ele>140.7</ele>
        <time>2023-06-21T12:49:11Z</time>
      </trkpt>
      <trkpt lat="49.75784" lon="2.13021">
        <ele>140.7</ele>
        <time>2023-06-21T12:49:12Z</time>
      </trkpt>
      <trkpt lat="49.75784" lon="2.13019">
        <ele>140.8</ele>
        <time>2023-06-21T12:49:13Z</time>
      </trkpt>
      <trkpt lat="49.75784" lon="2.13017">
        <ele>140.8</ele>
        <time>2023-06-21T12:49:15Z</time>
      </trkpt>
      <trkpt lat="49.75783" lon="2.13015">
        <ele>140.8</ele>
        <time>2023-06-21T12:49:16Z</time>
      </trkpt>
      <trkpt lat="49.75783" lon="2.13014">
        <ele>140.9</ele>
        <time>2023-06-21T12:49:17Z</time>
      </trkpt>
      <trkpt lat="49.75782" lon="2.13012">
        <ele>140.9</ele>
        <time>2023-06-21T12:49:18Z</time>
      </trkpt>
      <trkpt lat="49.75782" lon="2.13011">
        <ele>140.9</ele>
        <time>2023-06-21T12:49:19Z</time>
      </trkpt>
      <trkpt lat="49.75781" lon="2.1301">
        <ele>141</ele>
        <time>2023-06-21T12:49:20Z</time>
      </trkpt>
      <trkpt lat="49.75781" lon="2.13008">
        <ele>141</ele>
        <time>2023-06-21T12:49:22Z</time>
      </trkpt>
      <trkpt lat="49.7578" lon="2.13007">
        <ele>141</ele>
        <time>2023-06-21T12:49:23Z</time>
      </trkpt>
      <trkpt lat="49.7578" lon="2.13006">
        <ele>141.1</ele>
        <time>2023-06-21T12:49:24Z</time>
      </trkpt>
      <trkpt lat="49.75779" lon="2.13004">
        <ele>141.1</ele>
        <time>2023-06-21T12:49:25Z</time>
      </trkpt>
      <trkpt lat="49.75779" lon="2.13003">
        <ele>141.1</ele>
        <time>2023-06-21T12:49:27Z</time>
      </trkpt>
      <trkpt lat="49.75779" lon="2.13002">
        <ele>141.1</ele>
        <time>2023-06-21T12:49:28Z</time>
      </trkpt>
      <trkpt lat="49.75778" lon="2.13001">
        <ele>141.2</ele>
        <time>2023-06-21T12:49:29Z</time>
      </trkpt>
      <trkpt lat="49.75777" lon="2.12999">
        <ele>141.2</ele>
        <time>2023-06-21T12:49:30Z</time>
      </trkpt>
      <trkpt lat="49.75776" lon="2.12997">
        <ele>141.3</ele>
        <time>2023-06-21T12:49:31Z</time>
      </trkpt>
      <trkpt lat="49.75775" lon="2.12995">
        <ele>141.3</ele>
        <time>2023-06-21T12:49:33Z</time>
      </trkpt>
      <trkpt lat="49.75775" lon="2.12994">
        <ele>141.3</ele>
        <time>2023-06-21T12:49:34Z</time>
      </trkpt>
      <trkpt lat="49.75774" lon="2.12993">
        <ele>141.4</ele>
        <time>2023-06-21T12:49:35Z</time>
      </trkpt>
      <trkpt lat="49.75773" lon="2.12991">
        <ele>141.4</ele>
        <time>2023-06-21T12:49:36Z</time>
      </trkpt>
      <trkpt lat="49.75773" lon="2.1299">
        <ele>141.4</ele>
        <time>2023-06-21T12:49:37Z</time>
      </trkpt>
      <trkpt lat="49.75772" lon="2.12989">
        <ele>141.5</ele>
        <time>2023-06-21T12:49:39Z</time>
      </trkpt>
      <trkpt lat="49.75771" lon="2.12987">
        <ele>141.5</ele>
        <time>2023-06-21T12:49:40Z</time>
      </trkpt>
      <trkpt lat="49.7577" lon="2.12986">
        <ele>141.5</ele>
        <time>2023-06-21T12:49:41Z</time>
      </trkpt>
      <trkpt lat="49.75769" lon="2.12985">
        <ele>141.6</ele>
        <time>2023-06-21T12:49:42Z</time>
      </trkpt>
      <trkpt lat="49.75767" lon="2.12982">
        <ele>141.7</ele>
        <time>2023-06-21T12:49:43Z</time>
      </trkpt>
      <trkpt lat="49.75766" lon="2.12981">
        <ele>141.7</ele>
        <time>2023-06-21T12:49:44Z</time>
      </trkpt>
      <trkpt lat="49.75765" lon="2.1298">
        <ele>141.7</ele>
        <time>2023-06-21T12:49:45Z</time>
      </trkpt>
      <trkpt lat="49.75765" lon="2.12979">
        <ele>141.8</ele>
        <time>2023-06-21T12:49:47Z</time>
      </trkpt>
      <trkpt lat="49.75764" lon="2.12978">
        <ele>141.8</ele>
        <time>2023-06-21T12:49:48Z</time>
      </trkpt>
      <trkpt lat="49.75764" lon="2.12976">
        <ele>141.8</ele>
        <time>2023-06-21T12:49:49Z</time>
      </trkpt>
      <trkpt lat="49.75763" lon="2.12976">
        <ele>141.8</ele>
        <time>2023-06-21T12:49:50Z</time>
      </trkpt>
      <trkpt lat="49.75763" lon="2.12975">
        <ele>141.9</ele>
        <time>2023-06-21T12:49:51Z</time>
      </trkpt>
      <trkpt lat="49.75763" lon="2.12974">
        <ele>141.9</ele>
        <time>2023-06-21T12:49:53Z</time>
      </trkpt>
      <trkpt lat="49.75762" lon="2.12973">
        <ele>141.9</ele>
        <time>2023-06-21T12:49:54Z</time>
      </trkpt>
      <trkpt lat="49.75762" lon="2.12973">
        <ele>141.9</ele>
        <time>2023-06-21T12:49:55Z</time>
      </trkpt>
      <trkpt lat="49.75761" lon="2.12971">
        <ele>142</ele>
        <time>2023-06-21T12:49:56Z</time>
      </trkpt>
      <trkpt lat="49.75761" lon="2.12969">
        <ele>142</ele>
        <time>2023-06-21T12:49:57Z</time>
      </trkpt>
      <trkpt lat="49.7576" lon="2.12966">
        <ele>142.1</ele>
        <time>2023-06-21T12:49:58Z</time>
      </trkpt>
      <trkpt lat="49.75759" lon="2.12964">
        <ele>142.1</ele>
        <time>2023-06-21T12:49:59Z</time>
      </trkpt>
      <trkpt lat="49.75758" lon="2.12963">
        <ele>142.1</ele>
        <time>2023-06-21T12:50:00Z</time>
      </trkpt>
      <trkpt lat="49.75757" lon="2.12961">
        <ele>142.2</ele>
        <time>2023-06-21T12:50:01Z</time>
      </trkpt>
      <trkpt lat="49.75757" lon="2.12959">
        <ele>142.2</ele>
        <time>2023-06-21T12:50:03Z</time>
      </trkpt>
      <trkpt lat="49.75756" lon="2.12957">
        <ele>142.3</ele>
        <time>2023-06-21T12:50:04Z</time>
      </trkpt>
      <trkpt lat="49.75754" lon="2.12955">
        <ele>142.3</ele>
        <time>2023-06-21T12:50:05Z</time>
      </trkpt>
      <trkpt lat="49.75754" lon="2.12954">
        <ele>142.4</ele>
        <time>2023-06-21T12:50:06Z</time>
      </trkpt>
      <trkpt lat="49.75753" lon="2.12953">
        <ele>142.4</ele>
        <time>2023-06-21T12:50:07Z</time>
      </trkpt>
      <trkpt lat="49.75752" lon="2.12951">
        <ele>142.4</ele>
        <time>2023-06-21T12:50:08Z</time>
      </trkpt>
      <trkpt lat="49.75752" lon="2.1295">
        <ele>142.5</ele>
        <time>2023-06-21T12:50:10Z</time>
      </trkpt>
      <trkpt lat="49.75751" lon="2.12949">
        <ele>142.5</ele>
        <time>2023-06-21T12:50:11Z</time>
      </trkpt>
      <trkpt lat="49.75749" lon="2.12947">
        <ele>142.6</ele>
        <time>2023-06-21T12:50:12Z</time>
      </trkpt>
      <trkpt lat="49.75749" lon="2.12946">
        <ele>142.6</ele>
        <time>2023-06-21T12:50:13Z</time>
      </trkpt>
      <trkpt lat="49.75748" lon="2.12945">
        <ele>142.6</ele>
        <time>2023-06-21T12:50:14Z</time>
      </trkpt>
      <trkpt lat="49.75747" lon="2.12942">
        <ele>142.7</ele>
        <time>2023-06-21T12:50:15Z</time>
      </trkpt>
      <trkpt lat="49.75747" lon="2.12941">
        <ele>142.7</ele>
        <time>2023-06-21T12:50:16Z</time>
      </trkpt>
      <trkpt lat="49.75746" lon="2.1294">
        <ele>142.7</ele>
        <time>2023-06-21T12:50:17Z</time>
      </trkpt>
      <trkpt lat="49.75745" lon="2.12937">
        <ele>142.8</ele>
        <time>2023-06-21T12:50:19Z</time>
      </trkpt>
      <trkpt lat="49.75745" lon="2.12936">
        <ele>142.8</ele>
        <time>2023-06-21T12:50:20Z</time>
      </trkpt>
      <trkpt lat="49.75744" lon="2.12935">
        <ele>142.9</ele>
        <time>2023-06-21T12:50:21Z</time>
      </trkpt>
      <trkpt lat="49.75743" lon="2.12932">
        <ele>142.9</ele>
        <time>2023-06-21T12:50:22Z</time>
      </trkpt>
      <trkpt lat="49.75742" lon="2.1293">
        <ele>143</ele>
        <time>2023-06-21T12:50:24Z</time>
      </trkpt>
      <trkpt lat="49.75741" lon="2.12928">
        <ele>143</ele>
        <time>2023-06-21T12:50:25Z</time>
      </trkpt>
      <trkpt lat="49.75739" lon="2.12927">
        <ele>143.1</ele>
        <time>2023-06-21T12:50:26Z</time>
      </trkpt>
      <trkpt lat="49.75738" lon="2.12926">
        <ele>143.1</ele>
        <time>2023-06-21T12:50:27Z</time>
      </trkpt>
      <trkpt lat="49.75736" lon="2.12925">
        <ele>143.2</ele>
        <time>2023-06-21T12:50:28Z</time>
      </trkpt>
      <trkpt lat="49.75735" lon="2.12923">
        <ele>143.2</ele>
        <time>2023-06-21T12:50:29Z</time>
      </trkpt>
      <trkpt lat="49.75734" lon="2.12923">
        <ele>143.3</ele>
        <time>2023-06-21T12:50:30Z</time>
      </trkpt>
      <trkpt lat="49.75733" lon="2.12922">
        <ele>143.3</ele>
        <time>2023-06-21T12:50:32Z</time>
      </trkpt>
      <trkpt lat="49.75731" lon="2.12922">
        <ele>143.3</ele>
        <time>2023-06-21T12:50:33Z</time>
      </trkpt>
      <trkpt lat="49.7573" lon="2.12922">
        <ele>143.4</ele>
        <time>2023-06-21T12:50:34Z</time>
      </trkpt>
      <trkpt lat="49.75728" lon="2.12922">
        <ele>143.4</ele>
        <time>2023-06-21T12:50:35Z</time>
      </trkpt>
      <trkpt lat="49.75727" lon="2.12923">
        <ele>143.5</ele>
        <time>2023-06-21T12:50:36Z</time>
      </trkpt>
      <trkpt lat="49.75726" lon="2.12923">
        <ele>143.5</ele>
        <time>2023-06-21T12:50:38Z</time>
      </trkpt>
      <trkpt lat="49.75724" lon="2.12924">
        <ele>143.6</ele>
        <time>2023-06-21T12:50:39Z</time>
      </trkpt>
      <trkpt lat="49.75723" lon="2.12925">
        <ele>143.6</ele>
        <time>2023-06-21T12:50:40Z</time>
      </trkpt>
      <trkpt lat="49.75721" lon="2.12925">
        <ele>143.7</ele>
        <time>2023-06-21T12:50:41Z</time>
      </trkpt>
      <trkpt lat="49.7572" lon="2.12927">
        <ele>143.7</ele>
        <time>2023-06-21T12:50:42Z</time>
      </trkpt>
      <trkpt lat="49.75719" lon="2.12928">
        <ele>143.7</ele>
        <time>2023-06-21T12:50:43Z</time>
      </trkpt>
      <trkpt lat="49.75718" lon="2.12929">
        <ele>143.8</ele>
        <time>2023-06-21T12:50:44Z</time>
      </trkpt>
      <trkpt lat="49.75717" lon="2.1293">
        <ele>143.8</ele>
        <time>2023-06-21T12:50:46Z</time>
      </trkpt>
      <trkpt lat="49.75716" lon="2.12931">
        <ele>143.9</ele>
        <time>2023-06-21T12:50:47Z</time>
      </trkpt>
      <trkpt lat="49.75716" lon="2.12933">
        <ele>143.9</ele>
        <time>2023-06-21T12:50:48Z</time>
      </trkpt>
      <trkpt lat="49.75715" lon="2.12934">
        <ele>143.9</ele>
        <time>2023-06-21T12:50:49Z</time>
      </trkpt>
      <trkpt lat="49.75714" lon="2.12935">
        <ele>144</ele>
        <time>2023-06-21T12:50:50Z</time>
      </trkpt>
      <trkpt lat="49.75713" lon="2.12936">
        <ele>144</ele>
        <time>2023-06-21T12:50:52Z</time>
      </trkpt>
      <trkpt lat="49.75712" lon="2.12937">
        <ele>144</ele>
        <time>2023-06-21T12:50:53Z</time>
      </trkpt>
      <trkpt lat="49.75711" lon="2.12938">
        <ele>144.1</ele>
        <time>2023-06-21T12:50:54Z</time>
      </trkpt>
      <trkpt lat="49.7571" lon="2.12939">
        <ele>144.1</ele>
        <time>2023-06-21T12:50:55Z</time>
      </trkpt>
      <trkpt lat="49.75709" lon="2.1294">
        <ele>144.1</ele>
        <time>2023-06-21T12:50:56Z</time>
      </trkpt>
      <trkpt lat="49.75707" lon="2.12943">
        <ele>144.2</ele>
        <time>2023-06-21T12:50:57Z</time>
      </trkpt>
      <trkpt lat="49.75706" lon="2.12944">
        <ele>144.3</ele>
        <time>2023-06-21T12:50:59Z</time>
      </trkpt>
      <trkpt lat="49.75705" lon="2.12945">
        <ele>144.3</ele>
        <time>2023-06-21T12:51:00Z</time>
      </trkpt>
      <trkpt lat="49.75704" lon="2.12946">
        <ele>144.3</ele>
        <time>2023-06-21T12:51:02Z</time>
      </trkpt>
      <trkpt lat="49.75703" lon="2.12947">
        <ele>144.4</ele>
        <time>2023-06-21T12:51:04Z</time>
      </trkpt>
      <trkpt lat="49.75702" lon="2.12948">
        <ele>144.4</ele>
        <time>2023-06-21T12:51:05Z</time>
      </trkpt>
      <trkpt lat="49.75701" lon="2.12949">
        <ele>144.4</ele>
        <time>2023-06-21T12:51:06Z</time>
      </trkpt>
      <trkpt lat="49.75699" lon="2.12951">
        <ele>144.5</ele>
        <time>2023-06-21T12:51:07Z</time>
      </trkpt>
      <trkpt lat="49.75699" lon="2.12952">
        <ele>144.5</ele>
        <time>2023-06-21T12:51:08Z</time>
      </trkpt>
      <trkpt lat="49.75698" lon="2.12952">
        <ele>144.6</ele>
        <time>2023-06-21T12:51:09Z</time>
      </trkpt>
      <trkpt lat="49.75697" lon="2.12953">
        <ele>144.6</ele>
        <time>2023-06-21T12:51:10Z</time>
      </trkpt>
      <trkpt lat="49.75696" lon="2.12954">
        <ele>144.6</ele>
        <time>2023-06-21T12:51:12Z</time>
      </trkpt>
      <trkpt lat="49.75694" lon="2.12955">
        <ele>144.7</ele>
        <time>2023-06-21T12:51:13Z</time>
      </trkpt>
      <trkpt lat="49.75694" lon="2.12955">
        <ele>144.7</ele>
        <time>2023-06-21T12:51:14Z</time>
      </trkpt>
      <trkpt lat="49.75693" lon="2.12956">
        <ele>144.8</ele>
        <time>2023-06-21T12:51:15Z</time>
      </trkpt>
      <trkpt lat="49.75692" lon="2.12957">
        <ele>144.8</ele>
        <time>2023-06-21T12:51:16Z</time>
      </trkpt>
      <trkpt lat="49.7569" lon="2.12958">
        <ele>144.8</ele>
        <time>2023-06-21T12:51:18Z</time>
      </trkpt>
      <trkpt lat="49.7569" lon="2.12959">
        <ele>144.9</ele>
        <time>2023-06-21T12:51:19Z</time>
      </trkpt>
      <trkpt lat="49.75689" lon="2.12959">
        <ele>144.9</ele>
        <time>2023-06-21T12:51:20Z</time>
      </trkpt>
      <trkpt lat="49.75688" lon="2.12961">
        <ele>144.9</ele>
        <time>2023-06-21T12:51:21Z</time>
      </trkpt>
      <trkpt lat="49.75687" lon="2.12962">
        <ele>145</ele>
        <time>2023-06-21T12:51:22Z</time>
      </trkpt>
      <trkpt lat="49.75686" lon="2.12963">
        <ele>145</ele>
        <time>2023-06-21T12:51:24Z</time>
      </trkpt>
      <trkpt lat="49.75685" lon="2.12964">
        <ele>145</ele>
        <time>2023-06-21T12:51:25Z</time>
      </trkpt>
      <trkpt lat="49.75684" lon="2.12964">
        <ele>145.1</ele>
        <time>2023-06-21T12:51:26Z</time>
      </trkpt>
      <trkpt lat="49.75683" lon="2.12965">
        <ele>145.1</ele>
        <time>2023-06-21T12:51:27Z</time>
      </trkpt>
      <trkpt lat="49.75682" lon="2.12966">
        <ele>145.1</ele>
        <time>2023-06-21T12:51:28Z</time>
      </trkpt>
      <trkpt lat="49.75681" lon="2.12967">
        <ele>145.2</ele>
        <time>2023-06-21T12:51:29Z</time>
      </trkpt>
      <trkpt lat="49.7568" lon="2.12967">
        <ele>145.2</ele>
        <time>2023-06-21T12:51:30Z</time>
      </trkpt>
      <trkpt lat="49.75679" lon="2.12968">
        <ele>145.2</ele>
        <time>2023-06-21T12:51:31Z</time>
      </trkpt>
      <trkpt lat="49.75678" lon="2.12968">
        <ele>145.3</ele>
        <time>2023-06-21T12:51:32Z</time>
      </trkpt>
      <trkpt lat="49.75676" lon="2.12969">
        <ele>145.3</ele>
        <time>2023-06-21T12:51:34Z</time>
      </trkpt>
      <trkpt lat="49.75675" lon="2.1297">
        <ele>145.4</ele>
        <time>2023-06-21T12:51:35Z</time>
      </trkpt>
      <trkpt lat="49.75674" lon="2.1297">
        <ele>145.4</ele>
        <time>2023-06-21T12:51:36Z</time>
      </trkpt>
      <trkpt lat="49.75673" lon="2.1297">
        <ele>145.4</ele>
        <time>2023-06-21T12:51:38Z</time>
      </trkpt>
      <trkpt lat="49.75672" lon="2.12971">
        <ele>145.4</ele>
        <time>2023-06-21T12:51:39Z</time>
      </trkpt>
      <trkpt lat="49.7567" lon="2.12971">
        <ele>145.5</ele>
        <time>2023-06-21T12:51:40Z</time>
      </trkpt>
      <trkpt lat="49.75669" lon="2.12971">
        <ele>145.5</ele>
        <time>2023-06-21T12:51:41Z</time>
      </trkpt>
      <trkpt lat="49.75668" lon="2.12971">
        <ele>145.6</ele>
        <time>2023-06-21T12:51:42Z</time>
      </trkpt>
      <trkpt lat="49.75667" lon="2.12971">
        <ele>145.6</ele>
        <time>2023-06-21T12:51:43Z</time>
      </trkpt>
      <trkpt lat="49.75666" lon="2.12971">
        <ele>145.6</ele>
        <time>2023-06-21T12:51:45Z</time>
      </trkpt>
      <trkpt lat="49.75665" lon="2.12971">
        <ele>145.7</ele>
        <time>2023-06-21T12:51:46Z</time>
      </trkpt>
      <trkpt lat="49.75663" lon="2.12971">
        <ele>145.7</ele>
        <time>2023-06-21T12:51:47Z</time>
      </trkpt>
      <trkpt lat="49.75662" lon="2.12971">
        <ele>145.8</ele>
        <time>2023-06-21T12:51:48Z</time>
      </trkpt>
      <trkpt lat="49.75661" lon="2.12971">
        <ele>145.8</ele>
        <time>2023-06-21T12:51:49Z</time>
      </trkpt>
      <trkpt lat="49.7566" lon="2.12971">
        <ele>145.8</ele>
        <time>2023-06-21T12:51:51Z</time>
      </trkpt>
      <trkpt lat="49.75659" lon="2.1297">
        <ele>145.9</ele>
        <time>2023-06-21T12:51:52Z</time>
      </trkpt>
      <trkpt lat="49.75658" lon="2.1297">
        <ele>145.9</ele>
        <time>2023-06-21T12:51:53Z</time>
      </trkpt>
      <trkpt lat="49.75657" lon="2.1297">
        <ele>145.9</ele>
        <time>2023-06-21T12:51:54Z</time>
      </trkpt>
      <trkpt lat="49.75656" lon="2.12969">
        <ele>146</ele>
        <time>2023-06-21T12:51:55Z</time>
      </trkpt>
      <trkpt lat="49.75655" lon="2.12969">
        <ele>146</ele>
        <time>2023-06-21T12:51:56Z</time>
      </trkpt>
      <trkpt lat="49.75653" lon="2.12968">
        <ele>146</ele>
        <time>2023-06-21T12:51:58Z</time>
      </trkpt>
      <trkpt lat="49.75652" lon="2.12967">
        <ele>146.1</ele>
        <time>2023-06-21T12:51:59Z</time>
      </trkpt>
      <trkpt lat="49.75651" lon="2.12966">
        <ele>146.1</ele>
        <time>2023-06-21T12:52:01Z</time>
      </trkpt>
      <trkpt lat="49.7565" lon="2.12965">
        <ele>146.2</ele>
        <time>2023-06-21T12:52:02Z</time>
      </trkpt>
      <trkpt lat="49.75649" lon="2.12963">
        <ele>146.2</ele>
        <time>2023-06-21T12:52:04Z</time>
      </trkpt>
      <trkpt lat="49.75648" lon="2.12963">
        <ele>146.2</ele>
        <time>2023-06-21T12:52:05Z</time>
      </trkpt>
      <trkpt lat="49.75647" lon="2.12962">
        <ele>146.3</ele>
        <time>2023-06-21T12:52:06Z</time>
      </trkpt>
      <trkpt lat="49.75646" lon="2.12961">
        <ele>146.3</ele>
        <time>2023-06-21T12:52:07Z</time>
      </trkpt>
      <trkpt lat="49.75646" lon="2.1296">
        <ele>146.3</ele>
        <time>2023-06-21T12:52:08Z</time>
      </trkpt>
      <trkpt lat="49.75645" lon="2.12958">
        <ele>146.4</ele>
        <time>2023-06-21T12:52:10Z</time>
      </trkpt>
      <trkpt lat="49.75644" lon="2.12958">
        <ele>146.4</ele>
        <time>2023-06-21T12:52:11Z</time>
      </trkpt>
      <trkpt lat="49.75643" lon="2.12957">
        <ele>146.4</ele>
        <time>2023-06-21T12:52:12Z</time>
      </trkpt>
      <trkpt lat="49.75643" lon="2.12958">
        <ele>146.4</ele>
        <time>2023-06-21T12:52:13Z</time>
      </trkpt>
      <trkpt lat="49.75643" lon="2.1296">
        <ele>146.5</ele>
        <time>2023-06-21T12:52:14Z</time>
      </trkpt>
      <trkpt lat="49.75642" lon="2.12961">
        <ele>146.5</ele>
        <time>2023-06-21T12:52:15Z</time>
      </trkpt>
      <trkpt lat="49.75642" lon="2.12962">
        <ele>146.5</ele>
        <time>2023-06-21T12:52:16Z</time>
      </trkpt>
      <trkpt lat="49.75642" lon="2.12961">
        <ele>146.5</ele>
        <time>2023-06-21T12:52:18Z</time>
      </trkpt>
      <trkpt lat="49.75643" lon="2.1296">
        <ele>146.6</ele>
        <time>2023-06-21T12:52:20Z</time>
      </trkpt>
      <trkpt lat="49.75643" lon="2.1296">
        <ele>146.6</ele>
        <time>2023-06-21T12:52:21Z</time>
      </trkpt>
      <trkpt lat="49.75644" lon="2.1296">
        <ele>146.6</ele>
        <time>2023-06-21T12:52:23Z</time>
      </trkpt>
      <trkpt lat="49.75644" lon="2.1296">
        <ele>146.6</ele>
        <time>2023-06-21T12:52:24Z</time>
      </trkpt>
      <trkpt lat="49.75644" lon="2.1296">
        <ele>146.6</ele>
        <time>2023-06-21T12:52:25Z</time>
      </trkpt>
      <trkpt lat="49.75645" lon="2.1296">
        <ele>146.6</ele>
        <time>2023-06-21T12:52:26Z</time>
      </trkpt>
      <trkpt lat="49.75645" lon="2.1296">
        <ele>146.6</ele>
        <time>2023-06-21T12:52:28Z</time>
      </trkpt>
      <trkpt lat="49.75645" lon="2.1296">
        <ele>146.6</ele>
        <time>2023-06-21T12:52:29Z</time>
      </trkpt>
      <trkpt lat="49.75645" lon="2.12959">
        <ele>146.7</ele>
        <time>2023-06-21T12:52:30Z</time>
      </trkpt>
      <trkpt lat="49.75645" lon="2.12959">
        <ele>146.7</ele>
        <time>2023-06-21T12:52:31Z</time>
      </trkpt>
      <trkpt lat="49.75644" lon="2.12957">
        <ele>146.7</ele>
        <time>2023-06-21T12:52:33Z</time>
      </trkpt>
      <trkpt lat="49.75644" lon="2.12957">
        <ele>146.7</ele>
        <time>2023-06-21T12:52:34Z</time>
      </trkpt>
      <trkpt lat="49.75643" lon="2.12954">
        <ele>146.8</ele>
        <time>2023-06-21T12:52:36Z</time>
      </trkpt>
      <trkpt lat="49.75642" lon="2.12952">
        <ele>146.8</ele>
        <time>2023-06-21T12:52:37Z</time>
      </trkpt>
      <trkpt lat="49.75641" lon="2.12949">
        <ele>146.9</ele>
        <time>2023-06-21T12:52:39Z</time>
      </trkpt>
      <trkpt lat="49.7564" lon="2.12948">
        <ele>146.9</ele>
        <time>2023-06-21T12:52:40Z</time>
      </trkpt>
      <trkpt lat="49.7564" lon="2.12947">
        <ele>146.9</ele>
        <time>2023-06-21T12:52:41Z</time>
      </trkpt>
      <trkpt lat="49.75641" lon="2.12947">
        <ele>147</ele>
        <time>2023-06-21T12:52:42Z</time>
      </trkpt>
      <trkpt lat="49.75642" lon="2.12948">
        <ele>147</ele>
        <time>2023-06-21T12:52:44Z</time>
      </trkpt>
      <trkpt lat="49.75641" lon="2.12949">
        <ele>147</ele>
        <time>2023-06-21T12:52:45Z</time>
      </trkpt>
      <trkpt lat="49.7564" lon="2.12948">
        <ele>147.1</ele>
        <time>2023-06-21T12:52:46Z</time>
      </trkpt>
      <trkpt lat="49.75639" lon="2.12947">
        <ele>147.1</ele>
        <time>2023-06-21T12:52:47Z</time>
      </trkpt>
      <trkpt lat="49.75639" lon="2.12946">
        <ele>147.1</ele>
        <time>2023-06-21T12:52:48Z</time>
      </trkpt>
      <trkpt lat="49.75638" lon="2.12944">
        <ele>147.2</ele>
        <time>2023-06-21T12:52:50Z</time>
      </trkpt>
      <trkpt lat="49.75637" lon="2.12943">
        <ele>147.2</ele>
        <time>2023-06-21T12:52:51Z</time>
      </trkpt>
      <trkpt lat="49.75636" lon="2.12943">
        <ele>147.2</ele>
        <time>2023-06-21T12:52:52Z</time>
      </trkpt>
      <trkpt lat="49.75636" lon="2.12943">
        <ele>147.2</ele>
        <time>2023-06-21T12:52:53Z</time>
      </trkpt>
      <trkpt lat="49.75635" lon="2.12944">
        <ele>147.3</ele>
        <time>2023-06-21T12:52:54Z</time>
      </trkpt>
      <trkpt lat="49.75635" lon="2.12947">
        <ele>147.3</ele>
        <time>2023-06-21T12:52:55Z</time>
      </trkpt>
      <trkpt lat="49.75634" lon="2.12948">
        <ele>147.4</ele>
        <time>2023-06-21T12:52:56Z</time>
      </trkpt>
      <trkpt lat="49.75634" lon="2.12949">
        <ele>147.4</ele>
        <time>2023-06-21T12:52:58Z</time>
      </trkpt>
      <trkpt lat="49.75633" lon="2.12949">
        <ele>147.4</ele>
        <time>2023-06-21T12:52:59Z</time>
      </trkpt>
      <trkpt lat="49.75633" lon="2.12948">
        <ele>147.4</ele>
        <time>2023-06-21T12:53:00Z</time>
      </trkpt>
      <trkpt lat="49.75632" lon="2.12948">
        <ele>147.4</ele>
        <time>2023-06-21T12:53:01Z</time>
      </trkpt>
      <trkpt lat="49.75632" lon="2.12947">
        <ele>147.5</ele>
        <time>2023-06-21T12:53:02Z</time>
      </trkpt>
      <trkpt lat="49.75631" lon="2.12945">
        <ele>147.5</ele>
        <time>2023-06-21T12:53:03Z</time>
      </trkpt>
      <trkpt lat="49.7563" lon="2.12944">
        <ele>147.5</ele>
        <time>2023-06-21T12:53:05Z</time>
      </trkpt>
      <trkpt lat="49.7563" lon="2.12942">
        <ele>147.6</ele>
        <time>2023-06-21T12:53:06Z</time>
      </trkpt>
      <trkpt lat="49.75629" lon="2.12941">
        <ele>147.6</ele>
        <time>2023-06-21T12:53:07Z</time>
      </trkpt>
      <trkpt lat="49.75628" lon="2.12939">
        <ele>147.6</ele>
        <time>2023-06-21T12:53:08Z</time>
      </trkpt>
      <trkpt lat="49.75627" lon="2.12937">
        <ele>147.7</ele>
        <time>2023-06-21T12:53:10Z</time>
      </trkpt>
      <trkpt lat="49.75626" lon="2.12935">
        <ele>147.8</ele>
        <time>2023-06-21T12:53:11Z</time>
      </trkpt>
      <trkpt lat="49.75625" lon="2.12934">
        <ele>147.8</ele>
        <time>2023-06-21T12:53:12Z</time>
      </trkpt>
      <trkpt lat="49.75625" lon="2.12932">
        <ele>147.8</ele>
        <time>2023-06-21T12:53:13Z</time>
      </trkpt>
      <trkpt lat="49.75624" lon="2.1293">
        <ele>147.9</ele>
        <time>2023-06-21T12:53:15Z</time>
      </trkpt>
      <trkpt lat="49.75623" lon="2.12929">
        <ele>147.9</ele>
        <time>2023-06-21T12:53:16Z</time>
      </trkpt>
      <trkpt lat="49.75623" lon="2.12928">
        <ele>147.9</ele>
        <time>2023-06-21T12:53:17Z</time>
      </trkpt>
      <trkpt lat="49.75622" lon="2.12928">
        <ele>147.9</ele>
        <time>2023-06-21T12:53:18Z</time>
      </trkpt>
      <trkpt lat="49.75622" lon="2.12931">
        <ele>148</ele>
        <time>2023-06-21T12:53:20Z</time>
      </trkpt>
      <trkpt lat="49.75622" lon="2.12932">
        <ele>148</ele>
        <time>2023-06-21T12:53:21Z</time>
      </trkpt>
      <trkpt lat="49.75622" lon="2.12933">
        <ele>148</ele>
        <time>2023-06-21T12:53:23Z</time>
      </trkpt>
      <trkpt lat="49.75622" lon="2.12934">
        <ele>148.1</ele>
        <time>2023-06-21T12:53:24Z</time>
      </trkpt>
      <trkpt lat="49.75622" lon="2.12934">
        <ele>148.1</ele>
        <time>2023-06-21T12:53:26Z</time>
      </trkpt>
      <trkpt lat="49.75622" lon="2.12934">
        <ele>148.1</ele>
        <time>2023-06-21T12:53:27Z</time>
      </trkpt>
      <trkpt lat="49.75622" lon="2.12935">
        <ele>148.1</ele>
        <time>2023-06-21T12:53:29Z</time>
      </trkpt>
      <trkpt lat="49.75622" lon="2.12935">
        <ele>148.1</ele>
        <time>2023-06-21T12:53:30Z</time>
      </trkpt>
      <trkpt lat="49.75622" lon="2.12935">
        <ele>148.1</ele>
        <time>2023-06-21T12:53:31Z</time>
      </trkpt>
      <trkpt lat="49.75622" lon="2.12935">
        <ele>148.1</ele>
        <time>2023-06-21T12:53:33Z</time>
      </trkpt>
      <trkpt lat="49.75622" lon="2.12935">
        <ele>148.1</ele>
        <time>2023-06-21T12:53:34Z</time>
      </trkpt>
      <trkpt lat="49.75622" lon="2.12935">
        <ele>148.1</ele>
        <time>2023-06-21T12:53:35Z</time>
      </trkpt>
      <trkpt lat="49.75622" lon="2.12935">
        <ele>148.1</ele>
        <time>2023-06-21T12:53:36Z</time>
      </trkpt>
      <trkpt lat="49.75622" lon="2.12935">
        <ele>148.1</ele>
        <time>2023-06-21T12:53:37Z</time>
      </trkpt>
      <trkpt lat="49.75622" lon="2.12935">
        <ele>148.1</ele>
        <time>2023-06-21T12:53:38Z</time>
      </trkpt>
      <trkpt lat="49.75622" lon="2.12935">
        <ele>148.1</ele>
        <time>2023-06-21T12:53:39Z</time>
      </trkpt>
      <trkpt lat="49.75622" lon="2.12934">
        <ele>148.1</ele>
        <time>2023-06-21T12:53:40Z</time>
      </trkpt>
      <trkpt lat="49.75622" lon="2.12934">
        <ele>148.1</ele>
        <time>2023-06-21T12:53:41Z</time>
      </trkpt>
      <trkpt lat="49.75622" lon="2.12934">
        <ele>148.1</ele>
        <time>2023-06-21T12:53:42Z</time>
      </trkpt>
      <trkpt lat="49.75622" lon="2.12934">
        <ele>148.1</ele>
        <time>2023-06-21T12:53:43Z</time>
      </trkpt>
      <trkpt lat="49.75622" lon="2.12934">
        <ele>148.1</ele>
        <time>2023-06-21T12:53:44Z</time>
      </trkpt>
      <trkpt lat="49.75622" lon="2.12934">
        <ele>148.1</ele>
        <time>2023-06-21T12:53:45Z</time>
      </trkpt>
      <trkpt lat="49.75622" lon="2.12934">
        <ele>148.1</ele>
        <time>2023-06-21T12:53:46Z</time>
      </trkpt>
      <trkpt lat="49.75622" lon="2.12934">
        <ele>148.1</ele>
        <time>2023-06-21T12:53:47Z</time>
      </trkpt>
      <trkpt lat="49.75622" lon="2.12934">
        <ele>148.1</ele>
        <time>2023-06-21T12:53:48Z</time>
      </trkpt>
      <trkpt lat="49.75622" lon="2.12934">
        <ele>148.1</ele>
        <time>2023-06-21T12:53:49Z</time>
      </trkpt>
      <trkpt lat="49.75622" lon="2.12934">
        <ele>148.1</ele>
        <time>2023-06-21T12:53:50Z</time>
      </trkpt>
      <trkpt lat="49.75622" lon="2.12934">
        <ele>148.1</ele>
        <time>2023-06-21T12:53:51Z</time>
      </trkpt>
      <trkpt lat="49.75622" lon="2.12934">
        <ele>148.1</ele>
        <time>2023-06-21T12:53:52Z</time>
      </trkpt>
      <trkpt lat="49.75622" lon="2.12934">
        <ele>148.1</ele>
        <time>2023-06-21T12:53:53Z</time>
      </trkpt>
      <trkpt lat="49.75622" lon="2.12934">
        <ele>148.1</ele>
        <time>2023-06-21T12:53:54Z</time>
      </trkpt>
      <trkpt lat="49.75622" lon="2.12934">
        <ele>148.1</ele>
        <time>2023-06-21T12:53:55Z</time>
      </trkpt>
      <trkpt lat="49.75622" lon="2.12934">
        <ele>148.1</ele>
        <time>2023-06-21T12:53:56Z</time>
      </trkpt>
      <trkpt lat="49.75622" lon="2.12934">
        <ele>148.1</ele>
        <time>2023-06-21T12:53:57Z</time>
      </trkpt>
      <trkpt lat="49.75622" lon="2.12934">
        <ele>148.1</ele>
        <time>2023-06-21T12:53:58Z</time>
      </trkpt>
      <trkpt lat="49.75622" lon="2.12934">
        <ele>148.1</ele>
        <time>2023-06-21T12:53:59Z</time>
      </trkpt>
      <trkpt lat="49.75622" lon="2.12934">
        <ele>148.1</ele>
        <time>2023-06-21T12:54:00Z</time>
      </trkpt>
      <trkpt lat="49.75622" lon="2.12934">
        <ele>148.1</ele>
        <time>2023-06-21T12:54:01Z</time>
      </trkpt>
      <trkpt lat="49.75622" lon="2.12934">
        <ele>148.1</ele>
        <time>2023-06-21T12:54:02Z</time>
      </trkpt>
      <trkpt lat="49.75622" lon="2.12934">
        <ele>148.1</ele>
        <time>2023-06-21T12:54:03Z</time>
      </trkpt>
      <trkpt lat="49.75622" lon="2.12934">
        <ele>148.1</ele>
        <time>2023-06-21T12:54:04Z</time>
      </trkpt>
      <trkpt lat="49.75622" lon="2.12934">
        <ele>148.1</ele>
        <time>2023-06-21T12:54:05Z</time>
      </trkpt>
      <trkpt lat="49.75623" lon="2.12933">
        <ele>148.2</ele>
        <time>2023-06-21T12:54:06Z</time>
      </trkpt>
      <trkpt lat="49.75623" lon="2.12932">
        <ele>148.2</ele>
        <time>2023-06-21T12:54:07Z</time>
      </trkpt>
      <trkpt lat="49.75623" lon="2.12933">
        <ele>148.2</ele>
        <time>2023-06-21T12:54:08Z</time>
      </trkpt>
      <trkpt lat="49.75623" lon="2.12933">
        <ele>148.2</ele>
        <time>2023-06-21T12:54:09Z</time>
      </trkpt>
      <trkpt lat="49.75623" lon="2.12933">
        <ele>148.2</ele>
        <time>2023-06-21T12:54:10Z</time>
      </trkpt>
      <trkpt lat="49.75623" lon="2.12933">
        <ele>148.2</ele>
        <time>2023-06-21T12:54:11Z</time>
      </trkpt>
      <trkpt lat="49.75623" lon="2.12933">
        <ele>148.2</ele>
        <time>2023-06-21T12:54:12Z</time>
      </trkpt>
      <trkpt lat="49.75623" lon="2.12933">
        <ele>148.2</ele>
        <time>2023-06-21T12:54:13Z</time>
      </trkpt>
      <trkpt lat="49.75623" lon="2.12933">
        <ele>148.2</ele>
        <time>2023-06-21T12:54:14Z</time>
      </trkpt>
      <trkpt lat="49.75623" lon="2.12933">
        <ele>148.2</ele>
        <time>2023-06-21T12:54:15Z</time>
      </trkpt>
      <trkpt lat="49.75623" lon="2.12933">
        <ele>148.2</ele>
        <time>2023-06-21T12:54:16Z</time>
      </trkpt>
      <trkpt lat="49.75623" lon="2.12933">
        <ele>148.2</ele>
        <time>2023-06-21T12:54:17Z</time>
      </trkpt>
      <trkpt lat="49.75623" lon="2.12933">
        <ele>148.2</ele>
        <time>2023-06-21T12:54:18Z</time>
      </trkpt>
      <trkpt lat="49.75623" lon="2.12933">
        <ele>148.2</ele>
        <time>2023-06-21T12:54:19Z</time>
      </trkpt>
      <trkpt lat="49.75623" lon="2.12933">
        <ele>148.2</ele>
        <time>2023-06-21T12:54:20Z</time>
      </trkpt>
      <trkpt lat="49.75623" lon="2.12933">
        <ele>148.2</ele>
        <time>2023-06-21T12:54:21Z</time>
      </trkpt>
      <trkpt lat="49.75623" lon="2.12933">
        <ele>148.2</ele>
        <time>2023-06-21T12:54:22Z</time>
      </trkpt>
      <trkpt lat="49.75623" lon="2.12933">
        <ele>148.2</ele>
        <time>2023-06-21T12:54:23Z</time>
      </trkpt>
      <trkpt lat="49.75623" lon="2.12933">
        <ele>148.2</ele>
        <time>2023-06-21T12:54:24Z</time>
      </trkpt>
      <trkpt lat="49.75623" lon="2.12933">
        <ele>148.2</ele>
        <time>2023-06-21T12:54:25Z</time>
      </trkpt>
      <trkpt lat="49.75623" lon="2.12933">
        <ele>148.2</ele>
        <time>2023-06-21T12:54:26Z</time>
      </trkpt>
      <trkpt lat="49.75623" lon="2.12933">
        <ele>148.2</ele>
        <time>2023-06-21T12:54:27Z</time>
      </trkpt>
      <trkpt lat="49.75623" lon="2.12933">
        <ele>148.2</ele>
        <time>2023-06-21T12:54:28Z</time>
      </trkpt>
      <trkpt lat="49.75623" lon="2.12933">
        <ele>148.2</ele>
        <time>2023-06-21T12:54:29Z</time>
      </trkpt>
      <trkpt lat="49.75623" lon="2.12933">
        <ele>148.2</ele>
        <time>2023-06-21T12:54:30Z</time>
      </trkpt>
      <trkpt lat="49.75623" lon="2.12933">
        <ele>148.2</ele>
        <time>2023-06-21T12:54:31Z</time>
      </trkpt>
      <trkpt lat="49.75623" lon="2.12933">
        <ele>148.2</ele>
        <time>2023-06-21T12:54:32Z</time>
      </trkpt>
      <trkpt lat="49.75623" lon="2.12933">
        <ele>148.2</ele>
        <time>2023-06-21T12:54:33Z</time>
      </trkpt>
      <trkpt lat="49.75623" lon="2.12933">
        <ele>148.2</ele>
        <time>2023-06-21T12:54:34Z</time>
      </trkpt>
      <trkpt lat="49.75623" lon="2.12933">
        <ele>148.2</ele>
        <time>2023-06-21T12:54:35Z</time>
      </trkpt>
      <trkpt lat="49.75623" lon="2.12933">
        <ele>148.2</ele>
        <time>2023-06-21T12:54:36Z</time>
      </trkpt>
      <trkpt lat="49.75623" lon="2.12933">
        <ele>148.2</ele>
        <time>2023-06-21T12:54:37Z</time>
      </trkpt>
      <trkpt lat="49.75623" lon="2.12933">
        <ele>148.2</ele>
        <time>2023-06-21T12:54:38Z</time>
      </trkpt>
      <trkpt lat="49.75623" lon="2.12933">
        <ele>148.2</ele>
        <time>2023-06-21T12:54:39Z</time>
      </trkpt>
      <trkpt lat="49.75623" lon="2.12933">
        <ele>148.2</ele>
        <time>2023-06-21T12:54:40Z</time>
      </trkpt>
      <trkpt lat="49.75623" lon="2.12933">
        <ele>148.2</ele>
        <time>2023-06-21T12:54:41Z</time>
      </trkpt>
      <trkpt lat="49.75623" lon="2.12933">
        <ele>148.2</ele>
        <time>2023-06-21T12:54:42Z</time>
      </trkpt>
      <trkpt lat="49.75623" lon="2.12933">
        <ele>148.2</ele>
        <time>2023-06-21T12:54:43Z</time>
      </trkpt>
      <trkpt lat="49.75623" lon="2.12933">
        <ele>148.2</ele>
        <time>2023-06-21T12:54:44Z</time>
      </trkpt>
      <trkpt lat="49.75623" lon="2.12933">
        <ele>148.2</ele>
        <time>2023-06-21T12:54:45Z</time>
      </trkpt>
      <trkpt lat="49.75623" lon="2.12933">
        <ele>148.2</ele>
        <time>2023-06-21T12:54:46Z</time>
      </trkpt>
      <trkpt lat="49.75623" lon="2.12933">
        <ele>148.2</ele>
        <time>2023-06-21T12:54:47Z</time>
      </trkpt>
      <trkpt lat="49.75623" lon="2.12933">
        <ele>148.2</ele>
        <time>2023-06-21T12:54:48Z</time>
      </trkpt>
      <trkpt lat="49.75623" lon="2.12933">
        <ele>148.2</ele>
        <time>2023-06-21T12:54:49Z</time>
      </trkpt>
      <trkpt lat="49.75623" lon="2.12933">
        <ele>148.2</ele>
        <time>2023-06-21T12:54:50Z</time>
      </trkpt>
      <trkpt lat="49.75623" lon="2.12933">
        <ele>148.2</ele>
        <time>2023-06-21T12:54:51Z</time>
      </trkpt>
      <trkpt lat="49.75623" lon="2.12933">
        <ele>148.2</ele>
        <time>2023-06-21T12:54:52Z</time>
      </trkpt>
      <trkpt lat="49.75623" lon="2.12933">
        <ele>148.2</ele>
        <time>2023-06-21T12:54:53Z</time>
      </trkpt>
      <trkpt lat="49.75623" lon="2.12933">
        <ele>148.2</ele>
        <time>2023-06-21T12:54:54Z</time>
      </trkpt>
      <trkpt lat="49.75623" lon="2.12933">
        <ele>148.2</ele>
        <time>2023-06-21T12:54:55Z</time>
      </trkpt>
      <trkpt lat="49.75623" lon="2.12933">
        <ele>148.2</ele>
        <time>2023-06-21T12:54:56Z</time>
      </trkpt>
      <trkpt lat="49.75623" lon="2.12933">
        <ele>148.2</ele>
        <time>2023-06-21T12:54:57Z</time>
      </trkpt>
      <trkpt lat="49.75623" lon="2.12933">
        <ele>148.2</ele>
        <time>2023-06-21T12:54:58Z</time>
      </trkpt>
      <trkpt lat="49.75623" lon="2.12933">
        <ele>148.2</ele>
        <time>2023-06-21T12:54:59Z</time>
      </trkpt>
      <trkpt lat="49.75623" lon="2.12933">
        <ele>148.2</ele>
        <time>2023-06-21T12:55:00Z</time>
      </trkpt>
      <trkpt lat="49.75623" lon="2.12932">
        <ele>148.2</ele>
        <time>2023-06-21T12:55:01Z</time>
      </trkpt>
      <trkpt lat="49.75623" lon="2.12931">
        <ele>148.2</ele>
        <time>2023-06-21T12:55:02Z</time>
      </trkpt>
      <trkpt lat="49.75622" lon="2.12931">
        <ele>148.2</ele>
        <time>2023-06-21T12:55:03Z</time>
      </trkpt>
      <trkpt lat="49.75622" lon="2.12931">
        <ele>148.3</ele>
        <time>2023-06-21T12:55:04Z</time>
      </trkpt>
      <trkpt lat="49.75622" lon="2.12931">
        <ele>148.3</ele>
        <time>2023-06-21T12:55:05Z</time>
      </trkpt>
      <trkpt lat="49.75622" lon="2.12931">
        <ele>148.3</ele>
        <time>2023-06-21T12:55:06Z</time>
      </trkpt>
      <trkpt lat="49.75622" lon="2.12931">
        <ele>148.3</ele>
        <time>2023-06-21T12:55:07Z</time>
      </trkpt>
      <trkpt lat="49.75622" lon="2.12931">
        <ele>148.3</ele>
        <time>2023-06-21T12:55:08Z</time>
      </trkpt>
      <trkpt lat="49.75622" lon="2.12931">
        <ele>148.3</ele>
        <time>2023-06-21T12:55:09Z</time>
      </trkpt>
      <trkpt lat="49.75622" lon="2.12931">
        <ele>148.3</ele>
        <time>2023-06-21T12:55:10Z</time>
      </trkpt>
      <trkpt lat="49.75622" lon="2.12931">
        <ele>148.3</ele>
        <time>2023-06-21T12:55:11Z</time>
      </trkpt>
      <trkpt lat="49.75622" lon="2.12931">
        <ele>148.3</ele>
        <time>2023-06-21T12:55:12Z</time>
      </trkpt>
      <trkpt lat="49.75622" lon="2.12931">
        <ele>148.3</ele>
        <time>2023-06-21T12:55:13Z</time>
      </trkpt>
      <trkpt lat="49.75622" lon="2.12932">
        <ele>148.3</ele>
        <time>2023-06-21T12:55:14Z</time>
      </trkpt>
      <trkpt lat="49.75622" lon="2.12932">
        <ele>148.3</ele>
        <time>2023-06-21T12:55:15Z</time>
      </trkpt>
      <trkpt lat="49.75622" lon="2.12932">
        <ele>148.3</ele>
        <time>2023-06-21T12:55:16Z</time>
      </trkpt>
      <trkpt lat="49.75622" lon="2.12932">
        <ele>148.3</ele>
        <time>2023-06-21T12:55:17Z</time>
      </trkpt>
      <trkpt lat="49.75622" lon="2.12932">
        <ele>148.3</ele>
        <time>2023-06-21T12:55:18Z</time>
      </trkpt>
      <trkpt lat="49.75622" lon="2.12932">
        <ele>148.3</ele>
        <time>2023-06-21T12:55:19Z</time>
      </trkpt>
      <trkpt lat="49.75622" lon="2.12932">
        <ele>148.3</ele>
        <time>2023-06-21T12:55:20Z</time>
      </trkpt>
      <trkpt lat="49.75622" lon="2.12932">
        <ele>148.3</ele>
        <time>2023-06-21T12:55:21Z</time>
      </trkpt>
      <trkpt lat="49.75622" lon="2.12932">
        <ele>148.3</ele>
        <time>2023-06-21T12:55:22Z</time>
      </trkpt>
      <trkpt lat="49.75621" lon="2.12933">
        <ele>148.3</ele>
        <time>2023-06-21T12:55:23Z</time>
      </trkpt>
      <trkpt lat="49.75621" lon="2.12933">
        <ele>148.3</ele>
        <time>2023-06-21T12:55:24Z</time>
      </trkpt>
      <trkpt lat="49.75621" lon="2.12934">
        <ele>148.3</ele>
        <time>2023-06-21T12:55:25Z</time>
      </trkpt>
      <trkpt lat="49.7562" lon="2.12934">
        <ele>148.4</ele>
        <time>2023-06-21T12:55:26Z</time>
      </trkpt>
      <trkpt lat="49.7562" lon="2.12934">
        <ele>148.4</ele>
        <time>2023-06-21T12:55:27Z</time>
      </trkpt>
      <trkpt lat="49.7562" lon="2.12934">
        <ele>148.4</ele>
        <time>2023-06-21T12:55:28Z</time>
      </trkpt>
      <trkpt lat="49.7562" lon="2.12934">
        <ele>148.4</ele>
        <time>2023-06-21T12:55:29Z</time>
      </trkpt>
      <trkpt lat="49.7562" lon="2.12934">
        <ele>148.4</ele>
        <time>2023-06-21T12:55:30Z</time>
      </trkpt>
      <trkpt lat="49.7562" lon="2.12934">
        <ele>148.4</ele>
        <time>2023-06-21T12:55:31Z</time>
      </trkpt>
      <trkpt lat="49.7562" lon="2.12933">
        <ele>148.4</ele>
        <time>2023-06-21T12:55:32Z</time>
      </trkpt>
      <trkpt lat="49.7562" lon="2.12933">
        <ele>148.4</ele>
        <time>2023-06-21T12:55:33Z</time>
      </trkpt>
      <trkpt lat="49.7562" lon="2.12934">
        <ele>148.4</ele>
        <time>2023-06-21T12:55:34Z</time>
      </trkpt>
      <trkpt lat="49.75619" lon="2.12934">
        <ele>148.4</ele>
        <time>2023-06-21T12:55:35Z</time>
      </trkpt>
      <trkpt lat="49.75619" lon="2.12935">
        <ele>148.4</ele>
        <time>2023-06-21T12:55:36Z</time>
      </trkpt>
      <trkpt lat="49.75618" lon="2.12937">
        <ele>148.5</ele>
        <time>2023-06-21T12:55:37Z</time>
      </trkpt>
      <trkpt lat="49.75617" lon="2.12938">
        <ele>148.5</ele>
        <time>2023-06-21T12:55:38Z</time>
      </trkpt>
      <trkpt lat="49.75617" lon="2.12938">
        <ele>148.5</ele>
        <time>2023-06-21T12:55:39Z</time>
      </trkpt>
      <trkpt lat="49.75616" lon="2.12938">
        <ele>148.5</ele>
        <time>2023-06-21T12:55:40Z</time>
      </trkpt>
      <trkpt lat="49.75616" lon="2.12938">
        <ele>148.5</ele>
        <time>2023-06-21T12:55:41Z</time>
      </trkpt>
      <trkpt lat="49.75616" lon="2.12938">
        <ele>148.5</ele>
        <time>2023-06-21T12:55:42Z</time>
      </trkpt>
      <trkpt lat="49.75616" lon="2.12937">
        <ele>148.6</ele>
        <time>2023-06-21T12:55:43Z</time>
      </trkpt>
      <trkpt lat="49.75617" lon="2.12937">
        <ele>148.6</ele>
        <time>2023-06-21T12:55:44Z</time>
      </trkpt>
      <trkpt lat="49.75617" lon="2.12937">
        <ele>148.6</ele>
        <time>2023-06-21T12:55:45Z</time>
      </trkpt>
      <trkpt lat="49.75617" lon="2.12936">
        <ele>148.6</ele>
        <time>2023-06-21T12:55:46Z</time>
      </trkpt>
      <trkpt lat="49.75617" lon="2.12936">
        <ele>148.6</ele>
        <time>2023-06-21T12:55:47Z</time>
      </trkpt>
      <trkpt lat="49.75617" lon="2.12936">
        <ele>148.6</ele>
        <time>2023-06-21T12:55:48Z</time>
      </trkpt>
      <trkpt lat="49.75617" lon="2.12936">
        <ele>148.6</ele>
        <time>2023-06-21T12:55:49Z</time>
      </trkpt>
      <trkpt lat="49.75617" lon="2.12936">
        <ele>148.6</ele>
        <time>2023-06-21T12:55:50Z</time>
      </trkpt>
      <trkpt lat="49.75617" lon="2.12936">
        <ele>148.6</ele>
        <time>2023-06-21T12:55:51Z</time>
      </trkpt>
      <trkpt lat="49.75618" lon="2.12936">
        <ele>148.6</ele>
        <time>2023-06-21T12:55:52Z</time>
      </trkpt>
      <trkpt lat="49.75618" lon="2.12936">
        <ele>148.6</ele>
        <time>2023-06-21T12:55:53Z</time>
      </trkpt>
      <trkpt lat="49.75618" lon="2.12936">
        <ele>148.6</ele>
        <time>2023-06-21T12:55:54Z</time>
      </trkpt>
      <trkpt lat="49.75618" lon="2.12936">
        <ele>148.6</ele>
        <time>2023-06-21T12:55:55Z</time>
      </trkpt>
      <trkpt lat="49.75618" lon="2.12936">
        <ele>148.6</ele>
        <time>2023-06-21T12:55:56Z</time>
      </trkpt>
      <trkpt lat="49.75618" lon="2.12936">
        <ele>148.6</ele>
        <time>2023-06-21T12:55:57Z</time>
      </trkpt>
      <trkpt lat="49.75618" lon="2.12936">
        <ele>148.6</ele>
        <time>2023-06-21T12:55:58Z</time>
      </trkpt>
      <trkpt lat="49.75618" lon="2.12936">
        <ele>148.6</ele>
        <time>2023-06-21T12:55:59Z</time>
      </trkpt>
      <trkpt lat="49.75618" lon="2.12936">
        <ele>148.6</ele>
        <time>2023-06-21T12:56:00Z</time>
      </trkpt>
      <trkpt lat="49.75618" lon="2.12936">
        <ele>148.6</ele>
        <time>2023-06-21T12:56:01Z</time>
      </trkpt>
      <trkpt lat="49.75618" lon="2.12936">
        <ele>148.6</ele>
        <time>2023-06-21T12:56:02Z</time>
      </trkpt>
      <trkpt lat="49.75618" lon="2.12936">
        <ele>148.6</ele>
        <time>2023-06-21T12:56:03Z</time>
      </trkpt>
      <trkpt lat="49.75618" lon="2.12936">
        <ele>148.6</ele>
        <time>2023-06-21T12:56:04Z</time>
      </trkpt>
      <trkpt lat="49.75618" lon="2.12936">
        <ele>148.6</ele>
        <time>2023-06-21T12:56:05Z</time>
      </trkpt>
      <trkpt lat="49.75618" lon="2.12936">
        <ele>148.6</ele>
        <time>2023-06-21T12:56:06Z</time>
      </trkpt>
      <trkpt lat="49.75618" lon="2.12936">
        <ele>148.6</ele>
        <time>2023-06-21T12:56:07Z</time>
      </trkpt>
      <trkpt lat="49.75618" lon="2.12936">
        <ele>148.6</ele>
        <time>2023-06-21T12:56:08Z</time>
      </trkpt>
      <trkpt lat="49.75618" lon="2.12936">
        <ele>148.6</ele>
        <time>2023-06-21T12:56:09Z</time>
      </trkpt>
      <trkpt lat="49.75618" lon="2.12936">
        <ele>148.6</ele>
        <time>2023-06-21T12:56:10Z</time>
      </trkpt>
      <trkpt lat="49.75618" lon="2.12936">
        <ele>148.6</ele>
        <time>2023-06-21T12:56:11Z</time>
      </trkpt>
      <trkpt lat="49.75618" lon="2.12936">
        <ele>148.6</ele>
        <time>2023-06-21T12:56:12Z</time>
      </trkpt>
      <trkpt lat="49.75618" lon="2.12936">
        <ele>148.6</ele>
        <time>2023-06-21T12:56:13Z</time>
      </trkpt>
      <trkpt lat="49.75618" lon="2.12936">
        <ele>148.6</ele>
        <time>2023-06-21T12:56:14Z</time>
      </trkpt>
      <trkpt lat="49.75618" lon="2.12936">
        <ele>148.6</ele>
        <time>2023-06-21T12:56:15Z</time>
      </trkpt>
      <trkpt lat="49.75618" lon="2.12936">
        <ele>148.6</ele>
        <time>2023-06-21T12:56:16Z</time>
      </trkpt>
      <trkpt lat="49.75618" lon="2.12936">
        <ele>148.6</ele>
        <time>2023-06-21T12:56:17Z</time>
      </trkpt>
      <trkpt lat="49.75618" lon="2.12936">
        <ele>148.6</ele>
        <time>2023-06-21T12:56:18Z</time>
      </trkpt>
      <trkpt lat="49.75618" lon="2.12936">
        <ele>148.6</ele>
        <time>2023-06-21T12:56:19Z</time>
      </trkpt>
      <trkpt lat="49.75618" lon="2.12936">
        <ele>148.6</ele>
        <time>2023-06-21T12:56:20Z</time>
      </trkpt>
      <trkpt lat="49.75618" lon="2.12936">
        <ele>148.6</ele>
        <time>2023-06-21T12:56:21Z</time>
      </trkpt>
      <trkpt lat="49.75618" lon="2.12936">
        <ele>148.6</ele>
        <time>2023-06-21T12:56:22Z</time>
      </trkpt>
      <trkpt lat="49.75618" lon="2.12936">
        <ele>148.6</ele>
        <time>2023-06-21T12:56:23Z</time>
      </trkpt>
      <trkpt lat="49.75618" lon="2.12936">
        <ele>148.6</ele>
        <time>2023-06-21T12:56:24Z</time>
      </trkpt>
      <trkpt lat="49.75618" lon="2.12936">
        <ele>148.6</ele>
        <time>2023-06-21T12:56:25Z</time>
      </trkpt>
      <trkpt lat="49.75618" lon="2.12936">
        <ele>148.6</ele>
        <time>2023-06-21T12:56:26Z</time>
      </trkpt>
      <trkpt lat="49.75618" lon="2.12936">
        <ele>148.6</ele>
        <time>2023-06-21T12:56:27Z</time>
      </trkpt>
      <trkpt lat="49.75618" lon="2.12936">
        <ele>148.6</ele>
        <time>2023-06-21T12:56:28Z</time>
      </trkpt>
      <trkpt lat="49.75618" lon="2.12936">
        <ele>148.6</ele>
        <time>2023-06-21T12:56:29Z</time>
      </trkpt>
      <trkpt lat="49.75618" lon="2.12936">
        <ele>148.6</ele>
        <time>2023-06-21T12:56:30Z</time>
      </trkpt>
      <trkpt lat="49.75618" lon="2.12936">
        <ele>148.6</ele>
        <time>2023-06-21T12:56:31Z</time>
      </trkpt>
      <trkpt lat="49.75618" lon="2.12936">
        <ele>148.6</ele>
        <time>2023-06-21T12:56:32Z</time>
      </trkpt>
      <trkpt lat="49.75618" lon="2.12936">
        <ele>148.6</ele>
        <time>2023-06-21T12:56:33Z</time>
      </trkpt>
      <trkpt lat="49.75618" lon="2.12936">
        <ele>148.6</ele>
        <time>2023-06-21T12:56:34Z</time>
      </trkpt>
      <trkpt lat="49.75618" lon="2.12936">
        <ele>148.6</ele>
        <time>2023-06-21T12:56:35Z</time>
      </trkpt>
      <trkpt lat="49.75618" lon="2.12936">
        <ele>148.6</ele>
        <time>2023-06-21T12:56:36Z</time>
      </trkpt>
      <trkpt lat="49.75618" lon="2.12936">
        <ele>148.6</ele>
        <time>2023-06-21T12:56:37Z</time>
      </trkpt>
      <trkpt lat="49.75618" lon="2.12936">
        <ele>148.6</ele>
        <time>2023-06-21T12:56:38Z</time>
      </trkpt>
      <trkpt lat="49.75618" lon="2.12936">
        <ele>148.6</ele>
        <time>2023-06-21T12:56:39Z</time>
      </trkpt>
      <trkpt lat="49.75618" lon="2.12936">
        <ele>148.6</ele>
        <time>2023-06-21T12:56:40Z</time>
      </trkpt>
      <trkpt lat="49.75618" lon="2.12936">
        <ele>148.6</ele>
        <time>2023-06-21T12:56:41Z</time>
      </trkpt>
      <trkpt lat="49.75618" lon="2.12936">
        <ele>148.6</ele>
        <time>2023-06-21T12:56:42Z</time>
      </trkpt>
      <trkpt lat="49.75618" lon="2.12936">
        <ele>148.6</ele>
        <time>2023-06-21T12:56:43Z</time>
      </trkpt>
      <trkpt lat="49.75618" lon="2.12936">
        <ele>148.6</ele>
        <time>2023-06-21T12:56:44Z</time>
      </trkpt>
      <trkpt lat="49.75618" lon="2.12936">
        <ele>148.6</ele>
        <time>2023-06-21T12:56:45Z</time>
      </trkpt>
      <trkpt lat="49.75618" lon="2.12935">
        <ele>148.6</ele>
        <time>2023-06-21T12:56:47Z</time>
      </trkpt>
      <trkpt lat="49.75619" lon="2.12934">
        <ele>148.7</ele>
        <time>2023-06-21T12:56:48Z</time>
      </trkpt>
      <trkpt lat="49.7562" lon="2.12933">
        <ele>148.7</ele>
        <time>2023-06-21T12:56:49Z</time>
      </trkpt>
      <trkpt lat="49.75621" lon="2.12931">
        <ele>148.7</ele>
        <time>2023-06-21T12:56:50Z</time>
      </trkpt>
      <trkpt lat="49.75621" lon="2.1293">
        <ele>148.8</ele>
        <time>2023-06-21T12:56:51Z</time>
      </trkpt>
      <trkpt lat="49.75622" lon="2.12927">
        <ele>148.8</ele>
        <time>2023-06-21T12:56:52Z</time>
      </trkpt>
      <trkpt lat="49.75622" lon="2.12926">
        <ele>148.9</ele>
        <time>2023-06-21T12:56:54Z</time>
      </trkpt>
      <trkpt lat="49.75622" lon="2.12924">
        <ele>148.9</ele>
        <time>2023-06-21T12:56:55Z</time>
      </trkpt>
      <trkpt lat="49.75622" lon="2.12922">
        <ele>148.9</ele>
        <time>2023-06-21T12:56:56Z</time>
      </trkpt>
      <trkpt lat="49.75622" lon="2.1292">
        <ele>149</ele>
        <time>2023-06-21T12:56:57Z</time>
      </trkpt>
      <trkpt lat="49.75622" lon="2.12918">
        <ele>149.2</ele>
        <time>2023-06-21T12:56:58Z</time>
      </trkpt>
      <trkpt lat="49.75623" lon="2.12916">
        <ele>149.2</ele>
        <time>2023-06-21T12:56:59Z</time>
      </trkpt>
      <trkpt lat="49.75624" lon="2.12914">
        <ele>149.3</ele>
        <time>2023-06-21T12:57:01Z</time>
      </trkpt>
      <trkpt lat="49.75624" lon="2.12913">
        <ele>149.3</ele>
        <time>2023-06-21T12:57:03Z</time>
      </trkpt>
      <trkpt lat="49.75625" lon="2.12911">
        <ele>149.3</ele>
        <time>2023-06-21T12:57:04Z</time>
      </trkpt>
      <trkpt lat="49.75626" lon="2.12908">
        <ele>149.3</ele>
        <time>2023-06-21T12:57:05Z</time>
      </trkpt>
      <trkpt lat="49.75626" lon="2.12907">
        <ele>149.3</ele>
        <time>2023-06-21T12:57:06Z</time>
      </trkpt>
      <trkpt lat="49.75626" lon="2.12906">
        <ele>149.3</ele>
        <time>2023-06-21T12:57:07Z</time>
      </trkpt>
      <trkpt lat="49.75627" lon="2.12905">
        <ele>149.4</ele>
        <time>2023-06-21T12:57:08Z</time>
      </trkpt>
      <trkpt lat="49.75626" lon="2.12904">
        <ele>149.4</ele>
        <time>2023-06-21T12:57:09Z</time>
      </trkpt>
      <trkpt lat="49.75627" lon="2.12903">
        <ele>149.4</ele>
        <time>2023-06-21T12:57:11Z</time>
      </trkpt>
      <trkpt lat="49.75627" lon="2.12902">
        <ele>149.4</ele>
        <time>2023-06-21T12:57:12Z</time>
      </trkpt>
      <trkpt lat="49.75628" lon="2.129">
        <ele>149.4</ele>
        <time>2023-06-21T12:57:13Z</time>
      </trkpt>
      <trkpt lat="49.75628" lon="2.12898">
        <ele>149.4</ele>
        <time>2023-06-21T12:57:14Z</time>
      </trkpt>
      <trkpt lat="49.75629" lon="2.12897">
        <ele>149.4</ele>
        <time>2023-06-21T12:57:15Z</time>
      </trkpt>
      <trkpt lat="49.75629" lon="2.12896">
        <ele>149.4</ele>
        <time>2023-06-21T12:57:16Z</time>
      </trkpt>
      <trkpt lat="49.7563" lon="2.12893">
        <ele>149.4</ele>
        <time>2023-06-21T12:57:17Z</time>
      </trkpt>
      <trkpt lat="49.7563" lon="2.12892">
        <ele>149.4</ele>
        <time>2023-06-21T12:57:19Z</time>
      </trkpt>
      <trkpt lat="49.75631" lon="2.12891">
        <ele>149.4</ele>
        <time>2023-06-21T12:57:20Z</time>
      </trkpt>
      <trkpt lat="49.75631" lon="2.12889">
        <ele>149.4</ele>
        <time>2023-06-21T12:57:21Z</time>
      </trkpt>
      <trkpt lat="49.75632" lon="2.12888">
        <ele>149.4</ele>
        <time>2023-06-21T12:57:22Z</time>
      </trkpt>
      <trkpt lat="49.75632" lon="2.12886">
        <ele>149.4</ele>
        <time>2023-06-21T12:57:23Z</time>
      </trkpt>
      <trkpt lat="49.75633" lon="2.12884">
        <ele>149.4</ele>
        <time>2023-06-21T12:57:24Z</time>
      </trkpt>
      <trkpt lat="49.75633" lon="2.12881">
        <ele>149.4</ele>
        <time>2023-06-21T12:57:26Z</time>
      </trkpt>
      <trkpt lat="49.75635" lon="2.12877">
        <ele>149.4</ele>
        <time>2023-06-21T12:57:27Z</time>
      </trkpt>
      <trkpt lat="49.75635" lon="2.12876">
        <ele>149.4</ele>
        <time>2023-06-21T12:57:28Z</time>
      </trkpt>
      <trkpt lat="49.75637" lon="2.12871">
        <ele>149.4</ele>
        <time>2023-06-21T12:57:29Z</time>
      </trkpt>
      <trkpt lat="49.75637" lon="2.1287">
        <ele>149.3</ele>
        <time>2023-06-21T12:57:30Z</time>
      </trkpt>
      <trkpt lat="49.75639" lon="2.12866">
        <ele>149.3</ele>
        <time>2023-06-21T12:57:32Z</time>
      </trkpt>
      <trkpt lat="49.7564" lon="2.12864">
        <ele>149.3</ele>
        <time>2023-06-21T12:57:34Z</time>
      </trkpt>
      <trkpt lat="49.75641" lon="2.12862">
        <ele>149.3</ele>
        <time>2023-06-21T12:57:35Z</time>
      </trkpt>
      <trkpt lat="49.75641" lon="2.12861">
        <ele>149.3</ele>
        <time>2023-06-21T12:57:36Z</time>
      </trkpt>
      <trkpt lat="49.75641" lon="2.12859">
        <ele>149.3</ele>
        <time>2023-06-21T12:57:37Z</time>
      </trkpt>
      <trkpt lat="49.75641" lon="2.12857">
        <ele>149.3</ele>
        <time>2023-06-21T12:57:39Z</time>
      </trkpt>
      <trkpt lat="49.75641" lon="2.12857">
        <ele>149.3</ele>
        <time>2023-06-21T12:57:40Z</time>
      </trkpt>
      <trkpt lat="49.75642" lon="2.12856">
        <ele>149.3</ele>
        <time>2023-06-21T12:57:41Z</time>
      </trkpt>
      <trkpt lat="49.75642" lon="2.12856">
        <ele>149.3</ele>
        <time>2023-06-21T12:57:42Z</time>
      </trkpt>
      <trkpt lat="49.75642" lon="2.12855">
        <ele>149.3</ele>
        <time>2023-06-21T12:57:43Z</time>
      </trkpt>
      <trkpt lat="49.75643" lon="2.12855">
        <ele>149.3</ele>
        <time>2023-06-21T12:57:44Z</time>
      </trkpt>
      <trkpt lat="49.75643" lon="2.12854">
        <ele>149.3</ele>
        <time>2023-06-21T12:57:46Z</time>
      </trkpt>
      <trkpt lat="49.75643" lon="2.12853">
        <ele>149.3</ele>
        <time>2023-06-21T12:57:47Z</time>
      </trkpt>
      <trkpt lat="49.75643" lon="2.12853">
        <ele>149.2</ele>
        <time>2023-06-21T12:57:48Z</time>
      </trkpt>
      <trkpt lat="49.75643" lon="2.12852">
        <ele>149.2</ele>
        <time>2023-06-21T12:57:49Z</time>
      </trkpt>
      <trkpt lat="49.75643" lon="2.1285">
        <ele>149.2</ele>
        <time>2023-06-21T12:57:51Z</time>
      </trkpt>
      <trkpt lat="49.75643" lon="2.12849">
        <ele>149.2</ele>
        <time>2023-06-21T12:57:52Z</time>
      </trkpt>
      <trkpt lat="49.75643" lon="2.12848">
        <ele>149.2</ele>
        <time>2023-06-21T12:57:53Z</time>
      </trkpt>
      <trkpt lat="49.75644" lon="2.12847">
        <ele>149.2</ele>
        <time>2023-06-21T12:57:54Z</time>
      </trkpt>
      <trkpt lat="49.75645" lon="2.12846">
        <ele>149.2</ele>
        <time>2023-06-21T12:57:55Z</time>
      </trkpt>
      <trkpt lat="49.75645" lon="2.12845">
        <ele>149.2</ele>
        <time>2023-06-21T12:57:56Z</time>
      </trkpt>
      <trkpt lat="49.75646" lon="2.12843">
        <ele>149.2</ele>
        <time>2023-06-21T12:57:57Z</time>
      </trkpt>
      <trkpt lat="49.75647" lon="2.12839">
        <ele>149.1</ele>
        <time>2023-06-21T12:57:59Z</time>
      </trkpt>
      <trkpt lat="49.75648" lon="2.12837">
        <ele>149.1</ele>
        <time>2023-06-21T12:58:01Z</time>
      </trkpt>
      <trkpt lat="49.75649" lon="2.12835">
        <ele>149.1</ele>
        <time>2023-06-21T12:58:02Z</time>
      </trkpt>
      <trkpt lat="49.7565" lon="2.12833">
        <ele>149.1</ele>
        <time>2023-06-21T12:58:03Z</time>
      </trkpt>
      <trkpt lat="49.75651" lon="2.12832">
        <ele>149.1</ele>
        <time>2023-06-21T12:58:04Z</time>
      </trkpt>
      <trkpt lat="49.75651" lon="2.12831">
        <ele>149.1</ele>
        <time>2023-06-21T12:58:05Z</time>
      </trkpt>
      <trkpt lat="49.75652" lon="2.12829">
        <ele>149.1</ele>
        <time>2023-06-21T12:58:06Z</time>
      </trkpt>
      <trkpt lat="49.75653" lon="2.12827">
        <ele>149.1</ele>
        <time>2023-06-21T12:58:07Z</time>
      </trkpt>
      <trkpt lat="49.75653" lon="2.12825">
        <ele>149.1</ele>
        <time>2023-06-21T12:58:08Z</time>
      </trkpt>
      <trkpt lat="49.75654" lon="2.12824">
        <ele>149</ele>
        <time>2023-06-21T12:58:09Z</time>
      </trkpt>
      <trkpt lat="49.75654" lon="2.12822">
        <ele>149</ele>
        <time>2023-06-21T12:58:11Z</time>
      </trkpt>
      <trkpt lat="49.75655" lon="2.1282">
        <ele>149</ele>
        <time>2023-06-21T12:58:12Z</time>
      </trkpt>
      <trkpt lat="49.75656" lon="2.12817">
        <ele>149</ele>
        <time>2023-06-21T12:58:14Z</time>
      </trkpt>
      <trkpt lat="49.75657" lon="2.12816">
        <ele>149</ele>
        <time>2023-06-21T12:58:15Z</time>
      </trkpt>
      <trkpt lat="49.75657" lon="2.12812">
        <ele>149</ele>
        <time>2023-06-21T12:58:16Z</time>
      </trkpt>
      <trkpt lat="49.75658" lon="2.12811">
        <ele>149</ele>
        <time>2023-06-21T12:58:17Z</time>
      </trkpt>
      <trkpt lat="49.75658" lon="2.1281">
        <ele>149</ele>
        <time>2023-06-21T12:58:18Z</time>
      </trkpt>
      <trkpt lat="49.75659" lon="2.12806">
        <ele>149</ele>
        <time>2023-06-21T12:58:19Z</time>
      </trkpt>
      <trkpt lat="49.75659" lon="2.12805">
        <ele>149</ele>
        <time>2023-06-21T12:58:21Z</time>
      </trkpt>
      <trkpt lat="49.75659" lon="2.12803">
        <ele>149.1</ele>
        <time>2023-06-21T12:58:22Z</time>
      </trkpt>
      <trkpt lat="49.7566" lon="2.12801">
        <ele>149.1</ele>
        <time>2023-06-21T12:58:23Z</time>
      </trkpt>
      <trkpt lat="49.7566" lon="2.128">
        <ele>149.1</ele>
        <time>2023-06-21T12:58:24Z</time>
      </trkpt>
      <trkpt lat="49.75662" lon="2.12797">
        <ele>149.1</ele>
        <time>2023-06-21T12:58:25Z</time>
      </trkpt>
      <trkpt lat="49.75662" lon="2.12796">
        <ele>149.1</ele>
        <time>2023-06-21T12:58:26Z</time>
      </trkpt>
      <trkpt lat="49.75663" lon="2.12795">
        <ele>149.1</ele>
        <time>2023-06-21T12:58:27Z</time>
      </trkpt>
      <trkpt lat="49.75664" lon="2.12792">
        <ele>149.1</ele>
        <time>2023-06-21T12:58:29Z</time>
      </trkpt>
      <trkpt lat="49.75664" lon="2.12791">
        <ele>149.1</ele>
        <time>2023-06-21T12:58:30Z</time>
      </trkpt>
      <trkpt lat="49.75664" lon="2.1279">
        <ele>149.1</ele>
        <time>2023-06-21T12:58:31Z</time>
      </trkpt>
      <trkpt lat="49.75665" lon="2.12788">
        <ele>149.1</ele>
        <time>2023-06-21T12:58:32Z</time>
      </trkpt>
      <trkpt lat="49.75666" lon="2.12787">
        <ele>149.1</ele>
        <time>2023-06-21T12:58:33Z</time>
      </trkpt>
      <trkpt lat="49.75666" lon="2.12786">
        <ele>149.1</ele>
        <time>2023-06-21T12:58:34Z</time>
      </trkpt>
      <trkpt lat="49.75667" lon="2.12785">
        <ele>149.1</ele>
        <time>2023-06-21T12:58:35Z</time>
      </trkpt>
      <trkpt lat="49.75668" lon="2.12783">
        <ele>149.1</ele>
        <time>2023-06-21T12:58:36Z</time>
      </trkpt>
      <trkpt lat="49.75668" lon="2.12782">
        <ele>149.1</ele>
        <time>2023-06-21T12:58:38Z</time>
      </trkpt>
      <trkpt lat="49.75669" lon="2.12781">
        <ele>149.2</ele>
        <time>2023-06-21T12:58:39Z</time>
      </trkpt>
      <trkpt lat="49.75669" lon="2.1278">
        <ele>149.2</ele>
        <time>2023-06-21T12:58:40Z</time>
      </trkpt>
      <trkpt lat="49.7567" lon="2.12779">
        <ele>149.2</ele>
        <time>2023-06-21T12:58:41Z</time>
      </trkpt>
      <trkpt lat="49.7567" lon="2.12777">
        <ele>149.2</ele>
        <time>2023-06-21T12:58:42Z</time>
      </trkpt>
      <trkpt lat="49.75671" lon="2.12775">
        <ele>149.2</ele>
        <time>2023-06-21T12:58:43Z</time>
      </trkpt>
      <trkpt lat="49.75672" lon="2.12773">
        <ele>149.2</ele>
        <time>2023-06-21T12:58:44Z</time>
      </trkpt>
      <trkpt lat="49.75673" lon="2.1277">
        <ele>149.2</ele>
        <time>2023-06-21T12:58:46Z</time>
      </trkpt>
      <trkpt lat="49.75674" lon="2.12768">
        <ele>149.2</ele>
        <time>2023-06-21T12:58:48Z</time>
      </trkpt>
      <trkpt lat="49.75675" lon="2.12766">
        <ele>149.2</ele>
        <time>2023-06-21T12:58:49Z</time>
      </trkpt>
      <trkpt lat="49.75676" lon="2.12765">
        <ele>149.2</ele>
        <time>2023-06-21T12:58:50Z</time>
      </trkpt>
      <trkpt lat="49.75676" lon="2.12764">
        <ele>149.2</ele>
        <time>2023-06-21T12:58:51Z</time>
      </trkpt>
      <trkpt lat="49.75677" lon="2.12761">
        <ele>149.2</ele>
        <time>2023-06-21T12:58:52Z</time>
      </trkpt>
      <trkpt lat="49.75678" lon="2.1276">
        <ele>149.3</ele>
        <time>2023-06-21T12:58:53Z</time>
      </trkpt>
      <trkpt lat="49.75679" lon="2.12759">
        <ele>149.3</ele>
        <time>2023-06-21T12:58:54Z</time>
      </trkpt>
      <trkpt lat="49.75679" lon="2.12757">
        <ele>149.3</ele>
        <time>2023-06-21T12:58:55Z</time>
      </trkpt>
      <trkpt lat="49.7568" lon="2.12756">
        <ele>149.3</ele>
        <time>2023-06-21T12:58:57Z</time>
      </trkpt>
      <trkpt lat="49.75681" lon="2.12755">
        <ele>149.3</ele>
        <time>2023-06-21T12:58:58Z</time>
      </trkpt>
      <trkpt lat="49.75682" lon="2.12753">
        <ele>149.3</ele>
        <time>2023-06-21T12:58:59Z</time>
      </trkpt>
      <trkpt lat="49.75683" lon="2.12752">
        <ele>149.3</ele>
        <time>2023-06-21T12:59:00Z</time>
      </trkpt>
      <trkpt lat="49.75685" lon="2.1275">
        <ele>149.3</ele>
        <time>2023-06-21T12:59:01Z</time>
      </trkpt>
      <trkpt lat="49.75686" lon="2.12749">
        <ele>149.3</ele>
        <time>2023-06-21T12:59:02Z</time>
      </trkpt>
      <trkpt lat="49.75686" lon="2.12748">
        <ele>149.3</ele>
        <time>2023-06-21T12:59:03Z</time>
      </trkpt>
      <trkpt lat="49.75687" lon="2.12747">
        <ele>149.3</ele>
        <time>2023-06-21T12:59:04Z</time>
      </trkpt>
      <trkpt lat="49.75688" lon="2.12745">
        <ele>149.4</ele>
        <time>2023-06-21T12:59:05Z</time>
      </trkpt>
      <trkpt lat="49.7569" lon="2.12743">
        <ele>149.4</ele>
        <time>2023-06-21T12:59:07Z</time>
      </trkpt>
      <trkpt lat="49.75691" lon="2.12742">
        <ele>149.4</ele>
        <time>2023-06-21T12:59:08Z</time>
      </trkpt>
      <trkpt lat="49.75692" lon="2.1274">
        <ele>149.4</ele>
        <time>2023-06-21T12:59:09Z</time>
      </trkpt>
      <trkpt lat="49.75693" lon="2.12739">
        <ele>149.4</ele>
        <time>2023-06-21T12:59:10Z</time>
      </trkpt>
      <trkpt lat="49.75694" lon="2.12737">
        <ele>149.4</ele>
        <time>2023-06-21T12:59:12Z</time>
      </trkpt>
      <trkpt lat="49.75695" lon="2.12736">
        <ele>149.4</ele>
        <time>2023-06-21T12:59:13Z</time>
      </trkpt>
      <trkpt lat="49.75696" lon="2.12735">
        <ele>149.5</ele>
        <time>2023-06-21T12:59:14Z</time>
      </trkpt>
      <trkpt lat="49.75696" lon="2.12734">
        <ele>149.5</ele>
        <time>2023-06-21T12:59:15Z</time>
      </trkpt>
      <trkpt lat="49.75697" lon="2.12733">
        <ele>149.5</ele>
        <time>2023-06-21T12:59:16Z</time>
      </trkpt>
      <trkpt lat="49.75699" lon="2.12732">
        <ele>149.5</ele>
        <time>2023-06-21T12:59:17Z</time>
      </trkpt>
      <trkpt lat="49.75699" lon="2.12732">
        <ele>149.5</ele>
        <time>2023-06-21T12:59:18Z</time>
      </trkpt>
      <trkpt lat="49.757" lon="2.12731">
        <ele>149.6</ele>
        <time>2023-06-21T12:59:19Z</time>
      </trkpt>
      <trkpt lat="49.75702" lon="2.1273">
        <ele>149.6</ele>
        <time>2023-06-21T12:59:20Z</time>
      </trkpt>
      <trkpt lat="49.75703" lon="2.12728">
        <ele>149.6</ele>
        <time>2023-06-21T12:59:22Z</time>
      </trkpt>
      <trkpt lat="49.75705" lon="2.12726">
        <ele>149.6</ele>
        <time>2023-06-21T12:59:23Z</time>
      </trkpt>
      <trkpt lat="49.75705" lon="2.12726">
        <ele>149.7</ele>
        <time>2023-06-21T12:59:24Z</time>
      </trkpt>
      <trkpt lat="49.75706" lon="2.12725">
        <ele>149.7</ele>
        <time>2023-06-21T12:59:25Z</time>
      </trkpt>
      <trkpt lat="49.75708" lon="2.12723">
        <ele>149.8</ele>
        <time>2023-06-21T12:59:27Z</time>
      </trkpt>
      <trkpt lat="49.75708" lon="2.12722">
        <ele>149.8</ele>
        <time>2023-06-21T12:59:28Z</time>
      </trkpt>
      <trkpt lat="49.7571" lon="2.1272">
        <ele>149.8</ele>
        <time>2023-06-21T12:59:29Z</time>
      </trkpt>
      <trkpt lat="49.7571" lon="2.1272">
        <ele>149.8</ele>
        <time>2023-06-21T12:59:30Z</time>
      </trkpt>
      <trkpt lat="49.75711" lon="2.12719">
        <ele>149.9</ele>
        <time>2023-06-21T12:59:31Z</time>
      </trkpt>
      <trkpt lat="49.75711" lon="2.12718">
        <ele>149.9</ele>
        <time>2023-06-21T12:59:32Z</time>
      </trkpt>
      <trkpt lat="49.75713" lon="2.12717">
        <ele>150</ele>
        <time>2023-06-21T12:59:34Z</time>
      </trkpt>
      <trkpt lat="49.75713" lon="2.12716">
        <ele>150</ele>
        <time>2023-06-21T12:59:35Z</time>
      </trkpt>
      <trkpt lat="49.75714" lon="2.12715">
        <ele>150</ele>
        <time>2023-06-21T12:59:36Z</time>
      </trkpt>
      <trkpt lat="49.75715" lon="2.12713">
        <ele>150.1</ele>
        <time>2023-06-21T12:59:37Z</time>
      </trkpt>
      <trkpt lat="49.75716" lon="2.12712">
        <ele>150.1</ele>
        <time>2023-06-21T12:59:38Z</time>
      </trkpt>
      <trkpt lat="49.75718" lon="2.1271">
        <ele>150.2</ele>
        <time>2023-06-21T12:59:40Z</time>
      </trkpt>
      <trkpt lat="49.75719" lon="2.12709">
        <ele>150.2</ele>
        <time>2023-06-21T12:59:41Z</time>
      </trkpt>
      <trkpt lat="49.75719" lon="2.12708">
        <ele>150.3</ele>
        <time>2023-06-21T12:59:42Z</time>
      </trkpt>
      <trkpt lat="49.7572" lon="2.12708">
        <ele>150.3</ele>
        <time>2023-06-21T12:59:43Z</time>
      </trkpt>
      <trkpt lat="49.7572" lon="2.12706">
        <ele>150.3</ele>
        <time>2023-06-21T12:59:44Z</time>
      </trkpt>
      <trkpt lat="49.75721" lon="2.12705">
        <ele>150.4</ele>
        <time>2023-06-21T12:59:45Z</time>
      </trkpt>
      <trkpt lat="49.75722" lon="2.12704">
        <ele>150.4</ele>
        <time>2023-06-21T12:59:46Z</time>
      </trkpt>
      <trkpt lat="49.75723" lon="2.12703">
        <ele>150.4</ele>
        <time>2023-06-21T12:59:47Z</time>
      </trkpt>
      <trkpt lat="49.75724" lon="2.12701">
        <ele>150.5</ele>
        <time>2023-06-21T12:59:49Z</time>
      </trkpt>
      <trkpt lat="49.75725" lon="2.127">
        <ele>150.5</ele>
        <time>2023-06-21T12:59:50Z</time>
      </trkpt>
      <trkpt lat="49.75726" lon="2.12698">
        <ele>150.6</ele>
        <time>2023-06-21T12:59:51Z</time>
      </trkpt>
      <trkpt lat="49.75728" lon="2.12696">
        <ele>150.7</ele>
        <time>2023-06-21T12:59:52Z</time>
      </trkpt>
      <trkpt lat="49.75729" lon="2.12695">
        <ele>150.7</ele>
        <time>2023-06-21T12:59:54Z</time>
      </trkpt>
      <trkpt lat="49.7573" lon="2.12694">
        <ele>150.8</ele>
        <time>2023-06-21T12:59:55Z</time>
      </trkpt>
      <trkpt lat="49.75731" lon="2.12693">
        <ele>150.8</ele>
        <time>2023-06-21T12:59:56Z</time>
      </trkpt>
      <trkpt lat="49.75732" lon="2.12692">
        <ele>150.8</ele>
        <time>2023-06-21T12:59:57Z</time>
      </trkpt>
      <trkpt lat="49.75733" lon="2.1269">
        <ele>150.9</ele>
        <time>2023-06-21T12:59:59Z</time>
      </trkpt>
      <trkpt lat="49.75734" lon="2.12689">
        <ele>150.9</ele>
        <time>2023-06-21T13:00:00Z</time>
      </trkpt>
      <trkpt lat="49.75734" lon="2.12688">
        <ele>151</ele>
        <time>2023-06-21T13:00:01Z</time>
      </trkpt>
      <trkpt lat="49.75736" lon="2.12686">
        <ele>151</ele>
        <time>2023-06-21T13:00:03Z</time>
      </trkpt>
      <trkpt lat="49.75737" lon="2.12685">
        <ele>151.1</ele>
        <time>2023-06-21T13:00:04Z</time>
      </trkpt>
      <trkpt lat="49.75738" lon="2.12684">
        <ele>151.1</ele>
        <time>2023-06-21T13:00:05Z</time>
      </trkpt>
      <trkpt lat="49.75739" lon="2.12683">
        <ele>151.1</ele>
        <time>2023-06-21T13:00:06Z</time>
      </trkpt>
      <trkpt lat="49.7574" lon="2.12682">
        <ele>151.2</ele>
        <time>2023-06-21T13:00:07Z</time>
      </trkpt>
      <trkpt lat="49.75741" lon="2.12681">
        <ele>151.2</ele>
        <time>2023-06-21T13:00:08Z</time>
      </trkpt>
      <trkpt lat="49.75742" lon="2.1268">
        <ele>151.3</ele>
        <time>2023-06-21T13:00:09Z</time>
      </trkpt>
      <trkpt lat="49.75743" lon="2.12678">
        <ele>151.3</ele>
        <time>2023-06-21T13:00:11Z</time>
      </trkpt>
      <trkpt lat="49.75744" lon="2.12677">
        <ele>151.3</ele>
        <time>2023-06-21T13:00:12Z</time>
      </trkpt>
      <trkpt lat="49.75745" lon="2.12676">
        <ele>151.4</ele>
        <time>2023-06-21T13:00:13Z</time>
      </trkpt>
      <trkpt lat="49.75746" lon="2.12674">
        <ele>151.5</ele>
        <time>2023-06-21T13:00:15Z</time>
      </trkpt>
      <trkpt lat="49.75748" lon="2.12672">
        <ele>151.5</ele>
        <time>2023-06-21T13:00:16Z</time>
      </trkpt>
      <trkpt lat="49.75749" lon="2.1267">
        <ele>151.6</ele>
        <time>2023-06-21T13:00:17Z</time>
      </trkpt>
      <trkpt lat="49.7575" lon="2.1267">
        <ele>151.6</ele>
        <time>2023-06-21T13:00:18Z</time>
      </trkpt>
      <trkpt lat="49.7575" lon="2.12669">
        <ele>151.6</ele>
        <time>2023-06-21T13:00:19Z</time>
      </trkpt>
      <trkpt lat="49.75752" lon="2.12667">
        <ele>151.6</ele>
        <time>2023-06-21T13:00:21Z</time>
      </trkpt>
      <trkpt lat="49.75753" lon="2.12666">
        <ele>151.7</ele>
        <time>2023-06-21T13:00:22Z</time>
      </trkpt>
      <trkpt lat="49.75754" lon="2.12663">
        <ele>151.8</ele>
        <time>2023-06-21T13:00:23Z</time>
      </trkpt>
      <trkpt lat="49.75755" lon="2.12662">
        <ele>151.8</ele>
        <time>2023-06-21T13:00:25Z</time>
      </trkpt>
      <trkpt lat="49.75756" lon="2.1266">
        <ele>151.8</ele>
        <time>2023-06-21T13:00:26Z</time>
      </trkpt>
      <trkpt lat="49.75757" lon="2.12659">
        <ele>151.9</ele>
        <time>2023-06-21T13:00:27Z</time>
      </trkpt>
      <trkpt lat="49.75757" lon="2.12658">
        <ele>151.9</ele>
        <time>2023-06-21T13:00:28Z</time>
      </trkpt>
      <trkpt lat="49.75759" lon="2.12656">
        <ele>151.9</ele>
        <time>2023-06-21T13:00:29Z</time>
      </trkpt>
      <trkpt lat="49.7576" lon="2.12654">
        <ele>152</ele>
        <time>2023-06-21T13:00:31Z</time>
      </trkpt>
      <trkpt lat="49.7576" lon="2.12653">
        <ele>152</ele>
        <time>2023-06-21T13:00:32Z</time>
      </trkpt>
      <trkpt lat="49.75761" lon="2.12651">
        <ele>152</ele>
        <time>2023-06-21T13:00:33Z</time>
      </trkpt>
      <trkpt lat="49.75762" lon="2.1265">
        <ele>152.1</ele>
        <time>2023-06-21T13:00:34Z</time>
      </trkpt>
      <trkpt lat="49.75763" lon="2.12648">
        <ele>152.1</ele>
        <time>2023-06-21T13:00:35Z</time>
      </trkpt>
      <trkpt lat="49.75764" lon="2.12646">
        <ele>152.2</ele>
        <time>2023-06-21T13:00:37Z</time>
      </trkpt>
      <trkpt lat="49.75765" lon="2.12644">
        <ele>152.2</ele>
        <time>2023-06-21T13:00:38Z</time>
      </trkpt>
      <trkpt lat="49.75766" lon="2.12642">
        <ele>152.3</ele>
        <time>2023-06-21T13:00:40Z</time>
      </trkpt>
      <trkpt lat="49.75767" lon="2.12641">
        <ele>152.3</ele>
        <time>2023-06-21T13:00:41Z</time>
      </trkpt>
      <trkpt lat="49.75768" lon="2.1264">
        <ele>152.3</ele>
        <time>2023-06-21T13:00:42Z</time>
      </trkpt>
      <trkpt lat="49.75768" lon="2.1264">
        <ele>152.3</ele>
        <time>2023-06-21T13:00:43Z</time>
      </trkpt>
      <trkpt lat="49.7577" lon="2.12637">
        <ele>152.4</ele>
        <time>2023-06-21T13:00:44Z</time>
      </trkpt>
      <trkpt lat="49.75771" lon="2.12636">
        <ele>152.5</ele>
        <time>2023-06-21T13:00:46Z</time>
      </trkpt>
      <trkpt lat="49.75771" lon="2.12635">
        <ele>152.5</ele>
        <time>2023-06-21T13:00:47Z</time>
      </trkpt>
      <trkpt lat="49.75772" lon="2.12634">
        <ele>152.5</ele>
        <time>2023-06-21T13:00:48Z</time>
      </trkpt>
      <trkpt lat="49.75773" lon="2.12633">
        <ele>152.6</ele>
        <time>2023-06-21T13:00:49Z</time>
      </trkpt>
      <trkpt lat="49.75774" lon="2.12631">
        <ele>152.6</ele>
        <time>2023-06-21T13:00:50Z</time>
      </trkpt>
      <trkpt lat="49.75775" lon="2.1263">
        <ele>152.6</ele>
        <time>2023-06-21T13:00:51Z</time>
      </trkpt>
      <trkpt lat="49.75776" lon="2.12627">
        <ele>152.7</ele>
        <time>2023-06-21T13:00:52Z</time>
      </trkpt>
      <trkpt lat="49.75777" lon="2.12626">
        <ele>152.7</ele>
        <time>2023-06-21T13:00:54Z</time>
      </trkpt>
      <trkpt lat="49.75777" lon="2.12625">
        <ele>152.8</ele>
        <time>2023-06-21T13:00:55Z</time>
      </trkpt>
      <trkpt lat="49.75778" lon="2.12623">
        <ele>152.8</ele>
        <time>2023-06-21T13:00:56Z</time>
      </trkpt>
      <trkpt lat="49.75779" lon="2.12622">
        <ele>152.8</ele>
        <time>2023-06-21T13:00:57Z</time>
      </trkpt>
      <trkpt lat="49.7578" lon="2.12621">
        <ele>152.9</ele>
        <time>2023-06-21T13:00:58Z</time>
      </trkpt>
      <trkpt lat="49.75781" lon="2.12618">
        <ele>152.9</ele>
        <time>2023-06-21T13:01:00Z</time>
      </trkpt>
      <trkpt lat="49.75782" lon="2.12617">
        <ele>153</ele>
        <time>2023-06-21T13:01:01Z</time>
      </trkpt>
      <trkpt lat="49.75782" lon="2.12616">
        <ele>153</ele>
        <time>2023-06-21T13:01:02Z</time>
      </trkpt>
      <trkpt lat="49.75784" lon="2.12613">
        <ele>153</ele>
        <time>2023-06-21T13:01:03Z</time>
      </trkpt>
      <trkpt lat="49.75784" lon="2.12612">
        <ele>153.1</ele>
        <time>2023-06-21T13:01:04Z</time>
      </trkpt>
      <trkpt lat="49.75785" lon="2.12611">
        <ele>153.1</ele>
        <time>2023-06-21T13:01:05Z</time>
      </trkpt>
      <trkpt lat="49.75786" lon="2.1261">
        <ele>153.1</ele>
        <time>2023-06-21T13:01:07Z</time>
      </trkpt>
      <trkpt lat="49.75787" lon="2.12608">
        <ele>153.2</ele>
        <time>2023-06-21T13:01:08Z</time>
      </trkpt>
      <trkpt lat="49.75788" lon="2.12607">
        <ele>153.2</ele>
        <time>2023-06-21T13:01:09Z</time>
      </trkpt>
      <trkpt lat="49.75789" lon="2.12607">
        <ele>153.2</ele>
        <time>2023-06-21T13:01:10Z</time>
      </trkpt>
      <trkpt lat="49.75789" lon="2.12606">
        <ele>153.2</ele>
        <time>2023-06-21T13:01:11Z</time>
      </trkpt>
      <trkpt lat="49.7579" lon="2.12605">
        <ele>153.3</ele>
        <time>2023-06-21T13:01:12Z</time>
      </trkpt>
      <trkpt lat="49.75791" lon="2.12604">
        <ele>153.3</ele>
        <time>2023-06-21T13:01:13Z</time>
      </trkpt>
      <trkpt lat="49.75792" lon="2.12603">
        <ele>153.3</ele>
        <time>2023-06-21T13:01:14Z</time>
      </trkpt>
      <trkpt lat="49.75793" lon="2.12601">
        <ele>153.3</ele>
        <time>2023-06-21T13:01:16Z</time>
      </trkpt>
      <trkpt lat="49.75794" lon="2.126">
        <ele>153.4</ele>
        <time>2023-06-21T13:01:17Z</time>
      </trkpt>
      <trkpt lat="49.75794" lon="2.12599">
        <ele>153.4</ele>
        <time>2023-06-21T13:01:18Z</time>
      </trkpt>
      <trkpt lat="49.75796" lon="2.12597">
        <ele>153.4</ele>
        <time>2023-06-21T13:01:19Z</time>
      </trkpt>
      <trkpt lat="49.75797" lon="2.12595">
        <ele>153.4</ele>
        <time>2023-06-21T13:01:21Z</time>
      </trkpt>
      <trkpt lat="49.75798" lon="2.12594">
        <ele>153.5</ele>
        <time>2023-06-21T13:01:22Z</time>
      </trkpt>
      <trkpt lat="49.75799" lon="2.12593">
        <ele>153.5</ele>
        <time>2023-06-21T13:01:23Z</time>
      </trkpt>
      <trkpt lat="49.758" lon="2.12592">
        <ele>153.5</ele>
        <time>2023-06-21T13:01:24Z</time>
      </trkpt>
      <trkpt lat="49.75801" lon="2.12591">
        <ele>153.5</ele>
        <time>2023-06-21T13:01:25Z</time>
      </trkpt>
      <trkpt lat="49.75802" lon="2.1259">
        <ele>153.5</ele>
        <time>2023-06-21T13:01:26Z</time>
      </trkpt>
      <trkpt lat="49.75803" lon="2.12589">
        <ele>153.6</ele>
        <time>2023-06-21T13:01:27Z</time>
      </trkpt>
      <trkpt lat="49.75804" lon="2.12588">
        <ele>153.6</ele>
        <time>2023-06-21T13:01:28Z</time>
      </trkpt>
      <trkpt lat="49.75805" lon="2.12587">
        <ele>153.6</ele>
        <time>2023-06-21T13:01:30Z</time>
      </trkpt>
      <trkpt lat="49.75806" lon="2.12586">
        <ele>153.6</ele>
        <time>2023-06-21T13:01:31Z</time>
      </trkpt>
      <trkpt lat="49.75807" lon="2.12585">
        <ele>153.7</ele>
        <time>2023-06-21T13:01:32Z</time>
      </trkpt>
      <trkpt lat="49.75809" lon="2.12583">
        <ele>153.7</ele>
        <time>2023-06-21T13:01:33Z</time>
      </trkpt>
      <trkpt lat="49.7581" lon="2.12582">
        <ele>153.7</ele>
        <time>2023-06-21T13:01:34Z</time>
      </trkpt>
      <trkpt lat="49.75811" lon="2.1258">
        <ele>153.7</ele>
        <time>2023-06-21T13:01:35Z</time>
      </trkpt>
      <trkpt lat="49.75812" lon="2.12578">
        <ele>153.8</ele>
        <time>2023-06-21T13:01:37Z</time>
      </trkpt>
      <trkpt lat="49.75813" lon="2.12578">
        <ele>153.8</ele>
        <time>2023-06-21T13:01:38Z</time>
      </trkpt>
      <trkpt lat="49.75814" lon="2.12577">
        <ele>153.8</ele>
        <time>2023-06-21T13:01:39Z</time>
      </trkpt>
      <trkpt lat="49.75815" lon="2.12575">
        <ele>153.9</ele>
        <time>2023-06-21T13:01:41Z</time>
      </trkpt>
      <trkpt lat="49.75817" lon="2.12572">
        <ele>153.9</ele>
        <time>2023-06-21T13:01:42Z</time>
      </trkpt>
      <trkpt lat="49.75818" lon="2.12571">
        <ele>153.9</ele>
        <time>2023-06-21T13:01:44Z</time>
      </trkpt>
      <trkpt lat="49.7582" lon="2.12569">
        <ele>154</ele>
        <time>2023-06-21T13:01:45Z</time>
      </trkpt>
      <trkpt lat="49.7582" lon="2.12568">
        <ele>154</ele>
        <time>2023-06-21T13:01:46Z</time>
      </trkpt>
      <trkpt lat="49.75821" lon="2.12567">
        <ele>154</ele>
        <time>2023-06-21T13:01:47Z</time>
      </trkpt>
      <trkpt lat="49.75823" lon="2.12565">
        <ele>154</ele>
        <time>2023-06-21T13:01:48Z</time>
      </trkpt>
      <trkpt lat="49.75824" lon="2.12565">
        <ele>154.1</ele>
        <time>2023-06-21T13:01:50Z</time>
      </trkpt>
      <trkpt lat="49.75824" lon="2.12564">
        <ele>154.1</ele>
        <time>2023-06-21T13:01:51Z</time>
      </trkpt>
      <trkpt lat="49.75825" lon="2.12563">
        <ele>154.1</ele>
        <time>2023-06-21T13:01:52Z</time>
      </trkpt>
      <trkpt lat="49.75826" lon="2.12562">
        <ele>154.1</ele>
        <time>2023-06-21T13:01:53Z</time>
      </trkpt>
      <trkpt lat="49.75827" lon="2.12561">
        <ele>154.1</ele>
        <time>2023-06-21T13:01:54Z</time>
      </trkpt>
      <trkpt lat="49.75828" lon="2.1256">
        <ele>154.1</ele>
        <time>2023-06-21T13:01:55Z</time>
      </trkpt>
      <trkpt lat="49.75829" lon="2.12559">
        <ele>154.2</ele>
        <time>2023-06-21T13:01:56Z</time>
      </trkpt>
      <trkpt lat="49.7583" lon="2.12558">
        <ele>154.2</ele>
        <time>2023-06-21T13:01:57Z</time>
      </trkpt>
      <trkpt lat="49.75831" lon="2.12557">
        <ele>154.2</ele>
        <time>2023-06-21T13:01:58Z</time>
      </trkpt>
      <trkpt lat="49.75831" lon="2.12556">
        <ele>154.2</ele>
        <time>2023-06-21T13:01:59Z</time>
      </trkpt>
      <trkpt lat="49.75832" lon="2.12555">
        <ele>154.2</ele>
        <time>2023-06-21T13:02:01Z</time>
      </trkpt>
      <trkpt lat="49.75833" lon="2.12554">
        <ele>154.2</ele>
        <time>2023-06-21T13:02:02Z</time>
      </trkpt>
      <trkpt lat="49.75834" lon="2.12553">
        <ele>154.3</ele>
        <time>2023-06-21T13:02:03Z</time>
      </trkpt>
      <trkpt lat="49.75835" lon="2.12551">
        <ele>154.3</ele>
        <time>2023-06-21T13:02:05Z</time>
      </trkpt>
      <trkpt lat="49.75837" lon="2.12549">
        <ele>154.3</ele>
        <time>2023-06-21T13:02:06Z</time>
      </trkpt>
      <trkpt lat="49.75838" lon="2.12547">
        <ele>154.3</ele>
        <time>2023-06-21T13:02:07Z</time>
      </trkpt>
      <trkpt lat="49.75839" lon="2.12546">
        <ele>154.4</ele>
        <time>2023-06-21T13:02:08Z</time>
      </trkpt>
      <trkpt lat="49.75841" lon="2.12544">
        <ele>154.4</ele>
        <time>2023-06-21T13:02:10Z</time>
      </trkpt>
      <trkpt lat="49.75842" lon="2.12543">
        <ele>154.4</ele>
        <time>2023-06-21T13:02:11Z</time>
      </trkpt>
      <trkpt lat="49.75843" lon="2.12542">
        <ele>154.4</ele>
        <time>2023-06-21T13:02:12Z</time>
      </trkpt>
      <trkpt lat="49.75844" lon="2.12541">
        <ele>154.4</ele>
        <time>2023-06-21T13:02:13Z</time>
      </trkpt>
      <trkpt lat="49.75845" lon="2.1254">
        <ele>154.5</ele>
        <time>2023-06-21T13:02:14Z</time>
      </trkpt>
      <trkpt lat="49.75846" lon="2.12538">
        <ele>154.5</ele>
        <time>2023-06-21T13:02:16Z</time>
      </trkpt>
      <trkpt lat="49.75847" lon="2.12537">
        <ele>154.5</ele>
        <time>2023-06-21T13:02:17Z</time>
      </trkpt>
      <trkpt lat="49.75848" lon="2.12536">
        <ele>154.5</ele>
        <time>2023-06-21T13:02:18Z</time>
      </trkpt>
      <trkpt lat="49.75849" lon="2.12535">
        <ele>154.5</ele>
        <time>2023-06-21T13:02:19Z</time>
      </trkpt>
      <trkpt lat="49.75851" lon="2.12533">
        <ele>154.6</ele>
        <time>2023-06-21T13:02:20Z</time>
      </trkpt>
      <trkpt lat="49.75852" lon="2.12532">
        <ele>154.6</ele>
        <time>2023-06-21T13:02:21Z</time>
      </trkpt>
      <trkpt lat="49.75852" lon="2.12531">
        <ele>154.6</ele>
        <time>2023-06-21T13:02:22Z</time>
      </trkpt>
      <trkpt lat="49.75853" lon="2.1253">
        <ele>154.6</ele>
        <time>2023-06-21T13:02:24Z</time>
      </trkpt>
      <trkpt lat="49.75854" lon="2.12529">
        <ele>154.6</ele>
        <time>2023-06-21T13:02:25Z</time>
      </trkpt>
      <trkpt lat="49.75855" lon="2.12529">
        <ele>154.6</ele>
        <time>2023-06-21T13:02:26Z</time>
      </trkpt>
      <trkpt lat="49.75857" lon="2.12527">
        <ele>154.7</ele>
        <time>2023-06-21T13:02:28Z</time>
      </trkpt>
      <trkpt lat="49.75858" lon="2.12526">
        <ele>154.7</ele>
        <time>2023-06-21T13:02:29Z</time>
      </trkpt>
      <trkpt lat="49.7586" lon="2.12524">
        <ele>154.7</ele>
        <time>2023-06-21T13:02:30Z</time>
      </trkpt>
      <trkpt lat="49.75861" lon="2.12523">
        <ele>154.8</ele>
        <time>2023-06-21T13:02:31Z</time>
      </trkpt>
      <trkpt lat="49.75861" lon="2.12522">
        <ele>154.8</ele>
        <time>2023-06-21T13:02:32Z</time>
      </trkpt>
      <trkpt lat="49.75863" lon="2.12521">
        <ele>154.8</ele>
        <time>2023-06-21T13:02:34Z</time>
      </trkpt>
      <trkpt lat="49.75864" lon="2.1252">
        <ele>154.8</ele>
        <time>2023-06-21T13:02:35Z</time>
      </trkpt>
      <trkpt lat="49.75865" lon="2.12518">
        <ele>154.9</ele>
        <time>2023-06-21T13:02:36Z</time>
      </trkpt>
      <trkpt lat="49.75866" lon="2.12517">
        <ele>154.9</ele>
        <time>2023-06-21T13:02:38Z</time>
      </trkpt>
      <trkpt lat="49.75867" lon="2.12516">
        <ele>154.9</ele>
        <time>2023-06-21T13:02:39Z</time>
      </trkpt>
      <trkpt lat="49.75868" lon="2.12515">
        <ele>154.9</ele>
        <time>2023-06-21T13:02:40Z</time>
      </trkpt>
      <trkpt lat="49.75869" lon="2.12513">
        <ele>154.9</ele>
        <time>2023-06-21T13:02:41Z</time>
      </trkpt>
      <trkpt lat="49.7587" lon="2.12512">
        <ele>155</ele>
        <time>2023-06-21T13:02:42Z</time>
      </trkpt>
      <trkpt lat="49.75871" lon="2.12511">
        <ele>155</ele>
        <time>2023-06-21T13:02:43Z</time>
      </trkpt>
      <trkpt lat="49.75873" lon="2.12509">
        <ele>155</ele>
        <time>2023-06-21T13:02:44Z</time>
      </trkpt>
      <trkpt lat="49.75874" lon="2.12508">
        <ele>155</ele>
        <time>2023-06-21T13:02:46Z</time>
      </trkpt>
      <trkpt lat="49.75875" lon="2.12507">
        <ele>155</ele>
        <time>2023-06-21T13:02:47Z</time>
      </trkpt>
      <trkpt lat="49.75876" lon="2.12506">
        <ele>155.1</ele>
        <time>2023-06-21T13:02:48Z</time>
      </trkpt>
      <trkpt lat="49.75877" lon="2.12505">
        <ele>155.1</ele>
        <time>2023-06-21T13:02:49Z</time>
      </trkpt>
      <trkpt lat="49.75877" lon="2.12504">
        <ele>155.1</ele>
        <time>2023-06-21T13:02:50Z</time>
      </trkpt>
      <trkpt lat="49.75878" lon="2.12503">
        <ele>155.1</ele>
        <time>2023-06-21T13:02:51Z</time>
      </trkpt>
      <trkpt lat="49.75879" lon="2.12502">
        <ele>155.1</ele>
        <time>2023-06-21T13:02:53Z</time>
      </trkpt>
      <trkpt lat="49.7588" lon="2.12501">
        <ele>155.1</ele>
        <time>2023-06-21T13:02:54Z</time>
      </trkpt>
      <trkpt lat="49.75881" lon="2.12501">
        <ele>155.2</ele>
        <time>2023-06-21T13:02:55Z</time>
      </trkpt>
      <trkpt lat="49.75882" lon="2.125">
        <ele>155.2</ele>
        <time>2023-06-21T13:02:57Z</time>
      </trkpt>
      <trkpt lat="49.75882" lon="2.12498">
        <ele>155.2</ele>
        <time>2023-06-21T13:02:58Z</time>
      </trkpt>
      <trkpt lat="49.75882" lon="2.12497">
        <ele>155.2</ele>
        <time>2023-06-21T13:02:59Z</time>
      </trkpt>
      <trkpt lat="49.75882" lon="2.12495">
        <ele>155.2</ele>
        <time>2023-06-21T13:03:00Z</time>
      </trkpt>
      <trkpt lat="49.75883" lon="2.12494">
        <ele>155.2</ele>
        <time>2023-06-21T13:03:01Z</time>
      </trkpt>
      <trkpt lat="49.75883" lon="2.12492">
        <ele>155.2</ele>
        <time>2023-06-21T13:03:03Z</time>
      </trkpt>
      <trkpt lat="49.75883" lon="2.12491">
        <ele>155.2</ele>
        <time>2023-06-21T13:03:04Z</time>
      </trkpt>
      <trkpt lat="49.75884" lon="2.1249">
        <ele>155.2</ele>
        <time>2023-06-21T13:03:05Z</time>
      </trkpt>
      <trkpt lat="49.75884" lon="2.1249">
        <ele>155.3</ele>
        <time>2023-06-21T13:03:06Z</time>
      </trkpt>
      <trkpt lat="49.75884" lon="2.12489">
        <ele>155.3</ele>
        <time>2023-06-21T13:03:07Z</time>
      </trkpt>
      <trkpt lat="49.75884" lon="2.12489">
        <ele>155.3</ele>
        <time>2023-06-21T13:03:08Z</time>
      </trkpt>
      <trkpt lat="49.75884" lon="2.12489">
        <ele>155.3</ele>
        <time>2023-06-21T13:03:10Z</time>
      </trkpt>
      <trkpt lat="49.75885" lon="2.1249">
        <ele>155.3</ele>
        <time>2023-06-21T13:03:11Z</time>
      </trkpt>
      <trkpt lat="49.75885" lon="2.1249">
        <ele>155.3</ele>
        <time>2023-06-21T13:03:12Z</time>
      </trkpt>
      <trkpt lat="49.75886" lon="2.12491">
        <ele>155.3</ele>
        <time>2023-06-21T13:03:14Z</time>
      </trkpt>
      <trkpt lat="49.75887" lon="2.12491">
        <ele>155.3</ele>
        <time>2023-06-21T13:03:15Z</time>
      </trkpt>
      <trkpt lat="49.75888" lon="2.12491">
        <ele>155.3</ele>
        <time>2023-06-21T13:03:16Z</time>
      </trkpt>
      <trkpt lat="49.75889" lon="2.12492">
        <ele>155.3</ele>
        <time>2023-06-21T13:03:17Z</time>
      </trkpt>
      <trkpt lat="49.7589" lon="2.12491">
        <ele>155.3</ele>
        <time>2023-06-21T13:03:18Z</time>
      </trkpt>
      <trkpt lat="49.75891" lon="2.1249">
        <ele>155.3</ele>
        <time>2023-06-21T13:03:19Z</time>
      </trkpt>
      <trkpt lat="49.75892" lon="2.12489">
        <ele>155.3</ele>
        <time>2023-06-21T13:03:21Z</time>
      </trkpt>
      <trkpt lat="49.75894" lon="2.12487">
        <ele>155.4</ele>
        <time>2023-06-21T13:03:22Z</time>
      </trkpt>
      <trkpt lat="49.75895" lon="2.12486">
        <ele>155.4</ele>
        <time>2023-06-21T13:03:23Z</time>
      </trkpt>
      <trkpt lat="49.75896" lon="2.12485">
        <ele>155.4</ele>
        <time>2023-06-21T13:03:24Z</time>
      </trkpt>
      <trkpt lat="49.75897" lon="2.12484">
        <ele>155.4</ele>
        <time>2023-06-21T13:03:26Z</time>
      </trkpt>
      <trkpt lat="49.75899" lon="2.12483">
        <ele>155.4</ele>
        <time>2023-06-21T13:03:27Z</time>
      </trkpt>
      <trkpt lat="49.759" lon="2.12482">
        <ele>155.4</ele>
        <time>2023-06-21T13:03:28Z</time>
      </trkpt>
      <trkpt lat="49.75901" lon="2.12481">
        <ele>155.4</ele>
        <time>2023-06-21T13:03:29Z</time>
      </trkpt>
      <trkpt lat="49.75902" lon="2.12479">
        <ele>155.4</ele>
        <time>2023-06-21T13:03:30Z</time>
      </trkpt>
      <trkpt lat="49.75903" lon="2.12478">
        <ele>155.4</ele>
        <time>2023-06-21T13:03:31Z</time>
      </trkpt>
      <trkpt lat="49.75904" lon="2.12477">
        <ele>155.4</ele>
        <time>2023-06-21T13:03:32Z</time>
      </trkpt>
      <trkpt lat="49.75904" lon="2.12476">
        <ele>155.5</ele>
        <time>2023-06-21T13:03:34Z</time>
      </trkpt>
      <trkpt lat="49.75905" lon="2.12475">
        <ele>155.5</ele>
        <time>2023-06-21T13:03:35Z</time>
      </trkpt>
      <trkpt lat="49.75908" lon="2.12473">
        <ele>155.5</ele>
        <time>2023-06-21T13:03:37Z</time>
      </trkpt>
      <trkpt lat="49.7591" lon="2.12471">
        <ele>155.5</ele>
        <time>2023-06-21T13:03:38Z</time>
      </trkpt>
      <trkpt lat="49.7591" lon="2.12471">
        <ele>155.5</ele>
        <time>2023-06-21T13:03:39Z</time>
      </trkpt>
      <trkpt lat="49.75911" lon="2.1247">
        <ele>155.5</ele>
        <time>2023-06-21T13:03:40Z</time>
      </trkpt>
      <trkpt lat="49.75912" lon="2.12469">
        <ele>155.5</ele>
        <time>2023-06-21T13:03:41Z</time>
      </trkpt>
      <trkpt lat="49.75914" lon="2.12468">
        <ele>155.5</ele>
        <time>2023-06-21T13:03:42Z</time>
      </trkpt>
      <trkpt lat="49.75916" lon="2.12466">
        <ele>155.5</ele>
        <time>2023-06-21T13:03:44Z</time>
      </trkpt>
      <trkpt lat="49.75917" lon="2.12464">
        <ele>155.5</ele>
        <time>2023-06-21T13:03:46Z</time>
      </trkpt>
      <trkpt lat="49.75918" lon="2.12463">
        <ele>155.5</ele>
        <time>2023-06-21T13:03:47Z</time>
      </trkpt>
      <trkpt lat="49.75919" lon="2.12462">
        <ele>155.5</ele>
        <time>2023-06-21T13:03:48Z</time>
      </trkpt>
      <trkpt lat="49.7592" lon="2.1246">
        <ele>155.6</ele>
        <time>2023-06-21T13:03:49Z</time>
      </trkpt>
      <trkpt lat="49.75921" lon="2.1246">
        <ele>155.6</ele>
        <time>2023-06-21T13:03:50Z</time>
      </trkpt>
      <trkpt lat="49.75922" lon="2.12459">
        <ele>155.6</ele>
        <time>2023-06-21T13:03:51Z</time>
      </trkpt>
      <trkpt lat="49.75923" lon="2.12458">
        <ele>155.6</ele>
        <time>2023-06-21T13:03:52Z</time>
      </trkpt>
      <trkpt lat="49.75923" lon="2.12457">
        <ele>155.6</ele>
        <time>2023-06-21T13:03:53Z</time>
      </trkpt>
      <trkpt lat="49.75924" lon="2.12456">
        <ele>155.6</ele>
        <time>2023-06-21T13:03:54Z</time>
      </trkpt>
      <trkpt lat="49.75926" lon="2.12453">
        <ele>155.6</ele>
        <time>2023-06-21T13:03:56Z</time>
      </trkpt>
      <trkpt lat="49.75927" lon="2.12452">
        <ele>155.6</ele>
        <time>2023-06-21T13:03:58Z</time>
      </trkpt>
      <trkpt lat="49.75928" lon="2.12451">
        <ele>155.6</ele>
        <time>2023-06-21T13:03:59Z</time>
      </trkpt>
      <trkpt lat="49.7593" lon="2.12448">
        <ele>155.6</ele>
        <time>2023-06-21T13:04:01Z</time>
      </trkpt>
      <trkpt lat="49.75931" lon="2.12447">
        <ele>155.6</ele>
        <time>2023-06-21T13:04:02Z</time>
      </trkpt>
      <trkpt lat="49.75933" lon="2.12446">
        <ele>155.6</ele>
        <time>2023-06-21T13:04:03Z</time>
      </trkpt>
      <trkpt lat="49.75934" lon="2.12445">
        <ele>155.6</ele>
        <time>2023-06-21T13:04:04Z</time>
      </trkpt>
      <trkpt lat="49.75936" lon="2.12444">
        <ele>155.7</ele>
        <time>2023-06-21T13:04:06Z</time>
      </trkpt>
      <trkpt lat="49.75936" lon="2.12443">
        <ele>155.7</ele>
        <time>2023-06-21T13:04:07Z</time>
      </trkpt>
      <trkpt lat="49.75937" lon="2.12442">
        <ele>155.7</ele>
        <time>2023-06-21T13:04:08Z</time>
      </trkpt>
      <trkpt lat="49.75938" lon="2.12441">
        <ele>155.7</ele>
        <time>2023-06-21T13:04:09Z</time>
      </trkpt>
      <trkpt lat="49.75939" lon="2.12439">
        <ele>155.7</ele>
        <time>2023-06-21T13:04:10Z</time>
      </trkpt>
      <trkpt lat="49.7594" lon="2.12439">
        <ele>155.7</ele>
        <time>2023-06-21T13:04:11Z</time>
      </trkpt>
      <trkpt lat="49.75942" lon="2.12438">
        <ele>155.7</ele>
        <time>2023-06-21T13:04:13Z</time>
      </trkpt>
      <trkpt lat="49.75943" lon="2.12436">
        <ele>155.7</ele>
        <time>2023-06-21T13:04:14Z</time>
      </trkpt>
      <trkpt lat="49.75944" lon="2.12434">
        <ele>155.7</ele>
        <time>2023-06-21T13:04:16Z</time>
      </trkpt>
      <trkpt lat="49.75945" lon="2.12433">
        <ele>155.7</ele>
        <time>2023-06-21T13:04:17Z</time>
      </trkpt>
      <trkpt lat="49.75946" lon="2.12432">
        <ele>155.7</ele>
        <time>2023-06-21T13:04:18Z</time>
      </trkpt>
      <trkpt lat="49.75947" lon="2.12432">
        <ele>155.7</ele>
        <time>2023-06-21T13:04:19Z</time>
      </trkpt>
      <trkpt lat="49.75948" lon="2.12431">
        <ele>155.8</ele>
        <time>2023-06-21T13:04:20Z</time>
      </trkpt>
      <trkpt lat="49.75949" lon="2.1243">
        <ele>155.8</ele>
        <time>2023-06-21T13:04:22Z</time>
      </trkpt>
      <trkpt lat="49.7595" lon="2.1243">
        <ele>155.8</ele>
        <time>2023-06-21T13:04:23Z</time>
      </trkpt>
      <trkpt lat="49.75951" lon="2.12429">
        <ele>155.8</ele>
        <time>2023-06-21T13:04:24Z</time>
      </trkpt>
      <trkpt lat="49.75951" lon="2.12429">
        <ele>155.8</ele>
        <time>2023-06-21T13:04:25Z</time>
      </trkpt>
      <trkpt lat="49.75951" lon="2.12428">
        <ele>155.8</ele>
        <time>2023-06-21T13:04:26Z</time>
      </trkpt>
      <trkpt lat="49.75952" lon="2.12427">
        <ele>155.8</ele>
        <time>2023-06-21T13:04:28Z</time>
      </trkpt>
      <trkpt lat="49.75952" lon="2.12426">
        <ele>155.8</ele>
        <time>2023-06-21T13:04:29Z</time>
      </trkpt>
      <trkpt lat="49.75953" lon="2.12425">
        <ele>155.8</ele>
        <time>2023-06-21T13:04:30Z</time>
      </trkpt>
      <trkpt lat="49.75953" lon="2.12424">
        <ele>155.8</ele>
        <time>2023-06-21T13:04:31Z</time>
      </trkpt>
      <trkpt lat="49.75955" lon="2.12423">
        <ele>155.8</ele>
        <time>2023-06-21T13:04:33Z</time>
      </trkpt>
      <trkpt lat="49.75955" lon="2.12422">
        <ele>155.8</ele>
        <time>2023-06-21T13:04:34Z</time>
      </trkpt>
      <trkpt lat="49.75956" lon="2.12422">
        <ele>155.8</ele>
        <time>2023-06-21T13:04:35Z</time>
      </trkpt>
      <trkpt lat="49.75956" lon="2.12421">
        <ele>155.8</ele>
        <time>2023-06-21T13:04:36Z</time>
      </trkpt>
      <trkpt lat="49.75957" lon="2.1242">
        <ele>155.8</ele>
        <time>2023-06-21T13:04:37Z</time>
      </trkpt>
      <trkpt lat="49.75957" lon="2.1242">
        <ele>155.9</ele>
        <time>2023-06-21T13:04:39Z</time>
      </trkpt>
      <trkpt lat="49.75958" lon="2.1242">
        <ele>155.9</ele>
        <time>2023-06-21T13:04:40Z</time>
      </trkpt>
      <trkpt lat="49.75958" lon="2.1242">
        <ele>155.9</ele>
        <time>2023-06-21T13:04:41Z</time>
      </trkpt>
      <trkpt lat="49.75958" lon="2.12419">
        <ele>155.9</ele>
        <time>2023-06-21T13:04:42Z</time>
      </trkpt>
      <trkpt lat="49.75959" lon="2.12418">
        <ele>155.9</ele>
        <time>2023-06-21T13:04:43Z</time>
      </trkpt>
      <trkpt lat="49.7596" lon="2.12417">
        <ele>155.9</ele>
        <time>2023-06-21T13:04:45Z</time>
      </trkpt>
      <trkpt lat="49.7596" lon="2.12416">
        <ele>155.9</ele>
        <time>2023-06-21T13:04:46Z</time>
      </trkpt>
      <trkpt lat="49.75961" lon="2.12416">
        <ele>155.9</ele>
        <time>2023-06-21T13:04:47Z</time>
      </trkpt>
      <trkpt lat="49.75962" lon="2.12416">
        <ele>155.9</ele>
        <time>2023-06-21T13:04:48Z</time>
      </trkpt>
      <trkpt lat="49.75964" lon="2.12415">
        <ele>155.9</ele>
        <time>2023-06-21T13:04:50Z</time>
      </trkpt>
      <trkpt lat="49.75964" lon="2.12414">
        <ele>155.9</ele>
        <time>2023-06-21T13:04:51Z</time>
      </trkpt>
      <trkpt lat="49.75966" lon="2.12413">
        <ele>155.9</ele>
        <time>2023-06-21T13:04:52Z</time>
      </trkpt>
      <trkpt lat="49.75966" lon="2.12412">
        <ele>155.9</ele>
        <time>2023-06-21T13:04:53Z</time>
      </trkpt>
      <trkpt lat="49.75967" lon="2.12411">
        <ele>156</ele>
        <time>2023-06-21T13:04:55Z</time>
      </trkpt>
      <trkpt lat="49.75968" lon="2.1241">
        <ele>156</ele>
        <time>2023-06-21T13:04:56Z</time>
      </trkpt>
      <trkpt lat="49.7597" lon="2.12408">
        <ele>156</ele>
        <time>2023-06-21T13:04:58Z</time>
      </trkpt>
      <trkpt lat="49.75971" lon="2.12406">
        <ele>156</ele>
        <time>2023-06-21T13:04:59Z</time>
      </trkpt>
      <trkpt lat="49.75972" lon="2.12406">
        <ele>156</ele>
        <time>2023-06-21T13:05:00Z</time>
      </trkpt>
      <trkpt lat="49.75973" lon="2.12405">
        <ele>156</ele>
        <time>2023-06-21T13:05:01Z</time>
      </trkpt>
      <trkpt lat="49.75974" lon="2.12403">
        <ele>156</ele>
        <time>2023-06-21T13:05:02Z</time>
      </trkpt>
      <trkpt lat="49.75975" lon="2.12402">
        <ele>156.1</ele>
        <time>2023-06-21T13:05:03Z</time>
      </trkpt>
      <trkpt lat="49.75976" lon="2.12401">
        <ele>156.1</ele>
        <time>2023-06-21T13:05:04Z</time>
      </trkpt>
      <trkpt lat="49.75977" lon="2.124">
        <ele>156.1</ele>
        <time>2023-06-21T13:05:06Z</time>
      </trkpt>
      <trkpt lat="49.75977" lon="2.12399">
        <ele>156.1</ele>
        <time>2023-06-21T13:05:07Z</time>
      </trkpt>
      <trkpt lat="49.75979" lon="2.12398">
        <ele>156.1</ele>
        <time>2023-06-21T13:05:08Z</time>
      </trkpt>
      <trkpt lat="49.7598" lon="2.12397">
        <ele>156.1</ele>
        <time>2023-06-21T13:05:09Z</time>
      </trkpt>
      <trkpt lat="49.75981" lon="2.12396">
        <ele>156.1</ele>
        <time>2023-06-21T13:05:10Z</time>
      </trkpt>
      <trkpt lat="49.75983" lon="2.12394">
        <ele>156.2</ele>
        <time>2023-06-21T13:05:11Z</time>
      </trkpt>
      <trkpt lat="49.75984" lon="2.12394">
        <ele>156.2</ele>
        <time>2023-06-21T13:05:12Z</time>
      </trkpt>
      <trkpt lat="49.75984" lon="2.12393">
        <ele>156.2</ele>
        <time>2023-06-21T13:05:13Z</time>
      </trkpt>
      <trkpt lat="49.75985" lon="2.12393">
        <ele>156.2</ele>
        <time>2023-06-21T13:05:15Z</time>
      </trkpt>
      <trkpt lat="49.75986" lon="2.12392">
        <ele>156.2</ele>
        <time>2023-06-21T13:05:16Z</time>
      </trkpt>
      <trkpt lat="49.75987" lon="2.12391">
        <ele>156.2</ele>
        <time>2023-06-21T13:05:17Z</time>
      </trkpt>
      <trkpt lat="49.75988" lon="2.12391">
        <ele>156.2</ele>
        <time>2023-06-21T13:05:18Z</time>
      </trkpt>
      <trkpt lat="49.75989" lon="2.12391">
        <ele>156.2</ele>
        <time>2023-06-21T13:05:19Z</time>
      </trkpt>
      <trkpt lat="49.7599" lon="2.1239">
        <ele>156.2</ele>
        <time>2023-06-21T13:05:20Z</time>
      </trkpt>
      <trkpt lat="49.75991" lon="2.12389">
        <ele>156.3</ele>
        <time>2023-06-21T13:05:22Z</time>
      </trkpt>
      <trkpt lat="49.75992" lon="2.12388">
        <ele>156.3</ele>
        <time>2023-06-21T13:05:23Z</time>
      </trkpt>
      <trkpt lat="49.75993" lon="2.12387">
        <ele>156.3</ele>
        <time>2023-06-21T13:05:24Z</time>
      </trkpt>
      <trkpt lat="49.75994" lon="2.12386">
        <ele>156.3</ele>
        <time>2023-06-21T13:05:25Z</time>
      </trkpt>
      <trkpt lat="49.75995" lon="2.12385">
        <ele>156.3</ele>
        <time>2023-06-21T13:05:27Z</time>
      </trkpt>
      <trkpt lat="49.75996" lon="2.12384">
        <ele>156.3</ele>
        <time>2023-06-21T13:05:28Z</time>
      </trkpt>
      <trkpt lat="49.75998" lon="2.12383">
        <ele>156.3</ele>
        <time>2023-06-21T13:05:29Z</time>
      </trkpt>
      <trkpt lat="49.75999" lon="2.12382">
        <ele>156.3</ele>
        <time>2023-06-21T13:05:31Z</time>
      </trkpt>
      <trkpt lat="49.76001" lon="2.1238">
        <ele>156.3</ele>
        <time>2023-06-21T13:05:32Z</time>
      </trkpt>
      <trkpt lat="49.76002" lon="2.12379">
        <ele>156.3</ele>
        <time>2023-06-21T13:05:33Z</time>
      </trkpt>
      <trkpt lat="49.76003" lon="2.12378">
        <ele>156.3</ele>
        <time>2023-06-21T13:05:34Z</time>
      </trkpt>
      <trkpt lat="49.76004" lon="2.12376">
        <ele>156.3</ele>
        <time>2023-06-21T13:05:35Z</time>
      </trkpt>
      <trkpt lat="49.76005" lon="2.12375">
        <ele>156.3</ele>
        <time>2023-06-21T13:05:36Z</time>
      </trkpt>
      <trkpt lat="49.76006" lon="2.12374">
        <ele>156.4</ele>
        <time>2023-06-21T13:05:37Z</time>
      </trkpt>
      <trkpt lat="49.76007" lon="2.12373">
        <ele>156.4</ele>
        <time>2023-06-21T13:05:39Z</time>
      </trkpt>
      <trkpt lat="49.76008" lon="2.12372">
        <ele>156.4</ele>
        <time>2023-06-21T13:05:40Z</time>
      </trkpt>
      <trkpt lat="49.76009" lon="2.12371">
        <ele>156.4</ele>
        <time>2023-06-21T13:05:41Z</time>
      </trkpt>
      <trkpt lat="49.76011" lon="2.1237">
        <ele>156.4</ele>
        <time>2023-06-21T13:05:42Z</time>
      </trkpt>
      <trkpt lat="49.76012" lon="2.12369">
        <ele>156.4</ele>
        <time>2023-06-21T13:05:43Z</time>
      </trkpt>
      <trkpt lat="49.76013" lon="2.12368">
        <ele>156.4</ele>
        <time>2023-06-21T13:05:44Z</time>
      </trkpt>
      <trkpt lat="49.76015" lon="2.12366">
        <ele>156.4</ele>
        <time>2023-06-21T13:05:45Z</time>
      </trkpt>
      <trkpt lat="49.76016" lon="2.12365">
        <ele>156.5</ele>
        <time>2023-06-21T13:05:47Z</time>
      </trkpt>
      <trkpt lat="49.76017" lon="2.12363">
        <ele>156.5</ele>
        <time>2023-06-21T13:05:48Z</time>
      </trkpt>
      <trkpt lat="49.76018" lon="2.12362">
        <ele>156.5</ele>
        <time>2023-06-21T13:05:49Z</time>
      </trkpt>
      <trkpt lat="49.76019" lon="2.12361">
        <ele>156.5</ele>
        <time>2023-06-21T13:05:50Z</time>
      </trkpt>
      <trkpt lat="49.76021" lon="2.12359">
        <ele>156.5</ele>
        <time>2023-06-21T13:05:51Z</time>
      </trkpt>
      <trkpt lat="49.76022" lon="2.12358">
        <ele>156.5</ele>
        <time>2023-06-21T13:05:52Z</time>
      </trkpt>
      <trkpt lat="49.76022" lon="2.12358">
        <ele>156.5</ele>
        <time>2023-06-21T13:05:54Z</time>
      </trkpt>
      <trkpt lat="49.76023" lon="2.12357">
        <ele>156.5</ele>
        <time>2023-06-21T13:05:55Z</time>
      </trkpt>
      <trkpt lat="49.76024" lon="2.12356">
        <ele>156.5</ele>
        <time>2023-06-21T13:05:56Z</time>
      </trkpt>
      <trkpt lat="49.76025" lon="2.12355">
        <ele>156.5</ele>
        <time>2023-06-21T13:05:57Z</time>
      </trkpt>
      <trkpt lat="49.76027" lon="2.12352">
        <ele>156.6</ele>
        <time>2023-06-21T13:05:59Z</time>
      </trkpt>
      <trkpt lat="49.76028" lon="2.12351">
        <ele>156.6</ele>
        <time>2023-06-21T13:06:00Z</time>
      </trkpt>
      <trkpt lat="49.76029" lon="2.1235">
        <ele>156.6</ele>
        <time>2023-06-21T13:06:01Z</time>
      </trkpt>
      <trkpt lat="49.7603" lon="2.12349">
        <ele>156.6</ele>
        <time>2023-06-21T13:06:02Z</time>
      </trkpt>
      <trkpt lat="49.76031" lon="2.12347">
        <ele>156.6</ele>
        <time>2023-06-21T13:06:03Z</time>
      </trkpt>
      <trkpt lat="49.76033" lon="2.12345">
        <ele>156.6</ele>
        <time>2023-06-21T13:06:05Z</time>
      </trkpt>
      <trkpt lat="49.76034" lon="2.12344">
        <ele>156.6</ele>
        <time>2023-06-21T13:06:06Z</time>
      </trkpt>
      <trkpt lat="49.76034" lon="2.12343">
        <ele>156.6</ele>
        <time>2023-06-21T13:06:07Z</time>
      </trkpt>
      <trkpt lat="49.76035" lon="2.12342">
        <ele>156.6</ele>
        <time>2023-06-21T13:06:09Z</time>
      </trkpt>
      <trkpt lat="49.76035" lon="2.12342">
        <ele>156.7</ele>
        <time>2023-06-21T13:06:10Z</time>
      </trkpt>
      <trkpt lat="49.76036" lon="2.12341">
        <ele>156.7</ele>
        <time>2023-06-21T13:06:11Z</time>
      </trkpt>
      <trkpt lat="49.76037" lon="2.1234">
        <ele>156.7</ele>
        <time>2023-06-21T13:06:12Z</time>
      </trkpt>
      <trkpt lat="49.76038" lon="2.12339">
        <ele>156.7</ele>
        <time>2023-06-21T13:06:13Z</time>
      </trkpt>
      <trkpt lat="49.76039" lon="2.12338">
        <ele>156.7</ele>
        <time>2023-06-21T13:06:14Z</time>
      </trkpt>
      <trkpt lat="49.7604" lon="2.12336">
        <ele>156.7</ele>
        <time>2023-06-21T13:06:16Z</time>
      </trkpt>
      <trkpt lat="49.76042" lon="2.12335">
        <ele>156.7</ele>
        <time>2023-06-21T13:06:17Z</time>
      </trkpt>
      <trkpt lat="49.76043" lon="2.12334">
        <ele>156.7</ele>
        <time>2023-06-21T13:06:18Z</time>
      </trkpt>
      <trkpt lat="49.76043" lon="2.12333">
        <ele>156.8</ele>
        <time>2023-06-21T13:06:19Z</time>
      </trkpt>
      <trkpt lat="49.76046" lon="2.12331">
        <ele>156.8</ele>
        <time>2023-06-21T13:06:20Z</time>
      </trkpt>
      <trkpt lat="49.76047" lon="2.1233">
        <ele>156.8</ele>
        <time>2023-06-21T13:06:22Z</time>
      </trkpt>
      <trkpt lat="49.76047" lon="2.12329">
        <ele>156.8</ele>
        <time>2023-06-21T13:06:23Z</time>
      </trkpt>
      <trkpt lat="49.76048" lon="2.12328">
        <ele>156.8</ele>
        <time>2023-06-21T13:06:24Z</time>
      </trkpt>
      <trkpt lat="49.76049" lon="2.12327">
        <ele>156.8</ele>
        <time>2023-06-21T13:06:25Z</time>
      </trkpt>
      <trkpt lat="49.7605" lon="2.12325">
        <ele>156.9</ele>
        <time>2023-06-21T13:06:26Z</time>
      </trkpt>
      <trkpt lat="49.76051" lon="2.12324">
        <ele>156.9</ele>
        <time>2023-06-21T13:06:27Z</time>
      </trkpt>
      <trkpt lat="49.76053" lon="2.12322">
        <ele>156.9</ele>
        <time>2023-06-21T13:06:28Z</time>
      </trkpt>
      <trkpt lat="49.76054" lon="2.12321">
        <ele>156.9</ele>
        <time>2023-06-21T13:06:29Z</time>
      </trkpt>
      <trkpt lat="49.76056" lon="2.12319">
        <ele>157</ele>
        <time>2023-06-21T13:06:31Z</time>
      </trkpt>
      <trkpt lat="49.76056" lon="2.12319">
        <ele>157</ele>
        <time>2023-06-21T13:06:32Z</time>
      </trkpt>
      <trkpt lat="49.76057" lon="2.12318">
        <ele>157</ele>
        <time>2023-06-21T13:06:33Z</time>
      </trkpt>
      <trkpt lat="49.76058" lon="2.12317">
        <ele>157</ele>
        <time>2023-06-21T13:06:34Z</time>
      </trkpt>
      <trkpt lat="49.76059" lon="2.12316">
        <ele>157</ele>
        <time>2023-06-21T13:06:35Z</time>
      </trkpt>
      <trkpt lat="49.76061" lon="2.12315">
        <ele>157</ele>
        <time>2023-06-21T13:06:36Z</time>
      </trkpt>
      <trkpt lat="49.76062" lon="2.12313">
        <ele>157</ele>
        <time>2023-06-21T13:06:37Z</time>
      </trkpt>
      <trkpt lat="49.76063" lon="2.12312">
        <ele>157.1</ele>
        <time>2023-06-21T13:06:38Z</time>
      </trkpt>
      <trkpt lat="49.76064" lon="2.12311">
        <ele>157.1</ele>
        <time>2023-06-21T13:06:40Z</time>
      </trkpt>
      <trkpt lat="49.76065" lon="2.1231">
        <ele>157.1</ele>
        <time>2023-06-21T13:06:41Z</time>
      </trkpt>
      <trkpt lat="49.76066" lon="2.12309">
        <ele>157.1</ele>
        <time>2023-06-21T13:06:42Z</time>
      </trkpt>
      <trkpt lat="49.76067" lon="2.12309">
        <ele>157.1</ele>
        <time>2023-06-21T13:06:43Z</time>
      </trkpt>
      <trkpt lat="49.76069" lon="2.12307">
        <ele>157.1</ele>
        <time>2023-06-21T13:06:44Z</time>
      </trkpt>
      <trkpt lat="49.76069" lon="2.12306">
        <ele>157.1</ele>
        <time>2023-06-21T13:06:45Z</time>
      </trkpt>
      <trkpt lat="49.7607" lon="2.12306">
        <ele>157.1</ele>
        <time>2023-06-21T13:06:46Z</time>
      </trkpt>
      <trkpt lat="49.76072" lon="2.12304">
        <ele>157.1</ele>
        <time>2023-06-21T13:06:47Z</time>
      </trkpt>
      <trkpt lat="49.76073" lon="2.12303">
        <ele>157.1</ele>
        <time>2023-06-21T13:06:48Z</time>
      </trkpt>
      <trkpt lat="49.76073" lon="2.12303">
        <ele>157.2</ele>
        <time>2023-06-21T13:06:49Z</time>
      </trkpt>
      <trkpt lat="49.76074" lon="2.12302">
        <ele>157.2</ele>
        <time>2023-06-21T13:06:51Z</time>
      </trkpt>
      <trkpt lat="49.76076" lon="2.123">
        <ele>157.2</ele>
        <time>2023-06-21T13:06:52Z</time>
      </trkpt>
      <trkpt lat="49.76078" lon="2.12299">
        <ele>157.2</ele>
        <time>2023-06-21T13:06:53Z</time>
      </trkpt>
      <trkpt lat="49.76079" lon="2.12298">
        <ele>157.2</ele>
        <time>2023-06-21T13:06:55Z</time>
      </trkpt>
      <trkpt lat="49.7608" lon="2.12297">
        <ele>157.2</ele>
        <time>2023-06-21T13:06:56Z</time>
      </trkpt>
      <trkpt lat="49.76081" lon="2.12296">
        <ele>157.2</ele>
        <time>2023-06-21T13:06:57Z</time>
      </trkpt>
      <trkpt lat="49.76082" lon="2.12295">
        <ele>157.2</ele>
        <time>2023-06-21T13:06:58Z</time>
      </trkpt>
      <trkpt lat="49.76083" lon="2.12294">
        <ele>157.2</ele>
        <time>2023-06-21T13:06:59Z</time>
      </trkpt>
      <trkpt lat="49.76084" lon="2.12293">
        <ele>157.2</ele>
        <time>2023-06-21T13:07:00Z</time>
      </trkpt>
      <trkpt lat="49.76086" lon="2.12291">
        <ele>157.2</ele>
        <time>2023-06-21T13:07:01Z</time>
      </trkpt>
      <trkpt lat="49.76087" lon="2.1229">
        <ele>157.2</ele>
        <time>2023-06-21T13:07:02Z</time>
      </trkpt>
      <trkpt lat="49.76089" lon="2.12289">
        <ele>157.3</ele>
        <time>2023-06-21T13:07:04Z</time>
      </trkpt>
      <trkpt lat="49.76089" lon="2.12288">
        <ele>157.3</ele>
        <time>2023-06-21T13:07:05Z</time>
      </trkpt>
      <trkpt lat="49.7609" lon="2.12287">
        <ele>157.3</ele>
        <time>2023-06-21T13:07:06Z</time>
      </trkpt>
      <trkpt lat="49.76092" lon="2.12286">
        <ele>157.3</ele>
        <time>2023-06-21T13:07:07Z</time>
      </trkpt>
      <trkpt lat="49.76093" lon="2.12284">
        <ele>157.3</ele>
        <time>2023-06-21T13:07:09Z</time>
      </trkpt>
      <trkpt lat="49.76094" lon="2.12283">
        <ele>157.3</ele>
        <time>2023-06-21T13:07:10Z</time>
      </trkpt>
      <trkpt lat="49.76095" lon="2.12281">
        <ele>157.3</ele>
        <time>2023-06-21T13:07:11Z</time>
      </trkpt>
      <trkpt lat="49.76096" lon="2.1228">
        <ele>157.3</ele>
        <time>2023-06-21T13:07:12Z</time>
      </trkpt>
      <trkpt lat="49.76098" lon="2.12279">
        <ele>157.3</ele>
        <time>2023-06-21T13:07:13Z</time>
      </trkpt>
      <trkpt lat="49.76099" lon="2.12277">
        <ele>157.3</ele>
        <time>2023-06-21T13:07:14Z</time>
      </trkpt>
      <trkpt lat="49.761" lon="2.12276">
        <ele>157.3</ele>
        <time>2023-06-21T13:07:16Z</time>
      </trkpt>
      <trkpt lat="49.76101" lon="2.12275">
        <ele>157.3</ele>
        <time>2023-06-21T13:07:17Z</time>
      </trkpt>
      <trkpt lat="49.76102" lon="2.12274">
        <ele>157.3</ele>
        <time>2023-06-21T13:07:18Z</time>
      </trkpt>
      <trkpt lat="49.76104" lon="2.12272">
        <ele>157.3</ele>
        <time>2023-06-21T13:07:19Z</time>
      </trkpt>
      <trkpt lat="49.76105" lon="2.12271">
        <ele>157.3</ele>
        <time>2023-06-21T13:07:20Z</time>
      </trkpt>
      <trkpt lat="49.76105" lon="2.1227">
        <ele>157.3</ele>
        <time>2023-06-21T13:07:21Z</time>
      </trkpt>
      <trkpt lat="49.76107" lon="2.12269">
        <ele>157.3</ele>
        <time>2023-06-21T13:07:23Z</time>
      </trkpt>
      <trkpt lat="49.76108" lon="2.12268">
        <ele>157.3</ele>
        <time>2023-06-21T13:07:24Z</time>
      </trkpt>
      <trkpt lat="49.7611" lon="2.12267">
        <ele>157.4</ele>
        <time>2023-06-21T13:07:25Z</time>
      </trkpt>
      <trkpt lat="49.76111" lon="2.12266">
        <ele>157.4</ele>
        <time>2023-06-21T13:07:26Z</time>
      </trkpt>
      <trkpt lat="49.76112" lon="2.12265">
        <ele>157.4</ele>
        <time>2023-06-21T13:07:27Z</time>
      </trkpt>
      <trkpt lat="49.76113" lon="2.12264">
        <ele>157.4</ele>
        <time>2023-06-21T13:07:29Z</time>
      </trkpt>
      <trkpt lat="49.76114" lon="2.12263">
        <ele>157.4</ele>
        <time>2023-06-21T13:07:30Z</time>
      </trkpt>
      <trkpt lat="49.76115" lon="2.12262">
        <ele>157.4</ele>
        <time>2023-06-21T13:07:31Z</time>
      </trkpt>
      <trkpt lat="49.76116" lon="2.12261">
        <ele>157.4</ele>
        <time>2023-06-21T13:07:32Z</time>
      </trkpt>
      <trkpt lat="49.76117" lon="2.1226">
        <ele>157.4</ele>
        <time>2023-06-21T13:07:33Z</time>
      </trkpt>
      <trkpt lat="49.76118" lon="2.12259">
        <ele>157.4</ele>
        <time>2023-06-21T13:07:34Z</time>
      </trkpt>
      <trkpt lat="49.76119" lon="2.12258">
        <ele>157.4</ele>
        <time>2023-06-21T13:07:36Z</time>
      </trkpt>
      <trkpt lat="49.7612" lon="2.12257">
        <ele>157.4</ele>
        <time>2023-06-21T13:07:37Z</time>
      </trkpt>
      <trkpt lat="49.76121" lon="2.12256">
        <ele>157.4</ele>
        <time>2023-06-21T13:07:38Z</time>
      </trkpt>
      <trkpt lat="49.76122" lon="2.12255">
        <ele>157.4</ele>
        <time>2023-06-21T13:07:39Z</time>
      </trkpt>
      <trkpt lat="49.76122" lon="2.12253">
        <ele>157.4</ele>
        <time>2023-06-21T13:07:40Z</time>
      </trkpt>
      <trkpt lat="49.76123" lon="2.12251">
        <ele>157.5</ele>
        <time>2023-06-21T13:07:41Z</time>
      </trkpt>
      <trkpt lat="49.76123" lon="2.12249">
        <ele>157.5</ele>
        <time>2023-06-21T13:07:43Z</time>
      </trkpt>
      <trkpt lat="49.76123" lon="2.12248">
        <ele>157.5</ele>
        <time>2023-06-21T13:07:44Z</time>
      </trkpt>
      <trkpt lat="49.76123" lon="2.12248">
        <ele>157.5</ele>
        <time>2023-06-21T13:07:45Z</time>
      </trkpt>
      <trkpt lat="49.76122" lon="2.12247">
        <ele>157.5</ele>
        <time>2023-06-21T13:07:46Z</time>
      </trkpt>
      <trkpt lat="49.76122" lon="2.12247">
        <ele>157.5</ele>
        <time>2023-06-21T13:07:47Z</time>
      </trkpt>
      <trkpt lat="49.76122" lon="2.12246">
        <ele>157.5</ele>
        <time>2023-06-21T13:07:49Z</time>
      </trkpt>
      <trkpt lat="49.76122" lon="2.12246">
        <ele>157.5</ele>
        <time>2023-06-21T13:07:50Z</time>
      </trkpt>
      <trkpt lat="49.76122" lon="2.12245">
        <ele>157.5</ele>
        <time>2023-06-21T13:07:51Z</time>
      </trkpt>
      <trkpt lat="49.76122" lon="2.12245">
        <ele>157.5</ele>
        <time>2023-06-21T13:07:52Z</time>
      </trkpt>
      <trkpt lat="49.76121" lon="2.12244">
        <ele>157.5</ele>
        <time>2023-06-21T13:07:53Z</time>
      </trkpt>
      <trkpt lat="49.76121" lon="2.12243">
        <ele>157.5</ele>
        <time>2023-06-21T13:07:54Z</time>
      </trkpt>
      <trkpt lat="49.7612" lon="2.12244">
        <ele>157.4</ele>
        <time>2023-06-21T13:07:56Z</time>
      </trkpt>
      <trkpt lat="49.76119" lon="2.12246">
        <ele>157.3</ele>
        <time>2023-06-21T13:07:57Z</time>
      </trkpt>
      <trkpt lat="49.76117" lon="2.12248">
        <ele>157.3</ele>
        <time>2023-06-21T13:07:58Z</time>
      </trkpt>
      <trkpt lat="49.76115" lon="2.1225">
        <ele>157.2</ele>
        <time>2023-06-21T13:08:00Z</time>
      </trkpt>
      <trkpt lat="49.76114" lon="2.12251">
        <ele>157.2</ele>
        <time>2023-06-21T13:08:01Z</time>
      </trkpt>
      <trkpt lat="49.76113" lon="2.12251">
        <ele>157.2</ele>
        <time>2023-06-21T13:08:03Z</time>
      </trkpt>
      <trkpt lat="49.76113" lon="2.12252">
        <ele>157.2</ele>
        <time>2023-06-21T13:08:04Z</time>
      </trkpt>
      <trkpt lat="49.76114" lon="2.12252">
        <ele>157.2</ele>
        <time>2023-06-21T13:08:05Z</time>
      </trkpt>
      <trkpt lat="49.76114" lon="2.12253">
        <ele>157.1</ele>
        <time>2023-06-21T13:08:07Z</time>
      </trkpt>
      <trkpt lat="49.76114" lon="2.12253">
        <ele>157.1</ele>
        <time>2023-06-21T13:08:08Z</time>
      </trkpt>
      <trkpt lat="49.76114" lon="2.12253">
        <ele>157.1</ele>
        <time>2023-06-21T13:08:09Z</time>
      </trkpt>
      <trkpt lat="49.76114" lon="2.12254">
        <ele>157.1</ele>
        <time>2023-06-21T13:08:11Z</time>
      </trkpt>
      <trkpt lat="49.76114" lon="2.12254">
        <ele>157.1</ele>
        <time>2023-06-21T13:08:12Z</time>
      </trkpt>
      <trkpt lat="49.76114" lon="2.12254">
        <ele>157.1</ele>
        <time>2023-06-21T13:08:13Z</time>
      </trkpt>
      <trkpt lat="49.76113" lon="2.12255">
        <ele>157.1</ele>
        <time>2023-06-21T13:08:15Z</time>
      </trkpt>
      <trkpt lat="49.76113" lon="2.12255">
        <ele>157.1</ele>
        <time>2023-06-21T13:08:16Z</time>
      </trkpt>
      <trkpt lat="49.76112" lon="2.12255">
        <ele>157.1</ele>
        <time>2023-06-21T13:08:17Z</time>
      </trkpt>
      <trkpt lat="49.76112" lon="2.12255">
        <ele>157.1</ele>
        <time>2023-06-21T13:08:18Z</time>
      </trkpt>
      <trkpt lat="49.76111" lon="2.12254">
        <ele>157.1</ele>
        <time>2023-06-21T13:08:20Z</time>
      </trkpt>
      <trkpt lat="49.76111" lon="2.12253">
        <ele>157</ele>
        <time>2023-06-21T13:08:21Z</time>
      </trkpt>
      <trkpt lat="49.76112" lon="2.12253">
        <ele>157</ele>
        <time>2023-06-21T13:08:22Z</time>
      </trkpt>
      <trkpt lat="49.76113" lon="2.12253">
        <ele>157</ele>
        <time>2023-06-21T13:08:24Z</time>
      </trkpt>
      <trkpt lat="49.76113" lon="2.12253">
        <ele>157</ele>
        <time>2023-06-21T13:08:25Z</time>
      </trkpt>
      <trkpt lat="49.76114" lon="2.12253">
        <ele>157</ele>
        <time>2023-06-21T13:08:26Z</time>
      </trkpt>
      <trkpt lat="49.76114" lon="2.12254">
        <ele>157</ele>
        <time>2023-06-21T13:08:28Z</time>
      </trkpt>
      <trkpt lat="49.76115" lon="2.12254">
        <ele>157</ele>
        <time>2023-06-21T13:08:29Z</time>
      </trkpt>
      <trkpt lat="49.76115" lon="2.12254">
        <ele>157</ele>
        <time>2023-06-21T13:08:30Z</time>
      </trkpt>
      <trkpt lat="49.76115" lon="2.12255">
        <ele>157</ele>
        <time>2023-06-21T13:08:32Z</time>
      </trkpt>
      <trkpt lat="49.76115" lon="2.12255">
        <ele>157</ele>
        <time>2023-06-21T13:08:33Z</time>
      </trkpt>
      <trkpt lat="49.76115" lon="2.12255">
        <ele>157</ele>
        <time>2023-06-21T13:08:34Z</time>
      </trkpt>
      <trkpt lat="49.76115" lon="2.12255">
        <ele>157</ele>
        <time>2023-06-21T13:08:36Z</time>
      </trkpt>
      <trkpt lat="49.76115" lon="2.12255">
        <ele>157</ele>
        <time>2023-06-21T13:08:37Z</time>
      </trkpt>
      <trkpt lat="49.76116" lon="2.12255">
        <ele>157</ele>
        <time>2023-06-21T13:08:38Z</time>
      </trkpt>
      <trkpt lat="49.76116" lon="2.12255">
        <ele>157</ele>
        <time>2023-06-21T13:08:39Z</time>
      </trkpt>
      <trkpt lat="49.76116" lon="2.12254">
        <ele>157</ele>
        <time>2023-06-21T13:08:40Z</time>
      </trkpt>
      <trkpt lat="49.76116" lon="2.12254">
        <ele>157</ele>
        <time>2023-06-21T13:08:41Z</time>
      </trkpt>
      <trkpt lat="49.76116" lon="2.12254">
        <ele>157</ele>
        <time>2023-06-21T13:08:42Z</time>
      </trkpt>
      <trkpt lat="49.76116" lon="2.12254">
        <ele>157</ele>
        <time>2023-06-21T13:08:43Z</time>
      </trkpt>
      <trkpt lat="49.76116" lon="2.12254">
        <ele>157</ele>
        <time>2023-06-21T13:08:44Z</time>
      </trkpt>
      <trkpt lat="49.76116" lon="2.12254">
        <ele>157</ele>
        <time>2023-06-21T13:08:45Z</time>
      </trkpt>
      <trkpt lat="49.76116" lon="2.12254">
        <ele>157</ele>
        <time>2023-06-21T13:08:46Z</time>
      </trkpt>
      <trkpt lat="49.76116" lon="2.12254">
        <ele>157</ele>
        <time>2023-06-21T13:08:47Z</time>
      </trkpt>
      <trkpt lat="49.76116" lon="2.12254">
        <ele>157</ele>
        <time>2023-06-21T13:08:48Z</time>
      </trkpt>
      <trkpt lat="49.76116" lon="2.12254">
        <ele>157</ele>
        <time>2023-06-21T13:08:49Z</time>
      </trkpt>
      <trkpt lat="49.76116" lon="2.12254">
        <ele>157</ele>
        <time>2023-06-21T13:08:50Z</time>
      </trkpt>
      <trkpt lat="49.76116" lon="2.12254">
        <ele>157</ele>
        <time>2023-06-21T13:08:51Z</time>
      </trkpt>
      <trkpt lat="49.76116" lon="2.12254">
        <ele>157</ele>
        <time>2023-06-21T13:08:52Z</time>
      </trkpt>
      <trkpt lat="49.76116" lon="2.12254">
        <ele>157</ele>
        <time>2023-06-21T13:08:53Z</time>
      </trkpt>
      <trkpt lat="49.76116" lon="2.12254">
        <ele>157</ele>
        <time>2023-06-21T13:08:54Z</time>
      </trkpt>
      <trkpt lat="49.76116" lon="2.12254">
        <ele>157</ele>
        <time>2023-06-21T13:08:55Z</time>
      </trkpt>
      <trkpt lat="49.76116" lon="2.12254">
        <ele>157</ele>
        <time>2023-06-21T13:08:56Z</time>
      </trkpt>
      <trkpt lat="49.76116" lon="2.12254">
        <ele>157</ele>
        <time>2023-06-21T13:08:57Z</time>
      </trkpt>
      <trkpt lat="49.76116" lon="2.12254">
        <ele>157</ele>
        <time>2023-06-21T13:08:58Z</time>
      </trkpt>
      <trkpt lat="49.76116" lon="2.12254">
        <ele>157</ele>
        <time>2023-06-21T13:08:59Z</time>
      </trkpt>
      <trkpt lat="49.76116" lon="2.12254">
        <ele>157</ele>
        <time>2023-06-21T13:09:00Z</time>
      </trkpt>
      <trkpt lat="49.76116" lon="2.12254">
        <ele>157</ele>
        <time>2023-06-21T13:09:01Z</time>
      </trkpt>
      <trkpt lat="49.76116" lon="2.12254">
        <ele>157</ele>
        <time>2023-06-21T13:09:02Z</time>
      </trkpt>
      <trkpt lat="49.76116" lon="2.12254">
        <ele>156.9</ele>
        <time>2023-06-21T13:09:03Z</time>
      </trkpt>
      <trkpt lat="49.76116" lon="2.12254">
        <ele>156.9</ele>
        <time>2023-06-21T13:09:04Z</time>
      </trkpt>
      <trkpt lat="49.76116" lon="2.12253">
        <ele>156.9</ele>
        <time>2023-06-21T13:09:05Z</time>
      </trkpt>
      <trkpt lat="49.76116" lon="2.12253">
        <ele>156.9</ele>
        <time>2023-06-21T13:09:06Z</time>
      </trkpt>
      <trkpt lat="49.76116" lon="2.12253">
        <ele>156.9</ele>
        <time>2023-06-21T13:09:07Z</time>
      </trkpt>
      <trkpt lat="49.76117" lon="2.12252">
        <ele>156.9</ele>
        <time>2023-06-21T13:09:08Z</time>
      </trkpt>
      <trkpt lat="49.76118" lon="2.1225">
        <ele>156.9</ele>
        <time>2023-06-21T13:09:09Z</time>
      </trkpt>
      <trkpt lat="49.76118" lon="2.12248">
        <ele>156.9</ele>
        <time>2023-06-21T13:09:11Z</time>
      </trkpt>
      <trkpt lat="49.76118" lon="2.12247">
        <ele>156.8</ele>
        <time>2023-06-21T13:09:12Z</time>
      </trkpt>
      <trkpt lat="49.76118" lon="2.12243">
        <ele>156.8</ele>
        <time>2023-06-21T13:09:13Z</time>
      </trkpt>
      <trkpt lat="49.76117" lon="2.1224">
        <ele>156.8</ele>
        <time>2023-06-21T13:09:15Z</time>
      </trkpt>
      <trkpt lat="49.76117" lon="2.12239">
        <ele>156.8</ele>
        <time>2023-06-21T13:09:17Z</time>
      </trkpt>
      <trkpt lat="49.76116" lon="2.12237">
        <ele>156.7</ele>
        <time>2023-06-21T13:09:18Z</time>
      </trkpt>
      <trkpt lat="49.76115" lon="2.12236">
        <ele>156.7</ele>
        <time>2023-06-21T13:09:19Z</time>
      </trkpt>
      <trkpt lat="49.76114" lon="2.12234">
        <ele>156.7</ele>
        <time>2023-06-21T13:09:20Z</time>
      </trkpt>
      <trkpt lat="49.76114" lon="2.12233">
        <ele>156.7</ele>
        <time>2023-06-21T13:09:21Z</time>
      </trkpt>
      <trkpt lat="49.76113" lon="2.12233">
        <ele>156.6</ele>
        <time>2023-06-21T13:09:22Z</time>
      </trkpt>
      <trkpt lat="49.76112" lon="2.12232">
        <ele>156.6</ele>
        <time>2023-06-21T13:09:23Z</time>
      </trkpt>
      <trkpt lat="49.76111" lon="2.12231">
        <ele>156.6</ele>
        <time>2023-06-21T13:09:24Z</time>
      </trkpt>
      <trkpt lat="49.7611" lon="2.1223">
        <ele>156.6</ele>
        <time>2023-06-21T13:09:26Z</time>
      </trkpt>
      <trkpt lat="49.76109" lon="2.12229">
        <ele>156.6</ele>
        <time>2023-06-21T13:09:27Z</time>
      </trkpt>
      <trkpt lat="49.76108" lon="2.12229">
        <ele>156.5</ele>
        <time>2023-06-21T13:09:28Z</time>
      </trkpt>
      <trkpt lat="49.76107" lon="2.12228">
        <ele>156.5</ele>
        <time>2023-06-21T13:09:29Z</time>
      </trkpt>
      <trkpt lat="49.76105" lon="2.12227">
        <ele>156.5</ele>
        <time>2023-06-21T13:09:30Z</time>
      </trkpt>
      <trkpt lat="49.76104" lon="2.12225">
        <ele>156.5</ele>
        <time>2023-06-21T13:09:31Z</time>
      </trkpt>
      <trkpt lat="49.76102" lon="2.12224">
        <ele>156.4</ele>
        <time>2023-06-21T13:09:32Z</time>
      </trkpt>
      <trkpt lat="49.76101" lon="2.12223">
        <ele>156.4</ele>
        <time>2023-06-21T13:09:33Z</time>
      </trkpt>
      <trkpt lat="49.761" lon="2.12222">
        <ele>156.4</ele>
        <time>2023-06-21T13:09:34Z</time>
      </trkpt>
      <trkpt lat="49.76099" lon="2.12221">
        <ele>156.4</ele>
        <time>2023-06-21T13:09:35Z</time>
      </trkpt>
      <trkpt lat="49.76098" lon="2.1222">
        <ele>156.3</ele>
        <time>2023-06-21T13:09:36Z</time>
      </trkpt>
      <trkpt lat="49.76097" lon="2.12218">
        <ele>156.3</ele>
        <time>2023-06-21T13:09:38Z</time>
      </trkpt>
      <trkpt lat="49.76096" lon="2.12217">
        <ele>156.3</ele>
        <time>2023-06-21T13:09:39Z</time>
      </trkpt>
      <trkpt lat="49.76095" lon="2.12215">
        <ele>156.3</ele>
        <time>2023-06-21T13:09:40Z</time>
      </trkpt>
      <trkpt lat="49.76094" lon="2.12214">
        <ele>156.3</ele>
        <time>2023-06-21T13:09:42Z</time>
      </trkpt>
      <trkpt lat="49.76092" lon="2.12213">
        <ele>156.2</ele>
        <time>2023-06-21T13:09:43Z</time>
      </trkpt>
      <trkpt lat="49.76091" lon="2.12212">
        <ele>156.2</ele>
        <time>2023-06-21T13:09:44Z</time>
      </trkpt>
      <trkpt lat="49.7609" lon="2.12211">
        <ele>156.2</ele>
        <time>2023-06-21T13:09:45Z</time>
      </trkpt>
      <trkpt lat="49.76089" lon="2.12211">
        <ele>156.2</ele>
        <time>2023-06-21T13:09:46Z</time>
      </trkpt>
      <trkpt lat="49.76088" lon="2.12209">
        <ele>156.2</ele>
        <time>2023-06-21T13:09:47Z</time>
      </trkpt>
      <trkpt lat="49.76085" lon="2.12207">
        <ele>156.1</ele>
        <time>2023-06-21T13:09:49Z</time>
      </trkpt>
      <trkpt lat="49.76084" lon="2.12206">
        <ele>156.1</ele>
        <time>2023-06-21T13:09:50Z</time>
      </trkpt>
      <trkpt lat="49.76083" lon="2.12205">
        <ele>156.1</ele>
        <time>2023-06-21T13:09:52Z</time>
      </trkpt>
      <trkpt lat="49.76083" lon="2.12205">
        <ele>156.1</ele>
        <time>2023-06-21T13:09:53Z</time>
      </trkpt>
      <trkpt lat="49.76082" lon="2.12204">
        <ele>156.1</ele>
        <time>2023-06-21T13:09:54Z</time>
      </trkpt>
      <trkpt lat="49.76082" lon="2.12203">
        <ele>156.1</ele>
        <time>2023-06-21T13:09:56Z</time>
      </trkpt>
      <trkpt lat="49.76082" lon="2.12201">
        <ele>156.1</ele>
        <time>2023-06-21T13:09:57Z</time>
      </trkpt>
      <trkpt lat="49.76081" lon="2.122">
        <ele>156.1</ele>
        <time>2023-06-21T13:09:58Z</time>
      </trkpt>
      <trkpt lat="49.76081" lon="2.12198">
        <ele>156</ele>
        <time>2023-06-21T13:10:00Z</time>
      </trkpt>
      <trkpt lat="49.7608" lon="2.12197">
        <ele>156</ele>
        <time>2023-06-21T13:10:01Z</time>
      </trkpt>
      <trkpt lat="49.7608" lon="2.12197">
        <ele>156</ele>
        <time>2023-06-21T13:10:02Z</time>
      </trkpt>
      <trkpt lat="49.76079" lon="2.12197">
        <ele>156</ele>
        <time>2023-06-21T13:10:03Z</time>
      </trkpt>
      <trkpt lat="49.76078" lon="2.12197">
        <ele>156</ele>
        <time>2023-06-21T13:10:05Z</time>
      </trkpt>
      <trkpt lat="49.76077" lon="2.12198">
        <ele>156</ele>
        <time>2023-06-21T13:10:06Z</time>
      </trkpt>
      <trkpt lat="49.76077" lon="2.12198">
        <ele>156</ele>
        <time>2023-06-21T13:10:07Z</time>
      </trkpt>
      <trkpt lat="49.76076" lon="2.12199">
        <ele>156</ele>
        <time>2023-06-21T13:10:08Z</time>
      </trkpt>
      <trkpt lat="49.76075" lon="2.122">
        <ele>156</ele>
        <time>2023-06-21T13:10:09Z</time>
      </trkpt>
      <trkpt lat="49.76074" lon="2.12201">
        <ele>156</ele>
        <time>2023-06-21T13:10:11Z</time>
      </trkpt>
      <trkpt lat="49.76074" lon="2.12204">
        <ele>156</ele>
        <time>2023-06-21T13:10:12Z</time>
      </trkpt>
      <trkpt lat="49.76074" lon="2.12205">
        <ele>155.9</ele>
        <time>2023-06-21T13:10:13Z</time>
      </trkpt>
      <trkpt lat="49.76073" lon="2.12205">
        <ele>155.9</ele>
        <time>2023-06-21T13:10:14Z</time>
      </trkpt>
      <trkpt lat="49.76073" lon="2.12205">
        <ele>155.9</ele>
        <time>2023-06-21T13:10:15Z</time>
      </trkpt>
      <trkpt lat="49.76072" lon="2.12203">
        <ele>155.9</ele>
        <time>2023-06-21T13:10:17Z</time>
      </trkpt>
      <trkpt lat="49.76071" lon="2.12203">
        <ele>155.9</ele>
        <time>2023-06-21T13:10:18Z</time>
      </trkpt>
      <trkpt lat="49.76071" lon="2.12203">
        <ele>155.9</ele>
        <time>2023-06-21T13:10:19Z</time>
      </trkpt>
      <trkpt lat="49.7607" lon="2.12202">
        <ele>155.9</ele>
        <time>2023-06-21T13:10:20Z</time>
      </trkpt>
      <trkpt lat="49.76069" lon="2.12201">
        <ele>155.9</ele>
        <time>2023-06-21T13:10:22Z</time>
      </trkpt>
      <trkpt lat="49.76069" lon="2.122">
        <ele>155.9</ele>
        <time>2023-06-21T13:10:23Z</time>
      </trkpt>
      <trkpt lat="49.76068" lon="2.12198">
        <ele>155.9</ele>
        <time>2023-06-21T13:10:24Z</time>
      </trkpt>
      <trkpt lat="49.76067" lon="2.12196">
        <ele>155.9</ele>
        <time>2023-06-21T13:10:26Z</time>
      </trkpt>
      <trkpt lat="49.76068" lon="2.12194">
        <ele>155.8</ele>
        <time>2023-06-21T13:10:28Z</time>
      </trkpt>
      <trkpt lat="49.76068" lon="2.12192">
        <ele>155.8</ele>
        <time>2023-06-21T13:10:29Z</time>
      </trkpt>
      <trkpt lat="49.76067" lon="2.1219">
        <ele>155.8</ele>
        <time>2023-06-21T13:10:30Z</time>
      </trkpt>
      <trkpt lat="49.76067" lon="2.12189">
        <ele>155.8</ele>
        <time>2023-06-21T13:10:31Z</time>
      </trkpt>
      <trkpt lat="49.76066" lon="2.12188">
        <ele>155.8</ele>
        <time>2023-06-21T13:10:32Z</time>
      </trkpt>
      <trkpt lat="49.76065" lon="2.12187">
        <ele>155.8</ele>
        <time>2023-06-21T13:10:33Z</time>
      </trkpt>
      <trkpt lat="49.76064" lon="2.12185">
        <ele>155.8</ele>
        <time>2023-06-21T13:10:34Z</time>
      </trkpt>
      <trkpt lat="49.76063" lon="2.12184">
        <ele>155.8</ele>
        <time>2023-06-21T13:10:36Z</time>
      </trkpt>
      <trkpt lat="49.76062" lon="2.12183">
        <ele>155.8</ele>
        <time>2023-06-21T13:10:37Z</time>
      </trkpt>
      <trkpt lat="49.76061" lon="2.12181">
        <ele>155.8</ele>
        <time>2023-06-21T13:10:38Z</time>
      </trkpt>
      <trkpt lat="49.7606" lon="2.12179">
        <ele>155.8</ele>
        <time>2023-06-21T13:10:39Z</time>
      </trkpt>
      <trkpt lat="49.76059" lon="2.12178">
        <ele>155.7</ele>
        <time>2023-06-21T13:10:40Z</time>
      </trkpt>
      <trkpt lat="49.76058" lon="2.12177">
        <ele>155.7</ele>
        <time>2023-06-21T13:10:41Z</time>
      </trkpt>
      <trkpt lat="49.76057" lon="2.12176">
        <ele>155.7</ele>
        <time>2023-06-21T13:10:42Z</time>
      </trkpt>
      <trkpt lat="49.76056" lon="2.12176">
        <ele>155.7</ele>
        <time>2023-06-21T13:10:44Z</time>
      </trkpt>
      <trkpt lat="49.76055" lon="2.12175">
        <ele>155.7</ele>
        <time>2023-06-21T13:10:45Z</time>
      </trkpt>
      <trkpt lat="49.76053" lon="2.12173">
        <ele>155.7</ele>
        <time>2023-06-21T13:10:46Z</time>
      </trkpt>
      <trkpt lat="49.76053" lon="2.12172">
        <ele>155.7</ele>
        <time>2023-06-21T13:10:47Z</time>
      </trkpt>
      <trkpt lat="49.76052" lon="2.12171">
        <ele>155.7</ele>
        <time>2023-06-21T13:10:48Z</time>
      </trkpt>
      <trkpt lat="49.76051" lon="2.1217">
        <ele>155.7</ele>
        <time>2023-06-21T13:10:49Z</time>
      </trkpt>
      <trkpt lat="49.7605" lon="2.12169">
        <ele>155.7</ele>
        <time>2023-06-21T13:10:50Z</time>
      </trkpt>
      <trkpt lat="49.76049" lon="2.12168">
        <ele>155.7</ele>
        <time>2023-06-21T13:10:51Z</time>
      </trkpt>
      <trkpt lat="49.76048" lon="2.12166">
        <ele>155.6</ele>
        <time>2023-06-21T13:10:53Z</time>
      </trkpt>
      <trkpt lat="49.76047" lon="2.12165">
        <ele>155.6</ele>
        <time>2023-06-21T13:10:54Z</time>
      </trkpt>
      <trkpt lat="49.76044" lon="2.12162">
        <ele>155.6</ele>
        <time>2023-06-21T13:10:55Z</time>
      </trkpt>
      <trkpt lat="49.76043" lon="2.12161">
        <ele>155.6</ele>
        <time>2023-06-21T13:10:57Z</time>
      </trkpt>
      <trkpt lat="49.76042" lon="2.1216">
        <ele>155.6</ele>
        <time>2023-06-21T13:10:59Z</time>
      </trkpt>
      <trkpt lat="49.76041" lon="2.12159">
        <ele>155.6</ele>
        <time>2023-06-21T13:11:00Z</time>
      </trkpt>
      <trkpt lat="49.7604" lon="2.12159">
        <ele>155.6</ele>
        <time>2023-06-21T13:11:01Z</time>
      </trkpt>
      <trkpt lat="49.76039" lon="2.12159">
        <ele>155.6</ele>
        <time>2023-06-21T13:11:02Z</time>
      </trkpt>
      <trkpt lat="49.76038" lon="2.12159">
        <ele>155.6</ele>
        <time>2023-06-21T13:11:03Z</time>
      </trkpt>
      <trkpt lat="49.76036" lon="2.12158">
        <ele>155.5</ele>
        <time>2023-06-21T13:11:04Z</time>
      </trkpt>
      <trkpt lat="49.76035" lon="2.12157">
        <ele>155.5</ele>
        <time>2023-06-21T13:11:06Z</time>
      </trkpt>
      <trkpt lat="49.76034" lon="2.12156">
        <ele>155.5</ele>
        <time>2023-06-21T13:11:07Z</time>
      </trkpt>
      <trkpt lat="49.76033" lon="2.12155">
        <ele>155.5</ele>
        <time>2023-06-21T13:11:08Z</time>
      </trkpt>
      <trkpt lat="49.76032" lon="2.12155">
        <ele>155.5</ele>
        <time>2023-06-21T13:11:09Z</time>
      </trkpt>
      <trkpt lat="49.76031" lon="2.12154">
        <ele>155.5</ele>
        <time>2023-06-21T13:11:10Z</time>
      </trkpt>
      <trkpt lat="49.7603" lon="2.12154">
        <ele>155.5</ele>
        <time>2023-06-21T13:11:11Z</time>
      </trkpt>
      <trkpt lat="49.7603" lon="2.12153">
        <ele>155.5</ele>
        <time>2023-06-21T13:11:12Z</time>
      </trkpt>
      <trkpt lat="49.76029" lon="2.12152">
        <ele>155.5</ele>
        <time>2023-06-21T13:11:13Z</time>
      </trkpt>
      <trkpt lat="49.76028" lon="2.12151">
        <ele>155.5</ele>
        <time>2023-06-21T13:11:14Z</time>
      </trkpt>
      <trkpt lat="49.76027" lon="2.1215">
        <ele>155.5</ele>
        <time>2023-06-21T13:11:15Z</time>
      </trkpt>
      <trkpt lat="49.76026" lon="2.12148">
        <ele>155.5</ele>
        <time>2023-06-21T13:11:17Z</time>
      </trkpt>
      <trkpt lat="49.76025" lon="2.12148">
        <ele>155.5</ele>
        <time>2023-06-21T13:11:18Z</time>
      </trkpt>
      <trkpt lat="49.76024" lon="2.12146">
        <ele>155.6</ele>
        <time>2023-06-21T13:11:19Z</time>
      </trkpt>
      <trkpt lat="49.76024" lon="2.12145">
        <ele>155.6</ele>
        <time>2023-06-21T13:11:20Z</time>
      </trkpt>
      <trkpt lat="49.76024" lon="2.12142">
        <ele>155.6</ele>
        <time>2023-06-21T13:11:22Z</time>
      </trkpt>
      <trkpt lat="49.76024" lon="2.1214">
        <ele>155.6</ele>
        <time>2023-06-21T13:11:23Z</time>
      </trkpt>
      <trkpt lat="49.76024" lon="2.12139">
        <ele>155.6</ele>
        <time>2023-06-21T13:11:24Z</time>
      </trkpt>
      <trkpt lat="49.76024" lon="2.12138">
        <ele>155.6</ele>
        <time>2023-06-21T13:11:25Z</time>
      </trkpt>
      <trkpt lat="49.76023" lon="2.12137">
        <ele>155.6</ele>
        <time>2023-06-21T13:11:27Z</time>
      </trkpt>
      <trkpt lat="49.76023" lon="2.12136">
        <ele>155.6</ele>
        <time>2023-06-21T13:11:28Z</time>
      </trkpt>
      <trkpt lat="49.76021" lon="2.12134">
        <ele>155.6</ele>
        <time>2023-06-21T13:11:29Z</time>
      </trkpt>
      <trkpt lat="49.7602" lon="2.12134">
        <ele>155.6</ele>
        <time>2023-06-21T13:11:30Z</time>
      </trkpt>
      <trkpt lat="49.76019" lon="2.12134">
        <ele>155.6</ele>
        <time>2023-06-21T13:11:31Z</time>
      </trkpt>
      <trkpt lat="49.76017" lon="2.12133">
        <ele>155.6</ele>
        <time>2023-06-21T13:11:33Z</time>
      </trkpt>
      <trkpt lat="49.76016" lon="2.12133">
        <ele>155.6</ele>
        <time>2023-06-21T13:11:34Z</time>
      </trkpt>
      <trkpt lat="49.76016" lon="2.12133">
        <ele>155.7</ele>
        <time>2023-06-21T13:11:35Z</time>
      </trkpt>
      <trkpt lat="49.76015" lon="2.12133">
        <ele>155.7</ele>
        <time>2023-06-21T13:11:36Z</time>
      </trkpt>
      <trkpt lat="49.76014" lon="2.12134">
        <ele>155.7</ele>
        <time>2023-06-21T13:11:37Z</time>
      </trkpt>
      <trkpt lat="49.76014" lon="2.12134">
        <ele>155.7</ele>
        <time>2023-06-21T13:11:38Z</time>
      </trkpt>
      <trkpt lat="49.76013" lon="2.12134">
        <ele>155.7</ele>
        <time>2023-06-21T13:11:39Z</time>
      </trkpt>
      <trkpt lat="49.76011" lon="2.12133">
        <ele>155.7</ele>
        <time>2023-06-21T13:11:41Z</time>
      </trkpt>
      <trkpt lat="49.7601" lon="2.12131">
        <ele>155.7</ele>
        <time>2023-06-21T13:11:42Z</time>
      </trkpt>
      <trkpt lat="49.76009" lon="2.1213">
        <ele>155.7</ele>
        <time>2023-06-21T13:11:43Z</time>
      </trkpt>
      <trkpt lat="49.76007" lon="2.12129">
        <ele>155.7</ele>
        <time>2023-06-21T13:11:45Z</time>
      </trkpt>
      <trkpt lat="49.76007" lon="2.12128">
        <ele>155.7</ele>
        <time>2023-06-21T13:11:46Z</time>
      </trkpt>
      <trkpt lat="49.76006" lon="2.12127">
        <ele>155.8</ele>
        <time>2023-06-21T13:11:47Z</time>
      </trkpt>
      <trkpt lat="49.76005" lon="2.12126">
        <ele>155.8</ele>
        <time>2023-06-21T13:11:48Z</time>
      </trkpt>
      <trkpt lat="49.76003" lon="2.12125">
        <ele>155.8</ele>
        <time>2023-06-21T13:11:49Z</time>
      </trkpt>
      <trkpt lat="49.76002" lon="2.12124">
        <ele>155.8</ele>
        <time>2023-06-21T13:11:50Z</time>
      </trkpt>
      <trkpt lat="49.76002" lon="2.12123">
        <ele>155.8</ele>
        <time>2023-06-21T13:11:51Z</time>
      </trkpt>
      <trkpt lat="49.76001" lon="2.12122">
        <ele>155.8</ele>
        <time>2023-06-21T13:11:53Z</time>
      </trkpt>
      <trkpt lat="49.76" lon="2.12121">
        <ele>155.8</ele>
        <time>2023-06-21T13:11:54Z</time>
      </trkpt>
      <trkpt lat="49.75998" lon="2.12119">
        <ele>155.8</ele>
        <time>2023-06-21T13:11:56Z</time>
      </trkpt>
      <trkpt lat="49.75997" lon="2.12118">
        <ele>155.8</ele>
        <time>2023-06-21T13:11:57Z</time>
      </trkpt>
      <trkpt lat="49.75996" lon="2.12117">
        <ele>155.8</ele>
        <time>2023-06-21T13:11:58Z</time>
      </trkpt>
      <trkpt lat="49.75996" lon="2.12117">
        <ele>155.8</ele>
        <time>2023-06-21T13:11:59Z</time>
      </trkpt>
      <trkpt lat="49.75995" lon="2.12116">
        <ele>155.9</ele>
        <time>2023-06-21T13:12:00Z</time>
      </trkpt>
      <trkpt lat="49.75995" lon="2.12115">
        <ele>155.9</ele>
        <time>2023-06-21T13:12:01Z</time>
      </trkpt>
      <trkpt lat="49.75993" lon="2.12114">
        <ele>155.9</ele>
        <time>2023-06-21T13:12:02Z</time>
      </trkpt>
      <trkpt lat="49.75992" lon="2.12113">
        <ele>155.9</ele>
        <time>2023-06-21T13:12:04Z</time>
      </trkpt>
      <trkpt lat="49.75991" lon="2.1211">
        <ele>155.9</ele>
        <time>2023-06-21T13:12:05Z</time>
      </trkpt>
      <trkpt lat="49.7599" lon="2.1211">
        <ele>155.9</ele>
        <time>2023-06-21T13:12:06Z</time>
      </trkpt>
      <trkpt lat="49.75989" lon="2.12109">
        <ele>155.9</ele>
        <time>2023-06-21T13:12:07Z</time>
      </trkpt>
      <trkpt lat="49.75989" lon="2.12108">
        <ele>155.9</ele>
        <time>2023-06-21T13:12:08Z</time>
      </trkpt>
      <trkpt lat="49.75988" lon="2.12107">
        <ele>155.9</ele>
        <time>2023-06-21T13:12:09Z</time>
      </trkpt>
      <trkpt lat="49.75987" lon="2.12106">
        <ele>156</ele>
        <time>2023-06-21T13:12:11Z</time>
      </trkpt>
      <trkpt lat="49.75986" lon="2.12105">
        <ele>156</ele>
        <time>2023-06-21T13:12:12Z</time>
      </trkpt>
      <trkpt lat="49.75985" lon="2.12104">
        <ele>156</ele>
        <time>2023-06-21T13:12:13Z</time>
      </trkpt>
      <trkpt lat="49.75984" lon="2.12104">
        <ele>156</ele>
        <time>2023-06-21T13:12:14Z</time>
      </trkpt>
      <trkpt lat="49.75982" lon="2.12101">
        <ele>156</ele>
        <time>2023-06-21T13:12:15Z</time>
      </trkpt>
      <trkpt lat="49.75981" lon="2.121">
        <ele>156.1</ele>
        <time>2023-06-21T13:12:17Z</time>
      </trkpt>
      <trkpt lat="49.7598" lon="2.121">
        <ele>156.1</ele>
        <time>2023-06-21T13:12:18Z</time>
      </trkpt>
      <trkpt lat="49.75979" lon="2.12099">
        <ele>156.1</ele>
        <time>2023-06-21T13:12:19Z</time>
      </trkpt>
      <trkpt lat="49.75978" lon="2.12098">
        <ele>156.1</ele>
        <time>2023-06-21T13:12:20Z</time>
      </trkpt>
      <trkpt lat="49.75977" lon="2.12097">
        <ele>156.1</ele>
        <time>2023-06-21T13:12:21Z</time>
      </trkpt>
      <trkpt lat="49.75976" lon="2.12095">
        <ele>156.1</ele>
        <time>2023-06-21T13:12:23Z</time>
      </trkpt>
      <trkpt lat="49.75974" lon="2.12093">
        <ele>156.2</ele>
        <time>2023-06-21T13:12:24Z</time>
      </trkpt>
      <trkpt lat="49.75973" lon="2.12092">
        <ele>156.2</ele>
        <time>2023-06-21T13:12:25Z</time>
      </trkpt>
      <trkpt lat="49.75971" lon="2.12091">
        <ele>156.2</ele>
        <time>2023-06-21T13:12:26Z</time>
      </trkpt>
      <trkpt lat="49.7597" lon="2.1209">
        <ele>156.2</ele>
        <time>2023-06-21T13:12:27Z</time>
      </trkpt>
      <trkpt lat="49.75968" lon="2.12088">
        <ele>156.2</ele>
        <time>2023-06-21T13:12:29Z</time>
      </trkpt>
      <trkpt lat="49.75967" lon="2.12088">
        <ele>156.2</ele>
        <time>2023-06-21T13:12:30Z</time>
      </trkpt>
      <trkpt lat="49.75967" lon="2.12087">
        <ele>156.3</ele>
        <time>2023-06-21T13:12:31Z</time>
      </trkpt>
      <trkpt lat="49.75965" lon="2.12086">
        <ele>156.3</ele>
        <time>2023-06-21T13:12:32Z</time>
      </trkpt>
      <trkpt lat="49.75964" lon="2.12085">
        <ele>156.3</ele>
        <time>2023-06-21T13:12:33Z</time>
      </trkpt>
      <trkpt lat="49.75962" lon="2.12083">
        <ele>156.3</ele>
        <time>2023-06-21T13:12:35Z</time>
      </trkpt>
      <trkpt lat="49.75961" lon="2.12082">
        <ele>156.3</ele>
        <time>2023-06-21T13:12:36Z</time>
      </trkpt>
      <trkpt lat="49.75959" lon="2.1208">
        <ele>156.3</ele>
        <time>2023-06-21T13:12:37Z</time>
      </trkpt>
      <trkpt lat="49.75958" lon="2.12079">
        <ele>156.3</ele>
        <time>2023-06-21T13:12:38Z</time>
      </trkpt>
      <trkpt lat="49.75957" lon="2.12078">
        <ele>156.3</ele>
        <time>2023-06-21T13:12:39Z</time>
      </trkpt>
      <trkpt lat="49.75956" lon="2.12077">
        <ele>156.4</ele>
        <time>2023-06-21T13:12:41Z</time>
      </trkpt>
      <trkpt lat="49.75955" lon="2.12076">
        <ele>156.4</ele>
        <time>2023-06-21T13:12:42Z</time>
      </trkpt>
      <trkpt lat="49.75954" lon="2.12075">
        <ele>156.4</ele>
        <time>2023-06-21T13:12:43Z</time>
      </trkpt>
      <trkpt lat="49.75952" lon="2.12073">
        <ele>156.4</ele>
        <time>2023-06-21T13:12:45Z</time>
      </trkpt>
      <trkpt lat="49.75951" lon="2.12072">
        <ele>156.4</ele>
        <time>2023-06-21T13:12:46Z</time>
      </trkpt>
      <trkpt lat="49.75951" lon="2.12072">
        <ele>156.4</ele>
        <time>2023-06-21T13:12:47Z</time>
      </trkpt>
      <trkpt lat="49.7595" lon="2.12071">
        <ele>156.4</ele>
        <time>2023-06-21T13:12:48Z</time>
      </trkpt>
      <trkpt lat="49.75948" lon="2.1207">
        <ele>156.4</ele>
        <time>2023-06-21T13:12:49Z</time>
      </trkpt>
      <trkpt lat="49.75947" lon="2.1207">
        <ele>156.4</ele>
        <time>2023-06-21T13:12:50Z</time>
      </trkpt>
      <trkpt lat="49.75946" lon="2.12069">
        <ele>156.4</ele>
        <time>2023-06-21T13:12:51Z</time>
      </trkpt>
      <trkpt lat="49.75945" lon="2.12068">
        <ele>156.4</ele>
        <time>2023-06-21T13:12:53Z</time>
      </trkpt>
      <trkpt lat="49.75944" lon="2.12067">
        <ele>156.4</ele>
        <time>2023-06-21T13:12:54Z</time>
      </trkpt>
      <trkpt lat="49.75943" lon="2.12066">
        <ele>156.4</ele>
        <time>2023-06-21T13:12:55Z</time>
      </trkpt>
      <trkpt lat="49.75942" lon="2.12065">
        <ele>156.4</ele>
        <time>2023-06-21T13:12:56Z</time>
      </trkpt>
      <trkpt lat="49.7594" lon="2.12064">
        <ele>156.4</ele>
        <time>2023-06-21T13:12:57Z</time>
      </trkpt>
      <trkpt lat="49.7594" lon="2.12063">
        <ele>156.4</ele>
        <time>2023-06-21T13:12:58Z</time>
      </trkpt>
      <trkpt lat="49.75939" lon="2.12062">
        <ele>156.5</ele>
        <time>2023-06-21T13:12:59Z</time>
      </trkpt>
      <trkpt lat="49.75936" lon="2.1206">
        <ele>156.5</ele>
        <time>2023-06-21T13:13:01Z</time>
      </trkpt>
      <trkpt lat="49.75935" lon="2.12059">
        <ele>156.5</ele>
        <time>2023-06-21T13:13:02Z</time>
      </trkpt>
      <trkpt lat="49.75934" lon="2.12057">
        <ele>156.5</ele>
        <time>2023-06-21T13:13:04Z</time>
      </trkpt>
      <trkpt lat="49.75933" lon="2.12055">
        <ele>156.5</ele>
        <time>2023-06-21T13:13:05Z</time>
      </trkpt>
      <trkpt lat="49.75932" lon="2.12054">
        <ele>156.5</ele>
        <time>2023-06-21T13:13:06Z</time>
      </trkpt>
      <trkpt lat="49.75931" lon="2.12053">
        <ele>156.5</ele>
        <time>2023-06-21T13:13:08Z</time>
      </trkpt>
      <trkpt lat="49.7593" lon="2.12051">
        <ele>156.5</ele>
        <time>2023-06-21T13:13:09Z</time>
      </trkpt>
      <trkpt lat="49.75929" lon="2.12051">
        <ele>156.5</ele>
        <time>2023-06-21T13:13:10Z</time>
      </trkpt>
      <trkpt lat="49.75928" lon="2.1205">
        <ele>156.5</ele>
        <time>2023-06-21T13:13:11Z</time>
      </trkpt>
      <trkpt lat="49.75927" lon="2.12049">
        <ele>156.5</ele>
        <time>2023-06-21T13:13:12Z</time>
      </trkpt>
      <trkpt lat="49.75926" lon="2.12047">
        <ele>156.5</ele>
        <time>2023-06-21T13:13:13Z</time>
      </trkpt>
      <trkpt lat="49.75925" lon="2.12047">
        <ele>156.5</ele>
        <time>2023-06-21T13:13:15Z</time>
      </trkpt>
      <trkpt lat="49.75925" lon="2.12046">
        <ele>156.5</ele>
        <time>2023-06-21T13:13:16Z</time>
      </trkpt>
      <trkpt lat="49.75924" lon="2.12045">
        <ele>156.5</ele>
        <time>2023-06-21T13:13:17Z</time>
      </trkpt>
      <trkpt lat="49.75923" lon="2.12043">
        <ele>156.5</ele>
        <time>2023-06-21T13:13:19Z</time>
      </trkpt>
      <trkpt lat="49.75921" lon="2.12041">
        <ele>156.5</ele>
        <time>2023-06-21T13:13:20Z</time>
      </trkpt>
      <trkpt lat="49.7592" lon="2.1204">
        <ele>156.5</ele>
        <time>2023-06-21T13:13:21Z</time>
      </trkpt>
      <trkpt lat="49.75919" lon="2.12039">
        <ele>156.5</ele>
        <time>2023-06-21T13:13:22Z</time>
      </trkpt>
      <trkpt lat="49.75917" lon="2.12037">
        <ele>156.5</ele>
        <time>2023-06-21T13:13:23Z</time>
      </trkpt>
      <trkpt lat="49.75915" lon="2.12035">
        <ele>156.5</ele>
        <time>2023-06-21T13:13:25Z</time>
      </trkpt>
      <trkpt lat="49.75914" lon="2.12034">
        <ele>156.5</ele>
        <time>2023-06-21T13:13:26Z</time>
      </trkpt>
      <trkpt lat="49.75912" lon="2.12032">
        <ele>156.5</ele>
        <time>2023-06-21T13:13:27Z</time>
      </trkpt>
      <trkpt lat="49.75911" lon="2.12031">
        <ele>156.5</ele>
        <time>2023-06-21T13:13:29Z</time>
      </trkpt>
      <trkpt lat="49.7591" lon="2.1203">
        <ele>156.5</ele>
        <time>2023-06-21T13:13:30Z</time>
      </trkpt>
      <trkpt lat="49.75909" lon="2.12029">
        <ele>156.5</ele>
        <time>2023-06-21T13:13:31Z</time>
      </trkpt>
      <trkpt lat="49.75908" lon="2.12028">
        <ele>156.5</ele>
        <time>2023-06-21T13:13:32Z</time>
      </trkpt>
      <trkpt lat="49.75905" lon="2.12026">
        <ele>156.5</ele>
        <time>2023-06-21T13:13:34Z</time>
      </trkpt>
      <trkpt lat="49.75904" lon="2.12026">
        <ele>156.4</ele>
        <time>2023-06-21T13:13:35Z</time>
      </trkpt>
      <trkpt lat="49.75903" lon="2.12026">
        <ele>156.4</ele>
        <time>2023-06-21T13:13:36Z</time>
      </trkpt>
      <trkpt lat="49.75902" lon="2.12024">
        <ele>156.4</ele>
        <time>2023-06-21T13:13:37Z</time>
      </trkpt>
      <trkpt lat="49.75901" lon="2.12024">
        <ele>156.4</ele>
        <time>2023-06-21T13:13:38Z</time>
      </trkpt>
      <trkpt lat="49.759" lon="2.12023">
        <ele>156.4</ele>
        <time>2023-06-21T13:13:39Z</time>
      </trkpt>
      <trkpt lat="49.75899" lon="2.12022">
        <ele>156.3</ele>
        <time>2023-06-21T13:13:41Z</time>
      </trkpt>
      <trkpt lat="49.75898" lon="2.12021">
        <ele>156.3</ele>
        <time>2023-06-21T13:13:42Z</time>
      </trkpt>
      <trkpt lat="49.75898" lon="2.12021">
        <ele>156.3</ele>
        <time>2023-06-21T13:13:43Z</time>
      </trkpt>
      <trkpt lat="49.75897" lon="2.1202">
        <ele>156.3</ele>
        <time>2023-06-21T13:13:44Z</time>
      </trkpt>
      <trkpt lat="49.75894" lon="2.12019">
        <ele>156.2</ele>
        <time>2023-06-21T13:13:46Z</time>
      </trkpt>
      <trkpt lat="49.75893" lon="2.12018">
        <ele>156.2</ele>
        <time>2023-06-21T13:13:47Z</time>
      </trkpt>
      <trkpt lat="49.75892" lon="2.12018">
        <ele>156.1</ele>
        <time>2023-06-21T13:13:48Z</time>
      </trkpt>
      <trkpt lat="49.7589" lon="2.12017">
        <ele>156.1</ele>
        <time>2023-06-21T13:13:49Z</time>
      </trkpt>
      <trkpt lat="49.75889" lon="2.12016">
        <ele>156</ele>
        <time>2023-06-21T13:13:50Z</time>
      </trkpt>
      <trkpt lat="49.75888" lon="2.12016">
        <ele>156</ele>
        <time>2023-06-21T13:13:52Z</time>
      </trkpt>
      <trkpt lat="49.75887" lon="2.12015">
        <ele>156</ele>
        <time>2023-06-21T13:13:53Z</time>
      </trkpt>
      <trkpt lat="49.75886" lon="2.12015">
        <ele>155.9</ele>
        <time>2023-06-21T13:13:54Z</time>
      </trkpt>
      <trkpt lat="49.75885" lon="2.12013">
        <ele>155.9</ele>
        <time>2023-06-21T13:13:56Z</time>
      </trkpt>
      <trkpt lat="49.75883" lon="2.12012">
        <ele>155.8</ele>
        <time>2023-06-21T13:13:57Z</time>
      </trkpt>
      <trkpt lat="49.75881" lon="2.12012">
        <ele>155.8</ele>
        <time>2023-06-21T13:13:58Z</time>
      </trkpt>
      <trkpt lat="49.7588" lon="2.1201">
        <ele>155.7</ele>
        <time>2023-06-21T13:13:59Z</time>
      </trkpt>
      <trkpt lat="49.75877" lon="2.12009">
        <ele>155.6</ele>
        <time>2023-06-21T13:14:01Z</time>
      </trkpt>
      <trkpt lat="49.75876" lon="2.12009">
        <ele>155.6</ele>
        <time>2023-06-21T13:14:02Z</time>
      </trkpt>
      <trkpt lat="49.75875" lon="2.12009">
        <ele>155.5</ele>
        <time>2023-06-21T13:14:03Z</time>
      </trkpt>
      <trkpt lat="49.75874" lon="2.12008">
        <ele>155.5</ele>
        <time>2023-06-21T13:14:04Z</time>
      </trkpt>
      <trkpt lat="49.75873" lon="2.12007">
        <ele>155.5</ele>
        <time>2023-06-21T13:14:05Z</time>
      </trkpt>
      <trkpt lat="49.75872" lon="2.12006">
        <ele>155.4</ele>
        <time>2023-06-21T13:14:06Z</time>
      </trkpt>
      <trkpt lat="49.7587" lon="2.12005">
        <ele>155.3</ele>
        <time>2023-06-21T13:14:08Z</time>
      </trkpt>
      <trkpt lat="49.75869" lon="2.12004">
        <ele>155.3</ele>
        <time>2023-06-21T13:14:09Z</time>
      </trkpt>
      <trkpt lat="49.75868" lon="2.12002">
        <ele>155.2</ele>
        <time>2023-06-21T13:14:10Z</time>
      </trkpt>
      <trkpt lat="49.75867" lon="2.12001">
        <ele>155.1</ele>
        <time>2023-06-21T13:14:11Z</time>
      </trkpt>
      <trkpt lat="49.75865" lon="2.12">
        <ele>155.1</ele>
        <time>2023-06-21T13:14:12Z</time>
      </trkpt>
      <trkpt lat="49.75863" lon="2.11999">
        <ele>155</ele>
        <time>2023-06-21T13:14:14Z</time>
      </trkpt>
      <trkpt lat="49.75862" lon="2.11998">
        <ele>154.9</ele>
        <time>2023-06-21T13:14:15Z</time>
      </trkpt>
      <trkpt lat="49.75861" lon="2.11997">
        <ele>154.9</ele>
        <time>2023-06-21T13:14:16Z</time>
      </trkpt>
      <trkpt lat="49.75861" lon="2.11997">
        <ele>154.8</ele>
        <time>2023-06-21T13:14:17Z</time>
      </trkpt>
      <trkpt lat="49.75859" lon="2.11996">
        <ele>154.7</ele>
        <time>2023-06-21T13:14:19Z</time>
      </trkpt>
      <trkpt lat="49.75857" lon="2.11995">
        <ele>154.7</ele>
        <time>2023-06-21T13:14:20Z</time>
      </trkpt>
      <trkpt lat="49.75857" lon="2.11994">
        <ele>154.6</ele>
        <time>2023-06-21T13:14:21Z</time>
      </trkpt>
      <trkpt lat="49.75855" lon="2.11993">
        <ele>154.5</ele>
        <time>2023-06-21T13:14:23Z</time>
      </trkpt>
      <trkpt lat="49.75853" lon="2.11992">
        <ele>154.5</ele>
        <time>2023-06-21T13:14:24Z</time>
      </trkpt>
      <trkpt lat="49.75853" lon="2.11991">
        <ele>154.4</ele>
        <time>2023-06-21T13:14:25Z</time>
      </trkpt>
      <trkpt lat="49.75852" lon="2.11991">
        <ele>154.4</ele>
        <time>2023-06-21T13:14:26Z</time>
      </trkpt>
      <trkpt lat="49.75851" lon="2.1199">
        <ele>154.3</ele>
        <time>2023-06-21T13:14:27Z</time>
      </trkpt>
      <trkpt lat="49.75849" lon="2.11989">
        <ele>154.2</ele>
        <time>2023-06-21T13:14:29Z</time>
      </trkpt>
      <trkpt lat="49.75848" lon="2.11988">
        <ele>154.2</ele>
        <time>2023-06-21T13:14:30Z</time>
      </trkpt>
      <trkpt lat="49.75847" lon="2.11988">
        <ele>154.1</ele>
        <time>2023-06-21T13:14:31Z</time>
      </trkpt>
      <trkpt lat="49.75846" lon="2.11987">
        <ele>154</ele>
        <time>2023-06-21T13:14:32Z</time>
      </trkpt>
      <trkpt lat="49.75844" lon="2.11986">
        <ele>153.9</ele>
        <time>2023-06-21T13:14:33Z</time>
      </trkpt>
      <trkpt lat="49.75843" lon="2.11985">
        <ele>153.9</ele>
        <time>2023-06-21T13:14:35Z</time>
      </trkpt>
      <trkpt lat="49.75842" lon="2.11986">
        <ele>153.8</ele>
        <time>2023-06-21T13:14:36Z</time>
      </trkpt>
      <trkpt lat="49.7584" lon="2.11985">
        <ele>153.7</ele>
        <time>2023-06-21T13:14:37Z</time>
      </trkpt>
      <trkpt lat="49.75839" lon="2.11985">
        <ele>153.6</ele>
        <time>2023-06-21T13:14:38Z</time>
      </trkpt>
      <trkpt lat="49.75837" lon="2.11984">
        <ele>153.5</ele>
        <time>2023-06-21T13:14:39Z</time>
      </trkpt>
      <trkpt lat="49.75835" lon="2.11985">
        <ele>153.4</ele>
        <time>2023-06-21T13:14:40Z</time>
      </trkpt>
      <trkpt lat="49.75834" lon="2.11984">
        <ele>153.3</ele>
        <time>2023-06-21T13:14:41Z</time>
      </trkpt>
      <trkpt lat="49.75832" lon="2.11984">
        <ele>153.2</ele>
        <time>2023-06-21T13:14:43Z</time>
      </trkpt>
      <trkpt lat="49.75831" lon="2.11983">
        <ele>153.1</ele>
        <time>2023-06-21T13:14:44Z</time>
      </trkpt>
      <trkpt lat="49.75829" lon="2.11983">
        <ele>153</ele>
        <time>2023-06-21T13:14:45Z</time>
      </trkpt>
      <trkpt lat="49.75829" lon="2.11983">
        <ele>152.9</ele>
        <time>2023-06-21T13:14:46Z</time>
      </trkpt>
      <trkpt lat="49.75828" lon="2.11983">
        <ele>152.8</ele>
        <time>2023-06-21T13:14:47Z</time>
      </trkpt>
      <trkpt lat="49.75826" lon="2.11983">
        <ele>152.7</ele>
        <time>2023-06-21T13:14:48Z</time>
      </trkpt>
      <trkpt lat="49.75825" lon="2.11983">
        <ele>152.6</ele>
        <time>2023-06-21T13:14:49Z</time>
      </trkpt>
      <trkpt lat="49.75824" lon="2.11983">
        <ele>152.6</ele>
        <time>2023-06-21T13:14:51Z</time>
      </trkpt>
      <trkpt lat="49.75823" lon="2.11983">
        <ele>152.5</ele>
        <time>2023-06-21T13:14:52Z</time>
      </trkpt>
      <trkpt lat="49.75822" lon="2.11983">
        <ele>152.4</ele>
        <time>2023-06-21T13:14:53Z</time>
      </trkpt>
      <trkpt lat="49.75821" lon="2.11984">
        <ele>152.4</ele>
        <time>2023-06-21T13:14:54Z</time>
      </trkpt>
      <trkpt lat="49.75821" lon="2.11984">
        <ele>152.3</ele>
        <time>2023-06-21T13:14:55Z</time>
      </trkpt>
      <trkpt lat="49.75819" lon="2.11985">
        <ele>152.2</ele>
        <time>2023-06-21T13:14:57Z</time>
      </trkpt>
      <trkpt lat="49.75819" lon="2.11986">
        <ele>152.1</ele>
        <time>2023-06-21T13:14:58Z</time>
      </trkpt>
      <trkpt lat="49.75818" lon="2.11987">
        <ele>152.1</ele>
        <time>2023-06-21T13:14:59Z</time>
      </trkpt>
      <trkpt lat="49.75817" lon="2.11987">
        <ele>152</ele>
        <time>2023-06-21T13:15:00Z</time>
      </trkpt>
      <trkpt lat="49.75816" lon="2.11986">
        <ele>151.9</ele>
        <time>2023-06-21T13:15:01Z</time>
      </trkpt>
      <trkpt lat="49.75814" lon="2.11986">
        <ele>151.8</ele>
        <time>2023-06-21T13:15:03Z</time>
      </trkpt>
      <trkpt lat="49.75813" lon="2.11985">
        <ele>151.8</ele>
        <time>2023-06-21T13:15:04Z</time>
      </trkpt>
      <trkpt lat="49.75812" lon="2.11984">
        <ele>151.7</ele>
        <time>2023-06-21T13:15:05Z</time>
      </trkpt>
      <trkpt lat="49.75811" lon="2.11984">
        <ele>151.6</ele>
        <time>2023-06-21T13:15:07Z</time>
      </trkpt>
      <trkpt lat="49.7581" lon="2.11984">
        <ele>151.6</ele>
        <time>2023-06-21T13:15:08Z</time>
      </trkpt>
      <trkpt lat="49.7581" lon="2.11984">
        <ele>151.5</ele>
        <time>2023-06-21T13:15:09Z</time>
      </trkpt>
      <trkpt lat="49.75809" lon="2.11985">
        <ele>151.5</ele>
        <time>2023-06-21T13:15:10Z</time>
      </trkpt>
      <trkpt lat="49.75808" lon="2.11985">
        <ele>151.4</ele>
        <time>2023-06-21T13:15:12Z</time>
      </trkpt>
      <trkpt lat="49.75807" lon="2.11984">
        <ele>151.4</ele>
        <time>2023-06-21T13:15:13Z</time>
      </trkpt>
      <trkpt lat="49.75808" lon="2.11982">
        <ele>151.2</ele>
        <time>2023-06-21T13:15:14Z</time>
      </trkpt>
      <trkpt lat="49.75809" lon="2.11981">
        <ele>151.2</ele>
        <time>2023-06-21T13:15:16Z</time>
      </trkpt>
      <trkpt lat="49.75809" lon="2.11979">
        <ele>151.1</ele>
        <time>2023-06-21T13:15:17Z</time>
      </trkpt>
      <trkpt lat="49.7581" lon="2.11978">
        <ele>151.1</ele>
        <time>2023-06-21T13:15:18Z</time>
      </trkpt>
      <trkpt lat="49.7581" lon="2.11977">
        <ele>151</ele>
        <time>2023-06-21T13:15:20Z</time>
      </trkpt>
      <trkpt lat="49.7581" lon="2.11976">
        <ele>151</ele>
        <time>2023-06-21T13:15:21Z</time>
      </trkpt>
      <trkpt lat="49.7581" lon="2.11975">
        <ele>150.9</ele>
        <time>2023-06-21T13:15:22Z</time>
      </trkpt>
      <trkpt lat="49.75809" lon="2.11974">
        <ele>150.9</ele>
        <time>2023-06-21T13:15:24Z</time>
      </trkpt>
      <trkpt lat="49.75808" lon="2.11974">
        <ele>150.8</ele>
        <time>2023-06-21T13:15:25Z</time>
      </trkpt>
      <trkpt lat="49.75807" lon="2.11975">
        <ele>150.8</ele>
        <time>2023-06-21T13:15:26Z</time>
      </trkpt>
      <trkpt lat="49.75807" lon="2.11975">
        <ele>150.7</ele>
        <time>2023-06-21T13:15:28Z</time>
      </trkpt>
      <trkpt lat="49.75806" lon="2.11975">
        <ele>150.7</ele>
        <time>2023-06-21T13:15:29Z</time>
      </trkpt>
      <trkpt lat="49.75805" lon="2.11976">
        <ele>150.6</ele>
        <time>2023-06-21T13:15:30Z</time>
      </trkpt>
      <trkpt lat="49.75804" lon="2.11976">
        <ele>150.6</ele>
        <time>2023-06-21T13:15:31Z</time>
      </trkpt>
      <trkpt lat="49.75803" lon="2.11977">
        <ele>150.5</ele>
        <time>2023-06-21T13:15:32Z</time>
      </trkpt>
      <trkpt lat="49.75802" lon="2.1198">
        <ele>150.4</ele>
        <time>2023-06-21T13:15:33Z</time>
      </trkpt>
      <trkpt lat="49.75802" lon="2.11985">
        <ele>150.2</ele>
        <time>2023-06-21T13:15:35Z</time>
      </trkpt>
      <trkpt lat="49.75802" lon="2.11986">
        <ele>150.2</ele>
        <time>2023-06-21T13:15:36Z</time>
      </trkpt>
      <trkpt lat="49.75802" lon="2.11988">
        <ele>150.1</ele>
        <time>2023-06-21T13:15:37Z</time>
      </trkpt>
      <trkpt lat="49.75803" lon="2.1199">
        <ele>150.1</ele>
        <time>2023-06-21T13:15:39Z</time>
      </trkpt>
      <trkpt lat="49.75803" lon="2.1199">
        <ele>150.1</ele>
        <time>2023-06-21T13:15:40Z</time>
      </trkpt>
      <trkpt lat="49.75803" lon="2.1199">
        <ele>150.1</ele>
        <time>2023-06-21T13:15:41Z</time>
      </trkpt>
      <trkpt lat="49.75803" lon="2.1199">
        <ele>150</ele>
        <time>2023-06-21T13:15:43Z</time>
      </trkpt>
      <trkpt lat="49.75803" lon="2.11991">
        <ele>150</ele>
        <time>2023-06-21T13:15:44Z</time>
      </trkpt>
      <trkpt lat="49.75803" lon="2.11992">
        <ele>150</ele>
        <time>2023-06-21T13:15:46Z</time>
      </trkpt>
      <trkpt lat="49.75803" lon="2.11992">
        <ele>150</ele>
        <time>2023-06-21T13:15:47Z</time>
      </trkpt>
      <trkpt lat="49.75802" lon="2.11993">
        <ele>149.9</ele>
        <time>2023-06-21T13:15:49Z</time>
      </trkpt>
      <trkpt lat="49.75802" lon="2.11993">
        <ele>149.9</ele>
        <time>2023-06-21T13:15:50Z</time>
      </trkpt>
      <trkpt lat="49.75801" lon="2.11993">
        <ele>149.9</ele>
        <time>2023-06-21T13:15:51Z</time>
      </trkpt>
      <trkpt lat="49.75798" lon="2.11991">
        <ele>149.7</ele>
        <time>2023-06-21T13:15:52Z</time>
      </trkpt>
      <trkpt lat="49.75797" lon="2.1199">
        <ele>149.7</ele>
        <time>2023-06-21T13:15:54Z</time>
      </trkpt>
      <trkpt lat="49.75796" lon="2.11989">
        <ele>149.6</ele>
        <time>2023-06-21T13:15:55Z</time>
      </trkpt>
      <trkpt lat="49.75795" lon="2.11988">
        <ele>149.5</ele>
        <time>2023-06-21T13:15:56Z</time>
      </trkpt>
      <trkpt lat="49.75792" lon="2.11985">
        <ele>149.3</ele>
        <time>2023-06-21T13:15:58Z</time>
      </trkpt>
      <trkpt lat="49.7579" lon="2.11984">
        <ele>149.2</ele>
        <time>2023-06-21T13:16:00Z</time>
      </trkpt>
      <trkpt lat="49.75789" lon="2.11984">
        <ele>149.2</ele>
        <time>2023-06-21T13:16:01Z</time>
      </trkpt>
      <trkpt lat="49.75788" lon="2.11984">
        <ele>149.1</ele>
        <time>2023-06-21T13:16:02Z</time>
      </trkpt>
      <trkpt lat="49.75787" lon="2.11984">
        <ele>149.1</ele>
        <time>2023-06-21T13:16:03Z</time>
      </trkpt>
      <trkpt lat="49.75786" lon="2.11984">
        <ele>149</ele>
        <time>2023-06-21T13:16:04Z</time>
      </trkpt>
      <trkpt lat="49.75785" lon="2.11983">
        <ele>149</ele>
        <time>2023-06-21T13:16:05Z</time>
      </trkpt>
      <trkpt lat="49.75784" lon="2.11982">
        <ele>148.9</ele>
        <time>2023-06-21T13:16:07Z</time>
      </trkpt>
      <trkpt lat="49.75783" lon="2.11982">
        <ele>148.9</ele>
        <time>2023-06-21T13:16:08Z</time>
      </trkpt>
      <trkpt lat="49.75781" lon="2.11982">
        <ele>148.8</ele>
        <time>2023-06-21T13:16:09Z</time>
      </trkpt>
      <trkpt lat="49.7578" lon="2.11981">
        <ele>148.7</ele>
        <time>2023-06-21T13:16:10Z</time>
      </trkpt>
      <trkpt lat="49.75778" lon="2.1198">
        <ele>148.6</ele>
        <time>2023-06-21T13:16:11Z</time>
      </trkpt>
      <trkpt lat="49.75777" lon="2.1198">
        <ele>148.6</ele>
        <time>2023-06-21T13:16:12Z</time>
      </trkpt>
      <trkpt lat="49.75777" lon="2.1198">
        <ele>148.6</ele>
        <time>2023-06-21T13:16:13Z</time>
      </trkpt>
      <trkpt lat="49.75776" lon="2.1198">
        <ele>148.5</ele>
        <time>2023-06-21T13:16:14Z</time>
      </trkpt>
      <trkpt lat="49.75774" lon="2.11982">
        <ele>148.4</ele>
        <time>2023-06-21T13:16:16Z</time>
      </trkpt>
      <trkpt lat="49.75774" lon="2.11982">
        <ele>148.4</ele>
        <time>2023-06-21T13:16:17Z</time>
      </trkpt>
      <trkpt lat="49.75773" lon="2.11982">
        <ele>148.4</ele>
        <time>2023-06-21T13:16:18Z</time>
      </trkpt>
      <trkpt lat="49.75772" lon="2.11982">
        <ele>148.3</ele>
        <time>2023-06-21T13:16:19Z</time>
      </trkpt>
      <trkpt lat="49.75771" lon="2.11981">
        <ele>148.3</ele>
        <time>2023-06-21T13:16:21Z</time>
      </trkpt>
      <trkpt lat="49.7577" lon="2.11981">
        <ele>148.2</ele>
        <time>2023-06-21T13:16:22Z</time>
      </trkpt>
      <trkpt lat="49.75769" lon="2.1198">
        <ele>148.2</ele>
        <time>2023-06-21T13:16:23Z</time>
      </trkpt>
      <trkpt lat="49.75768" lon="2.1198">
        <ele>148.1</ele>
        <time>2023-06-21T13:16:24Z</time>
      </trkpt>
      <trkpt lat="49.75767" lon="2.1198">
        <ele>148.1</ele>
        <time>2023-06-21T13:16:25Z</time>
      </trkpt>
      <trkpt lat="49.75766" lon="2.11979">
        <ele>148.1</ele>
        <time>2023-06-21T13:16:26Z</time>
      </trkpt>
      <trkpt lat="49.75766" lon="2.1198">
        <ele>148</ele>
        <time>2023-06-21T13:16:27Z</time>
      </trkpt>
      <trkpt lat="49.75765" lon="2.11979">
        <ele>148</ele>
        <time>2023-06-21T13:16:28Z</time>
      </trkpt>
      <trkpt lat="49.75762" lon="2.11979">
        <ele>147.9</ele>
        <time>2023-06-21T13:16:29Z</time>
      </trkpt>
      <trkpt lat="49.75761" lon="2.1198">
        <ele>147.8</ele>
        <time>2023-06-21T13:16:31Z</time>
      </trkpt>
      <trkpt lat="49.7576" lon="2.1198">
        <ele>147.8</ele>
        <time>2023-06-21T13:16:32Z</time>
      </trkpt>
      <trkpt lat="49.75759" lon="2.1198">
        <ele>147.7</ele>
        <time>2023-06-21T13:16:33Z</time>
      </trkpt>
      <trkpt lat="49.75758" lon="2.1198">
        <ele>147.7</ele>
        <time>2023-06-21T13:16:34Z</time>
      </trkpt>
      <trkpt lat="49.75757" lon="2.1198">
        <ele>147.6</ele>
        <time>2023-06-21T13:16:35Z</time>
      </trkpt>
      <trkpt lat="49.75755" lon="2.1198">
        <ele>147.5</ele>
        <time>2023-06-21T13:16:36Z</time>
      </trkpt>
      <trkpt lat="49.75754" lon="2.1198">
        <ele>147.5</ele>
        <time>2023-06-21T13:16:37Z</time>
      </trkpt>
      <trkpt lat="49.75752" lon="2.11979">
        <ele>147.4</ele>
        <time>2023-06-21T13:16:38Z</time>
      </trkpt>
      <trkpt lat="49.75751" lon="2.11979">
        <ele>147.4</ele>
        <time>2023-06-21T13:16:39Z</time>
      </trkpt>
      <trkpt lat="49.75749" lon="2.11979">
        <ele>147.3</ele>
        <time>2023-06-21T13:16:41Z</time>
      </trkpt>
      <trkpt lat="49.75748" lon="2.11979">
        <ele>147.2</ele>
        <time>2023-06-21T13:16:42Z</time>
      </trkpt>
      <trkpt lat="49.75746" lon="2.11979">
        <ele>147.2</ele>
        <time>2023-06-21T13:16:43Z</time>
      </trkpt>
      <trkpt lat="49.75744" lon="2.11979">
        <ele>147.1</ele>
        <time>2023-06-21T13:16:45Z</time>
      </trkpt>
      <trkpt lat="49.75743" lon="2.11978">
        <ele>147</ele>
        <time>2023-06-21T13:16:46Z</time>
      </trkpt>
      <trkpt lat="49.75742" lon="2.11979">
        <ele>147</ele>
        <time>2023-06-21T13:16:47Z</time>
      </trkpt>
      <trkpt lat="49.7574" lon="2.11979">
        <ele>147</ele>
        <time>2023-06-21T13:16:48Z</time>
      </trkpt>
      <trkpt lat="49.75737" lon="2.11979">
        <ele>146.9</ele>
        <time>2023-06-21T13:16:50Z</time>
      </trkpt>
      <trkpt lat="49.75736" lon="2.11979">
        <ele>146.8</ele>
        <time>2023-06-21T13:16:51Z</time>
      </trkpt>
      <trkpt lat="49.75734" lon="2.11979">
        <ele>146.8</ele>
        <time>2023-06-21T13:16:53Z</time>
      </trkpt>
      <trkpt lat="49.75733" lon="2.11979">
        <ele>146.7</ele>
        <time>2023-06-21T13:16:54Z</time>
      </trkpt>
      <trkpt lat="49.75732" lon="2.11979">
        <ele>146.7</ele>
        <time>2023-06-21T13:16:55Z</time>
      </trkpt>
      <trkpt lat="49.75731" lon="2.11979">
        <ele>146.7</ele>
        <time>2023-06-21T13:16:57Z</time>
      </trkpt>
      <trkpt lat="49.75731" lon="2.11979">
        <ele>146.7</ele>
        <time>2023-06-21T13:16:58Z</time>
      </trkpt>
      <trkpt lat="49.75731" lon="2.11979">
        <ele>146.7</ele>
        <time>2023-06-21T13:17:00Z</time>
      </trkpt>
      <trkpt lat="49.75731" lon="2.11979">
        <ele>146.7</ele>
        <time>2023-06-21T13:17:01Z</time>
      </trkpt>
      <trkpt lat="49.75731" lon="2.11979">
        <ele>146.7</ele>
        <time>2023-06-21T13:17:02Z</time>
      </trkpt>
      <trkpt lat="49.75731" lon="2.11979">
        <ele>146.6</ele>
        <time>2023-06-21T13:17:04Z</time>
      </trkpt>
      <trkpt lat="49.75731" lon="2.1198">
        <ele>146.6</ele>
        <time>2023-06-21T13:17:05Z</time>
      </trkpt>
      <trkpt lat="49.75731" lon="2.1198">
        <ele>146.6</ele>
        <time>2023-06-21T13:17:06Z</time>
      </trkpt>
      <trkpt lat="49.75732" lon="2.1198">
        <ele>146.6</ele>
        <time>2023-06-21T13:17:08Z</time>
      </trkpt>
      <trkpt lat="49.75732" lon="2.1198">
        <ele>146.6</ele>
        <time>2023-06-21T13:17:10Z</time>
      </trkpt>
      <trkpt lat="49.75732" lon="2.1198">
        <ele>146.6</ele>
        <time>2023-06-21T13:17:11Z</time>
      </trkpt>
      <trkpt lat="49.75734" lon="2.11981">
        <ele>146.6</ele>
        <time>2023-06-21T13:17:13Z</time>
      </trkpt>
      <trkpt lat="49.75735" lon="2.11982">
        <ele>146.6</ele>
        <time>2023-06-21T13:17:14Z</time>
      </trkpt>
      <trkpt lat="49.75735" lon="2.11982">
        <ele>146.5</ele>
        <time>2023-06-21T13:17:15Z</time>
      </trkpt>
      <trkpt lat="49.75736" lon="2.11983">
        <ele>146.5</ele>
        <time>2023-06-21T13:17:16Z</time>
      </trkpt>
      <trkpt lat="49.75736" lon="2.11983">
        <ele>146.5</ele>
        <time>2023-06-21T13:17:17Z</time>
      </trkpt>
      <trkpt lat="49.75736" lon="2.11983">
        <ele>146.5</ele>
        <time>2023-06-21T13:17:19Z</time>
      </trkpt>
      <trkpt lat="49.75736" lon="2.11983">
        <ele>146.5</ele>
        <time>2023-06-21T13:17:20Z</time>
      </trkpt>
      <trkpt lat="49.75736" lon="2.11983">
        <ele>146.5</ele>
        <time>2023-06-21T13:17:21Z</time>
      </trkpt>
      <trkpt lat="49.75736" lon="2.11983">
        <ele>146.5</ele>
        <time>2023-06-21T13:17:22Z</time>
      </trkpt>
      <trkpt lat="49.75736" lon="2.11983">
        <ele>146.5</ele>
        <time>2023-06-21T13:17:23Z</time>
      </trkpt>
      <trkpt lat="49.75736" lon="2.11983">
        <ele>146.5</ele>
        <time>2023-06-21T13:17:24Z</time>
      </trkpt>
      <trkpt lat="49.75735" lon="2.11983">
        <ele>146.5</ele>
        <time>2023-06-21T13:17:25Z</time>
      </trkpt>
      <trkpt lat="49.75735" lon="2.11984">
        <ele>146.5</ele>
        <time>2023-06-21T13:17:26Z</time>
      </trkpt>
      <trkpt lat="49.75734" lon="2.11984">
        <ele>146.5</ele>
        <time>2023-06-21T13:17:27Z</time>
      </trkpt>
      <trkpt lat="49.75733" lon="2.11985">
        <ele>146.4</ele>
        <time>2023-06-21T13:17:29Z</time>
      </trkpt>
      <trkpt lat="49.75731" lon="2.11985">
        <ele>146.4</ele>
        <time>2023-06-21T13:17:31Z</time>
      </trkpt>
      <trkpt lat="49.75731" lon="2.11984">
        <ele>146.4</ele>
        <time>2023-06-21T13:17:32Z</time>
      </trkpt>
      <trkpt lat="49.75731" lon="2.11983">
        <ele>146.4</ele>
        <time>2023-06-21T13:17:33Z</time>
      </trkpt>
      <trkpt lat="49.75731" lon="2.11983">
        <ele>146.4</ele>
        <time>2023-06-21T13:17:34Z</time>
      </trkpt>
      <trkpt lat="49.75731" lon="2.11984">
        <ele>146.4</ele>
        <time>2023-06-21T13:17:35Z</time>
      </trkpt>
      <trkpt lat="49.75731" lon="2.11984">
        <ele>146.4</ele>
        <time>2023-06-21T13:17:37Z</time>
      </trkpt>
      <trkpt lat="49.75732" lon="2.11984">
        <ele>146.4</ele>
        <time>2023-06-21T13:17:38Z</time>
      </trkpt>
      <trkpt lat="49.75732" lon="2.11983">
        <ele>146.4</ele>
        <time>2023-06-21T13:17:40Z</time>
      </trkpt>
      <trkpt lat="49.75732" lon="2.11983">
        <ele>146.4</ele>
        <time>2023-06-21T13:17:41Z</time>
      </trkpt>
      <trkpt lat="49.75732" lon="2.11984">
        <ele>146.4</ele>
        <time>2023-06-21T13:17:42Z</time>
      </trkpt>
      <trkpt lat="49.75732" lon="2.11984">
        <ele>146.4</ele>
        <time>2023-06-21T13:17:43Z</time>
      </trkpt>
      <trkpt lat="49.75731" lon="2.11986">
        <ele>146.4</ele>
        <time>2023-06-21T13:17:45Z</time>
      </trkpt>
      <trkpt lat="49.75731" lon="2.11987">
        <ele>146.3</ele>
        <time>2023-06-21T13:17:47Z</time>
      </trkpt>
      <trkpt lat="49.7573" lon="2.11988">
        <ele>146.3</ele>
        <time>2023-06-21T13:17:48Z</time>
      </trkpt>
      <trkpt lat="49.75729" lon="2.11988">
        <ele>146.3</ele>
        <time>2023-06-21T13:17:49Z</time>
      </trkpt>
      <trkpt lat="49.75727" lon="2.11986">
        <ele>146.3</ele>
        <time>2023-06-21T13:17:50Z</time>
      </trkpt>
      <trkpt lat="49.75726" lon="2.11986">
        <ele>146.3</ele>
        <time>2023-06-21T13:17:52Z</time>
      </trkpt>
      <trkpt lat="49.75726" lon="2.11985">
        <ele>146.3</ele>
        <time>2023-06-21T13:17:53Z</time>
      </trkpt>
      <trkpt lat="49.75725" lon="2.11986">
        <ele>146.2</ele>
        <time>2023-06-21T13:17:54Z</time>
      </trkpt>
      <trkpt lat="49.75724" lon="2.11986">
        <ele>146.2</ele>
        <time>2023-06-21T13:17:55Z</time>
      </trkpt>
      <trkpt lat="49.75723" lon="2.11986">
        <ele>146.2</ele>
        <time>2023-06-21T13:17:56Z</time>
      </trkpt>
      <trkpt lat="49.75722" lon="2.11987">
        <ele>146.2</ele>
        <time>2023-06-21T13:17:57Z</time>
      </trkpt>
      <trkpt lat="49.75722" lon="2.11987">
        <ele>146.2</ele>
        <time>2023-06-21T13:17:58Z</time>
      </trkpt>
      <trkpt lat="49.7572" lon="2.11988">
        <ele>146.2</ele>
        <time>2023-06-21T13:17:59Z</time>
      </trkpt>
      <trkpt lat="49.75719" lon="2.11988">
        <ele>146.2</ele>
        <time>2023-06-21T13:18:01Z</time>
      </trkpt>
      <trkpt lat="49.75719" lon="2.11988">
        <ele>146.2</ele>
        <time>2023-06-21T13:18:02Z</time>
      </trkpt>
      <trkpt lat="49.75718" lon="2.11988">
        <ele>146.2</ele>
        <time>2023-06-21T13:18:03Z</time>
      </trkpt>
      <trkpt lat="49.75717" lon="2.11988">
        <ele>146.1</ele>
        <time>2023-06-21T13:18:04Z</time>
      </trkpt>
      <trkpt lat="49.75715" lon="2.11988">
        <ele>146.1</ele>
        <time>2023-06-21T13:18:05Z</time>
      </trkpt>
      <trkpt lat="49.75714" lon="2.11988">
        <ele>146.1</ele>
        <time>2023-06-21T13:18:07Z</time>
      </trkpt>
      <trkpt lat="49.75712" lon="2.11989">
        <ele>146.1</ele>
        <time>2023-06-21T13:18:08Z</time>
      </trkpt>
      <trkpt lat="49.75709" lon="2.11989">
        <ele>146.1</ele>
        <time>2023-06-21T13:18:10Z</time>
      </trkpt>
      <trkpt lat="49.75707" lon="2.1199">
        <ele>146</ele>
        <time>2023-06-21T13:18:11Z</time>
      </trkpt>
      <trkpt lat="49.75704" lon="2.11991">
        <ele>146</ele>
        <time>2023-06-21T13:18:12Z</time>
      </trkpt>
      <trkpt lat="49.75703" lon="2.11991">
        <ele>146</ele>
        <time>2023-06-21T13:18:13Z</time>
      </trkpt>
      <trkpt lat="49.75701" lon="2.11992">
        <ele>146</ele>
        <time>2023-06-21T13:18:14Z</time>
      </trkpt>
      <trkpt lat="49.757" lon="2.11993">
        <ele>146</ele>
        <time>2023-06-21T13:18:16Z</time>
      </trkpt>
      <trkpt lat="49.75699" lon="2.11994">
        <ele>146</ele>
        <time>2023-06-21T13:18:17Z</time>
      </trkpt>
      <trkpt lat="49.75699" lon="2.11994">
        <ele>146</ele>
        <time>2023-06-21T13:18:18Z</time>
      </trkpt>
      <trkpt lat="49.75699" lon="2.11994">
        <ele>146</ele>
        <time>2023-06-21T13:18:19Z</time>
      </trkpt>
      <trkpt lat="49.75699" lon="2.11993">
        <ele>146</ele>
        <time>2023-06-21T13:18:20Z</time>
      </trkpt>
      <trkpt lat="49.75699" lon="2.11993">
        <ele>146</ele>
        <time>2023-06-21T13:18:21Z</time>
      </trkpt>
      <trkpt lat="49.75698" lon="2.11994">
        <ele>146</ele>
        <time>2023-06-21T13:18:22Z</time>
      </trkpt>
      <trkpt lat="49.75698" lon="2.11994">
        <ele>146</ele>
        <time>2023-06-21T13:18:23Z</time>
      </trkpt>
      <trkpt lat="49.75697" lon="2.11994">
        <ele>146</ele>
        <time>2023-06-21T13:18:25Z</time>
      </trkpt>
      <trkpt lat="49.75696" lon="2.11994">
        <ele>146</ele>
        <time>2023-06-21T13:18:26Z</time>
      </trkpt>
      <trkpt lat="49.75694" lon="2.11995">
        <ele>145.9</ele>
        <time>2023-06-21T13:18:27Z</time>
      </trkpt>
      <trkpt lat="49.75693" lon="2.11995">
        <ele>145.9</ele>
        <time>2023-06-21T13:18:29Z</time>
      </trkpt>
      <trkpt lat="49.75692" lon="2.11995">
        <ele>145.9</ele>
        <time>2023-06-21T13:18:30Z</time>
      </trkpt>
      <trkpt lat="49.75691" lon="2.11995">
        <ele>145.9</ele>
        <time>2023-06-21T13:18:31Z</time>
      </trkpt>
      <trkpt lat="49.7569" lon="2.11995">
        <ele>145.9</ele>
        <time>2023-06-21T13:18:32Z</time>
      </trkpt>
      <trkpt lat="49.7569" lon="2.11995">
        <ele>145.9</ele>
        <time>2023-06-21T13:18:33Z</time>
      </trkpt>
      <trkpt lat="49.75689" lon="2.11995">
        <ele>145.9</ele>
        <time>2023-06-21T13:18:34Z</time>
      </trkpt>
      <trkpt lat="49.75688" lon="2.11995">
        <ele>145.9</ele>
        <time>2023-06-21T13:18:35Z</time>
      </trkpt>
      <trkpt lat="49.75686" lon="2.11996">
        <ele>145.9</ele>
        <time>2023-06-21T13:18:36Z</time>
      </trkpt>
      <trkpt lat="49.75684" lon="2.11996">
        <ele>145.9</ele>
        <time>2023-06-21T13:18:38Z</time>
      </trkpt>
      <trkpt lat="49.75684" lon="2.11996">
        <ele>145.9</ele>
        <time>2023-06-21T13:18:39Z</time>
      </trkpt>
      <trkpt lat="49.75683" lon="2.11996">
        <ele>145.9</ele>
        <time>2023-06-21T13:18:40Z</time>
      </trkpt>
      <trkpt lat="49.75681" lon="2.11995">
        <ele>145.9</ele>
        <time>2023-06-21T13:18:41Z</time>
      </trkpt>
      <trkpt lat="49.75679" lon="2.11995">
        <ele>145.9</ele>
        <time>2023-06-21T13:18:42Z</time>
      </trkpt>
      <trkpt lat="49.75676" lon="2.11995">
        <ele>145.9</ele>
        <time>2023-06-21T13:18:44Z</time>
      </trkpt>
      <trkpt lat="49.75675" lon="2.11995">
        <ele>146</ele>
        <time>2023-06-21T13:18:45Z</time>
      </trkpt>
      <trkpt lat="49.75674" lon="2.11996">
        <ele>146</ele>
        <time>2023-06-21T13:18:46Z</time>
      </trkpt>
      <trkpt lat="49.75672" lon="2.11996">
        <ele>146</ele>
        <time>2023-06-21T13:18:47Z</time>
      </trkpt>
      <trkpt lat="49.75669" lon="2.11996">
        <ele>146</ele>
        <time>2023-06-21T13:18:49Z</time>
      </trkpt>
      <trkpt lat="49.75668" lon="2.11996">
        <ele>146</ele>
        <time>2023-06-21T13:18:50Z</time>
      </trkpt>
      <trkpt lat="49.75667" lon="2.11996">
        <ele>146</ele>
        <time>2023-06-21T13:18:51Z</time>
      </trkpt>
      <trkpt lat="49.75665" lon="2.11996">
        <ele>146</ele>
        <time>2023-06-21T13:18:52Z</time>
      </trkpt>
      <trkpt lat="49.75664" lon="2.11996">
        <ele>146</ele>
        <time>2023-06-21T13:18:53Z</time>
      </trkpt>
      <trkpt lat="49.75662" lon="2.11996">
        <ele>146</ele>
        <time>2023-06-21T13:18:55Z</time>
      </trkpt>
      <trkpt lat="49.75661" lon="2.11997">
        <ele>146</ele>
        <time>2023-06-21T13:18:56Z</time>
      </trkpt>
      <trkpt lat="49.7566" lon="2.11997">
        <ele>146.1</ele>
        <time>2023-06-21T13:18:57Z</time>
      </trkpt>
      <trkpt lat="49.75658" lon="2.11998">
        <ele>146.1</ele>
        <time>2023-06-21T13:18:58Z</time>
      </trkpt>
      <trkpt lat="49.75656" lon="2.11999">
        <ele>146.1</ele>
        <time>2023-06-21T13:18:59Z</time>
      </trkpt>
      <trkpt lat="49.75655" lon="2.11999">
        <ele>146.1</ele>
        <time>2023-06-21T13:19:00Z</time>
      </trkpt>
      <trkpt lat="49.75654" lon="2.12">
        <ele>146.1</ele>
        <time>2023-06-21T13:19:01Z</time>
      </trkpt>
      <trkpt lat="49.75653" lon="2.12">
        <ele>146.1</ele>
        <time>2023-06-21T13:19:02Z</time>
      </trkpt>
      <trkpt lat="49.75652" lon="2.12001">
        <ele>146.1</ele>
        <time>2023-06-21T13:19:04Z</time>
      </trkpt>
      <trkpt lat="49.75651" lon="2.12001">
        <ele>146.1</ele>
        <time>2023-06-21T13:19:05Z</time>
      </trkpt>
      <trkpt lat="49.7565" lon="2.12001">
        <ele>146</ele>
        <time>2023-06-21T13:19:06Z</time>
      </trkpt>
      <trkpt lat="49.75649" lon="2.12001">
        <ele>146</ele>
        <time>2023-06-21T13:19:07Z</time>
      </trkpt>
      <trkpt lat="49.75647" lon="2.12001">
        <ele>146</ele>
        <time>2023-06-21T13:19:08Z</time>
      </trkpt>
      <trkpt lat="49.75646" lon="2.12001">
        <ele>146</ele>
        <time>2023-06-21T13:19:09Z</time>
      </trkpt>
      <trkpt lat="49.75644" lon="2.12001">
        <ele>146</ele>
        <time>2023-06-21T13:19:11Z</time>
      </trkpt>
      <trkpt lat="49.75642" lon="2.12002">
        <ele>146</ele>
        <time>2023-06-21T13:19:12Z</time>
      </trkpt>
      <trkpt lat="49.7564" lon="2.12002">
        <ele>146</ele>
        <time>2023-06-21T13:19:14Z</time>
      </trkpt>
      <trkpt lat="49.75639" lon="2.12002">
        <ele>146</ele>
        <time>2023-06-21T13:19:15Z</time>
      </trkpt>
      <trkpt lat="49.75637" lon="2.12002">
        <ele>146</ele>
        <time>2023-06-21T13:19:16Z</time>
      </trkpt>
      <trkpt lat="49.75635" lon="2.12003">
        <ele>146.1</ele>
        <time>2023-06-21T13:19:17Z</time>
      </trkpt>
      <trkpt lat="49.75634" lon="2.12003">
        <ele>146.1</ele>
        <time>2023-06-21T13:19:18Z</time>
      </trkpt>
      <trkpt lat="49.75633" lon="2.12003">
        <ele>146.1</ele>
        <time>2023-06-21T13:19:19Z</time>
      </trkpt>
      <trkpt lat="49.75631" lon="2.12004">
        <ele>146.1</ele>
        <time>2023-06-21T13:19:21Z</time>
      </trkpt>
      <trkpt lat="49.7563" lon="2.12004">
        <ele>146.1</ele>
        <time>2023-06-21T13:19:22Z</time>
      </trkpt>
      <trkpt lat="49.75628" lon="2.12004">
        <ele>146.1</ele>
        <time>2023-06-21T13:19:24Z</time>
      </trkpt>
      <trkpt lat="49.75627" lon="2.12004">
        <ele>146.1</ele>
        <time>2023-06-21T13:19:25Z</time>
      </trkpt>
      <trkpt lat="49.75626" lon="2.12004">
        <ele>146.2</ele>
        <time>2023-06-21T13:19:26Z</time>
      </trkpt>
      <trkpt lat="49.75624" lon="2.12004">
        <ele>146.2</ele>
        <time>2023-06-21T13:19:27Z</time>
      </trkpt>
      <trkpt lat="49.75623" lon="2.12004">
        <ele>146.2</ele>
        <time>2023-06-21T13:19:28Z</time>
      </trkpt>
      <trkpt lat="49.75622" lon="2.12004">
        <ele>146.2</ele>
        <time>2023-06-21T13:19:29Z</time>
      </trkpt>
      <trkpt lat="49.7562" lon="2.12004">
        <ele>146.3</ele>
        <time>2023-06-21T13:19:31Z</time>
      </trkpt>
      <trkpt lat="49.7562" lon="2.12004">
        <ele>146.3</ele>
        <time>2023-06-21T13:19:32Z</time>
      </trkpt>
      <trkpt lat="49.75618" lon="2.12004">
        <ele>146.3</ele>
        <time>2023-06-21T13:19:33Z</time>
      </trkpt>
      <trkpt lat="49.75616" lon="2.12004">
        <ele>146.3</ele>
        <time>2023-06-21T13:19:35Z</time>
      </trkpt>
      <trkpt lat="49.75615" lon="2.12004">
        <ele>146.3</ele>
        <time>2023-06-21T13:19:36Z</time>
      </trkpt>
      <trkpt lat="49.75613" lon="2.12004">
        <ele>146.3</ele>
        <time>2023-06-21T13:19:38Z</time>
      </trkpt>
      <trkpt lat="49.75612" lon="2.12005">
        <ele>146.4</ele>
        <time>2023-06-21T13:19:39Z</time>
      </trkpt>
      <trkpt lat="49.75611" lon="2.12005">
        <ele>146.4</ele>
        <time>2023-06-21T13:19:40Z</time>
      </trkpt>
      <trkpt lat="49.7561" lon="2.12006">
        <ele>146.4</ele>
        <time>2023-06-21T13:19:41Z</time>
      </trkpt>
      <trkpt lat="49.75609" lon="2.12006">
        <ele>146.4</ele>
        <time>2023-06-21T13:19:42Z</time>
      </trkpt>
      <trkpt lat="49.75607" lon="2.12006">
        <ele>146.4</ele>
        <time>2023-06-21T13:19:43Z</time>
      </trkpt>
      <trkpt lat="49.75606" lon="2.12006">
        <ele>146.4</ele>
        <time>2023-06-21T13:19:45Z</time>
      </trkpt>
      <trkpt lat="49.75604" lon="2.12006">
        <ele>146.4</ele>
        <time>2023-06-21T13:19:46Z</time>
      </trkpt>
      <trkpt lat="49.75603" lon="2.12006">
        <ele>146.4</ele>
        <time>2023-06-21T13:19:47Z</time>
      </trkpt>
      <trkpt lat="49.75602" lon="2.12006">
        <ele>146.4</ele>
        <time>2023-06-21T13:19:48Z</time>
      </trkpt>
      <trkpt lat="49.756" lon="2.12007">
        <ele>146.4</ele>
        <time>2023-06-21T13:19:49Z</time>
      </trkpt>
      <trkpt lat="49.75599" lon="2.12007">
        <ele>146.4</ele>
        <time>2023-06-21T13:19:50Z</time>
      </trkpt>
      <trkpt lat="49.75598" lon="2.12007">
        <ele>146.4</ele>
        <time>2023-06-21T13:19:51Z</time>
      </trkpt>
      <trkpt lat="49.75596" lon="2.12008">
        <ele>146.4</ele>
        <time>2023-06-21T13:19:52Z</time>
      </trkpt>
      <trkpt lat="49.75595" lon="2.12009">
        <ele>146.4</ele>
        <time>2023-06-21T13:19:53Z</time>
      </trkpt>
      <trkpt lat="49.75594" lon="2.12009">
        <ele>146.4</ele>
        <time>2023-06-21T13:19:54Z</time>
      </trkpt>
      <trkpt lat="49.75593" lon="2.12009">
        <ele>146.4</ele>
        <time>2023-06-21T13:19:56Z</time>
      </trkpt>
      <trkpt lat="49.75592" lon="2.12009">
        <ele>146.4</ele>
        <time>2023-06-21T13:19:57Z</time>
      </trkpt>
      <trkpt lat="49.7559" lon="2.1201">
        <ele>146.4</ele>
        <time>2023-06-21T13:19:58Z</time>
      </trkpt>
      <trkpt lat="49.75589" lon="2.1201">
        <ele>146.4</ele>
        <time>2023-06-21T13:19:59Z</time>
      </trkpt>
      <trkpt lat="49.75588" lon="2.12011">
        <ele>146.4</ele>
        <time>2023-06-21T13:20:00Z</time>
      </trkpt>
      <trkpt lat="49.75586" lon="2.12012">
        <ele>146.4</ele>
        <time>2023-06-21T13:20:02Z</time>
      </trkpt>
      <trkpt lat="49.75585" lon="2.12012">
        <ele>146.4</ele>
        <time>2023-06-21T13:20:03Z</time>
      </trkpt>
      <trkpt lat="49.75584" lon="2.12013">
        <ele>146.4</ele>
        <time>2023-06-21T13:20:04Z</time>
      </trkpt>
      <trkpt lat="49.75582" lon="2.12014">
        <ele>146.4</ele>
        <time>2023-06-21T13:20:06Z</time>
      </trkpt>
      <trkpt lat="49.75582" lon="2.12015">
        <ele>146.4</ele>
        <time>2023-06-21T13:20:07Z</time>
      </trkpt>
      <trkpt lat="49.75582" lon="2.12018">
        <ele>146.4</ele>
        <time>2023-06-21T13:20:09Z</time>
      </trkpt>
      <trkpt lat="49.75583" lon="2.12019">
        <ele>146.4</ele>
        <time>2023-06-21T13:20:10Z</time>
      </trkpt>
      <trkpt lat="49.75583" lon="2.12019">
        <ele>146.4</ele>
        <time>2023-06-21T13:20:11Z</time>
      </trkpt>
      <trkpt lat="49.75583" lon="2.1202">
        <ele>146.4</ele>
        <time>2023-06-21T13:20:12Z</time>
      </trkpt>
      <trkpt lat="49.75582" lon="2.1202">
        <ele>146.4</ele>
        <time>2023-06-21T13:20:13Z</time>
      </trkpt>
      <trkpt lat="49.75581" lon="2.1202">
        <ele>146.4</ele>
        <time>2023-06-21T13:20:14Z</time>
      </trkpt>
      <trkpt lat="49.7558" lon="2.1202">
        <ele>146.4</ele>
        <time>2023-06-21T13:20:16Z</time>
      </trkpt>
      <trkpt lat="49.75579" lon="2.12021">
        <ele>146.4</ele>
        <time>2023-06-21T13:20:17Z</time>
      </trkpt>
      <trkpt lat="49.75577" lon="2.12021">
        <ele>146.4</ele>
        <time>2023-06-21T13:20:19Z</time>
      </trkpt>
      <trkpt lat="49.75576" lon="2.1202">
        <ele>146.4</ele>
        <time>2023-06-21T13:20:20Z</time>
      </trkpt>
      <trkpt lat="49.75575" lon="2.12019">
        <ele>146.4</ele>
        <time>2023-06-21T13:20:21Z</time>
      </trkpt>
      <trkpt lat="49.75574" lon="2.12019">
        <ele>146.4</ele>
        <time>2023-06-21T13:20:22Z</time>
      </trkpt>
      <trkpt lat="49.75571" lon="2.1202">
        <ele>146.3</ele>
        <time>2023-06-21T13:20:23Z</time>
      </trkpt>
      <trkpt lat="49.7557" lon="2.1202">
        <ele>146.3</ele>
        <time>2023-06-21T13:20:25Z</time>
      </trkpt>
      <trkpt lat="49.75568" lon="2.1202">
        <ele>146.3</ele>
        <time>2023-06-21T13:20:26Z</time>
      </trkpt>
      <trkpt lat="49.75567" lon="2.1202">
        <ele>146.3</ele>
        <time>2023-06-21T13:20:27Z</time>
      </trkpt>
      <trkpt lat="49.75566" lon="2.12021">
        <ele>146.3</ele>
        <time>2023-06-21T13:20:28Z</time>
      </trkpt>
      <trkpt lat="49.75565" lon="2.12021">
        <ele>146.3</ele>
        <time>2023-06-21T13:20:29Z</time>
      </trkpt>
      <trkpt lat="49.75562" lon="2.12023">
        <ele>146.3</ele>
        <time>2023-06-21T13:20:31Z</time>
      </trkpt>
      <trkpt lat="49.75561" lon="2.12023">
        <ele>146.3</ele>
        <time>2023-06-21T13:20:32Z</time>
      </trkpt>
      <trkpt lat="49.75559" lon="2.12024">
        <ele>146.3</ele>
        <time>2023-06-21T13:20:33Z</time>
      </trkpt>
      <trkpt lat="49.75557" lon="2.12025">
        <ele>146.3</ele>
        <time>2023-06-21T13:20:35Z</time>
      </trkpt>
      <trkpt lat="49.75556" lon="2.12026">
        <ele>146.3</ele>
        <time>2023-06-21T13:20:36Z</time>
      </trkpt>
      <trkpt lat="49.75555" lon="2.12028">
        <ele>146.3</ele>
        <time>2023-06-21T13:20:38Z</time>
      </trkpt>
      <trkpt lat="49.75554" lon="2.12028">
        <ele>146.3</ele>
        <time>2023-06-21T13:20:39Z</time>
      </trkpt>
      <trkpt lat="49.75553" lon="2.12028">
        <ele>146.3</ele>
        <time>2023-06-21T13:20:40Z</time>
      </trkpt>
      <trkpt lat="49.75553" lon="2.12029">
        <ele>146.3</ele>
        <time>2023-06-21T13:20:41Z</time>
      </trkpt>
      <trkpt lat="49.75552" lon="2.1203">
        <ele>146.3</ele>
        <time>2023-06-21T13:20:42Z</time>
      </trkpt>
      <trkpt lat="49.7555" lon="2.12031">
        <ele>146.2</ele>
        <time>2023-06-21T13:20:43Z</time>
      </trkpt>
      <trkpt lat="49.7555" lon="2.12031">
        <ele>146.2</ele>
        <time>2023-06-21T13:20:45Z</time>
      </trkpt>
      <trkpt lat="49.75549" lon="2.12032">
        <ele>146.2</ele>
        <time>2023-06-21T13:20:46Z</time>
      </trkpt>
      <trkpt lat="49.75549" lon="2.12032">
        <ele>146.2</ele>
        <time>2023-06-21T13:20:47Z</time>
      </trkpt>
      <trkpt lat="49.75547" lon="2.12033">
        <ele>146.2</ele>
        <time>2023-06-21T13:20:48Z</time>
      </trkpt>
      <trkpt lat="49.75547" lon="2.12033">
        <ele>146.1</ele>
        <time>2023-06-21T13:20:49Z</time>
      </trkpt>
      <trkpt lat="49.75546" lon="2.12033">
        <ele>146.1</ele>
        <time>2023-06-21T13:20:50Z</time>
      </trkpt>
      <trkpt lat="49.75545" lon="2.12034">
        <ele>146.1</ele>
        <time>2023-06-21T13:20:51Z</time>
      </trkpt>
      <trkpt lat="49.75543" lon="2.12034">
        <ele>146</ele>
        <time>2023-06-21T13:20:53Z</time>
      </trkpt>
      <trkpt lat="49.75542" lon="2.12035">
        <ele>145.9</ele>
        <time>2023-06-21T13:20:54Z</time>
      </trkpt>
      <trkpt lat="49.7554" lon="2.12036">
        <ele>145.8</ele>
        <time>2023-06-21T13:20:55Z</time>
      </trkpt>
      <trkpt lat="49.75538" lon="2.12037">
        <ele>145.8</ele>
        <time>2023-06-21T13:20:57Z</time>
      </trkpt>
      <trkpt lat="49.75537" lon="2.12038">
        <ele>145.7</ele>
        <time>2023-06-21T13:20:58Z</time>
      </trkpt>
      <trkpt lat="49.75535" lon="2.12039">
        <ele>145.6</ele>
        <time>2023-06-21T13:21:00Z</time>
      </trkpt>
      <trkpt lat="49.75534" lon="2.1204">
        <ele>145.5</ele>
        <time>2023-06-21T13:21:01Z</time>
      </trkpt>
      <trkpt lat="49.75533" lon="2.12041">
        <ele>145.5</ele>
        <time>2023-06-21T13:21:02Z</time>
      </trkpt>
      <trkpt lat="49.75532" lon="2.12041">
        <ele>145.4</ele>
        <time>2023-06-21T13:21:03Z</time>
      </trkpt>
      <trkpt lat="49.75531" lon="2.12042">
        <ele>145.3</ele>
        <time>2023-06-21T13:21:04Z</time>
      </trkpt>
      <trkpt lat="49.7553" lon="2.12043">
        <ele>145.2</ele>
        <time>2023-06-21T13:21:05Z</time>
      </trkpt>
      <trkpt lat="49.75529" lon="2.12044">
        <ele>145.1</ele>
        <time>2023-06-21T13:21:06Z</time>
      </trkpt>
      <trkpt lat="49.75527" lon="2.12046">
        <ele>145</ele>
        <time>2023-06-21T13:21:07Z</time>
      </trkpt>
      <trkpt lat="49.75526" lon="2.12046">
        <ele>144.9</ele>
        <time>2023-06-21T13:21:09Z</time>
      </trkpt>
      <trkpt lat="49.75525" lon="2.12047">
        <ele>144.8</ele>
        <time>2023-06-21T13:21:10Z</time>
      </trkpt>
      <trkpt lat="49.75524" lon="2.12047">
        <ele>144.7</ele>
        <time>2023-06-21T13:21:11Z</time>
      </trkpt>
      <trkpt lat="49.75523" lon="2.12048">
        <ele>144.6</ele>
        <time>2023-06-21T13:21:12Z</time>
      </trkpt>
      <trkpt lat="49.75521" lon="2.12049">
        <ele>144.5</ele>
        <time>2023-06-21T13:21:14Z</time>
      </trkpt>
      <trkpt lat="49.75519" lon="2.12049">
        <ele>144.3</ele>
        <time>2023-06-21T13:21:15Z</time>
      </trkpt>
      <trkpt lat="49.75518" lon="2.1205">
        <ele>144.2</ele>
        <time>2023-06-21T13:21:16Z</time>
      </trkpt>
      <trkpt lat="49.75517" lon="2.1205">
        <ele>144.1</ele>
        <time>2023-06-21T13:21:17Z</time>
      </trkpt>
      <trkpt lat="49.75516" lon="2.12051">
        <ele>144</ele>
        <time>2023-06-21T13:21:19Z</time>
      </trkpt>
      <trkpt lat="49.75515" lon="2.12052">
        <ele>143.9</ele>
        <time>2023-06-21T13:21:20Z</time>
      </trkpt>
      <trkpt lat="49.75513" lon="2.12053">
        <ele>143.8</ele>
        <time>2023-06-21T13:21:21Z</time>
      </trkpt>
      <trkpt lat="49.75511" lon="2.12055">
        <ele>143.6</ele>
        <time>2023-06-21T13:21:23Z</time>
      </trkpt>
      <trkpt lat="49.7551" lon="2.12055">
        <ele>143.5</ele>
        <time>2023-06-21T13:21:24Z</time>
      </trkpt>
      <trkpt lat="49.75509" lon="2.12056">
        <ele>143.4</ele>
        <time>2023-06-21T13:21:25Z</time>
      </trkpt>
      <trkpt lat="49.75508" lon="2.12056">
        <ele>143.3</ele>
        <time>2023-06-21T13:21:26Z</time>
      </trkpt>
      <trkpt lat="49.75508" lon="2.12056">
        <ele>143.3</ele>
        <time>2023-06-21T13:21:27Z</time>
      </trkpt>
      <trkpt lat="49.75507" lon="2.12056">
        <ele>143.2</ele>
        <time>2023-06-21T13:21:28Z</time>
      </trkpt>
      <trkpt lat="49.75505" lon="2.12057">
        <ele>143.1</ele>
        <time>2023-06-21T13:21:29Z</time>
      </trkpt>
      <trkpt lat="49.75505" lon="2.12057">
        <ele>143</ele>
        <time>2023-06-21T13:21:31Z</time>
      </trkpt>
      <trkpt lat="49.75504" lon="2.12057">
        <ele>142.9</ele>
        <time>2023-06-21T13:21:32Z</time>
      </trkpt>
      <trkpt lat="49.75502" lon="2.12058">
        <ele>142.7</ele>
        <time>2023-06-21T13:21:33Z</time>
      </trkpt>
      <trkpt lat="49.75501" lon="2.12058">
        <ele>142.6</ele>
        <time>2023-06-21T13:21:34Z</time>
      </trkpt>
      <trkpt lat="49.75499" lon="2.12059">
        <ele>142.5</ele>
        <time>2023-06-21T13:21:35Z</time>
      </trkpt>
      <trkpt lat="49.75498" lon="2.1206">
        <ele>142.4</ele>
        <time>2023-06-21T13:21:36Z</time>
      </trkpt>
      <trkpt lat="49.75496" lon="2.12061">
        <ele>142.2</ele>
        <time>2023-06-21T13:21:37Z</time>
      </trkpt>
      <trkpt lat="49.75493" lon="2.12062">
        <ele>141.9</ele>
        <time>2023-06-21T13:21:39Z</time>
      </trkpt>
      <trkpt lat="49.75492" lon="2.12063">
        <ele>141.8</ele>
        <time>2023-06-21T13:21:40Z</time>
      </trkpt>
      <trkpt lat="49.75491" lon="2.12064">
        <ele>141.6</ele>
        <time>2023-06-21T13:21:41Z</time>
      </trkpt>
      <trkpt lat="49.75489" lon="2.12065">
        <ele>141.5</ele>
        <time>2023-06-21T13:21:42Z</time>
      </trkpt>
      <trkpt lat="49.75487" lon="2.12066">
        <ele>141.3</ele>
        <time>2023-06-21T13:21:43Z</time>
      </trkpt>
      <trkpt lat="49.75486" lon="2.12068">
        <ele>141.1</ele>
        <time>2023-06-21T13:21:44Z</time>
      </trkpt>
      <trkpt lat="49.75485" lon="2.12069">
        <ele>141</ele>
        <time>2023-06-21T13:21:46Z</time>
      </trkpt>
      <trkpt lat="49.75483" lon="2.12069">
        <ele>140.8</ele>
        <time>2023-06-21T13:21:47Z</time>
      </trkpt>
      <trkpt lat="49.75482" lon="2.1207">
        <ele>140.7</ele>
        <time>2023-06-21T13:21:48Z</time>
      </trkpt>
      <trkpt lat="49.75481" lon="2.12071">
        <ele>140.5</ele>
        <time>2023-06-21T13:21:49Z</time>
      </trkpt>
      <trkpt lat="49.75479" lon="2.12072">
        <ele>140.4</ele>
        <time>2023-06-21T13:21:50Z</time>
      </trkpt>
      <trkpt lat="49.75478" lon="2.12072">
        <ele>140.3</ele>
        <time>2023-06-21T13:21:51Z</time>
      </trkpt>
      <trkpt lat="49.75477" lon="2.12073">
        <ele>140.2</ele>
        <time>2023-06-21T13:21:52Z</time>
      </trkpt>
      <trkpt lat="49.75476" lon="2.12074">
        <ele>140</ele>
        <time>2023-06-21T13:21:54Z</time>
      </trkpt>
      <trkpt lat="49.75474" lon="2.12075">
        <ele>139.8</ele>
        <time>2023-06-21T13:21:55Z</time>
      </trkpt>
      <trkpt lat="49.75473" lon="2.12075">
        <ele>139.7</ele>
        <time>2023-06-21T13:21:56Z</time>
      </trkpt>
      <trkpt lat="49.75472" lon="2.12076">
        <ele>139.6</ele>
        <time>2023-06-21T13:21:57Z</time>
      </trkpt>
      <trkpt lat="49.75471" lon="2.12076">
        <ele>139.5</ele>
        <time>2023-06-21T13:21:59Z</time>
      </trkpt>
      <trkpt lat="49.7547" lon="2.12077">
        <ele>139.4</ele>
        <time>2023-06-21T13:22:00Z</time>
      </trkpt>
      <trkpt lat="49.75469" lon="2.12078">
        <ele>139.2</ele>
        <time>2023-06-21T13:22:01Z</time>
      </trkpt>
      <trkpt lat="49.75468" lon="2.12079">
        <ele>139.1</ele>
        <time>2023-06-21T13:22:02Z</time>
      </trkpt>
      <trkpt lat="49.75467" lon="2.1208">
        <ele>139</ele>
        <time>2023-06-21T13:22:03Z</time>
      </trkpt>
      <trkpt lat="49.75466" lon="2.12081">
        <ele>138.9</ele>
        <time>2023-06-21T13:22:04Z</time>
      </trkpt>
      <trkpt lat="49.75465" lon="2.12081">
        <ele>138.8</ele>
        <time>2023-06-21T13:22:06Z</time>
      </trkpt>
      <trkpt lat="49.75466" lon="2.12081">
        <ele>138.8</ele>
        <time>2023-06-21T13:22:07Z</time>
      </trkpt>
      <trkpt lat="49.75465" lon="2.12082">
        <ele>138.7</ele>
        <time>2023-06-21T13:22:08Z</time>
      </trkpt>
      <trkpt lat="49.75464" lon="2.12082">
        <ele>138.6</ele>
        <time>2023-06-21T13:22:09Z</time>
      </trkpt>
      <trkpt lat="49.75464" lon="2.12083">
        <ele>138.6</ele>
        <time>2023-06-21T13:22:10Z</time>
      </trkpt>
      <trkpt lat="49.75463" lon="2.12084">
        <ele>138.5</ele>
        <time>2023-06-21T13:22:11Z</time>
      </trkpt>
      <trkpt lat="49.75462" lon="2.12084">
        <ele>138.4</ele>
        <time>2023-06-21T13:22:12Z</time>
      </trkpt>
      <trkpt lat="49.75462" lon="2.12085">
        <ele>138.3</ele>
        <time>2023-06-21T13:22:13Z</time>
      </trkpt>
      <trkpt lat="49.75461" lon="2.12086">
        <ele>138.2</ele>
        <time>2023-06-21T13:22:14Z</time>
      </trkpt>
      <trkpt lat="49.7546" lon="2.12087">
        <ele>138.1</ele>
        <time>2023-06-21T13:22:15Z</time>
      </trkpt>
      <trkpt lat="49.75459" lon="2.12088">
        <ele>138</ele>
        <time>2023-06-21T13:22:17Z</time>
      </trkpt>
      <trkpt lat="49.75458" lon="2.12089">
        <ele>137.8</ele>
        <time>2023-06-21T13:22:18Z</time>
      </trkpt>
      <trkpt lat="49.75457" lon="2.12091">
        <ele>137.7</ele>
        <time>2023-06-21T13:22:20Z</time>
      </trkpt>
      <trkpt lat="49.75456" lon="2.12091">
        <ele>137.6</ele>
        <time>2023-06-21T13:22:21Z</time>
      </trkpt>
      <trkpt lat="49.75455" lon="2.12092">
        <ele>137.5</ele>
        <time>2023-06-21T13:22:22Z</time>
      </trkpt>
      <trkpt lat="49.75454" lon="2.12093">
        <ele>137.4</ele>
        <time>2023-06-21T13:22:23Z</time>
      </trkpt>
      <trkpt lat="49.75453" lon="2.12093">
        <ele>137.2</ele>
        <time>2023-06-21T13:22:24Z</time>
      </trkpt>
      <trkpt lat="49.75452" lon="2.12094">
        <ele>137.1</ele>
        <time>2023-06-21T13:22:25Z</time>
      </trkpt>
      <trkpt lat="49.7545" lon="2.12095">
        <ele>136.9</ele>
        <time>2023-06-21T13:22:26Z</time>
      </trkpt>
      <trkpt lat="49.75448" lon="2.12096">
        <ele>136.7</ele>
        <time>2023-06-21T13:22:27Z</time>
      </trkpt>
      <trkpt lat="49.75447" lon="2.12096">
        <ele>136.6</ele>
        <time>2023-06-21T13:22:29Z</time>
      </trkpt>
      <trkpt lat="49.75446" lon="2.12097">
        <ele>136.5</ele>
        <time>2023-06-21T13:22:30Z</time>
      </trkpt>
      <trkpt lat="49.75445" lon="2.12098">
        <ele>136.3</ele>
        <time>2023-06-21T13:22:31Z</time>
      </trkpt>
      <trkpt lat="49.75443" lon="2.12099">
        <ele>136.1</ele>
        <time>2023-06-21T13:22:33Z</time>
      </trkpt>
      <trkpt lat="49.75441" lon="2.12101">
        <ele>135.9</ele>
        <time>2023-06-21T13:22:34Z</time>
      </trkpt>
      <trkpt lat="49.7544" lon="2.12101">
        <ele>135.8</ele>
        <time>2023-06-21T13:22:35Z</time>
      </trkpt>
      <trkpt lat="49.75439" lon="2.12102">
        <ele>135.7</ele>
        <time>2023-06-21T13:22:36Z</time>
      </trkpt>
      <trkpt lat="49.75437" lon="2.12103">
        <ele>135.5</ele>
        <time>2023-06-21T13:22:37Z</time>
      </trkpt>
      <trkpt lat="49.75436" lon="2.12103">
        <ele>135.4</ele>
        <time>2023-06-21T13:22:38Z</time>
      </trkpt>
      <trkpt lat="49.75436" lon="2.12103">
        <ele>135.3</ele>
        <time>2023-06-21T13:22:39Z</time>
      </trkpt>
      <trkpt lat="49.75434" lon="2.12104">
        <ele>135.1</ele>
        <time>2023-06-21T13:22:40Z</time>
      </trkpt>
      <trkpt lat="49.75433" lon="2.12105">
        <ele>135</ele>
        <time>2023-06-21T13:22:41Z</time>
      </trkpt>
      <trkpt lat="49.75432" lon="2.12105">
        <ele>134.9</ele>
        <time>2023-06-21T13:22:42Z</time>
      </trkpt>
      <trkpt lat="49.7543" lon="2.12107">
        <ele>134.7</ele>
        <time>2023-06-21T13:22:44Z</time>
      </trkpt>
      <trkpt lat="49.75429" lon="2.12108">
        <ele>134.6</ele>
        <time>2023-06-21T13:22:45Z</time>
      </trkpt>
      <trkpt lat="49.75429" lon="2.12109">
        <ele>134.5</ele>
        <time>2023-06-21T13:22:46Z</time>
      </trkpt>
      <trkpt lat="49.75428" lon="2.1211">
        <ele>134.4</ele>
        <time>2023-06-21T13:22:47Z</time>
      </trkpt>
      <trkpt lat="49.75426" lon="2.12111">
        <ele>134.2</ele>
        <time>2023-06-21T13:22:48Z</time>
      </trkpt>
      <trkpt lat="49.75425" lon="2.12112">
        <ele>134</ele>
        <time>2023-06-21T13:22:49Z</time>
      </trkpt>
      <trkpt lat="49.75423" lon="2.12113">
        <ele>133.9</ele>
        <time>2023-06-21T13:22:50Z</time>
      </trkpt>
      <trkpt lat="49.75422" lon="2.12113">
        <ele>133.7</ele>
        <time>2023-06-21T13:22:52Z</time>
      </trkpt>
      <trkpt lat="49.75421" lon="2.12114">
        <ele>133.6</ele>
        <time>2023-06-21T13:22:53Z</time>
      </trkpt>
      <trkpt lat="49.7542" lon="2.12115">
        <ele>133.5</ele>
        <time>2023-06-21T13:22:54Z</time>
      </trkpt>
      <trkpt lat="49.75418" lon="2.12116">
        <ele>133.3</ele>
        <time>2023-06-21T13:22:55Z</time>
      </trkpt>
      <trkpt lat="49.75417" lon="2.12116">
        <ele>133.2</ele>
        <time>2023-06-21T13:22:56Z</time>
      </trkpt>
      <trkpt lat="49.75417" lon="2.12117">
        <ele>133.1</ele>
        <time>2023-06-21T13:22:57Z</time>
      </trkpt>
      <trkpt lat="49.75415" lon="2.12118">
        <ele>133</ele>
        <time>2023-06-21T13:22:58Z</time>
      </trkpt>
      <trkpt lat="49.75414" lon="2.12119">
        <ele>132.8</ele>
        <time>2023-06-21T13:22:59Z</time>
      </trkpt>
      <trkpt lat="49.75413" lon="2.12119">
        <ele>132.7</ele>
        <time>2023-06-21T13:23:00Z</time>
      </trkpt>
      <trkpt lat="49.75412" lon="2.1212">
        <ele>132.6</ele>
        <time>2023-06-21T13:23:01Z</time>
      </trkpt>
      <trkpt lat="49.75411" lon="2.12121">
        <ele>132.5</ele>
        <time>2023-06-21T13:23:03Z</time>
      </trkpt>
      <trkpt lat="49.7541" lon="2.12122">
        <ele>132.4</ele>
        <time>2023-06-21T13:23:04Z</time>
      </trkpt>
      <trkpt lat="49.75408" lon="2.12123">
        <ele>132.2</ele>
        <time>2023-06-21T13:23:06Z</time>
      </trkpt>
      <trkpt lat="49.75406" lon="2.12124">
        <ele>132</ele>
        <time>2023-06-21T13:23:07Z</time>
      </trkpt>
      <trkpt lat="49.75406" lon="2.12124">
        <ele>132</ele>
        <time>2023-06-21T13:23:08Z</time>
      </trkpt>
      <trkpt lat="49.75405" lon="2.12125">
        <ele>131.9</ele>
        <time>2023-06-21T13:23:09Z</time>
      </trkpt>
      <trkpt lat="49.75404" lon="2.12127">
        <ele>131.7</ele>
        <time>2023-06-21T13:23:10Z</time>
      </trkpt>
      <trkpt lat="49.75403" lon="2.12128">
        <ele>131.7</ele>
        <time>2023-06-21T13:23:12Z</time>
      </trkpt>
      <trkpt lat="49.75402" lon="2.12128">
        <ele>131.6</ele>
        <time>2023-06-21T13:23:13Z</time>
      </trkpt>
      <trkpt lat="49.75402" lon="2.12129">
        <ele>131.5</ele>
        <time>2023-06-21T13:23:14Z</time>
      </trkpt>
      <trkpt lat="49.754" lon="2.1213">
        <ele>131.4</ele>
        <time>2023-06-21T13:23:15Z</time>
      </trkpt>
      <trkpt lat="49.75399" lon="2.1213">
        <ele>131.3</ele>
        <time>2023-06-21T13:23:16Z</time>
      </trkpt>
      <trkpt lat="49.75397" lon="2.12131">
        <ele>131</ele>
        <time>2023-06-21T13:23:18Z</time>
      </trkpt>
      <trkpt lat="49.75396" lon="2.12132">
        <ele>130.9</ele>
        <time>2023-06-21T13:23:19Z</time>
      </trkpt>
      <trkpt lat="49.75394" lon="2.12133">
        <ele>130.7</ele>
        <time>2023-06-21T13:23:20Z</time>
      </trkpt>
      <trkpt lat="49.75393" lon="2.12134">
        <ele>130.7</ele>
        <time>2023-06-21T13:23:21Z</time>
      </trkpt>
      <trkpt lat="49.75392" lon="2.12134">
        <ele>130.6</ele>
        <time>2023-06-21T13:23:22Z</time>
      </trkpt>
      <trkpt lat="49.7539" lon="2.12136">
        <ele>130.4</ele>
        <time>2023-06-21T13:23:23Z</time>
      </trkpt>
      <trkpt lat="49.7539" lon="2.12136">
        <ele>130.3</ele>
        <time>2023-06-21T13:23:25Z</time>
      </trkpt>
      <trkpt lat="49.75389" lon="2.12137">
        <ele>130.2</ele>
        <time>2023-06-21T13:23:26Z</time>
      </trkpt>
      <trkpt lat="49.75388" lon="2.12138">
        <ele>130.1</ele>
        <time>2023-06-21T13:23:27Z</time>
      </trkpt>
      <trkpt lat="49.75387" lon="2.12139">
        <ele>130</ele>
        <time>2023-06-21T13:23:28Z</time>
      </trkpt>
      <trkpt lat="49.75386" lon="2.1214">
        <ele>129.9</ele>
        <time>2023-06-21T13:23:29Z</time>
      </trkpt>
      <trkpt lat="49.75385" lon="2.1214">
        <ele>129.8</ele>
        <time>2023-06-21T13:23:30Z</time>
      </trkpt>
      <trkpt lat="49.75384" lon="2.12141">
        <ele>129.7</ele>
        <time>2023-06-21T13:23:31Z</time>
      </trkpt>
      <trkpt lat="49.75382" lon="2.12141">
        <ele>129.6</ele>
        <time>2023-06-21T13:23:32Z</time>
      </trkpt>
      <trkpt lat="49.7538" lon="2.12142">
        <ele>129.4</ele>
        <time>2023-06-21T13:23:34Z</time>
      </trkpt>
      <trkpt lat="49.7538" lon="2.12142">
        <ele>129.3</ele>
        <time>2023-06-21T13:23:35Z</time>
      </trkpt>
      <trkpt lat="49.75379" lon="2.12143">
        <ele>129.3</ele>
        <time>2023-06-21T13:23:36Z</time>
      </trkpt>
      <trkpt lat="49.75378" lon="2.12143">
        <ele>129.2</ele>
        <time>2023-06-21T13:23:37Z</time>
      </trkpt>
      <trkpt lat="49.75377" lon="2.12143">
        <ele>129.1</ele>
        <time>2023-06-21T13:23:38Z</time>
      </trkpt>
      <trkpt lat="49.75376" lon="2.12144">
        <ele>129</ele>
        <time>2023-06-21T13:23:40Z</time>
      </trkpt>
      <trkpt lat="49.75375" lon="2.12144">
        <ele>128.9</ele>
        <time>2023-06-21T13:23:41Z</time>
      </trkpt>
      <trkpt lat="49.75374" lon="2.12144">
        <ele>128.8</ele>
        <time>2023-06-21T13:23:43Z</time>
      </trkpt>
      <trkpt lat="49.75373" lon="2.12145">
        <ele>128.7</ele>
        <time>2023-06-21T13:23:44Z</time>
      </trkpt>
      <trkpt lat="49.75372" lon="2.12146">
        <ele>128.6</ele>
        <time>2023-06-21T13:23:45Z</time>
      </trkpt>
      <trkpt lat="49.75371" lon="2.12146">
        <ele>128.5</ele>
        <time>2023-06-21T13:23:46Z</time>
      </trkpt>
      <trkpt lat="49.7537" lon="2.12147">
        <ele>128.4</ele>
        <time>2023-06-21T13:23:47Z</time>
      </trkpt>
      <trkpt lat="49.75367" lon="2.12149">
        <ele>128.1</ele>
        <time>2023-06-21T13:23:49Z</time>
      </trkpt>
      <trkpt lat="49.75366" lon="2.12149">
        <ele>128</ele>
        <time>2023-06-21T13:23:51Z</time>
      </trkpt>
      <trkpt lat="49.75365" lon="2.12149">
        <ele>127.9</ele>
        <time>2023-06-21T13:23:52Z</time>
      </trkpt>
      <trkpt lat="49.75364" lon="2.1215">
        <ele>127.8</ele>
        <time>2023-06-21T13:23:53Z</time>
      </trkpt>
      <trkpt lat="49.75363" lon="2.1215">
        <ele>127.7</ele>
        <time>2023-06-21T13:23:54Z</time>
      </trkpt>
      <trkpt lat="49.75362" lon="2.12151">
        <ele>127.6</ele>
        <time>2023-06-21T13:23:55Z</time>
      </trkpt>
      <trkpt lat="49.75361" lon="2.12152">
        <ele>127.5</ele>
        <time>2023-06-21T13:23:56Z</time>
      </trkpt>
      <trkpt lat="49.7536" lon="2.12153">
        <ele>127.4</ele>
        <time>2023-06-21T13:23:58Z</time>
      </trkpt>
      <trkpt lat="49.75359" lon="2.12154">
        <ele>127.3</ele>
        <time>2023-06-21T13:23:59Z</time>
      </trkpt>
      <trkpt lat="49.75359" lon="2.12154">
        <ele>127.2</ele>
        <time>2023-06-21T13:24:00Z</time>
      </trkpt>
      <trkpt lat="49.75358" lon="2.12155">
        <ele>127.1</ele>
        <time>2023-06-21T13:24:01Z</time>
      </trkpt>
      <trkpt lat="49.75357" lon="2.12156">
        <ele>127</ele>
        <time>2023-06-21T13:24:02Z</time>
      </trkpt>
      <trkpt lat="49.75356" lon="2.12158">
        <ele>126.8</ele>
        <time>2023-06-21T13:24:03Z</time>
      </trkpt>
      <trkpt lat="49.75355" lon="2.12159">
        <ele>126.7</ele>
        <time>2023-06-21T13:24:04Z</time>
      </trkpt>
      <trkpt lat="49.75355" lon="2.12159">
        <ele>126.6</ele>
        <time>2023-06-21T13:24:05Z</time>
      </trkpt>
      <trkpt lat="49.75354" lon="2.1216">
        <ele>126.6</ele>
        <time>2023-06-21T13:24:07Z</time>
      </trkpt>
      <trkpt lat="49.75353" lon="2.1216">
        <ele>126.4</ele>
        <time>2023-06-21T13:24:08Z</time>
      </trkpt>
      <trkpt lat="49.75352" lon="2.12161">
        <ele>126.3</ele>
        <time>2023-06-21T13:24:09Z</time>
      </trkpt>
      <trkpt lat="49.75351" lon="2.12162">
        <ele>126.2</ele>
        <time>2023-06-21T13:24:10Z</time>
      </trkpt>
      <trkpt lat="49.7535" lon="2.12162">
        <ele>126.1</ele>
        <time>2023-06-21T13:24:11Z</time>
      </trkpt>
      <trkpt lat="49.75348" lon="2.12162">
        <ele>126</ele>
        <time>2023-06-21T13:24:12Z</time>
      </trkpt>
      <trkpt lat="49.75347" lon="2.12162">
        <ele>125.8</ele>
        <time>2023-06-21T13:24:14Z</time>
      </trkpt>
      <trkpt lat="49.75346" lon="2.12163">
        <ele>125.7</ele>
        <time>2023-06-21T13:24:15Z</time>
      </trkpt>
      <trkpt lat="49.75345" lon="2.12164">
        <ele>125.6</ele>
        <time>2023-06-21T13:24:16Z</time>
      </trkpt>
      <trkpt lat="49.75344" lon="2.12164">
        <ele>125.5</ele>
        <time>2023-06-21T13:24:17Z</time>
      </trkpt>
      <trkpt lat="49.75343" lon="2.12165">
        <ele>125.5</ele>
        <time>2023-06-21T13:24:18Z</time>
      </trkpt>
      <trkpt lat="49.75342" lon="2.12165">
        <ele>125.4</ele>
        <time>2023-06-21T13:24:20Z</time>
      </trkpt>
      <trkpt lat="49.75342" lon="2.12166">
        <ele>125.3</ele>
        <time>2023-06-21T13:24:21Z</time>
      </trkpt>
      <trkpt lat="49.75342" lon="2.12166">
        <ele>125.3</ele>
        <time>2023-06-21T13:24:22Z</time>
      </trkpt>
      <trkpt lat="49.75341" lon="2.12167">
        <ele>125.2</ele>
        <time>2023-06-21T13:24:23Z</time>
      </trkpt>
      <trkpt lat="49.75341" lon="2.12168">
        <ele>125.2</ele>
        <time>2023-06-21T13:24:24Z</time>
      </trkpt>
      <trkpt lat="49.7534" lon="2.12168">
        <ele>125.1</ele>
        <time>2023-06-21T13:24:25Z</time>
      </trkpt>
      <trkpt lat="49.75339" lon="2.12169">
        <ele>125</ele>
        <time>2023-06-21T13:24:26Z</time>
      </trkpt>
      <trkpt lat="49.75338" lon="2.1217">
        <ele>124.9</ele>
        <time>2023-06-21T13:24:28Z</time>
      </trkpt>
      <trkpt lat="49.75337" lon="2.1217">
        <ele>124.8</ele>
        <time>2023-06-21T13:24:29Z</time>
      </trkpt>
      <trkpt lat="49.75336" lon="2.12171">
        <ele>124.7</ele>
        <time>2023-06-21T13:24:30Z</time>
      </trkpt>
      <trkpt lat="49.75335" lon="2.12172">
        <ele>124.6</ele>
        <time>2023-06-21T13:24:31Z</time>
      </trkpt>
      <trkpt lat="49.75334" lon="2.12172">
        <ele>124.4</ele>
        <time>2023-06-21T13:24:32Z</time>
      </trkpt>
      <trkpt lat="49.75332" lon="2.12173">
        <ele>124.3</ele>
        <time>2023-06-21T13:24:34Z</time>
      </trkpt>
      <trkpt lat="49.75331" lon="2.12174">
        <ele>124.2</ele>
        <time>2023-06-21T13:24:35Z</time>
      </trkpt>
      <trkpt lat="49.7533" lon="2.12175">
        <ele>124.1</ele>
        <time>2023-06-21T13:24:36Z</time>
      </trkpt>
      <trkpt lat="49.75329" lon="2.12176">
        <ele>124</ele>
        <time>2023-06-21T13:24:37Z</time>
      </trkpt>
      <trkpt lat="49.75328" lon="2.12176">
        <ele>123.9</ele>
        <time>2023-06-21T13:24:38Z</time>
      </trkpt>
      <trkpt lat="49.75328" lon="2.12177">
        <ele>123.9</ele>
        <time>2023-06-21T13:24:39Z</time>
      </trkpt>
      <trkpt lat="49.75326" lon="2.12178">
        <ele>123.9</ele>
        <time>2023-06-21T13:24:41Z</time>
      </trkpt>
      <trkpt lat="49.75325" lon="2.12179">
        <ele>123.8</ele>
        <time>2023-06-21T13:24:42Z</time>
      </trkpt>
      <trkpt lat="49.75325" lon="2.1218">
        <ele>123.8</ele>
        <time>2023-06-21T13:24:43Z</time>
      </trkpt>
      <trkpt lat="49.75323" lon="2.12181">
        <ele>123.8</ele>
        <time>2023-06-21T13:24:45Z</time>
      </trkpt>
      <trkpt lat="49.75323" lon="2.12181">
        <ele>123.8</ele>
        <time>2023-06-21T13:24:46Z</time>
      </trkpt>
      <trkpt lat="49.75322" lon="2.12182">
        <ele>123.7</ele>
        <time>2023-06-21T13:24:48Z</time>
      </trkpt>
      <trkpt lat="49.75321" lon="2.12183">
        <ele>123.7</ele>
        <time>2023-06-21T13:24:49Z</time>
      </trkpt>
      <trkpt lat="49.75321" lon="2.12184">
        <ele>123.7</ele>
        <time>2023-06-21T13:24:50Z</time>
      </trkpt>
      <trkpt lat="49.7532" lon="2.12186">
        <ele>123.7</ele>
        <time>2023-06-21T13:24:52Z</time>
      </trkpt>
      <trkpt lat="49.7532" lon="2.12186">
        <ele>123.6</ele>
        <time>2023-06-21T13:24:53Z</time>
      </trkpt>
      <trkpt lat="49.7532" lon="2.12188">
        <ele>123.6</ele>
        <time>2023-06-21T13:24:55Z</time>
      </trkpt>
      <trkpt lat="49.75321" lon="2.12189">
        <ele>123.6</ele>
        <time>2023-06-21T13:24:56Z</time>
      </trkpt>
      <trkpt lat="49.75321" lon="2.1219">
        <ele>123.6</ele>
        <time>2023-06-21T13:24:57Z</time>
      </trkpt>
      <trkpt lat="49.75322" lon="2.12191">
        <ele>123.6</ele>
        <time>2023-06-21T13:24:59Z</time>
      </trkpt>
      <trkpt lat="49.75322" lon="2.12191">
        <ele>123.5</ele>
        <time>2023-06-21T13:25:00Z</time>
      </trkpt>
      <trkpt lat="49.75322" lon="2.12192">
        <ele>123.5</ele>
        <time>2023-06-21T13:25:01Z</time>
      </trkpt>
      <trkpt lat="49.75323" lon="2.12193">
        <ele>123</ele>
        <time>2023-06-21T13:25:03Z</time>
      </trkpt>
      <trkpt lat="49.75323" lon="2.12194">
        <ele>123</ele>
        <time>2023-06-21T13:25:04Z</time>
      </trkpt>
      <trkpt lat="49.75323" lon="2.12194">
        <ele>123</ele>
        <time>2023-06-21T13:25:05Z</time>
      </trkpt>
      <trkpt lat="49.75323" lon="2.12195">
        <ele>123</ele>
        <time>2023-06-21T13:25:07Z</time>
      </trkpt>
      <trkpt lat="49.75324" lon="2.12195">
        <ele>123</ele>
        <time>2023-06-21T13:25:08Z</time>
      </trkpt>
      <trkpt lat="49.75324" lon="2.12195">
        <ele>123</ele>
        <time>2023-06-21T13:25:09Z</time>
      </trkpt>
      <trkpt lat="49.75324" lon="2.12195">
        <ele>123</ele>
        <time>2023-06-21T13:25:10Z</time>
      </trkpt>
      <trkpt lat="49.75324" lon="2.12195">
        <ele>123</ele>
        <time>2023-06-21T13:25:11Z</time>
      </trkpt>
      <trkpt lat="49.75324" lon="2.12195">
        <ele>123</ele>
        <time>2023-06-21T13:25:12Z</time>
      </trkpt>
      <trkpt lat="49.75324" lon="2.12195">
        <ele>123</ele>
        <time>2023-06-21T13:25:13Z</time>
      </trkpt>
      <trkpt lat="49.75324" lon="2.12195">
        <ele>123</ele>
        <time>2023-06-21T13:25:14Z</time>
      </trkpt>
      <trkpt lat="49.75324" lon="2.12195">
        <ele>123</ele>
        <time>2023-06-21T13:25:15Z</time>
      </trkpt>
      <trkpt lat="49.75324" lon="2.12195">
        <ele>123</ele>
        <time>2023-06-21T13:25:16Z</time>
      </trkpt>
      <trkpt lat="49.75324" lon="2.12195">
        <ele>123</ele>
        <time>2023-06-21T13:25:17Z</time>
      </trkpt>
      <trkpt lat="49.75324" lon="2.12195">
        <ele>123</ele>
        <time>2023-06-21T13:25:18Z</time>
      </trkpt>
      <trkpt lat="49.75324" lon="2.12195">
        <ele>123</ele>
        <time>2023-06-21T13:25:19Z</time>
      </trkpt>
      <trkpt lat="49.75324" lon="2.12195">
        <ele>123</ele>
        <time>2023-06-21T13:25:20Z</time>
      </trkpt>
      <trkpt lat="49.75324" lon="2.12195">
        <ele>123</ele>
        <time>2023-06-21T13:25:21Z</time>
      </trkpt>
      <trkpt lat="49.75324" lon="2.12195">
        <ele>123</ele>
        <time>2023-06-21T13:25:22Z</time>
      </trkpt>
      <trkpt lat="49.75324" lon="2.12195">
        <ele>123</ele>
        <time>2023-06-21T13:25:23Z</time>
      </trkpt>
      <trkpt lat="49.75324" lon="2.12195">
        <ele>123</ele>
        <time>2023-06-21T13:25:24Z</time>
      </trkpt>
      <trkpt lat="49.75324" lon="2.12195">
        <ele>123</ele>
        <time>2023-06-21T13:25:25Z</time>
      </trkpt>
      <trkpt lat="49.75324" lon="2.12195">
        <ele>123</ele>
        <time>2023-06-21T13:25:26Z</time>
      </trkpt>
      <trkpt lat="49.75324" lon="2.12195">
        <ele>123</ele>
        <time>2023-06-21T13:25:27Z</time>
      </trkpt>
      <trkpt lat="49.75324" lon="2.12195">
        <ele>123</ele>
        <time>2023-06-21T13:25:28Z</time>
      </trkpt>
      <trkpt lat="49.75324" lon="2.12195">
        <ele>123</ele>
        <time>2023-06-21T13:25:29Z</time>
      </trkpt>
      <trkpt lat="49.75324" lon="2.12195">
        <ele>123</ele>
        <time>2023-06-21T13:25:30Z</time>
      </trkpt>
      <trkpt lat="49.75324" lon="2.12195">
        <ele>123</ele>
        <time>2023-06-21T13:25:31Z</time>
      </trkpt>
      <trkpt lat="49.75324" lon="2.12195">
        <ele>123</ele>
        <time>2023-06-21T13:25:32Z</time>
      </trkpt>
      <trkpt lat="49.75324" lon="2.12195">
        <ele>123</ele>
        <time>2023-06-21T13:25:33Z</time>
      </trkpt>
      <trkpt lat="49.75324" lon="2.12195">
        <ele>123</ele>
        <time>2023-06-21T13:25:34Z</time>
      </trkpt>
      <trkpt lat="49.75324" lon="2.12195">
        <ele>123</ele>
        <time>2023-06-21T13:25:35Z</time>
      </trkpt>
      <trkpt lat="49.75324" lon="2.12195">
        <ele>123</ele>
        <time>2023-06-21T13:25:36Z</time>
      </trkpt>
      <trkpt lat="49.75324" lon="2.12195">
        <ele>123</ele>
        <time>2023-06-21T13:25:37Z</time>
      </trkpt>
      <trkpt lat="49.75324" lon="2.12195">
        <ele>123</ele>
        <time>2023-06-21T13:25:38Z</time>
      </trkpt>
      <trkpt lat="49.75324" lon="2.12195">
        <ele>123</ele>
        <time>2023-06-21T13:25:39Z</time>
      </trkpt>
      <trkpt lat="49.75324" lon="2.12195">
        <ele>123</ele>
        <time>2023-06-21T13:25:40Z</time>
      </trkpt>
      <trkpt lat="49.75324" lon="2.12195">
        <ele>123</ele>
        <time>2023-06-21T13:25:41Z</time>
      </trkpt>
      <trkpt lat="49.75324" lon="2.12195">
        <ele>123</ele>
        <time>2023-06-21T13:25:42Z</time>
      </trkpt>
      <trkpt lat="49.75324" lon="2.12195">
        <ele>123</ele>
        <time>2023-06-21T13:25:43Z</time>
      </trkpt>
      <trkpt lat="49.75324" lon="2.12195">
        <ele>123</ele>
        <time>2023-06-21T13:25:44Z</time>
      </trkpt>
      <trkpt lat="49.75324" lon="2.12195">
        <ele>123</ele>
        <time>2023-06-21T13:25:45Z</time>
      </trkpt>
      <trkpt lat="49.75324" lon="2.12195">
        <ele>123</ele>
        <time>2023-06-21T13:25:46Z</time>
      </trkpt>
      <trkpt lat="49.75324" lon="2.12195">
        <ele>123</ele>
        <time>2023-06-21T13:25:47Z</time>
      </trkpt>
      <trkpt lat="49.75324" lon="2.12195">
        <ele>123</ele>
        <time>2023-06-21T13:25:48Z</time>
      </trkpt>
      <trkpt lat="49.75324" lon="2.12195">
        <ele>123</ele>
        <time>2023-06-21T13:25:49Z</time>
      </trkpt>
      <trkpt lat="49.75324" lon="2.12195">
        <ele>123</ele>
        <time>2023-06-21T13:25:50Z</time>
      </trkpt>
      <trkpt lat="49.75324" lon="2.12195">
        <ele>123</ele>
        <time>2023-06-21T13:25:51Z</time>
      </trkpt>
      <trkpt lat="49.75324" lon="2.12195">
        <ele>123</ele>
        <time>2023-06-21T13:25:52Z</time>
      </trkpt>
      <trkpt lat="49.75324" lon="2.12195">
        <ele>123</ele>
        <time>2023-06-21T13:25:53Z</time>
      </trkpt>
      <trkpt lat="49.75324" lon="2.12195">
        <ele>123</ele>
        <time>2023-06-21T13:25:54Z</time>
      </trkpt>
      <trkpt lat="49.75324" lon="2.12195">
        <ele>123</ele>
        <time>2023-06-21T13:25:55Z</time>
      </trkpt>
      <trkpt lat="49.75324" lon="2.12195">
        <ele>123</ele>
        <time>2023-06-21T13:25:56Z</time>
      </trkpt>
      <trkpt lat="49.75324" lon="2.12195">
        <ele>123</ele>
        <time>2023-06-21T13:25:57Z</time>
      </trkpt>
      <trkpt lat="49.75324" lon="2.12195">
        <ele>123</ele>
        <time>2023-06-21T13:25:58Z</time>
      </trkpt>
      <trkpt lat="49.75324" lon="2.12195">
        <ele>123</ele>
        <time>2023-06-21T13:25:59Z</time>
      </trkpt>
      <trkpt lat="49.75324" lon="2.12195">
        <ele>123</ele>
        <time>2023-06-21T13:26:00Z</time>
      </trkpt>
      <trkpt lat="49.75324" lon="2.12195">
        <ele>123</ele>
        <time>2023-06-21T13:26:01Z</time>
      </trkpt>
      <trkpt lat="49.75324" lon="2.12195">
        <ele>123</ele>
        <time>2023-06-21T13:26:02Z</time>
      </trkpt>
      <trkpt lat="49.75324" lon="2.12195">
        <ele>123</ele>
        <time>2023-06-21T13:26:03Z</time>
      </trkpt>
      <trkpt lat="49.75324" lon="2.12195">
        <ele>123</ele>
        <time>2023-06-21T13:26:04Z</time>
      </trkpt>
      <trkpt lat="49.75324" lon="2.12195">
        <ele>123</ele>
        <time>2023-06-21T13:26:05Z</time>
      </trkpt>
      <trkpt lat="49.75324" lon="2.12195">
        <ele>123</ele>
        <time>2023-06-21T13:26:06Z</time>
      </trkpt>
      <trkpt lat="49.75324" lon="2.12195">
        <ele>123</ele>
        <time>2023-06-21T13:26:07Z</time>
      </trkpt>
      <trkpt lat="49.75324" lon="2.12195">
        <ele>123</ele>
        <time>2023-06-21T13:26:08Z</time>
      </trkpt>
      <trkpt lat="49.75324" lon="2.12195">
        <ele>123</ele>
        <time>2023-06-21T13:26:09Z</time>
      </trkpt>
      <trkpt lat="49.75324" lon="2.12195">
        <ele>123</ele>
        <time>2023-06-21T13:26:10Z</time>
      </trkpt>
      <trkpt lat="49.75324" lon="2.12195">
        <ele>123</ele>
        <time>2023-06-21T13:26:11Z</time>
      </trkpt>
      <trkpt lat="49.75324" lon="2.12195">
        <ele>123</ele>
        <time>2023-06-21T13:26:12Z</time>
      </trkpt>
      <trkpt lat="49.75324" lon="2.12195">
        <ele>123</ele>
        <time>2023-06-21T13:26:13Z</time>
      </trkpt>
      <trkpt lat="49.75324" lon="2.12195">
        <ele>123</ele>
        <time>2023-06-21T13:26:14Z</time>
      </trkpt>
      <trkpt lat="49.75324" lon="2.12195">
        <ele>123</ele>
        <time>2023-06-21T13:26:15Z</time>
      </trkpt>
      <trkpt lat="49.75324" lon="2.12195">
        <ele>123</ele>
        <time>2023-06-21T13:26:16Z</time>
      </trkpt>
      <trkpt lat="49.75324" lon="2.12195">
        <ele>123</ele>
        <time>2023-06-21T13:26:17Z</time>
      </trkpt>
      <trkpt lat="49.75324" lon="2.12195">
        <ele>123</ele>
        <time>2023-06-21T13:26:18Z</time>
      </trkpt>
      <trkpt lat="49.75324" lon="2.12195">
        <ele>123</ele>
        <time>2023-06-21T13:26:19Z</time>
      </trkpt>
      <trkpt lat="49.75324" lon="2.12195">
        <ele>123</ele>
        <time>2023-06-21T13:26:20Z</time>
      </trkpt>
      <trkpt lat="49.75324" lon="2.12195">
        <ele>123</ele>
        <time>2023-06-21T13:26:21Z</time>
      </trkpt>
      <trkpt lat="49.75324" lon="2.12195">
        <ele>123</ele>
        <time>2023-06-21T13:26:22Z</time>
      </trkpt>
      <trkpt lat="49.75325" lon="2.12191">
        <ele>122.9</ele>
        <time>2023-06-21T13:26:23Z</time>
      </trkpt>
      <trkpt lat="49.75325" lon="2.12189">
        <ele>122.8</ele>
        <time>2023-06-21T13:26:24Z</time>
      </trkpt>
      <trkpt lat="49.75324" lon="2.12189">
        <ele>122.8</ele>
        <time>2023-06-21T13:26:25Z</time>
      </trkpt>
      <trkpt lat="49.75324" lon="2.12189">
        <ele>122.8</ele>
        <time>2023-06-21T13:26:26Z</time>
      </trkpt>
      <trkpt lat="49.75324" lon="2.1219">
        <ele>122.8</ele>
        <time>2023-06-21T13:26:27Z</time>
      </trkpt>
      <trkpt lat="49.75324" lon="2.1219">
        <ele>122.8</ele>
        <time>2023-06-21T13:26:28Z</time>
      </trkpt>
      <trkpt lat="49.75324" lon="2.1219">
        <ele>122.8</ele>
        <time>2023-06-21T13:26:29Z</time>
      </trkpt>
      <trkpt lat="49.75324" lon="2.1219">
        <ele>122.8</ele>
        <time>2023-06-21T13:26:30Z</time>
      </trkpt>
      <trkpt lat="49.75324" lon="2.1219">
        <ele>122.8</ele>
        <time>2023-06-21T13:26:31Z</time>
      </trkpt>
      <trkpt lat="49.75324" lon="2.1219">
        <ele>122.8</ele>
        <time>2023-06-21T13:26:32Z</time>
      </trkpt>
      <trkpt lat="49.75324" lon="2.1219">
        <ele>122.8</ele>
        <time>2023-06-21T13:26:33Z</time>
      </trkpt>
      <trkpt lat="49.75324" lon="2.1219">
        <ele>122.8</ele>
        <time>2023-06-21T13:26:34Z</time>
      </trkpt>
      <trkpt lat="49.75324" lon="2.1219">
        <ele>122.8</ele>
        <time>2023-06-21T13:26:35Z</time>
      </trkpt>
      <trkpt lat="49.75324" lon="2.1219">
        <ele>122.8</ele>
        <time>2023-06-21T13:26:36Z</time>
      </trkpt>
      <trkpt lat="49.75324" lon="2.1219">
        <ele>122.8</ele>
        <time>2023-06-21T13:26:37Z</time>
      </trkpt>
      <trkpt lat="49.75324" lon="2.1219">
        <ele>122.8</ele>
        <time>2023-06-21T13:26:38Z</time>
      </trkpt>
      <trkpt lat="49.75324" lon="2.1219">
        <ele>122.8</ele>
        <time>2023-06-21T13:26:39Z</time>
      </trkpt>
      <trkpt lat="49.75324" lon="2.1219">
        <ele>122.8</ele>
        <time>2023-06-21T13:26:40Z</time>
      </trkpt>
      <trkpt lat="49.75324" lon="2.1219">
        <ele>122.8</ele>
        <time>2023-06-21T13:26:41Z</time>
      </trkpt>
      <trkpt lat="49.75324" lon="2.1219">
        <ele>122.8</ele>
        <time>2023-06-21T13:26:42Z</time>
      </trkpt>
      <trkpt lat="49.75324" lon="2.1219">
        <ele>122.8</ele>
        <time>2023-06-21T13:26:43Z</time>
      </trkpt>
      <trkpt lat="49.75324" lon="2.1219">
        <ele>122.8</ele>
        <time>2023-06-21T13:26:44Z</time>
      </trkpt>
      <trkpt lat="49.75324" lon="2.1219">
        <ele>122.8</ele>
        <time>2023-06-21T13:26:45Z</time>
      </trkpt>
      <trkpt lat="49.75324" lon="2.1219">
        <ele>122.8</ele>
        <time>2023-06-21T13:26:46Z</time>
      </trkpt>
      <trkpt lat="49.75324" lon="2.1219">
        <ele>122.8</ele>
        <time>2023-06-21T13:26:47Z</time>
      </trkpt>
      <trkpt lat="49.75324" lon="2.1219">
        <ele>122.8</ele>
        <time>2023-06-21T13:26:48Z</time>
      </trkpt>
      <trkpt lat="49.75324" lon="2.1219">
        <ele>122.8</ele>
        <time>2023-06-21T13:26:49Z</time>
      </trkpt>
      <trkpt lat="49.75324" lon="2.1219">
        <ele>122.8</ele>
        <time>2023-06-21T13:26:50Z</time>
      </trkpt>
      <trkpt lat="49.75324" lon="2.1219">
        <ele>122.8</ele>
        <time>2023-06-21T13:26:51Z</time>
      </trkpt>
      <trkpt lat="49.75324" lon="2.1219">
        <ele>122.8</ele>
        <time>2023-06-21T13:26:52Z</time>
      </trkpt>
      <trkpt lat="49.75324" lon="2.1219">
        <ele>122.8</ele>
        <time>2023-06-21T13:26:53Z</time>
      </trkpt>
      <trkpt lat="49.75324" lon="2.1219">
        <ele>122.8</ele>
        <time>2023-06-21T13:26:54Z</time>
      </trkpt>
      <trkpt lat="49.75324" lon="2.1219">
        <ele>122.8</ele>
        <time>2023-06-21T13:26:55Z</time>
      </trkpt>
      <trkpt lat="49.75324" lon="2.1219">
        <ele>122.8</ele>
        <time>2023-06-21T13:26:56Z</time>
      </trkpt>
      <trkpt lat="49.75324" lon="2.1219">
        <ele>122.8</ele>
        <time>2023-06-21T13:26:57Z</time>
      </trkpt>
      <trkpt lat="49.75324" lon="2.12189">
        <ele>122.8</ele>
        <time>2023-06-21T13:26:58Z</time>
      </trkpt>
      <trkpt lat="49.75323" lon="2.12189">
        <ele>122.8</ele>
        <time>2023-06-21T13:26:59Z</time>
      </trkpt>
      <trkpt lat="49.75323" lon="2.1219">
        <ele>122.8</ele>
        <time>2023-06-21T13:27:01Z</time>
      </trkpt>
      <trkpt lat="49.75322" lon="2.12189">
        <ele>122.8</ele>
        <time>2023-06-21T13:27:02Z</time>
      </trkpt>
      <trkpt lat="49.7532" lon="2.12189">
        <ele>122.7</ele>
        <time>2023-06-21T13:27:03Z</time>
      </trkpt>
      <trkpt lat="49.7532" lon="2.12188">
        <ele>122.7</ele>
        <time>2023-06-21T13:27:04Z</time>
      </trkpt>
      <trkpt lat="49.75319" lon="2.12187">
        <ele>122.7</ele>
        <time>2023-06-21T13:27:05Z</time>
      </trkpt>
      <trkpt lat="49.75318" lon="2.12186">
        <ele>122.7</ele>
        <time>2023-06-21T13:27:07Z</time>
      </trkpt>
      <trkpt lat="49.75317" lon="2.12184">
        <ele>122.7</ele>
        <time>2023-06-21T13:27:08Z</time>
      </trkpt>
      <trkpt lat="49.75317" lon="2.12183">
        <ele>122.7</ele>
        <time>2023-06-21T13:27:09Z</time>
      </trkpt>
      <trkpt lat="49.75316" lon="2.1218">
        <ele>122.7</ele>
        <time>2023-06-21T13:27:10Z</time>
      </trkpt>
      <trkpt lat="49.75316" lon="2.12178">
        <ele>122.7</ele>
        <time>2023-06-21T13:27:11Z</time>
      </trkpt>
      <trkpt lat="49.75316" lon="2.12177">
        <ele>122.7</ele>
        <time>2023-06-21T13:27:12Z</time>
      </trkpt>
      <trkpt lat="49.75316" lon="2.12175">
        <ele>122.7</ele>
        <time>2023-06-21T13:27:14Z</time>
      </trkpt>
      <trkpt lat="49.75317" lon="2.12173">
        <ele>122.7</ele>
        <time>2023-06-21T13:27:15Z</time>
      </trkpt>
      <trkpt lat="49.75317" lon="2.12172">
        <ele>122.7</ele>
        <time>2023-06-21T13:27:16Z</time>
      </trkpt>
      <trkpt lat="49.75318" lon="2.1217">
        <ele>122.7</ele>
        <time>2023-06-21T13:27:18Z</time>
      </trkpt>
      <trkpt lat="49.75319" lon="2.12169">
        <ele>122.8</ele>
        <time>2023-06-21T13:27:19Z</time>
      </trkpt>
      <trkpt lat="49.75319" lon="2.12168">
        <ele>122.8</ele>
        <time>2023-06-21T13:27:20Z</time>
      </trkpt>
      <trkpt lat="49.7532" lon="2.12166">
        <ele>122.8</ele>
        <time>2023-06-21T13:27:21Z</time>
      </trkpt>
      <trkpt lat="49.7532" lon="2.12165">
        <ele>122.8</ele>
        <time>2023-06-21T13:27:22Z</time>
      </trkpt>
      <trkpt lat="49.75321" lon="2.12163">
        <ele>122.8</ele>
        <time>2023-06-21T13:27:23Z</time>
      </trkpt>
      <trkpt lat="49.75321" lon="2.1216">
        <ele>122.8</ele>
        <time>2023-06-21T13:27:24Z</time>
      </trkpt>
      <trkpt lat="49.75322" lon="2.12159">
        <ele>122.8</ele>
        <time>2023-06-21T13:27:25Z</time>
      </trkpt>
      <trkpt lat="49.75322" lon="2.12158">
        <ele>122.8</ele>
        <time>2023-06-21T13:27:26Z</time>
      </trkpt>
      <trkpt lat="49.75323" lon="2.12155">
        <ele>122.8</ele>
        <time>2023-06-21T13:27:28Z</time>
      </trkpt>
      <trkpt lat="49.75324" lon="2.12154">
        <ele>122.8</ele>
        <time>2023-06-21T13:27:29Z</time>
      </trkpt>
      <trkpt lat="49.75324" lon="2.12153">
        <ele>122.8</ele>
        <time>2023-06-21T13:27:30Z</time>
      </trkpt>
      <trkpt lat="49.75325" lon="2.1215">
        <ele>122.8</ele>
        <time>2023-06-21T13:27:32Z</time>
      </trkpt>
      <trkpt lat="49.75325" lon="2.12148">
        <ele>122.8</ele>
        <time>2023-06-21T13:27:33Z</time>
      </trkpt>
      <trkpt lat="49.75325" lon="2.12147">
        <ele>122.8</ele>
        <time>2023-06-21T13:27:34Z</time>
      </trkpt>
      <trkpt lat="49.75326" lon="2.12145">
        <ele>122.8</ele>
        <time>2023-06-21T13:27:35Z</time>
      </trkpt>
      <trkpt lat="49.75326" lon="2.12143">
        <ele>122.8</ele>
        <time>2023-06-21T13:27:36Z</time>
      </trkpt>
      <trkpt lat="49.75327" lon="2.12141">
        <ele>122.8</ele>
        <time>2023-06-21T13:27:37Z</time>
      </trkpt>
      <trkpt lat="49.75327" lon="2.12139">
        <ele>122.8</ele>
        <time>2023-06-21T13:27:39Z</time>
      </trkpt>
      <trkpt lat="49.75327" lon="2.12138">
        <ele>122.8</ele>
        <time>2023-06-21T13:27:40Z</time>
      </trkpt>
      <trkpt lat="49.75327" lon="2.12137">
        <ele>122.8</ele>
        <time>2023-06-21T13:27:41Z</time>
      </trkpt>
      <trkpt lat="49.75328" lon="2.12135">
        <ele>122.8</ele>
        <time>2023-06-21T13:27:42Z</time>
      </trkpt>
      <trkpt lat="49.75328" lon="2.12134">
        <ele>122.8</ele>
        <time>2023-06-21T13:27:43Z</time>
      </trkpt>
      <trkpt lat="49.75328" lon="2.12132">
        <ele>122.8</ele>
        <time>2023-06-21T13:27:44Z</time>
      </trkpt>
      <trkpt lat="49.75328" lon="2.1213">
        <ele>122.8</ele>
        <time>2023-06-21T13:27:45Z</time>
      </trkpt>
      <trkpt lat="49.75328" lon="2.12129">
        <ele>122.8</ele>
        <time>2023-06-21T13:27:46Z</time>
      </trkpt>
      <trkpt lat="49.75328" lon="2.12127">
        <ele>122.8</ele>
        <time>2023-06-21T13:27:47Z</time>
      </trkpt>
      <trkpt lat="49.75329" lon="2.12125">
        <ele>122.8</ele>
        <time>2023-06-21T13:27:48Z</time>
      </trkpt>
      <trkpt lat="49.75329" lon="2.12124">
        <ele>122.8</ele>
        <time>2023-06-21T13:27:50Z</time>
      </trkpt>
      <trkpt lat="49.75329" lon="2.12122">
        <ele>122.8</ele>
        <time>2023-06-21T13:27:51Z</time>
      </trkpt>
      <trkpt lat="49.7533" lon="2.12121">
        <ele>122.8</ele>
        <time>2023-06-21T13:27:52Z</time>
      </trkpt>
      <trkpt lat="49.7533" lon="2.12119">
        <ele>122.8</ele>
        <time>2023-06-21T13:27:53Z</time>
      </trkpt>
      <trkpt lat="49.7533" lon="2.12118">
        <ele>122.8</ele>
        <time>2023-06-21T13:27:54Z</time>
      </trkpt>
      <trkpt lat="49.7533" lon="2.12116">
        <ele>122.8</ele>
        <time>2023-06-21T13:27:56Z</time>
      </trkpt>
      <trkpt lat="49.75331" lon="2.12114">
        <ele>122.8</ele>
        <time>2023-06-21T13:27:57Z</time>
      </trkpt>
      <trkpt lat="49.75331" lon="2.12112">
        <ele>122.8</ele>
        <time>2023-06-21T13:27:58Z</time>
      </trkpt>
      <trkpt lat="49.75332" lon="2.12111">
        <ele>122.8</ele>
        <time>2023-06-21T13:27:59Z</time>
      </trkpt>
      <trkpt lat="49.75332" lon="2.12109">
        <ele>122.8</ele>
        <time>2023-06-21T13:28:01Z</time>
      </trkpt>
      <trkpt lat="49.75333" lon="2.12108">
        <ele>122.8</ele>
        <time>2023-06-21T13:28:02Z</time>
      </trkpt>
      <trkpt lat="49.75333" lon="2.12106">
        <ele>122.8</ele>
        <time>2023-06-21T13:28:03Z</time>
      </trkpt>
      <trkpt lat="49.75335" lon="2.12104">
        <ele>122.8</ele>
        <time>2023-06-21T13:28:04Z</time>
      </trkpt>
      <trkpt lat="49.75335" lon="2.12102">
        <ele>122.8</ele>
        <time>2023-06-21T13:28:05Z</time>
      </trkpt>
      <trkpt lat="49.75335" lon="2.12101">
        <ele>122.8</ele>
        <time>2023-06-21T13:28:06Z</time>
      </trkpt>
      <trkpt lat="49.75337" lon="2.12099">
        <ele>122.8</ele>
        <time>2023-06-21T13:28:08Z</time>
      </trkpt>
      <trkpt lat="49.75337" lon="2.12098">
        <ele>122.8</ele>
        <time>2023-06-21T13:28:09Z</time>
      </trkpt>
      <trkpt lat="49.75337" lon="2.12097">
        <ele>122.8</ele>
        <time>2023-06-21T13:28:10Z</time>
      </trkpt>
      <trkpt lat="49.75338" lon="2.12095">
        <ele>122.8</ele>
        <time>2023-06-21T13:28:11Z</time>
      </trkpt>
      <trkpt lat="49.75339" lon="2.12094">
        <ele>122.8</ele>
        <time>2023-06-21T13:28:12Z</time>
      </trkpt>
      <trkpt lat="49.75339" lon="2.12092">
        <ele>122.8</ele>
        <time>2023-06-21T13:28:13Z</time>
      </trkpt>
      <trkpt lat="49.7534" lon="2.12091">
        <ele>122.8</ele>
        <time>2023-06-21T13:28:14Z</time>
      </trkpt>
      <trkpt lat="49.7534" lon="2.12089">
        <ele>122.8</ele>
        <time>2023-06-21T13:28:16Z</time>
      </trkpt>
      <trkpt lat="49.75341" lon="2.12088">
        <ele>122.8</ele>
        <time>2023-06-21T13:28:17Z</time>
      </trkpt>
      <trkpt lat="49.75341" lon="2.12086">
        <ele>122.8</ele>
        <time>2023-06-21T13:28:18Z</time>
      </trkpt>
      <trkpt lat="49.75342" lon="2.12083">
        <ele>122.8</ele>
        <time>2023-06-21T13:28:20Z</time>
      </trkpt>
      <trkpt lat="49.75343" lon="2.12082">
        <ele>122.8</ele>
        <time>2023-06-21T13:28:21Z</time>
      </trkpt>
      <trkpt lat="49.75343" lon="2.12079">
        <ele>122.8</ele>
        <time>2023-06-21T13:28:22Z</time>
      </trkpt>
      <trkpt lat="49.75344" lon="2.12076">
        <ele>122.9</ele>
        <time>2023-06-21T13:28:23Z</time>
      </trkpt>
      <trkpt lat="49.75345" lon="2.12074">
        <ele>122.9</ele>
        <time>2023-06-21T13:28:25Z</time>
      </trkpt>
      <trkpt lat="49.75346" lon="2.12072">
        <ele>122.9</ele>
        <time>2023-06-21T13:28:26Z</time>
      </trkpt>
      <trkpt lat="49.75346" lon="2.12071">
        <ele>122.9</ele>
        <time>2023-06-21T13:28:27Z</time>
      </trkpt>
      <trkpt lat="49.75347" lon="2.1207">
        <ele>122.9</ele>
        <time>2023-06-21T13:28:28Z</time>
      </trkpt>
      <trkpt lat="49.75347" lon="2.12067">
        <ele>122.9</ele>
        <time>2023-06-21T13:28:29Z</time>
      </trkpt>
      <trkpt lat="49.75348" lon="2.12066">
        <ele>122.9</ele>
        <time>2023-06-21T13:28:30Z</time>
      </trkpt>
      <trkpt lat="49.75348" lon="2.12065">
        <ele>122.9</ele>
        <time>2023-06-21T13:28:31Z</time>
      </trkpt>
      <trkpt lat="49.75349" lon="2.12063">
        <ele>122.9</ele>
        <time>2023-06-21T13:28:32Z</time>
      </trkpt>
      <trkpt lat="49.7535" lon="2.12061">
        <ele>123</ele>
        <time>2023-06-21T13:28:34Z</time>
      </trkpt>
      <trkpt lat="49.7535" lon="2.1206">
        <ele>123</ele>
        <time>2023-06-21T13:28:35Z</time>
      </trkpt>
      <trkpt lat="49.75351" lon="2.12057">
        <ele>123</ele>
        <time>2023-06-21T13:28:36Z</time>
      </trkpt>
      <trkpt lat="49.75352" lon="2.12056">
        <ele>123</ele>
        <time>2023-06-21T13:28:37Z</time>
      </trkpt>
      <trkpt lat="49.75352" lon="2.12054">
        <ele>123</ele>
        <time>2023-06-21T13:28:38Z</time>
      </trkpt>
      <trkpt lat="49.75352" lon="2.12053">
        <ele>123.1</ele>
        <time>2023-06-21T13:28:39Z</time>
      </trkpt>
      <trkpt lat="49.75353" lon="2.12051">
        <ele>123.1</ele>
        <time>2023-06-21T13:28:41Z</time>
      </trkpt>
      <trkpt lat="49.75353" lon="2.1205">
        <ele>123.1</ele>
        <time>2023-06-21T13:28:42Z</time>
      </trkpt>
      <trkpt lat="49.75354" lon="2.12047">
        <ele>123.1</ele>
        <time>2023-06-21T13:28:43Z</time>
      </trkpt>
      <trkpt lat="49.75354" lon="2.12046">
        <ele>123.1</ele>
        <time>2023-06-21T13:28:44Z</time>
      </trkpt>
      <trkpt lat="49.75355" lon="2.12044">
        <ele>123.2</ele>
        <time>2023-06-21T13:28:45Z</time>
      </trkpt>
      <trkpt lat="49.75355" lon="2.12042">
        <ele>123.2</ele>
        <time>2023-06-21T13:28:46Z</time>
      </trkpt>
      <trkpt lat="49.75355" lon="2.12042">
        <ele>123.2</ele>
        <time>2023-06-21T13:28:48Z</time>
      </trkpt>
      <trkpt lat="49.75356" lon="2.1204">
        <ele>123.2</ele>
        <time>2023-06-21T13:28:49Z</time>
      </trkpt>
      <trkpt lat="49.75357" lon="2.12037">
        <ele>123.3</ele>
        <time>2023-06-21T13:28:50Z</time>
      </trkpt>
      <trkpt lat="49.75357" lon="2.12036">
        <ele>123.3</ele>
        <time>2023-06-21T13:28:51Z</time>
      </trkpt>
      <trkpt lat="49.75357" lon="2.12035">
        <ele>123.3</ele>
        <time>2023-06-21T13:28:52Z</time>
      </trkpt>
      <trkpt lat="49.75358" lon="2.12033">
        <ele>123.3</ele>
        <time>2023-06-21T13:28:53Z</time>
      </trkpt>
      <trkpt lat="49.75358" lon="2.12031">
        <ele>123.3</ele>
        <time>2023-06-21T13:28:54Z</time>
      </trkpt>
      <trkpt lat="49.75359" lon="2.1203">
        <ele>123.4</ele>
        <time>2023-06-21T13:28:56Z</time>
      </trkpt>
      <trkpt lat="49.7536" lon="2.12027">
        <ele>123.4</ele>
        <time>2023-06-21T13:28:57Z</time>
      </trkpt>
      <trkpt lat="49.7536" lon="2.12026">
        <ele>123.4</ele>
        <time>2023-06-21T13:28:58Z</time>
      </trkpt>
      <trkpt lat="49.75361" lon="2.12025">
        <ele>123.4</ele>
        <time>2023-06-21T13:28:59Z</time>
      </trkpt>
      <trkpt lat="49.75361" lon="2.12023">
        <ele>123.5</ele>
        <time>2023-06-21T13:29:00Z</time>
      </trkpt>
      <trkpt lat="49.75362" lon="2.12022">
        <ele>123.5</ele>
        <time>2023-06-21T13:29:01Z</time>
      </trkpt>
      <trkpt lat="49.75362" lon="2.1202">
        <ele>123.5</ele>
        <time>2023-06-21T13:29:02Z</time>
      </trkpt>
      <trkpt lat="49.75363" lon="2.12017">
        <ele>123.6</ele>
        <time>2023-06-21T13:29:04Z</time>
      </trkpt>
      <trkpt lat="49.75364" lon="2.12016">
        <ele>123.6</ele>
        <time>2023-06-21T13:29:06Z</time>
      </trkpt>
      <trkpt lat="49.75364" lon="2.12014">
        <ele>123.6</ele>
        <time>2023-06-21T13:29:07Z</time>
      </trkpt>
      <trkpt lat="49.75364" lon="2.12012">
        <ele>123.6</ele>
        <time>2023-06-21T13:29:08Z</time>
      </trkpt>
      <trkpt lat="49.75365" lon="2.12011">
        <ele>123.6</ele>
        <time>2023-06-21T13:29:09Z</time>
      </trkpt>
      <trkpt lat="49.75365" lon="2.1201">
        <ele>123.6</ele>
        <time>2023-06-21T13:29:10Z</time>
      </trkpt>
      <trkpt lat="49.75366" lon="2.12007">
        <ele>123.7</ele>
        <time>2023-06-21T13:29:12Z</time>
      </trkpt>
      <trkpt lat="49.75366" lon="2.12006">
        <ele>123.7</ele>
        <time>2023-06-21T13:29:13Z</time>
      </trkpt>
      <trkpt lat="49.75366" lon="2.12004">
        <ele>123.7</ele>
        <time>2023-06-21T13:29:14Z</time>
      </trkpt>
      <trkpt lat="49.75367" lon="2.12002">
        <ele>123.7</ele>
        <time>2023-06-21T13:29:15Z</time>
      </trkpt>
      <trkpt lat="49.75367" lon="2.12001">
        <ele>123.7</ele>
        <time>2023-06-21T13:29:17Z</time>
      </trkpt>
      <trkpt lat="49.75367" lon="2.12">
        <ele>123.7</ele>
        <time>2023-06-21T13:29:18Z</time>
      </trkpt>
      <trkpt lat="49.75368" lon="2.11998">
        <ele>123.7</ele>
        <time>2023-06-21T13:29:19Z</time>
      </trkpt>
      <trkpt lat="49.75368" lon="2.11997">
        <ele>123.8</ele>
        <time>2023-06-21T13:29:20Z</time>
      </trkpt>
      <trkpt lat="49.75368" lon="2.11995">
        <ele>123.8</ele>
        <time>2023-06-21T13:29:21Z</time>
      </trkpt>
      <trkpt lat="49.75369" lon="2.11992">
        <ele>123.8</ele>
        <time>2023-06-21T13:29:23Z</time>
      </trkpt>
      <trkpt lat="49.7537" lon="2.11989">
        <ele>123.8</ele>
        <time>2023-06-21T13:29:24Z</time>
      </trkpt>
      <trkpt lat="49.75371" lon="2.11987">
        <ele>123.8</ele>
        <time>2023-06-21T13:29:26Z</time>
      </trkpt>
      <trkpt lat="49.75371" lon="2.11986">
        <ele>123.8</ele>
        <time>2023-06-21T13:29:27Z</time>
      </trkpt>
      <trkpt lat="49.75372" lon="2.11984">
        <ele>123.9</ele>
        <time>2023-06-21T13:29:28Z</time>
      </trkpt>
      <trkpt lat="49.75373" lon="2.11983">
        <ele>123.9</ele>
        <time>2023-06-21T13:29:29Z</time>
      </trkpt>
      <trkpt lat="49.75373" lon="2.11981">
        <ele>123.9</ele>
        <time>2023-06-21T13:29:31Z</time>
      </trkpt>
      <trkpt lat="49.75374" lon="2.11979">
        <ele>123.9</ele>
        <time>2023-06-21T13:29:32Z</time>
      </trkpt>
      <trkpt lat="49.75374" lon="2.11977">
        <ele>123.9</ele>
        <time>2023-06-21T13:29:33Z</time>
      </trkpt>
      <trkpt lat="49.75375" lon="2.11974">
        <ele>123.9</ele>
        <time>2023-06-21T13:29:34Z</time>
      </trkpt>
      <trkpt lat="49.75376" lon="2.11971">
        <ele>123.9</ele>
        <time>2023-06-21T13:29:36Z</time>
      </trkpt>
      <trkpt lat="49.75377" lon="2.1197">
        <ele>124</ele>
        <time>2023-06-21T13:29:37Z</time>
      </trkpt>
      <trkpt lat="49.75377" lon="2.11969">
        <ele>124</ele>
        <time>2023-06-21T13:29:38Z</time>
      </trkpt>
      <trkpt lat="49.75377" lon="2.11967">
        <ele>124</ele>
        <time>2023-06-21T13:29:40Z</time>
      </trkpt>
      <trkpt lat="49.75378" lon="2.11966">
        <ele>124</ele>
        <time>2023-06-21T13:29:41Z</time>
      </trkpt>
      <trkpt lat="49.75378" lon="2.11965">
        <ele>124</ele>
        <time>2023-06-21T13:29:42Z</time>
      </trkpt>
      <trkpt lat="49.75379" lon="2.11964">
        <ele>124</ele>
        <time>2023-06-21T13:29:43Z</time>
      </trkpt>
      <trkpt lat="49.75379" lon="2.11962">
        <ele>124</ele>
        <time>2023-06-21T13:29:44Z</time>
      </trkpt>
      <trkpt lat="49.7538" lon="2.1196">
        <ele>124</ele>
        <time>2023-06-21T13:29:45Z</time>
      </trkpt>
      <trkpt lat="49.7538" lon="2.11958">
        <ele>124</ele>
        <time>2023-06-21T13:29:47Z</time>
      </trkpt>
      <trkpt lat="49.75381" lon="2.11957">
        <ele>124</ele>
        <time>2023-06-21T13:29:48Z</time>
      </trkpt>
      <trkpt lat="49.75381" lon="2.11956">
        <ele>124</ele>
        <time>2023-06-21T13:29:49Z</time>
      </trkpt>
      <trkpt lat="49.75382" lon="2.11954">
        <ele>124</ele>
        <time>2023-06-21T13:29:50Z</time>
      </trkpt>
      <trkpt lat="49.75383" lon="2.11953">
        <ele>124</ele>
        <time>2023-06-21T13:29:51Z</time>
      </trkpt>
      <trkpt lat="49.75383" lon="2.11951">
        <ele>124</ele>
        <time>2023-06-21T13:29:52Z</time>
      </trkpt>
      <trkpt lat="49.75384" lon="2.1195">
        <ele>124</ele>
        <time>2023-06-21T13:29:53Z</time>
      </trkpt>
      <trkpt lat="49.75384" lon="2.11948">
        <ele>124</ele>
        <time>2023-06-21T13:29:54Z</time>
      </trkpt>
      <trkpt lat="49.75385" lon="2.11947">
        <ele>124</ele>
        <time>2023-06-21T13:29:56Z</time>
      </trkpt>
      <trkpt lat="49.75385" lon="2.11945">
        <ele>124</ele>
        <time>2023-06-21T13:29:57Z</time>
      </trkpt>
      <trkpt lat="49.75386" lon="2.11944">
        <ele>124</ele>
        <time>2023-06-21T13:29:58Z</time>
      </trkpt>
      <trkpt lat="49.75387" lon="2.11943">
        <ele>124</ele>
        <time>2023-06-21T13:29:59Z</time>
      </trkpt>
      <trkpt lat="49.75388" lon="2.11942">
        <ele>124</ele>
        <time>2023-06-21T13:30:00Z</time>
      </trkpt>
      <trkpt lat="49.75389" lon="2.11942">
        <ele>123.9</ele>
        <time>2023-06-21T13:30:01Z</time>
      </trkpt>
      <trkpt lat="49.75389" lon="2.1194">
        <ele>123.9</ele>
        <time>2023-06-21T13:30:02Z</time>
      </trkpt>
      <trkpt lat="49.7539" lon="2.11939">
        <ele>123.9</ele>
        <time>2023-06-21T13:30:03Z</time>
      </trkpt>
      <trkpt lat="49.75391" lon="2.11937">
        <ele>123.9</ele>
        <time>2023-06-21T13:30:05Z</time>
      </trkpt>
      <trkpt lat="49.75392" lon="2.11936">
        <ele>123.9</ele>
        <time>2023-06-21T13:30:06Z</time>
      </trkpt>
      <trkpt lat="49.75393" lon="2.11933">
        <ele>123.9</ele>
        <time>2023-06-21T13:30:07Z</time>
      </trkpt>
      <trkpt lat="49.75394" lon="2.11929">
        <ele>123.8</ele>
        <time>2023-06-21T13:30:09Z</time>
      </trkpt>
      <trkpt lat="49.75395" lon="2.11929">
        <ele>123.8</ele>
        <time>2023-06-21T13:30:10Z</time>
      </trkpt>
      <trkpt lat="49.75395" lon="2.11927">
        <ele>123.8</ele>
        <time>2023-06-21T13:30:11Z</time>
      </trkpt>
      <trkpt lat="49.75396" lon="2.11925">
        <ele>123.7</ele>
        <time>2023-06-21T13:30:12Z</time>
      </trkpt>
      <trkpt lat="49.75397" lon="2.11923">
        <ele>123.7</ele>
        <time>2023-06-21T13:30:13Z</time>
      </trkpt>
      <trkpt lat="49.75398" lon="2.11921">
        <ele>123.6</ele>
        <time>2023-06-21T13:30:14Z</time>
      </trkpt>
      <trkpt lat="49.75399" lon="2.11919">
        <ele>123.6</ele>
        <time>2023-06-21T13:30:15Z</time>
      </trkpt>
      <trkpt lat="49.75399" lon="2.11918">
        <ele>123.6</ele>
        <time>2023-06-21T13:30:17Z</time>
      </trkpt>
      <trkpt lat="49.754" lon="2.11916">
        <ele>123.6</ele>
        <time>2023-06-21T13:30:18Z</time>
      </trkpt>
      <trkpt lat="49.754" lon="2.11914">
        <ele>123.5</ele>
        <time>2023-06-21T13:30:19Z</time>
      </trkpt>
      <trkpt lat="49.75401" lon="2.11913">
        <ele>123.5</ele>
        <time>2023-06-21T13:30:20Z</time>
      </trkpt>
      <trkpt lat="49.75402" lon="2.11909">
        <ele>123.4</ele>
        <time>2023-06-21T13:30:22Z</time>
      </trkpt>
      <trkpt lat="49.75403" lon="2.11907">
        <ele>123.4</ele>
        <time>2023-06-21T13:30:23Z</time>
      </trkpt>
      <trkpt lat="49.75403" lon="2.11905">
        <ele>123.3</ele>
        <time>2023-06-21T13:30:24Z</time>
      </trkpt>
      <trkpt lat="49.75404" lon="2.11904">
        <ele>123.3</ele>
        <time>2023-06-21T13:30:25Z</time>
      </trkpt>
      <trkpt lat="49.75405" lon="2.11902">
        <ele>123.2</ele>
        <time>2023-06-21T13:30:26Z</time>
      </trkpt>
      <trkpt lat="49.75406" lon="2.119">
        <ele>123.2</ele>
        <time>2023-06-21T13:30:28Z</time>
      </trkpt>
      <trkpt lat="49.75406" lon="2.11897">
        <ele>123.1</ele>
        <time>2023-06-21T13:30:29Z</time>
      </trkpt>
      <trkpt lat="49.75407" lon="2.11895">
        <ele>123</ele>
        <time>2023-06-21T13:30:30Z</time>
      </trkpt>
      <trkpt lat="49.75408" lon="2.11893">
        <ele>123</ele>
        <time>2023-06-21T13:30:31Z</time>
      </trkpt>
      <trkpt lat="49.75408" lon="2.1189">
        <ele>122.9</ele>
        <time>2023-06-21T13:30:32Z</time>
      </trkpt>
      <trkpt lat="49.75408" lon="2.11887">
        <ele>122.8</ele>
        <time>2023-06-21T13:30:34Z</time>
      </trkpt>
      <trkpt lat="49.75409" lon="2.11885">
        <ele>122.8</ele>
        <time>2023-06-21T13:30:35Z</time>
      </trkpt>
      <trkpt lat="49.7541" lon="2.11884">
        <ele>122.7</ele>
        <time>2023-06-21T13:30:36Z</time>
      </trkpt>
      <trkpt lat="49.7541" lon="2.11883">
        <ele>122.7</ele>
        <time>2023-06-21T13:30:38Z</time>
      </trkpt>
      <trkpt lat="49.75411" lon="2.11881">
        <ele>122.6</ele>
        <time>2023-06-21T13:30:39Z</time>
      </trkpt>
      <trkpt lat="49.75411" lon="2.11881">
        <ele>122.6</ele>
        <time>2023-06-21T13:30:40Z</time>
      </trkpt>
      <trkpt lat="49.75412" lon="2.11879">
        <ele>122.5</ele>
        <time>2023-06-21T13:30:41Z</time>
      </trkpt>
      <trkpt lat="49.75414" lon="2.11877">
        <ele>122.4</ele>
        <time>2023-06-21T13:30:42Z</time>
      </trkpt>
      <trkpt lat="49.75414" lon="2.11875">
        <ele>122.4</ele>
        <time>2023-06-21T13:30:43Z</time>
      </trkpt>
      <trkpt lat="49.75415" lon="2.11874">
        <ele>122.3</ele>
        <time>2023-06-21T13:30:44Z</time>
      </trkpt>
      <trkpt lat="49.75416" lon="2.11872">
        <ele>122.2</ele>
        <time>2023-06-21T13:30:45Z</time>
      </trkpt>
      <trkpt lat="49.75417" lon="2.11871">
        <ele>122.2</ele>
        <time>2023-06-21T13:30:46Z</time>
      </trkpt>
      <trkpt lat="49.75417" lon="2.11869">
        <ele>122.1</ele>
        <time>2023-06-21T13:30:48Z</time>
      </trkpt>
      <trkpt lat="49.75418" lon="2.11868">
        <ele>122.1</ele>
        <time>2023-06-21T13:30:49Z</time>
      </trkpt>
      <trkpt lat="49.75419" lon="2.11867">
        <ele>122</ele>
        <time>2023-06-21T13:30:50Z</time>
      </trkpt>
      <trkpt lat="49.75419" lon="2.11865">
        <ele>122</ele>
        <time>2023-06-21T13:30:51Z</time>
      </trkpt>
      <trkpt lat="49.7542" lon="2.11864">
        <ele>121.9</ele>
        <time>2023-06-21T13:30:52Z</time>
      </trkpt>
      <trkpt lat="49.75421" lon="2.11861">
        <ele>121.8</ele>
        <time>2023-06-21T13:30:54Z</time>
      </trkpt>
      <trkpt lat="49.75421" lon="2.11859">
        <ele>121.7</ele>
        <time>2023-06-21T13:30:55Z</time>
      </trkpt>
      <trkpt lat="49.75422" lon="2.11857">
        <ele>121.7</ele>
        <time>2023-06-21T13:30:57Z</time>
      </trkpt>
      <trkpt lat="49.75423" lon="2.11855">
        <ele>121.6</ele>
        <time>2023-06-21T13:30:58Z</time>
      </trkpt>
      <trkpt lat="49.75423" lon="2.11853">
        <ele>121.6</ele>
        <time>2023-06-21T13:30:59Z</time>
      </trkpt>
      <trkpt lat="49.75424" lon="2.11851">
        <ele>121.5</ele>
        <time>2023-06-21T13:31:00Z</time>
      </trkpt>
      <trkpt lat="49.75425" lon="2.11849">
        <ele>121.4</ele>
        <time>2023-06-21T13:31:01Z</time>
      </trkpt>
      <trkpt lat="49.75426" lon="2.11847">
        <ele>121.3</ele>
        <time>2023-06-21T13:31:02Z</time>
      </trkpt>
      <trkpt lat="49.75426" lon="2.11845">
        <ele>121.3</ele>
        <time>2023-06-21T13:31:03Z</time>
      </trkpt>
      <trkpt lat="49.75427" lon="2.11843">
        <ele>121.2</ele>
        <time>2023-06-21T13:31:04Z</time>
      </trkpt>
      <trkpt lat="49.75427" lon="2.11842">
        <ele>121.2</ele>
        <time>2023-06-21T13:31:05Z</time>
      </trkpt>
      <trkpt lat="49.75428" lon="2.11841">
        <ele>121.2</ele>
        <time>2023-06-21T13:31:06Z</time>
      </trkpt>
      <trkpt lat="49.75429" lon="2.11838">
        <ele>121.1</ele>
        <time>2023-06-21T13:31:08Z</time>
      </trkpt>
      <trkpt lat="49.75429" lon="2.11837">
        <ele>121.1</ele>
        <time>2023-06-21T13:31:09Z</time>
      </trkpt>
      <trkpt lat="49.7543" lon="2.11835">
        <ele>121</ele>
        <time>2023-06-21T13:31:10Z</time>
      </trkpt>
      <trkpt lat="49.7543" lon="2.11834">
        <ele>121</ele>
        <time>2023-06-21T13:31:12Z</time>
      </trkpt>
      <trkpt lat="49.75431" lon="2.11833">
        <ele>120.9</ele>
        <time>2023-06-21T13:31:13Z</time>
      </trkpt>
      <trkpt lat="49.75431" lon="2.11832">
        <ele>120.9</ele>
        <time>2023-06-21T13:31:14Z</time>
      </trkpt>
      <trkpt lat="49.75432" lon="2.11831">
        <ele>120.9</ele>
        <time>2023-06-21T13:31:15Z</time>
      </trkpt>
      <trkpt lat="49.75433" lon="2.11829">
        <ele>120.8</ele>
        <time>2023-06-21T13:31:16Z</time>
      </trkpt>
      <trkpt lat="49.75433" lon="2.11828">
        <ele>120.8</ele>
        <time>2023-06-21T13:31:17Z</time>
      </trkpt>
      <trkpt lat="49.75434" lon="2.11827">
        <ele>120.8</ele>
        <time>2023-06-21T13:31:18Z</time>
      </trkpt>
      <trkpt lat="49.75435" lon="2.11825">
        <ele>120.7</ele>
        <time>2023-06-21T13:31:19Z</time>
      </trkpt>
      <trkpt lat="49.75435" lon="2.11824">
        <ele>120.7</ele>
        <time>2023-06-21T13:31:21Z</time>
      </trkpt>
      <trkpt lat="49.75436" lon="2.11823">
        <ele>120.6</ele>
        <time>2023-06-21T13:31:22Z</time>
      </trkpt>
      <trkpt lat="49.75436" lon="2.11822">
        <ele>120.6</ele>
        <time>2023-06-21T13:31:23Z</time>
      </trkpt>
      <trkpt lat="49.75437" lon="2.11821">
        <ele>120.6</ele>
        <time>2023-06-21T13:31:24Z</time>
      </trkpt>
      <trkpt lat="49.75438" lon="2.11819">
        <ele>120.5</ele>
        <time>2023-06-21T13:31:25Z</time>
      </trkpt>
      <trkpt lat="49.75439" lon="2.11817">
        <ele>120.5</ele>
        <time>2023-06-21T13:31:26Z</time>
      </trkpt>
      <trkpt lat="49.75439" lon="2.11816">
        <ele>120.4</ele>
        <time>2023-06-21T13:31:28Z</time>
      </trkpt>
      <trkpt lat="49.7544" lon="2.11816">
        <ele>120.4</ele>
        <time>2023-06-21T13:31:29Z</time>
      </trkpt>
      <trkpt lat="49.7544" lon="2.11815">
        <ele>120.4</ele>
        <time>2023-06-21T13:31:30Z</time>
      </trkpt>
      <trkpt lat="49.75441" lon="2.11814">
        <ele>120.3</ele>
        <time>2023-06-21T13:31:31Z</time>
      </trkpt>
      <trkpt lat="49.75442" lon="2.11812">
        <ele>120.3</ele>
        <time>2023-06-21T13:31:32Z</time>
      </trkpt>
      <trkpt lat="49.75443" lon="2.1181">
        <ele>120.2</ele>
        <time>2023-06-21T13:31:33Z</time>
      </trkpt>
      <trkpt lat="49.75444" lon="2.11808">
        <ele>120.1</ele>
        <time>2023-06-21T13:31:35Z</time>
      </trkpt>
      <trkpt lat="49.75444" lon="2.11806">
        <ele>120.1</ele>
        <time>2023-06-21T13:31:36Z</time>
      </trkpt>
      <trkpt lat="49.75445" lon="2.11805">
        <ele>120</ele>
        <time>2023-06-21T13:31:37Z</time>
      </trkpt>
      <trkpt lat="49.75445" lon="2.11804">
        <ele>120</ele>
        <time>2023-06-21T13:31:38Z</time>
      </trkpt>
      <trkpt lat="49.75446" lon="2.11802">
        <ele>119.9</ele>
        <time>2023-06-21T13:31:39Z</time>
      </trkpt>
      <trkpt lat="49.75447" lon="2.118">
        <ele>119.9</ele>
        <time>2023-06-21T13:31:40Z</time>
      </trkpt>
      <trkpt lat="49.75447" lon="2.11799">
        <ele>119.8</ele>
        <time>2023-06-21T13:31:42Z</time>
      </trkpt>
      <trkpt lat="49.75448" lon="2.11796">
        <ele>119.7</ele>
        <time>2023-06-21T13:31:43Z</time>
      </trkpt>
      <trkpt lat="49.75449" lon="2.11795">
        <ele>119.7</ele>
        <time>2023-06-21T13:31:44Z</time>
      </trkpt>
      <trkpt lat="49.75449" lon="2.11793">
        <ele>119.7</ele>
        <time>2023-06-21T13:31:45Z</time>
      </trkpt>
      <trkpt lat="49.75451" lon="2.1179">
        <ele>119.5</ele>
        <time>2023-06-21T13:31:47Z</time>
      </trkpt>
      <trkpt lat="49.75451" lon="2.11788">
        <ele>119.5</ele>
        <time>2023-06-21T13:31:49Z</time>
      </trkpt>
      <trkpt lat="49.75452" lon="2.11787">
        <ele>119.5</ele>
        <time>2023-06-21T13:31:50Z</time>
      </trkpt>
      <trkpt lat="49.75452" lon="2.11786">
        <ele>119.4</ele>
        <time>2023-06-21T13:31:51Z</time>
      </trkpt>
      <trkpt lat="49.75453" lon="2.11784">
        <ele>119.4</ele>
        <time>2023-06-21T13:31:52Z</time>
      </trkpt>
      <trkpt lat="49.75454" lon="2.11783">
        <ele>119.3</ele>
        <time>2023-06-21T13:31:53Z</time>
      </trkpt>
      <trkpt lat="49.75455" lon="2.1178">
        <ele>119.2</ele>
        <time>2023-06-21T13:31:55Z</time>
      </trkpt>
      <trkpt lat="49.75455" lon="2.11779">
        <ele>119.2</ele>
        <time>2023-06-21T13:31:56Z</time>
      </trkpt>
      <trkpt lat="49.75456" lon="2.11778">
        <ele>119.1</ele>
        <time>2023-06-21T13:31:57Z</time>
      </trkpt>
      <trkpt lat="49.75456" lon="2.11776">
        <ele>119.1</ele>
        <time>2023-06-21T13:31:58Z</time>
      </trkpt>
      <trkpt lat="49.75458" lon="2.11774">
        <ele>119</ele>
        <time>2023-06-21T13:32:00Z</time>
      </trkpt>
      <trkpt lat="49.75459" lon="2.11773">
        <ele>119</ele>
        <time>2023-06-21T13:32:02Z</time>
      </trkpt>
      <trkpt lat="49.75459" lon="2.11771">
        <ele>118.9</ele>
        <time>2023-06-21T13:32:03Z</time>
      </trkpt>
      <trkpt lat="49.75459" lon="2.1177">
        <ele>118.9</ele>
        <time>2023-06-21T13:32:04Z</time>
      </trkpt>
      <trkpt lat="49.7546" lon="2.11769">
        <ele>118.8</ele>
        <time>2023-06-21T13:32:05Z</time>
      </trkpt>
      <trkpt lat="49.75461" lon="2.11768">
        <ele>118.8</ele>
        <time>2023-06-21T13:32:06Z</time>
      </trkpt>
      <trkpt lat="49.75461" lon="2.11767">
        <ele>118.8</ele>
        <time>2023-06-21T13:32:07Z</time>
      </trkpt>
      <trkpt lat="49.75461" lon="2.11766">
        <ele>118.8</ele>
        <time>2023-06-21T13:32:08Z</time>
      </trkpt>
      <trkpt lat="49.75462" lon="2.11765">
        <ele>118.7</ele>
        <time>2023-06-21T13:32:10Z</time>
      </trkpt>
      <trkpt lat="49.75463" lon="2.11763">
        <ele>118.7</ele>
        <time>2023-06-21T13:32:11Z</time>
      </trkpt>
      <trkpt lat="49.75463" lon="2.11762">
        <ele>118.6</ele>
        <time>2023-06-21T13:32:12Z</time>
      </trkpt>
      <trkpt lat="49.75464" lon="2.11761">
        <ele>118.6</ele>
        <time>2023-06-21T13:32:13Z</time>
      </trkpt>
      <trkpt lat="49.75464" lon="2.11759">
        <ele>118.5</ele>
        <time>2023-06-21T13:32:14Z</time>
      </trkpt>
      <trkpt lat="49.75465" lon="2.11758">
        <ele>118.5</ele>
        <time>2023-06-21T13:32:15Z</time>
      </trkpt>
      <trkpt lat="49.75466" lon="2.11757">
        <ele>118.4</ele>
        <time>2023-06-21T13:32:17Z</time>
      </trkpt>
      <trkpt lat="49.75467" lon="2.11755">
        <ele>118.4</ele>
        <time>2023-06-21T13:32:18Z</time>
      </trkpt>
      <trkpt lat="49.75467" lon="2.11754">
        <ele>118.3</ele>
        <time>2023-06-21T13:32:19Z</time>
      </trkpt>
      <trkpt lat="49.75468" lon="2.11752">
        <ele>118.3</ele>
        <time>2023-06-21T13:32:20Z</time>
      </trkpt>
      <trkpt lat="49.75469" lon="2.1175">
        <ele>118.2</ele>
        <time>2023-06-21T13:32:21Z</time>
      </trkpt>
      <trkpt lat="49.7547" lon="2.11749">
        <ele>118.2</ele>
        <time>2023-06-21T13:32:22Z</time>
      </trkpt>
      <trkpt lat="49.75471" lon="2.11747">
        <ele>118.1</ele>
        <time>2023-06-21T13:32:23Z</time>
      </trkpt>
      <trkpt lat="49.75472" lon="2.11745">
        <ele>118</ele>
        <time>2023-06-21T13:32:25Z</time>
      </trkpt>
      <trkpt lat="49.75473" lon="2.11743">
        <ele>118</ele>
        <time>2023-06-21T13:32:26Z</time>
      </trkpt>
      <trkpt lat="49.75474" lon="2.11742">
        <ele>118</ele>
        <time>2023-06-21T13:32:27Z</time>
      </trkpt>
      <trkpt lat="49.75474" lon="2.11741">
        <ele>117.9</ele>
        <time>2023-06-21T13:32:28Z</time>
      </trkpt>
      <trkpt lat="49.75475" lon="2.11739">
        <ele>117.9</ele>
        <time>2023-06-21T13:32:30Z</time>
      </trkpt>
      <trkpt lat="49.75476" lon="2.11738">
        <ele>117.8</ele>
        <time>2023-06-21T13:32:31Z</time>
      </trkpt>
      <trkpt lat="49.75476" lon="2.11737">
        <ele>117.8</ele>
        <time>2023-06-21T13:32:32Z</time>
      </trkpt>
      <trkpt lat="49.75477" lon="2.11735">
        <ele>117.7</ele>
        <time>2023-06-21T13:32:33Z</time>
      </trkpt>
      <trkpt lat="49.75478" lon="2.11734">
        <ele>117.7</ele>
        <time>2023-06-21T13:32:34Z</time>
      </trkpt>
      <trkpt lat="49.75479" lon="2.11732">
        <ele>117.7</ele>
        <time>2023-06-21T13:32:35Z</time>
      </trkpt>
      <trkpt lat="49.7548" lon="2.1173">
        <ele>117.6</ele>
        <time>2023-06-21T13:32:37Z</time>
      </trkpt>
      <trkpt lat="49.75481" lon="2.11728">
        <ele>117.6</ele>
        <time>2023-06-21T13:32:39Z</time>
      </trkpt>
      <trkpt lat="49.75482" lon="2.11727">
        <ele>117.5</ele>
        <time>2023-06-21T13:32:40Z</time>
      </trkpt>
      <trkpt lat="49.75482" lon="2.11727">
        <ele>117.5</ele>
        <time>2023-06-21T13:32:41Z</time>
      </trkpt>
      <trkpt lat="49.75483" lon="2.11725">
        <ele>117.5</ele>
        <time>2023-06-21T13:32:42Z</time>
      </trkpt>
      <trkpt lat="49.75484" lon="2.11724">
        <ele>117.4</ele>
        <time>2023-06-21T13:32:43Z</time>
      </trkpt>
      <trkpt lat="49.75485" lon="2.11722">
        <ele>117.4</ele>
        <time>2023-06-21T13:32:45Z</time>
      </trkpt>
      <trkpt lat="49.75485" lon="2.1172">
        <ele>117.4</ele>
        <time>2023-06-21T13:32:46Z</time>
      </trkpt>
      <trkpt lat="49.75486" lon="2.11719">
        <ele>117.3</ele>
        <time>2023-06-21T13:32:47Z</time>
      </trkpt>
      <trkpt lat="49.75487" lon="2.11718">
        <ele>117.3</ele>
        <time>2023-06-21T13:32:48Z</time>
      </trkpt>
      <trkpt lat="49.75487" lon="2.11716">
        <ele>117.3</ele>
        <time>2023-06-21T13:32:49Z</time>
      </trkpt>
      <trkpt lat="49.75488" lon="2.11715">
        <ele>117.2</ele>
        <time>2023-06-21T13:32:50Z</time>
      </trkpt>
      <trkpt lat="49.75488" lon="2.11714">
        <ele>117.2</ele>
        <time>2023-06-21T13:32:51Z</time>
      </trkpt>
      <trkpt lat="49.7549" lon="2.11712">
        <ele>117.1</ele>
        <time>2023-06-21T13:32:53Z</time>
      </trkpt>
      <trkpt lat="49.75491" lon="2.11709">
        <ele>117.1</ele>
        <time>2023-06-21T13:32:55Z</time>
      </trkpt>
      <trkpt lat="49.75492" lon="2.11708">
        <ele>117</ele>
        <time>2023-06-21T13:32:56Z</time>
      </trkpt>
      <trkpt lat="49.75493" lon="2.11706">
        <ele>117</ele>
        <time>2023-06-21T13:32:57Z</time>
      </trkpt>
      <trkpt lat="49.75493" lon="2.11705">
        <ele>116.9</ele>
        <time>2023-06-21T13:32:58Z</time>
      </trkpt>
      <trkpt lat="49.75494" lon="2.11702">
        <ele>116.9</ele>
        <time>2023-06-21T13:33:00Z</time>
      </trkpt>
      <trkpt lat="49.75494" lon="2.11701">
        <ele>116.9</ele>
        <time>2023-06-21T13:33:01Z</time>
      </trkpt>
      <trkpt lat="49.75495" lon="2.11699">
        <ele>116.9</ele>
        <time>2023-06-21T13:33:02Z</time>
      </trkpt>
      <trkpt lat="49.75496" lon="2.11697">
        <ele>116.9</ele>
        <time>2023-06-21T13:33:03Z</time>
      </trkpt>
      <trkpt lat="49.75496" lon="2.11696">
        <ele>116.9</ele>
        <time>2023-06-21T13:33:04Z</time>
      </trkpt>
      <trkpt lat="49.75498" lon="2.11693">
        <ele>116.9</ele>
        <time>2023-06-21T13:33:06Z</time>
      </trkpt>
      <trkpt lat="49.75498" lon="2.11691">
        <ele>116.9</ele>
        <time>2023-06-21T13:33:07Z</time>
      </trkpt>
      <trkpt lat="49.75499" lon="2.1169">
        <ele>116.9</ele>
        <time>2023-06-21T13:33:08Z</time>
      </trkpt>
      <trkpt lat="49.75499" lon="2.11688">
        <ele>116.9</ele>
        <time>2023-06-21T13:33:09Z</time>
      </trkpt>
      <trkpt lat="49.755" lon="2.11685">
        <ele>116.9</ele>
        <time>2023-06-21T13:33:10Z</time>
      </trkpt>
      <trkpt lat="49.755" lon="2.11684">
        <ele>116.9</ele>
        <time>2023-06-21T13:33:11Z</time>
      </trkpt>
      <trkpt lat="49.75501" lon="2.11683">
        <ele>116.9</ele>
        <time>2023-06-21T13:33:12Z</time>
      </trkpt>
      <trkpt lat="49.75501" lon="2.11682">
        <ele>116.9</ele>
        <time>2023-06-21T13:33:14Z</time>
      </trkpt>
      <trkpt lat="49.75502" lon="2.11681">
        <ele>116.9</ele>
        <time>2023-06-21T13:33:15Z</time>
      </trkpt>
      <trkpt lat="49.75502" lon="2.11679">
        <ele>116.8</ele>
        <time>2023-06-21T13:33:16Z</time>
      </trkpt>
      <trkpt lat="49.75503" lon="2.11677">
        <ele>116.8</ele>
        <time>2023-06-21T13:33:17Z</time>
      </trkpt>
      <trkpt lat="49.75503" lon="2.11675">
        <ele>116.7</ele>
        <time>2023-06-21T13:33:18Z</time>
      </trkpt>
      <trkpt lat="49.75504" lon="2.11672">
        <ele>116.7</ele>
        <time>2023-06-21T13:33:19Z</time>
      </trkpt>
      <trkpt lat="49.75504" lon="2.1167">
        <ele>116.6</ele>
        <time>2023-06-21T13:33:21Z</time>
      </trkpt>
      <trkpt lat="49.75504" lon="2.11669">
        <ele>116.6</ele>
        <time>2023-06-21T13:33:22Z</time>
      </trkpt>
      <trkpt lat="49.75504" lon="2.11668">
        <ele>116.5</ele>
        <time>2023-06-21T13:33:23Z</time>
      </trkpt>
      <trkpt lat="49.75504" lon="2.11666">
        <ele>116.5</ele>
        <time>2023-06-21T13:33:25Z</time>
      </trkpt>
      <trkpt lat="49.75504" lon="2.11665">
        <ele>116.5</ele>
        <time>2023-06-21T13:33:27Z</time>
      </trkpt>
      <trkpt lat="49.75503" lon="2.11664">
        <ele>116.4</ele>
        <time>2023-06-21T13:33:28Z</time>
      </trkpt>
      <trkpt lat="49.75502" lon="2.11664">
        <ele>116.4</ele>
        <time>2023-06-21T13:33:30Z</time>
      </trkpt>
      <trkpt lat="49.75501" lon="2.11665">
        <ele>116.4</ele>
        <time>2023-06-21T13:33:31Z</time>
      </trkpt>
      <trkpt lat="49.75501" lon="2.11664">
        <ele>116.3</ele>
        <time>2023-06-21T13:33:33Z</time>
      </trkpt>
      <trkpt lat="49.755" lon="2.11664">
        <ele>116.3</ele>
        <time>2023-06-21T13:33:34Z</time>
      </trkpt>
      <trkpt lat="49.755" lon="2.11664">
        <ele>116.3</ele>
        <time>2023-06-21T13:33:35Z</time>
      </trkpt>
      <trkpt lat="49.755" lon="2.11664">
        <ele>116.3</ele>
        <time>2023-06-21T13:33:37Z</time>
      </trkpt>
      <trkpt lat="49.755" lon="2.11664">
        <ele>116.3</ele>
        <time>2023-06-21T13:33:38Z</time>
      </trkpt>
      <trkpt lat="49.755" lon="2.11665">
        <ele>116.3</ele>
        <time>2023-06-21T13:33:40Z</time>
      </trkpt>
      <trkpt lat="49.755" lon="2.11665">
        <ele>116.3</ele>
        <time>2023-06-21T13:33:41Z</time>
      </trkpt>
      <trkpt lat="49.755" lon="2.11665">
        <ele>116.3</ele>
        <time>2023-06-21T13:33:42Z</time>
      </trkpt>
      <trkpt lat="49.755" lon="2.11666">
        <ele>116.3</ele>
        <time>2023-06-21T13:33:43Z</time>
      </trkpt>
      <trkpt lat="49.755" lon="2.11666">
        <ele>116.3</ele>
        <time>2023-06-21T13:33:45Z</time>
      </trkpt>
      <trkpt lat="49.75501" lon="2.11666">
        <ele>116.2</ele>
        <time>2023-06-21T13:33:46Z</time>
      </trkpt>
      <trkpt lat="49.75501" lon="2.11667">
        <ele>116.2</ele>
        <time>2023-06-21T13:33:47Z</time>
      </trkpt>
      <trkpt lat="49.75502" lon="2.11667">
        <ele>116.2</ele>
        <time>2023-06-21T13:33:48Z</time>
      </trkpt>
      <trkpt lat="49.75504" lon="2.11666">
        <ele>116.1</ele>
        <time>2023-06-21T13:33:49Z</time>
      </trkpt>
      <trkpt lat="49.75505" lon="2.11665">
        <ele>116.1</ele>
        <time>2023-06-21T13:33:51Z</time>
      </trkpt>
      <trkpt lat="49.75505" lon="2.11663">
        <ele>116</ele>
        <time>2023-06-21T13:33:52Z</time>
      </trkpt>
      <trkpt lat="49.75506" lon="2.11662">
        <ele>116</ele>
        <time>2023-06-21T13:33:53Z</time>
      </trkpt>
      <trkpt lat="49.75506" lon="2.11661">
        <ele>116</ele>
        <time>2023-06-21T13:33:54Z</time>
      </trkpt>
      <trkpt lat="49.75507" lon="2.11659">
        <ele>115.9</ele>
        <time>2023-06-21T13:33:55Z</time>
      </trkpt>
      <trkpt lat="49.75507" lon="2.11657">
        <ele>115.9</ele>
        <time>2023-06-21T13:33:56Z</time>
      </trkpt>
      <trkpt lat="49.75508" lon="2.11655">
        <ele>115.9</ele>
        <time>2023-06-21T13:33:58Z</time>
      </trkpt>
      <trkpt lat="49.75509" lon="2.11654">
        <ele>115.8</ele>
        <time>2023-06-21T13:33:59Z</time>
      </trkpt>
      <trkpt lat="49.75509" lon="2.11652">
        <ele>115.8</ele>
        <time>2023-06-21T13:34:00Z</time>
      </trkpt>
      <trkpt lat="49.75509" lon="2.11651">
        <ele>115.8</ele>
        <time>2023-06-21T13:34:01Z</time>
      </trkpt>
      <trkpt lat="49.75509" lon="2.11649">
        <ele>115.7</ele>
        <time>2023-06-21T13:34:02Z</time>
      </trkpt>
      <trkpt lat="49.75509" lon="2.11647">
        <ele>115.7</ele>
        <time>2023-06-21T13:34:04Z</time>
      </trkpt>
      <trkpt lat="49.75509" lon="2.11646">
        <ele>115.7</ele>
        <time>2023-06-21T13:34:05Z</time>
      </trkpt>
      <trkpt lat="49.75509" lon="2.11646">
        <ele>115.7</ele>
        <time>2023-06-21T13:34:07Z</time>
      </trkpt>
      <trkpt lat="49.75509" lon="2.11647">
        <ele>115.7</ele>
        <time>2023-06-21T13:34:08Z</time>
      </trkpt>
      <trkpt lat="49.75509" lon="2.11648">
        <ele>115.6</ele>
        <time>2023-06-21T13:34:09Z</time>
      </trkpt>
      <trkpt lat="49.75509" lon="2.11649">
        <ele>115.6</ele>
        <time>2023-06-21T13:34:11Z</time>
      </trkpt>
      <trkpt lat="49.75509" lon="2.11649">
        <ele>115.6</ele>
        <time>2023-06-21T13:34:12Z</time>
      </trkpt>
      <trkpt lat="49.75509" lon="2.11649">
        <ele>115.6</ele>
        <time>2023-06-21T13:34:13Z</time>
      </trkpt>
      <trkpt lat="49.75509" lon="2.11649">
        <ele>115.6</ele>
        <time>2023-06-21T13:34:14Z</time>
      </trkpt>
      <trkpt lat="49.75509" lon="2.11649">
        <ele>115.6</ele>
        <time>2023-06-21T13:34:16Z</time>
      </trkpt>
      <trkpt lat="49.7551" lon="2.11648">
        <ele>115.6</ele>
        <time>2023-06-21T13:34:17Z</time>
      </trkpt>
      <trkpt lat="49.7551" lon="2.11648">
        <ele>115.6</ele>
        <time>2023-06-21T13:34:18Z</time>
      </trkpt>
      <trkpt lat="49.75511" lon="2.11647">
        <ele>115.6</ele>
        <time>2023-06-21T13:34:19Z</time>
      </trkpt>
      <trkpt lat="49.75511" lon="2.11646">
        <ele>115.5</ele>
        <time>2023-06-21T13:34:20Z</time>
      </trkpt>
      <trkpt lat="49.75512" lon="2.11644">
        <ele>115.5</ele>
        <time>2023-06-21T13:34:21Z</time>
      </trkpt>
      <trkpt lat="49.75513" lon="2.11641">
        <ele>115.5</ele>
        <time>2023-06-21T13:34:22Z</time>
      </trkpt>
      <trkpt lat="49.75515" lon="2.11639">
        <ele>115.4</ele>
        <time>2023-06-21T13:34:24Z</time>
      </trkpt>
      <trkpt lat="49.75515" lon="2.11638">
        <ele>115.4</ele>
        <time>2023-06-21T13:34:25Z</time>
      </trkpt>
      <trkpt lat="49.75515" lon="2.11637">
        <ele>115.4</ele>
        <time>2023-06-21T13:34:26Z</time>
      </trkpt>
      <trkpt lat="49.75515" lon="2.11637">
        <ele>115.4</ele>
        <time>2023-06-21T13:34:27Z</time>
      </trkpt>
      <trkpt lat="49.75516" lon="2.11637">
        <ele>115.4</ele>
        <time>2023-06-21T13:34:28Z</time>
      </trkpt>
      <trkpt lat="49.75517" lon="2.11636">
        <ele>115.4</ele>
        <time>2023-06-21T13:34:30Z</time>
      </trkpt>
      <trkpt lat="49.75517" lon="2.11634">
        <ele>115.4</ele>
        <time>2023-06-21T13:34:31Z</time>
      </trkpt>
      <trkpt lat="49.75517" lon="2.11634">
        <ele>115.4</ele>
        <time>2023-06-21T13:34:32Z</time>
      </trkpt>
      <trkpt lat="49.75518" lon="2.11632">
        <ele>115.3</ele>
        <time>2023-06-21T13:34:33Z</time>
      </trkpt>
      <trkpt lat="49.75519" lon="2.1163">
        <ele>115.3</ele>
        <time>2023-06-21T13:34:35Z</time>
      </trkpt>
      <trkpt lat="49.75519" lon="2.11627">
        <ele>115.3</ele>
        <time>2023-06-21T13:34:36Z</time>
      </trkpt>
      <trkpt lat="49.7552" lon="2.11625">
        <ele>115.3</ele>
        <time>2023-06-21T13:34:37Z</time>
      </trkpt>
      <trkpt lat="49.7552" lon="2.11622">
        <ele>115.3</ele>
        <time>2023-06-21T13:34:38Z</time>
      </trkpt>
      <trkpt lat="49.75521" lon="2.1162">
        <ele>115.3</ele>
        <time>2023-06-21T13:34:39Z</time>
      </trkpt>
      <trkpt lat="49.75522" lon="2.11619">
        <ele>115.3</ele>
        <time>2023-06-21T13:34:40Z</time>
      </trkpt>
      <trkpt lat="49.75522" lon="2.11618">
        <ele>115.3</ele>
        <time>2023-06-21T13:34:42Z</time>
      </trkpt>
      <trkpt lat="49.75523" lon="2.11616">
        <ele>115.2</ele>
        <time>2023-06-21T13:34:43Z</time>
      </trkpt>
      <trkpt lat="49.75523" lon="2.11615">
        <ele>115.2</ele>
        <time>2023-06-21T13:34:44Z</time>
      </trkpt>
      <trkpt lat="49.75524" lon="2.11613">
        <ele>115.2</ele>
        <time>2023-06-21T13:34:45Z</time>
      </trkpt>
      <trkpt lat="49.75524" lon="2.11611">
        <ele>115.2</ele>
        <time>2023-06-21T13:34:46Z</time>
      </trkpt>
      <trkpt lat="49.75525" lon="2.11608">
        <ele>115.2</ele>
        <time>2023-06-21T13:34:47Z</time>
      </trkpt>
      <trkpt lat="49.75526" lon="2.11606">
        <ele>115.2</ele>
        <time>2023-06-21T13:34:48Z</time>
      </trkpt>
      <trkpt lat="49.75526" lon="2.11605">
        <ele>115.3</ele>
        <time>2023-06-21T13:34:50Z</time>
      </trkpt>
      <trkpt lat="49.75526" lon="2.11603">
        <ele>115.3</ele>
        <time>2023-06-21T13:34:51Z</time>
      </trkpt>
      <trkpt lat="49.75527" lon="2.11602">
        <ele>115.3</ele>
        <time>2023-06-21T13:34:52Z</time>
      </trkpt>
      <trkpt lat="49.75527" lon="2.116">
        <ele>115.3</ele>
        <time>2023-06-21T13:34:53Z</time>
      </trkpt>
      <trkpt lat="49.75527" lon="2.11597">
        <ele>115.3</ele>
        <time>2023-06-21T13:34:54Z</time>
      </trkpt>
      <trkpt lat="49.75528" lon="2.11594">
        <ele>115.3</ele>
        <time>2023-06-21T13:34:56Z</time>
      </trkpt>
      <trkpt lat="49.75529" lon="2.11591">
        <ele>115.3</ele>
        <time>2023-06-21T13:34:57Z</time>
      </trkpt>
      <trkpt lat="49.75529" lon="2.11589">
        <ele>115.4</ele>
        <time>2023-06-21T13:34:58Z</time>
      </trkpt>
      <trkpt lat="49.7553" lon="2.11588">
        <ele>115.4</ele>
        <time>2023-06-21T13:34:59Z</time>
      </trkpt>
      <trkpt lat="49.75531" lon="2.11586">
        <ele>115.4</ele>
        <time>2023-06-21T13:35:00Z</time>
      </trkpt>
      <trkpt lat="49.75532" lon="2.11584">
        <ele>115.4</ele>
        <time>2023-06-21T13:35:01Z</time>
      </trkpt>
      <trkpt lat="49.75533" lon="2.11582">
        <ele>115.4</ele>
        <time>2023-06-21T13:35:02Z</time>
      </trkpt>
      <trkpt lat="49.75534" lon="2.11581">
        <ele>115.5</ele>
        <time>2023-06-21T13:35:04Z</time>
      </trkpt>
      <trkpt lat="49.75535" lon="2.1158">
        <ele>115.5</ele>
        <time>2023-06-21T13:35:05Z</time>
      </trkpt>
      <trkpt lat="49.75536" lon="2.11579">
        <ele>115.5</ele>
        <time>2023-06-21T13:35:06Z</time>
      </trkpt>
      <trkpt lat="49.75537" lon="2.11577">
        <ele>115.5</ele>
        <time>2023-06-21T13:35:07Z</time>
      </trkpt>
      <trkpt lat="49.75538" lon="2.11575">
        <ele>115.5</ele>
        <time>2023-06-21T13:35:08Z</time>
      </trkpt>
      <trkpt lat="49.75538" lon="2.11574">
        <ele>115.6</ele>
        <time>2023-06-21T13:35:09Z</time>
      </trkpt>
      <trkpt lat="49.75539" lon="2.11572">
        <ele>115.6</ele>
        <time>2023-06-21T13:35:11Z</time>
      </trkpt>
      <trkpt lat="49.7554" lon="2.1157">
        <ele>115.6</ele>
        <time>2023-06-21T13:35:12Z</time>
      </trkpt>
      <trkpt lat="49.75541" lon="2.11568">
        <ele>115.6</ele>
        <time>2023-06-21T13:35:13Z</time>
      </trkpt>
      <trkpt lat="49.75542" lon="2.11566">
        <ele>115.6</ele>
        <time>2023-06-21T13:35:14Z</time>
      </trkpt>
      <trkpt lat="49.75543" lon="2.11563">
        <ele>115.6</ele>
        <time>2023-06-21T13:35:16Z</time>
      </trkpt>
      <trkpt lat="49.75544" lon="2.11561">
        <ele>115.6</ele>
        <time>2023-06-21T13:35:17Z</time>
      </trkpt>
      <trkpt lat="49.75544" lon="2.1156">
        <ele>115.7</ele>
        <time>2023-06-21T13:35:19Z</time>
      </trkpt>
      <trkpt lat="49.75545" lon="2.11558">
        <ele>115.7</ele>
        <time>2023-06-21T13:35:20Z</time>
      </trkpt>
      <trkpt lat="49.75546" lon="2.11557">
        <ele>115.7</ele>
        <time>2023-06-21T13:35:21Z</time>
      </trkpt>
      <trkpt lat="49.75547" lon="2.11555">
        <ele>115.7</ele>
        <time>2023-06-21T13:35:22Z</time>
      </trkpt>
      <trkpt lat="49.75548" lon="2.11554">
        <ele>115.7</ele>
        <time>2023-06-21T13:35:23Z</time>
      </trkpt>
      <trkpt lat="49.75548" lon="2.11553">
        <ele>115.7</ele>
        <time>2023-06-21T13:35:24Z</time>
      </trkpt>
      <trkpt lat="49.75549" lon="2.11552">
        <ele>115.7</ele>
        <time>2023-06-21T13:35:26Z</time>
      </trkpt>
      <trkpt lat="49.7555" lon="2.11551">
        <ele>115.7</ele>
        <time>2023-06-21T13:35:27Z</time>
      </trkpt>
      <trkpt lat="49.75551" lon="2.1155">
        <ele>115.7</ele>
        <time>2023-06-21T13:35:28Z</time>
      </trkpt>
      <trkpt lat="49.75551" lon="2.11549">
        <ele>115.7</ele>
        <time>2023-06-21T13:35:29Z</time>
      </trkpt>
      <trkpt lat="49.75552" lon="2.11547">
        <ele>115.8</ele>
        <time>2023-06-21T13:35:30Z</time>
      </trkpt>
      <trkpt lat="49.75553" lon="2.11546">
        <ele>115.8</ele>
        <time>2023-06-21T13:35:31Z</time>
      </trkpt>
      <trkpt lat="49.75553" lon="2.11545">
        <ele>115.8</ele>
        <time>2023-06-21T13:35:32Z</time>
      </trkpt>
      <trkpt lat="49.75553" lon="2.11543">
        <ele>115.8</ele>
        <time>2023-06-21T13:35:34Z</time>
      </trkpt>
      <trkpt lat="49.75554" lon="2.11541">
        <ele>115.8</ele>
        <time>2023-06-21T13:35:35Z</time>
      </trkpt>
      <trkpt lat="49.75554" lon="2.1154">
        <ele>115.8</ele>
        <time>2023-06-21T13:35:36Z</time>
      </trkpt>
      <trkpt lat="49.75555" lon="2.11538">
        <ele>115.8</ele>
        <time>2023-06-21T13:35:37Z</time>
      </trkpt>
      <trkpt lat="49.75555" lon="2.11537">
        <ele>115.8</ele>
        <time>2023-06-21T13:35:38Z</time>
      </trkpt>
      <trkpt lat="49.75556" lon="2.11535">
        <ele>115.9</ele>
        <time>2023-06-21T13:35:39Z</time>
      </trkpt>
      <trkpt lat="49.75556" lon="2.11534">
        <ele>115.9</ele>
        <time>2023-06-21T13:35:41Z</time>
      </trkpt>
      <trkpt lat="49.75556" lon="2.11532">
        <ele>115.9</ele>
        <time>2023-06-21T13:35:42Z</time>
      </trkpt>
      <trkpt lat="49.75557" lon="2.1153">
        <ele>115.9</ele>
        <time>2023-06-21T13:35:43Z</time>
      </trkpt>
      <trkpt lat="49.75558" lon="2.11527">
        <ele>115.9</ele>
        <time>2023-06-21T13:35:44Z</time>
      </trkpt>
      <trkpt lat="49.75558" lon="2.11526">
        <ele>116</ele>
        <time>2023-06-21T13:35:45Z</time>
      </trkpt>
      <trkpt lat="49.75558" lon="2.11525">
        <ele>116</ele>
        <time>2023-06-21T13:35:46Z</time>
      </trkpt>
      <trkpt lat="49.75559" lon="2.11523">
        <ele>116</ele>
        <time>2023-06-21T13:35:47Z</time>
      </trkpt>
      <trkpt lat="49.7556" lon="2.11522">
        <ele>116</ele>
        <time>2023-06-21T13:35:49Z</time>
      </trkpt>
      <trkpt lat="49.7556" lon="2.1152">
        <ele>116</ele>
        <time>2023-06-21T13:35:50Z</time>
      </trkpt>
      <trkpt lat="49.75562" lon="2.11518">
        <ele>116</ele>
        <time>2023-06-21T13:35:51Z</time>
      </trkpt>
      <trkpt lat="49.75562" lon="2.11517">
        <ele>116.1</ele>
        <time>2023-06-21T13:35:52Z</time>
      </trkpt>
      <trkpt lat="49.75563" lon="2.11516">
        <ele>116.1</ele>
        <time>2023-06-21T13:35:53Z</time>
      </trkpt>
      <trkpt lat="49.75564" lon="2.11513">
        <ele>116.1</ele>
        <time>2023-06-21T13:35:54Z</time>
      </trkpt>
      <trkpt lat="49.75565" lon="2.11512">
        <ele>116.1</ele>
        <time>2023-06-21T13:35:55Z</time>
      </trkpt>
      <trkpt lat="49.75566" lon="2.1151">
        <ele>116.1</ele>
        <time>2023-06-21T13:35:57Z</time>
      </trkpt>
      <trkpt lat="49.75566" lon="2.11509">
        <ele>116.2</ele>
        <time>2023-06-21T13:35:58Z</time>
      </trkpt>
      <trkpt lat="49.75567" lon="2.11507">
        <ele>116.2</ele>
        <time>2023-06-21T13:36:00Z</time>
      </trkpt>
      <trkpt lat="49.75568" lon="2.11506">
        <ele>116.2</ele>
        <time>2023-06-21T13:36:01Z</time>
      </trkpt>
      <trkpt lat="49.75568" lon="2.11505">
        <ele>116.2</ele>
        <time>2023-06-21T13:36:02Z</time>
      </trkpt>
      <trkpt lat="49.75569" lon="2.11503">
        <ele>116.2</ele>
        <time>2023-06-21T13:36:03Z</time>
      </trkpt>
      <trkpt lat="49.7557" lon="2.11502">
        <ele>116.2</ele>
        <time>2023-06-21T13:36:04Z</time>
      </trkpt>
      <trkpt lat="49.75571" lon="2.115">
        <ele>116.3</ele>
        <time>2023-06-21T13:36:06Z</time>
      </trkpt>
      <trkpt lat="49.75571" lon="2.11499">
        <ele>116.3</ele>
        <time>2023-06-21T13:36:07Z</time>
      </trkpt>
      <trkpt lat="49.75573" lon="2.11497">
        <ele>116.3</ele>
        <time>2023-06-21T13:36:08Z</time>
      </trkpt>
      <trkpt lat="49.75573" lon="2.11496">
        <ele>116.3</ele>
        <time>2023-06-21T13:36:09Z</time>
      </trkpt>
      <trkpt lat="49.75574" lon="2.11495">
        <ele>116.3</ele>
        <time>2023-06-21T13:36:10Z</time>
      </trkpt>
      <trkpt lat="49.75575" lon="2.11493">
        <ele>116.3</ele>
        <time>2023-06-21T13:36:11Z</time>
      </trkpt>
      <trkpt lat="49.75576" lon="2.11492">
        <ele>116.4</ele>
        <time>2023-06-21T13:36:12Z</time>
      </trkpt>
      <trkpt lat="49.75577" lon="2.1149">
        <ele>116.4</ele>
        <time>2023-06-21T13:36:14Z</time>
      </trkpt>
      <trkpt lat="49.75577" lon="2.11489">
        <ele>116.4</ele>
        <time>2023-06-21T13:36:15Z</time>
      </trkpt>
      <trkpt lat="49.75578" lon="2.11488">
        <ele>116.4</ele>
        <time>2023-06-21T13:36:16Z</time>
      </trkpt>
      <trkpt lat="49.7558" lon="2.11486">
        <ele>116.4</ele>
        <time>2023-06-21T13:36:17Z</time>
      </trkpt>
      <trkpt lat="49.7558" lon="2.11485">
        <ele>116.5</ele>
        <time>2023-06-21T13:36:18Z</time>
      </trkpt>
      <trkpt lat="49.75581" lon="2.11484">
        <ele>116.5</ele>
        <time>2023-06-21T13:36:19Z</time>
      </trkpt>
      <trkpt lat="49.75582" lon="2.11483">
        <ele>116.5</ele>
        <time>2023-06-21T13:36:21Z</time>
      </trkpt>
      <trkpt lat="49.75583" lon="2.11482">
        <ele>116.5</ele>
        <time>2023-06-21T13:36:22Z</time>
      </trkpt>
      <trkpt lat="49.75583" lon="2.1148">
        <ele>116.5</ele>
        <time>2023-06-21T13:36:23Z</time>
      </trkpt>
      <trkpt lat="49.75584" lon="2.11479">
        <ele>116.5</ele>
        <time>2023-06-21T13:36:24Z</time>
      </trkpt>
      <trkpt lat="49.75585" lon="2.11478">
        <ele>116.5</ele>
        <time>2023-06-21T13:36:25Z</time>
      </trkpt>
      <trkpt lat="49.75586" lon="2.11477">
        <ele>116.6</ele>
        <time>2023-06-21T13:36:26Z</time>
      </trkpt>
      <trkpt lat="49.75587" lon="2.11476">
        <ele>116.6</ele>
        <time>2023-06-21T13:36:27Z</time>
      </trkpt>
      <trkpt lat="49.75588" lon="2.11474">
        <ele>116.6</ele>
        <time>2023-06-21T13:36:28Z</time>
      </trkpt>
      <trkpt lat="49.75589" lon="2.11473">
        <ele>116.6</ele>
        <time>2023-06-21T13:36:30Z</time>
      </trkpt>
      <trkpt lat="49.7559" lon="2.11472">
        <ele>116.6</ele>
        <time>2023-06-21T13:36:31Z</time>
      </trkpt>
      <trkpt lat="49.75591" lon="2.1147">
        <ele>116.7</ele>
        <time>2023-06-21T13:36:32Z</time>
      </trkpt>
      <trkpt lat="49.75592" lon="2.11468">
        <ele>116.7</ele>
        <time>2023-06-21T13:36:34Z</time>
      </trkpt>
      <trkpt lat="49.75593" lon="2.11467">
        <ele>116.7</ele>
        <time>2023-06-21T13:36:35Z</time>
      </trkpt>
      <trkpt lat="49.75594" lon="2.11465">
        <ele>116.7</ele>
        <time>2023-06-21T13:36:37Z</time>
      </trkpt>
      <trkpt lat="49.75595" lon="2.11464">
        <ele>116.7</ele>
        <time>2023-06-21T13:36:38Z</time>
      </trkpt>
      <trkpt lat="49.75596" lon="2.11463">
        <ele>116.8</ele>
        <time>2023-06-21T13:36:39Z</time>
      </trkpt>
      <trkpt lat="49.75597" lon="2.11461">
        <ele>116.8</ele>
        <time>2023-06-21T13:36:40Z</time>
      </trkpt>
      <trkpt lat="49.75597" lon="2.1146">
        <ele>116.8</ele>
        <time>2023-06-21T13:36:42Z</time>
      </trkpt>
      <trkpt lat="49.75598" lon="2.11459">
        <ele>116.8</ele>
        <time>2023-06-21T13:36:43Z</time>
      </trkpt>
      <trkpt lat="49.75599" lon="2.11458">
        <ele>116.8</ele>
        <time>2023-06-21T13:36:44Z</time>
      </trkpt>
      <trkpt lat="49.75599" lon="2.11456">
        <ele>116.8</ele>
        <time>2023-06-21T13:36:45Z</time>
      </trkpt>
      <trkpt lat="49.756" lon="2.11455">
        <ele>116.9</ele>
        <time>2023-06-21T13:36:46Z</time>
      </trkpt>
      <trkpt lat="49.756" lon="2.11455">
        <ele>116.9</ele>
        <time>2023-06-21T13:36:47Z</time>
      </trkpt>
      <trkpt lat="49.75601" lon="2.11454">
        <ele>116.9</ele>
        <time>2023-06-21T13:36:48Z</time>
      </trkpt>
      <trkpt lat="49.75601" lon="2.11452">
        <ele>116.9</ele>
        <time>2023-06-21T13:36:50Z</time>
      </trkpt>
      <trkpt lat="49.75602" lon="2.11451">
        <ele>116.9</ele>
        <time>2023-06-21T13:36:51Z</time>
      </trkpt>
      <trkpt lat="49.75603" lon="2.1145">
        <ele>116.9</ele>
        <time>2023-06-21T13:36:52Z</time>
      </trkpt>
      <trkpt lat="49.75603" lon="2.1145">
        <ele>117</ele>
        <time>2023-06-21T13:36:53Z</time>
      </trkpt>
      <trkpt lat="49.75605" lon="2.11449">
        <ele>117</ele>
        <time>2023-06-21T13:36:54Z</time>
      </trkpt>
      <trkpt lat="49.75606" lon="2.11447">
        <ele>117</ele>
        <time>2023-06-21T13:36:56Z</time>
      </trkpt>
      <trkpt lat="49.75607" lon="2.11446">
        <ele>117</ele>
        <time>2023-06-21T13:36:57Z</time>
      </trkpt>
      <trkpt lat="49.75608" lon="2.11445">
        <ele>117.1</ele>
        <time>2023-06-21T13:36:58Z</time>
      </trkpt>
      <trkpt lat="49.75609" lon="2.11443">
        <ele>117.1</ele>
        <time>2023-06-21T13:36:59Z</time>
      </trkpt>
      <trkpt lat="49.75609" lon="2.11442">
        <ele>117.1</ele>
        <time>2023-06-21T13:37:01Z</time>
      </trkpt>
      <trkpt lat="49.75609" lon="2.11441">
        <ele>117.1</ele>
        <time>2023-06-21T13:37:02Z</time>
      </trkpt>
      <trkpt lat="49.75609" lon="2.1144">
        <ele>117.1</ele>
        <time>2023-06-21T13:37:03Z</time>
      </trkpt>
      <trkpt lat="49.75609" lon="2.1144">
        <ele>117.1</ele>
        <time>2023-06-21T13:37:04Z</time>
      </trkpt>
      <trkpt lat="49.7561" lon="2.11439">
        <ele>117.1</ele>
        <time>2023-06-21T13:37:06Z</time>
      </trkpt>
      <trkpt lat="49.7561" lon="2.11439">
        <ele>117.1</ele>
        <time>2023-06-21T13:37:07Z</time>
      </trkpt>
      <trkpt lat="49.75611" lon="2.11438">
        <ele>117.2</ele>
        <time>2023-06-21T13:37:08Z</time>
      </trkpt>
      <trkpt lat="49.75612" lon="2.11437">
        <ele>117.2</ele>
        <time>2023-06-21T13:37:09Z</time>
      </trkpt>
      <trkpt lat="49.75613" lon="2.11436">
        <ele>117.2</ele>
        <time>2023-06-21T13:37:10Z</time>
      </trkpt>
      <trkpt lat="49.75614" lon="2.11435">
        <ele>117.2</ele>
        <time>2023-06-21T13:37:11Z</time>
      </trkpt>
      <trkpt lat="49.75615" lon="2.11435">
        <ele>117.2</ele>
        <time>2023-06-21T13:37:13Z</time>
      </trkpt>
      <trkpt lat="49.75616" lon="2.11434">
        <ele>117.2</ele>
        <time>2023-06-21T13:37:14Z</time>
      </trkpt>
      <trkpt lat="49.75616" lon="2.11433">
        <ele>117.2</ele>
        <time>2023-06-21T13:37:15Z</time>
      </trkpt>
      <trkpt lat="49.75617" lon="2.11432">
        <ele>117.3</ele>
        <time>2023-06-21T13:37:16Z</time>
      </trkpt>
      <trkpt lat="49.75618" lon="2.11431">
        <ele>117.3</ele>
        <time>2023-06-21T13:37:18Z</time>
      </trkpt>
      <trkpt lat="49.7562" lon="2.1143">
        <ele>117.3</ele>
        <time>2023-06-21T13:37:19Z</time>
      </trkpt>
      <trkpt lat="49.7562" lon="2.11429">
        <ele>117.3</ele>
        <time>2023-06-21T13:37:20Z</time>
      </trkpt>
      <trkpt lat="49.75621" lon="2.11428">
        <ele>117.3</ele>
        <time>2023-06-21T13:37:21Z</time>
      </trkpt>
      <trkpt lat="49.75622" lon="2.11426">
        <ele>117.3</ele>
        <time>2023-06-21T13:37:23Z</time>
      </trkpt>
      <trkpt lat="49.75623" lon="2.11425">
        <ele>117.3</ele>
        <time>2023-06-21T13:37:24Z</time>
      </trkpt>
      <trkpt lat="49.75623" lon="2.11424">
        <ele>117.3</ele>
        <time>2023-06-21T13:37:25Z</time>
      </trkpt>
      <trkpt lat="49.75624" lon="2.11423">
        <ele>117.3</ele>
        <time>2023-06-21T13:37:26Z</time>
      </trkpt>
      <trkpt lat="49.75624" lon="2.11422">
        <ele>117.3</ele>
        <time>2023-06-21T13:37:27Z</time>
      </trkpt>
      <trkpt lat="49.75625" lon="2.11421">
        <ele>117.4</ele>
        <time>2023-06-21T13:37:28Z</time>
      </trkpt>
      <trkpt lat="49.75626" lon="2.1142">
        <ele>117.4</ele>
        <time>2023-06-21T13:37:30Z</time>
      </trkpt>
      <trkpt lat="49.75626" lon="2.11419">
        <ele>117.4</ele>
        <time>2023-06-21T13:37:31Z</time>
      </trkpt>
      <trkpt lat="49.75627" lon="2.11417">
        <ele>117.4</ele>
        <time>2023-06-21T13:37:32Z</time>
      </trkpt>
      <trkpt lat="49.75628" lon="2.11417">
        <ele>117.4</ele>
        <time>2023-06-21T13:37:33Z</time>
      </trkpt>
      <trkpt lat="49.75629" lon="2.11415">
        <ele>117.4</ele>
        <time>2023-06-21T13:37:34Z</time>
      </trkpt>
      <trkpt lat="49.7563" lon="2.11415">
        <ele>117.4</ele>
        <time>2023-06-21T13:37:35Z</time>
      </trkpt>
      <trkpt lat="49.75631" lon="2.11414">
        <ele>117.4</ele>
        <time>2023-06-21T13:37:36Z</time>
      </trkpt>
      <trkpt lat="49.75632" lon="2.11413">
        <ele>117.4</ele>
        <time>2023-06-21T13:37:37Z</time>
      </trkpt>
      <trkpt lat="49.75633" lon="2.11411">
        <ele>117.4</ele>
        <time>2023-06-21T13:37:39Z</time>
      </trkpt>
      <trkpt lat="49.75634" lon="2.1141">
        <ele>117.4</ele>
        <time>2023-06-21T13:37:40Z</time>
      </trkpt>
      <trkpt lat="49.75635" lon="2.11409">
        <ele>117.4</ele>
        <time>2023-06-21T13:37:41Z</time>
      </trkpt>
      <trkpt lat="49.75637" lon="2.11408">
        <ele>117.4</ele>
        <time>2023-06-21T13:37:42Z</time>
      </trkpt>
      <trkpt lat="49.75638" lon="2.11406">
        <ele>117.4</ele>
        <time>2023-06-21T13:37:43Z</time>
      </trkpt>
      <trkpt lat="49.75639" lon="2.11405">
        <ele>117.5</ele>
        <time>2023-06-21T13:37:44Z</time>
      </trkpt>
      <trkpt lat="49.7564" lon="2.11404">
        <ele>117.5</ele>
        <time>2023-06-21T13:37:45Z</time>
      </trkpt>
      <trkpt lat="49.75641" lon="2.11403">
        <ele>117.5</ele>
        <time>2023-06-21T13:37:47Z</time>
      </trkpt>
      <trkpt lat="49.75641" lon="2.11402">
        <ele>117.5</ele>
        <time>2023-06-21T13:37:48Z</time>
      </trkpt>
      <trkpt lat="49.75642" lon="2.11401">
        <ele>117.5</ele>
        <time>2023-06-21T13:37:49Z</time>
      </trkpt>
      <trkpt lat="49.75643" lon="2.114">
        <ele>117.5</ele>
        <time>2023-06-21T13:37:50Z</time>
      </trkpt>
      <trkpt lat="49.75644" lon="2.114">
        <ele>117.5</ele>
        <time>2023-06-21T13:37:51Z</time>
      </trkpt>
      <trkpt lat="49.75645" lon="2.11398">
        <ele>117.5</ele>
        <time>2023-06-21T13:37:52Z</time>
      </trkpt>
      <trkpt lat="49.75646" lon="2.11397">
        <ele>117.5</ele>
        <time>2023-06-21T13:37:54Z</time>
      </trkpt>
      <trkpt lat="49.75648" lon="2.11396">
        <ele>117.5</ele>
        <time>2023-06-21T13:37:55Z</time>
      </trkpt>
      <trkpt lat="49.75648" lon="2.11395">
        <ele>117.5</ele>
        <time>2023-06-21T13:37:56Z</time>
      </trkpt>
      <trkpt lat="49.75649" lon="2.11394">
        <ele>117.6</ele>
        <time>2023-06-21T13:37:57Z</time>
      </trkpt>
      <trkpt lat="49.7565" lon="2.11394">
        <ele>117.6</ele>
        <time>2023-06-21T13:37:58Z</time>
      </trkpt>
      <trkpt lat="49.75651" lon="2.11393">
        <ele>117.6</ele>
        <time>2023-06-21T13:37:59Z</time>
      </trkpt>
      <trkpt lat="49.75652" lon="2.11391">
        <ele>117.6</ele>
        <time>2023-06-21T13:38:00Z</time>
      </trkpt>
      <trkpt lat="49.75653" lon="2.1139">
        <ele>117.6</ele>
        <time>2023-06-21T13:38:01Z</time>
      </trkpt>
      <trkpt lat="49.75654" lon="2.11389">
        <ele>117.6</ele>
        <time>2023-06-21T13:38:03Z</time>
      </trkpt>
      <trkpt lat="49.75655" lon="2.11388">
        <ele>117.6</ele>
        <time>2023-06-21T13:38:04Z</time>
      </trkpt>
      <trkpt lat="49.75656" lon="2.11386">
        <ele>117.6</ele>
        <time>2023-06-21T13:38:05Z</time>
      </trkpt>
      <trkpt lat="49.75657" lon="2.11385">
        <ele>117.6</ele>
        <time>2023-06-21T13:38:06Z</time>
      </trkpt>
      <trkpt lat="49.75657" lon="2.11384">
        <ele>117.6</ele>
        <time>2023-06-21T13:38:07Z</time>
      </trkpt>
      <trkpt lat="49.75658" lon="2.11383">
        <ele>117.6</ele>
        <time>2023-06-21T13:38:09Z</time>
      </trkpt>
      <trkpt lat="49.75659" lon="2.11382">
        <ele>117.7</ele>
        <time>2023-06-21T13:38:10Z</time>
      </trkpt>
      <trkpt lat="49.7566" lon="2.1138">
        <ele>117.7</ele>
        <time>2023-06-21T13:38:11Z</time>
      </trkpt>
      <trkpt lat="49.7566" lon="2.11379">
        <ele>117.7</ele>
        <time>2023-06-21T13:38:12Z</time>
      </trkpt>
      <trkpt lat="49.75661" lon="2.11378">
        <ele>117.7</ele>
        <time>2023-06-21T13:38:13Z</time>
      </trkpt>
      <trkpt lat="49.75661" lon="2.11376">
        <ele>117.7</ele>
        <time>2023-06-21T13:38:14Z</time>
      </trkpt>
      <trkpt lat="49.75662" lon="2.11375">
        <ele>117.7</ele>
        <time>2023-06-21T13:38:15Z</time>
      </trkpt>
      <trkpt lat="49.75663" lon="2.11374">
        <ele>117.7</ele>
        <time>2023-06-21T13:38:16Z</time>
      </trkpt>
      <trkpt lat="49.75664" lon="2.11373">
        <ele>117.7</ele>
        <time>2023-06-21T13:38:18Z</time>
      </trkpt>
      <trkpt lat="49.75665" lon="2.11372">
        <ele>117.7</ele>
        <time>2023-06-21T13:38:19Z</time>
      </trkpt>
      <trkpt lat="49.75665" lon="2.1137">
        <ele>117.7</ele>
        <time>2023-06-21T13:38:20Z</time>
      </trkpt>
      <trkpt lat="49.75666" lon="2.11369">
        <ele>117.7</ele>
        <time>2023-06-21T13:38:21Z</time>
      </trkpt>
      <trkpt lat="49.75667" lon="2.11368">
        <ele>117.7</ele>
        <time>2023-06-21T13:38:22Z</time>
      </trkpt>
      <trkpt lat="49.75668" lon="2.11367">
        <ele>117.7</ele>
        <time>2023-06-21T13:38:23Z</time>
      </trkpt>
      <trkpt lat="49.75669" lon="2.11366">
        <ele>117.7</ele>
        <time>2023-06-21T13:38:25Z</time>
      </trkpt>
      <trkpt lat="49.75669" lon="2.11364">
        <ele>117.7</ele>
        <time>2023-06-21T13:38:26Z</time>
      </trkpt>
      <trkpt lat="49.7567" lon="2.11363">
        <ele>117.8</ele>
        <time>2023-06-21T13:38:27Z</time>
      </trkpt>
      <trkpt lat="49.75671" lon="2.11361">
        <ele>117.8</ele>
        <time>2023-06-21T13:38:28Z</time>
      </trkpt>
      <trkpt lat="49.75672" lon="2.1136">
        <ele>117.8</ele>
        <time>2023-06-21T13:38:29Z</time>
      </trkpt>
      <trkpt lat="49.75672" lon="2.11359">
        <ele>117.8</ele>
        <time>2023-06-21T13:38:30Z</time>
      </trkpt>
      <trkpt lat="49.75673" lon="2.11357">
        <ele>117.7</ele>
        <time>2023-06-21T13:38:31Z</time>
      </trkpt>
      <trkpt lat="49.75675" lon="2.11355">
        <ele>117.7</ele>
        <time>2023-06-21T13:38:33Z</time>
      </trkpt>
      <trkpt lat="49.75676" lon="2.11353">
        <ele>117.7</ele>
        <time>2023-06-21T13:38:35Z</time>
      </trkpt>
      <trkpt lat="49.75677" lon="2.11351">
        <ele>117.7</ele>
        <time>2023-06-21T13:38:36Z</time>
      </trkpt>
      <trkpt lat="49.75678" lon="2.1135">
        <ele>117.7</ele>
        <time>2023-06-21T13:38:37Z</time>
      </trkpt>
      <trkpt lat="49.75679" lon="2.11349">
        <ele>117.7</ele>
        <time>2023-06-21T13:38:38Z</time>
      </trkpt>
      <trkpt lat="49.75679" lon="2.11347">
        <ele>117.7</ele>
        <time>2023-06-21T13:38:40Z</time>
      </trkpt>
      <trkpt lat="49.7568" lon="2.11346">
        <ele>117.6</ele>
        <time>2023-06-21T13:38:41Z</time>
      </trkpt>
      <trkpt lat="49.75681" lon="2.11344">
        <ele>117.6</ele>
        <time>2023-06-21T13:38:42Z</time>
      </trkpt>
      <trkpt lat="49.75682" lon="2.11341">
        <ele>117.6</ele>
        <time>2023-06-21T13:38:43Z</time>
      </trkpt>
      <trkpt lat="49.75682" lon="2.1134">
        <ele>117.6</ele>
        <time>2023-06-21T13:38:44Z</time>
      </trkpt>
      <trkpt lat="49.75683" lon="2.11339">
        <ele>117.6</ele>
        <time>2023-06-21T13:38:45Z</time>
      </trkpt>
      <trkpt lat="49.75683" lon="2.11337">
        <ele>117.5</ele>
        <time>2023-06-21T13:38:46Z</time>
      </trkpt>
      <trkpt lat="49.75684" lon="2.11336">
        <ele>117.5</ele>
        <time>2023-06-21T13:38:48Z</time>
      </trkpt>
      <trkpt lat="49.75685" lon="2.11334">
        <ele>117.5</ele>
        <time>2023-06-21T13:38:49Z</time>
      </trkpt>
      <trkpt lat="49.75685" lon="2.11333">
        <ele>117.5</ele>
        <time>2023-06-21T13:38:50Z</time>
      </trkpt>
      <trkpt lat="49.75686" lon="2.11331">
        <ele>117.5</ele>
        <time>2023-06-21T13:38:51Z</time>
      </trkpt>
      <trkpt lat="49.75687" lon="2.11329">
        <ele>117.4</ele>
        <time>2023-06-21T13:38:52Z</time>
      </trkpt>
      <trkpt lat="49.75688" lon="2.11327">
        <ele>117.4</ele>
        <time>2023-06-21T13:38:53Z</time>
      </trkpt>
      <trkpt lat="49.75688" lon="2.11326">
        <ele>117.4</ele>
        <time>2023-06-21T13:38:54Z</time>
      </trkpt>
      <trkpt lat="49.7569" lon="2.11324">
        <ele>117.4</ele>
        <time>2023-06-21T13:38:56Z</time>
      </trkpt>
      <trkpt lat="49.7569" lon="2.11323">
        <ele>117.4</ele>
        <time>2023-06-21T13:38:57Z</time>
      </trkpt>
      <trkpt lat="49.75691" lon="2.11322">
        <ele>117.4</ele>
        <time>2023-06-21T13:38:58Z</time>
      </trkpt>
      <trkpt lat="49.75693" lon="2.11319">
        <ele>117.3</ele>
        <time>2023-06-21T13:38:59Z</time>
      </trkpt>
      <trkpt lat="49.75693" lon="2.11318">
        <ele>117.3</ele>
        <time>2023-06-21T13:39:00Z</time>
      </trkpt>
      <trkpt lat="49.75694" lon="2.11317">
        <ele>117.3</ele>
        <time>2023-06-21T13:39:01Z</time>
      </trkpt>
      <trkpt lat="49.75695" lon="2.11315">
        <ele>117.3</ele>
        <time>2023-06-21T13:39:02Z</time>
      </trkpt>
      <trkpt lat="49.75695" lon="2.11314">
        <ele>117.3</ele>
        <time>2023-06-21T13:39:03Z</time>
      </trkpt>
      <trkpt lat="49.75696" lon="2.11313">
        <ele>117.3</ele>
        <time>2023-06-21T13:39:05Z</time>
      </trkpt>
      <trkpt lat="49.75696" lon="2.11312">
        <ele>117.3</ele>
        <time>2023-06-21T13:39:06Z</time>
      </trkpt>
      <trkpt lat="49.75697" lon="2.11311">
        <ele>117.3</ele>
        <time>2023-06-21T13:39:07Z</time>
      </trkpt>
      <trkpt lat="49.75698" lon="2.11309">
        <ele>117.2</ele>
        <time>2023-06-21T13:39:08Z</time>
      </trkpt>
      <trkpt lat="49.75699" lon="2.11308">
        <ele>117.2</ele>
        <time>2023-06-21T13:39:09Z</time>
      </trkpt>
      <trkpt lat="49.757" lon="2.11306">
        <ele>117.2</ele>
        <time>2023-06-21T13:39:10Z</time>
      </trkpt>
      <trkpt lat="49.75702" lon="2.11303">
        <ele>117.2</ele>
        <time>2023-06-21T13:39:11Z</time>
      </trkpt>
      <trkpt lat="49.75702" lon="2.11302">
        <ele>117.2</ele>
        <time>2023-06-21T13:39:13Z</time>
      </trkpt>
      <trkpt lat="49.75703" lon="2.11301">
        <ele>117.1</ele>
        <time>2023-06-21T13:39:14Z</time>
      </trkpt>
      <trkpt lat="49.75704" lon="2.11299">
        <ele>117.1</ele>
        <time>2023-06-21T13:39:15Z</time>
      </trkpt>
      <trkpt lat="49.75704" lon="2.11298">
        <ele>117.1</ele>
        <time>2023-06-21T13:39:16Z</time>
      </trkpt>
      <trkpt lat="49.75705" lon="2.11297">
        <ele>117.1</ele>
        <time>2023-06-21T13:39:17Z</time>
      </trkpt>
      <trkpt lat="49.75706" lon="2.11295">
        <ele>117</ele>
        <time>2023-06-21T13:39:18Z</time>
      </trkpt>
      <trkpt lat="49.75707" lon="2.11294">
        <ele>117</ele>
        <time>2023-06-21T13:39:19Z</time>
      </trkpt>
      <trkpt lat="49.75708" lon="2.11292">
        <ele>117</ele>
        <time>2023-06-21T13:39:21Z</time>
      </trkpt>
      <trkpt lat="49.75709" lon="2.11291">
        <ele>117</ele>
        <time>2023-06-21T13:39:22Z</time>
      </trkpt>
      <trkpt lat="49.75709" lon="2.1129">
        <ele>116.9</ele>
        <time>2023-06-21T13:39:23Z</time>
      </trkpt>
      <trkpt lat="49.75711" lon="2.11287">
        <ele>116.9</ele>
        <time>2023-06-21T13:39:24Z</time>
      </trkpt>
      <trkpt lat="49.75711" lon="2.11286">
        <ele>116.9</ele>
        <time>2023-06-21T13:39:25Z</time>
      </trkpt>
      <trkpt lat="49.75712" lon="2.11285">
        <ele>116.9</ele>
        <time>2023-06-21T13:39:26Z</time>
      </trkpt>
      <trkpt lat="49.75713" lon="2.11284">
        <ele>116.8</ele>
        <time>2023-06-21T13:39:28Z</time>
      </trkpt>
      <trkpt lat="49.75714" lon="2.11282">
        <ele>116.8</ele>
        <time>2023-06-21T13:39:29Z</time>
      </trkpt>
      <trkpt lat="49.75714" lon="2.11281">
        <ele>116.8</ele>
        <time>2023-06-21T13:39:30Z</time>
      </trkpt>
      <trkpt lat="49.75715" lon="2.1128">
        <ele>116.7</ele>
        <time>2023-06-21T13:39:31Z</time>
      </trkpt>
      <trkpt lat="49.75716" lon="2.11279">
        <ele>116.7</ele>
        <time>2023-06-21T13:39:32Z</time>
      </trkpt>
      <trkpt lat="49.75717" lon="2.11277">
        <ele>116.7</ele>
        <time>2023-06-21T13:39:33Z</time>
      </trkpt>
      <trkpt lat="49.75718" lon="2.11275">
        <ele>116.6</ele>
        <time>2023-06-21T13:39:34Z</time>
      </trkpt>
      <trkpt lat="49.75719" lon="2.11274">
        <ele>116.6</ele>
        <time>2023-06-21T13:39:36Z</time>
      </trkpt>
      <trkpt lat="49.7572" lon="2.11273">
        <ele>116.6</ele>
        <time>2023-06-21T13:39:37Z</time>
      </trkpt>
      <trkpt lat="49.75721" lon="2.11272">
        <ele>116.6</ele>
        <time>2023-06-21T13:39:38Z</time>
      </trkpt>
      <trkpt lat="49.75722" lon="2.11271">
        <ele>116.5</ele>
        <time>2023-06-21T13:39:39Z</time>
      </trkpt>
      <trkpt lat="49.75723" lon="2.11269">
        <ele>116.5</ele>
        <time>2023-06-21T13:39:41Z</time>
      </trkpt>
      <trkpt lat="49.75725" lon="2.11267">
        <ele>116.5</ele>
        <time>2023-06-21T13:39:42Z</time>
      </trkpt>
      <trkpt lat="49.75726" lon="2.11266">
        <ele>116.4</ele>
        <time>2023-06-21T13:39:43Z</time>
      </trkpt>
      <trkpt lat="49.75728" lon="2.11263">
        <ele>116.4</ele>
        <time>2023-06-21T13:39:45Z</time>
      </trkpt>
      <trkpt lat="49.75729" lon="2.11262">
        <ele>116.3</ele>
        <time>2023-06-21T13:39:46Z</time>
      </trkpt>
      <trkpt lat="49.7573" lon="2.11261">
        <ele>116.3</ele>
        <time>2023-06-21T13:39:47Z</time>
      </trkpt>
      <trkpt lat="49.7573" lon="2.1126">
        <ele>116.3</ele>
        <time>2023-06-21T13:39:48Z</time>
      </trkpt>
      <trkpt lat="49.75731" lon="2.11259">
        <ele>116.3</ele>
        <time>2023-06-21T13:39:49Z</time>
      </trkpt>
      <trkpt lat="49.75732" lon="2.11258">
        <ele>116.2</ele>
        <time>2023-06-21T13:39:50Z</time>
      </trkpt>
      <trkpt lat="49.75733" lon="2.11257">
        <ele>116.2</ele>
        <time>2023-06-21T13:39:51Z</time>
      </trkpt>
      <trkpt lat="49.75735" lon="2.11255">
        <ele>116.2</ele>
        <time>2023-06-21T13:39:53Z</time>
      </trkpt>
      <trkpt lat="49.75736" lon="2.11254">
        <ele>116.2</ele>
        <time>2023-06-21T13:39:54Z</time>
      </trkpt>
      <trkpt lat="49.75737" lon="2.11253">
        <ele>116.1</ele>
        <time>2023-06-21T13:39:55Z</time>
      </trkpt>
      <trkpt lat="49.75739" lon="2.11251">
        <ele>116.1</ele>
        <time>2023-06-21T13:39:56Z</time>
      </trkpt>
      <trkpt lat="49.75739" lon="2.1125">
        <ele>116.1</ele>
        <time>2023-06-21T13:39:57Z</time>
      </trkpt>
      <trkpt lat="49.7574" lon="2.11249">
        <ele>116.1</ele>
        <time>2023-06-21T13:39:58Z</time>
      </trkpt>
      <trkpt lat="49.75741" lon="2.11248">
        <ele>116</ele>
        <time>2023-06-21T13:40:00Z</time>
      </trkpt>
      <trkpt lat="49.75742" lon="2.11247">
        <ele>116</ele>
        <time>2023-06-21T13:40:01Z</time>
      </trkpt>
      <trkpt lat="49.75742" lon="2.11246">
        <ele>116</ele>
        <time>2023-06-21T13:40:02Z</time>
      </trkpt>
      <trkpt lat="49.75743" lon="2.11245">
        <ele>116</ele>
        <time>2023-06-21T13:40:03Z</time>
      </trkpt>
      <trkpt lat="49.75744" lon="2.11244">
        <ele>116</ele>
        <time>2023-06-21T13:40:04Z</time>
      </trkpt>
      <trkpt lat="49.75745" lon="2.11243">
        <ele>116</ele>
        <time>2023-06-21T13:40:05Z</time>
      </trkpt>
      <trkpt lat="49.75746" lon="2.11242">
        <ele>116</ele>
        <time>2023-06-21T13:40:06Z</time>
      </trkpt>
      <trkpt lat="49.75747" lon="2.1124">
        <ele>116</ele>
        <time>2023-06-21T13:40:07Z</time>
      </trkpt>
      <trkpt lat="49.75748" lon="2.11237">
        <ele>116</ele>
        <time>2023-06-21T13:40:08Z</time>
      </trkpt>
      <trkpt lat="49.75748" lon="2.11236">
        <ele>116</ele>
        <time>2023-06-21T13:40:09Z</time>
      </trkpt>
      <trkpt lat="49.75749" lon="2.11235">
        <ele>115.9</ele>
        <time>2023-06-21T13:40:10Z</time>
      </trkpt>
      <trkpt lat="49.7575" lon="2.11234">
        <ele>115.9</ele>
        <time>2023-06-21T13:40:12Z</time>
      </trkpt>
      <trkpt lat="49.7575" lon="2.11232">
        <ele>115.9</ele>
        <time>2023-06-21T13:40:13Z</time>
      </trkpt>
      <trkpt lat="49.75751" lon="2.11231">
        <ele>115.9</ele>
        <time>2023-06-21T13:40:15Z</time>
      </trkpt>
      <trkpt lat="49.75752" lon="2.1123">
        <ele>115.9</ele>
        <time>2023-06-21T13:40:16Z</time>
      </trkpt>
      <trkpt lat="49.75753" lon="2.11228">
        <ele>115.9</ele>
        <time>2023-06-21T13:40:17Z</time>
      </trkpt>
      <trkpt lat="49.75754" lon="2.11227">
        <ele>115.9</ele>
        <time>2023-06-21T13:40:18Z</time>
      </trkpt>
      <trkpt lat="49.75754" lon="2.11226">
        <ele>115.9</ele>
        <time>2023-06-21T13:40:19Z</time>
      </trkpt>
      <trkpt lat="49.75755" lon="2.11225">
        <ele>115.9</ele>
        <time>2023-06-21T13:40:21Z</time>
      </trkpt>
      <trkpt lat="49.75756" lon="2.11223">
        <ele>115.9</ele>
        <time>2023-06-21T13:40:22Z</time>
      </trkpt>
      <trkpt lat="49.75757" lon="2.11221">
        <ele>115.9</ele>
        <time>2023-06-21T13:40:23Z</time>
      </trkpt>
      <trkpt lat="49.75758" lon="2.1122">
        <ele>115.9</ele>
        <time>2023-06-21T13:40:24Z</time>
      </trkpt>
      <trkpt lat="49.75759" lon="2.11219">
        <ele>115.9</ele>
        <time>2023-06-21T13:40:25Z</time>
      </trkpt>
      <trkpt lat="49.7576" lon="2.11217">
        <ele>115.8</ele>
        <time>2023-06-21T13:40:26Z</time>
      </trkpt>
      <trkpt lat="49.7576" lon="2.11216">
        <ele>115.8</ele>
        <time>2023-06-21T13:40:27Z</time>
      </trkpt>
      <trkpt lat="49.75761" lon="2.11214">
        <ele>115.8</ele>
        <time>2023-06-21T13:40:29Z</time>
      </trkpt>
      <trkpt lat="49.75762" lon="2.11213">
        <ele>115.8</ele>
        <time>2023-06-21T13:40:30Z</time>
      </trkpt>
      <trkpt lat="49.75763" lon="2.11212">
        <ele>115.8</ele>
        <time>2023-06-21T13:40:31Z</time>
      </trkpt>
      <trkpt lat="49.75763" lon="2.1121">
        <ele>115.8</ele>
        <time>2023-06-21T13:40:32Z</time>
      </trkpt>
      <trkpt lat="49.75764" lon="2.11209">
        <ele>115.8</ele>
        <time>2023-06-21T13:40:33Z</time>
      </trkpt>
      <trkpt lat="49.75765" lon="2.11208">
        <ele>115.8</ele>
        <time>2023-06-21T13:40:34Z</time>
      </trkpt>
      <trkpt lat="49.75766" lon="2.11205">
        <ele>115.8</ele>
        <time>2023-06-21T13:40:35Z</time>
      </trkpt>
      <trkpt lat="49.75767" lon="2.11204">
        <ele>115.8</ele>
        <time>2023-06-21T13:40:37Z</time>
      </trkpt>
      <trkpt lat="49.75767" lon="2.11203">
        <ele>115.8</ele>
        <time>2023-06-21T13:40:38Z</time>
      </trkpt>
      <trkpt lat="49.75768" lon="2.11201">
        <ele>115.8</ele>
        <time>2023-06-21T13:40:39Z</time>
      </trkpt>
      <trkpt lat="49.75769" lon="2.112">
        <ele>115.7</ele>
        <time>2023-06-21T13:40:40Z</time>
      </trkpt>
      <trkpt lat="49.75769" lon="2.11199">
        <ele>115.7</ele>
        <time>2023-06-21T13:40:41Z</time>
      </trkpt>
      <trkpt lat="49.7577" lon="2.11198">
        <ele>115.7</ele>
        <time>2023-06-21T13:40:42Z</time>
      </trkpt>
      <trkpt lat="49.75771" lon="2.11196">
        <ele>115.7</ele>
        <time>2023-06-21T13:40:43Z</time>
      </trkpt>
      <trkpt lat="49.75772" lon="2.11195">
        <ele>115.7</ele>
        <time>2023-06-21T13:40:45Z</time>
      </trkpt>
      <trkpt lat="49.75773" lon="2.11194">
        <ele>115.7</ele>
        <time>2023-06-21T13:40:46Z</time>
      </trkpt>
      <trkpt lat="49.75774" lon="2.11191">
        <ele>115.7</ele>
        <time>2023-06-21T13:40:48Z</time>
      </trkpt>
      <trkpt lat="49.75776" lon="2.11189">
        <ele>115.7</ele>
        <time>2023-06-21T13:40:49Z</time>
      </trkpt>
      <trkpt lat="49.75776" lon="2.11188">
        <ele>115.7</ele>
        <time>2023-06-21T13:40:50Z</time>
      </trkpt>
      <trkpt lat="49.75777" lon="2.11187">
        <ele>115.7</ele>
        <time>2023-06-21T13:40:51Z</time>
      </trkpt>
      <trkpt lat="49.75778" lon="2.11186">
        <ele>115.7</ele>
        <time>2023-06-21T13:40:52Z</time>
      </trkpt>
      <trkpt lat="49.75779" lon="2.11185">
        <ele>115.7</ele>
        <time>2023-06-21T13:40:53Z</time>
      </trkpt>
      <trkpt lat="49.7578" lon="2.11184">
        <ele>115.7</ele>
        <time>2023-06-21T13:40:54Z</time>
      </trkpt>
      <trkpt lat="49.75781" lon="2.11181">
        <ele>115.7</ele>
        <time>2023-06-21T13:40:56Z</time>
      </trkpt>
      <trkpt lat="49.75782" lon="2.1118">
        <ele>115.7</ele>
        <time>2023-06-21T13:40:57Z</time>
      </trkpt>
      <trkpt lat="49.75783" lon="2.1118">
        <ele>115.7</ele>
        <time>2023-06-21T13:40:58Z</time>
      </trkpt>
      <trkpt lat="49.75783" lon="2.11178">
        <ele>115.7</ele>
        <time>2023-06-21T13:40:59Z</time>
      </trkpt>
      <trkpt lat="49.75785" lon="2.11177">
        <ele>115.7</ele>
        <time>2023-06-21T13:41:00Z</time>
      </trkpt>
      <trkpt lat="49.75785" lon="2.11176">
        <ele>115.7</ele>
        <time>2023-06-21T13:41:01Z</time>
      </trkpt>
      <trkpt lat="49.75786" lon="2.11174">
        <ele>115.7</ele>
        <time>2023-06-21T13:41:02Z</time>
      </trkpt>
      <trkpt lat="49.75787" lon="2.11173">
        <ele>115.8</ele>
        <time>2023-06-21T13:41:04Z</time>
      </trkpt>
      <trkpt lat="49.75788" lon="2.11172">
        <ele>115.8</ele>
        <time>2023-06-21T13:41:05Z</time>
      </trkpt>
      <trkpt lat="49.75789" lon="2.1117">
        <ele>115.8</ele>
        <time>2023-06-21T13:41:06Z</time>
      </trkpt>
      <trkpt lat="49.7579" lon="2.11169">
        <ele>115.8</ele>
        <time>2023-06-21T13:41:07Z</time>
      </trkpt>
      <trkpt lat="49.75791" lon="2.11168">
        <ele>115.8</ele>
        <time>2023-06-21T13:41:08Z</time>
      </trkpt>
      <trkpt lat="49.75791" lon="2.11166">
        <ele>115.8</ele>
        <time>2023-06-21T13:41:09Z</time>
      </trkpt>
      <trkpt lat="49.75792" lon="2.11165">
        <ele>115.8</ele>
        <time>2023-06-21T13:41:10Z</time>
      </trkpt>
      <trkpt lat="49.75793" lon="2.11163">
        <ele>115.8</ele>
        <time>2023-06-21T13:41:11Z</time>
      </trkpt>
      <trkpt lat="49.75794" lon="2.11162">
        <ele>115.8</ele>
        <time>2023-06-21T13:41:12Z</time>
      </trkpt>
      <trkpt lat="49.75794" lon="2.11161">
        <ele>115.8</ele>
        <time>2023-06-21T13:41:13Z</time>
      </trkpt>
      <trkpt lat="49.75796" lon="2.11158">
        <ele>115.9</ele>
        <time>2023-06-21T13:41:15Z</time>
      </trkpt>
      <trkpt lat="49.75796" lon="2.11157">
        <ele>115.9</ele>
        <time>2023-06-21T13:41:16Z</time>
      </trkpt>
      <trkpt lat="49.75797" lon="2.11156">
        <ele>115.9</ele>
        <time>2023-06-21T13:41:17Z</time>
      </trkpt>
      <trkpt lat="49.75798" lon="2.11154">
        <ele>115.9</ele>
        <time>2023-06-21T13:41:18Z</time>
      </trkpt>
      <trkpt lat="49.75799" lon="2.11153">
        <ele>115.9</ele>
        <time>2023-06-21T13:41:19Z</time>
      </trkpt>
      <trkpt lat="49.75799" lon="2.11152">
        <ele>115.9</ele>
        <time>2023-06-21T13:41:20Z</time>
      </trkpt>
      <trkpt lat="49.758" lon="2.1115">
        <ele>115.9</ele>
        <time>2023-06-21T13:41:21Z</time>
      </trkpt>
      <trkpt lat="49.75801" lon="2.11149">
        <ele>115.9</ele>
        <time>2023-06-21T13:41:22Z</time>
      </trkpt>
      <trkpt lat="49.75802" lon="2.11147">
        <ele>116</ele>
        <time>2023-06-21T13:41:24Z</time>
      </trkpt>
      <trkpt lat="49.75802" lon="2.11146">
        <ele>116</ele>
        <time>2023-06-21T13:41:25Z</time>
      </trkpt>
      <trkpt lat="49.75803" lon="2.11145">
        <ele>116</ele>
        <time>2023-06-21T13:41:26Z</time>
      </trkpt>
      <trkpt lat="49.75804" lon="2.11144">
        <ele>116</ele>
        <time>2023-06-21T13:41:27Z</time>
      </trkpt>
      <trkpt lat="49.75805" lon="2.11142">
        <ele>116</ele>
        <time>2023-06-21T13:41:28Z</time>
      </trkpt>
      <trkpt lat="49.75806" lon="2.1114">
        <ele>116</ele>
        <time>2023-06-21T13:41:30Z</time>
      </trkpt>
      <trkpt lat="49.75807" lon="2.11139">
        <ele>116</ele>
        <time>2023-06-21T13:41:31Z</time>
      </trkpt>
      <trkpt lat="49.75808" lon="2.11138">
        <ele>116.1</ele>
        <time>2023-06-21T13:41:32Z</time>
      </trkpt>
      <trkpt lat="49.75808" lon="2.11138">
        <ele>116.1</ele>
        <time>2023-06-21T13:41:33Z</time>
      </trkpt>
      <trkpt lat="49.7581" lon="2.11136">
        <ele>116.1</ele>
        <time>2023-06-21T13:41:35Z</time>
      </trkpt>
      <trkpt lat="49.7581" lon="2.11135">
        <ele>116.1</ele>
        <time>2023-06-21T13:41:36Z</time>
      </trkpt>
      <trkpt lat="49.75811" lon="2.11134">
        <ele>116.1</ele>
        <time>2023-06-21T13:41:37Z</time>
      </trkpt>
      <trkpt lat="49.75812" lon="2.11133">
        <ele>116.2</ele>
        <time>2023-06-21T13:41:38Z</time>
      </trkpt>
      <trkpt lat="49.75813" lon="2.11132">
        <ele>116.2</ele>
        <time>2023-06-21T13:41:39Z</time>
      </trkpt>
      <trkpt lat="49.75813" lon="2.11131">
        <ele>116.2</ele>
        <time>2023-06-21T13:41:40Z</time>
      </trkpt>
      <trkpt lat="49.75814" lon="2.1113">
        <ele>116.2</ele>
        <time>2023-06-21T13:41:42Z</time>
      </trkpt>
      <trkpt lat="49.75815" lon="2.11128">
        <ele>116.3</ele>
        <time>2023-06-21T13:41:43Z</time>
      </trkpt>
      <trkpt lat="49.75815" lon="2.11127">
        <ele>116.3</ele>
        <time>2023-06-21T13:41:44Z</time>
      </trkpt>
      <trkpt lat="49.75816" lon="2.11126">
        <ele>116.3</ele>
        <time>2023-06-21T13:41:45Z</time>
      </trkpt>
      <trkpt lat="49.75817" lon="2.11125">
        <ele>116.3</ele>
        <time>2023-06-21T13:41:46Z</time>
      </trkpt>
      <trkpt lat="49.75817" lon="2.11123">
        <ele>116.4</ele>
        <time>2023-06-21T13:41:47Z</time>
      </trkpt>
      <trkpt lat="49.75818" lon="2.11122">
        <ele>116.4</ele>
        <time>2023-06-21T13:41:48Z</time>
      </trkpt>
      <trkpt lat="49.75819" lon="2.1112">
        <ele>116.4</ele>
        <time>2023-06-21T13:41:50Z</time>
      </trkpt>
      <trkpt lat="49.75819" lon="2.11119">
        <ele>116.5</ele>
        <time>2023-06-21T13:41:51Z</time>
      </trkpt>
      <trkpt lat="49.7582" lon="2.11117">
        <ele>116.5</ele>
        <time>2023-06-21T13:41:52Z</time>
      </trkpt>
      <trkpt lat="49.75821" lon="2.11115">
        <ele>116.6</ele>
        <time>2023-06-21T13:41:53Z</time>
      </trkpt>
      <trkpt lat="49.75822" lon="2.11112">
        <ele>116.6</ele>
        <time>2023-06-21T13:41:54Z</time>
      </trkpt>
      <trkpt lat="49.75822" lon="2.11111">
        <ele>116.7</ele>
        <time>2023-06-21T13:41:56Z</time>
      </trkpt>
      <trkpt lat="49.75823" lon="2.1111">
        <ele>116.7</ele>
        <time>2023-06-21T13:41:57Z</time>
      </trkpt>
      <trkpt lat="49.75824" lon="2.11108">
        <ele>116.8</ele>
        <time>2023-06-21T13:41:58Z</time>
      </trkpt>
      <trkpt lat="49.75824" lon="2.11107">
        <ele>116.8</ele>
        <time>2023-06-21T13:41:59Z</time>
      </trkpt>
      <trkpt lat="49.75825" lon="2.11106">
        <ele>116.8</ele>
        <time>2023-06-21T13:42:00Z</time>
      </trkpt>
      <trkpt lat="49.75825" lon="2.11106">
        <ele>116.8</ele>
        <time>2023-06-21T13:42:01Z</time>
      </trkpt>
      <trkpt lat="49.75826" lon="2.11105">
        <ele>116.9</ele>
        <time>2023-06-21T13:42:02Z</time>
      </trkpt>
      <trkpt lat="49.75827" lon="2.11103">
        <ele>116.9</ele>
        <time>2023-06-21T13:42:04Z</time>
      </trkpt>
      <trkpt lat="49.75827" lon="2.11102">
        <ele>117</ele>
        <time>2023-06-21T13:42:05Z</time>
      </trkpt>
      <trkpt lat="49.75828" lon="2.11101">
        <ele>117</ele>
        <time>2023-06-21T13:42:06Z</time>
      </trkpt>
      <trkpt lat="49.75829" lon="2.111">
        <ele>117</ele>
        <time>2023-06-21T13:42:07Z</time>
      </trkpt>
      <trkpt lat="49.7583" lon="2.11099">
        <ele>117.1</ele>
        <time>2023-06-21T13:42:08Z</time>
      </trkpt>
      <trkpt lat="49.7583" lon="2.11097">
        <ele>117.1</ele>
        <time>2023-06-21T13:42:09Z</time>
      </trkpt>
      <trkpt lat="49.75831" lon="2.11096">
        <ele>117.2</ele>
        <time>2023-06-21T13:42:10Z</time>
      </trkpt>
      <trkpt lat="49.75832" lon="2.11095">
        <ele>117.2</ele>
        <time>2023-06-21T13:42:11Z</time>
      </trkpt>
      <trkpt lat="49.75833" lon="2.11093">
        <ele>117.3</ele>
        <time>2023-06-21T13:42:13Z</time>
      </trkpt>
      <trkpt lat="49.75834" lon="2.11092">
        <ele>117.3</ele>
        <time>2023-06-21T13:42:14Z</time>
      </trkpt>
      <trkpt lat="49.75834" lon="2.11091">
        <ele>117.3</ele>
        <time>2023-06-21T13:42:15Z</time>
      </trkpt>
      <trkpt lat="49.75835" lon="2.1109">
        <ele>117.4</ele>
        <time>2023-06-21T13:42:16Z</time>
      </trkpt>
      <trkpt lat="49.75836" lon="2.11088">
        <ele>117.5</ele>
        <time>2023-06-21T13:42:18Z</time>
      </trkpt>
      <trkpt lat="49.75837" lon="2.11087">
        <ele>117.5</ele>
        <time>2023-06-21T13:42:19Z</time>
      </trkpt>
      <trkpt lat="49.75838" lon="2.11086">
        <ele>117.5</ele>
        <time>2023-06-21T13:42:20Z</time>
      </trkpt>
      <trkpt lat="49.75838" lon="2.11085">
        <ele>117.6</ele>
        <time>2023-06-21T13:42:21Z</time>
      </trkpt>
      <trkpt lat="49.75839" lon="2.11083">
        <ele>117.6</ele>
        <time>2023-06-21T13:42:23Z</time>
      </trkpt>
      <trkpt lat="49.75839" lon="2.11083">
        <ele>117.6</ele>
        <time>2023-06-21T13:42:24Z</time>
      </trkpt>
      <trkpt lat="49.7584" lon="2.11082">
        <ele>117.6</ele>
        <time>2023-06-21T13:42:25Z</time>
      </trkpt>
      <trkpt lat="49.75841" lon="2.11081">
        <ele>117.7</ele>
        <time>2023-06-21T13:42:26Z</time>
      </trkpt>
      <trkpt lat="49.75842" lon="2.11079">
        <ele>117.7</ele>
        <time>2023-06-21T13:42:28Z</time>
      </trkpt>
      <trkpt lat="49.75842" lon="2.11078">
        <ele>117.7</ele>
        <time>2023-06-21T13:42:29Z</time>
      </trkpt>
      <trkpt lat="49.75843" lon="2.11077">
        <ele>117.8</ele>
        <time>2023-06-21T13:42:30Z</time>
      </trkpt>
      <trkpt lat="49.75843" lon="2.11077">
        <ele>117.8</ele>
        <time>2023-06-21T13:42:31Z</time>
      </trkpt>
      <trkpt lat="49.75844" lon="2.11075">
        <ele>117.8</ele>
        <time>2023-06-21T13:42:32Z</time>
      </trkpt>
      <trkpt lat="49.75845" lon="2.11074">
        <ele>117.9</ele>
        <time>2023-06-21T13:42:34Z</time>
      </trkpt>
      <trkpt lat="49.75845" lon="2.11073">
        <ele>117.9</ele>
        <time>2023-06-21T13:42:35Z</time>
      </trkpt>
      <trkpt lat="49.75846" lon="2.11072">
        <ele>117.9</ele>
        <time>2023-06-21T13:42:36Z</time>
      </trkpt>
      <trkpt lat="49.75847" lon="2.11071">
        <ele>117.9</ele>
        <time>2023-06-21T13:42:37Z</time>
      </trkpt>
      <trkpt lat="49.75848" lon="2.11069">
        <ele>118</ele>
        <time>2023-06-21T13:42:39Z</time>
      </trkpt>
      <trkpt lat="49.75848" lon="2.11068">
        <ele>118</ele>
        <time>2023-06-21T13:42:40Z</time>
      </trkpt>
      <trkpt lat="49.75849" lon="2.11067">
        <ele>118</ele>
        <time>2023-06-21T13:42:41Z</time>
      </trkpt>
      <trkpt lat="49.7585" lon="2.11065">
        <ele>118.1</ele>
        <time>2023-06-21T13:42:42Z</time>
      </trkpt>
      <trkpt lat="49.75851" lon="2.11064">
        <ele>118.1</ele>
        <time>2023-06-21T13:42:43Z</time>
      </trkpt>
      <trkpt lat="49.75851" lon="2.11063">
        <ele>118.1</ele>
        <time>2023-06-21T13:42:44Z</time>
      </trkpt>
      <trkpt lat="49.75852" lon="2.11061">
        <ele>118.2</ele>
        <time>2023-06-21T13:42:46Z</time>
      </trkpt>
      <trkpt lat="49.75852" lon="2.1106">
        <ele>118.2</ele>
        <time>2023-06-21T13:42:47Z</time>
      </trkpt>
      <trkpt lat="49.75853" lon="2.11059">
        <ele>118.2</ele>
        <time>2023-06-21T13:42:48Z</time>
      </trkpt>
      <trkpt lat="49.75853" lon="2.11058">
        <ele>118.3</ele>
        <time>2023-06-21T13:42:49Z</time>
      </trkpt>
      <trkpt lat="49.75855" lon="2.11055">
        <ele>118.3</ele>
        <time>2023-06-21T13:42:50Z</time>
      </trkpt>
      <trkpt lat="49.75855" lon="2.11055">
        <ele>118.3</ele>
        <time>2023-06-21T13:42:51Z</time>
      </trkpt>
      <trkpt lat="49.75856" lon="2.11054">
        <ele>118.4</ele>
        <time>2023-06-21T13:42:52Z</time>
      </trkpt>
      <trkpt lat="49.75857" lon="2.11051">
        <ele>118.4</ele>
        <time>2023-06-21T13:42:54Z</time>
      </trkpt>
      <trkpt lat="49.75857" lon="2.1105">
        <ele>118.4</ele>
        <time>2023-06-21T13:42:55Z</time>
      </trkpt>
      <trkpt lat="49.75858" lon="2.11049">
        <ele>118.5</ele>
        <time>2023-06-21T13:42:56Z</time>
      </trkpt>
      <trkpt lat="49.75858" lon="2.11047">
        <ele>118.5</ele>
        <time>2023-06-21T13:42:57Z</time>
      </trkpt>
      <trkpt lat="49.75859" lon="2.11046">
        <ele>118.5</ele>
        <time>2023-06-21T13:42:58Z</time>
      </trkpt>
      <trkpt lat="49.7586" lon="2.11045">
        <ele>118.6</ele>
        <time>2023-06-21T13:42:59Z</time>
      </trkpt>
      <trkpt lat="49.75861" lon="2.11042">
        <ele>118.6</ele>
        <time>2023-06-21T13:43:01Z</time>
      </trkpt>
      <trkpt lat="49.75861" lon="2.11041">
        <ele>118.6</ele>
        <time>2023-06-21T13:43:02Z</time>
      </trkpt>
      <trkpt lat="49.75861" lon="2.1104">
        <ele>118.7</ele>
        <time>2023-06-21T13:43:03Z</time>
      </trkpt>
      <trkpt lat="49.75862" lon="2.11038">
        <ele>118.7</ele>
        <time>2023-06-21T13:43:04Z</time>
      </trkpt>
      <trkpt lat="49.75863" lon="2.11037">
        <ele>118.7</ele>
        <time>2023-06-21T13:43:05Z</time>
      </trkpt>
      <trkpt lat="49.75864" lon="2.11035">
        <ele>118.8</ele>
        <time>2023-06-21T13:43:07Z</time>
      </trkpt>
      <trkpt lat="49.75865" lon="2.11034">
        <ele>118.8</ele>
        <time>2023-06-21T13:43:08Z</time>
      </trkpt>
      <trkpt lat="49.75865" lon="2.11033">
        <ele>118.8</ele>
        <time>2023-06-21T13:43:09Z</time>
      </trkpt>
      <trkpt lat="49.75866" lon="2.11031">
        <ele>118.9</ele>
        <time>2023-06-21T13:43:10Z</time>
      </trkpt>
      <trkpt lat="49.75867" lon="2.1103">
        <ele>118.9</ele>
        <time>2023-06-21T13:43:11Z</time>
      </trkpt>
      <trkpt lat="49.75868" lon="2.11028">
        <ele>119</ele>
        <time>2023-06-21T13:43:13Z</time>
      </trkpt>
      <trkpt lat="49.75868" lon="2.11027">
        <ele>119</ele>
        <time>2023-06-21T13:43:14Z</time>
      </trkpt>
      <trkpt lat="49.75869" lon="2.11026">
        <ele>119</ele>
        <time>2023-06-21T13:43:15Z</time>
      </trkpt>
      <trkpt lat="49.7587" lon="2.11025">
        <ele>119.1</ele>
        <time>2023-06-21T13:43:16Z</time>
      </trkpt>
      <trkpt lat="49.7587" lon="2.11023">
        <ele>119.1</ele>
        <time>2023-06-21T13:43:18Z</time>
      </trkpt>
      <trkpt lat="49.75871" lon="2.11022">
        <ele>119.1</ele>
        <time>2023-06-21T13:43:19Z</time>
      </trkpt>
      <trkpt lat="49.75872" lon="2.11021">
        <ele>119.2</ele>
        <time>2023-06-21T13:43:20Z</time>
      </trkpt>
      <trkpt lat="49.75873" lon="2.1102">
        <ele>119.2</ele>
        <time>2023-06-21T13:43:21Z</time>
      </trkpt>
      <trkpt lat="49.75874" lon="2.11018">
        <ele>119.3</ele>
        <time>2023-06-21T13:43:22Z</time>
      </trkpt>
      <trkpt lat="49.75875" lon="2.11016">
        <ele>119.3</ele>
        <time>2023-06-21T13:43:24Z</time>
      </trkpt>
      <trkpt lat="49.75875" lon="2.11015">
        <ele>119.3</ele>
        <time>2023-06-21T13:43:25Z</time>
      </trkpt>
      <trkpt lat="49.75876" lon="2.11014">
        <ele>119.4</ele>
        <time>2023-06-21T13:43:26Z</time>
      </trkpt>
      <trkpt lat="49.75877" lon="2.11012">
        <ele>119.4</ele>
        <time>2023-06-21T13:43:27Z</time>
      </trkpt>
      <trkpt lat="49.75878" lon="2.11011">
        <ele>119.5</ele>
        <time>2023-06-21T13:43:29Z</time>
      </trkpt>
      <trkpt lat="49.75878" lon="2.11009">
        <ele>119.5</ele>
        <time>2023-06-21T13:43:30Z</time>
      </trkpt>
      <trkpt lat="49.75879" lon="2.11008">
        <ele>119.6</ele>
        <time>2023-06-21T13:43:31Z</time>
      </trkpt>
      <trkpt lat="49.75879" lon="2.11007">
        <ele>119.6</ele>
        <time>2023-06-21T13:43:32Z</time>
      </trkpt>
      <trkpt lat="49.7588" lon="2.11006">
        <ele>119.7</ele>
        <time>2023-06-21T13:43:33Z</time>
      </trkpt>
      <trkpt lat="49.75881" lon="2.11004">
        <ele>119.7</ele>
        <time>2023-06-21T13:43:34Z</time>
      </trkpt>
      <trkpt lat="49.75882" lon="2.11002">
        <ele>119.8</ele>
        <time>2023-06-21T13:43:35Z</time>
      </trkpt>
      <trkpt lat="49.75883" lon="2.11001">
        <ele>119.9</ele>
        <time>2023-06-21T13:43:37Z</time>
      </trkpt>
      <trkpt lat="49.75884" lon="2.11">
        <ele>120.3</ele>
        <time>2023-06-21T13:43:38Z</time>
      </trkpt>
      <trkpt lat="49.75884" lon="2.10999">
        <ele>120.3</ele>
        <time>2023-06-21T13:43:39Z</time>
      </trkpt>
      <trkpt lat="49.75884" lon="2.10999">
        <ele>120.3</ele>
        <time>2023-06-21T13:43:41Z</time>
      </trkpt>
      <trkpt lat="49.75884" lon="2.10999">
        <ele>120.3</ele>
        <time>2023-06-21T13:43:42Z</time>
      </trkpt>
      <trkpt lat="49.75884" lon="2.10999">
        <ele>120.3</ele>
        <time>2023-06-21T13:43:44Z</time>
      </trkpt>
      <trkpt lat="49.75884" lon="2.10999">
        <ele>120.3</ele>
        <time>2023-06-21T13:43:45Z</time>
      </trkpt>
      <trkpt lat="49.75884" lon="2.10999">
        <ele>120.3</ele>
        <time>2023-06-21T13:43:46Z</time>
      </trkpt>
      <trkpt lat="49.75884" lon="2.10999">
        <ele>120.3</ele>
        <time>2023-06-21T13:43:48Z</time>
      </trkpt>
      <trkpt lat="49.75884" lon="2.10999">
        <ele>120.3</ele>
        <time>2023-06-21T13:43:49Z</time>
      </trkpt>
      <trkpt lat="49.75884" lon="2.10999">
        <ele>120.3</ele>
        <time>2023-06-21T13:43:50Z</time>
      </trkpt>
      <trkpt lat="49.75884" lon="2.10999">
        <ele>120.3</ele>
        <time>2023-06-21T13:43:52Z</time>
      </trkpt>
      <trkpt lat="49.75884" lon="2.10999">
        <ele>120.3</ele>
        <time>2023-06-21T13:43:53Z</time>
      </trkpt>
      <trkpt lat="49.75884" lon="2.10999">
        <ele>120.3</ele>
        <time>2023-06-21T13:43:55Z</time>
      </trkpt>
      <trkpt lat="49.75884" lon="2.10999">
        <ele>120.3</ele>
        <time>2023-06-21T13:43:56Z</time>
      </trkpt>
      <trkpt lat="49.75884" lon="2.10999">
        <ele>120.3</ele>
        <time>2023-06-21T13:43:58Z</time>
      </trkpt>
      <trkpt lat="49.75884" lon="2.10999">
        <ele>120.3</ele>
        <time>2023-06-21T13:43:59Z</time>
      </trkpt>
      <trkpt lat="49.75884" lon="2.10999">
        <ele>120.3</ele>
        <time>2023-06-21T13:44:00Z</time>
      </trkpt>
      <trkpt lat="49.75884" lon="2.10999">
        <ele>120.3</ele>
        <time>2023-06-21T13:44:01Z</time>
      </trkpt>
      <trkpt lat="49.75884" lon="2.10999">
        <ele>120.3</ele>
        <time>2023-06-21T13:44:02Z</time>
      </trkpt>
      <trkpt lat="49.75884" lon="2.10999">
        <ele>120.3</ele>
        <time>2023-06-21T13:44:03Z</time>
      </trkpt>
      <trkpt lat="49.75884" lon="2.10999">
        <ele>120.3</ele>
        <time>2023-06-21T13:44:04Z</time>
      </trkpt>
      <trkpt lat="49.75884" lon="2.10999">
        <ele>120.3</ele>
        <time>2023-06-21T13:44:05Z</time>
      </trkpt>
      <trkpt lat="49.75884" lon="2.10999">
        <ele>120.3</ele>
        <time>2023-06-21T13:44:06Z</time>
      </trkpt>
      <trkpt lat="49.75884" lon="2.11">
        <ele>120.3</ele>
        <time>2023-06-21T13:44:07Z</time>
      </trkpt>
      <trkpt lat="49.75884" lon="2.11">
        <ele>120.3</ele>
        <time>2023-06-21T13:44:08Z</time>
      </trkpt>
      <trkpt lat="49.75884" lon="2.11">
        <ele>120.3</ele>
        <time>2023-06-21T13:44:09Z</time>
      </trkpt>
      <trkpt lat="49.75884" lon="2.11">
        <ele>120.3</ele>
        <time>2023-06-21T13:44:10Z</time>
      </trkpt>
      <trkpt lat="49.75884" lon="2.11">
        <ele>120.3</ele>
        <time>2023-06-21T13:44:11Z</time>
      </trkpt>
      <trkpt lat="49.75884" lon="2.11">
        <ele>120.3</ele>
        <time>2023-06-21T13:44:12Z</time>
      </trkpt>
      <trkpt lat="49.75884" lon="2.11">
        <ele>120.3</ele>
        <time>2023-06-21T13:44:13Z</time>
      </trkpt>
      <trkpt lat="49.75884" lon="2.11">
        <ele>120.3</ele>
        <time>2023-06-21T13:44:14Z</time>
      </trkpt>
      <trkpt lat="49.75884" lon="2.11">
        <ele>120.3</ele>
        <time>2023-06-21T13:44:15Z</time>
      </trkpt>
      <trkpt lat="49.75884" lon="2.11">
        <ele>120.3</ele>
        <time>2023-06-21T13:44:16Z</time>
      </trkpt>
      <trkpt lat="49.75884" lon="2.11">
        <ele>120.3</ele>
        <time>2023-06-21T13:44:17Z</time>
      </trkpt>
      <trkpt lat="49.75884" lon="2.11">
        <ele>120.3</ele>
        <time>2023-06-21T13:44:18Z</time>
      </trkpt>
      <trkpt lat="49.75884" lon="2.11">
        <ele>120.3</ele>
        <time>2023-06-21T13:44:19Z</time>
      </trkpt>
      <trkpt lat="49.75885" lon="2.11">
        <ele>120.3</ele>
        <time>2023-06-21T13:44:20Z</time>
      </trkpt>
      <trkpt lat="49.75885" lon="2.11">
        <ele>120.3</ele>
        <time>2023-06-21T13:44:21Z</time>
      </trkpt>
      <trkpt lat="49.75885" lon="2.11">
        <ele>120.3</ele>
        <time>2023-06-21T13:44:22Z</time>
      </trkpt>
      <trkpt lat="49.75885" lon="2.11">
        <ele>120.3</ele>
        <time>2023-06-21T13:44:23Z</time>
      </trkpt>
      <trkpt lat="49.75885" lon="2.11">
        <ele>120.3</ele>
        <time>2023-06-21T13:44:24Z</time>
      </trkpt>
      <trkpt lat="49.75885" lon="2.11">
        <ele>120.4</ele>
        <time>2023-06-21T13:44:25Z</time>
      </trkpt>
      <trkpt lat="49.75885" lon="2.11">
        <ele>120.4</ele>
        <time>2023-06-21T13:44:26Z</time>
      </trkpt>
      <trkpt lat="49.75885" lon="2.11">
        <ele>120.4</ele>
        <time>2023-06-21T13:44:27Z</time>
      </trkpt>
      <trkpt lat="49.75885" lon="2.11">
        <ele>120.4</ele>
        <time>2023-06-21T13:44:28Z</time>
      </trkpt>
      <trkpt lat="49.75885" lon="2.11">
        <ele>120.4</ele>
        <time>2023-06-21T13:44:29Z</time>
      </trkpt>
      <trkpt lat="49.75885" lon="2.11">
        <ele>120.4</ele>
        <time>2023-06-21T13:44:30Z</time>
      </trkpt>
      <trkpt lat="49.75885" lon="2.11">
        <ele>120.4</ele>
        <time>2023-06-21T13:44:31Z</time>
      </trkpt>
      <trkpt lat="49.75885" lon="2.11">
        <ele>120.4</ele>
        <time>2023-06-21T13:44:32Z</time>
      </trkpt>
      <trkpt lat="49.75885" lon="2.11">
        <ele>120.4</ele>
        <time>2023-06-21T13:44:33Z</time>
      </trkpt>
      <trkpt lat="49.75885" lon="2.11">
        <ele>120.4</ele>
        <time>2023-06-21T13:44:34Z</time>
      </trkpt>
      <trkpt lat="49.75885" lon="2.11">
        <ele>120.4</ele>
        <time>2023-06-21T13:44:35Z</time>
      </trkpt>
      <trkpt lat="49.75885" lon="2.11">
        <ele>120.4</ele>
        <time>2023-06-21T13:44:36Z</time>
      </trkpt>
      <trkpt lat="49.75885" lon="2.11">
        <ele>120.4</ele>
        <time>2023-06-21T13:44:37Z</time>
      </trkpt>
      <trkpt lat="49.75885" lon="2.11">
        <ele>120.4</ele>
        <time>2023-06-21T13:44:38Z</time>
      </trkpt>
      <trkpt lat="49.75885" lon="2.11">
        <ele>120.4</ele>
        <time>2023-06-21T13:44:39Z</time>
      </trkpt>
      <trkpt lat="49.75885" lon="2.11">
        <ele>120.4</ele>
        <time>2023-06-21T13:44:40Z</time>
      </trkpt>
      <trkpt lat="49.75885" lon="2.11">
        <ele>120.4</ele>
        <time>2023-06-21T13:44:41Z</time>
      </trkpt>
      <trkpt lat="49.75885" lon="2.11">
        <ele>120.4</ele>
        <time>2023-06-21T13:44:42Z</time>
      </trkpt>
      <trkpt lat="49.75885" lon="2.11">
        <ele>120.4</ele>
        <time>2023-06-21T13:44:43Z</time>
      </trkpt>
      <trkpt lat="49.75885" lon="2.11">
        <ele>120.4</ele>
        <time>2023-06-21T13:44:44Z</time>
      </trkpt>
      <trkpt lat="49.75885" lon="2.11">
        <ele>120.4</ele>
        <time>2023-06-21T13:44:45Z</time>
      </trkpt>
      <trkpt lat="49.75885" lon="2.11">
        <ele>120.4</ele>
        <time>2023-06-21T13:44:46Z</time>
      </trkpt>
      <trkpt lat="49.75885" lon="2.11">
        <ele>120.4</ele>
        <time>2023-06-21T13:44:47Z</time>
      </trkpt>
      <trkpt lat="49.75885" lon="2.11">
        <ele>120.4</ele>
        <time>2023-06-21T13:44:48Z</time>
      </trkpt>
      <trkpt lat="49.75885" lon="2.11">
        <ele>120.4</ele>
        <time>2023-06-21T13:44:49Z</time>
      </trkpt>
      <trkpt lat="49.75885" lon="2.11">
        <ele>120.4</ele>
        <time>2023-06-21T13:44:50Z</time>
      </trkpt>
      <trkpt lat="49.75885" lon="2.11001">
        <ele>120.4</ele>
        <time>2023-06-21T13:44:51Z</time>
      </trkpt>
      <trkpt lat="49.75885" lon="2.11001">
        <ele>120.4</ele>
        <time>2023-06-21T13:44:52Z</time>
      </trkpt>
      <trkpt lat="49.75885" lon="2.11001">
        <ele>120.4</ele>
        <time>2023-06-21T13:44:53Z</time>
      </trkpt>
      <trkpt lat="49.75885" lon="2.11001">
        <ele>120.4</ele>
        <time>2023-06-21T13:44:54Z</time>
      </trkpt>
      <trkpt lat="49.75885" lon="2.11001">
        <ele>120.4</ele>
        <time>2023-06-21T13:44:55Z</time>
      </trkpt>
      <trkpt lat="49.75885" lon="2.11001">
        <ele>120.4</ele>
        <time>2023-06-21T13:44:56Z</time>
      </trkpt>
      <trkpt lat="49.75885" lon="2.11001">
        <ele>120.4</ele>
        <time>2023-06-21T13:44:57Z</time>
      </trkpt>
      <trkpt lat="49.75885" lon="2.11001">
        <ele>120.4</ele>
        <time>2023-06-21T13:44:58Z</time>
      </trkpt>
      <trkpt lat="49.75885" lon="2.11001">
        <ele>120.4</ele>
        <time>2023-06-21T13:44:59Z</time>
      </trkpt>
      <trkpt lat="49.75885" lon="2.11001">
        <ele>120.4</ele>
        <time>2023-06-21T13:45:00Z</time>
      </trkpt>
      <trkpt lat="49.75885" lon="2.11001">
        <ele>120.4</ele>
        <time>2023-06-21T13:45:01Z</time>
      </trkpt>
      <trkpt lat="49.75885" lon="2.11001">
        <ele>120.4</ele>
        <time>2023-06-21T13:45:02Z</time>
      </trkpt>
      <trkpt lat="49.75885" lon="2.11001">
        <ele>120.4</ele>
        <time>2023-06-21T13:45:03Z</time>
      </trkpt>
      <trkpt lat="49.75885" lon="2.11001">
        <ele>120.4</ele>
        <time>2023-06-21T13:45:04Z</time>
      </trkpt>
      <trkpt lat="49.75885" lon="2.11001">
        <ele>120.4</ele>
        <time>2023-06-21T13:45:05Z</time>
      </trkpt>
      <trkpt lat="49.75885" lon="2.11001">
        <ele>120.4</ele>
        <time>2023-06-21T13:45:06Z</time>
      </trkpt>
      <trkpt lat="49.75885" lon="2.11001">
        <ele>120.4</ele>
        <time>2023-06-21T13:45:07Z</time>
      </trkpt>
      <trkpt lat="49.75885" lon="2.11001">
        <ele>120.4</ele>
        <time>2023-06-21T13:45:08Z</time>
      </trkpt>
      <trkpt lat="49.75885" lon="2.11001">
        <ele>120.4</ele>
        <time>2023-06-21T13:45:09Z</time>
      </trkpt>
      <trkpt lat="49.75885" lon="2.11001">
        <ele>120.4</ele>
        <time>2023-06-21T13:45:10Z</time>
      </trkpt>
      <trkpt lat="49.75885" lon="2.11001">
        <ele>120.4</ele>
        <time>2023-06-21T13:45:11Z</time>
      </trkpt>
      <trkpt lat="49.75885" lon="2.11001">
        <ele>120.4</ele>
        <time>2023-06-21T13:45:12Z</time>
      </trkpt>
      <trkpt lat="49.75885" lon="2.11001">
        <ele>120.4</ele>
        <time>2023-06-21T13:45:13Z</time>
      </trkpt>
      <trkpt lat="49.75885" lon="2.11001">
        <ele>120.4</ele>
        <time>2023-06-21T13:45:14Z</time>
      </trkpt>
      <trkpt lat="49.75885" lon="2.11001">
        <ele>120.4</ele>
        <time>2023-06-21T13:45:15Z</time>
      </trkpt>
      <trkpt lat="49.75885" lon="2.11001">
        <ele>120.4</ele>
        <time>2023-06-21T13:45:16Z</time>
      </trkpt>
      <trkpt lat="49.75885" lon="2.11001">
        <ele>120.4</ele>
        <time>2023-06-21T13:45:17Z</time>
      </trkpt>
      <trkpt lat="49.75885" lon="2.11001">
        <ele>120.4</ele>
        <time>2023-06-21T13:45:18Z</time>
      </trkpt>
      <trkpt lat="49.75885" lon="2.11001">
        <ele>120.4</ele>
        <time>2023-06-21T13:45:19Z</time>
      </trkpt>
      <trkpt lat="49.75885" lon="2.11001">
        <ele>120.4</ele>
        <time>2023-06-21T13:45:20Z</time>
      </trkpt>
      <trkpt lat="49.75885" lon="2.11001">
        <ele>120.4</ele>
        <time>2023-06-21T13:45:21Z</time>
      </trkpt>
      <trkpt lat="49.75885" lon="2.11001">
        <ele>120.4</ele>
        <time>2023-06-21T13:45:22Z</time>
      </trkpt>
      <trkpt lat="49.75885" lon="2.11001">
        <ele>120.4</ele>
        <time>2023-06-21T13:45:23Z</time>
      </trkpt>
      <trkpt lat="49.75885" lon="2.11001">
        <ele>120.4</ele>
        <time>2023-06-21T13:45:24Z</time>
      </trkpt>
      <trkpt lat="49.75885" lon="2.11001">
        <ele>120.4</ele>
        <time>2023-06-21T13:45:25Z</time>
      </trkpt>
      <trkpt lat="49.75885" lon="2.11001">
        <ele>120.4</ele>
        <time>2023-06-21T13:45:26Z</time>
      </trkpt>
      <trkpt lat="49.75885" lon="2.11001">
        <ele>120.4</ele>
        <time>2023-06-21T13:45:27Z</time>
      </trkpt>
      <trkpt lat="49.75885" lon="2.11001">
        <ele>120.4</ele>
        <time>2023-06-21T13:45:28Z</time>
      </trkpt>
      <trkpt lat="49.75885" lon="2.11001">
        <ele>120.4</ele>
        <time>2023-06-21T13:45:29Z</time>
      </trkpt>
      <trkpt lat="49.75885" lon="2.11001">
        <ele>120.4</ele>
        <time>2023-06-21T13:45:30Z</time>
      </trkpt>
      <trkpt lat="49.75885" lon="2.11001">
        <ele>120.4</ele>
        <time>2023-06-21T13:45:31Z</time>
      </trkpt>
      <trkpt lat="49.75885" lon="2.11001">
        <ele>120.4</ele>
        <time>2023-06-21T13:45:32Z</time>
      </trkpt>
      <trkpt lat="49.75885" lon="2.11001">
        <ele>120.4</ele>
        <time>2023-06-21T13:45:33Z</time>
      </trkpt>
      <trkpt lat="49.75885" lon="2.11002">
        <ele>120.4</ele>
        <time>2023-06-21T13:45:34Z</time>
      </trkpt>
      <trkpt lat="49.75885" lon="2.11002">
        <ele>120.4</ele>
        <time>2023-06-21T13:45:35Z</time>
      </trkpt>
      <trkpt lat="49.75885" lon="2.11002">
        <ele>120.4</ele>
        <time>2023-06-21T13:45:36Z</time>
      </trkpt>
      <trkpt lat="49.75885" lon="2.11002">
        <ele>120.4</ele>
        <time>2023-06-21T13:45:37Z</time>
      </trkpt>
      <trkpt lat="49.75885" lon="2.11002">
        <ele>120.4</ele>
        <time>2023-06-21T13:45:38Z</time>
      </trkpt>
      <trkpt lat="49.75886" lon="2.11002">
        <ele>120.4</ele>
        <time>2023-06-21T13:45:39Z</time>
      </trkpt>
      <trkpt lat="49.75886" lon="2.11002">
        <ele>120.4</ele>
        <time>2023-06-21T13:45:40Z</time>
      </trkpt>
      <trkpt lat="49.75886" lon="2.11002">
        <ele>120.4</ele>
        <time>2023-06-21T13:45:41Z</time>
      </trkpt>
      <trkpt lat="49.75886" lon="2.11002">
        <ele>120.4</ele>
        <time>2023-06-21T13:45:42Z</time>
      </trkpt>
      <trkpt lat="49.75886" lon="2.11002">
        <ele>120.4</ele>
        <time>2023-06-21T13:45:43Z</time>
      </trkpt>
      <trkpt lat="49.75886" lon="2.11002">
        <ele>120.4</ele>
        <time>2023-06-21T13:45:44Z</time>
      </trkpt>
      <trkpt lat="49.75886" lon="2.11002">
        <ele>120.4</ele>
        <time>2023-06-21T13:45:45Z</time>
      </trkpt>
      <trkpt lat="49.75886" lon="2.11002">
        <ele>120.4</ele>
        <time>2023-06-21T13:45:46Z</time>
      </trkpt>
      <trkpt lat="49.75886" lon="2.11002">
        <ele>120.4</ele>
        <time>2023-06-21T13:45:47Z</time>
      </trkpt>
      <trkpt lat="49.75886" lon="2.11002">
        <ele>120.4</ele>
        <time>2023-06-21T13:45:48Z</time>
      </trkpt>
      <trkpt lat="49.75886" lon="2.11002">
        <ele>120.4</ele>
        <time>2023-06-21T13:45:49Z</time>
      </trkpt>
      <trkpt lat="49.75886" lon="2.11002">
        <ele>120.4</ele>
        <time>2023-06-21T13:45:50Z</time>
      </trkpt>
      <trkpt lat="49.75886" lon="2.11002">
        <ele>120.4</ele>
        <time>2023-06-21T13:45:51Z</time>
      </trkpt>
      <trkpt lat="49.75886" lon="2.11002">
        <ele>120.4</ele>
        <time>2023-06-21T13:45:52Z</time>
      </trkpt>
      <trkpt lat="49.75886" lon="2.11002">
        <ele>120.4</ele>
        <time>2023-06-21T13:45:53Z</time>
      </trkpt>
      <trkpt lat="49.75886" lon="2.11002">
        <ele>120.4</ele>
        <time>2023-06-21T13:45:54Z</time>
      </trkpt>
      <trkpt lat="49.75886" lon="2.11002">
        <ele>120.4</ele>
        <time>2023-06-21T13:45:55Z</time>
      </trkpt>
      <trkpt lat="49.75886" lon="2.11002">
        <ele>120.4</ele>
        <time>2023-06-21T13:45:56Z</time>
      </trkpt>
      <trkpt lat="49.75886" lon="2.11002">
        <ele>120.4</ele>
        <time>2023-06-21T13:45:57Z</time>
      </trkpt>
      <trkpt lat="49.75886" lon="2.11002">
        <ele>120.4</ele>
        <time>2023-06-21T13:45:58Z</time>
      </trkpt>
      <trkpt lat="49.75886" lon="2.11002">
        <ele>120.4</ele>
        <time>2023-06-21T13:45:59Z</time>
      </trkpt>
      <trkpt lat="49.75886" lon="2.11002">
        <ele>120.4</ele>
        <time>2023-06-21T13:46:00Z</time>
      </trkpt>
      <trkpt lat="49.75886" lon="2.11002">
        <ele>120.4</ele>
        <time>2023-06-21T13:46:01Z</time>
      </trkpt>
      <trkpt lat="49.75886" lon="2.11002">
        <ele>120.4</ele>
        <time>2023-06-21T13:46:02Z</time>
      </trkpt>
      <trkpt lat="49.75886" lon="2.11002">
        <ele>120.4</ele>
        <time>2023-06-21T13:46:03Z</time>
      </trkpt>
      <trkpt lat="49.75886" lon="2.11002">
        <ele>120.4</ele>
        <time>2023-06-21T13:46:04Z</time>
      </trkpt>
      <trkpt lat="49.75886" lon="2.11002">
        <ele>120.4</ele>
        <time>2023-06-21T13:46:05Z</time>
      </trkpt>
      <trkpt lat="49.75886" lon="2.11002">
        <ele>120.4</ele>
        <time>2023-06-21T13:46:06Z</time>
      </trkpt>
      <trkpt lat="49.75886" lon="2.11002">
        <ele>120.4</ele>
        <time>2023-06-21T13:46:07Z</time>
      </trkpt>
      <trkpt lat="49.75886" lon="2.11002">
        <ele>120.4</ele>
        <time>2023-06-21T13:46:08Z</time>
      </trkpt>
      <trkpt lat="49.75886" lon="2.11002">
        <ele>120.4</ele>
        <time>2023-06-21T13:46:09Z</time>
      </trkpt>
      <trkpt lat="49.75886" lon="2.11002">
        <ele>120.4</ele>
        <time>2023-06-21T13:46:10Z</time>
      </trkpt>
      <trkpt lat="49.75886" lon="2.11002">
        <ele>120.4</ele>
        <time>2023-06-21T13:46:11Z</time>
      </trkpt>
      <trkpt lat="49.75886" lon="2.11002">
        <ele>120.4</ele>
        <time>2023-06-21T13:46:12Z</time>
      </trkpt>
      <trkpt lat="49.75886" lon="2.11002">
        <ele>120.4</ele>
        <time>2023-06-21T13:46:13Z</time>
      </trkpt>
      <trkpt lat="49.75886" lon="2.11002">
        <ele>120.4</ele>
        <time>2023-06-21T13:46:14Z</time>
      </trkpt>
      <trkpt lat="49.75886" lon="2.11002">
        <ele>120.4</ele>
        <time>2023-06-21T13:46:15Z</time>
      </trkpt>
      <trkpt lat="49.75886" lon="2.11002">
        <ele>120.4</ele>
        <time>2023-06-21T13:46:16Z</time>
      </trkpt>
      <trkpt lat="49.75886" lon="2.11003">
        <ele>120.4</ele>
        <time>2023-06-21T13:46:17Z</time>
      </trkpt>
      <trkpt lat="49.75886" lon="2.11003">
        <ele>120.4</ele>
        <time>2023-06-21T13:46:18Z</time>
      </trkpt>
      <trkpt lat="49.75886" lon="2.11003">
        <ele>120.4</ele>
        <time>2023-06-21T13:46:19Z</time>
      </trkpt>
      <trkpt lat="49.75886" lon="2.11003">
        <ele>120.4</ele>
        <time>2023-06-21T13:46:20Z</time>
      </trkpt>
      <trkpt lat="49.75886" lon="2.11003">
        <ele>120.4</ele>
        <time>2023-06-21T13:46:21Z</time>
      </trkpt>
      <trkpt lat="49.75886" lon="2.11003">
        <ele>120.4</ele>
        <time>2023-06-21T13:46:22Z</time>
      </trkpt>
      <trkpt lat="49.75886" lon="2.11003">
        <ele>120.4</ele>
        <time>2023-06-21T13:46:23Z</time>
      </trkpt>
      <trkpt lat="49.75886" lon="2.11003">
        <ele>120.4</ele>
        <time>2023-06-21T13:46:24Z</time>
      </trkpt>
      <trkpt lat="49.75886" lon="2.11003">
        <ele>120.4</ele>
        <time>2023-06-21T13:46:25Z</time>
      </trkpt>
      <trkpt lat="49.75886" lon="2.11003">
        <ele>120.4</ele>
        <time>2023-06-21T13:46:26Z</time>
      </trkpt>
      <trkpt lat="49.75886" lon="2.11003">
        <ele>120.4</ele>
        <time>2023-06-21T13:46:27Z</time>
      </trkpt>
      <trkpt lat="49.75886" lon="2.11003">
        <ele>120.4</ele>
        <time>2023-06-21T13:46:28Z</time>
      </trkpt>
      <trkpt lat="49.75886" lon="2.11003">
        <ele>120.4</ele>
        <time>2023-06-21T13:46:29Z</time>
      </trkpt>
      <trkpt lat="49.75886" lon="2.11003">
        <ele>120.4</ele>
        <time>2023-06-21T13:46:30Z</time>
      </trkpt>
      <trkpt lat="49.75886" lon="2.11003">
        <ele>120.4</ele>
        <time>2023-06-21T13:46:31Z</time>
      </trkpt>
      <trkpt lat="49.75886" lon="2.11003">
        <ele>120.4</ele>
        <time>2023-06-21T13:46:32Z</time>
      </trkpt>
      <trkpt lat="49.75886" lon="2.11003">
        <ele>120.4</ele>
        <time>2023-06-21T13:46:33Z</time>
      </trkpt>
      <trkpt lat="49.75886" lon="2.11003">
        <ele>120.4</ele>
        <time>2023-06-21T13:46:34Z</time>
      </trkpt>
      <trkpt lat="49.75886" lon="2.11003">
        <ele>120.4</ele>
        <time>2023-06-21T13:46:35Z</time>
      </trkpt>
      <trkpt lat="49.75886" lon="2.11003">
        <ele>120.4</ele>
        <time>2023-06-21T13:46:36Z</time>
      </trkpt>
      <trkpt lat="49.75886" lon="2.11003">
        <ele>120.4</ele>
        <time>2023-06-21T13:46:37Z</time>
      </trkpt>
      <trkpt lat="49.75886" lon="2.11003">
        <ele>120.4</ele>
        <time>2023-06-21T13:46:38Z</time>
      </trkpt>
      <trkpt lat="49.75886" lon="2.11003">
        <ele>120.4</ele>
        <time>2023-06-21T13:46:39Z</time>
      </trkpt>
      <trkpt lat="49.75886" lon="2.11003">
        <ele>120.4</ele>
        <time>2023-06-21T13:46:40Z</time>
      </trkpt>
      <trkpt lat="49.75886" lon="2.11003">
        <ele>120.4</ele>
        <time>2023-06-21T13:46:41Z</time>
      </trkpt>
      <trkpt lat="49.75886" lon="2.11003">
        <ele>120.4</ele>
        <time>2023-06-21T13:46:42Z</time>
      </trkpt>
      <trkpt lat="49.75886" lon="2.11003">
        <ele>120.4</ele>
        <time>2023-06-21T13:46:43Z</time>
      </trkpt>
      <trkpt lat="49.75886" lon="2.11003">
        <ele>120.4</ele>
        <time>2023-06-21T13:46:44Z</time>
      </trkpt>
      <trkpt lat="49.75886" lon="2.11003">
        <ele>120.4</ele>
        <time>2023-06-21T13:46:45Z</time>
      </trkpt>
      <trkpt lat="49.75886" lon="2.11003">
        <ele>120.4</ele>
        <time>2023-06-21T13:46:46Z</time>
      </trkpt>
      <trkpt lat="49.75886" lon="2.11003">
        <ele>120.4</ele>
        <time>2023-06-21T13:46:47Z</time>
      </trkpt>
      <trkpt lat="49.75886" lon="2.11003">
        <ele>120.4</ele>
        <time>2023-06-21T13:46:48Z</time>
      </trkpt>
      <trkpt lat="49.75886" lon="2.11003">
        <ele>120.4</ele>
        <time>2023-06-21T13:46:49Z</time>
      </trkpt>
      <trkpt lat="49.75886" lon="2.11003">
        <ele>120.4</ele>
        <time>2023-06-21T13:46:50Z</time>
      </trkpt>
      <trkpt lat="49.75886" lon="2.11003">
        <ele>120.4</ele>
        <time>2023-06-21T13:46:52Z</time>
      </trkpt>
      <trkpt lat="49.75886" lon="2.11003">
        <ele>120.4</ele>
        <time>2023-06-21T13:46:53Z</time>
      </trkpt>
      <trkpt lat="49.75886" lon="2.11003">
        <ele>120.4</ele>
        <time>2023-06-21T13:46:55Z</time>
      </trkpt>
      <trkpt lat="49.75886" lon="2.11003">
        <ele>120.4</ele>
        <time>2023-06-21T13:46:56Z</time>
      </trkpt>
      <trkpt lat="49.75886" lon="2.11003">
        <ele>120.4</ele>
        <time>2023-06-21T13:46:57Z</time>
      </trkpt>
      <trkpt lat="49.75886" lon="2.11003">
        <ele>120.4</ele>
        <time>2023-06-21T13:46:58Z</time>
      </trkpt>
      <trkpt lat="49.75888" lon="2.11005">
        <ele>120.4</ele>
        <time>2023-06-21T13:47:00Z</time>
      </trkpt>
      <trkpt lat="49.75889" lon="2.11006">
        <ele>120.4</ele>
        <time>2023-06-21T13:47:01Z</time>
      </trkpt>
      <trkpt lat="49.7589" lon="2.11008">
        <ele>120.4</ele>
        <time>2023-06-21T13:47:02Z</time>
      </trkpt>
      <trkpt lat="49.75891" lon="2.1101">
        <ele>120.4</ele>
        <time>2023-06-21T13:47:03Z</time>
      </trkpt>
      <trkpt lat="49.75892" lon="2.11015">
        <ele>120.4</ele>
        <time>2023-06-21T13:47:05Z</time>
      </trkpt>
      <trkpt lat="49.75892" lon="2.11018">
        <ele>120.5</ele>
        <time>2023-06-21T13:47:06Z</time>
      </trkpt>
      <trkpt lat="49.75893" lon="2.11021">
        <ele>120.5</ele>
        <time>2023-06-21T13:47:08Z</time>
      </trkpt>
      <trkpt lat="49.75893" lon="2.11023">
        <ele>120.5</ele>
        <time>2023-06-21T13:47:09Z</time>
      </trkpt>
      <trkpt lat="49.75894" lon="2.11025">
        <ele>120.5</ele>
        <time>2023-06-21T13:47:10Z</time>
      </trkpt>
      <trkpt lat="49.75894" lon="2.11026">
        <ele>120.5</ele>
        <time>2023-06-21T13:47:11Z</time>
      </trkpt>
      <trkpt lat="49.75894" lon="2.11028">
        <ele>120.5</ele>
        <time>2023-06-21T13:47:12Z</time>
      </trkpt>
      <trkpt lat="49.75895" lon="2.1103">
        <ele>120.5</ele>
        <time>2023-06-21T13:47:13Z</time>
      </trkpt>
      <trkpt lat="49.75895" lon="2.11032">
        <ele>120.5</ele>
        <time>2023-06-21T13:47:15Z</time>
      </trkpt>
      <trkpt lat="49.75896" lon="2.11035">
        <ele>120.5</ele>
        <time>2023-06-21T13:47:16Z</time>
      </trkpt>
      <trkpt lat="49.75896" lon="2.11037">
        <ele>120.6</ele>
        <time>2023-06-21T13:47:18Z</time>
      </trkpt>
      <trkpt lat="49.75896" lon="2.11039">
        <ele>120.6</ele>
        <time>2023-06-21T13:47:19Z</time>
      </trkpt>
      <trkpt lat="49.75897" lon="2.11041">
        <ele>120.6</ele>
        <time>2023-06-21T13:47:20Z</time>
      </trkpt>
      <trkpt lat="49.75897" lon="2.11042">
        <ele>120.6</ele>
        <time>2023-06-21T13:47:21Z</time>
      </trkpt>
      <trkpt lat="49.75897" lon="2.11044">
        <ele>120.6</ele>
        <time>2023-06-21T13:47:23Z</time>
      </trkpt>
      <trkpt lat="49.75897" lon="2.11046">
        <ele>120.6</ele>
        <time>2023-06-21T13:47:24Z</time>
      </trkpt>
      <trkpt lat="49.75898" lon="2.11047">
        <ele>120.6</ele>
        <time>2023-06-21T13:47:25Z</time>
      </trkpt>
      <trkpt lat="49.75898" lon="2.11049">
        <ele>120.6</ele>
        <time>2023-06-21T13:47:26Z</time>
      </trkpt>
      <trkpt lat="49.75898" lon="2.11051">
        <ele>120.6</ele>
        <time>2023-06-21T13:47:27Z</time>
      </trkpt>
      <trkpt lat="49.75898" lon="2.11052">
        <ele>120.6</ele>
        <time>2023-06-21T13:47:28Z</time>
      </trkpt>
      <trkpt lat="49.75898" lon="2.11055">
        <ele>120.7</ele>
        <time>2023-06-21T13:47:29Z</time>
      </trkpt>
      <trkpt lat="49.75898" lon="2.11057">
        <ele>120.7</ele>
        <time>2023-06-21T13:47:30Z</time>
      </trkpt>
      <trkpt lat="49.75898" lon="2.11058">
        <ele>120.7</ele>
        <time>2023-06-21T13:47:31Z</time>
      </trkpt>
      <trkpt lat="49.75898" lon="2.11061">
        <ele>120.7</ele>
        <time>2023-06-21T13:47:33Z</time>
      </trkpt>
      <trkpt lat="49.75898" lon="2.11062">
        <ele>120.7</ele>
        <time>2023-06-21T13:47:34Z</time>
      </trkpt>
      <trkpt lat="49.75899" lon="2.11064">
        <ele>120.7</ele>
        <time>2023-06-21T13:47:35Z</time>
      </trkpt>
      <trkpt lat="49.75899" lon="2.11067">
        <ele>120.8</ele>
        <time>2023-06-21T13:47:36Z</time>
      </trkpt>
      <trkpt lat="49.75899" lon="2.11068">
        <ele>120.8</ele>
        <time>2023-06-21T13:47:37Z</time>
      </trkpt>
      <trkpt lat="49.75899" lon="2.11069">
        <ele>120.8</ele>
        <time>2023-06-21T13:47:38Z</time>
      </trkpt>
      <trkpt lat="49.75899" lon="2.11071">
        <ele>120.8</ele>
        <time>2023-06-21T13:47:39Z</time>
      </trkpt>
      <trkpt lat="49.75899" lon="2.11073">
        <ele>120.8</ele>
        <time>2023-06-21T13:47:41Z</time>
      </trkpt>
      <trkpt lat="49.75899" lon="2.11075">
        <ele>120.9</ele>
        <time>2023-06-21T13:47:42Z</time>
      </trkpt>
      <trkpt lat="49.759" lon="2.11078">
        <ele>120.9</ele>
        <time>2023-06-21T13:47:43Z</time>
      </trkpt>
      <trkpt lat="49.75899" lon="2.1108">
        <ele>120.9</ele>
        <time>2023-06-21T13:47:44Z</time>
      </trkpt>
      <trkpt lat="49.75899" lon="2.11081">
        <ele>121</ele>
        <time>2023-06-21T13:47:45Z</time>
      </trkpt>
      <trkpt lat="49.759" lon="2.11083">
        <ele>121</ele>
        <time>2023-06-21T13:47:46Z</time>
      </trkpt>
      <trkpt lat="49.759" lon="2.11085">
        <ele>121</ele>
        <time>2023-06-21T13:47:47Z</time>
      </trkpt>
      <trkpt lat="49.759" lon="2.11089">
        <ele>121.1</ele>
        <time>2023-06-21T13:47:48Z</time>
      </trkpt>
      <trkpt lat="49.759" lon="2.1109">
        <ele>121.1</ele>
        <time>2023-06-21T13:47:50Z</time>
      </trkpt>
      <trkpt lat="49.759" lon="2.11091">
        <ele>121.1</ele>
        <time>2023-06-21T13:47:51Z</time>
      </trkpt>
      <trkpt lat="49.759" lon="2.11095">
        <ele>121.2</ele>
        <time>2023-06-21T13:47:52Z</time>
      </trkpt>
      <trkpt lat="49.759" lon="2.11096">
        <ele>121.2</ele>
        <time>2023-06-21T13:47:53Z</time>
      </trkpt>
      <trkpt lat="49.759" lon="2.11097">
        <ele>121.2</ele>
        <time>2023-06-21T13:47:54Z</time>
      </trkpt>
      <trkpt lat="49.759" lon="2.11102">
        <ele>121.3</ele>
        <time>2023-06-21T13:47:56Z</time>
      </trkpt>
      <trkpt lat="49.759" lon="2.11104">
        <ele>121.3</ele>
        <time>2023-06-21T13:47:58Z</time>
      </trkpt>
      <trkpt lat="49.759" lon="2.11106">
        <ele>121.3</ele>
        <time>2023-06-21T13:47:59Z</time>
      </trkpt>
      <trkpt lat="49.759" lon="2.11108">
        <ele>121.3</ele>
        <time>2023-06-21T13:48:00Z</time>
      </trkpt>
      <trkpt lat="49.759" lon="2.11109">
        <ele>121.4</ele>
        <time>2023-06-21T13:48:01Z</time>
      </trkpt>
      <trkpt lat="49.759" lon="2.11111">
        <ele>121.4</ele>
        <time>2023-06-21T13:48:02Z</time>
      </trkpt>
      <trkpt lat="49.75901" lon="2.11114">
        <ele>121.4</ele>
        <time>2023-06-21T13:48:03Z</time>
      </trkpt>
      <trkpt lat="49.75901" lon="2.11116">
        <ele>121.5</ele>
        <time>2023-06-21T13:48:04Z</time>
      </trkpt>
      <trkpt lat="49.75901" lon="2.11117">
        <ele>121.5</ele>
        <time>2023-06-21T13:48:05Z</time>
      </trkpt>
      <trkpt lat="49.75901" lon="2.11119">
        <ele>121.5</ele>
        <time>2023-06-21T13:48:06Z</time>
      </trkpt>
      <trkpt lat="49.75901" lon="2.1112">
        <ele>121.5</ele>
        <time>2023-06-21T13:48:08Z</time>
      </trkpt>
      <trkpt lat="49.75901" lon="2.11122">
        <ele>121.5</ele>
        <time>2023-06-21T13:48:09Z</time>
      </trkpt>
      <trkpt lat="49.75901" lon="2.11124">
        <ele>121.6</ele>
        <time>2023-06-21T13:48:10Z</time>
      </trkpt>
      <trkpt lat="49.75901" lon="2.11126">
        <ele>121.6</ele>
        <time>2023-06-21T13:48:12Z</time>
      </trkpt>
      <trkpt lat="49.75901" lon="2.11128">
        <ele>121.6</ele>
        <time>2023-06-21T13:48:13Z</time>
      </trkpt>
      <trkpt lat="49.75901" lon="2.11129">
        <ele>121.6</ele>
        <time>2023-06-21T13:48:15Z</time>
      </trkpt>
      <trkpt lat="49.75901" lon="2.11131">
        <ele>121.6</ele>
        <time>2023-06-21T13:48:16Z</time>
      </trkpt>
      <trkpt lat="49.75901" lon="2.11131">
        <ele>121.6</ele>
        <time>2023-06-21T13:48:17Z</time>
      </trkpt>
      <trkpt lat="49.759" lon="2.11132">
        <ele>121.7</ele>
        <time>2023-06-21T13:48:18Z</time>
      </trkpt>
      <trkpt lat="49.759" lon="2.11133">
        <ele>121.7</ele>
        <time>2023-06-21T13:48:19Z</time>
      </trkpt>
      <trkpt lat="49.75901" lon="2.11135">
        <ele>121.7</ele>
        <time>2023-06-21T13:48:20Z</time>
      </trkpt>
      <trkpt lat="49.75901" lon="2.11138">
        <ele>121.7</ele>
        <time>2023-06-21T13:48:22Z</time>
      </trkpt>
      <trkpt lat="49.75901" lon="2.1114">
        <ele>121.8</ele>
        <time>2023-06-21T13:48:23Z</time>
      </trkpt>
      <trkpt lat="49.75901" lon="2.11142">
        <ele>121.8</ele>
        <time>2023-06-21T13:48:24Z</time>
      </trkpt>
      <trkpt lat="49.75901" lon="2.11144">
        <ele>121.8</ele>
        <time>2023-06-21T13:48:25Z</time>
      </trkpt>
      <trkpt lat="49.75901" lon="2.11147">
        <ele>121.8</ele>
        <time>2023-06-21T13:48:26Z</time>
      </trkpt>
      <trkpt lat="49.75902" lon="2.11149">
        <ele>121.9</ele>
        <time>2023-06-21T13:48:27Z</time>
      </trkpt>
      <trkpt lat="49.75902" lon="2.11151">
        <ele>121.9</ele>
        <time>2023-06-21T13:48:29Z</time>
      </trkpt>
      <trkpt lat="49.75902" lon="2.11153">
        <ele>121.9</ele>
        <time>2023-06-21T13:48:30Z</time>
      </trkpt>
      <trkpt lat="49.75902" lon="2.11155">
        <ele>121.9</ele>
        <time>2023-06-21T13:48:31Z</time>
      </trkpt>
      <trkpt lat="49.75902" lon="2.11156">
        <ele>122</ele>
        <time>2023-06-21T13:48:32Z</time>
      </trkpt>
      <trkpt lat="49.75902" lon="2.11158">
        <ele>122</ele>
        <time>2023-06-21T13:48:33Z</time>
      </trkpt>
      <trkpt lat="49.75902" lon="2.11161">
        <ele>122</ele>
        <time>2023-06-21T13:48:35Z</time>
      </trkpt>
      <trkpt lat="49.75902" lon="2.11163">
        <ele>122.1</ele>
        <time>2023-06-21T13:48:36Z</time>
      </trkpt>
      <trkpt lat="49.75903" lon="2.11165">
        <ele>122.1</ele>
        <time>2023-06-21T13:48:37Z</time>
      </trkpt>
      <trkpt lat="49.75903" lon="2.11168">
        <ele>122.1</ele>
        <time>2023-06-21T13:48:39Z</time>
      </trkpt>
      <trkpt lat="49.75903" lon="2.11171">
        <ele>122.2</ele>
        <time>2023-06-21T13:48:40Z</time>
      </trkpt>
      <trkpt lat="49.75903" lon="2.11173">
        <ele>122.2</ele>
        <time>2023-06-21T13:48:41Z</time>
      </trkpt>
      <trkpt lat="49.75903" lon="2.11174">
        <ele>122.2</ele>
        <time>2023-06-21T13:48:42Z</time>
      </trkpt>
      <trkpt lat="49.75903" lon="2.11177">
        <ele>122.3</ele>
        <time>2023-06-21T13:48:43Z</time>
      </trkpt>
      <trkpt lat="49.75903" lon="2.11179">
        <ele>122.3</ele>
        <time>2023-06-21T13:48:44Z</time>
      </trkpt>
      <trkpt lat="49.75903" lon="2.1118">
        <ele>122.4</ele>
        <time>2023-06-21T13:48:45Z</time>
      </trkpt>
      <trkpt lat="49.75904" lon="2.11183">
        <ele>122.4</ele>
        <time>2023-06-21T13:48:46Z</time>
      </trkpt>
      <trkpt lat="49.75904" lon="2.11184">
        <ele>122.5</ele>
        <time>2023-06-21T13:48:48Z</time>
      </trkpt>
      <trkpt lat="49.75904" lon="2.11186">
        <ele>122.5</ele>
        <time>2023-06-21T13:48:49Z</time>
      </trkpt>
      <trkpt lat="49.75904" lon="2.11187">
        <ele>122.6</ele>
        <time>2023-06-21T13:48:50Z</time>
      </trkpt>
      <trkpt lat="49.75904" lon="2.11189">
        <ele>122.6</ele>
        <time>2023-06-21T13:48:51Z</time>
      </trkpt>
      <trkpt lat="49.75904" lon="2.11191">
        <ele>122.7</ele>
        <time>2023-06-21T13:48:52Z</time>
      </trkpt>
      <trkpt lat="49.75904" lon="2.11192">
        <ele>122.7</ele>
        <time>2023-06-21T13:48:53Z</time>
      </trkpt>
      <trkpt lat="49.75904" lon="2.11194">
        <ele>122.8</ele>
        <time>2023-06-21T13:48:54Z</time>
      </trkpt>
      <trkpt lat="49.75904" lon="2.11196">
        <ele>122.9</ele>
        <time>2023-06-21T13:48:56Z</time>
      </trkpt>
      <trkpt lat="49.75905" lon="2.11198">
        <ele>123</ele>
        <time>2023-06-21T13:48:57Z</time>
      </trkpt>
      <trkpt lat="49.75905" lon="2.112">
        <ele>123</ele>
        <time>2023-06-21T13:48:58Z</time>
      </trkpt>
      <trkpt lat="49.75905" lon="2.11201">
        <ele>123.1</ele>
        <time>2023-06-21T13:48:59Z</time>
      </trkpt>
      <trkpt lat="49.75905" lon="2.11203">
        <ele>123.2</ele>
        <time>2023-06-21T13:49:00Z</time>
      </trkpt>
      <trkpt lat="49.75905" lon="2.11205">
        <ele>123.2</ele>
        <time>2023-06-21T13:49:01Z</time>
      </trkpt>
      <trkpt lat="49.75905" lon="2.11206">
        <ele>123.4</ele>
        <time>2023-06-21T13:49:03Z</time>
      </trkpt>
      <trkpt lat="49.75905" lon="2.11208">
        <ele>123.5</ele>
        <time>2023-06-21T13:49:04Z</time>
      </trkpt>
      <trkpt lat="49.75905" lon="2.11209">
        <ele>123.5</ele>
        <time>2023-06-21T13:49:05Z</time>
      </trkpt>
      <trkpt lat="49.75905" lon="2.1121">
        <ele>123.6</ele>
        <time>2023-06-21T13:49:06Z</time>
      </trkpt>
      <trkpt lat="49.75905" lon="2.11211">
        <ele>123.6</ele>
        <time>2023-06-21T13:49:07Z</time>
      </trkpt>
      <trkpt lat="49.75906" lon="2.11212">
        <ele>123.7</ele>
        <time>2023-06-21T13:49:08Z</time>
      </trkpt>
      <trkpt lat="49.75906" lon="2.11214">
        <ele>123.8</ele>
        <time>2023-06-21T13:49:10Z</time>
      </trkpt>
      <trkpt lat="49.75907" lon="2.11215">
        <ele>123.9</ele>
        <time>2023-06-21T13:49:11Z</time>
      </trkpt>
      <trkpt lat="49.75908" lon="2.11216">
        <ele>123.9</ele>
        <time>2023-06-21T13:49:12Z</time>
      </trkpt>
      <trkpt lat="49.75908" lon="2.11217">
        <ele>124</ele>
        <time>2023-06-21T13:49:13Z</time>
      </trkpt>
      <trkpt lat="49.75909" lon="2.11218">
        <ele>124.1</ele>
        <time>2023-06-21T13:49:14Z</time>
      </trkpt>
      <trkpt lat="49.7591" lon="2.11219">
        <ele>124.2</ele>
        <time>2023-06-21T13:49:15Z</time>
      </trkpt>
      <trkpt lat="49.75911" lon="2.11221">
        <ele>124.3</ele>
        <time>2023-06-21T13:49:16Z</time>
      </trkpt>
      <trkpt lat="49.75911" lon="2.11222">
        <ele>124.4</ele>
        <time>2023-06-21T13:49:17Z</time>
      </trkpt>
      <trkpt lat="49.75912" lon="2.11223">
        <ele>124.4</ele>
        <time>2023-06-21T13:49:19Z</time>
      </trkpt>
      <trkpt lat="49.75912" lon="2.11224">
        <ele>124.5</ele>
        <time>2023-06-21T13:49:20Z</time>
      </trkpt>
      <trkpt lat="49.75913" lon="2.11225">
        <ele>124.6</ele>
        <time>2023-06-21T13:49:21Z</time>
      </trkpt>
      <trkpt lat="49.75914" lon="2.11226">
        <ele>124.7</ele>
        <time>2023-06-21T13:49:22Z</time>
      </trkpt>
      <trkpt lat="49.75915" lon="2.11227">
        <ele>124.8</ele>
        <time>2023-06-21T13:49:24Z</time>
      </trkpt>
      <trkpt lat="49.75915" lon="2.11228">
        <ele>124.8</ele>
        <time>2023-06-21T13:49:25Z</time>
      </trkpt>
      <trkpt lat="49.75916" lon="2.11228">
        <ele>124.9</ele>
        <time>2023-06-21T13:49:26Z</time>
      </trkpt>
      <trkpt lat="49.75917" lon="2.11229">
        <ele>125</ele>
        <time>2023-06-21T13:49:27Z</time>
      </trkpt>
      <trkpt lat="49.75918" lon="2.11229">
        <ele>125.1</ele>
        <time>2023-06-21T13:49:29Z</time>
      </trkpt>
      <trkpt lat="49.75919" lon="2.11229">
        <ele>125.1</ele>
        <time>2023-06-21T13:49:30Z</time>
      </trkpt>
      <trkpt lat="49.75919" lon="2.11229">
        <ele>125.2</ele>
        <time>2023-06-21T13:49:32Z</time>
      </trkpt>
      <trkpt lat="49.75919" lon="2.11229">
        <ele>125.2</ele>
        <time>2023-06-21T13:49:33Z</time>
      </trkpt>
      <trkpt lat="49.7592" lon="2.11229">
        <ele>125.2</ele>
        <time>2023-06-21T13:49:34Z</time>
      </trkpt>
      <trkpt lat="49.7592" lon="2.11229">
        <ele>125.3</ele>
        <time>2023-06-21T13:49:35Z</time>
      </trkpt>
      <trkpt lat="49.75921" lon="2.1123">
        <ele>125.3</ele>
        <time>2023-06-21T13:49:36Z</time>
      </trkpt>
      <trkpt lat="49.75922" lon="2.11231">
        <ele>125.4</ele>
        <time>2023-06-21T13:49:38Z</time>
      </trkpt>
      <trkpt lat="49.75923" lon="2.11231">
        <ele>125.5</ele>
        <time>2023-06-21T13:49:39Z</time>
      </trkpt>
      <trkpt lat="49.75923" lon="2.11232">
        <ele>125.5</ele>
        <time>2023-06-21T13:49:40Z</time>
      </trkpt>
      <trkpt lat="49.75924" lon="2.11232">
        <ele>125.6</ele>
        <time>2023-06-21T13:49:41Z</time>
      </trkpt>
      <trkpt lat="49.75924" lon="2.11233">
        <ele>125.6</ele>
        <time>2023-06-21T13:49:42Z</time>
      </trkpt>
      <trkpt lat="49.75925" lon="2.11233">
        <ele>125.7</ele>
        <time>2023-06-21T13:49:43Z</time>
      </trkpt>
      <trkpt lat="49.75925" lon="2.11234">
        <ele>125.7</ele>
        <time>2023-06-21T13:49:44Z</time>
      </trkpt>
      <trkpt lat="49.75926" lon="2.11235">
        <ele>125.8</ele>
        <time>2023-06-21T13:49:46Z</time>
      </trkpt>
      <trkpt lat="49.75927" lon="2.11236">
        <ele>125.9</ele>
        <time>2023-06-21T13:49:47Z</time>
      </trkpt>
      <trkpt lat="49.75927" lon="2.11236">
        <ele>125.9</ele>
        <time>2023-06-21T13:49:48Z</time>
      </trkpt>
      <trkpt lat="49.75928" lon="2.11237">
        <ele>126</ele>
        <time>2023-06-21T13:49:49Z</time>
      </trkpt>
      <trkpt lat="49.75929" lon="2.11238">
        <ele>126.1</ele>
        <time>2023-06-21T13:49:50Z</time>
      </trkpt>
      <trkpt lat="49.75929" lon="2.11238">
        <ele>126.1</ele>
        <time>2023-06-21T13:49:51Z</time>
      </trkpt>
      <trkpt lat="49.7593" lon="2.11239">
        <ele>126.2</ele>
        <time>2023-06-21T13:49:52Z</time>
      </trkpt>
      <trkpt lat="49.75931" lon="2.1124">
        <ele>126.3</ele>
        <time>2023-06-21T13:49:53Z</time>
      </trkpt>
      <trkpt lat="49.75932" lon="2.11241">
        <ele>126.4</ele>
        <time>2023-06-21T13:49:55Z</time>
      </trkpt>
      <trkpt lat="49.75933" lon="2.11241">
        <ele>126.4</ele>
        <time>2023-06-21T13:49:56Z</time>
      </trkpt>
      <trkpt lat="49.75933" lon="2.11242">
        <ele>126.5</ele>
        <time>2023-06-21T13:49:57Z</time>
      </trkpt>
      <trkpt lat="49.75934" lon="2.11242">
        <ele>126.6</ele>
        <time>2023-06-21T13:49:58Z</time>
      </trkpt>
      <trkpt lat="49.75935" lon="2.11243">
        <ele>126.7</ele>
        <time>2023-06-21T13:49:59Z</time>
      </trkpt>
      <trkpt lat="49.75936" lon="2.11244">
        <ele>126.8</ele>
        <time>2023-06-21T13:50:00Z</time>
      </trkpt>
      <trkpt lat="49.75937" lon="2.11245">
        <ele>126.9</ele>
        <time>2023-06-21T13:50:01Z</time>
      </trkpt>
      <trkpt lat="49.75938" lon="2.11246">
        <ele>127</ele>
        <time>2023-06-21T13:50:03Z</time>
      </trkpt>
      <trkpt lat="49.75938" lon="2.11247">
        <ele>127</ele>
        <time>2023-06-21T13:50:04Z</time>
      </trkpt>
      <trkpt lat="49.75939" lon="2.11247">
        <ele>127.1</ele>
        <time>2023-06-21T13:50:05Z</time>
      </trkpt>
      <trkpt lat="49.7594" lon="2.11248">
        <ele>127.2</ele>
        <time>2023-06-21T13:50:06Z</time>
      </trkpt>
      <trkpt lat="49.75941" lon="2.11249">
        <ele>127.3</ele>
        <time>2023-06-21T13:50:07Z</time>
      </trkpt>
      <trkpt lat="49.75942" lon="2.1125">
        <ele>127.4</ele>
        <time>2023-06-21T13:50:09Z</time>
      </trkpt>
      <trkpt lat="49.75943" lon="2.11251">
        <ele>127.5</ele>
        <time>2023-06-21T13:50:10Z</time>
      </trkpt>
      <trkpt lat="49.75944" lon="2.11252">
        <ele>127.6</ele>
        <time>2023-06-21T13:50:11Z</time>
      </trkpt>
      <trkpt lat="49.75945" lon="2.11252">
        <ele>127.7</ele>
        <time>2023-06-21T13:50:12Z</time>
      </trkpt>
      <trkpt lat="49.75946" lon="2.11253">
        <ele>127.8</ele>
        <time>2023-06-21T13:50:13Z</time>
      </trkpt>
      <trkpt lat="49.75946" lon="2.11254">
        <ele>127.9</ele>
        <time>2023-06-21T13:50:15Z</time>
      </trkpt>
      <trkpt lat="49.75947" lon="2.11255">
        <ele>127.9</ele>
        <time>2023-06-21T13:50:16Z</time>
      </trkpt>
      <trkpt lat="49.75948" lon="2.11256">
        <ele>128</ele>
        <time>2023-06-21T13:50:17Z</time>
      </trkpt>
      <trkpt lat="49.75949" lon="2.11257">
        <ele>128.1</ele>
        <time>2023-06-21T13:50:18Z</time>
      </trkpt>
      <trkpt lat="49.75949" lon="2.11258">
        <ele>128.2</ele>
        <time>2023-06-21T13:50:19Z</time>
      </trkpt>
      <trkpt lat="49.7595" lon="2.11259">
        <ele>128.3</ele>
        <time>2023-06-21T13:50:21Z</time>
      </trkpt>
      <trkpt lat="49.75951" lon="2.1126">
        <ele>128.4</ele>
        <time>2023-06-21T13:50:22Z</time>
      </trkpt>
      <trkpt lat="49.75952" lon="2.11261">
        <ele>128.5</ele>
        <time>2023-06-21T13:50:23Z</time>
      </trkpt>
      <trkpt lat="49.75953" lon="2.11262">
        <ele>128.5</ele>
        <time>2023-06-21T13:50:25Z</time>
      </trkpt>
      <trkpt lat="49.75954" lon="2.11262">
        <ele>128.6</ele>
        <time>2023-06-21T13:50:26Z</time>
      </trkpt>
      <trkpt lat="49.75954" lon="2.11263">
        <ele>128.7</ele>
        <time>2023-06-21T13:50:27Z</time>
      </trkpt>
      <trkpt lat="49.75955" lon="2.11264">
        <ele>128.8</ele>
        <time>2023-06-21T13:50:28Z</time>
      </trkpt>
      <trkpt lat="49.75956" lon="2.11264">
        <ele>128.8</ele>
        <time>2023-06-21T13:50:29Z</time>
      </trkpt>
      <trkpt lat="49.75957" lon="2.11265">
        <ele>128.9</ele>
        <time>2023-06-21T13:50:31Z</time>
      </trkpt>
      <trkpt lat="49.75957" lon="2.11266">
        <ele>129</ele>
        <time>2023-06-21T13:50:32Z</time>
      </trkpt>
      <trkpt lat="49.75958" lon="2.11267">
        <ele>129</ele>
        <time>2023-06-21T13:50:33Z</time>
      </trkpt>
      <trkpt lat="49.75959" lon="2.11267">
        <ele>129.1</ele>
        <time>2023-06-21T13:50:34Z</time>
      </trkpt>
      <trkpt lat="49.75959" lon="2.11268">
        <ele>129.2</ele>
        <time>2023-06-21T13:50:35Z</time>
      </trkpt>
      <trkpt lat="49.7596" lon="2.11269">
        <ele>129.2</ele>
        <time>2023-06-21T13:50:36Z</time>
      </trkpt>
      <trkpt lat="49.75961" lon="2.11269">
        <ele>129.3</ele>
        <time>2023-06-21T13:50:37Z</time>
      </trkpt>
      <trkpt lat="49.75961" lon="2.1127">
        <ele>129.3</ele>
        <time>2023-06-21T13:50:38Z</time>
      </trkpt>
      <trkpt lat="49.75962" lon="2.11271">
        <ele>129.4</ele>
        <time>2023-06-21T13:50:40Z</time>
      </trkpt>
      <trkpt lat="49.75963" lon="2.11272">
        <ele>129.5</ele>
        <time>2023-06-21T13:50:41Z</time>
      </trkpt>
      <trkpt lat="49.75964" lon="2.11272">
        <ele>129.6</ele>
        <time>2023-06-21T13:50:42Z</time>
      </trkpt>
      <trkpt lat="49.75964" lon="2.11273">
        <ele>129.6</ele>
        <time>2023-06-21T13:50:43Z</time>
      </trkpt>
      <trkpt lat="49.75966" lon="2.11275">
        <ele>129.8</ele>
        <time>2023-06-21T13:50:45Z</time>
      </trkpt>
      <trkpt lat="49.75967" lon="2.11276">
        <ele>129.9</ele>
        <time>2023-06-21T13:50:46Z</time>
      </trkpt>
      <trkpt lat="49.75968" lon="2.11277">
        <ele>129.9</ele>
        <time>2023-06-21T13:50:47Z</time>
      </trkpt>
      <trkpt lat="49.7597" lon="2.11279">
        <ele>130.1</ele>
        <time>2023-06-21T13:50:48Z</time>
      </trkpt>
      <trkpt lat="49.75971" lon="2.1128">
        <ele>130.2</ele>
        <time>2023-06-21T13:50:50Z</time>
      </trkpt>
      <trkpt lat="49.75971" lon="2.1128">
        <ele>130.2</ele>
        <time>2023-06-21T13:50:51Z</time>
      </trkpt>
      <trkpt lat="49.75972" lon="2.11281">
        <ele>130.3</ele>
        <time>2023-06-21T13:50:52Z</time>
      </trkpt>
      <trkpt lat="49.75973" lon="2.11282">
        <ele>130.3</ele>
        <time>2023-06-21T13:50:53Z</time>
      </trkpt>
      <trkpt lat="49.75974" lon="2.11283">
        <ele>130.4</ele>
        <time>2023-06-21T13:50:54Z</time>
      </trkpt>
      <trkpt lat="49.75975" lon="2.11284">
        <ele>130.5</ele>
        <time>2023-06-21T13:50:55Z</time>
      </trkpt>
      <trkpt lat="49.75975" lon="2.11285">
        <ele>130.6</ele>
        <time>2023-06-21T13:50:56Z</time>
      </trkpt>
      <trkpt lat="49.75976" lon="2.11285">
        <ele>130.6</ele>
        <time>2023-06-21T13:50:58Z</time>
      </trkpt>
      <trkpt lat="49.75977" lon="2.11286">
        <ele>130.7</ele>
        <time>2023-06-21T13:50:59Z</time>
      </trkpt>
      <trkpt lat="49.75978" lon="2.11287">
        <ele>130.8</ele>
        <time>2023-06-21T13:51:00Z</time>
      </trkpt>
      <trkpt lat="49.75979" lon="2.11287">
        <ele>130.8</ele>
        <time>2023-06-21T13:51:01Z</time>
      </trkpt>
      <trkpt lat="49.7598" lon="2.11288">
        <ele>130.9</ele>
        <time>2023-06-21T13:51:02Z</time>
      </trkpt>
      <trkpt lat="49.75981" lon="2.11289">
        <ele>131</ele>
        <time>2023-06-21T13:51:03Z</time>
      </trkpt>
      <trkpt lat="49.75982" lon="2.11289">
        <ele>131.1</ele>
        <time>2023-06-21T13:51:05Z</time>
      </trkpt>
      <trkpt lat="49.75982" lon="2.1129">
        <ele>131.1</ele>
        <time>2023-06-21T13:51:06Z</time>
      </trkpt>
      <trkpt lat="49.75983" lon="2.11291">
        <ele>131.2</ele>
        <time>2023-06-21T13:51:07Z</time>
      </trkpt>
      <trkpt lat="49.75984" lon="2.11291">
        <ele>131.2</ele>
        <time>2023-06-21T13:51:08Z</time>
      </trkpt>
      <trkpt lat="49.75984" lon="2.11292">
        <ele>131.3</ele>
        <time>2023-06-21T13:51:09Z</time>
      </trkpt>
      <trkpt lat="49.75985" lon="2.11293">
        <ele>131.3</ele>
        <time>2023-06-21T13:51:10Z</time>
      </trkpt>
      <trkpt lat="49.75986" lon="2.11294">
        <ele>131.4</ele>
        <time>2023-06-21T13:51:11Z</time>
      </trkpt>
      <trkpt lat="49.75986" lon="2.11295">
        <ele>131.5</ele>
        <time>2023-06-21T13:51:12Z</time>
      </trkpt>
      <trkpt lat="49.75988" lon="2.11297">
        <ele>131.7</ele>
        <time>2023-06-21T13:51:14Z</time>
      </trkpt>
      <trkpt lat="49.75989" lon="2.11298">
        <ele>131.7</ele>
        <time>2023-06-21T13:51:15Z</time>
      </trkpt>
      <trkpt lat="49.75989" lon="2.11298">
        <ele>131.8</ele>
        <time>2023-06-21T13:51:16Z</time>
      </trkpt>
      <trkpt lat="49.7599" lon="2.113">
        <ele>131.9</ele>
        <time>2023-06-21T13:51:17Z</time>
      </trkpt>
      <trkpt lat="49.75991" lon="2.11301">
        <ele>132</ele>
        <time>2023-06-21T13:51:19Z</time>
      </trkpt>
      <trkpt lat="49.75992" lon="2.11302">
        <ele>132.1</ele>
        <time>2023-06-21T13:51:20Z</time>
      </trkpt>
      <trkpt lat="49.75993" lon="2.11304">
        <ele>132.3</ele>
        <time>2023-06-21T13:51:22Z</time>
      </trkpt>
      <trkpt lat="49.75994" lon="2.11305">
        <ele>132.3</ele>
        <time>2023-06-21T13:51:23Z</time>
      </trkpt>
      <trkpt lat="49.75995" lon="2.11305">
        <ele>132.4</ele>
        <time>2023-06-21T13:51:24Z</time>
      </trkpt>
      <trkpt lat="49.75995" lon="2.11306">
        <ele>132.5</ele>
        <time>2023-06-21T13:51:25Z</time>
      </trkpt>
      <trkpt lat="49.75997" lon="2.11307">
        <ele>132.7</ele>
        <time>2023-06-21T13:51:27Z</time>
      </trkpt>
      <trkpt lat="49.75998" lon="2.11307">
        <ele>132.7</ele>
        <time>2023-06-21T13:51:29Z</time>
      </trkpt>
      <trkpt lat="49.75998" lon="2.11307">
        <ele>132.8</ele>
        <time>2023-06-21T13:51:30Z</time>
      </trkpt>
      <trkpt lat="49.75999" lon="2.11307">
        <ele>132.8</ele>
        <time>2023-06-21T13:51:31Z</time>
      </trkpt>
      <trkpt lat="49.76" lon="2.11307">
        <ele>132.9</ele>
        <time>2023-06-21T13:51:32Z</time>
      </trkpt>
      <trkpt lat="49.76001" lon="2.11307">
        <ele>133</ele>
        <time>2023-06-21T13:51:33Z</time>
      </trkpt>
      <trkpt lat="49.76002" lon="2.11308">
        <ele>133.1</ele>
        <time>2023-06-21T13:51:34Z</time>
      </trkpt>
      <trkpt lat="49.76002" lon="2.11308">
        <ele>133.2</ele>
        <time>2023-06-21T13:51:35Z</time>
      </trkpt>
      <trkpt lat="49.76004" lon="2.11309">
        <ele>133.3</ele>
        <time>2023-06-21T13:51:37Z</time>
      </trkpt>
      <trkpt lat="49.76004" lon="2.11309">
        <ele>133.4</ele>
        <time>2023-06-21T13:51:38Z</time>
      </trkpt>
      <trkpt lat="49.76005" lon="2.1131">
        <ele>133.4</ele>
        <time>2023-06-21T13:51:39Z</time>
      </trkpt>
      <trkpt lat="49.76006" lon="2.1131">
        <ele>133.5</ele>
        <time>2023-06-21T13:51:40Z</time>
      </trkpt>
      <trkpt lat="49.76007" lon="2.11311">
        <ele>133.6</ele>
        <time>2023-06-21T13:51:41Z</time>
      </trkpt>
      <trkpt lat="49.76007" lon="2.11312">
        <ele>133.7</ele>
        <time>2023-06-21T13:51:42Z</time>
      </trkpt>
      <trkpt lat="49.76008" lon="2.11312">
        <ele>133.8</ele>
        <time>2023-06-21T13:51:43Z</time>
      </trkpt>
      <trkpt lat="49.76009" lon="2.11313">
        <ele>133.8</ele>
        <time>2023-06-21T13:51:44Z</time>
      </trkpt>
      <trkpt lat="49.76011" lon="2.11314">
        <ele>134</ele>
        <time>2023-06-21T13:51:46Z</time>
      </trkpt>
      <trkpt lat="49.76012" lon="2.11315">
        <ele>134.1</ele>
        <time>2023-06-21T13:51:48Z</time>
      </trkpt>
      <trkpt lat="49.76012" lon="2.11315">
        <ele>134.2</ele>
        <time>2023-06-21T13:51:49Z</time>
      </trkpt>
      <trkpt lat="49.76014" lon="2.11317">
        <ele>134.3</ele>
        <time>2023-06-21T13:51:51Z</time>
      </trkpt>
      <trkpt lat="49.76014" lon="2.11317">
        <ele>134.4</ele>
        <time>2023-06-21T13:51:52Z</time>
      </trkpt>
      <trkpt lat="49.76015" lon="2.11318">
        <ele>134.4</ele>
        <time>2023-06-21T13:51:53Z</time>
      </trkpt>
      <trkpt lat="49.76016" lon="2.11318">
        <ele>134.5</ele>
        <time>2023-06-21T13:51:54Z</time>
      </trkpt>
      <trkpt lat="49.76017" lon="2.11319">
        <ele>134.6</ele>
        <time>2023-06-21T13:51:55Z</time>
      </trkpt>
      <trkpt lat="49.76018" lon="2.1132">
        <ele>134.7</ele>
        <time>2023-06-21T13:51:57Z</time>
      </trkpt>
      <trkpt lat="49.76019" lon="2.11321">
        <ele>134.8</ele>
        <time>2023-06-21T13:51:58Z</time>
      </trkpt>
      <trkpt lat="49.7602" lon="2.11321">
        <ele>134.9</ele>
        <time>2023-06-21T13:52:00Z</time>
      </trkpt>
      <trkpt lat="49.76021" lon="2.11322">
        <ele>135</ele>
        <time>2023-06-21T13:52:01Z</time>
      </trkpt>
      <trkpt lat="49.76022" lon="2.11322">
        <ele>135.1</ele>
        <time>2023-06-21T13:52:02Z</time>
      </trkpt>
      <trkpt lat="49.76022" lon="2.11323">
        <ele>135.1</ele>
        <time>2023-06-21T13:52:03Z</time>
      </trkpt>
      <trkpt lat="49.76023" lon="2.11324">
        <ele>135.2</ele>
        <time>2023-06-21T13:52:05Z</time>
      </trkpt>
      <trkpt lat="49.76023" lon="2.11326">
        <ele>135.3</ele>
        <time>2023-06-21T13:52:06Z</time>
      </trkpt>
      <trkpt lat="49.76024" lon="2.11327">
        <ele>135.4</ele>
        <time>2023-06-21T13:52:07Z</time>
      </trkpt>
      <trkpt lat="49.76024" lon="2.11329">
        <ele>135.5</ele>
        <time>2023-06-21T13:52:08Z</time>
      </trkpt>
      <trkpt lat="49.76025" lon="2.11329">
        <ele>135.6</ele>
        <time>2023-06-21T13:52:09Z</time>
      </trkpt>
      <trkpt lat="49.76026" lon="2.11331">
        <ele>135.7</ele>
        <time>2023-06-21T13:52:10Z</time>
      </trkpt>
      <trkpt lat="49.76027" lon="2.11332">
        <ele>135.8</ele>
        <time>2023-06-21T13:52:11Z</time>
      </trkpt>
      <trkpt lat="49.76028" lon="2.11333">
        <ele>135.9</ele>
        <time>2023-06-21T13:52:13Z</time>
      </trkpt>
      <trkpt lat="49.76028" lon="2.11334">
        <ele>136</ele>
        <time>2023-06-21T13:52:14Z</time>
      </trkpt>
      <trkpt lat="49.76029" lon="2.11334">
        <ele>136</ele>
        <time>2023-06-21T13:52:15Z</time>
      </trkpt>
      <trkpt lat="49.7603" lon="2.11335">
        <ele>136.1</ele>
        <time>2023-06-21T13:52:17Z</time>
      </trkpt>
      <trkpt lat="49.76031" lon="2.11336">
        <ele>136.2</ele>
        <time>2023-06-21T13:52:18Z</time>
      </trkpt>
      <trkpt lat="49.76032" lon="2.11336">
        <ele>136.3</ele>
        <time>2023-06-21T13:52:19Z</time>
      </trkpt>
      <trkpt lat="49.76032" lon="2.11337">
        <ele>136.4</ele>
        <time>2023-06-21T13:52:20Z</time>
      </trkpt>
      <trkpt lat="49.76033" lon="2.11338">
        <ele>136.4</ele>
        <time>2023-06-21T13:52:21Z</time>
      </trkpt>
      <trkpt lat="49.76034" lon="2.11339">
        <ele>136.5</ele>
        <time>2023-06-21T13:52:23Z</time>
      </trkpt>
      <trkpt lat="49.76035" lon="2.11339">
        <ele>136.6</ele>
        <time>2023-06-21T13:52:24Z</time>
      </trkpt>
      <trkpt lat="49.76035" lon="2.1134">
        <ele>136.6</ele>
        <time>2023-06-21T13:52:25Z</time>
      </trkpt>
      <trkpt lat="49.76036" lon="2.11341">
        <ele>136.7</ele>
        <time>2023-06-21T13:52:26Z</time>
      </trkpt>
      <trkpt lat="49.76037" lon="2.11342">
        <ele>136.8</ele>
        <time>2023-06-21T13:52:27Z</time>
      </trkpt>
      <trkpt lat="49.76038" lon="2.11343">
        <ele>136.9</ele>
        <time>2023-06-21T13:52:29Z</time>
      </trkpt>
      <trkpt lat="49.76039" lon="2.11345">
        <ele>137</ele>
        <time>2023-06-21T13:52:30Z</time>
      </trkpt>
      <trkpt lat="49.76039" lon="2.11346">
        <ele>137.1</ele>
        <time>2023-06-21T13:52:31Z</time>
      </trkpt>
      <trkpt lat="49.7604" lon="2.11347">
        <ele>137.2</ele>
        <time>2023-06-21T13:52:33Z</time>
      </trkpt>
      <trkpt lat="49.76041" lon="2.11349">
        <ele>137.3</ele>
        <time>2023-06-21T13:52:34Z</time>
      </trkpt>
      <trkpt lat="49.76042" lon="2.1135">
        <ele>137.3</ele>
        <time>2023-06-21T13:52:36Z</time>
      </trkpt>
      <trkpt lat="49.76042" lon="2.11351">
        <ele>137.4</ele>
        <time>2023-06-21T13:52:37Z</time>
      </trkpt>
      <trkpt lat="49.76043" lon="2.11353">
        <ele>137.5</ele>
        <time>2023-06-21T13:52:38Z</time>
      </trkpt>
      <trkpt lat="49.76044" lon="2.11355">
        <ele>137.6</ele>
        <time>2023-06-21T13:52:39Z</time>
      </trkpt>
      <trkpt lat="49.76045" lon="2.11357">
        <ele>137.7</ele>
        <time>2023-06-21T13:52:41Z</time>
      </trkpt>
      <trkpt lat="49.76046" lon="2.11358">
        <ele>137.8</ele>
        <time>2023-06-21T13:52:42Z</time>
      </trkpt>
      <trkpt lat="49.76046" lon="2.11358">
        <ele>137.9</ele>
        <time>2023-06-21T13:52:43Z</time>
      </trkpt>
      <trkpt lat="49.76047" lon="2.11359">
        <ele>138</ele>
        <time>2023-06-21T13:52:44Z</time>
      </trkpt>
      <trkpt lat="49.76048" lon="2.1136">
        <ele>138</ele>
        <time>2023-06-21T13:52:45Z</time>
      </trkpt>
      <trkpt lat="49.76049" lon="2.11361">
        <ele>138.1</ele>
        <time>2023-06-21T13:52:46Z</time>
      </trkpt>
      <trkpt lat="49.7605" lon="2.11363">
        <ele>138.2</ele>
        <time>2023-06-21T13:52:48Z</time>
      </trkpt>
      <trkpt lat="49.76051" lon="2.11364">
        <ele>138.3</ele>
        <time>2023-06-21T13:52:50Z</time>
      </trkpt>
      <trkpt lat="49.76051" lon="2.11365">
        <ele>138.3</ele>
        <time>2023-06-21T13:52:51Z</time>
      </trkpt>
      <trkpt lat="49.76052" lon="2.11366">
        <ele>138.4</ele>
        <time>2023-06-21T13:52:52Z</time>
      </trkpt>
      <trkpt lat="49.76052" lon="2.11367">
        <ele>138.5</ele>
        <time>2023-06-21T13:52:53Z</time>
      </trkpt>
      <trkpt lat="49.76053" lon="2.11368">
        <ele>138.5</ele>
        <time>2023-06-21T13:52:54Z</time>
      </trkpt>
      <trkpt lat="49.76053" lon="2.1137">
        <ele>138.6</ele>
        <time>2023-06-21T13:52:56Z</time>
      </trkpt>
      <trkpt lat="49.76054" lon="2.11371">
        <ele>138.7</ele>
        <time>2023-06-21T13:52:57Z</time>
      </trkpt>
      <trkpt lat="49.76054" lon="2.11371">
        <ele>138.7</ele>
        <time>2023-06-21T13:52:58Z</time>
      </trkpt>
      <trkpt lat="49.76055" lon="2.11373">
        <ele>138.8</ele>
        <time>2023-06-21T13:52:59Z</time>
      </trkpt>
      <trkpt lat="49.76055" lon="2.11374">
        <ele>138.8</ele>
        <time>2023-06-21T13:53:00Z</time>
      </trkpt>
      <trkpt lat="49.76056" lon="2.11375">
        <ele>138.9</ele>
        <time>2023-06-21T13:53:01Z</time>
      </trkpt>
      <trkpt lat="49.76056" lon="2.11376">
        <ele>139</ele>
        <time>2023-06-21T13:53:03Z</time>
      </trkpt>
      <trkpt lat="49.76057" lon="2.11378">
        <ele>139</ele>
        <time>2023-06-21T13:53:04Z</time>
      </trkpt>
      <trkpt lat="49.76057" lon="2.11379">
        <ele>139.1</ele>
        <time>2023-06-21T13:53:05Z</time>
      </trkpt>
      <trkpt lat="49.76058" lon="2.1138">
        <ele>139.2</ele>
        <time>2023-06-21T13:53:06Z</time>
      </trkpt>
      <trkpt lat="49.76058" lon="2.11381">
        <ele>139.2</ele>
        <time>2023-06-21T13:53:07Z</time>
      </trkpt>
      <trkpt lat="49.76059" lon="2.11382">
        <ele>139.3</ele>
        <time>2023-06-21T13:53:09Z</time>
      </trkpt>
      <trkpt lat="49.76059" lon="2.11384">
        <ele>139.4</ele>
        <time>2023-06-21T13:53:10Z</time>
      </trkpt>
      <trkpt lat="49.7606" lon="2.11385">
        <ele>139.4</ele>
        <time>2023-06-21T13:53:11Z</time>
      </trkpt>
      <trkpt lat="49.7606" lon="2.11386">
        <ele>139.5</ele>
        <time>2023-06-21T13:53:12Z</time>
      </trkpt>
      <trkpt lat="49.76061" lon="2.11388">
        <ele>139.6</ele>
        <time>2023-06-21T13:53:14Z</time>
      </trkpt>
      <trkpt lat="49.76062" lon="2.11389">
        <ele>139.7</ele>
        <time>2023-06-21T13:53:15Z</time>
      </trkpt>
      <trkpt lat="49.76063" lon="2.1139">
        <ele>139.8</ele>
        <time>2023-06-21T13:53:17Z</time>
      </trkpt>
      <trkpt lat="49.76063" lon="2.11392">
        <ele>139.9</ele>
        <time>2023-06-21T13:53:18Z</time>
      </trkpt>
      <trkpt lat="49.76064" lon="2.11393">
        <ele>140</ele>
        <time>2023-06-21T13:53:19Z</time>
      </trkpt>
      <trkpt lat="49.76064" lon="2.11394">
        <ele>140</ele>
        <time>2023-06-21T13:53:20Z</time>
      </trkpt>
      <trkpt lat="49.76065" lon="2.11395">
        <ele>140.1</ele>
        <time>2023-06-21T13:53:21Z</time>
      </trkpt>
      <trkpt lat="49.76066" lon="2.11396">
        <ele>140.2</ele>
        <time>2023-06-21T13:53:22Z</time>
      </trkpt>
      <trkpt lat="49.76067" lon="2.11397">
        <ele>140.3</ele>
        <time>2023-06-21T13:53:24Z</time>
      </trkpt>
      <trkpt lat="49.76068" lon="2.11398">
        <ele>140.4</ele>
        <time>2023-06-21T13:53:25Z</time>
      </trkpt>
      <trkpt lat="49.76068" lon="2.11399">
        <ele>140.4</ele>
        <time>2023-06-21T13:53:26Z</time>
      </trkpt>
      <trkpt lat="49.76069" lon="2.114">
        <ele>140.5</ele>
        <time>2023-06-21T13:53:27Z</time>
      </trkpt>
      <trkpt lat="49.7607" lon="2.11401">
        <ele>140.6</ele>
        <time>2023-06-21T13:53:28Z</time>
      </trkpt>
      <trkpt lat="49.76071" lon="2.11402">
        <ele>140.7</ele>
        <time>2023-06-21T13:53:29Z</time>
      </trkpt>
      <trkpt lat="49.76072" lon="2.11403">
        <ele>140.8</ele>
        <time>2023-06-21T13:53:31Z</time>
      </trkpt>
      <trkpt lat="49.76073" lon="2.11404">
        <ele>140.8</ele>
        <time>2023-06-21T13:53:32Z</time>
      </trkpt>
      <trkpt lat="49.76074" lon="2.11405">
        <ele>140.9</ele>
        <time>2023-06-21T13:53:33Z</time>
      </trkpt>
      <trkpt lat="49.76075" lon="2.11405">
        <ele>141</ele>
        <time>2023-06-21T13:53:34Z</time>
      </trkpt>
      <trkpt lat="49.76076" lon="2.11407">
        <ele>141.1</ele>
        <time>2023-06-21T13:53:36Z</time>
      </trkpt>
      <trkpt lat="49.76077" lon="2.11408">
        <ele>141.1</ele>
        <time>2023-06-21T13:53:37Z</time>
      </trkpt>
      <trkpt lat="49.76077" lon="2.11408">
        <ele>141.2</ele>
        <time>2023-06-21T13:53:38Z</time>
      </trkpt>
      <trkpt lat="49.76078" lon="2.11409">
        <ele>141.3</ele>
        <time>2023-06-21T13:53:39Z</time>
      </trkpt>
      <trkpt lat="49.76079" lon="2.1141">
        <ele>141.3</ele>
        <time>2023-06-21T13:53:41Z</time>
      </trkpt>
      <trkpt lat="49.7608" lon="2.11411">
        <ele>141.4</ele>
        <time>2023-06-21T13:53:42Z</time>
      </trkpt>
      <trkpt lat="49.76081" lon="2.11412">
        <ele>141.5</ele>
        <time>2023-06-21T13:53:44Z</time>
      </trkpt>
      <trkpt lat="49.76082" lon="2.11413">
        <ele>141.6</ele>
        <time>2023-06-21T13:53:45Z</time>
      </trkpt>
      <trkpt lat="49.76082" lon="2.11414">
        <ele>141.7</ele>
        <time>2023-06-21T13:53:46Z</time>
      </trkpt>
      <trkpt lat="49.76083" lon="2.11415">
        <ele>141.8</ele>
        <time>2023-06-21T13:53:47Z</time>
      </trkpt>
      <trkpt lat="49.76084" lon="2.11416">
        <ele>141.8</ele>
        <time>2023-06-21T13:53:49Z</time>
      </trkpt>
      <trkpt lat="49.76085" lon="2.11418">
        <ele>141.9</ele>
        <time>2023-06-21T13:53:50Z</time>
      </trkpt>
      <trkpt lat="49.76086" lon="2.11418">
        <ele>142</ele>
        <time>2023-06-21T13:53:51Z</time>
      </trkpt>
      <trkpt lat="49.76087" lon="2.1142">
        <ele>142.1</ele>
        <time>2023-06-21T13:53:52Z</time>
      </trkpt>
      <trkpt lat="49.76088" lon="2.11421">
        <ele>142.2</ele>
        <time>2023-06-21T13:53:54Z</time>
      </trkpt>
      <trkpt lat="49.76088" lon="2.11421">
        <ele>142.2</ele>
        <time>2023-06-21T13:53:55Z</time>
      </trkpt>
      <trkpt lat="49.76089" lon="2.11423">
        <ele>142.3</ele>
        <time>2023-06-21T13:53:56Z</time>
      </trkpt>
      <trkpt lat="49.7609" lon="2.11424">
        <ele>142.4</ele>
        <time>2023-06-21T13:53:57Z</time>
      </trkpt>
      <trkpt lat="49.7609" lon="2.11425">
        <ele>142.5</ele>
        <time>2023-06-21T13:53:58Z</time>
      </trkpt>
      <trkpt lat="49.76091" lon="2.11426">
        <ele>142.5</ele>
        <time>2023-06-21T13:53:59Z</time>
      </trkpt>
      <trkpt lat="49.76092" lon="2.11427">
        <ele>142.6</ele>
        <time>2023-06-21T13:54:01Z</time>
      </trkpt>
      <trkpt lat="49.76092" lon="2.11428">
        <ele>142.7</ele>
        <time>2023-06-21T13:54:02Z</time>
      </trkpt>
      <trkpt lat="49.76093" lon="2.1143">
        <ele>142.8</ele>
        <time>2023-06-21T13:54:03Z</time>
      </trkpt>
      <trkpt lat="49.76094" lon="2.11431">
        <ele>142.9</ele>
        <time>2023-06-21T13:54:04Z</time>
      </trkpt>
      <trkpt lat="49.76094" lon="2.11432">
        <ele>142.9</ele>
        <time>2023-06-21T13:54:06Z</time>
      </trkpt>
      <trkpt lat="49.76095" lon="2.11433">
        <ele>143</ele>
        <time>2023-06-21T13:54:07Z</time>
      </trkpt>
      <trkpt lat="49.76096" lon="2.11434">
        <ele>143.1</ele>
        <time>2023-06-21T13:54:08Z</time>
      </trkpt>
      <trkpt lat="49.76097" lon="2.11435">
        <ele>143.2</ele>
        <time>2023-06-21T13:54:09Z</time>
      </trkpt>
      <trkpt lat="49.76097" lon="2.11435">
        <ele>143.2</ele>
        <time>2023-06-21T13:54:10Z</time>
      </trkpt>
      <trkpt lat="49.76098" lon="2.11437">
        <ele>143.3</ele>
        <time>2023-06-21T13:54:12Z</time>
      </trkpt>
      <trkpt lat="49.76099" lon="2.11437">
        <ele>143.4</ele>
        <time>2023-06-21T13:54:13Z</time>
      </trkpt>
      <trkpt lat="49.76101" lon="2.11438">
        <ele>143.5</ele>
        <time>2023-06-21T13:54:14Z</time>
      </trkpt>
      <trkpt lat="49.76101" lon="2.11439">
        <ele>143.6</ele>
        <time>2023-06-21T13:54:15Z</time>
      </trkpt>
      <trkpt lat="49.76102" lon="2.11439">
        <ele>143.6</ele>
        <time>2023-06-21T13:54:16Z</time>
      </trkpt>
      <trkpt lat="49.76103" lon="2.1144">
        <ele>143.7</ele>
        <time>2023-06-21T13:54:17Z</time>
      </trkpt>
      <trkpt lat="49.76104" lon="2.11441">
        <ele>143.8</ele>
        <time>2023-06-21T13:54:18Z</time>
      </trkpt>
      <trkpt lat="49.76105" lon="2.11441">
        <ele>143.9</ele>
        <time>2023-06-21T13:54:20Z</time>
      </trkpt>
      <trkpt lat="49.76105" lon="2.11442">
        <ele>143.9</ele>
        <time>2023-06-21T13:54:21Z</time>
      </trkpt>
      <trkpt lat="49.76106" lon="2.11442">
        <ele>144</ele>
        <time>2023-06-21T13:54:22Z</time>
      </trkpt>
      <trkpt lat="49.76107" lon="2.11443">
        <ele>144.1</ele>
        <time>2023-06-21T13:54:23Z</time>
      </trkpt>
      <trkpt lat="49.76108" lon="2.11444">
        <ele>144.2</ele>
        <time>2023-06-21T13:54:24Z</time>
      </trkpt>
      <trkpt lat="49.76109" lon="2.11444">
        <ele>144.3</ele>
        <time>2023-06-21T13:54:25Z</time>
      </trkpt>
      <trkpt lat="49.7611" lon="2.11445">
        <ele>144.4</ele>
        <time>2023-06-21T13:54:27Z</time>
      </trkpt>
      <trkpt lat="49.76111" lon="2.11445">
        <ele>144.5</ele>
        <time>2023-06-21T13:54:28Z</time>
      </trkpt>
      <trkpt lat="49.76112" lon="2.11446">
        <ele>144.5</ele>
        <time>2023-06-21T13:54:29Z</time>
      </trkpt>
      <trkpt lat="49.76113" lon="2.11446">
        <ele>144.6</ele>
        <time>2023-06-21T13:54:30Z</time>
      </trkpt>
      <trkpt lat="49.76115" lon="2.11447">
        <ele>144.7</ele>
        <time>2023-06-21T13:54:31Z</time>
      </trkpt>
      <trkpt lat="49.76116" lon="2.11448">
        <ele>144.8</ele>
        <time>2023-06-21T13:54:33Z</time>
      </trkpt>
      <trkpt lat="49.76117" lon="2.11448">
        <ele>144.9</ele>
        <time>2023-06-21T13:54:34Z</time>
      </trkpt>
      <trkpt lat="49.76118" lon="2.11449">
        <ele>145</ele>
        <time>2023-06-21T13:54:35Z</time>
      </trkpt>
      <trkpt lat="49.76119" lon="2.1145">
        <ele>145.1</ele>
        <time>2023-06-21T13:54:36Z</time>
      </trkpt>
      <trkpt lat="49.76121" lon="2.11451">
        <ele>145.3</ele>
        <time>2023-06-21T13:54:38Z</time>
      </trkpt>
      <trkpt lat="49.76122" lon="2.11452">
        <ele>145.4</ele>
        <time>2023-06-21T13:54:39Z</time>
      </trkpt>
      <trkpt lat="49.76123" lon="2.11454">
        <ele>145.5</ele>
        <time>2023-06-21T13:54:40Z</time>
      </trkpt>
      <trkpt lat="49.76124" lon="2.11455">
        <ele>145.6</ele>
        <time>2023-06-21T13:54:41Z</time>
      </trkpt>
      <trkpt lat="49.76125" lon="2.11456">
        <ele>145.7</ele>
        <time>2023-06-21T13:54:42Z</time>
      </trkpt>
      <trkpt lat="49.76126" lon="2.11457">
        <ele>145.8</ele>
        <time>2023-06-21T13:54:44Z</time>
      </trkpt>
      <trkpt lat="49.76127" lon="2.11458">
        <ele>145.8</ele>
        <time>2023-06-21T13:54:45Z</time>
      </trkpt>
      <trkpt lat="49.76127" lon="2.11458">
        <ele>145.9</ele>
        <time>2023-06-21T13:54:46Z</time>
      </trkpt>
      <trkpt lat="49.76128" lon="2.11459">
        <ele>146</ele>
        <time>2023-06-21T13:54:47Z</time>
      </trkpt>
      <trkpt lat="49.76129" lon="2.1146">
        <ele>146</ele>
        <time>2023-06-21T13:54:48Z</time>
      </trkpt>
      <trkpt lat="49.76129" lon="2.11461">
        <ele>146.1</ele>
        <time>2023-06-21T13:54:50Z</time>
      </trkpt>
      <trkpt lat="49.7613" lon="2.11461">
        <ele>146.2</ele>
        <time>2023-06-21T13:54:51Z</time>
      </trkpt>
      <trkpt lat="49.76131" lon="2.11462">
        <ele>146.2</ele>
        <time>2023-06-21T13:54:52Z</time>
      </trkpt>
      <trkpt lat="49.76132" lon="2.11463">
        <ele>146.3</ele>
        <time>2023-06-21T13:54:54Z</time>
      </trkpt>
      <trkpt lat="49.76132" lon="2.11463">
        <ele>146.4</ele>
        <time>2023-06-21T13:54:56Z</time>
      </trkpt>
      <trkpt lat="49.76133" lon="2.11463">
        <ele>146.4</ele>
        <time>2023-06-21T13:54:57Z</time>
      </trkpt>
      <trkpt lat="49.76133" lon="2.11464">
        <ele>146.5</ele>
        <time>2023-06-21T13:54:58Z</time>
      </trkpt>
      <trkpt lat="49.76134" lon="2.11464">
        <ele>146.5</ele>
        <time>2023-06-21T13:54:59Z</time>
      </trkpt>
      <trkpt lat="49.76135" lon="2.11464">
        <ele>146.6</ele>
        <time>2023-06-21T13:55:00Z</time>
      </trkpt>
      <trkpt lat="49.76136" lon="2.11465">
        <ele>146.7</ele>
        <time>2023-06-21T13:55:01Z</time>
      </trkpt>
      <trkpt lat="49.76137" lon="2.11466">
        <ele>146.8</ele>
        <time>2023-06-21T13:55:03Z</time>
      </trkpt>
      <trkpt lat="49.76137" lon="2.11467">
        <ele>146.8</ele>
        <time>2023-06-21T13:55:05Z</time>
      </trkpt>
      <trkpt lat="49.76138" lon="2.11467">
        <ele>146.9</ele>
        <time>2023-06-21T13:55:06Z</time>
      </trkpt>
      <trkpt lat="49.76139" lon="2.11468">
        <ele>147</ele>
        <time>2023-06-21T13:55:07Z</time>
      </trkpt>
      <trkpt lat="49.76141" lon="2.1147">
        <ele>147.2</ele>
        <time>2023-06-21T13:55:09Z</time>
      </trkpt>
      <trkpt lat="49.76142" lon="2.1147">
        <ele>147.2</ele>
        <time>2023-06-21T13:55:10Z</time>
      </trkpt>
      <trkpt lat="49.76142" lon="2.11471">
        <ele>147.3</ele>
        <time>2023-06-21T13:55:11Z</time>
      </trkpt>
      <trkpt lat="49.76143" lon="2.11472">
        <ele>147.4</ele>
        <time>2023-06-21T13:55:13Z</time>
      </trkpt>
      <trkpt lat="49.76144" lon="2.11473">
        <ele>147.5</ele>
        <time>2023-06-21T13:55:14Z</time>
      </trkpt>
      <trkpt lat="49.76145" lon="2.11474">
        <ele>147.6</ele>
        <time>2023-06-21T13:55:15Z</time>
      </trkpt>
      <trkpt lat="49.76146" lon="2.11475">
        <ele>147.7</ele>
        <time>2023-06-21T13:55:17Z</time>
      </trkpt>
      <trkpt lat="49.76147" lon="2.11476">
        <ele>147.8</ele>
        <time>2023-06-21T13:55:18Z</time>
      </trkpt>
      <trkpt lat="49.76148" lon="2.11477">
        <ele>148</ele>
        <time>2023-06-21T13:55:20Z</time>
      </trkpt>
      <trkpt lat="49.7615" lon="2.11479">
        <ele>148.1</ele>
        <time>2023-06-21T13:55:21Z</time>
      </trkpt>
      <trkpt lat="49.7615" lon="2.11479">
        <ele>148.2</ele>
        <time>2023-06-21T13:55:22Z</time>
      </trkpt>
      <trkpt lat="49.76151" lon="2.1148">
        <ele>148.2</ele>
        <time>2023-06-21T13:55:23Z</time>
      </trkpt>
      <trkpt lat="49.76151" lon="2.1148">
        <ele>148.3</ele>
        <time>2023-06-21T13:55:24Z</time>
      </trkpt>
      <trkpt lat="49.76152" lon="2.11481">
        <ele>148.4</ele>
        <time>2023-06-21T13:55:25Z</time>
      </trkpt>
      <trkpt lat="49.76154" lon="2.11483">
        <ele>148.5</ele>
        <time>2023-06-21T13:55:27Z</time>
      </trkpt>
      <trkpt lat="49.76155" lon="2.11484">
        <ele>148.6</ele>
        <time>2023-06-21T13:55:29Z</time>
      </trkpt>
      <trkpt lat="49.76155" lon="2.11485">
        <ele>148.7</ele>
        <time>2023-06-21T13:55:30Z</time>
      </trkpt>
      <trkpt lat="49.76156" lon="2.11485">
        <ele>148.7</ele>
        <time>2023-06-21T13:55:31Z</time>
      </trkpt>
      <trkpt lat="49.76156" lon="2.11486">
        <ele>148.8</ele>
        <time>2023-06-21T13:55:32Z</time>
      </trkpt>
      <trkpt lat="49.76157" lon="2.11487">
        <ele>148.9</ele>
        <time>2023-06-21T13:55:33Z</time>
      </trkpt>
      <trkpt lat="49.76158" lon="2.11488">
        <ele>149</ele>
        <time>2023-06-21T13:55:34Z</time>
      </trkpt>
      <trkpt lat="49.76158" lon="2.11489">
        <ele>149</ele>
        <time>2023-06-21T13:55:35Z</time>
      </trkpt>
      <trkpt lat="49.7616" lon="2.11491">
        <ele>149.2</ele>
        <time>2023-06-21T13:55:37Z</time>
      </trkpt>
      <trkpt lat="49.7616" lon="2.11491">
        <ele>149.2</ele>
        <time>2023-06-21T13:55:38Z</time>
      </trkpt>
      <trkpt lat="49.76161" lon="2.11492">
        <ele>149.3</ele>
        <time>2023-06-21T13:55:39Z</time>
      </trkpt>
      <trkpt lat="49.76161" lon="2.11493">
        <ele>149.3</ele>
        <time>2023-06-21T13:55:40Z</time>
      </trkpt>
      <trkpt lat="49.76162" lon="2.11494">
        <ele>149.4</ele>
        <time>2023-06-21T13:55:42Z</time>
      </trkpt>
      <trkpt lat="49.76163" lon="2.11495">
        <ele>149.5</ele>
        <time>2023-06-21T13:55:43Z</time>
      </trkpt>
      <trkpt lat="49.76163" lon="2.11495">
        <ele>149.6</ele>
        <time>2023-06-21T13:55:44Z</time>
      </trkpt>
      <trkpt lat="49.76164" lon="2.11496">
        <ele>149.6</ele>
        <time>2023-06-21T13:55:45Z</time>
      </trkpt>
      <trkpt lat="49.76165" lon="2.11498">
        <ele>149.8</ele>
        <time>2023-06-21T13:55:46Z</time>
      </trkpt>
      <trkpt lat="49.76166" lon="2.11499">
        <ele>149.9</ele>
        <time>2023-06-21T13:55:47Z</time>
      </trkpt>
      <trkpt lat="49.76167" lon="2.115">
        <ele>149.9</ele>
        <time>2023-06-21T13:55:49Z</time>
      </trkpt>
      <trkpt lat="49.76167" lon="2.11501">
        <ele>150</ele>
        <time>2023-06-21T13:55:50Z</time>
      </trkpt>
      <trkpt lat="49.76168" lon="2.11502">
        <ele>150.1</ele>
        <time>2023-06-21T13:55:51Z</time>
      </trkpt>
      <trkpt lat="49.76169" lon="2.11503">
        <ele>150.2</ele>
        <time>2023-06-21T13:55:53Z</time>
      </trkpt>
      <trkpt lat="49.76169" lon="2.11504">
        <ele>150.2</ele>
        <time>2023-06-21T13:55:54Z</time>
      </trkpt>
      <trkpt lat="49.7617" lon="2.11505">
        <ele>150.3</ele>
        <time>2023-06-21T13:55:55Z</time>
      </trkpt>
      <trkpt lat="49.76171" lon="2.11506">
        <ele>150.4</ele>
        <time>2023-06-21T13:55:57Z</time>
      </trkpt>
      <trkpt lat="49.76171" lon="2.11507">
        <ele>150.5</ele>
        <time>2023-06-21T13:55:58Z</time>
      </trkpt>
      <trkpt lat="49.76172" lon="2.11508">
        <ele>150.6</ele>
        <time>2023-06-21T13:56:00Z</time>
      </trkpt>
      <trkpt lat="49.76173" lon="2.11509">
        <ele>150.6</ele>
        <time>2023-06-21T13:56:01Z</time>
      </trkpt>
      <trkpt lat="49.76175" lon="2.11511">
        <ele>150.8</ele>
        <time>2023-06-21T13:56:02Z</time>
      </trkpt>
      <trkpt lat="49.76175" lon="2.11512">
        <ele>150.9</ele>
        <time>2023-06-21T13:56:04Z</time>
      </trkpt>
      <trkpt lat="49.76176" lon="2.11512">
        <ele>150.9</ele>
        <time>2023-06-21T13:56:05Z</time>
      </trkpt>
      <trkpt lat="49.76176" lon="2.11513">
        <ele>151</ele>
        <time>2023-06-21T13:56:06Z</time>
      </trkpt>
      <trkpt lat="49.76177" lon="2.11514">
        <ele>151.1</ele>
        <time>2023-06-21T13:56:07Z</time>
      </trkpt>
      <trkpt lat="49.76178" lon="2.11515">
        <ele>151.2</ele>
        <time>2023-06-21T13:56:08Z</time>
      </trkpt>
      <trkpt lat="49.7618" lon="2.11518">
        <ele>151.4</ele>
        <time>2023-06-21T13:56:09Z</time>
      </trkpt>
      <trkpt lat="49.7618" lon="2.11519">
        <ele>151.5</ele>
        <time>2023-06-21T13:56:11Z</time>
      </trkpt>
      <trkpt lat="49.76181" lon="2.1152">
        <ele>151.6</ele>
        <time>2023-06-21T13:56:13Z</time>
      </trkpt>
      <trkpt lat="49.76182" lon="2.11521">
        <ele>151.7</ele>
        <time>2023-06-21T13:56:14Z</time>
      </trkpt>
      <trkpt lat="49.76183" lon="2.11523">
        <ele>151.8</ele>
        <time>2023-06-21T13:56:15Z</time>
      </trkpt>
      <trkpt lat="49.76184" lon="2.11524">
        <ele>151.8</ele>
        <time>2023-06-21T13:56:16Z</time>
      </trkpt>
      <trkpt lat="49.76185" lon="2.11525">
        <ele>152</ele>
        <time>2023-06-21T13:56:18Z</time>
      </trkpt>
      <trkpt lat="49.76185" lon="2.11526">
        <ele>152</ele>
        <time>2023-06-21T13:56:19Z</time>
      </trkpt>
      <trkpt lat="49.76186" lon="2.11527">
        <ele>152.1</ele>
        <time>2023-06-21T13:56:20Z</time>
      </trkpt>
      <trkpt lat="49.76187" lon="2.11528">
        <ele>152.2</ele>
        <time>2023-06-21T13:56:22Z</time>
      </trkpt>
      <trkpt lat="49.76188" lon="2.1153">
        <ele>152.4</ele>
        <time>2023-06-21T13:56:23Z</time>
      </trkpt>
      <trkpt lat="49.76189" lon="2.11532">
        <ele>152.5</ele>
        <time>2023-06-21T13:56:25Z</time>
      </trkpt>
      <trkpt lat="49.7619" lon="2.11533">
        <ele>152.6</ele>
        <time>2023-06-21T13:56:26Z</time>
      </trkpt>
      <trkpt lat="49.7619" lon="2.11534">
        <ele>152.6</ele>
        <time>2023-06-21T13:56:27Z</time>
      </trkpt>
      <trkpt lat="49.76191" lon="2.11535">
        <ele>152.7</ele>
        <time>2023-06-21T13:56:28Z</time>
      </trkpt>
      <trkpt lat="49.76192" lon="2.11536">
        <ele>152.8</ele>
        <time>2023-06-21T13:56:30Z</time>
      </trkpt>
      <trkpt lat="49.76193" lon="2.11538">
        <ele>152.9</ele>
        <time>2023-06-21T13:56:31Z</time>
      </trkpt>
      <trkpt lat="49.76193" lon="2.11539">
        <ele>153</ele>
        <time>2023-06-21T13:56:32Z</time>
      </trkpt>
      <trkpt lat="49.76194" lon="2.1154">
        <ele>153.1</ele>
        <time>2023-06-21T13:56:34Z</time>
      </trkpt>
      <trkpt lat="49.76195" lon="2.11542">
        <ele>153.2</ele>
        <time>2023-06-21T13:56:35Z</time>
      </trkpt>
      <trkpt lat="49.76195" lon="2.11543">
        <ele>153.2</ele>
        <time>2023-06-21T13:56:36Z</time>
      </trkpt>
      <trkpt lat="49.76196" lon="2.11544">
        <ele>153.3</ele>
        <time>2023-06-21T13:56:37Z</time>
      </trkpt>
      <trkpt lat="49.76197" lon="2.11546">
        <ele>153.4</ele>
        <time>2023-06-21T13:56:38Z</time>
      </trkpt>
      <trkpt lat="49.76198" lon="2.11548">
        <ele>153.5</ele>
        <time>2023-06-21T13:56:39Z</time>
      </trkpt>
      <trkpt lat="49.76199" lon="2.11549">
        <ele>153.6</ele>
        <time>2023-06-21T13:56:41Z</time>
      </trkpt>
      <trkpt lat="49.76199" lon="2.1155">
        <ele>153.6</ele>
        <time>2023-06-21T13:56:42Z</time>
      </trkpt>
      <trkpt lat="49.762" lon="2.11551">
        <ele>153.7</ele>
        <time>2023-06-21T13:56:43Z</time>
      </trkpt>
      <trkpt lat="49.76201" lon="2.11552">
        <ele>153.7</ele>
        <time>2023-06-21T13:56:44Z</time>
      </trkpt>
      <trkpt lat="49.76202" lon="2.11554">
        <ele>153.8</ele>
        <time>2023-06-21T13:56:45Z</time>
      </trkpt>
      <trkpt lat="49.76203" lon="2.11556">
        <ele>153.9</ele>
        <time>2023-06-21T13:56:46Z</time>
      </trkpt>
      <trkpt lat="49.76204" lon="2.11557">
        <ele>154</ele>
        <time>2023-06-21T13:56:48Z</time>
      </trkpt>
      <trkpt lat="49.76204" lon="2.11557">
        <ele>154</ele>
        <time>2023-06-21T13:56:49Z</time>
      </trkpt>
      <trkpt lat="49.76205" lon="2.11558">
        <ele>154.1</ele>
        <time>2023-06-21T13:56:50Z</time>
      </trkpt>
      <trkpt lat="49.76206" lon="2.11559">
        <ele>154.1</ele>
        <time>2023-06-21T13:56:51Z</time>
      </trkpt>
      <trkpt lat="49.76207" lon="2.11561">
        <ele>154.2</ele>
        <time>2023-06-21T13:56:52Z</time>
      </trkpt>
      <trkpt lat="49.76209" lon="2.11563">
        <ele>154.3</ele>
        <time>2023-06-21T13:56:53Z</time>
      </trkpt>
      <trkpt lat="49.7621" lon="2.11564">
        <ele>154.4</ele>
        <time>2023-06-21T13:56:55Z</time>
      </trkpt>
      <trkpt lat="49.76211" lon="2.11565">
        <ele>154.4</ele>
        <time>2023-06-21T13:56:56Z</time>
      </trkpt>
      <trkpt lat="49.76211" lon="2.11567">
        <ele>154.5</ele>
        <time>2023-06-21T13:56:57Z</time>
      </trkpt>
      <trkpt lat="49.76212" lon="2.11568">
        <ele>154.5</ele>
        <time>2023-06-21T13:56:58Z</time>
      </trkpt>
      <trkpt lat="49.76213" lon="2.11569">
        <ele>154.6</ele>
        <time>2023-06-21T13:56:59Z</time>
      </trkpt>
      <trkpt lat="49.76214" lon="2.1157">
        <ele>154.7</ele>
        <time>2023-06-21T13:57:01Z</time>
      </trkpt>
      <trkpt lat="49.76215" lon="2.11571">
        <ele>154.7</ele>
        <time>2023-06-21T13:57:02Z</time>
      </trkpt>
      <trkpt lat="49.76215" lon="2.11573">
        <ele>154.7</ele>
        <time>2023-06-21T13:57:03Z</time>
      </trkpt>
      <trkpt lat="49.76216" lon="2.11575">
        <ele>154.8</ele>
        <time>2023-06-21T13:57:05Z</time>
      </trkpt>
      <trkpt lat="49.76217" lon="2.11576">
        <ele>154.9</ele>
        <time>2023-06-21T13:57:06Z</time>
      </trkpt>
      <trkpt lat="49.76218" lon="2.11577">
        <ele>154.9</ele>
        <time>2023-06-21T13:57:07Z</time>
      </trkpt>
      <trkpt lat="49.76218" lon="2.11579">
        <ele>155</ele>
        <time>2023-06-21T13:57:08Z</time>
      </trkpt>
      <trkpt lat="49.76219" lon="2.1158">
        <ele>155</ele>
        <time>2023-06-21T13:57:10Z</time>
      </trkpt>
      <trkpt lat="49.76219" lon="2.11582">
        <ele>155.1</ele>
        <time>2023-06-21T13:57:11Z</time>
      </trkpt>
      <trkpt lat="49.7622" lon="2.11583">
        <ele>155.1</ele>
        <time>2023-06-21T13:57:12Z</time>
      </trkpt>
      <trkpt lat="49.7622" lon="2.11584">
        <ele>155.2</ele>
        <time>2023-06-21T13:57:13Z</time>
      </trkpt>
      <trkpt lat="49.76221" lon="2.11586">
        <ele>155.2</ele>
        <time>2023-06-21T13:57:14Z</time>
      </trkpt>
      <trkpt lat="49.76222" lon="2.11588">
        <ele>155.3</ele>
        <time>2023-06-21T13:57:16Z</time>
      </trkpt>
      <trkpt lat="49.76223" lon="2.11591">
        <ele>155.4</ele>
        <time>2023-06-21T13:57:17Z</time>
      </trkpt>
      <trkpt lat="49.76223" lon="2.11592">
        <ele>155.4</ele>
        <time>2023-06-21T13:57:18Z</time>
      </trkpt>
      <trkpt lat="49.76223" lon="2.11593">
        <ele>155.5</ele>
        <time>2023-06-21T13:57:19Z</time>
      </trkpt>
      <trkpt lat="49.76224" lon="2.11596">
        <ele>155.6</ele>
        <time>2023-06-21T13:57:21Z</time>
      </trkpt>
      <trkpt lat="49.76225" lon="2.11597">
        <ele>155.6</ele>
        <time>2023-06-21T13:57:22Z</time>
      </trkpt>
      <trkpt lat="49.76225" lon="2.11599">
        <ele>155.7</ele>
        <time>2023-06-21T13:57:23Z</time>
      </trkpt>
      <trkpt lat="49.76226" lon="2.116">
        <ele>155.7</ele>
        <time>2023-06-21T13:57:24Z</time>
      </trkpt>
      <trkpt lat="49.76227" lon="2.11603">
        <ele>155.8</ele>
        <time>2023-06-21T13:57:26Z</time>
      </trkpt>
      <trkpt lat="49.76228" lon="2.11604">
        <ele>155.8</ele>
        <time>2023-06-21T13:57:27Z</time>
      </trkpt>
      <trkpt lat="49.76229" lon="2.11606">
        <ele>155.9</ele>
        <time>2023-06-21T13:57:29Z</time>
      </trkpt>
      <trkpt lat="49.76229" lon="2.11607">
        <ele>155.9</ele>
        <time>2023-06-21T13:57:30Z</time>
      </trkpt>
      <trkpt lat="49.7623" lon="2.11609">
        <ele>155.9</ele>
        <time>2023-06-21T13:57:31Z</time>
      </trkpt>
      <trkpt lat="49.76231" lon="2.11611">
        <ele>156</ele>
        <time>2023-06-21T13:57:33Z</time>
      </trkpt>
      <trkpt lat="49.76232" lon="2.11613">
        <ele>156.1</ele>
        <time>2023-06-21T13:57:34Z</time>
      </trkpt>
      <trkpt lat="49.76233" lon="2.11615">
        <ele>156.1</ele>
        <time>2023-06-21T13:57:35Z</time>
      </trkpt>
      <trkpt lat="49.76233" lon="2.11616">
        <ele>156.1</ele>
        <time>2023-06-21T13:57:36Z</time>
      </trkpt>
      <trkpt lat="49.76234" lon="2.11617">
        <ele>156.2</ele>
        <time>2023-06-21T13:57:38Z</time>
      </trkpt>
      <trkpt lat="49.76234" lon="2.11618">
        <ele>156.2</ele>
        <time>2023-06-21T13:57:39Z</time>
      </trkpt>
      <trkpt lat="49.76235" lon="2.1162">
        <ele>156.2</ele>
        <time>2023-06-21T13:57:40Z</time>
      </trkpt>
      <trkpt lat="49.76235" lon="2.11621">
        <ele>156.2</ele>
        <time>2023-06-21T13:57:41Z</time>
      </trkpt>
      <trkpt lat="49.76236" lon="2.11622">
        <ele>156.3</ele>
        <time>2023-06-21T13:57:42Z</time>
      </trkpt>
      <trkpt lat="49.76237" lon="2.11624">
        <ele>156.3</ele>
        <time>2023-06-21T13:57:44Z</time>
      </trkpt>
      <trkpt lat="49.76237" lon="2.11626">
        <ele>156.4</ele>
        <time>2023-06-21T13:57:45Z</time>
      </trkpt>
      <trkpt lat="49.76237" lon="2.11627">
        <ele>156.4</ele>
        <time>2023-06-21T13:57:46Z</time>
      </trkpt>
      <trkpt lat="49.76238" lon="2.11629">
        <ele>156.4</ele>
        <time>2023-06-21T13:57:47Z</time>
      </trkpt>
      <trkpt lat="49.76239" lon="2.11631">
        <ele>156.5</ele>
        <time>2023-06-21T13:57:48Z</time>
      </trkpt>
      <trkpt lat="49.76239" lon="2.11632">
        <ele>156.5</ele>
        <time>2023-06-21T13:57:49Z</time>
      </trkpt>
      <trkpt lat="49.7624" lon="2.11634">
        <ele>156.5</ele>
        <time>2023-06-21T13:57:51Z</time>
      </trkpt>
      <trkpt lat="49.76241" lon="2.11636">
        <ele>156.6</ele>
        <time>2023-06-21T13:57:52Z</time>
      </trkpt>
      <trkpt lat="49.76242" lon="2.11638">
        <ele>156.6</ele>
        <time>2023-06-21T13:57:53Z</time>
      </trkpt>
      <trkpt lat="49.76242" lon="2.11639">
        <ele>156.6</ele>
        <time>2023-06-21T13:57:54Z</time>
      </trkpt>
      <trkpt lat="49.76243" lon="2.11642">
        <ele>156.7</ele>
        <time>2023-06-21T13:57:56Z</time>
      </trkpt>
      <trkpt lat="49.76243" lon="2.11643">
        <ele>156.7</ele>
        <time>2023-06-21T13:57:57Z</time>
      </trkpt>
      <trkpt lat="49.76244" lon="2.11644">
        <ele>156.7</ele>
        <time>2023-06-21T13:57:58Z</time>
      </trkpt>
      <trkpt lat="49.76244" lon="2.11645">
        <ele>156.8</ele>
        <time>2023-06-21T13:57:59Z</time>
      </trkpt>
      <trkpt lat="49.76245" lon="2.11647">
        <ele>156.8</ele>
        <time>2023-06-21T13:58:01Z</time>
      </trkpt>
      <trkpt lat="49.76246" lon="2.11648">
        <ele>156.8</ele>
        <time>2023-06-21T13:58:02Z</time>
      </trkpt>
      <trkpt lat="49.76246" lon="2.1165">
        <ele>156.8</ele>
        <time>2023-06-21T13:58:03Z</time>
      </trkpt>
      <trkpt lat="49.76247" lon="2.11651">
        <ele>156.9</ele>
        <time>2023-06-21T13:58:04Z</time>
      </trkpt>
      <trkpt lat="49.76248" lon="2.11653">
        <ele>156.9</ele>
        <time>2023-06-21T13:58:05Z</time>
      </trkpt>
      <trkpt lat="49.76248" lon="2.11654">
        <ele>156.9</ele>
        <time>2023-06-21T13:58:07Z</time>
      </trkpt>
      <trkpt lat="49.76249" lon="2.11655">
        <ele>156.9</ele>
        <time>2023-06-21T13:58:08Z</time>
      </trkpt>
      <trkpt lat="49.76249" lon="2.11657">
        <ele>157</ele>
        <time>2023-06-21T13:58:09Z</time>
      </trkpt>
      <trkpt lat="49.7625" lon="2.11658">
        <ele>157</ele>
        <time>2023-06-21T13:58:10Z</time>
      </trkpt>
      <trkpt lat="49.76251" lon="2.11659">
        <ele>157</ele>
        <time>2023-06-21T13:58:11Z</time>
      </trkpt>
      <trkpt lat="49.76251" lon="2.11661">
        <ele>157</ele>
        <time>2023-06-21T13:58:12Z</time>
      </trkpt>
      <trkpt lat="49.76252" lon="2.11663">
        <ele>157.1</ele>
        <time>2023-06-21T13:58:14Z</time>
      </trkpt>
      <trkpt lat="49.76253" lon="2.11664">
        <ele>157.1</ele>
        <time>2023-06-21T13:58:15Z</time>
      </trkpt>
      <trkpt lat="49.76254" lon="2.11665">
        <ele>157.1</ele>
        <time>2023-06-21T13:58:16Z</time>
      </trkpt>
      <trkpt lat="49.76255" lon="2.11667">
        <ele>157.1</ele>
        <time>2023-06-21T13:58:17Z</time>
      </trkpt>
      <trkpt lat="49.76256" lon="2.11668">
        <ele>157.1</ele>
        <time>2023-06-21T13:58:18Z</time>
      </trkpt>
      <trkpt lat="49.76256" lon="2.11669">
        <ele>157.1</ele>
        <time>2023-06-21T13:58:19Z</time>
      </trkpt>
      <trkpt lat="49.76257" lon="2.1167">
        <ele>157.2</ele>
        <time>2023-06-21T13:58:20Z</time>
      </trkpt>
      <trkpt lat="49.76258" lon="2.11672">
        <ele>157.2</ele>
        <time>2023-06-21T13:58:21Z</time>
      </trkpt>
      <trkpt lat="49.76259" lon="2.11673">
        <ele>157.2</ele>
        <time>2023-06-21T13:58:23Z</time>
      </trkpt>
      <trkpt lat="49.76259" lon="2.11674">
        <ele>157.2</ele>
        <time>2023-06-21T13:58:24Z</time>
      </trkpt>
      <trkpt lat="49.7626" lon="2.11676">
        <ele>157.2</ele>
        <time>2023-06-21T13:58:25Z</time>
      </trkpt>
      <trkpt lat="49.76261" lon="2.11678">
        <ele>157.2</ele>
        <time>2023-06-21T13:58:26Z</time>
      </trkpt>
      <trkpt lat="49.76262" lon="2.11679">
        <ele>157.3</ele>
        <time>2023-06-21T13:58:28Z</time>
      </trkpt>
      <trkpt lat="49.76263" lon="2.1168">
        <ele>157.3</ele>
        <time>2023-06-21T13:58:29Z</time>
      </trkpt>
      <trkpt lat="49.76264" lon="2.11681">
        <ele>157.3</ele>
        <time>2023-06-21T13:58:30Z</time>
      </trkpt>
      <trkpt lat="49.76264" lon="2.11682">
        <ele>157.3</ele>
        <time>2023-06-21T13:58:31Z</time>
      </trkpt>
      <trkpt lat="49.76265" lon="2.11684">
        <ele>157.3</ele>
        <time>2023-06-21T13:58:32Z</time>
      </trkpt>
      <trkpt lat="49.76266" lon="2.11685">
        <ele>157.3</ele>
        <time>2023-06-21T13:58:33Z</time>
      </trkpt>
      <trkpt lat="49.76267" lon="2.11686">
        <ele>157.3</ele>
        <time>2023-06-21T13:58:35Z</time>
      </trkpt>
      <trkpt lat="49.76268" lon="2.11688">
        <ele>157.3</ele>
        <time>2023-06-21T13:58:36Z</time>
      </trkpt>
      <trkpt lat="49.76268" lon="2.11689">
        <ele>157.3</ele>
        <time>2023-06-21T13:58:37Z</time>
      </trkpt>
      <trkpt lat="49.7627" lon="2.11692">
        <ele>157.4</ele>
        <time>2023-06-21T13:58:39Z</time>
      </trkpt>
      <trkpt lat="49.76271" lon="2.11695">
        <ele>157.4</ele>
        <time>2023-06-21T13:58:40Z</time>
      </trkpt>
      <trkpt lat="49.76271" lon="2.11696">
        <ele>157.4</ele>
        <time>2023-06-21T13:58:41Z</time>
      </trkpt>
      <trkpt lat="49.76272" lon="2.11697">
        <ele>157.4</ele>
        <time>2023-06-21T13:58:42Z</time>
      </trkpt>
      <trkpt lat="49.76272" lon="2.11699">
        <ele>157.4</ele>
        <time>2023-06-21T13:58:43Z</time>
      </trkpt>
      <trkpt lat="49.76273" lon="2.11701">
        <ele>157.4</ele>
        <time>2023-06-21T13:58:45Z</time>
      </trkpt>
      <trkpt lat="49.76273" lon="2.11702">
        <ele>157.4</ele>
        <time>2023-06-21T13:58:46Z</time>
      </trkpt>
      <trkpt lat="49.76274" lon="2.11705">
        <ele>157.5</ele>
        <time>2023-06-21T13:58:47Z</time>
      </trkpt>
      <trkpt lat="49.76275" lon="2.11706">
        <ele>157.5</ele>
        <time>2023-06-21T13:58:48Z</time>
      </trkpt>
      <trkpt lat="49.76275" lon="2.11707">
        <ele>157.5</ele>
        <time>2023-06-21T13:58:49Z</time>
      </trkpt>
      <trkpt lat="49.76276" lon="2.11708">
        <ele>157.5</ele>
        <time>2023-06-21T13:58:50Z</time>
      </trkpt>
      <trkpt lat="49.76278" lon="2.11711">
        <ele>157.5</ele>
        <time>2023-06-21T13:58:52Z</time>
      </trkpt>
      <trkpt lat="49.76278" lon="2.11713">
        <ele>157.5</ele>
        <time>2023-06-21T13:58:53Z</time>
      </trkpt>
      <trkpt lat="49.76279" lon="2.11715">
        <ele>157.6</ele>
        <time>2023-06-21T13:58:54Z</time>
      </trkpt>
      <trkpt lat="49.7628" lon="2.11716">
        <ele>157.6</ele>
        <time>2023-06-21T13:58:56Z</time>
      </trkpt>
      <trkpt lat="49.76281" lon="2.11717">
        <ele>157.6</ele>
        <time>2023-06-21T13:58:57Z</time>
      </trkpt>
      <trkpt lat="49.76282" lon="2.11718">
        <ele>157.6</ele>
        <time>2023-06-21T13:58:58Z</time>
      </trkpt>
      <trkpt lat="49.76283" lon="2.11721">
        <ele>157.6</ele>
        <time>2023-06-21T13:58:59Z</time>
      </trkpt>
      <trkpt lat="49.76284" lon="2.11722">
        <ele>157.6</ele>
        <time>2023-06-21T13:59:00Z</time>
      </trkpt>
      <trkpt lat="49.76285" lon="2.11723">
        <ele>157.6</ele>
        <time>2023-06-21T13:59:01Z</time>
      </trkpt>
      <trkpt lat="49.76285" lon="2.11724">
        <ele>157.6</ele>
        <time>2023-06-21T13:59:02Z</time>
      </trkpt>
      <trkpt lat="49.76286" lon="2.11725">
        <ele>157.7</ele>
        <time>2023-06-21T13:59:04Z</time>
      </trkpt>
      <trkpt lat="49.76287" lon="2.11726">
        <ele>157.7</ele>
        <time>2023-06-21T13:59:05Z</time>
      </trkpt>
      <trkpt lat="49.76289" lon="2.11727">
        <ele>157.7</ele>
        <time>2023-06-21T13:59:06Z</time>
      </trkpt>
      <trkpt lat="49.7629" lon="2.11728">
        <ele>157.7</ele>
        <time>2023-06-21T13:59:07Z</time>
      </trkpt>
      <trkpt lat="49.76291" lon="2.11729">
        <ele>157.7</ele>
        <time>2023-06-21T13:59:08Z</time>
      </trkpt>
      <trkpt lat="49.76291" lon="2.1173">
        <ele>157.7</ele>
        <time>2023-06-21T13:59:09Z</time>
      </trkpt>
      <trkpt lat="49.76292" lon="2.11731">
        <ele>157.7</ele>
        <time>2023-06-21T13:59:10Z</time>
      </trkpt>
      <trkpt lat="49.76293" lon="2.11732">
        <ele>157.7</ele>
        <time>2023-06-21T13:59:12Z</time>
      </trkpt>
      <trkpt lat="49.76293" lon="2.11733">
        <ele>157.7</ele>
        <time>2023-06-21T13:59:13Z</time>
      </trkpt>
      <trkpt lat="49.76294" lon="2.11734">
        <ele>157.7</ele>
        <time>2023-06-21T13:59:14Z</time>
      </trkpt>
      <trkpt lat="49.76295" lon="2.11735">
        <ele>157.8</ele>
        <time>2023-06-21T13:59:15Z</time>
      </trkpt>
      <trkpt lat="49.76295" lon="2.11736">
        <ele>157.8</ele>
        <time>2023-06-21T13:59:16Z</time>
      </trkpt>
      <trkpt lat="49.76296" lon="2.11738">
        <ele>157.8</ele>
        <time>2023-06-21T13:59:17Z</time>
      </trkpt>
      <trkpt lat="49.76297" lon="2.11739">
        <ele>157.8</ele>
        <time>2023-06-21T13:59:19Z</time>
      </trkpt>
      <trkpt lat="49.76298" lon="2.1174">
        <ele>157.8</ele>
        <time>2023-06-21T13:59:20Z</time>
      </trkpt>
      <trkpt lat="49.76299" lon="2.11742">
        <ele>157.8</ele>
        <time>2023-06-21T13:59:21Z</time>
      </trkpt>
      <trkpt lat="49.763" lon="2.11743">
        <ele>157.8</ele>
        <time>2023-06-21T13:59:23Z</time>
      </trkpt>
      <trkpt lat="49.763" lon="2.11745">
        <ele>157.8</ele>
        <time>2023-06-21T13:59:24Z</time>
      </trkpt>
      <trkpt lat="49.76301" lon="2.11745">
        <ele>157.8</ele>
        <time>2023-06-21T13:59:25Z</time>
      </trkpt>
      <trkpt lat="49.76301" lon="2.11746">
        <ele>157.8</ele>
        <time>2023-06-21T13:59:26Z</time>
      </trkpt>
      <trkpt lat="49.76302" lon="2.11747">
        <ele>157.8</ele>
        <time>2023-06-21T13:59:27Z</time>
      </trkpt>
      <trkpt lat="49.76302" lon="2.11748">
        <ele>157.8</ele>
        <time>2023-06-21T13:59:29Z</time>
      </trkpt>
      <trkpt lat="49.76302" lon="2.11748">
        <ele>157.9</ele>
        <time>2023-06-21T13:59:30Z</time>
      </trkpt>
      <trkpt lat="49.76302" lon="2.11749">
        <ele>157.9</ele>
        <time>2023-06-21T13:59:31Z</time>
      </trkpt>
      <trkpt lat="49.76303" lon="2.11749">
        <ele>157.9</ele>
        <time>2023-06-21T13:59:32Z</time>
      </trkpt>
      <trkpt lat="49.76303" lon="2.1175">
        <ele>157.9</ele>
        <time>2023-06-21T13:59:33Z</time>
      </trkpt>
      <trkpt lat="49.76303" lon="2.11751">
        <ele>157.9</ele>
        <time>2023-06-21T13:59:34Z</time>
      </trkpt>
      <trkpt lat="49.76304" lon="2.11751">
        <ele>157.9</ele>
        <time>2023-06-21T13:59:35Z</time>
      </trkpt>
      <trkpt lat="49.76305" lon="2.11752">
        <ele>157.9</ele>
        <time>2023-06-21T13:59:37Z</time>
      </trkpt>
      <trkpt lat="49.76305" lon="2.11753">
        <ele>157.9</ele>
        <time>2023-06-21T13:59:38Z</time>
      </trkpt>
      <trkpt lat="49.76306" lon="2.11754">
        <ele>157.9</ele>
        <time>2023-06-21T13:59:39Z</time>
      </trkpt>
      <trkpt lat="49.76307" lon="2.11755">
        <ele>157.9</ele>
        <time>2023-06-21T13:59:40Z</time>
      </trkpt>
      <trkpt lat="49.76308" lon="2.11757">
        <ele>157.9</ele>
        <time>2023-06-21T13:59:41Z</time>
      </trkpt>
      <trkpt lat="49.76309" lon="2.11758">
        <ele>158</ele>
        <time>2023-06-21T13:59:42Z</time>
      </trkpt>
      <trkpt lat="49.7631" lon="2.11759">
        <ele>158</ele>
        <time>2023-06-21T13:59:43Z</time>
      </trkpt>
      <trkpt lat="49.7631" lon="2.1176">
        <ele>158</ele>
        <time>2023-06-21T13:59:44Z</time>
      </trkpt>
      <trkpt lat="49.76311" lon="2.11761">
        <ele>158</ele>
        <time>2023-06-21T13:59:46Z</time>
      </trkpt>
      <trkpt lat="49.76312" lon="2.11763">
        <ele>158</ele>
        <time>2023-06-21T13:59:47Z</time>
      </trkpt>
      <trkpt lat="49.76314" lon="2.11765">
        <ele>158</ele>
        <time>2023-06-21T13:59:48Z</time>
      </trkpt>
      <trkpt lat="49.76314" lon="2.11766">
        <ele>158</ele>
        <time>2023-06-21T13:59:49Z</time>
      </trkpt>
      <trkpt lat="49.76315" lon="2.11767">
        <ele>158.1</ele>
        <time>2023-06-21T13:59:50Z</time>
      </trkpt>
      <trkpt lat="49.76316" lon="2.11768">
        <ele>158.1</ele>
        <time>2023-06-21T13:59:51Z</time>
      </trkpt>
      <trkpt lat="49.76317" lon="2.1177">
        <ele>158.1</ele>
        <time>2023-06-21T13:59:53Z</time>
      </trkpt>
      <trkpt lat="49.76318" lon="2.11771">
        <ele>158.1</ele>
        <time>2023-06-21T13:59:54Z</time>
      </trkpt>
      <trkpt lat="49.76319" lon="2.11773">
        <ele>158.1</ele>
        <time>2023-06-21T13:59:55Z</time>
      </trkpt>
      <trkpt lat="49.7632" lon="2.11774">
        <ele>158.1</ele>
        <time>2023-06-21T13:59:56Z</time>
      </trkpt>
      <trkpt lat="49.7632" lon="2.11775">
        <ele>158.2</ele>
        <time>2023-06-21T13:59:57Z</time>
      </trkpt>
      <trkpt lat="49.76321" lon="2.11777">
        <ele>158.2</ele>
        <time>2023-06-21T13:59:58Z</time>
      </trkpt>
      <trkpt lat="49.76322" lon="2.11778">
        <ele>158.2</ele>
        <time>2023-06-21T13:59:59Z</time>
      </trkpt>
      <trkpt lat="49.76323" lon="2.1178">
        <ele>158.2</ele>
        <time>2023-06-21T14:00:00Z</time>
      </trkpt>
      <trkpt lat="49.76324" lon="2.11781">
        <ele>158.2</ele>
        <time>2023-06-21T14:00:02Z</time>
      </trkpt>
      <trkpt lat="49.76324" lon="2.11783">
        <ele>158.2</ele>
        <time>2023-06-21T14:00:03Z</time>
      </trkpt>
      <trkpt lat="49.76325" lon="2.11784">
        <ele>158.2</ele>
        <time>2023-06-21T14:00:04Z</time>
      </trkpt>
      <trkpt lat="49.76326" lon="2.11786">
        <ele>158.3</ele>
        <time>2023-06-21T14:00:05Z</time>
      </trkpt>
      <trkpt lat="49.76326" lon="2.11787">
        <ele>158.3</ele>
        <time>2023-06-21T14:00:06Z</time>
      </trkpt>
      <trkpt lat="49.76327" lon="2.11788">
        <ele>158.3</ele>
        <time>2023-06-21T14:00:08Z</time>
      </trkpt>
      <trkpt lat="49.76327" lon="2.1179">
        <ele>158.3</ele>
        <time>2023-06-21T14:00:09Z</time>
      </trkpt>
      <trkpt lat="49.76328" lon="2.11791">
        <ele>158.3</ele>
        <time>2023-06-21T14:00:10Z</time>
      </trkpt>
      <trkpt lat="49.76329" lon="2.11795">
        <ele>158.3</ele>
        <time>2023-06-21T14:00:12Z</time>
      </trkpt>
      <trkpt lat="49.7633" lon="2.11796">
        <ele>158.3</ele>
        <time>2023-06-21T14:00:13Z</time>
      </trkpt>
      <trkpt lat="49.76331" lon="2.11797">
        <ele>158.4</ele>
        <time>2023-06-21T14:00:14Z</time>
      </trkpt>
      <trkpt lat="49.76332" lon="2.11799">
        <ele>158.4</ele>
        <time>2023-06-21T14:00:15Z</time>
      </trkpt>
      <trkpt lat="49.76333" lon="2.11801">
        <ele>158.4</ele>
        <time>2023-06-21T14:00:16Z</time>
      </trkpt>
      <trkpt lat="49.76333" lon="2.11802">
        <ele>158.4</ele>
        <time>2023-06-21T14:00:17Z</time>
      </trkpt>
      <trkpt lat="49.76334" lon="2.11803">
        <ele>158.4</ele>
        <time>2023-06-21T14:00:18Z</time>
      </trkpt>
      <trkpt lat="49.76335" lon="2.11804">
        <ele>158.4</ele>
        <time>2023-06-21T14:00:20Z</time>
      </trkpt>
      <trkpt lat="49.76335" lon="2.11806">
        <ele>158.4</ele>
        <time>2023-06-21T14:00:21Z</time>
      </trkpt>
      <trkpt lat="49.76336" lon="2.11807">
        <ele>158.4</ele>
        <time>2023-06-21T14:00:22Z</time>
      </trkpt>
      <trkpt lat="49.76337" lon="2.11808">
        <ele>158.4</ele>
        <time>2023-06-21T14:00:23Z</time>
      </trkpt>
      <trkpt lat="49.76338" lon="2.11809">
        <ele>158.4</ele>
        <time>2023-06-21T14:00:24Z</time>
      </trkpt>
      <trkpt lat="49.76338" lon="2.1181">
        <ele>158.5</ele>
        <time>2023-06-21T14:00:25Z</time>
      </trkpt>
      <trkpt lat="49.76339" lon="2.11811">
        <ele>158.5</ele>
        <time>2023-06-21T14:00:26Z</time>
      </trkpt>
      <trkpt lat="49.76341" lon="2.11813">
        <ele>158.5</ele>
        <time>2023-06-21T14:00:27Z</time>
      </trkpt>
      <trkpt lat="49.76342" lon="2.11815">
        <ele>158.5</ele>
        <time>2023-06-21T14:00:29Z</time>
      </trkpt>
      <trkpt lat="49.76343" lon="2.11816">
        <ele>158.5</ele>
        <time>2023-06-21T14:00:30Z</time>
      </trkpt>
      <trkpt lat="49.76343" lon="2.11816">
        <ele>158.5</ele>
        <time>2023-06-21T14:00:31Z</time>
      </trkpt>
      <trkpt lat="49.76345" lon="2.11819">
        <ele>158.6</ele>
        <time>2023-06-21T14:00:33Z</time>
      </trkpt>
      <trkpt lat="49.76345" lon="2.1182">
        <ele>158.6</ele>
        <time>2023-06-21T14:00:34Z</time>
      </trkpt>
      <trkpt lat="49.76346" lon="2.11822">
        <ele>158.6</ele>
        <time>2023-06-21T14:00:35Z</time>
      </trkpt>
      <trkpt lat="49.76347" lon="2.11823">
        <ele>158.6</ele>
        <time>2023-06-21T14:00:36Z</time>
      </trkpt>
      <trkpt lat="49.76348" lon="2.11825">
        <ele>158.6</ele>
        <time>2023-06-21T14:00:37Z</time>
      </trkpt>
      <trkpt lat="49.76349" lon="2.11827">
        <ele>158.7</ele>
        <time>2023-06-21T14:00:39Z</time>
      </trkpt>
      <trkpt lat="49.7635" lon="2.11828">
        <ele>158.7</ele>
        <time>2023-06-21T14:00:40Z</time>
      </trkpt>
      <trkpt lat="49.76351" lon="2.11828">
        <ele>158.7</ele>
        <time>2023-06-21T14:00:41Z</time>
      </trkpt>
      <trkpt lat="49.76352" lon="2.11829">
        <ele>158.7</ele>
        <time>2023-06-21T14:00:42Z</time>
      </trkpt>
      <trkpt lat="49.76352" lon="2.1183">
        <ele>158.7</ele>
        <time>2023-06-21T14:00:43Z</time>
      </trkpt>
      <trkpt lat="49.76353" lon="2.11831">
        <ele>158.7</ele>
        <time>2023-06-21T14:00:44Z</time>
      </trkpt>
      <trkpt lat="49.76354" lon="2.11833">
        <ele>158.8</ele>
        <time>2023-06-21T14:00:46Z</time>
      </trkpt>
      <trkpt lat="49.76354" lon="2.11835">
        <ele>158.8</ele>
        <time>2023-06-21T14:00:47Z</time>
      </trkpt>
      <trkpt lat="49.76355" lon="2.11835">
        <ele>158.8</ele>
        <time>2023-06-21T14:00:48Z</time>
      </trkpt>
      <trkpt lat="49.76356" lon="2.11837">
        <ele>158.8</ele>
        <time>2023-06-21T14:00:50Z</time>
      </trkpt>
      <trkpt lat="49.76356" lon="2.11838">
        <ele>158.8</ele>
        <time>2023-06-21T14:00:51Z</time>
      </trkpt>
      <trkpt lat="49.76356" lon="2.11839">
        <ele>158.8</ele>
        <time>2023-06-21T14:00:53Z</time>
      </trkpt>
      <trkpt lat="49.76356" lon="2.1184">
        <ele>158.8</ele>
        <time>2023-06-21T14:00:54Z</time>
      </trkpt>
      <trkpt lat="49.76356" lon="2.11839">
        <ele>158.8</ele>
        <time>2023-06-21T14:00:56Z</time>
      </trkpt>
      <trkpt lat="49.76356" lon="2.11839">
        <ele>158.8</ele>
        <time>2023-06-21T14:00:57Z</time>
      </trkpt>
      <trkpt lat="49.76356" lon="2.11839">
        <ele>158.8</ele>
        <time>2023-06-21T14:00:58Z</time>
      </trkpt>
      <trkpt lat="49.76356" lon="2.11839">
        <ele>158.8</ele>
        <time>2023-06-21T14:01:00Z</time>
      </trkpt>
      <trkpt lat="49.76356" lon="2.11838">
        <ele>158.8</ele>
        <time>2023-06-21T14:01:01Z</time>
      </trkpt>
      <trkpt lat="49.76356" lon="2.11838">
        <ele>158.8</ele>
        <time>2023-06-21T14:01:03Z</time>
      </trkpt>
      <trkpt lat="49.76356" lon="2.11838">
        <ele>158.8</ele>
        <time>2023-06-21T14:01:04Z</time>
      </trkpt>
      <trkpt lat="49.76356" lon="2.11838">
        <ele>158.8</ele>
        <time>2023-06-21T14:01:06Z</time>
      </trkpt>
      <trkpt lat="49.76355" lon="2.11838">
        <ele>158.8</ele>
        <time>2023-06-21T14:01:07Z</time>
      </trkpt>
      <trkpt lat="49.76355" lon="2.11837">
        <ele>158.8</ele>
        <time>2023-06-21T14:01:08Z</time>
      </trkpt>
      <trkpt lat="49.76355" lon="2.11837">
        <ele>158.8</ele>
        <time>2023-06-21T14:01:09Z</time>
      </trkpt>
      <trkpt lat="49.76355" lon="2.11837">
        <ele>158.8</ele>
        <time>2023-06-21T14:01:10Z</time>
      </trkpt>
      <trkpt lat="49.76355" lon="2.11837">
        <ele>158.8</ele>
        <time>2023-06-21T14:01:11Z</time>
      </trkpt>
      <trkpt lat="49.76355" lon="2.11836">
        <ele>158.8</ele>
        <time>2023-06-21T14:01:12Z</time>
      </trkpt>
      <trkpt lat="49.76355" lon="2.11836">
        <ele>158.8</ele>
        <time>2023-06-21T14:01:13Z</time>
      </trkpt>
      <trkpt lat="49.76355" lon="2.11836">
        <ele>158.8</ele>
        <time>2023-06-21T14:01:14Z</time>
      </trkpt>
      <trkpt lat="49.76355" lon="2.11836">
        <ele>158.8</ele>
        <time>2023-06-21T14:01:15Z</time>
      </trkpt>
      <trkpt lat="49.76355" lon="2.11835">
        <ele>158.8</ele>
        <time>2023-06-21T14:01:16Z</time>
      </trkpt>
      <trkpt lat="49.76355" lon="2.11835">
        <ele>158.8</ele>
        <time>2023-06-21T14:01:17Z</time>
      </trkpt>
      <trkpt lat="49.76355" lon="2.11835">
        <ele>158.8</ele>
        <time>2023-06-21T14:01:18Z</time>
      </trkpt>
      <trkpt lat="49.76355" lon="2.11835">
        <ele>158.8</ele>
        <time>2023-06-21T14:01:19Z</time>
      </trkpt>
      <trkpt lat="49.76355" lon="2.11834">
        <ele>158.8</ele>
        <time>2023-06-21T14:01:20Z</time>
      </trkpt>
      <trkpt lat="49.76354" lon="2.11834">
        <ele>158.9</ele>
        <time>2023-06-21T14:01:21Z</time>
      </trkpt>
      <trkpt lat="49.76354" lon="2.11834">
        <ele>158.9</ele>
        <time>2023-06-21T14:01:22Z</time>
      </trkpt>
      <trkpt lat="49.76354" lon="2.11834">
        <ele>158.9</ele>
        <time>2023-06-21T14:01:23Z</time>
      </trkpt>
      <trkpt lat="49.76354" lon="2.11833">
        <ele>158.9</ele>
        <time>2023-06-21T14:01:24Z</time>
      </trkpt>
      <trkpt lat="49.76354" lon="2.11833">
        <ele>158.9</ele>
        <time>2023-06-21T14:01:25Z</time>
      </trkpt>
      <trkpt lat="49.76354" lon="2.11833">
        <ele>158.9</ele>
        <time>2023-06-21T14:01:26Z</time>
      </trkpt>
      <trkpt lat="49.76354" lon="2.11832">
        <ele>158.9</ele>
        <time>2023-06-21T14:01:28Z</time>
      </trkpt>
      <trkpt lat="49.76354" lon="2.11833">
        <ele>158.9</ele>
        <time>2023-06-21T14:01:29Z</time>
      </trkpt>
      <trkpt lat="49.76354" lon="2.11833">
        <ele>158.9</ele>
        <time>2023-06-21T14:01:31Z</time>
      </trkpt>
      <trkpt lat="49.76354" lon="2.11834">
        <ele>158.9</ele>
        <time>2023-06-21T14:01:32Z</time>
      </trkpt>
      <trkpt lat="49.76354" lon="2.11834">
        <ele>158.9</ele>
        <time>2023-06-21T14:01:33Z</time>
      </trkpt>
      <trkpt lat="49.76354" lon="2.11834">
        <ele>158.9</ele>
        <time>2023-06-21T14:01:35Z</time>
      </trkpt>
      <trkpt lat="49.76354" lon="2.11834">
        <ele>158.9</ele>
        <time>2023-06-21T14:01:36Z</time>
      </trkpt>
      <trkpt lat="49.76354" lon="2.11834">
        <ele>158.9</ele>
        <time>2023-06-21T14:01:37Z</time>
      </trkpt>
      <trkpt lat="49.76354" lon="2.11834">
        <ele>158.9</ele>
        <time>2023-06-21T14:01:38Z</time>
      </trkpt>
      <trkpt lat="49.76354" lon="2.11835">
        <ele>158.9</ele>
        <time>2023-06-21T14:01:40Z</time>
      </trkpt>
      <trkpt lat="49.76355" lon="2.11835">
        <ele>158.9</ele>
        <time>2023-06-21T14:01:41Z</time>
      </trkpt>
      <trkpt lat="49.76355" lon="2.11836">
        <ele>158.9</ele>
        <time>2023-06-21T14:01:43Z</time>
      </trkpt>
      <trkpt lat="49.76355" lon="2.11837">
        <ele>158.9</ele>
        <time>2023-06-21T14:01:44Z</time>
      </trkpt>
      <trkpt lat="49.76356" lon="2.11838">
        <ele>158.9</ele>
        <time>2023-06-21T14:01:45Z</time>
      </trkpt>
      <trkpt lat="49.76356" lon="2.11839">
        <ele>158.9</ele>
        <time>2023-06-21T14:01:46Z</time>
      </trkpt>
      <trkpt lat="49.76357" lon="2.1184">
        <ele>158.9</ele>
        <time>2023-06-21T14:01:47Z</time>
      </trkpt>
      <trkpt lat="49.76358" lon="2.11841">
        <ele>158.9</ele>
        <time>2023-06-21T14:01:48Z</time>
      </trkpt>
      <trkpt lat="49.76358" lon="2.11842">
        <ele>159</ele>
        <time>2023-06-21T14:01:50Z</time>
      </trkpt>
      <trkpt lat="49.76359" lon="2.11843">
        <ele>159</ele>
        <time>2023-06-21T14:01:51Z</time>
      </trkpt>
      <trkpt lat="49.7636" lon="2.11844">
        <ele>159</ele>
        <time>2023-06-21T14:01:52Z</time>
      </trkpt>
      <trkpt lat="49.7636" lon="2.11845">
        <ele>159</ele>
        <time>2023-06-21T14:01:53Z</time>
      </trkpt>
      <trkpt lat="49.76361" lon="2.11847">
        <ele>159</ele>
        <time>2023-06-21T14:01:55Z</time>
      </trkpt>
      <trkpt lat="49.76362" lon="2.11848">
        <ele>159</ele>
        <time>2023-06-21T14:01:56Z</time>
      </trkpt>
      <trkpt lat="49.76363" lon="2.1185">
        <ele>159.1</ele>
        <time>2023-06-21T14:01:58Z</time>
      </trkpt>
      <trkpt lat="49.76364" lon="2.11851">
        <ele>159.1</ele>
        <time>2023-06-21T14:01:59Z</time>
      </trkpt>
      <trkpt lat="49.76364" lon="2.11852">
        <ele>159.1</ele>
        <time>2023-06-21T14:02:01Z</time>
      </trkpt>
      <trkpt lat="49.76365" lon="2.11852">
        <ele>159.1</ele>
        <time>2023-06-21T14:02:02Z</time>
      </trkpt>
      <trkpt lat="49.76365" lon="2.11852">
        <ele>159.1</ele>
        <time>2023-06-21T14:02:03Z</time>
      </trkpt>
      <trkpt lat="49.76365" lon="2.11852">
        <ele>159.1</ele>
        <time>2023-06-21T14:02:05Z</time>
      </trkpt>
      <trkpt lat="49.76365" lon="2.11852">
        <ele>159.1</ele>
        <time>2023-06-21T14:02:06Z</time>
      </trkpt>
      <trkpt lat="49.76365" lon="2.11852">
        <ele>159.1</ele>
        <time>2023-06-21T14:02:07Z</time>
      </trkpt>
      <trkpt lat="49.76365" lon="2.11852">
        <ele>159.1</ele>
        <time>2023-06-21T14:02:09Z</time>
      </trkpt>
      <trkpt lat="49.76365" lon="2.11852">
        <ele>159.1</ele>
        <time>2023-06-21T14:02:10Z</time>
      </trkpt>
      <trkpt lat="49.76365" lon="2.11852">
        <ele>159.1</ele>
        <time>2023-06-21T14:02:12Z</time>
      </trkpt>
      <trkpt lat="49.76365" lon="2.11852">
        <ele>159.1</ele>
        <time>2023-06-21T14:02:13Z</time>
      </trkpt>
      <trkpt lat="49.76365" lon="2.11852">
        <ele>159.1</ele>
        <time>2023-06-21T14:02:14Z</time>
      </trkpt>
      <trkpt lat="49.76365" lon="2.11853">
        <ele>159.1</ele>
        <time>2023-06-21T14:02:16Z</time>
      </trkpt>
      <trkpt lat="49.76365" lon="2.11852">
        <ele>159.1</ele>
        <time>2023-06-21T14:02:17Z</time>
      </trkpt>
      <trkpt lat="49.76365" lon="2.11852">
        <ele>159.1</ele>
        <time>2023-06-21T14:02:18Z</time>
      </trkpt>
      <trkpt lat="49.76365" lon="2.11852">
        <ele>159.1</ele>
        <time>2023-06-21T14:02:19Z</time>
      </trkpt>
      <trkpt lat="49.76365" lon="2.11852">
        <ele>159.1</ele>
        <time>2023-06-21T14:02:20Z</time>
      </trkpt>
      <trkpt lat="49.76365" lon="2.11852">
        <ele>159.1</ele>
        <time>2023-06-21T14:02:21Z</time>
      </trkpt>
      <trkpt lat="49.76365" lon="2.11852">
        <ele>159.1</ele>
        <time>2023-06-21T14:02:22Z</time>
      </trkpt>
      <trkpt lat="49.76365" lon="2.11852">
        <ele>159.1</ele>
        <time>2023-06-21T14:02:23Z</time>
      </trkpt>
      <trkpt lat="49.76365" lon="2.11852">
        <ele>159.1</ele>
        <time>2023-06-21T14:02:24Z</time>
      </trkpt>
      <trkpt lat="49.76365" lon="2.11852">
        <ele>159.1</ele>
        <time>2023-06-21T14:02:25Z</time>
      </trkpt>
      <trkpt lat="49.76365" lon="2.11852">
        <ele>159.1</ele>
        <time>2023-06-21T14:02:26Z</time>
      </trkpt>
      <trkpt lat="49.76365" lon="2.11852">
        <ele>159.1</ele>
        <time>2023-06-21T14:02:27Z</time>
      </trkpt>
      <trkpt lat="49.76365" lon="2.11852">
        <ele>159.1</ele>
        <time>2023-06-21T14:02:28Z</time>
      </trkpt>
      <trkpt lat="49.76365" lon="2.11852">
        <ele>159.1</ele>
        <time>2023-06-21T14:02:29Z</time>
      </trkpt>
      <trkpt lat="49.76365" lon="2.11852">
        <ele>159.1</ele>
        <time>2023-06-21T14:02:30Z</time>
      </trkpt>
      <trkpt lat="49.76365" lon="2.11852">
        <ele>159.1</ele>
        <time>2023-06-21T14:02:31Z</time>
      </trkpt>
      <trkpt lat="49.76365" lon="2.11852">
        <ele>159.1</ele>
        <time>2023-06-21T14:02:32Z</time>
      </trkpt>
      <trkpt lat="49.76365" lon="2.11852">
        <ele>159.1</ele>
        <time>2023-06-21T14:02:33Z</time>
      </trkpt>
      <trkpt lat="49.76365" lon="2.11852">
        <ele>159.1</ele>
        <time>2023-06-21T14:02:34Z</time>
      </trkpt>
      <trkpt lat="49.76365" lon="2.11852">
        <ele>159.1</ele>
        <time>2023-06-21T14:02:35Z</time>
      </trkpt>
      <trkpt lat="49.76365" lon="2.11852">
        <ele>159.1</ele>
        <time>2023-06-21T14:02:36Z</time>
      </trkpt>
      <trkpt lat="49.76365" lon="2.11852">
        <ele>159.1</ele>
        <time>2023-06-21T14:02:37Z</time>
      </trkpt>
      <trkpt lat="49.76365" lon="2.11852">
        <ele>159.1</ele>
        <time>2023-06-21T14:02:38Z</time>
      </trkpt>
      <trkpt lat="49.76365" lon="2.11852">
        <ele>159.1</ele>
        <time>2023-06-21T14:02:39Z</time>
      </trkpt>
      <trkpt lat="49.76365" lon="2.11852">
        <ele>159.1</ele>
        <time>2023-06-21T14:02:40Z</time>
      </trkpt>
      <trkpt lat="49.76365" lon="2.11852">
        <ele>159.1</ele>
        <time>2023-06-21T14:02:41Z</time>
      </trkpt>
      <trkpt lat="49.76365" lon="2.11852">
        <ele>159.1</ele>
        <time>2023-06-21T14:02:42Z</time>
      </trkpt>
      <trkpt lat="49.76365" lon="2.11852">
        <ele>159.1</ele>
        <time>2023-06-21T14:02:43Z</time>
      </trkpt>
      <trkpt lat="49.76365" lon="2.11852">
        <ele>159.1</ele>
        <time>2023-06-21T14:02:44Z</time>
      </trkpt>
      <trkpt lat="49.76365" lon="2.11852">
        <ele>159.1</ele>
        <time>2023-06-21T14:02:45Z</time>
      </trkpt>
      <trkpt lat="49.76365" lon="2.11852">
        <ele>159.1</ele>
        <time>2023-06-21T14:02:46Z</time>
      </trkpt>
      <trkpt lat="49.76365" lon="2.11852">
        <ele>159.1</ele>
        <time>2023-06-21T14:02:47Z</time>
      </trkpt>
      <trkpt lat="49.76365" lon="2.11852">
        <ele>159.1</ele>
        <time>2023-06-21T14:02:48Z</time>
      </trkpt>
      <trkpt lat="49.76365" lon="2.11852">
        <ele>159.1</ele>
        <time>2023-06-21T14:02:49Z</time>
      </trkpt>
      <trkpt lat="49.76365" lon="2.11852">
        <ele>159.1</ele>
        <time>2023-06-21T14:02:50Z</time>
      </trkpt>
      <trkpt lat="49.76365" lon="2.11852">
        <ele>159.1</ele>
        <time>2023-06-21T14:02:51Z</time>
      </trkpt>
      <trkpt lat="49.76365" lon="2.11852">
        <ele>159.1</ele>
        <time>2023-06-21T14:02:52Z</time>
      </trkpt>
      <trkpt lat="49.76365" lon="2.11852">
        <ele>159.1</ele>
        <time>2023-06-21T14:02:53Z</time>
      </trkpt>
      <trkpt lat="49.76365" lon="2.11852">
        <ele>159.1</ele>
        <time>2023-06-21T14:02:54Z</time>
      </trkpt>
      <trkpt lat="49.76365" lon="2.11852">
        <ele>159.1</ele>
        <time>2023-06-21T14:02:55Z</time>
      </trkpt>
      <trkpt lat="49.76365" lon="2.11852">
        <ele>159.1</ele>
        <time>2023-06-21T14:02:56Z</time>
      </trkpt>
      <trkpt lat="49.76365" lon="2.11852">
        <ele>159.1</ele>
        <time>2023-06-21T14:02:57Z</time>
      </trkpt>
      <trkpt lat="49.76365" lon="2.11852">
        <ele>159.1</ele>
        <time>2023-06-21T14:02:58Z</time>
      </trkpt>
      <trkpt lat="49.76365" lon="2.11852">
        <ele>159.1</ele>
        <time>2023-06-21T14:02:59Z</time>
      </trkpt>
      <trkpt lat="49.76364" lon="2.1185">
        <ele>159.1</ele>
        <time>2023-06-21T14:03:00Z</time>
      </trkpt>
      <trkpt lat="49.76364" lon="2.11848">
        <ele>159.1</ele>
        <time>2023-06-21T14:03:01Z</time>
      </trkpt>
      <trkpt lat="49.76364" lon="2.11848">
        <ele>159.1</ele>
        <time>2023-06-21T14:03:02Z</time>
      </trkpt>
      <trkpt lat="49.76365" lon="2.11848">
        <ele>159.1</ele>
        <time>2023-06-21T14:03:03Z</time>
      </trkpt>
      <trkpt lat="49.76365" lon="2.11848">
        <ele>159.1</ele>
        <time>2023-06-21T14:03:04Z</time>
      </trkpt>
      <trkpt lat="49.76366" lon="2.11849">
        <ele>159.1</ele>
        <time>2023-06-21T14:03:05Z</time>
      </trkpt>
      <trkpt lat="49.76366" lon="2.1185">
        <ele>159.1</ele>
        <time>2023-06-21T14:03:06Z</time>
      </trkpt>
      <trkpt lat="49.76367" lon="2.1185">
        <ele>159.1</ele>
        <time>2023-06-21T14:03:07Z</time>
      </trkpt>
      <trkpt lat="49.76367" lon="2.11851">
        <ele>159.1</ele>
        <time>2023-06-21T14:03:09Z</time>
      </trkpt>
      <trkpt lat="49.76368" lon="2.11852">
        <ele>159.1</ele>
        <time>2023-06-21T14:03:10Z</time>
      </trkpt>
      <trkpt lat="49.76369" lon="2.11853">
        <ele>159.1</ele>
        <time>2023-06-21T14:03:11Z</time>
      </trkpt>
      <trkpt lat="49.7637" lon="2.11853">
        <ele>159.1</ele>
        <time>2023-06-21T14:03:12Z</time>
      </trkpt>
      <trkpt lat="49.76372" lon="2.11854">
        <ele>159.1</ele>
        <time>2023-06-21T14:03:14Z</time>
      </trkpt>
      <trkpt lat="49.76373" lon="2.11854">
        <ele>159.1</ele>
        <time>2023-06-21T14:03:15Z</time>
      </trkpt>
      <trkpt lat="49.76374" lon="2.11853">
        <ele>159.1</ele>
        <time>2023-06-21T14:03:17Z</time>
      </trkpt>
      <trkpt lat="49.76375" lon="2.11853">
        <ele>159.1</ele>
        <time>2023-06-21T14:03:18Z</time>
      </trkpt>
      <trkpt lat="49.76376" lon="2.11852">
        <ele>159.1</ele>
        <time>2023-06-21T14:03:19Z</time>
      </trkpt>
      <trkpt lat="49.76377" lon="2.1185">
        <ele>159.1</ele>
        <time>2023-06-21T14:03:20Z</time>
      </trkpt>
      <trkpt lat="49.76378" lon="2.11849">
        <ele>159.1</ele>
        <time>2023-06-21T14:03:21Z</time>
      </trkpt>
      <trkpt lat="49.76378" lon="2.11847">
        <ele>159.1</ele>
        <time>2023-06-21T14:03:22Z</time>
      </trkpt>
      <trkpt lat="49.76378" lon="2.11846">
        <ele>159.1</ele>
        <time>2023-06-21T14:03:24Z</time>
      </trkpt>
      <trkpt lat="49.76379" lon="2.11845">
        <ele>159.1</ele>
        <time>2023-06-21T14:03:25Z</time>
      </trkpt>
      <trkpt lat="49.76379" lon="2.11843">
        <ele>159.1</ele>
        <time>2023-06-21T14:03:26Z</time>
      </trkpt>
      <trkpt lat="49.7638" lon="2.11842">
        <ele>159.1</ele>
        <time>2023-06-21T14:03:27Z</time>
      </trkpt>
      <trkpt lat="49.76382" lon="2.11839">
        <ele>159.1</ele>
        <time>2023-06-21T14:03:29Z</time>
      </trkpt>
      <trkpt lat="49.76382" lon="2.11838">
        <ele>159.1</ele>
        <time>2023-06-21T14:03:30Z</time>
      </trkpt>
      <trkpt lat="49.76383" lon="2.11837">
        <ele>159.2</ele>
        <time>2023-06-21T14:03:31Z</time>
      </trkpt>
      <trkpt lat="49.76384" lon="2.11836">
        <ele>159.2</ele>
        <time>2023-06-21T14:03:32Z</time>
      </trkpt>
      <trkpt lat="49.76385" lon="2.11835">
        <ele>159.2</ele>
        <time>2023-06-21T14:03:33Z</time>
      </trkpt>
      <trkpt lat="49.76387" lon="2.11834">
        <ele>159.2</ele>
        <time>2023-06-21T14:03:34Z</time>
      </trkpt>
      <trkpt lat="49.76387" lon="2.11833">
        <ele>159.2</ele>
        <time>2023-06-21T14:03:36Z</time>
      </trkpt>
      <trkpt lat="49.76388" lon="2.11832">
        <ele>159.2</ele>
        <time>2023-06-21T14:03:37Z</time>
      </trkpt>
      <trkpt lat="49.76389" lon="2.11832">
        <ele>159.2</ele>
        <time>2023-06-21T14:03:38Z</time>
      </trkpt>
      <trkpt lat="49.7639" lon="2.11831">
        <ele>159.2</ele>
        <time>2023-06-21T14:03:39Z</time>
      </trkpt>
      <trkpt lat="49.76391" lon="2.11831">
        <ele>159.2</ele>
        <time>2023-06-21T14:03:40Z</time>
      </trkpt>
      <trkpt lat="49.76393" lon="2.11829">
        <ele>159.2</ele>
        <time>2023-06-21T14:03:42Z</time>
      </trkpt>
      <trkpt lat="49.76394" lon="2.11828">
        <ele>159.3</ele>
        <time>2023-06-21T14:03:43Z</time>
      </trkpt>
      <trkpt lat="49.76395" lon="2.11828">
        <ele>159.3</ele>
        <time>2023-06-21T14:03:44Z</time>
      </trkpt>
      <trkpt lat="49.76396" lon="2.11827">
        <ele>159.3</ele>
        <time>2023-06-21T14:03:45Z</time>
      </trkpt>
      <trkpt lat="49.76397" lon="2.11826">
        <ele>159.3</ele>
        <time>2023-06-21T14:03:46Z</time>
      </trkpt>
      <trkpt lat="49.76399" lon="2.11824">
        <ele>159.3</ele>
        <time>2023-06-21T14:03:48Z</time>
      </trkpt>
      <trkpt lat="49.764" lon="2.11823">
        <ele>159.3</ele>
        <time>2023-06-21T14:03:49Z</time>
      </trkpt>
      <trkpt lat="49.764" lon="2.11822">
        <ele>159.3</ele>
        <time>2023-06-21T14:03:50Z</time>
      </trkpt>
      <trkpt lat="49.76402" lon="2.1182">
        <ele>159.4</ele>
        <time>2023-06-21T14:03:52Z</time>
      </trkpt>
      <trkpt lat="49.76403" lon="2.11819">
        <ele>159.4</ele>
        <time>2023-06-21T14:03:53Z</time>
      </trkpt>
      <trkpt lat="49.76405" lon="2.11818">
        <ele>159.4</ele>
        <time>2023-06-21T14:03:54Z</time>
      </trkpt>
      <trkpt lat="49.76406" lon="2.11817">
        <ele>159.4</ele>
        <time>2023-06-21T14:03:55Z</time>
      </trkpt>
      <trkpt lat="49.76407" lon="2.11816">
        <ele>159.4</ele>
        <time>2023-06-21T14:03:56Z</time>
      </trkpt>
      <trkpt lat="49.76408" lon="2.11815">
        <ele>159.4</ele>
        <time>2023-06-21T14:03:58Z</time>
      </trkpt>
      <trkpt lat="49.76409" lon="2.11814">
        <ele>159.5</ele>
        <time>2023-06-21T14:03:59Z</time>
      </trkpt>
      <trkpt lat="49.76411" lon="2.11813">
        <ele>159.5</ele>
        <time>2023-06-21T14:04:01Z</time>
      </trkpt>
      <trkpt lat="49.76412" lon="2.11812">
        <ele>159.5</ele>
        <time>2023-06-21T14:04:02Z</time>
      </trkpt>
      <trkpt lat="49.76412" lon="2.11811">
        <ele>159.5</ele>
        <time>2023-06-21T14:04:03Z</time>
      </trkpt>
      <trkpt lat="49.76413" lon="2.1181">
        <ele>159.5</ele>
        <time>2023-06-21T14:04:04Z</time>
      </trkpt>
      <trkpt lat="49.76414" lon="2.11809">
        <ele>159.5</ele>
        <time>2023-06-21T14:04:05Z</time>
      </trkpt>
      <trkpt lat="49.76416" lon="2.11807">
        <ele>159.6</ele>
        <time>2023-06-21T14:04:07Z</time>
      </trkpt>
      <trkpt lat="49.76417" lon="2.11805">
        <ele>159.6</ele>
        <time>2023-06-21T14:04:08Z</time>
      </trkpt>
      <trkpt lat="49.76418" lon="2.11804">
        <ele>159.6</ele>
        <time>2023-06-21T14:04:10Z</time>
      </trkpt>
      <trkpt lat="49.76419" lon="2.11802">
        <ele>159.6</ele>
        <time>2023-06-21T14:04:11Z</time>
      </trkpt>
      <trkpt lat="49.76421" lon="2.11799">
        <ele>159.6</ele>
        <time>2023-06-21T14:04:13Z</time>
      </trkpt>
      <trkpt lat="49.76423" lon="2.11796">
        <ele>159.6</ele>
        <time>2023-06-21T14:04:14Z</time>
      </trkpt>
      <trkpt lat="49.76424" lon="2.11795">
        <ele>159.6</ele>
        <time>2023-06-21T14:04:15Z</time>
      </trkpt>
      <trkpt lat="49.76426" lon="2.11794">
        <ele>159.6</ele>
        <time>2023-06-21T14:04:16Z</time>
      </trkpt>
      <trkpt lat="49.76427" lon="2.11792">
        <ele>159.6</ele>
        <time>2023-06-21T14:04:17Z</time>
      </trkpt>
      <trkpt lat="49.76428" lon="2.1179">
        <ele>159.6</ele>
        <time>2023-06-21T14:04:18Z</time>
      </trkpt>
      <trkpt lat="49.7643" lon="2.11789">
        <ele>159.6</ele>
        <time>2023-06-21T14:04:20Z</time>
      </trkpt>
      <trkpt lat="49.76431" lon="2.11788">
        <ele>159.6</ele>
        <time>2023-06-21T14:04:21Z</time>
      </trkpt>
      <trkpt lat="49.76432" lon="2.11787">
        <ele>159.6</ele>
        <time>2023-06-21T14:04:22Z</time>
      </trkpt>
      <trkpt lat="49.76434" lon="2.11784">
        <ele>159.6</ele>
        <time>2023-06-21T14:04:23Z</time>
      </trkpt>
      <trkpt lat="49.76435" lon="2.11783">
        <ele>159.6</ele>
        <time>2023-06-21T14:04:25Z</time>
      </trkpt>
      <trkpt lat="49.76435" lon="2.11782">
        <ele>159.6</ele>
        <time>2023-06-21T14:04:26Z</time>
      </trkpt>
      <trkpt lat="49.76436" lon="2.11781">
        <ele>159.6</ele>
        <time>2023-06-21T14:04:27Z</time>
      </trkpt>
      <trkpt lat="49.76437" lon="2.1178">
        <ele>159.6</ele>
        <time>2023-06-21T14:04:28Z</time>
      </trkpt>
      <trkpt lat="49.76438" lon="2.11779">
        <ele>159.6</ele>
        <time>2023-06-21T14:04:29Z</time>
      </trkpt>
      <trkpt lat="49.76439" lon="2.11778">
        <ele>159.6</ele>
        <time>2023-06-21T14:04:30Z</time>
      </trkpt>
      <trkpt lat="49.76441" lon="2.11777">
        <ele>159.6</ele>
        <time>2023-06-21T14:04:32Z</time>
      </trkpt>
      <trkpt lat="49.76442" lon="2.11776">
        <ele>159.6</ele>
        <time>2023-06-21T14:04:33Z</time>
      </trkpt>
      <trkpt lat="49.76443" lon="2.11776">
        <ele>159.6</ele>
        <time>2023-06-21T14:04:34Z</time>
      </trkpt>
      <trkpt lat="49.76444" lon="2.11775">
        <ele>159.5</ele>
        <time>2023-06-21T14:04:35Z</time>
      </trkpt>
      <trkpt lat="49.76445" lon="2.11774">
        <ele>159.5</ele>
        <time>2023-06-21T14:04:36Z</time>
      </trkpt>
      <trkpt lat="49.76446" lon="2.11773">
        <ele>159.5</ele>
        <time>2023-06-21T14:04:37Z</time>
      </trkpt>
      <trkpt lat="49.76447" lon="2.11772">
        <ele>159.5</ele>
        <time>2023-06-21T14:04:38Z</time>
      </trkpt>
      <trkpt lat="49.76448" lon="2.11772">
        <ele>159.5</ele>
        <time>2023-06-21T14:04:39Z</time>
      </trkpt>
      <trkpt lat="49.76449" lon="2.11771">
        <ele>159.5</ele>
        <time>2023-06-21T14:04:41Z</time>
      </trkpt>
      <trkpt lat="49.7645" lon="2.1177">
        <ele>159.5</ele>
        <time>2023-06-21T14:04:42Z</time>
      </trkpt>
      <trkpt lat="49.76452" lon="2.11769">
        <ele>159.5</ele>
        <time>2023-06-21T14:04:43Z</time>
      </trkpt>
      <trkpt lat="49.76453" lon="2.11768">
        <ele>159.5</ele>
        <time>2023-06-21T14:04:44Z</time>
      </trkpt>
      <trkpt lat="49.76453" lon="2.11767">
        <ele>159.5</ele>
        <time>2023-06-21T14:04:45Z</time>
      </trkpt>
      <trkpt lat="49.76455" lon="2.11765">
        <ele>159.5</ele>
        <time>2023-06-21T14:04:46Z</time>
      </trkpt>
      <trkpt lat="49.76456" lon="2.11765">
        <ele>159.5</ele>
        <time>2023-06-21T14:04:47Z</time>
      </trkpt>
      <trkpt lat="49.76456" lon="2.11764">
        <ele>159.5</ele>
        <time>2023-06-21T14:04:48Z</time>
      </trkpt>
      <trkpt lat="49.76457" lon="2.11763">
        <ele>159.5</ele>
        <time>2023-06-21T14:04:50Z</time>
      </trkpt>
      <trkpt lat="49.76458" lon="2.11762">
        <ele>159.5</ele>
        <time>2023-06-21T14:04:51Z</time>
      </trkpt>
      <trkpt lat="49.76459" lon="2.11761">
        <ele>159.5</ele>
        <time>2023-06-21T14:04:52Z</time>
      </trkpt>
      <trkpt lat="49.7646" lon="2.1176">
        <ele>159.5</ele>
        <time>2023-06-21T14:04:53Z</time>
      </trkpt>
      <trkpt lat="49.76461" lon="2.11759">
        <ele>159.5</ele>
        <time>2023-06-21T14:04:55Z</time>
      </trkpt>
      <trkpt lat="49.76462" lon="2.11758">
        <ele>159.5</ele>
        <time>2023-06-21T14:04:56Z</time>
      </trkpt>
      <trkpt lat="49.76463" lon="2.11757">
        <ele>159.5</ele>
        <time>2023-06-21T14:04:57Z</time>
      </trkpt>
      <trkpt lat="49.76464" lon="2.11756">
        <ele>159.5</ele>
        <time>2023-06-21T14:04:58Z</time>
      </trkpt>
      <trkpt lat="49.76466" lon="2.11755">
        <ele>159.5</ele>
        <time>2023-06-21T14:05:00Z</time>
      </trkpt>
      <trkpt lat="49.76467" lon="2.11754">
        <ele>159.5</ele>
        <time>2023-06-21T14:05:01Z</time>
      </trkpt>
      <trkpt lat="49.76468" lon="2.11753">
        <ele>159.5</ele>
        <time>2023-06-21T14:05:02Z</time>
      </trkpt>
      <trkpt lat="49.76468" lon="2.11753">
        <ele>159.5</ele>
        <time>2023-06-21T14:05:03Z</time>
      </trkpt>
      <trkpt lat="49.76469" lon="2.11752">
        <ele>159.5</ele>
        <time>2023-06-21T14:05:04Z</time>
      </trkpt>
      <trkpt lat="49.76471" lon="2.1175">
        <ele>159.5</ele>
        <time>2023-06-21T14:05:05Z</time>
      </trkpt>
      <trkpt lat="49.76472" lon="2.11749">
        <ele>159.5</ele>
        <time>2023-06-21T14:05:07Z</time>
      </trkpt>
      <trkpt lat="49.76473" lon="2.11748">
        <ele>159.5</ele>
        <time>2023-06-21T14:05:08Z</time>
      </trkpt>
      <trkpt lat="49.76474" lon="2.11747">
        <ele>159.4</ele>
        <time>2023-06-21T14:05:09Z</time>
      </trkpt>
      <trkpt lat="49.76475" lon="2.11746">
        <ele>159.4</ele>
        <time>2023-06-21T14:05:10Z</time>
      </trkpt>
      <trkpt lat="49.76476" lon="2.11745">
        <ele>159.4</ele>
        <time>2023-06-21T14:05:11Z</time>
      </trkpt>
      <trkpt lat="49.76477" lon="2.11744">
        <ele>159.4</ele>
        <time>2023-06-21T14:05:13Z</time>
      </trkpt>
      <trkpt lat="49.76479" lon="2.11743">
        <ele>159.4</ele>
        <time>2023-06-21T14:05:14Z</time>
      </trkpt>
      <trkpt lat="49.7648" lon="2.11742">
        <ele>159.4</ele>
        <time>2023-06-21T14:05:15Z</time>
      </trkpt>
      <trkpt lat="49.76482" lon="2.11741">
        <ele>159.4</ele>
        <time>2023-06-21T14:05:16Z</time>
      </trkpt>
      <trkpt lat="49.76482" lon="2.1174">
        <ele>159.4</ele>
        <time>2023-06-21T14:05:17Z</time>
      </trkpt>
      <trkpt lat="49.76483" lon="2.1174">
        <ele>159.4</ele>
        <time>2023-06-21T14:05:18Z</time>
      </trkpt>
      <trkpt lat="49.76484" lon="2.11738">
        <ele>159.4</ele>
        <time>2023-06-21T14:05:20Z</time>
      </trkpt>
      <trkpt lat="49.76485" lon="2.11738">
        <ele>159.4</ele>
        <time>2023-06-21T14:05:21Z</time>
      </trkpt>
      <trkpt lat="49.76486" lon="2.11737">
        <ele>159.4</ele>
        <time>2023-06-21T14:05:22Z</time>
      </trkpt>
      <trkpt lat="49.76488" lon="2.11736">
        <ele>159.4</ele>
        <time>2023-06-21T14:05:23Z</time>
      </trkpt>
      <trkpt lat="49.76489" lon="2.11735">
        <ele>159.4</ele>
        <time>2023-06-21T14:05:24Z</time>
      </trkpt>
      <trkpt lat="49.76489" lon="2.11735">
        <ele>159.4</ele>
        <time>2023-06-21T14:05:25Z</time>
      </trkpt>
      <trkpt lat="49.76491" lon="2.11733">
        <ele>159.4</ele>
        <time>2023-06-21T14:05:27Z</time>
      </trkpt>
      <trkpt lat="49.76491" lon="2.11732">
        <ele>159.4</ele>
        <time>2023-06-21T14:05:28Z</time>
      </trkpt>
      <trkpt lat="49.76492" lon="2.11732">
        <ele>159.4</ele>
        <time>2023-06-21T14:05:29Z</time>
      </trkpt>
      <trkpt lat="49.76494" lon="2.1173">
        <ele>159.4</ele>
        <time>2023-06-21T14:05:31Z</time>
      </trkpt>
      <trkpt lat="49.76495" lon="2.1173">
        <ele>159.4</ele>
        <time>2023-06-21T14:05:32Z</time>
      </trkpt>
      <trkpt lat="49.76496" lon="2.11729">
        <ele>159.4</ele>
        <time>2023-06-21T14:05:33Z</time>
      </trkpt>
      <trkpt lat="49.76497" lon="2.11728">
        <ele>159.4</ele>
        <time>2023-06-21T14:05:34Z</time>
      </trkpt>
      <trkpt lat="49.76498" lon="2.11727">
        <ele>159.4</ele>
        <time>2023-06-21T14:05:35Z</time>
      </trkpt>
      <trkpt lat="49.76499" lon="2.11725">
        <ele>159.4</ele>
        <time>2023-06-21T14:05:37Z</time>
      </trkpt>
      <trkpt lat="49.765" lon="2.11725">
        <ele>159.4</ele>
        <time>2023-06-21T14:05:38Z</time>
      </trkpt>
      <trkpt lat="49.76501" lon="2.11724">
        <ele>159.4</ele>
        <time>2023-06-21T14:05:39Z</time>
      </trkpt>
      <trkpt lat="49.76502" lon="2.11722">
        <ele>159.4</ele>
        <time>2023-06-21T14:05:41Z</time>
      </trkpt>
      <trkpt lat="49.76503" lon="2.11721">
        <ele>159.4</ele>
        <time>2023-06-21T14:05:42Z</time>
      </trkpt>
      <trkpt lat="49.76505" lon="2.11719">
        <ele>159.4</ele>
        <time>2023-06-21T14:05:43Z</time>
      </trkpt>
      <trkpt lat="49.76506" lon="2.11717">
        <ele>159.4</ele>
        <time>2023-06-21T14:05:44Z</time>
      </trkpt>
      <trkpt lat="49.76507" lon="2.11715">
        <ele>159.4</ele>
        <time>2023-06-21T14:05:45Z</time>
      </trkpt>
      <trkpt lat="49.76508" lon="2.11713">
        <ele>159.3</ele>
        <time>2023-06-21T14:05:47Z</time>
      </trkpt>
      <trkpt lat="49.76509" lon="2.11712">
        <ele>159.3</ele>
        <time>2023-06-21T14:05:48Z</time>
      </trkpt>
      <trkpt lat="49.7651" lon="2.11711">
        <ele>159.3</ele>
        <time>2023-06-21T14:05:49Z</time>
      </trkpt>
      <trkpt lat="49.76511" lon="2.1171">
        <ele>159.3</ele>
        <time>2023-06-21T14:05:51Z</time>
      </trkpt>
      <trkpt lat="49.76513" lon="2.11708">
        <ele>159.3</ele>
        <time>2023-06-21T14:05:52Z</time>
      </trkpt>
      <trkpt lat="49.76514" lon="2.11708">
        <ele>159.3</ele>
        <time>2023-06-21T14:05:53Z</time>
      </trkpt>
      <trkpt lat="49.76514" lon="2.11707">
        <ele>159.3</ele>
        <time>2023-06-21T14:05:54Z</time>
      </trkpt>
      <trkpt lat="49.76515" lon="2.11706">
        <ele>159.3</ele>
        <time>2023-06-21T14:05:55Z</time>
      </trkpt>
      <trkpt lat="49.76516" lon="2.11704">
        <ele>159.3</ele>
        <time>2023-06-21T14:05:56Z</time>
      </trkpt>
      <trkpt lat="49.76517" lon="2.11703">
        <ele>159.3</ele>
        <time>2023-06-21T14:05:58Z</time>
      </trkpt>
      <trkpt lat="49.76519" lon="2.11702">
        <ele>159.3</ele>
        <time>2023-06-21T14:05:59Z</time>
      </trkpt>
      <trkpt lat="49.7652" lon="2.11701">
        <ele>159.3</ele>
        <time>2023-06-21T14:06:01Z</time>
      </trkpt>
      <trkpt lat="49.76521" lon="2.117">
        <ele>159.3</ele>
        <time>2023-06-21T14:06:02Z</time>
      </trkpt>
      <trkpt lat="49.76523" lon="2.117">
        <ele>159.3</ele>
        <time>2023-06-21T14:06:03Z</time>
      </trkpt>
      <trkpt lat="49.76524" lon="2.11699">
        <ele>159.3</ele>
        <time>2023-06-21T14:06:04Z</time>
      </trkpt>
      <trkpt lat="49.76525" lon="2.11699">
        <ele>159.3</ele>
        <time>2023-06-21T14:06:05Z</time>
      </trkpt>
      <trkpt lat="49.76526" lon="2.11698">
        <ele>159.3</ele>
        <time>2023-06-21T14:06:07Z</time>
      </trkpt>
      <trkpt lat="49.76527" lon="2.11698">
        <ele>159.3</ele>
        <time>2023-06-21T14:06:08Z</time>
      </trkpt>
      <trkpt lat="49.76528" lon="2.11698">
        <ele>159.3</ele>
        <time>2023-06-21T14:06:09Z</time>
      </trkpt>
      <trkpt lat="49.76529" lon="2.11698">
        <ele>159.3</ele>
        <time>2023-06-21T14:06:10Z</time>
      </trkpt>
      <trkpt lat="49.76531" lon="2.11698">
        <ele>159.3</ele>
        <time>2023-06-21T14:06:11Z</time>
      </trkpt>
      <trkpt lat="49.76532" lon="2.11697">
        <ele>159.3</ele>
        <time>2023-06-21T14:06:12Z</time>
      </trkpt>
      <trkpt lat="49.76533" lon="2.11696">
        <ele>159.3</ele>
        <time>2023-06-21T14:06:14Z</time>
      </trkpt>
      <trkpt lat="49.76535" lon="2.11694">
        <ele>159.3</ele>
        <time>2023-06-21T14:06:15Z</time>
      </trkpt>
      <trkpt lat="49.76536" lon="2.11693">
        <ele>159.3</ele>
        <time>2023-06-21T14:06:16Z</time>
      </trkpt>
      <trkpt lat="49.76536" lon="2.11692">
        <ele>159.3</ele>
        <time>2023-06-21T14:06:17Z</time>
      </trkpt>
      <trkpt lat="49.76537" lon="2.11691">
        <ele>159.3</ele>
        <time>2023-06-21T14:06:18Z</time>
      </trkpt>
      <trkpt lat="49.76539" lon="2.1169">
        <ele>159.3</ele>
        <time>2023-06-21T14:06:20Z</time>
      </trkpt>
      <trkpt lat="49.7654" lon="2.11688">
        <ele>159.3</ele>
        <time>2023-06-21T14:06:21Z</time>
      </trkpt>
      <trkpt lat="49.76541" lon="2.11687">
        <ele>159.3</ele>
        <time>2023-06-21T14:06:23Z</time>
      </trkpt>
      <trkpt lat="49.76542" lon="2.11686">
        <ele>159.3</ele>
        <time>2023-06-21T14:06:24Z</time>
      </trkpt>
      <trkpt lat="49.76542" lon="2.11686">
        <ele>159.3</ele>
        <time>2023-06-21T14:06:25Z</time>
      </trkpt>
      <trkpt lat="49.76543" lon="2.11686">
        <ele>159.3</ele>
        <time>2023-06-21T14:06:26Z</time>
      </trkpt>
      <trkpt lat="49.76544" lon="2.11685">
        <ele>159.3</ele>
        <time>2023-06-21T14:06:28Z</time>
      </trkpt>
      <trkpt lat="49.76545" lon="2.11685">
        <ele>159.3</ele>
        <time>2023-06-21T14:06:29Z</time>
      </trkpt>
      <trkpt lat="49.76546" lon="2.11684">
        <ele>159.3</ele>
        <time>2023-06-21T14:06:30Z</time>
      </trkpt>
      <trkpt lat="49.76547" lon="2.11684">
        <ele>159.3</ele>
        <time>2023-06-21T14:06:31Z</time>
      </trkpt>
      <trkpt lat="49.76548" lon="2.11683">
        <ele>159.3</ele>
        <time>2023-06-21T14:06:32Z</time>
      </trkpt>
      <trkpt lat="49.76548" lon="2.11683">
        <ele>159.3</ele>
        <time>2023-06-21T14:06:33Z</time>
      </trkpt>
      <trkpt lat="49.76549" lon="2.11682">
        <ele>159.3</ele>
        <time>2023-06-21T14:06:35Z</time>
      </trkpt>
      <trkpt lat="49.7655" lon="2.11682">
        <ele>159.4</ele>
        <time>2023-06-21T14:06:36Z</time>
      </trkpt>
      <trkpt lat="49.76551" lon="2.11682">
        <ele>159.4</ele>
        <time>2023-06-21T14:06:37Z</time>
      </trkpt>
      <trkpt lat="49.76552" lon="2.11683">
        <ele>159.4</ele>
        <time>2023-06-21T14:06:39Z</time>
      </trkpt>
      <trkpt lat="49.76553" lon="2.11684">
        <ele>159.4</ele>
        <time>2023-06-21T14:06:40Z</time>
      </trkpt>
      <trkpt lat="49.76553" lon="2.11686">
        <ele>159.3</ele>
        <time>2023-06-21T14:06:41Z</time>
      </trkpt>
      <trkpt lat="49.76554" lon="2.11687">
        <ele>159.3</ele>
        <time>2023-06-21T14:06:42Z</time>
      </trkpt>
      <trkpt lat="49.76555" lon="2.1169">
        <ele>159.3</ele>
        <time>2023-06-21T14:06:44Z</time>
      </trkpt>
      <trkpt lat="49.76555" lon="2.11691">
        <ele>159.3</ele>
        <time>2023-06-21T14:06:45Z</time>
      </trkpt>
      <trkpt lat="49.76556" lon="2.11692">
        <ele>159.3</ele>
        <time>2023-06-21T14:06:46Z</time>
      </trkpt>
      <trkpt lat="49.76556" lon="2.11694">
        <ele>159.3</ele>
        <time>2023-06-21T14:06:47Z</time>
      </trkpt>
      <trkpt lat="49.76557" lon="2.11696">
        <ele>159.3</ele>
        <time>2023-06-21T14:06:48Z</time>
      </trkpt>
      <trkpt lat="49.76558" lon="2.11698">
        <ele>159.3</ele>
        <time>2023-06-21T14:06:50Z</time>
      </trkpt>
      <trkpt lat="49.76559" lon="2.11699">
        <ele>159.3</ele>
        <time>2023-06-21T14:06:51Z</time>
      </trkpt>
      <trkpt lat="49.76559" lon="2.117">
        <ele>159.3</ele>
        <time>2023-06-21T14:06:52Z</time>
      </trkpt>
      <trkpt lat="49.7656" lon="2.11703">
        <ele>159.3</ele>
        <time>2023-06-21T14:06:53Z</time>
      </trkpt>
      <trkpt lat="49.76561" lon="2.11704">
        <ele>159.3</ele>
        <time>2023-06-21T14:06:54Z</time>
      </trkpt>
      <trkpt lat="49.76561" lon="2.11705">
        <ele>159.3</ele>
        <time>2023-06-21T14:06:55Z</time>
      </trkpt>
      <trkpt lat="49.76562" lon="2.11707">
        <ele>159.3</ele>
        <time>2023-06-21T14:06:57Z</time>
      </trkpt>
      <trkpt lat="49.76562" lon="2.11708">
        <ele>159.3</ele>
        <time>2023-06-21T14:06:58Z</time>
      </trkpt>
      <trkpt lat="49.76563" lon="2.11709">
        <ele>159.3</ele>
        <time>2023-06-21T14:06:59Z</time>
      </trkpt>
      <trkpt lat="49.76563" lon="2.11711">
        <ele>159.3</ele>
        <time>2023-06-21T14:07:00Z</time>
      </trkpt>
      <trkpt lat="49.76564" lon="2.11712">
        <ele>159.3</ele>
        <time>2023-06-21T14:07:01Z</time>
      </trkpt>
      <trkpt lat="49.76564" lon="2.11714">
        <ele>159.3</ele>
        <time>2023-06-21T14:07:03Z</time>
      </trkpt>
      <trkpt lat="49.76565" lon="2.11715">
        <ele>159.3</ele>
        <time>2023-06-21T14:07:04Z</time>
      </trkpt>
      <trkpt lat="49.76565" lon="2.11716">
        <ele>159.3</ele>
        <time>2023-06-21T14:07:05Z</time>
      </trkpt>
      <trkpt lat="49.76565" lon="2.11717">
        <ele>159.3</ele>
        <time>2023-06-21T14:07:06Z</time>
      </trkpt>
      <trkpt lat="49.76566" lon="2.11719">
        <ele>159.3</ele>
        <time>2023-06-21T14:07:08Z</time>
      </trkpt>
      <trkpt lat="49.76566" lon="2.11721">
        <ele>159.3</ele>
        <time>2023-06-21T14:07:09Z</time>
      </trkpt>
      <trkpt lat="49.76566" lon="2.11722">
        <ele>159.3</ele>
        <time>2023-06-21T14:07:10Z</time>
      </trkpt>
      <trkpt lat="49.76566" lon="2.11723">
        <ele>159.3</ele>
        <time>2023-06-21T14:07:11Z</time>
      </trkpt>
      <trkpt lat="49.76567" lon="2.11725">
        <ele>159.3</ele>
        <time>2023-06-21T14:07:12Z</time>
      </trkpt>
      <trkpt lat="49.76567" lon="2.11726">
        <ele>159.3</ele>
        <time>2023-06-21T14:07:14Z</time>
      </trkpt>
      <trkpt lat="49.76568" lon="2.11727">
        <ele>159.3</ele>
        <time>2023-06-21T14:07:15Z</time>
      </trkpt>
      <trkpt lat="49.76569" lon="2.1173">
        <ele>159.3</ele>
        <time>2023-06-21T14:07:16Z</time>
      </trkpt>
      <trkpt lat="49.7657" lon="2.11731">
        <ele>159.3</ele>
        <time>2023-06-21T14:07:17Z</time>
      </trkpt>
      <trkpt lat="49.76571" lon="2.11732">
        <ele>159.3</ele>
        <time>2023-06-21T14:07:18Z</time>
      </trkpt>
      <trkpt lat="49.76572" lon="2.11735">
        <ele>159.3</ele>
        <time>2023-06-21T14:07:20Z</time>
      </trkpt>
      <trkpt lat="49.76573" lon="2.11736">
        <ele>159.3</ele>
        <time>2023-06-21T14:07:21Z</time>
      </trkpt>
      <trkpt lat="49.76574" lon="2.11739">
        <ele>159.4</ele>
        <time>2023-06-21T14:07:22Z</time>
      </trkpt>
      <trkpt lat="49.76575" lon="2.1174">
        <ele>159.4</ele>
        <time>2023-06-21T14:07:24Z</time>
      </trkpt>
      <trkpt lat="49.76575" lon="2.11741">
        <ele>159.4</ele>
        <time>2023-06-21T14:07:25Z</time>
      </trkpt>
      <trkpt lat="49.76576" lon="2.11742">
        <ele>159.4</ele>
        <time>2023-06-21T14:07:26Z</time>
      </trkpt>
      <trkpt lat="49.76576" lon="2.11743">
        <ele>159.4</ele>
        <time>2023-06-21T14:07:27Z</time>
      </trkpt>
      <trkpt lat="49.76577" lon="2.11744">
        <ele>159.4</ele>
        <time>2023-06-21T14:07:29Z</time>
      </trkpt>
      <trkpt lat="49.76578" lon="2.11746">
        <ele>159.4</ele>
        <time>2023-06-21T14:07:30Z</time>
      </trkpt>
      <trkpt lat="49.76578" lon="2.11748">
        <ele>159.4</ele>
        <time>2023-06-21T14:07:32Z</time>
      </trkpt>
      <trkpt lat="49.76579" lon="2.11749">
        <ele>159.5</ele>
        <time>2023-06-21T14:07:33Z</time>
      </trkpt>
      <trkpt lat="49.76581" lon="2.11751">
        <ele>159.5</ele>
        <time>2023-06-21T14:07:34Z</time>
      </trkpt>
      <trkpt lat="49.76581" lon="2.11752">
        <ele>159.5</ele>
        <time>2023-06-21T14:07:36Z</time>
      </trkpt>
      <trkpt lat="49.76582" lon="2.11753">
        <ele>159.5</ele>
        <time>2023-06-21T14:07:37Z</time>
      </trkpt>
      <trkpt lat="49.76582" lon="2.11754">
        <ele>159.5</ele>
        <time>2023-06-21T14:07:38Z</time>
      </trkpt>
      <trkpt lat="49.76583" lon="2.11755">
        <ele>159.5</ele>
        <time>2023-06-21T14:07:39Z</time>
      </trkpt>
      <trkpt lat="49.76584" lon="2.11757">
        <ele>159.6</ele>
        <time>2023-06-21T14:07:41Z</time>
      </trkpt>
      <trkpt lat="49.76585" lon="2.11758">
        <ele>159.6</ele>
        <time>2023-06-21T14:07:42Z</time>
      </trkpt>
      <trkpt lat="49.76585" lon="2.11759">
        <ele>159.6</ele>
        <time>2023-06-21T14:07:43Z</time>
      </trkpt>
      <trkpt lat="49.76586" lon="2.1176">
        <ele>159.6</ele>
        <time>2023-06-21T14:07:44Z</time>
      </trkpt>
      <trkpt lat="49.76586" lon="2.11763">
        <ele>159.6</ele>
        <time>2023-06-21T14:07:45Z</time>
      </trkpt>
      <trkpt lat="49.76587" lon="2.11764">
        <ele>159.6</ele>
        <time>2023-06-21T14:07:46Z</time>
      </trkpt>
      <trkpt lat="49.76587" lon="2.11766">
        <ele>159.7</ele>
        <time>2023-06-21T14:07:48Z</time>
      </trkpt>
      <trkpt lat="49.76587" lon="2.11767">
        <ele>159.7</ele>
        <time>2023-06-21T14:07:49Z</time>
      </trkpt>
      <trkpt lat="49.76588" lon="2.11768">
        <ele>159.7</ele>
        <time>2023-06-21T14:07:50Z</time>
      </trkpt>
      <trkpt lat="49.76588" lon="2.11769">
        <ele>159.7</ele>
        <time>2023-06-21T14:07:52Z</time>
      </trkpt>
      <trkpt lat="49.76588" lon="2.11771">
        <ele>159.7</ele>
        <time>2023-06-21T14:07:53Z</time>
      </trkpt>
      <trkpt lat="49.76588" lon="2.11772">
        <ele>159.7</ele>
        <time>2023-06-21T14:07:54Z</time>
      </trkpt>
      <trkpt lat="49.76589" lon="2.11773">
        <ele>159.7</ele>
        <time>2023-06-21T14:07:55Z</time>
      </trkpt>
      <trkpt lat="49.76589" lon="2.11775">
        <ele>159.7</ele>
        <time>2023-06-21T14:07:56Z</time>
      </trkpt>
      <trkpt lat="49.76589" lon="2.11776">
        <ele>159.8</ele>
        <time>2023-06-21T14:07:57Z</time>
      </trkpt>
      <trkpt lat="49.7659" lon="2.11777">
        <ele>159.8</ele>
        <time>2023-06-21T14:07:59Z</time>
      </trkpt>
      <trkpt lat="49.7659" lon="2.11778">
        <ele>159.8</ele>
        <time>2023-06-21T14:08:00Z</time>
      </trkpt>
      <trkpt lat="49.76591" lon="2.11778">
        <ele>159.8</ele>
        <time>2023-06-21T14:08:01Z</time>
      </trkpt>
      <trkpt lat="49.76591" lon="2.11779">
        <ele>159.8</ele>
        <time>2023-06-21T14:08:02Z</time>
      </trkpt>
      <trkpt lat="49.76592" lon="2.1178">
        <ele>159.8</ele>
        <time>2023-06-21T14:08:03Z</time>
      </trkpt>
      <trkpt lat="49.76593" lon="2.11781">
        <ele>159.8</ele>
        <time>2023-06-21T14:08:05Z</time>
      </trkpt>
      <trkpt lat="49.76593" lon="2.11782">
        <ele>159.8</ele>
        <time>2023-06-21T14:08:06Z</time>
      </trkpt>
      <trkpt lat="49.76594" lon="2.11783">
        <ele>159.9</ele>
        <time>2023-06-21T14:08:07Z</time>
      </trkpt>
      <trkpt lat="49.76594" lon="2.11784">
        <ele>159.9</ele>
        <time>2023-06-21T14:08:08Z</time>
      </trkpt>
      <trkpt lat="49.76594" lon="2.11786">
        <ele>159.9</ele>
        <time>2023-06-21T14:08:09Z</time>
      </trkpt>
      <trkpt lat="49.76595" lon="2.11787">
        <ele>159.9</ele>
        <time>2023-06-21T14:08:10Z</time>
      </trkpt>
      <trkpt lat="49.76596" lon="2.11788">
        <ele>159.9</ele>
        <time>2023-06-21T14:08:12Z</time>
      </trkpt>
      <trkpt lat="49.76596" lon="2.1179">
        <ele>159.9</ele>
        <time>2023-06-21T14:08:13Z</time>
      </trkpt>
      <trkpt lat="49.76596" lon="2.11791">
        <ele>159.9</ele>
        <time>2023-06-21T14:08:14Z</time>
      </trkpt>
      <trkpt lat="49.76597" lon="2.11793">
        <ele>160</ele>
        <time>2023-06-21T14:08:15Z</time>
      </trkpt>
      <trkpt lat="49.76597" lon="2.11795">
        <ele>160</ele>
        <time>2023-06-21T14:08:17Z</time>
      </trkpt>
      <trkpt lat="49.76599" lon="2.118">
        <ele>160</ele>
        <time>2023-06-21T14:08:18Z</time>
      </trkpt>
      <trkpt lat="49.766" lon="2.11801">
        <ele>160</ele>
        <time>2023-06-21T14:08:20Z</time>
      </trkpt>
      <trkpt lat="49.766" lon="2.11802">
        <ele>160.1</ele>
        <time>2023-06-21T14:08:21Z</time>
      </trkpt>
      <trkpt lat="49.76601" lon="2.11803">
        <ele>160.1</ele>
        <time>2023-06-21T14:08:22Z</time>
      </trkpt>
      <trkpt lat="49.76601" lon="2.11805">
        <ele>160.1</ele>
        <time>2023-06-21T14:08:23Z</time>
      </trkpt>
      <trkpt lat="49.76603" lon="2.11808">
        <ele>160.1</ele>
        <time>2023-06-21T14:08:24Z</time>
      </trkpt>
      <trkpt lat="49.76603" lon="2.11809">
        <ele>160.1</ele>
        <time>2023-06-21T14:08:25Z</time>
      </trkpt>
      <trkpt lat="49.76603" lon="2.1181">
        <ele>160.1</ele>
        <time>2023-06-21T14:08:27Z</time>
      </trkpt>
      <trkpt lat="49.76604" lon="2.11811">
        <ele>160.2</ele>
        <time>2023-06-21T14:08:28Z</time>
      </trkpt>
      <trkpt lat="49.76604" lon="2.11812">
        <ele>160.2</ele>
        <time>2023-06-21T14:08:29Z</time>
      </trkpt>
      <trkpt lat="49.76605" lon="2.11813">
        <ele>160.2</ele>
        <time>2023-06-21T14:08:30Z</time>
      </trkpt>
      <trkpt lat="49.76605" lon="2.11815">
        <ele>160.2</ele>
        <time>2023-06-21T14:08:31Z</time>
      </trkpt>
      <trkpt lat="49.76606" lon="2.11816">
        <ele>160.2</ele>
        <time>2023-06-21T14:08:33Z</time>
      </trkpt>
      <trkpt lat="49.76606" lon="2.11818">
        <ele>160.2</ele>
        <time>2023-06-21T14:08:34Z</time>
      </trkpt>
      <trkpt lat="49.76607" lon="2.11819">
        <ele>160.2</ele>
        <time>2023-06-21T14:08:35Z</time>
      </trkpt>
      <trkpt lat="49.76608" lon="2.1182">
        <ele>160.2</ele>
        <time>2023-06-21T14:08:36Z</time>
      </trkpt>
      <trkpt lat="49.76608" lon="2.11822">
        <ele>160.2</ele>
        <time>2023-06-21T14:08:37Z</time>
      </trkpt>
      <trkpt lat="49.76609" lon="2.11823">
        <ele>160.2</ele>
        <time>2023-06-21T14:08:38Z</time>
      </trkpt>
      <trkpt lat="49.7661" lon="2.11825">
        <ele>160.3</ele>
        <time>2023-06-21T14:08:40Z</time>
      </trkpt>
      <trkpt lat="49.76611" lon="2.11826">
        <ele>160.3</ele>
        <time>2023-06-21T14:08:41Z</time>
      </trkpt>
      <trkpt lat="49.76611" lon="2.11828">
        <ele>160.3</ele>
        <time>2023-06-21T14:08:42Z</time>
      </trkpt>
      <trkpt lat="49.76612" lon="2.11829">
        <ele>160.3</ele>
        <time>2023-06-21T14:08:43Z</time>
      </trkpt>
      <trkpt lat="49.76612" lon="2.11831">
        <ele>160.3</ele>
        <time>2023-06-21T14:08:45Z</time>
      </trkpt>
      <trkpt lat="49.76613" lon="2.11832">
        <ele>160.3</ele>
        <time>2023-06-21T14:08:46Z</time>
      </trkpt>
      <trkpt lat="49.76614" lon="2.11834">
        <ele>160.3</ele>
        <time>2023-06-21T14:08:47Z</time>
      </trkpt>
      <trkpt lat="49.76614" lon="2.11835">
        <ele>160.3</ele>
        <time>2023-06-21T14:08:49Z</time>
      </trkpt>
      <trkpt lat="49.76614" lon="2.11837">
        <ele>160.3</ele>
        <time>2023-06-21T14:08:50Z</time>
      </trkpt>
      <trkpt lat="49.76615" lon="2.11839">
        <ele>160.3</ele>
        <time>2023-06-21T14:08:52Z</time>
      </trkpt>
      <trkpt lat="49.76616" lon="2.11841">
        <ele>160.3</ele>
        <time>2023-06-21T14:08:53Z</time>
      </trkpt>
      <trkpt lat="49.76617" lon="2.11843">
        <ele>160.3</ele>
        <time>2023-06-21T14:08:54Z</time>
      </trkpt>
      <trkpt lat="49.76618" lon="2.11845">
        <ele>160.3</ele>
        <time>2023-06-21T14:08:55Z</time>
      </trkpt>
      <trkpt lat="49.76618" lon="2.11846">
        <ele>160.3</ele>
        <time>2023-06-21T14:08:56Z</time>
      </trkpt>
      <trkpt lat="49.76619" lon="2.11848">
        <ele>160.3</ele>
        <time>2023-06-21T14:08:57Z</time>
      </trkpt>
      <trkpt lat="49.7662" lon="2.11849">
        <ele>160.4</ele>
        <time>2023-06-21T14:08:59Z</time>
      </trkpt>
      <trkpt lat="49.76621" lon="2.11852">
        <ele>160.4</ele>
        <time>2023-06-21T14:09:00Z</time>
      </trkpt>
      <trkpt lat="49.76622" lon="2.11853">
        <ele>160.4</ele>
        <time>2023-06-21T14:09:01Z</time>
      </trkpt>
      <trkpt lat="49.76622" lon="2.11854">
        <ele>160.4</ele>
        <time>2023-06-21T14:09:02Z</time>
      </trkpt>
      <trkpt lat="49.76623" lon="2.11856">
        <ele>160.4</ele>
        <time>2023-06-21T14:09:03Z</time>
      </trkpt>
      <trkpt lat="49.76623" lon="2.11858">
        <ele>160.4</ele>
        <time>2023-06-21T14:09:05Z</time>
      </trkpt>
      <trkpt lat="49.76624" lon="2.11859">
        <ele>160.4</ele>
        <time>2023-06-21T14:09:06Z</time>
      </trkpt>
      <trkpt lat="49.76624" lon="2.11861">
        <ele>160.4</ele>
        <time>2023-06-21T14:09:07Z</time>
      </trkpt>
      <trkpt lat="49.76625" lon="2.11862">
        <ele>160.4</ele>
        <time>2023-06-21T14:09:08Z</time>
      </trkpt>
      <trkpt lat="49.76626" lon="2.11863">
        <ele>160.4</ele>
        <time>2023-06-21T14:09:09Z</time>
      </trkpt>
      <trkpt lat="49.76627" lon="2.11864">
        <ele>160.4</ele>
        <time>2023-06-21T14:09:10Z</time>
      </trkpt>
      <trkpt lat="49.76628" lon="2.11865">
        <ele>160.5</ele>
        <time>2023-06-21T14:09:11Z</time>
      </trkpt>
      <trkpt lat="49.76629" lon="2.11866">
        <ele>160.5</ele>
        <time>2023-06-21T14:09:12Z</time>
      </trkpt>
      <trkpt lat="49.76629" lon="2.11868">
        <ele>160.5</ele>
        <time>2023-06-21T14:09:13Z</time>
      </trkpt>
      <trkpt lat="49.7663" lon="2.11869">
        <ele>160.5</ele>
        <time>2023-06-21T14:09:15Z</time>
      </trkpt>
      <trkpt lat="49.7663" lon="2.11871">
        <ele>160.5</ele>
        <time>2023-06-21T14:09:16Z</time>
      </trkpt>
      <trkpt lat="49.76631" lon="2.11874">
        <ele>160.5</ele>
        <time>2023-06-21T14:09:18Z</time>
      </trkpt>
      <trkpt lat="49.76632" lon="2.11875">
        <ele>160.5</ele>
        <time>2023-06-21T14:09:19Z</time>
      </trkpt>
      <trkpt lat="49.76632" lon="2.11876">
        <ele>160.5</ele>
        <time>2023-06-21T14:09:20Z</time>
      </trkpt>
      <trkpt lat="49.76632" lon="2.11878">
        <ele>160.5</ele>
        <time>2023-06-21T14:09:21Z</time>
      </trkpt>
      <trkpt lat="49.76633" lon="2.11881">
        <ele>160.5</ele>
        <time>2023-06-21T14:09:22Z</time>
      </trkpt>
      <trkpt lat="49.76634" lon="2.11882">
        <ele>160.5</ele>
        <time>2023-06-21T14:09:23Z</time>
      </trkpt>
      <trkpt lat="49.76634" lon="2.11883">
        <ele>160.5</ele>
        <time>2023-06-21T14:09:24Z</time>
      </trkpt>
      <trkpt lat="49.76636" lon="2.11886">
        <ele>160.5</ele>
        <time>2023-06-21T14:09:25Z</time>
      </trkpt>
      <trkpt lat="49.76636" lon="2.11887">
        <ele>160.5</ele>
        <time>2023-06-21T14:09:27Z</time>
      </trkpt>
      <trkpt lat="49.76636" lon="2.11888">
        <ele>160.6</ele>
        <time>2023-06-21T14:09:28Z</time>
      </trkpt>
      <trkpt lat="49.76638" lon="2.1189">
        <ele>160.6</ele>
        <time>2023-06-21T14:09:29Z</time>
      </trkpt>
      <trkpt lat="49.76638" lon="2.11892">
        <ele>160.6</ele>
        <time>2023-06-21T14:09:30Z</time>
      </trkpt>
      <trkpt lat="49.76639" lon="2.11893">
        <ele>160.6</ele>
        <time>2023-06-21T14:09:31Z</time>
      </trkpt>
      <trkpt lat="49.76639" lon="2.11895">
        <ele>160.6</ele>
        <time>2023-06-21T14:09:32Z</time>
      </trkpt>
      <trkpt lat="49.7664" lon="2.11896">
        <ele>160.6</ele>
        <time>2023-06-21T14:09:33Z</time>
      </trkpt>
      <trkpt lat="49.76642" lon="2.11899">
        <ele>160.6</ele>
        <time>2023-06-21T14:09:34Z</time>
      </trkpt>
      <trkpt lat="49.76642" lon="2.119">
        <ele>160.6</ele>
        <time>2023-06-21T14:09:36Z</time>
      </trkpt>
      <trkpt lat="49.76643" lon="2.11901">
        <ele>160.6</ele>
        <time>2023-06-21T14:09:37Z</time>
      </trkpt>
      <trkpt lat="49.76644" lon="2.11903">
        <ele>160.6</ele>
        <time>2023-06-21T14:09:38Z</time>
      </trkpt>
      <trkpt lat="49.76644" lon="2.11904">
        <ele>160.6</ele>
        <time>2023-06-21T14:09:40Z</time>
      </trkpt>
      <trkpt lat="49.76645" lon="2.11906">
        <ele>160.6</ele>
        <time>2023-06-21T14:09:41Z</time>
      </trkpt>
      <trkpt lat="49.76646" lon="2.11907">
        <ele>160.6</ele>
        <time>2023-06-21T14:09:42Z</time>
      </trkpt>
      <trkpt lat="49.76646" lon="2.11908">
        <ele>160.6</ele>
        <time>2023-06-21T14:09:43Z</time>
      </trkpt>
      <trkpt lat="49.76647" lon="2.1191">
        <ele>160.6</ele>
        <time>2023-06-21T14:09:44Z</time>
      </trkpt>
      <trkpt lat="49.76648" lon="2.11912">
        <ele>160.6</ele>
        <time>2023-06-21T14:09:45Z</time>
      </trkpt>
      <trkpt lat="49.76648" lon="2.11913">
        <ele>160.6</ele>
        <time>2023-06-21T14:09:46Z</time>
      </trkpt>
      <trkpt lat="49.76649" lon="2.11914">
        <ele>160.6</ele>
        <time>2023-06-21T14:09:48Z</time>
      </trkpt>
      <trkpt lat="49.7665" lon="2.11915">
        <ele>160.6</ele>
        <time>2023-06-21T14:09:49Z</time>
      </trkpt>
      <trkpt lat="49.7665" lon="2.11917">
        <ele>160.6</ele>
        <time>2023-06-21T14:09:50Z</time>
      </trkpt>
      <trkpt lat="49.76651" lon="2.11918">
        <ele>160.6</ele>
        <time>2023-06-21T14:09:51Z</time>
      </trkpt>
      <trkpt lat="49.76653" lon="2.11922">
        <ele>160.5</ele>
        <time>2023-06-21T14:09:52Z</time>
      </trkpt>
      <trkpt lat="49.76654" lon="2.11923">
        <ele>160.5</ele>
        <time>2023-06-21T14:09:54Z</time>
      </trkpt>
      <trkpt lat="49.76654" lon="2.11925">
        <ele>160.5</ele>
        <time>2023-06-21T14:09:55Z</time>
      </trkpt>
      <trkpt lat="49.76655" lon="2.11926">
        <ele>160.5</ele>
        <time>2023-06-21T14:09:57Z</time>
      </trkpt>
      <trkpt lat="49.76656" lon="2.11927">
        <ele>160.5</ele>
        <time>2023-06-21T14:09:58Z</time>
      </trkpt>
      <trkpt lat="49.76657" lon="2.11929">
        <ele>160.5</ele>
        <time>2023-06-21T14:09:59Z</time>
      </trkpt>
      <trkpt lat="49.76657" lon="2.1193">
        <ele>160.5</ele>
        <time>2023-06-21T14:10:00Z</time>
      </trkpt>
      <trkpt lat="49.76658" lon="2.11932">
        <ele>160.5</ele>
        <time>2023-06-21T14:10:02Z</time>
      </trkpt>
      <trkpt lat="49.76659" lon="2.11933">
        <ele>160.5</ele>
        <time>2023-06-21T14:10:03Z</time>
      </trkpt>
      <trkpt lat="49.76661" lon="2.11935">
        <ele>160.5</ele>
        <time>2023-06-21T14:10:05Z</time>
      </trkpt>
      <trkpt lat="49.76662" lon="2.11938">
        <ele>160.4</ele>
        <time>2023-06-21T14:10:06Z</time>
      </trkpt>
      <trkpt lat="49.76663" lon="2.11939">
        <ele>160.4</ele>
        <time>2023-06-21T14:10:07Z</time>
      </trkpt>
      <trkpt lat="49.76663" lon="2.1194">
        <ele>160.4</ele>
        <time>2023-06-21T14:10:08Z</time>
      </trkpt>
      <trkpt lat="49.76664" lon="2.11942">
        <ele>160.4</ele>
        <time>2023-06-21T14:10:09Z</time>
      </trkpt>
      <trkpt lat="49.76665" lon="2.11945">
        <ele>160.4</ele>
        <time>2023-06-21T14:10:11Z</time>
      </trkpt>
      <trkpt lat="49.76666" lon="2.11947">
        <ele>160.4</ele>
        <time>2023-06-21T14:10:12Z</time>
      </trkpt>
      <trkpt lat="49.76667" lon="2.11949">
        <ele>160.4</ele>
        <time>2023-06-21T14:10:14Z</time>
      </trkpt>
      <trkpt lat="49.76667" lon="2.1195">
        <ele>160.3</ele>
        <time>2023-06-21T14:10:15Z</time>
      </trkpt>
      <trkpt lat="49.76668" lon="2.11952">
        <ele>160.3</ele>
        <time>2023-06-21T14:10:16Z</time>
      </trkpt>
      <trkpt lat="49.76669" lon="2.11955">
        <ele>160.3</ele>
        <time>2023-06-21T14:10:18Z</time>
      </trkpt>
      <trkpt lat="49.76669" lon="2.11957">
        <ele>160.3</ele>
        <time>2023-06-21T14:10:19Z</time>
      </trkpt>
      <trkpt lat="49.7667" lon="2.1196">
        <ele>160.3</ele>
        <time>2023-06-21T14:10:20Z</time>
      </trkpt>
      <trkpt lat="49.7667" lon="2.11962">
        <ele>160.3</ele>
        <time>2023-06-21T14:10:21Z</time>
      </trkpt>
      <trkpt lat="49.76671" lon="2.11965">
        <ele>160.3</ele>
        <time>2023-06-21T14:10:22Z</time>
      </trkpt>
      <trkpt lat="49.76671" lon="2.11967">
        <ele>160.3</ele>
        <time>2023-06-21T14:10:24Z</time>
      </trkpt>
      <trkpt lat="49.76672" lon="2.11969">
        <ele>160.3</ele>
        <time>2023-06-21T14:10:25Z</time>
      </trkpt>
      <trkpt lat="49.76672" lon="2.11971">
        <ele>160.3</ele>
        <time>2023-06-21T14:10:26Z</time>
      </trkpt>
      <trkpt lat="49.76673" lon="2.11972">
        <ele>160.3</ele>
        <time>2023-06-21T14:10:27Z</time>
      </trkpt>
      <trkpt lat="49.76673" lon="2.11974">
        <ele>160.3</ele>
        <time>2023-06-21T14:10:28Z</time>
      </trkpt>
      <trkpt lat="49.76674" lon="2.11977">
        <ele>160.2</ele>
        <time>2023-06-21T14:10:29Z</time>
      </trkpt>
      <trkpt lat="49.76674" lon="2.11978">
        <ele>160.2</ele>
        <time>2023-06-21T14:10:30Z</time>
      </trkpt>
      <trkpt lat="49.76675" lon="2.1198">
        <ele>160.2</ele>
        <time>2023-06-21T14:10:31Z</time>
      </trkpt>
      <trkpt lat="49.76676" lon="2.11981">
        <ele>160.2</ele>
        <time>2023-06-21T14:10:32Z</time>
      </trkpt>
      <trkpt lat="49.76676" lon="2.11983">
        <ele>160.2</ele>
        <time>2023-06-21T14:10:33Z</time>
      </trkpt>
      <trkpt lat="49.76677" lon="2.11985">
        <ele>160.2</ele>
        <time>2023-06-21T14:10:35Z</time>
      </trkpt>
      <trkpt lat="49.76678" lon="2.11986">
        <ele>160.2</ele>
        <time>2023-06-21T14:10:36Z</time>
      </trkpt>
      <trkpt lat="49.76678" lon="2.11988">
        <ele>160.2</ele>
        <time>2023-06-21T14:10:37Z</time>
      </trkpt>
      <trkpt lat="49.76679" lon="2.11989">
        <ele>160.2</ele>
        <time>2023-06-21T14:10:38Z</time>
      </trkpt>
      <trkpt lat="49.76679" lon="2.11991">
        <ele>160.2</ele>
        <time>2023-06-21T14:10:39Z</time>
      </trkpt>
      <trkpt lat="49.7668" lon="2.11993">
        <ele>160.2</ele>
        <time>2023-06-21T14:10:40Z</time>
      </trkpt>
      <trkpt lat="49.7668" lon="2.11994">
        <ele>160.2</ele>
        <time>2023-06-21T14:10:41Z</time>
      </trkpt>
      <trkpt lat="49.76681" lon="2.11995">
        <ele>160.2</ele>
        <time>2023-06-21T14:10:43Z</time>
      </trkpt>
      <trkpt lat="49.76681" lon="2.11996">
        <ele>160.2</ele>
        <time>2023-06-21T14:10:44Z</time>
      </trkpt>
      <trkpt lat="49.76682" lon="2.11997">
        <ele>160.2</ele>
        <time>2023-06-21T14:10:45Z</time>
      </trkpt>
      <trkpt lat="49.76682" lon="2.11998">
        <ele>160.2</ele>
        <time>2023-06-21T14:10:46Z</time>
      </trkpt>
      <trkpt lat="49.76683" lon="2.12">
        <ele>160.2</ele>
        <time>2023-06-21T14:10:47Z</time>
      </trkpt>
      <trkpt lat="49.76684" lon="2.12001">
        <ele>160.2</ele>
        <time>2023-06-21T14:10:48Z</time>
      </trkpt>
      <trkpt lat="49.76684" lon="2.12002">
        <ele>160.2</ele>
        <time>2023-06-21T14:10:49Z</time>
      </trkpt>
      <trkpt lat="49.76685" lon="2.12004">
        <ele>160.2</ele>
        <time>2023-06-21T14:10:50Z</time>
      </trkpt>
      <trkpt lat="49.76686" lon="2.12005">
        <ele>160.2</ele>
        <time>2023-06-21T14:10:52Z</time>
      </trkpt>
      <trkpt lat="49.76687" lon="2.12006">
        <ele>160.2</ele>
        <time>2023-06-21T14:10:53Z</time>
      </trkpt>
      <trkpt lat="49.76687" lon="2.12007">
        <ele>160.2</ele>
        <time>2023-06-21T14:10:54Z</time>
      </trkpt>
      <trkpt lat="49.76688" lon="2.12009">
        <ele>160.2</ele>
        <time>2023-06-21T14:10:56Z</time>
      </trkpt>
      <trkpt lat="49.76689" lon="2.1201">
        <ele>160.2</ele>
        <time>2023-06-21T14:10:57Z</time>
      </trkpt>
      <trkpt lat="49.76689" lon="2.12012">
        <ele>160.2</ele>
        <time>2023-06-21T14:10:58Z</time>
      </trkpt>
      <trkpt lat="49.7669" lon="2.12013">
        <ele>160.2</ele>
        <time>2023-06-21T14:10:59Z</time>
      </trkpt>
      <trkpt lat="49.7669" lon="2.12016">
        <ele>160.2</ele>
        <time>2023-06-21T14:11:01Z</time>
      </trkpt>
      <trkpt lat="49.76691" lon="2.12017">
        <ele>160.2</ele>
        <time>2023-06-21T14:11:02Z</time>
      </trkpt>
      <trkpt lat="49.76691" lon="2.12018">
        <ele>160.2</ele>
        <time>2023-06-21T14:11:03Z</time>
      </trkpt>
      <trkpt lat="49.76691" lon="2.1202">
        <ele>160.2</ele>
        <time>2023-06-21T14:11:04Z</time>
      </trkpt>
      <trkpt lat="49.76692" lon="2.12021">
        <ele>160.2</ele>
        <time>2023-06-21T14:11:05Z</time>
      </trkpt>
      <trkpt lat="49.76692" lon="2.12023">
        <ele>160.2</ele>
        <time>2023-06-21T14:11:06Z</time>
      </trkpt>
      <trkpt lat="49.76692" lon="2.12025">
        <ele>160.2</ele>
        <time>2023-06-21T14:11:07Z</time>
      </trkpt>
      <trkpt lat="49.76692" lon="2.12026">
        <ele>160.2</ele>
        <time>2023-06-21T14:11:09Z</time>
      </trkpt>
      <trkpt lat="49.76691" lon="2.12028">
        <ele>160.2</ele>
        <time>2023-06-21T14:11:10Z</time>
      </trkpt>
      <trkpt lat="49.76691" lon="2.12029">
        <ele>160.2</ele>
        <time>2023-06-21T14:11:11Z</time>
      </trkpt>
      <trkpt lat="49.76691" lon="2.12031">
        <ele>160.2</ele>
        <time>2023-06-21T14:11:12Z</time>
      </trkpt>
      <trkpt lat="49.76691" lon="2.12032">
        <ele>160.2</ele>
        <time>2023-06-21T14:11:13Z</time>
      </trkpt>
      <trkpt lat="49.76691" lon="2.12034">
        <ele>160.2</ele>
        <time>2023-06-21T14:11:14Z</time>
      </trkpt>
      <trkpt lat="49.76691" lon="2.12036">
        <ele>160.2</ele>
        <time>2023-06-21T14:11:15Z</time>
      </trkpt>
      <trkpt lat="49.76691" lon="2.12038">
        <ele>160.2</ele>
        <time>2023-06-21T14:11:17Z</time>
      </trkpt>
      <trkpt lat="49.7669" lon="2.12042">
        <ele>160.2</ele>
        <time>2023-06-21T14:11:18Z</time>
      </trkpt>
      <trkpt lat="49.7669" lon="2.12043">
        <ele>160.2</ele>
        <time>2023-06-21T14:11:20Z</time>
      </trkpt>
      <trkpt lat="49.76689" lon="2.12044">
        <ele>160.2</ele>
        <time>2023-06-21T14:11:21Z</time>
      </trkpt>
      <trkpt lat="49.76689" lon="2.12046">
        <ele>160.2</ele>
        <time>2023-06-21T14:11:22Z</time>
      </trkpt>
      <trkpt lat="49.76688" lon="2.12047">
        <ele>160.1</ele>
        <time>2023-06-21T14:11:23Z</time>
      </trkpt>
      <trkpt lat="49.76688" lon="2.12048">
        <ele>160.1</ele>
        <time>2023-06-21T14:11:24Z</time>
      </trkpt>
      <trkpt lat="49.76688" lon="2.12051">
        <ele>160.1</ele>
        <time>2023-06-21T14:11:25Z</time>
      </trkpt>
      <trkpt lat="49.76688" lon="2.12053">
        <ele>160</ele>
        <time>2023-06-21T14:11:27Z</time>
      </trkpt>
      <trkpt lat="49.76687" lon="2.12054">
        <ele>160</ele>
        <time>2023-06-21T14:11:28Z</time>
      </trkpt>
      <trkpt lat="49.76687" lon="2.12057">
        <ele>160</ele>
        <time>2023-06-21T14:11:30Z</time>
      </trkpt>
      <trkpt lat="49.76687" lon="2.1206">
        <ele>159.9</ele>
        <time>2023-06-21T14:11:31Z</time>
      </trkpt>
      <trkpt lat="49.76686" lon="2.12062">
        <ele>159.9</ele>
        <time>2023-06-21T14:11:32Z</time>
      </trkpt>
      <trkpt lat="49.76686" lon="2.12065">
        <ele>159.8</ele>
        <time>2023-06-21T14:11:33Z</time>
      </trkpt>
      <trkpt lat="49.76685" lon="2.12069">
        <ele>159.8</ele>
        <time>2023-06-21T14:11:34Z</time>
      </trkpt>
      <trkpt lat="49.76685" lon="2.1207">
        <ele>159.7</ele>
        <time>2023-06-21T14:11:35Z</time>
      </trkpt>
      <trkpt lat="49.76684" lon="2.12073">
        <ele>159.7</ele>
        <time>2023-06-21T14:11:36Z</time>
      </trkpt>
      <trkpt lat="49.76684" lon="2.12076">
        <ele>159.6</ele>
        <time>2023-06-21T14:11:38Z</time>
      </trkpt>
      <trkpt lat="49.76684" lon="2.12077">
        <ele>159.6</ele>
        <time>2023-06-21T14:11:39Z</time>
      </trkpt>
      <trkpt lat="49.76684" lon="2.12081">
        <ele>159.5</ele>
        <time>2023-06-21T14:11:41Z</time>
      </trkpt>
      <trkpt lat="49.76684" lon="2.12082">
        <ele>159.5</ele>
        <time>2023-06-21T14:11:42Z</time>
      </trkpt>
      <trkpt lat="49.76684" lon="2.12083">
        <ele>159.5</ele>
        <time>2023-06-21T14:11:43Z</time>
      </trkpt>
      <trkpt lat="49.76685" lon="2.12084">
        <ele>159.4</ele>
        <time>2023-06-21T14:11:44Z</time>
      </trkpt>
      <trkpt lat="49.76685" lon="2.12085">
        <ele>159.4</ele>
        <time>2023-06-21T14:11:45Z</time>
      </trkpt>
      <trkpt lat="49.76685" lon="2.12087">
        <ele>159.4</ele>
        <time>2023-06-21T14:11:46Z</time>
      </trkpt>
      <trkpt lat="49.76685" lon="2.12088">
        <ele>159.3</ele>
        <time>2023-06-21T14:11:47Z</time>
      </trkpt>
      <trkpt lat="49.76685" lon="2.1209">
        <ele>159.3</ele>
        <time>2023-06-21T14:11:49Z</time>
      </trkpt>
      <trkpt lat="49.76685" lon="2.12092">
        <ele>159.3</ele>
        <time>2023-06-21T14:11:50Z</time>
      </trkpt>
      <trkpt lat="49.76685" lon="2.12093">
        <ele>159.2</ele>
        <time>2023-06-21T14:11:51Z</time>
      </trkpt>
      <trkpt lat="49.76685" lon="2.12096">
        <ele>159.2</ele>
        <time>2023-06-21T14:11:52Z</time>
      </trkpt>
      <trkpt lat="49.76685" lon="2.12097">
        <ele>159.1</ele>
        <time>2023-06-21T14:11:53Z</time>
      </trkpt>
      <trkpt lat="49.76685" lon="2.12099">
        <ele>159.1</ele>
        <time>2023-06-21T14:11:54Z</time>
      </trkpt>
      <trkpt lat="49.76685" lon="2.12101">
        <ele>159.1</ele>
        <time>2023-06-21T14:11:55Z</time>
      </trkpt>
      <trkpt lat="49.76685" lon="2.12104">
        <ele>159</ele>
        <time>2023-06-21T14:11:56Z</time>
      </trkpt>
      <trkpt lat="49.76685" lon="2.12105">
        <ele>159</ele>
        <time>2023-06-21T14:11:57Z</time>
      </trkpt>
      <trkpt lat="49.76685" lon="2.12107">
        <ele>159</ele>
        <time>2023-06-21T14:11:58Z</time>
      </trkpt>
      <trkpt lat="49.76686" lon="2.1211">
        <ele>158.9</ele>
        <time>2023-06-21T14:12:00Z</time>
      </trkpt>
      <trkpt lat="49.76686" lon="2.12111">
        <ele>158.9</ele>
        <time>2023-06-21T14:12:01Z</time>
      </trkpt>
      <trkpt lat="49.76686" lon="2.12112">
        <ele>158.8</ele>
        <time>2023-06-21T14:12:02Z</time>
      </trkpt>
      <trkpt lat="49.76686" lon="2.12114">
        <ele>158.8</ele>
        <time>2023-06-21T14:12:03Z</time>
      </trkpt>
      <trkpt lat="49.76686" lon="2.12117">
        <ele>158.7</ele>
        <time>2023-06-21T14:12:04Z</time>
      </trkpt>
      <trkpt lat="49.76686" lon="2.12119">
        <ele>158.7</ele>
        <time>2023-06-21T14:12:05Z</time>
      </trkpt>
      <trkpt lat="49.76686" lon="2.12121">
        <ele>158.7</ele>
        <time>2023-06-21T14:12:06Z</time>
      </trkpt>
      <trkpt lat="49.76686" lon="2.12124">
        <ele>158.6</ele>
        <time>2023-06-21T14:12:08Z</time>
      </trkpt>
      <trkpt lat="49.76686" lon="2.12126">
        <ele>158.6</ele>
        <time>2023-06-21T14:12:09Z</time>
      </trkpt>
      <trkpt lat="49.76687" lon="2.12128">
        <ele>158.5</ele>
        <time>2023-06-21T14:12:10Z</time>
      </trkpt>
      <trkpt lat="49.76687" lon="2.12131">
        <ele>158.5</ele>
        <time>2023-06-21T14:12:11Z</time>
      </trkpt>
      <trkpt lat="49.76688" lon="2.12136">
        <ele>158.4</ele>
        <time>2023-06-21T14:12:13Z</time>
      </trkpt>
      <trkpt lat="49.76688" lon="2.12137">
        <ele>158.3</ele>
        <time>2023-06-21T14:12:14Z</time>
      </trkpt>
      <trkpt lat="49.76688" lon="2.12139">
        <ele>158.3</ele>
        <time>2023-06-21T14:12:15Z</time>
      </trkpt>
      <trkpt lat="49.76688" lon="2.12143">
        <ele>158.2</ele>
        <time>2023-06-21T14:12:17Z</time>
      </trkpt>
      <trkpt lat="49.76689" lon="2.12146">
        <ele>158.2</ele>
        <time>2023-06-21T14:12:18Z</time>
      </trkpt>
      <trkpt lat="49.76689" lon="2.12148">
        <ele>158.2</ele>
        <time>2023-06-21T14:12:19Z</time>
      </trkpt>
      <trkpt lat="49.7669" lon="2.12152">
        <ele>158.1</ele>
        <time>2023-06-21T14:12:20Z</time>
      </trkpt>
      <trkpt lat="49.7669" lon="2.12154">
        <ele>158.1</ele>
        <time>2023-06-21T14:12:21Z</time>
      </trkpt>
      <trkpt lat="49.7669" lon="2.12156">
        <ele>158</ele>
        <time>2023-06-21T14:12:23Z</time>
      </trkpt>
      <trkpt lat="49.7669" lon="2.12157">
        <ele>158</ele>
        <time>2023-06-21T14:12:24Z</time>
      </trkpt>
      <trkpt lat="49.76691" lon="2.12159">
        <ele>158</ele>
        <time>2023-06-21T14:12:26Z</time>
      </trkpt>
      <trkpt lat="49.76691" lon="2.12161">
        <ele>158</ele>
        <time>2023-06-21T14:12:27Z</time>
      </trkpt>
      <trkpt lat="49.76691" lon="2.12163">
        <ele>157.9</ele>
        <time>2023-06-21T14:12:28Z</time>
      </trkpt>
      <trkpt lat="49.76691" lon="2.12164">
        <ele>157.9</ele>
        <time>2023-06-21T14:12:29Z</time>
      </trkpt>
      <trkpt lat="49.76691" lon="2.12166">
        <ele>157.9</ele>
        <time>2023-06-21T14:12:30Z</time>
      </trkpt>
      <trkpt lat="49.76691" lon="2.12169">
        <ele>157.8</ele>
        <time>2023-06-21T14:12:31Z</time>
      </trkpt>
      <trkpt lat="49.76691" lon="2.12171">
        <ele>157.8</ele>
        <time>2023-06-21T14:12:33Z</time>
      </trkpt>
      <trkpt lat="49.76691" lon="2.12172">
        <ele>157.8</ele>
        <time>2023-06-21T14:12:34Z</time>
      </trkpt>
      <trkpt lat="49.76691" lon="2.12174">
        <ele>157.8</ele>
        <time>2023-06-21T14:12:35Z</time>
      </trkpt>
      <trkpt lat="49.76691" lon="2.12175">
        <ele>157.7</ele>
        <time>2023-06-21T14:12:36Z</time>
      </trkpt>
      <trkpt lat="49.76691" lon="2.12177">
        <ele>157.7</ele>
        <time>2023-06-21T14:12:37Z</time>
      </trkpt>
      <trkpt lat="49.7669" lon="2.12179">
        <ele>157.7</ele>
        <time>2023-06-21T14:12:38Z</time>
      </trkpt>
      <trkpt lat="49.76689" lon="2.12181">
        <ele>157.6</ele>
        <time>2023-06-21T14:12:40Z</time>
      </trkpt>
      <trkpt lat="49.76689" lon="2.12183">
        <ele>157.6</ele>
        <time>2023-06-21T14:12:41Z</time>
      </trkpt>
      <trkpt lat="49.76688" lon="2.12184">
        <ele>157.6</ele>
        <time>2023-06-21T14:12:42Z</time>
      </trkpt>
      <trkpt lat="49.76688" lon="2.12185">
        <ele>157.5</ele>
        <time>2023-06-21T14:12:43Z</time>
      </trkpt>
      <trkpt lat="49.76686" lon="2.12188">
        <ele>157.5</ele>
        <time>2023-06-21T14:12:45Z</time>
      </trkpt>
      <trkpt lat="49.76685" lon="2.12191">
        <ele>157.4</ele>
        <time>2023-06-21T14:12:46Z</time>
      </trkpt>
      <trkpt lat="49.76684" lon="2.12192">
        <ele>157.4</ele>
        <time>2023-06-21T14:12:47Z</time>
      </trkpt>
      <trkpt lat="49.76684" lon="2.12193">
        <ele>157.4</ele>
        <time>2023-06-21T14:12:48Z</time>
      </trkpt>
      <trkpt lat="49.76683" lon="2.12195">
        <ele>157.3</ele>
        <time>2023-06-21T14:12:49Z</time>
      </trkpt>
      <trkpt lat="49.76683" lon="2.12197">
        <ele>157.3</ele>
        <time>2023-06-21T14:12:50Z</time>
      </trkpt>
      <trkpt lat="49.76682" lon="2.12199">
        <ele>157.3</ele>
        <time>2023-06-21T14:12:51Z</time>
      </trkpt>
      <trkpt lat="49.76681" lon="2.12201">
        <ele>157.2</ele>
        <time>2023-06-21T14:12:53Z</time>
      </trkpt>
      <trkpt lat="49.76681" lon="2.12204">
        <ele>157.2</ele>
        <time>2023-06-21T14:12:54Z</time>
      </trkpt>
      <trkpt lat="49.7668" lon="2.12206">
        <ele>157.1</ele>
        <time>2023-06-21T14:12:55Z</time>
      </trkpt>
      <trkpt lat="49.76679" lon="2.12208">
        <ele>157.1</ele>
        <time>2023-06-21T14:12:56Z</time>
      </trkpt>
      <trkpt lat="49.76678" lon="2.12209">
        <ele>157.1</ele>
        <time>2023-06-21T14:12:57Z</time>
      </trkpt>
      <trkpt lat="49.76677" lon="2.12211">
        <ele>157</ele>
        <time>2023-06-21T14:12:58Z</time>
      </trkpt>
      <trkpt lat="49.76676" lon="2.12213">
        <ele>157</ele>
        <time>2023-06-21T14:12:59Z</time>
      </trkpt>
      <trkpt lat="49.76675" lon="2.12215">
        <ele>157</ele>
        <time>2023-06-21T14:13:00Z</time>
      </trkpt>
      <trkpt lat="49.76675" lon="2.12217">
        <ele>156.9</ele>
        <time>2023-06-21T14:13:01Z</time>
      </trkpt>
      <trkpt lat="49.76674" lon="2.12219">
        <ele>156.9</ele>
        <time>2023-06-21T14:13:03Z</time>
      </trkpt>
      <trkpt lat="49.76674" lon="2.12221">
        <ele>156.9</ele>
        <time>2023-06-21T14:13:04Z</time>
      </trkpt>
      <trkpt lat="49.76673" lon="2.12222">
        <ele>156.8</ele>
        <time>2023-06-21T14:13:05Z</time>
      </trkpt>
      <trkpt lat="49.76672" lon="2.12225">
        <ele>156.8</ele>
        <time>2023-06-21T14:13:07Z</time>
      </trkpt>
      <trkpt lat="49.76672" lon="2.12227">
        <ele>156.8</ele>
        <time>2023-06-21T14:13:08Z</time>
      </trkpt>
      <trkpt lat="49.76671" lon="2.1223">
        <ele>156.7</ele>
        <time>2023-06-21T14:13:09Z</time>
      </trkpt>
      <trkpt lat="49.76671" lon="2.12231">
        <ele>156.7</ele>
        <time>2023-06-21T14:13:10Z</time>
      </trkpt>
      <trkpt lat="49.7667" lon="2.12233">
        <ele>156.7</ele>
        <time>2023-06-21T14:13:11Z</time>
      </trkpt>
      <trkpt lat="49.7667" lon="2.12234">
        <ele>156.6</ele>
        <time>2023-06-21T14:13:12Z</time>
      </trkpt>
      <trkpt lat="49.7667" lon="2.12235">
        <ele>156.6</ele>
        <time>2023-06-21T14:13:14Z</time>
      </trkpt>
      <trkpt lat="49.76669" lon="2.12238">
        <ele>156.6</ele>
        <time>2023-06-21T14:13:15Z</time>
      </trkpt>
      <trkpt lat="49.76669" lon="2.12241">
        <ele>156.5</ele>
        <time>2023-06-21T14:13:17Z</time>
      </trkpt>
      <trkpt lat="49.76669" lon="2.12242">
        <ele>156.5</ele>
        <time>2023-06-21T14:13:18Z</time>
      </trkpt>
      <trkpt lat="49.76669" lon="2.12245">
        <ele>156.5</ele>
        <time>2023-06-21T14:13:19Z</time>
      </trkpt>
      <trkpt lat="49.76668" lon="2.12246">
        <ele>156.5</ele>
        <time>2023-06-21T14:13:20Z</time>
      </trkpt>
      <trkpt lat="49.76668" lon="2.12247">
        <ele>156.4</ele>
        <time>2023-06-21T14:13:21Z</time>
      </trkpt>
      <trkpt lat="49.76668" lon="2.12248">
        <ele>156.4</ele>
        <time>2023-06-21T14:13:22Z</time>
      </trkpt>
      <trkpt lat="49.76668" lon="2.12249">
        <ele>156.4</ele>
        <time>2023-06-21T14:13:23Z</time>
      </trkpt>
      <trkpt lat="49.76668" lon="2.12251">
        <ele>156.4</ele>
        <time>2023-06-21T14:13:25Z</time>
      </trkpt>
      <trkpt lat="49.76668" lon="2.12253">
        <ele>156.4</ele>
        <time>2023-06-21T14:13:26Z</time>
      </trkpt>
      <trkpt lat="49.76668" lon="2.12254">
        <ele>156.3</ele>
        <time>2023-06-21T14:13:27Z</time>
      </trkpt>
      <trkpt lat="49.76667" lon="2.12256">
        <ele>156.3</ele>
        <time>2023-06-21T14:13:28Z</time>
      </trkpt>
      <trkpt lat="49.76667" lon="2.12258">
        <ele>156.3</ele>
        <time>2023-06-21T14:13:29Z</time>
      </trkpt>
      <trkpt lat="49.76667" lon="2.12259">
        <ele>156.3</ele>
        <time>2023-06-21T14:13:30Z</time>
      </trkpt>
      <trkpt lat="49.76667" lon="2.12261">
        <ele>156.2</ele>
        <time>2023-06-21T14:13:31Z</time>
      </trkpt>
      <trkpt lat="49.76667" lon="2.12263">
        <ele>156.2</ele>
        <time>2023-06-21T14:13:32Z</time>
      </trkpt>
      <trkpt lat="49.76667" lon="2.12266">
        <ele>156.2</ele>
        <time>2023-06-21T14:13:34Z</time>
      </trkpt>
      <trkpt lat="49.76667" lon="2.12268">
        <ele>156.2</ele>
        <time>2023-06-21T14:13:35Z</time>
      </trkpt>
      <trkpt lat="49.76667" lon="2.12269">
        <ele>156.1</ele>
        <time>2023-06-21T14:13:36Z</time>
      </trkpt>
      <trkpt lat="49.76668" lon="2.1227">
        <ele>156.1</ele>
        <time>2023-06-21T14:13:37Z</time>
      </trkpt>
      <trkpt lat="49.76668" lon="2.12272">
        <ele>156.1</ele>
        <time>2023-06-21T14:13:38Z</time>
      </trkpt>
      <trkpt lat="49.76668" lon="2.12274">
        <ele>156.1</ele>
        <time>2023-06-21T14:13:39Z</time>
      </trkpt>
      <trkpt lat="49.76668" lon="2.12276">
        <ele>156</ele>
        <time>2023-06-21T14:13:40Z</time>
      </trkpt>
      <trkpt lat="49.76667" lon="2.12278">
        <ele>156</ele>
        <time>2023-06-21T14:13:41Z</time>
      </trkpt>
      <trkpt lat="49.76667" lon="2.12279">
        <ele>156</ele>
        <time>2023-06-21T14:13:42Z</time>
      </trkpt>
      <trkpt lat="49.76667" lon="2.12282">
        <ele>156</ele>
        <time>2023-06-21T14:13:44Z</time>
      </trkpt>
      <trkpt lat="49.76666" lon="2.12283">
        <ele>155.9</ele>
        <time>2023-06-21T14:13:45Z</time>
      </trkpt>
      <trkpt lat="49.76666" lon="2.12285">
        <ele>155.9</ele>
        <time>2023-06-21T14:13:46Z</time>
      </trkpt>
      <trkpt lat="49.76666" lon="2.12288">
        <ele>155.9</ele>
        <time>2023-06-21T14:13:48Z</time>
      </trkpt>
      <trkpt lat="49.76666" lon="2.12289">
        <ele>155.8</ele>
        <time>2023-06-21T14:13:49Z</time>
      </trkpt>
      <trkpt lat="49.76666" lon="2.12291">
        <ele>155.8</ele>
        <time>2023-06-21T14:13:50Z</time>
      </trkpt>
      <trkpt lat="49.76666" lon="2.12293">
        <ele>155.8</ele>
        <time>2023-06-21T14:13:51Z</time>
      </trkpt>
      <trkpt lat="49.76666" lon="2.12295">
        <ele>155.8</ele>
        <time>2023-06-21T14:13:52Z</time>
      </trkpt>
      <trkpt lat="49.76666" lon="2.12298">
        <ele>155.7</ele>
        <time>2023-06-21T14:13:53Z</time>
      </trkpt>
      <trkpt lat="49.76666" lon="2.123">
        <ele>155.7</ele>
        <time>2023-06-21T14:13:55Z</time>
      </trkpt>
      <trkpt lat="49.76666" lon="2.12301">
        <ele>155.7</ele>
        <time>2023-06-21T14:13:56Z</time>
      </trkpt>
      <trkpt lat="49.76666" lon="2.12303">
        <ele>155.7</ele>
        <time>2023-06-21T14:13:57Z</time>
      </trkpt>
      <trkpt lat="49.76665" lon="2.12305">
        <ele>155.6</ele>
        <time>2023-06-21T14:13:58Z</time>
      </trkpt>
      <trkpt lat="49.76665" lon="2.12309">
        <ele>155.6</ele>
        <time>2023-06-21T14:14:00Z</time>
      </trkpt>
      <trkpt lat="49.76665" lon="2.1231">
        <ele>155.6</ele>
        <time>2023-06-21T14:14:01Z</time>
      </trkpt>
      <trkpt lat="49.76665" lon="2.12312">
        <ele>155.5</ele>
        <time>2023-06-21T14:14:02Z</time>
      </trkpt>
      <trkpt lat="49.76665" lon="2.12314">
        <ele>155.5</ele>
        <time>2023-06-21T14:14:03Z</time>
      </trkpt>
      <trkpt lat="49.76665" lon="2.12315">
        <ele>155.5</ele>
        <time>2023-06-21T14:14:05Z</time>
      </trkpt>
      <trkpt lat="49.76665" lon="2.12317">
        <ele>155.5</ele>
        <time>2023-06-21T14:14:06Z</time>
      </trkpt>
      <trkpt lat="49.76665" lon="2.12319">
        <ele>155.4</ele>
        <time>2023-06-21T14:14:07Z</time>
      </trkpt>
      <trkpt lat="49.76665" lon="2.1232">
        <ele>155.4</ele>
        <time>2023-06-21T14:14:08Z</time>
      </trkpt>
      <trkpt lat="49.76665" lon="2.12322">
        <ele>155.4</ele>
        <time>2023-06-21T14:14:09Z</time>
      </trkpt>
      <trkpt lat="49.76665" lon="2.12324">
        <ele>155.4</ele>
        <time>2023-06-21T14:14:10Z</time>
      </trkpt>
      <trkpt lat="49.76665" lon="2.12326">
        <ele>155.4</ele>
        <time>2023-06-21T14:14:11Z</time>
      </trkpt>
      <trkpt lat="49.76665" lon="2.12328">
        <ele>155.3</ele>
        <time>2023-06-21T14:14:12Z</time>
      </trkpt>
      <trkpt lat="49.76665" lon="2.12331">
        <ele>155.3</ele>
        <time>2023-06-21T14:14:14Z</time>
      </trkpt>
      <trkpt lat="49.76665" lon="2.12332">
        <ele>155.3</ele>
        <time>2023-06-21T14:14:15Z</time>
      </trkpt>
      <trkpt lat="49.76664" lon="2.12334">
        <ele>155.3</ele>
        <time>2023-06-21T14:14:16Z</time>
      </trkpt>
      <trkpt lat="49.76664" lon="2.12336">
        <ele>155.2</ele>
        <time>2023-06-21T14:14:17Z</time>
      </trkpt>
      <trkpt lat="49.76664" lon="2.12337">
        <ele>155.2</ele>
        <time>2023-06-21T14:14:18Z</time>
      </trkpt>
      <trkpt lat="49.76664" lon="2.1234">
        <ele>155.2</ele>
        <time>2023-06-21T14:14:20Z</time>
      </trkpt>
      <trkpt lat="49.76664" lon="2.12342">
        <ele>155.1</ele>
        <time>2023-06-21T14:14:21Z</time>
      </trkpt>
      <trkpt lat="49.76663" lon="2.12344">
        <ele>155.1</ele>
        <time>2023-06-21T14:14:22Z</time>
      </trkpt>
      <trkpt lat="49.76663" lon="2.12346">
        <ele>155.1</ele>
        <time>2023-06-21T14:14:24Z</time>
      </trkpt>
      <trkpt lat="49.76663" lon="2.12347">
        <ele>155.1</ele>
        <time>2023-06-21T14:14:25Z</time>
      </trkpt>
      <trkpt lat="49.76662" lon="2.12349">
        <ele>155.1</ele>
        <time>2023-06-21T14:14:26Z</time>
      </trkpt>
      <trkpt lat="49.76662" lon="2.12351">
        <ele>155</ele>
        <time>2023-06-21T14:14:27Z</time>
      </trkpt>
      <trkpt lat="49.76662" lon="2.12354">
        <ele>155</ele>
        <time>2023-06-21T14:14:28Z</time>
      </trkpt>
      <trkpt lat="49.76661" lon="2.12356">
        <ele>155</ele>
        <time>2023-06-21T14:14:29Z</time>
      </trkpt>
      <trkpt lat="49.7666" lon="2.12358">
        <ele>154.9</ele>
        <time>2023-06-21T14:14:31Z</time>
      </trkpt>
      <trkpt lat="49.76659" lon="2.12359">
        <ele>154.9</ele>
        <time>2023-06-21T14:14:32Z</time>
      </trkpt>
      <trkpt lat="49.76658" lon="2.12362">
        <ele>154.9</ele>
        <time>2023-06-21T14:14:33Z</time>
      </trkpt>
      <trkpt lat="49.76657" lon="2.12365">
        <ele>154.8</ele>
        <time>2023-06-21T14:14:34Z</time>
      </trkpt>
      <trkpt lat="49.76657" lon="2.12366">
        <ele>154.8</ele>
        <time>2023-06-21T14:14:35Z</time>
      </trkpt>
      <trkpt lat="49.76657" lon="2.12367">
        <ele>154.8</ele>
        <time>2023-06-21T14:14:36Z</time>
      </trkpt>
      <trkpt lat="49.76655" lon="2.1237">
        <ele>154.8</ele>
        <time>2023-06-21T14:14:37Z</time>
      </trkpt>
      <trkpt lat="49.76655" lon="2.12371">
        <ele>154.7</ele>
        <time>2023-06-21T14:14:38Z</time>
      </trkpt>
      <trkpt lat="49.76655" lon="2.12372">
        <ele>154.7</ele>
        <time>2023-06-21T14:14:39Z</time>
      </trkpt>
      <trkpt lat="49.76654" lon="2.12374">
        <ele>154.7</ele>
        <time>2023-06-21T14:14:41Z</time>
      </trkpt>
      <trkpt lat="49.76653" lon="2.12376">
        <ele>154.7</ele>
        <time>2023-06-21T14:14:42Z</time>
      </trkpt>
      <trkpt lat="49.76653" lon="2.12377">
        <ele>154.6</ele>
        <time>2023-06-21T14:14:43Z</time>
      </trkpt>
      <trkpt lat="49.76652" lon="2.12379">
        <ele>154.6</ele>
        <time>2023-06-21T14:14:44Z</time>
      </trkpt>
      <trkpt lat="49.76652" lon="2.12381">
        <ele>154.6</ele>
        <time>2023-06-21T14:14:45Z</time>
      </trkpt>
      <trkpt lat="49.76651" lon="2.12382">
        <ele>154.6</ele>
        <time>2023-06-21T14:14:46Z</time>
      </trkpt>
      <trkpt lat="49.76651" lon="2.12384">
        <ele>154.5</ele>
        <time>2023-06-21T14:14:47Z</time>
      </trkpt>
      <trkpt lat="49.76651" lon="2.12386">
        <ele>154.5</ele>
        <time>2023-06-21T14:14:49Z</time>
      </trkpt>
      <trkpt lat="49.7665" lon="2.12388">
        <ele>154.5</ele>
        <time>2023-06-21T14:14:50Z</time>
      </trkpt>
      <trkpt lat="49.7665" lon="2.1239">
        <ele>154.5</ele>
        <time>2023-06-21T14:14:51Z</time>
      </trkpt>
      <trkpt lat="49.76649" lon="2.12393">
        <ele>154.4</ele>
        <time>2023-06-21T14:14:53Z</time>
      </trkpt>
      <trkpt lat="49.76648" lon="2.12394">
        <ele>154.4</ele>
        <time>2023-06-21T14:14:54Z</time>
      </trkpt>
      <trkpt lat="49.76648" lon="2.12395">
        <ele>154.4</ele>
        <time>2023-06-21T14:14:55Z</time>
      </trkpt>
      <trkpt lat="49.76648" lon="2.12397">
        <ele>154.3</ele>
        <time>2023-06-21T14:14:57Z</time>
      </trkpt>
      <trkpt lat="49.76647" lon="2.12399">
        <ele>154.3</ele>
        <time>2023-06-21T14:14:58Z</time>
      </trkpt>
      <trkpt lat="49.76647" lon="2.124">
        <ele>154.3</ele>
        <time>2023-06-21T14:14:59Z</time>
      </trkpt>
      <trkpt lat="49.76647" lon="2.12401">
        <ele>154.3</ele>
        <time>2023-06-21T14:15:00Z</time>
      </trkpt>
      <trkpt lat="49.76647" lon="2.12403">
        <ele>154.3</ele>
        <time>2023-06-21T14:15:01Z</time>
      </trkpt>
      <trkpt lat="49.76647" lon="2.12404">
        <ele>154.2</ele>
        <time>2023-06-21T14:15:02Z</time>
      </trkpt>
      <trkpt lat="49.76647" lon="2.12406">
        <ele>154.2</ele>
        <time>2023-06-21T14:15:04Z</time>
      </trkpt>
      <trkpt lat="49.76647" lon="2.12407">
        <ele>154.2</ele>
        <time>2023-06-21T14:15:05Z</time>
      </trkpt>
      <trkpt lat="49.76646" lon="2.12409">
        <ele>154.2</ele>
        <time>2023-06-21T14:15:06Z</time>
      </trkpt>
      <trkpt lat="49.76646" lon="2.1241">
        <ele>154.2</ele>
        <time>2023-06-21T14:15:07Z</time>
      </trkpt>
      <trkpt lat="49.76645" lon="2.12413">
        <ele>154.1</ele>
        <time>2023-06-21T14:15:08Z</time>
      </trkpt>
      <trkpt lat="49.76645" lon="2.12414">
        <ele>154.1</ele>
        <time>2023-06-21T14:15:09Z</time>
      </trkpt>
      <trkpt lat="49.76645" lon="2.12415">
        <ele>154.1</ele>
        <time>2023-06-21T14:15:11Z</time>
      </trkpt>
      <trkpt lat="49.76645" lon="2.12416">
        <ele>154.1</ele>
        <time>2023-06-21T14:15:12Z</time>
      </trkpt>
      <trkpt lat="49.76645" lon="2.12418">
        <ele>154</ele>
        <time>2023-06-21T14:15:13Z</time>
      </trkpt>
      <trkpt lat="49.76646" lon="2.12418">
        <ele>154</ele>
        <time>2023-06-21T14:15:14Z</time>
      </trkpt>
      <trkpt lat="49.76645" lon="2.12421">
        <ele>154</ele>
        <time>2023-06-21T14:15:16Z</time>
      </trkpt>
      <trkpt lat="49.76645" lon="2.12422">
        <ele>154</ele>
        <time>2023-06-21T14:15:17Z</time>
      </trkpt>
      <trkpt lat="49.76645" lon="2.12425">
        <ele>153.9</ele>
        <time>2023-06-21T14:15:18Z</time>
      </trkpt>
      <trkpt lat="49.76645" lon="2.12427">
        <ele>153.9</ele>
        <time>2023-06-21T14:15:20Z</time>
      </trkpt>
      <trkpt lat="49.76645" lon="2.12429">
        <ele>153.9</ele>
        <time>2023-06-21T14:15:21Z</time>
      </trkpt>
      <trkpt lat="49.76645" lon="2.12432">
        <ele>153.8</ele>
        <time>2023-06-21T14:15:22Z</time>
      </trkpt>
      <trkpt lat="49.76646" lon="2.12434">
        <ele>153.8</ele>
        <time>2023-06-21T14:15:23Z</time>
      </trkpt>
      <trkpt lat="49.76646" lon="2.12437">
        <ele>153.7</ele>
        <time>2023-06-21T14:15:24Z</time>
      </trkpt>
      <trkpt lat="49.76646" lon="2.1244">
        <ele>153.7</ele>
        <time>2023-06-21T14:15:25Z</time>
      </trkpt>
      <trkpt lat="49.76646" lon="2.12442">
        <ele>153.7</ele>
        <time>2023-06-21T14:15:26Z</time>
      </trkpt>
      <trkpt lat="49.76646" lon="2.12445">
        <ele>153.6</ele>
        <time>2023-06-21T14:15:27Z</time>
      </trkpt>
      <trkpt lat="49.76647" lon="2.12447">
        <ele>153.6</ele>
        <time>2023-06-21T14:15:29Z</time>
      </trkpt>
      <trkpt lat="49.76647" lon="2.12449">
        <ele>153.5</ele>
        <time>2023-06-21T14:15:30Z</time>
      </trkpt>
      <trkpt lat="49.76647" lon="2.12451">
        <ele>153.5</ele>
        <time>2023-06-21T14:15:31Z</time>
      </trkpt>
      <trkpt lat="49.76647" lon="2.12453">
        <ele>153.5</ele>
        <time>2023-06-21T14:15:32Z</time>
      </trkpt>
      <trkpt lat="49.76647" lon="2.12455">
        <ele>153.4</ele>
        <time>2023-06-21T14:15:33Z</time>
      </trkpt>
      <trkpt lat="49.76647" lon="2.12457">
        <ele>153.4</ele>
        <time>2023-06-21T14:15:34Z</time>
      </trkpt>
      <trkpt lat="49.76647" lon="2.12458">
        <ele>153.4</ele>
        <time>2023-06-21T14:15:35Z</time>
      </trkpt>
      <trkpt lat="49.76647" lon="2.1246">
        <ele>153.3</ele>
        <time>2023-06-21T14:15:36Z</time>
      </trkpt>
      <trkpt lat="49.76647" lon="2.12461">
        <ele>153.3</ele>
        <time>2023-06-21T14:15:38Z</time>
      </trkpt>
      <trkpt lat="49.76647" lon="2.12463">
        <ele>153.3</ele>
        <time>2023-06-21T14:15:39Z</time>
      </trkpt>
      <trkpt lat="49.76647" lon="2.12465">
        <ele>153.3</ele>
        <time>2023-06-21T14:15:40Z</time>
      </trkpt>
      <trkpt lat="49.76647" lon="2.12466">
        <ele>153.2</ele>
        <time>2023-06-21T14:15:41Z</time>
      </trkpt>
      <trkpt lat="49.76646" lon="2.12468">
        <ele>153.2</ele>
        <time>2023-06-21T14:15:42Z</time>
      </trkpt>
      <trkpt lat="49.76646" lon="2.12471">
        <ele>153.1</ele>
        <time>2023-06-21T14:15:44Z</time>
      </trkpt>
      <trkpt lat="49.76646" lon="2.12472">
        <ele>153.1</ele>
        <time>2023-06-21T14:15:45Z</time>
      </trkpt>
      <trkpt lat="49.76646" lon="2.12474">
        <ele>153.1</ele>
        <time>2023-06-21T14:15:46Z</time>
      </trkpt>
      <trkpt lat="49.76646" lon="2.12475">
        <ele>153.1</ele>
        <time>2023-06-21T14:15:47Z</time>
      </trkpt>
      <trkpt lat="49.76646" lon="2.12476">
        <ele>153</ele>
        <time>2023-06-21T14:15:48Z</time>
      </trkpt>
      <trkpt lat="49.76646" lon="2.12478">
        <ele>153</ele>
        <time>2023-06-21T14:15:49Z</time>
      </trkpt>
      <trkpt lat="49.76645" lon="2.12478">
        <ele>153</ele>
        <time>2023-06-21T14:15:50Z</time>
      </trkpt>
      <trkpt lat="49.76645" lon="2.12479">
        <ele>153</ele>
        <time>2023-06-21T14:15:51Z</time>
      </trkpt>
      <trkpt lat="49.76645" lon="2.12479">
        <ele>153</ele>
        <time>2023-06-21T14:15:52Z</time>
      </trkpt>
      <trkpt lat="49.76645" lon="2.12479">
        <ele>153</ele>
        <time>2023-06-21T14:15:54Z</time>
      </trkpt>
      <trkpt lat="49.76645" lon="2.12479">
        <ele>153</ele>
        <time>2023-06-21T14:15:55Z</time>
      </trkpt>
      <trkpt lat="49.76645" lon="2.1248">
        <ele>153</ele>
        <time>2023-06-21T14:15:56Z</time>
      </trkpt>
      <trkpt lat="49.76645" lon="2.12481">
        <ele>152.9</ele>
        <time>2023-06-21T14:15:57Z</time>
      </trkpt>
      <trkpt lat="49.76645" lon="2.12483">
        <ele>152.9</ele>
        <time>2023-06-21T14:15:58Z</time>
      </trkpt>
      <trkpt lat="49.76645" lon="2.12485">
        <ele>152.9</ele>
        <time>2023-06-21T14:15:59Z</time>
      </trkpt>
      <trkpt lat="49.76646" lon="2.12486">
        <ele>152.8</ele>
        <time>2023-06-21T14:16:01Z</time>
      </trkpt>
      <trkpt lat="49.76646" lon="2.12488">
        <ele>152.8</ele>
        <time>2023-06-21T14:16:02Z</time>
      </trkpt>
      <trkpt lat="49.76647" lon="2.1249">
        <ele>152.8</ele>
        <time>2023-06-21T14:16:03Z</time>
      </trkpt>
      <trkpt lat="49.76647" lon="2.12492">
        <ele>152.7</ele>
        <time>2023-06-21T14:16:04Z</time>
      </trkpt>
      <trkpt lat="49.76647" lon="2.12493">
        <ele>152.7</ele>
        <time>2023-06-21T14:16:05Z</time>
      </trkpt>
      <trkpt lat="49.76647" lon="2.12495">
        <ele>152.7</ele>
        <time>2023-06-21T14:16:06Z</time>
      </trkpt>
      <trkpt lat="49.76648" lon="2.12498">
        <ele>152.6</ele>
        <time>2023-06-21T14:16:07Z</time>
      </trkpt>
      <trkpt lat="49.76648" lon="2.12501">
        <ele>152.5</ele>
        <time>2023-06-21T14:16:08Z</time>
      </trkpt>
      <trkpt lat="49.76648" lon="2.12505">
        <ele>152.4</ele>
        <time>2023-06-21T14:16:10Z</time>
      </trkpt>
      <trkpt lat="49.76648" lon="2.12506">
        <ele>152.4</ele>
        <time>2023-06-21T14:16:11Z</time>
      </trkpt>
      <trkpt lat="49.76648" lon="2.12509">
        <ele>152.4</ele>
        <time>2023-06-21T14:16:12Z</time>
      </trkpt>
      <trkpt lat="49.76648" lon="2.1251">
        <ele>152.3</ele>
        <time>2023-06-21T14:16:13Z</time>
      </trkpt>
      <trkpt lat="49.76648" lon="2.12512">
        <ele>152.3</ele>
        <time>2023-06-21T14:16:14Z</time>
      </trkpt>
      <trkpt lat="49.76648" lon="2.12515">
        <ele>152.2</ele>
        <time>2023-06-21T14:16:16Z</time>
      </trkpt>
      <trkpt lat="49.76648" lon="2.12517">
        <ele>152.2</ele>
        <time>2023-06-21T14:16:17Z</time>
      </trkpt>
      <trkpt lat="49.76648" lon="2.12518">
        <ele>152.2</ele>
        <time>2023-06-21T14:16:18Z</time>
      </trkpt>
      <trkpt lat="49.76648" lon="2.12518">
        <ele>152.1</ele>
        <time>2023-06-21T14:16:19Z</time>
      </trkpt>
      <trkpt lat="49.76648" lon="2.1252">
        <ele>152.1</ele>
        <time>2023-06-21T14:16:21Z</time>
      </trkpt>
      <trkpt lat="49.76648" lon="2.12521">
        <ele>152.1</ele>
        <time>2023-06-21T14:16:22Z</time>
      </trkpt>
      <trkpt lat="49.7665" lon="2.12522">
        <ele>152</ele>
        <time>2023-06-21T14:16:24Z</time>
      </trkpt>
      <trkpt lat="49.7665" lon="2.12522">
        <ele>152</ele>
        <time>2023-06-21T14:16:25Z</time>
      </trkpt>
      <trkpt lat="49.76652" lon="2.1252">
        <ele>151.9</ele>
        <time>2023-06-21T14:16:26Z</time>
      </trkpt>
      <trkpt lat="49.76654" lon="2.12518">
        <ele>151.9</ele>
        <time>2023-06-21T14:16:28Z</time>
      </trkpt>
      <trkpt lat="49.76654" lon="2.12518">
        <ele>151.9</ele>
        <time>2023-06-21T14:16:29Z</time>
      </trkpt>
      <trkpt lat="49.76653" lon="2.12519">
        <ele>151.8</ele>
        <time>2023-06-21T14:16:30Z</time>
      </trkpt>
      <trkpt lat="49.76653" lon="2.1252">
        <ele>151.8</ele>
        <time>2023-06-21T14:16:31Z</time>
      </trkpt>
      <trkpt lat="49.76653" lon="2.12521">
        <ele>151.8</ele>
        <time>2023-06-21T14:16:32Z</time>
      </trkpt>
      <trkpt lat="49.76653" lon="2.12522">
        <ele>151.8</ele>
        <time>2023-06-21T14:16:33Z</time>
      </trkpt>
      <trkpt lat="49.76652" lon="2.12522">
        <ele>151.8</ele>
        <time>2023-06-21T14:16:34Z</time>
      </trkpt>
      <trkpt lat="49.76652" lon="2.12523">
        <ele>151.7</ele>
        <time>2023-06-21T14:16:36Z</time>
      </trkpt>
      <trkpt lat="49.76652" lon="2.12524">
        <ele>151.7</ele>
        <time>2023-06-21T14:16:37Z</time>
      </trkpt>
      <trkpt lat="49.76651" lon="2.12527">
        <ele>151.7</ele>
        <time>2023-06-21T14:16:38Z</time>
      </trkpt>
      <trkpt lat="49.76651" lon="2.12529">
        <ele>151.6</ele>
        <time>2023-06-21T14:16:39Z</time>
      </trkpt>
      <trkpt lat="49.76651" lon="2.12534">
        <ele>151.5</ele>
        <time>2023-06-21T14:16:41Z</time>
      </trkpt>
      <trkpt lat="49.76651" lon="2.12535">
        <ele>151.5</ele>
        <time>2023-06-21T14:16:42Z</time>
      </trkpt>
      <trkpt lat="49.7665" lon="2.12538">
        <ele>151.4</ele>
        <time>2023-06-21T14:16:43Z</time>
      </trkpt>
      <trkpt lat="49.7665" lon="2.12539">
        <ele>151.4</ele>
        <time>2023-06-21T14:16:44Z</time>
      </trkpt>
      <trkpt lat="49.76649" lon="2.12541">
        <ele>151.3</ele>
        <time>2023-06-21T14:16:45Z</time>
      </trkpt>
      <trkpt lat="49.76649" lon="2.12542">
        <ele>151.3</ele>
        <time>2023-06-21T14:16:46Z</time>
      </trkpt>
      <trkpt lat="49.76648" lon="2.12544">
        <ele>151.3</ele>
        <time>2023-06-21T14:16:47Z</time>
      </trkpt>
      <trkpt lat="49.76648" lon="2.12545">
        <ele>151.2</ele>
        <time>2023-06-21T14:16:49Z</time>
      </trkpt>
      <trkpt lat="49.76648" lon="2.12547">
        <ele>151.2</ele>
        <time>2023-06-21T14:16:50Z</time>
      </trkpt>
      <trkpt lat="49.76648" lon="2.12551">
        <ele>151.1</ele>
        <time>2023-06-21T14:16:51Z</time>
      </trkpt>
      <trkpt lat="49.76648" lon="2.12552">
        <ele>151</ele>
        <time>2023-06-21T14:16:52Z</time>
      </trkpt>
      <trkpt lat="49.76648" lon="2.12553">
        <ele>151</ele>
        <time>2023-06-21T14:16:53Z</time>
      </trkpt>
      <trkpt lat="49.76649" lon="2.12555">
        <ele>151</ele>
        <time>2023-06-21T14:16:55Z</time>
      </trkpt>
      <trkpt lat="49.7665" lon="2.12556">
        <ele>150.9</ele>
        <time>2023-06-21T14:16:56Z</time>
      </trkpt>
      <trkpt lat="49.7665" lon="2.12556">
        <ele>150.9</ele>
        <time>2023-06-21T14:16:57Z</time>
      </trkpt>
      <trkpt lat="49.76651" lon="2.12557">
        <ele>150.9</ele>
        <time>2023-06-21T14:16:58Z</time>
      </trkpt>
      <trkpt lat="49.76651" lon="2.12557">
        <ele>150.8</ele>
        <time>2023-06-21T14:16:59Z</time>
      </trkpt>
      <trkpt lat="49.7665" lon="2.12558">
        <ele>150.8</ele>
        <time>2023-06-21T14:17:00Z</time>
      </trkpt>
      <trkpt lat="49.7665" lon="2.12559">
        <ele>150.8</ele>
        <time>2023-06-21T14:17:01Z</time>
      </trkpt>
      <trkpt lat="49.76649" lon="2.1256">
        <ele>150.7</ele>
        <time>2023-06-21T14:17:02Z</time>
      </trkpt>
      <trkpt lat="49.76649" lon="2.12562">
        <ele>150.7</ele>
        <time>2023-06-21T14:17:03Z</time>
      </trkpt>
      <trkpt lat="49.76648" lon="2.12563">
        <ele>150.7</ele>
        <time>2023-06-21T14:17:04Z</time>
      </trkpt>
      <trkpt lat="49.76648" lon="2.12565">
        <ele>150.6</ele>
        <time>2023-06-21T14:17:06Z</time>
      </trkpt>
      <trkpt lat="49.76648" lon="2.12566">
        <ele>150.6</ele>
        <time>2023-06-21T14:17:07Z</time>
      </trkpt>
      <trkpt lat="49.76647" lon="2.12566">
        <ele>150.6</ele>
        <time>2023-06-21T14:17:08Z</time>
      </trkpt>
      <trkpt lat="49.76647" lon="2.12567">
        <ele>150.5</ele>
        <time>2023-06-21T14:17:09Z</time>
      </trkpt>
      <trkpt lat="49.76646" lon="2.12569">
        <ele>150.5</ele>
        <time>2023-06-21T14:17:10Z</time>
      </trkpt>
      <trkpt lat="49.76646" lon="2.12572">
        <ele>150.4</ele>
        <time>2023-06-21T14:17:11Z</time>
      </trkpt>
      <trkpt lat="49.76645" lon="2.12573">
        <ele>150.3</ele>
        <time>2023-06-21T14:17:13Z</time>
      </trkpt>
      <trkpt lat="49.76645" lon="2.12575">
        <ele>150.3</ele>
        <time>2023-06-21T14:17:14Z</time>
      </trkpt>
      <trkpt lat="49.76645" lon="2.12577">
        <ele>150.2</ele>
        <time>2023-06-21T14:17:15Z</time>
      </trkpt>
      <trkpt lat="49.76644" lon="2.12579">
        <ele>150.1</ele>
        <time>2023-06-21T14:17:16Z</time>
      </trkpt>
      <trkpt lat="49.76643" lon="2.12581">
        <ele>150.1</ele>
        <time>2023-06-21T14:17:17Z</time>
      </trkpt>
      <trkpt lat="49.76643" lon="2.12583">
        <ele>150</ele>
        <time>2023-06-21T14:17:18Z</time>
      </trkpt>
      <trkpt lat="49.76643" lon="2.12585">
        <ele>150</ele>
        <time>2023-06-21T14:17:19Z</time>
      </trkpt>
      <trkpt lat="49.76644" lon="2.12586">
        <ele>149.9</ele>
        <time>2023-06-21T14:17:21Z</time>
      </trkpt>
      <trkpt lat="49.76644" lon="2.12587">
        <ele>149.9</ele>
        <time>2023-06-21T14:17:22Z</time>
      </trkpt>
      <trkpt lat="49.76644" lon="2.12588">
        <ele>149.9</ele>
        <time>2023-06-21T14:17:23Z</time>
      </trkpt>
      <trkpt lat="49.76645" lon="2.1259">
        <ele>149.8</ele>
        <time>2023-06-21T14:17:24Z</time>
      </trkpt>
      <trkpt lat="49.76646" lon="2.12591">
        <ele>149.7</ele>
        <time>2023-06-21T14:17:26Z</time>
      </trkpt>
      <trkpt lat="49.76647" lon="2.12591">
        <ele>149.7</ele>
        <time>2023-06-21T14:17:27Z</time>
      </trkpt>
      <trkpt lat="49.76648" lon="2.12589">
        <ele>149.6</ele>
        <time>2023-06-21T14:17:28Z</time>
      </trkpt>
      <trkpt lat="49.7665" lon="2.12587">
        <ele>149.5</ele>
        <time>2023-06-21T14:17:30Z</time>
      </trkpt>
      <trkpt lat="49.7665" lon="2.12586">
        <ele>149.5</ele>
        <time>2023-06-21T14:17:31Z</time>
      </trkpt>
      <trkpt lat="49.7665" lon="2.12585">
        <ele>149.5</ele>
        <time>2023-06-21T14:17:32Z</time>
      </trkpt>
      <trkpt lat="49.7665" lon="2.12585">
        <ele>149.5</ele>
        <time>2023-06-21T14:17:34Z</time>
      </trkpt>
      <trkpt lat="49.7665" lon="2.12585">
        <ele>149.5</ele>
        <time>2023-06-21T14:17:35Z</time>
      </trkpt>
      <trkpt lat="49.7665" lon="2.12585">
        <ele>149.4</ele>
        <time>2023-06-21T14:17:36Z</time>
      </trkpt>
      <trkpt lat="49.7665" lon="2.12585">
        <ele>149.4</ele>
        <time>2023-06-21T14:17:38Z</time>
      </trkpt>
      <trkpt lat="49.7665" lon="2.12585">
        <ele>149.4</ele>
        <time>2023-06-21T14:17:39Z</time>
      </trkpt>
      <trkpt lat="49.7665" lon="2.12585">
        <ele>149.4</ele>
        <time>2023-06-21T14:17:40Z</time>
      </trkpt>
      <trkpt lat="49.7665" lon="2.12584">
        <ele>149.4</ele>
        <time>2023-06-21T14:17:42Z</time>
      </trkpt>
      <trkpt lat="49.7665" lon="2.12584">
        <ele>149.4</ele>
        <time>2023-06-21T14:17:43Z</time>
      </trkpt>
      <trkpt lat="49.7665" lon="2.12584">
        <ele>149.4</ele>
        <time>2023-06-21T14:17:44Z</time>
      </trkpt>
      <trkpt lat="49.7665" lon="2.12584">
        <ele>149.4</ele>
        <time>2023-06-21T14:17:45Z</time>
      </trkpt>
      <trkpt lat="49.7665" lon="2.12584">
        <ele>149.4</ele>
        <time>2023-06-21T14:17:46Z</time>
      </trkpt>
      <trkpt lat="49.76649" lon="2.12584">
        <ele>149.4</ele>
        <time>2023-06-21T14:17:47Z</time>
      </trkpt>
      <trkpt lat="49.76649" lon="2.12584">
        <ele>149.4</ele>
        <time>2023-06-21T14:17:48Z</time>
      </trkpt>
      <trkpt lat="49.76649" lon="2.12584">
        <ele>149.4</ele>
        <time>2023-06-21T14:17:49Z</time>
      </trkpt>
      <trkpt lat="49.76649" lon="2.12583">
        <ele>149.4</ele>
        <time>2023-06-21T14:17:50Z</time>
      </trkpt>
      <trkpt lat="49.76649" lon="2.12583">
        <ele>149.4</ele>
        <time>2023-06-21T14:17:51Z</time>
      </trkpt>
      <trkpt lat="49.76649" lon="2.12583">
        <ele>149.4</ele>
        <time>2023-06-21T14:17:52Z</time>
      </trkpt>
      <trkpt lat="49.76649" lon="2.12583">
        <ele>149.4</ele>
        <time>2023-06-21T14:17:53Z</time>
      </trkpt>
      <trkpt lat="49.76649" lon="2.12583">
        <ele>149.4</ele>
        <time>2023-06-21T14:17:54Z</time>
      </trkpt>
      <trkpt lat="49.76649" lon="2.12583">
        <ele>149.4</ele>
        <time>2023-06-21T14:17:55Z</time>
      </trkpt>
      <trkpt lat="49.76649" lon="2.12583">
        <ele>149.3</ele>
        <time>2023-06-21T14:17:56Z</time>
      </trkpt>
      <trkpt lat="49.76649" lon="2.12583">
        <ele>149.3</ele>
        <time>2023-06-21T14:17:57Z</time>
      </trkpt>
      <trkpt lat="49.76649" lon="2.12582">
        <ele>149.3</ele>
        <time>2023-06-21T14:17:58Z</time>
      </trkpt>
      <trkpt lat="49.76649" lon="2.12582">
        <ele>149.3</ele>
        <time>2023-06-21T14:17:59Z</time>
      </trkpt>
      <trkpt lat="49.76648" lon="2.12582">
        <ele>149.3</ele>
        <time>2023-06-21T14:18:00Z</time>
      </trkpt>
      <trkpt lat="49.76648" lon="2.12582">
        <ele>149.3</ele>
        <time>2023-06-21T14:18:01Z</time>
      </trkpt>
      <trkpt lat="49.76648" lon="2.12582">
        <ele>149.3</ele>
        <time>2023-06-21T14:18:02Z</time>
      </trkpt>
      <trkpt lat="49.76648" lon="2.12582">
        <ele>149.3</ele>
        <time>2023-06-21T14:18:03Z</time>
      </trkpt>
      <trkpt lat="49.76648" lon="2.12582">
        <ele>149.3</ele>
        <time>2023-06-21T14:18:04Z</time>
      </trkpt>
      <trkpt lat="49.76648" lon="2.12582">
        <ele>149.3</ele>
        <time>2023-06-21T14:18:05Z</time>
      </trkpt>
      <trkpt lat="49.76648" lon="2.12581">
        <ele>149.3</ele>
        <time>2023-06-21T14:18:06Z</time>
      </trkpt>
      <trkpt lat="49.76648" lon="2.12581">
        <ele>149.3</ele>
        <time>2023-06-21T14:18:07Z</time>
      </trkpt>
      <trkpt lat="49.76648" lon="2.12581">
        <ele>149.3</ele>
        <time>2023-06-21T14:18:08Z</time>
      </trkpt>
      <trkpt lat="49.76648" lon="2.12581">
        <ele>149.3</ele>
        <time>2023-06-21T14:18:09Z</time>
      </trkpt>
      <trkpt lat="49.76648" lon="2.12581">
        <ele>149.3</ele>
        <time>2023-06-21T14:18:10Z</time>
      </trkpt>
      <trkpt lat="49.76648" lon="2.12581">
        <ele>149.3</ele>
        <time>2023-06-21T14:18:11Z</time>
      </trkpt>
      <trkpt lat="49.76648" lon="2.12581">
        <ele>149.3</ele>
        <time>2023-06-21T14:18:12Z</time>
      </trkpt>
      <trkpt lat="49.76647" lon="2.12581">
        <ele>149.3</ele>
        <time>2023-06-21T14:18:13Z</time>
      </trkpt>
      <trkpt lat="49.76647" lon="2.1258">
        <ele>149.3</ele>
        <time>2023-06-21T14:18:14Z</time>
      </trkpt>
      <trkpt lat="49.76647" lon="2.1258">
        <ele>149.2</ele>
        <time>2023-06-21T14:18:15Z</time>
      </trkpt>
      <trkpt lat="49.76647" lon="2.1258">
        <ele>149.2</ele>
        <time>2023-06-21T14:18:16Z</time>
      </trkpt>
      <trkpt lat="49.76647" lon="2.1258">
        <ele>149.2</ele>
        <time>2023-06-21T14:18:17Z</time>
      </trkpt>
      <trkpt lat="49.76647" lon="2.1258">
        <ele>149.2</ele>
        <time>2023-06-21T14:18:18Z</time>
      </trkpt>
      <trkpt lat="49.76647" lon="2.1258">
        <ele>149.2</ele>
        <time>2023-06-21T14:18:19Z</time>
      </trkpt>
      <trkpt lat="49.76647" lon="2.1258">
        <ele>149.2</ele>
        <time>2023-06-21T14:18:20Z</time>
      </trkpt>
      <trkpt lat="49.76647" lon="2.1258">
        <ele>149.2</ele>
        <time>2023-06-21T14:18:21Z</time>
      </trkpt>
      <trkpt lat="49.76647" lon="2.12579">
        <ele>149.2</ele>
        <time>2023-06-21T14:18:22Z</time>
      </trkpt>
      <trkpt lat="49.76645" lon="2.12577">
        <ele>149.1</ele>
        <time>2023-06-21T14:18:23Z</time>
      </trkpt>
      <trkpt lat="49.76644" lon="2.12577">
        <ele>149</ele>
        <time>2023-06-21T14:18:24Z</time>
      </trkpt>
      <trkpt lat="49.76644" lon="2.12577">
        <ele>149</ele>
        <time>2023-06-21T14:18:25Z</time>
      </trkpt>
      <trkpt lat="49.76644" lon="2.12577">
        <ele>149</ele>
        <time>2023-06-21T14:18:26Z</time>
      </trkpt>
      <trkpt lat="49.76644" lon="2.12578">
        <ele>149</ele>
        <time>2023-06-21T14:18:27Z</time>
      </trkpt>
      <trkpt lat="49.76644" lon="2.12579">
        <ele>149</ele>
        <time>2023-06-21T14:18:29Z</time>
      </trkpt>
      <trkpt lat="49.76645" lon="2.1258">
        <ele>148.9</ele>
        <time>2023-06-21T14:18:30Z</time>
      </trkpt>
      <trkpt lat="49.76645" lon="2.12582">
        <ele>148.9</ele>
        <time>2023-06-21T14:18:31Z</time>
      </trkpt>
      <trkpt lat="49.76645" lon="2.12583">
        <ele>148.8</ele>
        <time>2023-06-21T14:18:32Z</time>
      </trkpt>
      <trkpt lat="49.76646" lon="2.12584">
        <ele>148.8</ele>
        <time>2023-06-21T14:18:33Z</time>
      </trkpt>
      <trkpt lat="49.76646" lon="2.12585">
        <ele>148.7</ele>
        <time>2023-06-21T14:18:35Z</time>
      </trkpt>
      <trkpt lat="49.76646" lon="2.12586">
        <ele>148.7</ele>
        <time>2023-06-21T14:18:36Z</time>
      </trkpt>
      <trkpt lat="49.76646" lon="2.12587">
        <ele>148.7</ele>
        <time>2023-06-21T14:18:37Z</time>
      </trkpt>
      <trkpt lat="49.76645" lon="2.12587">
        <ele>148.7</ele>
        <time>2023-06-21T14:18:38Z</time>
      </trkpt>
      <trkpt lat="49.76645" lon="2.12588">
        <ele>148.6</ele>
        <time>2023-06-21T14:18:39Z</time>
      </trkpt>
      <trkpt lat="49.76645" lon="2.12589">
        <ele>148.6</ele>
        <time>2023-06-21T14:18:40Z</time>
      </trkpt>
      <trkpt lat="49.76645" lon="2.12591">
        <ele>148.6</ele>
        <time>2023-06-21T14:18:42Z</time>
      </trkpt>
      <trkpt lat="49.76646" lon="2.12591">
        <ele>148.5</ele>
        <time>2023-06-21T14:18:43Z</time>
      </trkpt>
      <trkpt lat="49.76647" lon="2.12592">
        <ele>148.5</ele>
        <time>2023-06-21T14:18:45Z</time>
      </trkpt>
      <trkpt lat="49.76647" lon="2.12593">
        <ele>148.5</ele>
        <time>2023-06-21T14:18:46Z</time>
      </trkpt>
      <trkpt lat="49.76648" lon="2.12594">
        <ele>148.4</ele>
        <time>2023-06-21T14:18:48Z</time>
      </trkpt>
      <trkpt lat="49.76647" lon="2.12595">
        <ele>148.4</ele>
        <time>2023-06-21T14:18:49Z</time>
      </trkpt>
      <trkpt lat="49.76647" lon="2.12595">
        <ele>148.4</ele>
        <time>2023-06-21T14:18:50Z</time>
      </trkpt>
      <trkpt lat="49.76647" lon="2.12595">
        <ele>148.4</ele>
        <time>2023-06-21T14:18:52Z</time>
      </trkpt>
      <trkpt lat="49.76647" lon="2.12595">
        <ele>148.4</ele>
        <time>2023-06-21T14:18:53Z</time>
      </trkpt>
      <trkpt lat="49.76647" lon="2.12595">
        <ele>148.3</ele>
        <time>2023-06-21T14:18:55Z</time>
      </trkpt>
      <trkpt lat="49.76647" lon="2.12595">
        <ele>148.3</ele>
        <time>2023-06-21T14:18:56Z</time>
      </trkpt>
      <trkpt lat="49.76647" lon="2.12595">
        <ele>148.3</ele>
        <time>2023-06-21T14:18:58Z</time>
      </trkpt>
      <trkpt lat="49.76647" lon="2.12595">
        <ele>148.3</ele>
        <time>2023-06-21T14:18:59Z</time>
      </trkpt>
      <trkpt lat="49.76647" lon="2.12596">
        <ele>148.3</ele>
        <time>2023-06-21T14:19:00Z</time>
      </trkpt>
      <trkpt lat="49.76647" lon="2.12597">
        <ele>148.3</ele>
        <time>2023-06-21T14:19:02Z</time>
      </trkpt>
      <trkpt lat="49.76647" lon="2.12597">
        <ele>148.2</ele>
        <time>2023-06-21T14:19:03Z</time>
      </trkpt>
      <trkpt lat="49.76648" lon="2.12597">
        <ele>148.2</ele>
        <time>2023-06-21T14:19:04Z</time>
      </trkpt>
      <trkpt lat="49.76648" lon="2.12596">
        <ele>148.2</ele>
        <time>2023-06-21T14:19:05Z</time>
      </trkpt>
      <trkpt lat="49.76648" lon="2.12596">
        <ele>148.2</ele>
        <time>2023-06-21T14:19:06Z</time>
      </trkpt>
      <trkpt lat="49.76648" lon="2.12596">
        <ele>148.2</ele>
        <time>2023-06-21T14:19:07Z</time>
      </trkpt>
      <trkpt lat="49.76648" lon="2.12596">
        <ele>148.2</ele>
        <time>2023-06-21T14:19:08Z</time>
      </trkpt>
      <trkpt lat="49.76648" lon="2.12596">
        <ele>148.2</ele>
        <time>2023-06-21T14:19:09Z</time>
      </trkpt>
      <trkpt lat="49.76648" lon="2.12596">
        <ele>148.2</ele>
        <time>2023-06-21T14:19:10Z</time>
      </trkpt>
      <trkpt lat="49.76648" lon="2.12596">
        <ele>148.2</ele>
        <time>2023-06-21T14:19:11Z</time>
      </trkpt>
      <trkpt lat="49.76648" lon="2.12596">
        <ele>148.2</ele>
        <time>2023-06-21T14:19:12Z</time>
      </trkpt>
      <trkpt lat="49.76648" lon="2.12596">
        <ele>148.2</ele>
        <time>2023-06-21T14:19:13Z</time>
      </trkpt>
      <trkpt lat="49.76648" lon="2.12597">
        <ele>148.2</ele>
        <time>2023-06-21T14:19:14Z</time>
      </trkpt>
      <trkpt lat="49.76648" lon="2.12598">
        <ele>148.1</ele>
        <time>2023-06-21T14:19:15Z</time>
      </trkpt>
      <trkpt lat="49.76648" lon="2.12599">
        <ele>148.1</ele>
        <time>2023-06-21T14:19:16Z</time>
      </trkpt>
      <trkpt lat="49.76648" lon="2.12599">
        <ele>148</ele>
        <time>2023-06-21T14:19:17Z</time>
      </trkpt>
      <trkpt lat="49.76648" lon="2.126">
        <ele>148</ele>
        <time>2023-06-21T14:19:18Z</time>
      </trkpt>
      <trkpt lat="49.76648" lon="2.126">
        <ele>148</ele>
        <time>2023-06-21T14:19:19Z</time>
      </trkpt>
      <trkpt lat="49.76648" lon="2.126">
        <ele>148</ele>
        <time>2023-06-21T14:19:20Z</time>
      </trkpt>
      <trkpt lat="49.76648" lon="2.126">
        <ele>148</ele>
        <time>2023-06-21T14:19:21Z</time>
      </trkpt>
      <trkpt lat="49.76648" lon="2.12601">
        <ele>148</ele>
        <time>2023-06-21T14:19:22Z</time>
      </trkpt>
      <trkpt lat="49.76648" lon="2.12601">
        <ele>148</ele>
        <time>2023-06-21T14:19:23Z</time>
      </trkpt>
      <trkpt lat="49.76648" lon="2.12601">
        <ele>148</ele>
        <time>2023-06-21T14:19:24Z</time>
      </trkpt>
      <trkpt lat="49.76648" lon="2.12601">
        <ele>148</ele>
        <time>2023-06-21T14:19:25Z</time>
      </trkpt>
      <trkpt lat="49.76648" lon="2.12601">
        <ele>148</ele>
        <time>2023-06-21T14:19:26Z</time>
      </trkpt>
      <trkpt lat="49.76648" lon="2.12601">
        <ele>148</ele>
        <time>2023-06-21T14:19:27Z</time>
      </trkpt>
      <trkpt lat="49.76648" lon="2.12601">
        <ele>148</ele>
        <time>2023-06-21T14:19:28Z</time>
      </trkpt>
      <trkpt lat="49.76648" lon="2.12601">
        <ele>148</ele>
        <time>2023-06-21T14:19:29Z</time>
      </trkpt>
      <trkpt lat="49.76648" lon="2.12601">
        <ele>148</ele>
        <time>2023-06-21T14:19:30Z</time>
      </trkpt>
      <trkpt lat="49.76648" lon="2.12601">
        <ele>148</ele>
        <time>2023-06-21T14:19:31Z</time>
      </trkpt>
      <trkpt lat="49.76648" lon="2.12601">
        <ele>148</ele>
        <time>2023-06-21T14:19:32Z</time>
      </trkpt>
      <trkpt lat="49.76648" lon="2.12601">
        <ele>148</ele>
        <time>2023-06-21T14:19:33Z</time>
      </trkpt>
      <trkpt lat="49.76648" lon="2.12601">
        <ele>147.9</ele>
        <time>2023-06-21T14:19:34Z</time>
      </trkpt>
      <trkpt lat="49.76648" lon="2.12601">
        <ele>147.9</ele>
        <time>2023-06-21T14:19:35Z</time>
      </trkpt>
      <trkpt lat="49.76648" lon="2.12601">
        <ele>147.9</ele>
        <time>2023-06-21T14:19:36Z</time>
      </trkpt>
      <trkpt lat="49.76648" lon="2.12601">
        <ele>147.9</ele>
        <time>2023-06-21T14:19:37Z</time>
      </trkpt>
      <trkpt lat="49.76648" lon="2.126">
        <ele>147.9</ele>
        <time>2023-06-21T14:19:38Z</time>
      </trkpt>
      <trkpt lat="49.76648" lon="2.126">
        <ele>147.9</ele>
        <time>2023-06-21T14:19:39Z</time>
      </trkpt>
      <trkpt lat="49.76648" lon="2.126">
        <ele>147.9</ele>
        <time>2023-06-21T14:19:40Z</time>
      </trkpt>
      <trkpt lat="49.76648" lon="2.126">
        <ele>147.9</ele>
        <time>2023-06-21T14:19:41Z</time>
      </trkpt>
      <trkpt lat="49.76648" lon="2.126">
        <ele>147.9</ele>
        <time>2023-06-21T14:19:42Z</time>
      </trkpt>
      <trkpt lat="49.76648" lon="2.126">
        <ele>147.9</ele>
        <time>2023-06-21T14:19:43Z</time>
      </trkpt>
      <trkpt lat="49.76648" lon="2.126">
        <ele>147.9</ele>
        <time>2023-06-21T14:19:44Z</time>
      </trkpt>
      <trkpt lat="49.76648" lon="2.126">
        <ele>147.9</ele>
        <time>2023-06-21T14:19:45Z</time>
      </trkpt>
      <trkpt lat="49.76648" lon="2.126">
        <ele>147.9</ele>
        <time>2023-06-21T14:19:46Z</time>
      </trkpt>
      <trkpt lat="49.76648" lon="2.126">
        <ele>147.9</ele>
        <time>2023-06-21T14:19:47Z</time>
      </trkpt>
      <trkpt lat="49.76648" lon="2.126">
        <ele>147.9</ele>
        <time>2023-06-21T14:19:48Z</time>
      </trkpt>
      <trkpt lat="49.76648" lon="2.126">
        <ele>147.9</ele>
        <time>2023-06-21T14:19:49Z</time>
      </trkpt>
      <trkpt lat="49.76648" lon="2.126">
        <ele>147.9</ele>
        <time>2023-06-21T14:19:50Z</time>
      </trkpt>
      <trkpt lat="49.76648" lon="2.12601">
        <ele>147.9</ele>
        <time>2023-06-21T14:19:51Z</time>
      </trkpt>
      <trkpt lat="49.76648" lon="2.12601">
        <ele>147.9</ele>
        <time>2023-06-21T14:19:52Z</time>
      </trkpt>
      <trkpt lat="49.76648" lon="2.12601">
        <ele>147.9</ele>
        <time>2023-06-21T14:19:53Z</time>
      </trkpt>
      <trkpt lat="49.76648" lon="2.12601">
        <ele>147.9</ele>
        <time>2023-06-21T14:19:54Z</time>
      </trkpt>
      <trkpt lat="49.76648" lon="2.12601">
        <ele>147.9</ele>
        <time>2023-06-21T14:19:55Z</time>
      </trkpt>
      <trkpt lat="49.76649" lon="2.12604">
        <ele>147.8</ele>
        <time>2023-06-21T14:19:57Z</time>
      </trkpt>
      <trkpt lat="49.76649" lon="2.12605">
        <ele>147.8</ele>
        <time>2023-06-21T14:19:58Z</time>
      </trkpt>
      <trkpt lat="49.76649" lon="2.12606">
        <ele>147.7</ele>
        <time>2023-06-21T14:19:59Z</time>
      </trkpt>
      <trkpt lat="49.76649" lon="2.12607">
        <ele>147.7</ele>
        <time>2023-06-21T14:20:01Z</time>
      </trkpt>
      <trkpt lat="49.76649" lon="2.12608">
        <ele>147.6</ele>
        <time>2023-06-21T14:20:02Z</time>
      </trkpt>
      <trkpt lat="49.76649" lon="2.12609">
        <ele>147.6</ele>
        <time>2023-06-21T14:20:03Z</time>
      </trkpt>
      <trkpt lat="49.76648" lon="2.12611">
        <ele>147.5</ele>
        <time>2023-06-21T14:20:04Z</time>
      </trkpt>
      <trkpt lat="49.76648" lon="2.12612">
        <ele>147.5</ele>
        <time>2023-06-21T14:20:05Z</time>
      </trkpt>
      <trkpt lat="49.76648" lon="2.12614">
        <ele>147.4</ele>
        <time>2023-06-21T14:20:07Z</time>
      </trkpt>
      <trkpt lat="49.76648" lon="2.12616">
        <ele>147.4</ele>
        <time>2023-06-21T14:20:08Z</time>
      </trkpt>
      <trkpt lat="49.76648" lon="2.12618">
        <ele>147.3</ele>
        <time>2023-06-21T14:20:09Z</time>
      </trkpt>
      <trkpt lat="49.76647" lon="2.12619">
        <ele>147.3</ele>
        <time>2023-06-21T14:20:10Z</time>
      </trkpt>
      <trkpt lat="49.76648" lon="2.1262">
        <ele>147.3</ele>
        <time>2023-06-21T14:20:11Z</time>
      </trkpt>
      <trkpt lat="49.76648" lon="2.12621">
        <ele>147.2</ele>
        <time>2023-06-21T14:20:13Z</time>
      </trkpt>
      <trkpt lat="49.76649" lon="2.12623">
        <ele>147.2</ele>
        <time>2023-06-21T14:20:14Z</time>
      </trkpt>
      <trkpt lat="49.7665" lon="2.12625">
        <ele>147.1</ele>
        <time>2023-06-21T14:20:15Z</time>
      </trkpt>
      <trkpt lat="49.76651" lon="2.12627">
        <ele>147</ele>
        <time>2023-06-21T14:20:16Z</time>
      </trkpt>
      <trkpt lat="49.76652" lon="2.12629">
        <ele>146.9</ele>
        <time>2023-06-21T14:20:18Z</time>
      </trkpt>
      <trkpt lat="49.76652" lon="2.1263">
        <ele>146.9</ele>
        <time>2023-06-21T14:20:19Z</time>
      </trkpt>
      <trkpt lat="49.76653" lon="2.12633">
        <ele>146.8</ele>
        <time>2023-06-21T14:20:20Z</time>
      </trkpt>
      <trkpt lat="49.76653" lon="2.12634">
        <ele>146.8</ele>
        <time>2023-06-21T14:20:21Z</time>
      </trkpt>
      <trkpt lat="49.76653" lon="2.12635">
        <ele>146.8</ele>
        <time>2023-06-21T14:20:22Z</time>
      </trkpt>
      <trkpt lat="49.76653" lon="2.12636">
        <ele>146.8</ele>
        <time>2023-06-21T14:20:23Z</time>
      </trkpt>
      <trkpt lat="49.76653" lon="2.12638">
        <ele>146.7</ele>
        <time>2023-06-21T14:20:24Z</time>
      </trkpt>
      <trkpt lat="49.76653" lon="2.1264">
        <ele>146.7</ele>
        <time>2023-06-21T14:20:25Z</time>
      </trkpt>
      <trkpt lat="49.76654" lon="2.12642">
        <ele>146.6</ele>
        <time>2023-06-21T14:20:27Z</time>
      </trkpt>
      <trkpt lat="49.76655" lon="2.12644">
        <ele>146.6</ele>
        <time>2023-06-21T14:20:28Z</time>
      </trkpt>
      <trkpt lat="49.76656" lon="2.12646">
        <ele>146.5</ele>
        <time>2023-06-21T14:20:29Z</time>
      </trkpt>
      <trkpt lat="49.76657" lon="2.12648">
        <ele>146.5</ele>
        <time>2023-06-21T14:20:30Z</time>
      </trkpt>
      <trkpt lat="49.76659" lon="2.12653">
        <ele>146.3</ele>
        <time>2023-06-21T14:20:32Z</time>
      </trkpt>
      <trkpt lat="49.76661" lon="2.12657">
        <ele>146.2</ele>
        <time>2023-06-21T14:20:33Z</time>
      </trkpt>
      <trkpt lat="49.76661" lon="2.12659">
        <ele>146.2</ele>
        <time>2023-06-21T14:20:34Z</time>
      </trkpt>
      <trkpt lat="49.76663" lon="2.12662">
        <ele>146.2</ele>
        <time>2023-06-21T14:20:36Z</time>
      </trkpt>
      <trkpt lat="49.76663" lon="2.12665">
        <ele>146.1</ele>
        <time>2023-06-21T14:20:38Z</time>
      </trkpt>
      <trkpt lat="49.76664" lon="2.12667">
        <ele>146.1</ele>
        <time>2023-06-21T14:20:39Z</time>
      </trkpt>
      <trkpt lat="49.76664" lon="2.12671">
        <ele>146</ele>
        <time>2023-06-21T14:20:40Z</time>
      </trkpt>
      <trkpt lat="49.76665" lon="2.12673">
        <ele>146</ele>
        <time>2023-06-21T14:20:41Z</time>
      </trkpt>
      <trkpt lat="49.76665" lon="2.12677">
        <ele>145.9</ele>
        <time>2023-06-21T14:20:42Z</time>
      </trkpt>
      <trkpt lat="49.76665" lon="2.12678">
        <ele>145.9</ele>
        <time>2023-06-21T14:20:43Z</time>
      </trkpt>
      <trkpt lat="49.76666" lon="2.12681">
        <ele>145.9</ele>
        <time>2023-06-21T14:20:44Z</time>
      </trkpt>
      <trkpt lat="49.76666" lon="2.12683">
        <ele>145.9</ele>
        <time>2023-06-21T14:20:45Z</time>
      </trkpt>
      <trkpt lat="49.76665" lon="2.12685">
        <ele>145.8</ele>
        <time>2023-06-21T14:20:47Z</time>
      </trkpt>
      <trkpt lat="49.76665" lon="2.12685">
        <ele>145.8</ele>
        <time>2023-06-21T14:20:48Z</time>
      </trkpt>
      <trkpt lat="49.76665" lon="2.12685">
        <ele>145.8</ele>
        <time>2023-06-21T14:20:49Z</time>
      </trkpt>
      <trkpt lat="49.76664" lon="2.12684">
        <ele>145.8</ele>
        <time>2023-06-21T14:20:50Z</time>
      </trkpt>
      <trkpt lat="49.76664" lon="2.12685">
        <ele>145.8</ele>
        <time>2023-06-21T14:20:51Z</time>
      </trkpt>
      <trkpt lat="49.76664" lon="2.12687">
        <ele>145.8</ele>
        <time>2023-06-21T14:20:52Z</time>
      </trkpt>
      <trkpt lat="49.76664" lon="2.1269">
        <ele>145.7</ele>
        <time>2023-06-21T14:20:54Z</time>
      </trkpt>
      <trkpt lat="49.76663" lon="2.12692">
        <ele>145.7</ele>
        <time>2023-06-21T14:20:56Z</time>
      </trkpt>
      <trkpt lat="49.76663" lon="2.12695">
        <ele>145.7</ele>
        <time>2023-06-21T14:20:57Z</time>
      </trkpt>
      <trkpt lat="49.76663" lon="2.12697">
        <ele>145.7</ele>
        <time>2023-06-21T14:20:58Z</time>
      </trkpt>
      <trkpt lat="49.76663" lon="2.12699">
        <ele>145.6</ele>
        <time>2023-06-21T14:20:59Z</time>
      </trkpt>
      <trkpt lat="49.76662" lon="2.12702">
        <ele>145.6</ele>
        <time>2023-06-21T14:21:00Z</time>
      </trkpt>
      <trkpt lat="49.76662" lon="2.12703">
        <ele>145.6</ele>
        <time>2023-06-21T14:21:01Z</time>
      </trkpt>
      <trkpt lat="49.76662" lon="2.12705">
        <ele>145.6</ele>
        <time>2023-06-21T14:21:03Z</time>
      </trkpt>
      <trkpt lat="49.76661" lon="2.12707">
        <ele>145.6</ele>
        <time>2023-06-21T14:21:04Z</time>
      </trkpt>
      <trkpt lat="49.76661" lon="2.12708">
        <ele>145.6</ele>
        <time>2023-06-21T14:21:05Z</time>
      </trkpt>
      <trkpt lat="49.76661" lon="2.1271">
        <ele>145.5</ele>
        <time>2023-06-21T14:21:06Z</time>
      </trkpt>
      <trkpt lat="49.76661" lon="2.12712">
        <ele>145.5</ele>
        <time>2023-06-21T14:21:07Z</time>
      </trkpt>
      <trkpt lat="49.76661" lon="2.12716">
        <ele>145.5</ele>
        <time>2023-06-21T14:21:08Z</time>
      </trkpt>
      <trkpt lat="49.76661" lon="2.12718">
        <ele>145.5</ele>
        <time>2023-06-21T14:21:10Z</time>
      </trkpt>
      <trkpt lat="49.7666" lon="2.1272">
        <ele>145.5</ele>
        <time>2023-06-21T14:21:12Z</time>
      </trkpt>
      <trkpt lat="49.7666" lon="2.12721">
        <ele>145.4</ele>
        <time>2023-06-21T14:21:13Z</time>
      </trkpt>
      <trkpt lat="49.7666" lon="2.12723">
        <ele>145.4</ele>
        <time>2023-06-21T14:21:14Z</time>
      </trkpt>
      <trkpt lat="49.76659" lon="2.12725">
        <ele>145.4</ele>
        <time>2023-06-21T14:21:15Z</time>
      </trkpt>
      <trkpt lat="49.76659" lon="2.12728">
        <ele>145.4</ele>
        <time>2023-06-21T14:21:16Z</time>
      </trkpt>
      <trkpt lat="49.76658" lon="2.1273">
        <ele>145.4</ele>
        <time>2023-06-21T14:21:17Z</time>
      </trkpt>
      <trkpt lat="49.76658" lon="2.12733">
        <ele>145.3</ele>
        <time>2023-06-21T14:21:19Z</time>
      </trkpt>
      <trkpt lat="49.76658" lon="2.12735">
        <ele>145.3</ele>
        <time>2023-06-21T14:21:20Z</time>
      </trkpt>
      <trkpt lat="49.76657" lon="2.12737">
        <ele>145.3</ele>
        <time>2023-06-21T14:21:21Z</time>
      </trkpt>
      <trkpt lat="49.76657" lon="2.12738">
        <ele>145.3</ele>
        <time>2023-06-21T14:21:22Z</time>
      </trkpt>
      <trkpt lat="49.76657" lon="2.12739">
        <ele>145.3</ele>
        <time>2023-06-21T14:21:23Z</time>
      </trkpt>
      <trkpt lat="49.76657" lon="2.1274">
        <ele>145.3</ele>
        <time>2023-06-21T14:21:24Z</time>
      </trkpt>
      <trkpt lat="49.76657" lon="2.12743">
        <ele>145.3</ele>
        <time>2023-06-21T14:21:25Z</time>
      </trkpt>
      <trkpt lat="49.76656" lon="2.12745">
        <ele>145.2</ele>
        <time>2023-06-21T14:21:26Z</time>
      </trkpt>
      <trkpt lat="49.76656" lon="2.12747">
        <ele>145.2</ele>
        <time>2023-06-21T14:21:27Z</time>
      </trkpt>
      <trkpt lat="49.76656" lon="2.12748">
        <ele>145.2</ele>
        <time>2023-06-21T14:21:29Z</time>
      </trkpt>
      <trkpt lat="49.76656" lon="2.1275">
        <ele>145.2</ele>
        <time>2023-06-21T14:21:30Z</time>
      </trkpt>
      <trkpt lat="49.76656" lon="2.12752">
        <ele>145.2</ele>
        <time>2023-06-21T14:21:31Z</time>
      </trkpt>
      <trkpt lat="49.76656" lon="2.12754">
        <ele>145.2</ele>
        <time>2023-06-21T14:21:32Z</time>
      </trkpt>
      <trkpt lat="49.76656" lon="2.12756">
        <ele>145.1</ele>
        <time>2023-06-21T14:21:33Z</time>
      </trkpt>
      <trkpt lat="49.76656" lon="2.1276">
        <ele>145.1</ele>
        <time>2023-06-21T14:21:34Z</time>
      </trkpt>
      <trkpt lat="49.76656" lon="2.12761">
        <ele>145.1</ele>
        <time>2023-06-21T14:21:36Z</time>
      </trkpt>
      <trkpt lat="49.76655" lon="2.12762">
        <ele>145.1</ele>
        <time>2023-06-21T14:21:37Z</time>
      </trkpt>
      <trkpt lat="49.76655" lon="2.12765">
        <ele>145.1</ele>
        <time>2023-06-21T14:21:38Z</time>
      </trkpt>
      <trkpt lat="49.76655" lon="2.12766">
        <ele>145.1</ele>
        <time>2023-06-21T14:21:39Z</time>
      </trkpt>
      <trkpt lat="49.76655" lon="2.12768">
        <ele>145.1</ele>
        <time>2023-06-21T14:21:40Z</time>
      </trkpt>
      <trkpt lat="49.76655" lon="2.12769">
        <ele>145</ele>
        <time>2023-06-21T14:21:41Z</time>
      </trkpt>
      <trkpt lat="49.76655" lon="2.12771">
        <ele>145</ele>
        <time>2023-06-21T14:21:42Z</time>
      </trkpt>
      <trkpt lat="49.76656" lon="2.12773">
        <ele>145</ele>
        <time>2023-06-21T14:21:43Z</time>
      </trkpt>
      <trkpt lat="49.76657" lon="2.12776">
        <ele>145</ele>
        <time>2023-06-21T14:21:44Z</time>
      </trkpt>
      <trkpt lat="49.76657" lon="2.12777">
        <ele>145</ele>
        <time>2023-06-21T14:21:46Z</time>
      </trkpt>
      <trkpt lat="49.76658" lon="2.12778">
        <ele>145</ele>
        <time>2023-06-21T14:21:47Z</time>
      </trkpt>
      <trkpt lat="49.76658" lon="2.1278">
        <ele>145</ele>
        <time>2023-06-21T14:21:48Z</time>
      </trkpt>
      <trkpt lat="49.76659" lon="2.12783">
        <ele>144.9</ele>
        <time>2023-06-21T14:21:50Z</time>
      </trkpt>
      <trkpt lat="49.76659" lon="2.12786">
        <ele>144.9</ele>
        <time>2023-06-21T14:21:51Z</time>
      </trkpt>
      <trkpt lat="49.7666" lon="2.12788">
        <ele>144.9</ele>
        <time>2023-06-21T14:21:52Z</time>
      </trkpt>
      <trkpt lat="49.7666" lon="2.12789">
        <ele>144.9</ele>
        <time>2023-06-21T14:21:53Z</time>
      </trkpt>
      <trkpt lat="49.76661" lon="2.12791">
        <ele>144.9</ele>
        <time>2023-06-21T14:21:54Z</time>
      </trkpt>
      <trkpt lat="49.76661" lon="2.12793">
        <ele>144.8</ele>
        <time>2023-06-21T14:21:55Z</time>
      </trkpt>
      <trkpt lat="49.76662" lon="2.12795">
        <ele>144.8</ele>
        <time>2023-06-21T14:21:57Z</time>
      </trkpt>
      <trkpt lat="49.76662" lon="2.12797">
        <ele>144.8</ele>
        <time>2023-06-21T14:21:58Z</time>
      </trkpt>
      <trkpt lat="49.76663" lon="2.12802">
        <ele>144.8</ele>
        <time>2023-06-21T14:22:00Z</time>
      </trkpt>
      <trkpt lat="49.76663" lon="2.12803">
        <ele>144.7</ele>
        <time>2023-06-21T14:22:01Z</time>
      </trkpt>
      <trkpt lat="49.76664" lon="2.12805">
        <ele>144.7</ele>
        <time>2023-06-21T14:22:02Z</time>
      </trkpt>
      <trkpt lat="49.76664" lon="2.12807">
        <ele>144.7</ele>
        <time>2023-06-21T14:22:03Z</time>
      </trkpt>
      <trkpt lat="49.76665" lon="2.12809">
        <ele>144.7</ele>
        <time>2023-06-21T14:22:04Z</time>
      </trkpt>
      <trkpt lat="49.76665" lon="2.12811">
        <ele>144.6</ele>
        <time>2023-06-21T14:22:05Z</time>
      </trkpt>
      <trkpt lat="49.76666" lon="2.12813">
        <ele>144.6</ele>
        <time>2023-06-21T14:22:06Z</time>
      </trkpt>
      <trkpt lat="49.76667" lon="2.12815">
        <ele>144.6</ele>
        <time>2023-06-21T14:22:08Z</time>
      </trkpt>
      <trkpt lat="49.76668" lon="2.12817">
        <ele>144.6</ele>
        <time>2023-06-21T14:22:09Z</time>
      </trkpt>
      <trkpt lat="49.76669" lon="2.12819">
        <ele>144.5</ele>
        <time>2023-06-21T14:22:10Z</time>
      </trkpt>
      <trkpt lat="49.7667" lon="2.12823">
        <ele>144.5</ele>
        <time>2023-06-21T14:22:12Z</time>
      </trkpt>
      <trkpt lat="49.7667" lon="2.12825">
        <ele>144.5</ele>
        <time>2023-06-21T14:22:13Z</time>
      </trkpt>
      <trkpt lat="49.76671" lon="2.12827">
        <ele>144.5</ele>
        <time>2023-06-21T14:22:14Z</time>
      </trkpt>
      <trkpt lat="49.76671" lon="2.1283">
        <ele>144.4</ele>
        <time>2023-06-21T14:22:15Z</time>
      </trkpt>
      <trkpt lat="49.76672" lon="2.12834">
        <ele>144.4</ele>
        <time>2023-06-21T14:22:16Z</time>
      </trkpt>
      <trkpt lat="49.76672" lon="2.12836">
        <ele>144.4</ele>
        <time>2023-06-21T14:22:18Z</time>
      </trkpt>
      <trkpt lat="49.76673" lon="2.12838">
        <ele>144.3</ele>
        <time>2023-06-21T14:22:19Z</time>
      </trkpt>
      <trkpt lat="49.76673" lon="2.1284">
        <ele>144.3</ele>
        <time>2023-06-21T14:22:20Z</time>
      </trkpt>
      <trkpt lat="49.76673" lon="2.12842">
        <ele>144.3</ele>
        <time>2023-06-21T14:22:22Z</time>
      </trkpt>
      <trkpt lat="49.76674" lon="2.12844">
        <ele>144.3</ele>
        <time>2023-06-21T14:22:23Z</time>
      </trkpt>
      <trkpt lat="49.76674" lon="2.12848">
        <ele>144.2</ele>
        <time>2023-06-21T14:22:24Z</time>
      </trkpt>
      <trkpt lat="49.76674" lon="2.12849">
        <ele>144.2</ele>
        <time>2023-06-21T14:22:25Z</time>
      </trkpt>
      <trkpt lat="49.76674" lon="2.1285">
        <ele>144.2</ele>
        <time>2023-06-21T14:22:26Z</time>
      </trkpt>
      <trkpt lat="49.76674" lon="2.12852">
        <ele>144.2</ele>
        <time>2023-06-21T14:22:27Z</time>
      </trkpt>
      <trkpt lat="49.76675" lon="2.12854">
        <ele>144.2</ele>
        <time>2023-06-21T14:22:28Z</time>
      </trkpt>
      <trkpt lat="49.76675" lon="2.12855">
        <ele>144.2</ele>
        <time>2023-06-21T14:22:29Z</time>
      </trkpt>
      <trkpt lat="49.76675" lon="2.12855">
        <ele>144.2</ele>
        <time>2023-06-21T14:22:31Z</time>
      </trkpt>
      <trkpt lat="49.76676" lon="2.12856">
        <ele>144.1</ele>
        <time>2023-06-21T14:22:32Z</time>
      </trkpt>
      <trkpt lat="49.76677" lon="2.12858">
        <ele>144.1</ele>
        <time>2023-06-21T14:22:33Z</time>
      </trkpt>
      <trkpt lat="49.76678" lon="2.12862">
        <ele>144.1</ele>
        <time>2023-06-21T14:22:35Z</time>
      </trkpt>
      <trkpt lat="49.76679" lon="2.12863">
        <ele>144.1</ele>
        <time>2023-06-21T14:22:37Z</time>
      </trkpt>
      <trkpt lat="49.76679" lon="2.12865">
        <ele>144</ele>
        <time>2023-06-21T14:22:38Z</time>
      </trkpt>
      <trkpt lat="49.7668" lon="2.12866">
        <ele>144</ele>
        <time>2023-06-21T14:22:39Z</time>
      </trkpt>
      <trkpt lat="49.7668" lon="2.12869">
        <ele>144</ele>
        <time>2023-06-21T14:22:40Z</time>
      </trkpt>
      <trkpt lat="49.76681" lon="2.12871">
        <ele>144</ele>
        <time>2023-06-21T14:22:41Z</time>
      </trkpt>
      <trkpt lat="49.76682" lon="2.12874">
        <ele>143.9</ele>
        <time>2023-06-21T14:22:42Z</time>
      </trkpt>
      <trkpt lat="49.76683" lon="2.12876">
        <ele>143.9</ele>
        <time>2023-06-21T14:22:43Z</time>
      </trkpt>
      <trkpt lat="49.76683" lon="2.12878">
        <ele>143.9</ele>
        <time>2023-06-21T14:22:44Z</time>
      </trkpt>
      <trkpt lat="49.76684" lon="2.12879">
        <ele>143.9</ele>
        <time>2023-06-21T14:22:46Z</time>
      </trkpt>
      <trkpt lat="49.76684" lon="2.12881">
        <ele>143.8</ele>
        <time>2023-06-21T14:22:47Z</time>
      </trkpt>
      <trkpt lat="49.76685" lon="2.12885">
        <ele>143.8</ele>
        <time>2023-06-21T14:22:49Z</time>
      </trkpt>
      <trkpt lat="49.76686" lon="2.12888">
        <ele>143.8</ele>
        <time>2023-06-21T14:22:50Z</time>
      </trkpt>
      <trkpt lat="49.76686" lon="2.12889">
        <ele>143.7</ele>
        <time>2023-06-21T14:22:51Z</time>
      </trkpt>
      <trkpt lat="49.76686" lon="2.12891">
        <ele>143.7</ele>
        <time>2023-06-21T14:22:52Z</time>
      </trkpt>
      <trkpt lat="49.76687" lon="2.12892">
        <ele>143.7</ele>
        <time>2023-06-21T14:22:53Z</time>
      </trkpt>
      <trkpt lat="49.76687" lon="2.12894">
        <ele>143.7</ele>
        <time>2023-06-21T14:22:54Z</time>
      </trkpt>
      <trkpt lat="49.76688" lon="2.12896">
        <ele>143.7</ele>
        <time>2023-06-21T14:22:56Z</time>
      </trkpt>
      <trkpt lat="49.76688" lon="2.12899">
        <ele>143.6</ele>
        <time>2023-06-21T14:22:57Z</time>
      </trkpt>
      <trkpt lat="49.76689" lon="2.12901">
        <ele>143.6</ele>
        <time>2023-06-21T14:22:58Z</time>
      </trkpt>
      <trkpt lat="49.76689" lon="2.12902">
        <ele>143.6</ele>
        <time>2023-06-21T14:22:59Z</time>
      </trkpt>
      <trkpt lat="49.7669" lon="2.12904">
        <ele>143.6</ele>
        <time>2023-06-21T14:23:00Z</time>
      </trkpt>
      <trkpt lat="49.7669" lon="2.12906">
        <ele>143.5</ele>
        <time>2023-06-21T14:23:01Z</time>
      </trkpt>
      <trkpt lat="49.76691" lon="2.12909">
        <ele>143.5</ele>
        <time>2023-06-21T14:23:03Z</time>
      </trkpt>
      <trkpt lat="49.76692" lon="2.1291">
        <ele>143.4</ele>
        <time>2023-06-21T14:23:04Z</time>
      </trkpt>
      <trkpt lat="49.76693" lon="2.12914">
        <ele>143.4</ele>
        <time>2023-06-21T14:23:05Z</time>
      </trkpt>
      <trkpt lat="49.76694" lon="2.12915">
        <ele>143.4</ele>
        <time>2023-06-21T14:23:06Z</time>
      </trkpt>
      <trkpt lat="49.76694" lon="2.12916">
        <ele>143.3</ele>
        <time>2023-06-21T14:23:07Z</time>
      </trkpt>
      <trkpt lat="49.76695" lon="2.12918">
        <ele>143.3</ele>
        <time>2023-06-21T14:23:08Z</time>
      </trkpt>
      <trkpt lat="49.76696" lon="2.12921">
        <ele>143.2</ele>
        <time>2023-06-21T14:23:09Z</time>
      </trkpt>
      <trkpt lat="49.76697" lon="2.12923">
        <ele>143.2</ele>
        <time>2023-06-21T14:23:11Z</time>
      </trkpt>
      <trkpt lat="49.76697" lon="2.12925">
        <ele>143.1</ele>
        <time>2023-06-21T14:23:12Z</time>
      </trkpt>
      <trkpt lat="49.76698" lon="2.12928">
        <ele>143.1</ele>
        <time>2023-06-21T14:23:13Z</time>
      </trkpt>
      <trkpt lat="49.76699" lon="2.1293">
        <ele>143</ele>
        <time>2023-06-21T14:23:14Z</time>
      </trkpt>
      <trkpt lat="49.767" lon="2.12933">
        <ele>143</ele>
        <time>2023-06-21T14:23:15Z</time>
      </trkpt>
      <trkpt lat="49.76701" lon="2.12935">
        <ele>142.9</ele>
        <time>2023-06-21T14:23:17Z</time>
      </trkpt>
      <trkpt lat="49.76702" lon="2.12937">
        <ele>142.8</ele>
        <time>2023-06-21T14:23:18Z</time>
      </trkpt>
      <trkpt lat="49.76702" lon="2.12939">
        <ele>142.8</ele>
        <time>2023-06-21T14:23:19Z</time>
      </trkpt>
      <trkpt lat="49.76703" lon="2.1294">
        <ele>142.8</ele>
        <time>2023-06-21T14:23:20Z</time>
      </trkpt>
      <trkpt lat="49.76704" lon="2.12942">
        <ele>142.7</ele>
        <time>2023-06-21T14:23:21Z</time>
      </trkpt>
      <trkpt lat="49.76706" lon="2.12945">
        <ele>142.6</ele>
        <time>2023-06-21T14:23:23Z</time>
      </trkpt>
      <trkpt lat="49.76707" lon="2.12946">
        <ele>142.6</ele>
        <time>2023-06-21T14:23:24Z</time>
      </trkpt>
      <trkpt lat="49.76709" lon="2.12947">
        <ele>142.5</ele>
        <time>2023-06-21T14:23:25Z</time>
      </trkpt>
      <trkpt lat="49.76711" lon="2.1295">
        <ele>142.4</ele>
        <time>2023-06-21T14:23:27Z</time>
      </trkpt>
      <trkpt lat="49.76713" lon="2.12951">
        <ele>142.4</ele>
        <time>2023-06-21T14:23:28Z</time>
      </trkpt>
      <trkpt lat="49.76714" lon="2.12952">
        <ele>142.3</ele>
        <time>2023-06-21T14:23:29Z</time>
      </trkpt>
      <trkpt lat="49.76716" lon="2.12954">
        <ele>142.3</ele>
        <time>2023-06-21T14:23:30Z</time>
      </trkpt>
      <trkpt lat="49.76717" lon="2.12955">
        <ele>142.2</ele>
        <time>2023-06-21T14:23:31Z</time>
      </trkpt>
      <trkpt lat="49.76718" lon="2.12957">
        <ele>142.2</ele>
        <time>2023-06-21T14:23:32Z</time>
      </trkpt>
      <trkpt lat="49.76719" lon="2.12959">
        <ele>142.1</ele>
        <time>2023-06-21T14:23:34Z</time>
      </trkpt>
      <trkpt lat="49.7672" lon="2.1296">
        <ele>142.1</ele>
        <time>2023-06-21T14:23:35Z</time>
      </trkpt>
      <trkpt lat="49.76721" lon="2.12961">
        <ele>142</ele>
        <time>2023-06-21T14:23:36Z</time>
      </trkpt>
      <trkpt lat="49.76721" lon="2.12962">
        <ele>142</ele>
        <time>2023-06-21T14:23:37Z</time>
      </trkpt>
      <trkpt lat="49.76722" lon="2.12965">
        <ele>142</ele>
        <time>2023-06-21T14:23:39Z</time>
      </trkpt>
      <trkpt lat="49.76723" lon="2.12965">
        <ele>141.9</ele>
        <time>2023-06-21T14:23:40Z</time>
      </trkpt>
      <trkpt lat="49.76725" lon="2.12968">
        <ele>141.9</ele>
        <time>2023-06-21T14:23:41Z</time>
      </trkpt>
      <trkpt lat="49.76725" lon="2.12969">
        <ele>141.8</ele>
        <time>2023-06-21T14:23:42Z</time>
      </trkpt>
      <trkpt lat="49.76726" lon="2.1297">
        <ele>141.8</ele>
        <time>2023-06-21T14:23:43Z</time>
      </trkpt>
      <trkpt lat="49.76727" lon="2.12973">
        <ele>141.8</ele>
        <time>2023-06-21T14:23:44Z</time>
      </trkpt>
      <trkpt lat="49.76728" lon="2.12975">
        <ele>141.7</ele>
        <time>2023-06-21T14:23:46Z</time>
      </trkpt>
      <trkpt lat="49.76729" lon="2.12977">
        <ele>141.7</ele>
        <time>2023-06-21T14:23:47Z</time>
      </trkpt>
      <trkpt lat="49.7673" lon="2.12979">
        <ele>141.6</ele>
        <time>2023-06-21T14:23:48Z</time>
      </trkpt>
      <trkpt lat="49.7673" lon="2.12981">
        <ele>141.6</ele>
        <time>2023-06-21T14:23:49Z</time>
      </trkpt>
      <trkpt lat="49.76731" lon="2.12983">
        <ele>141.6</ele>
        <time>2023-06-21T14:23:50Z</time>
      </trkpt>
      <trkpt lat="49.76732" lon="2.12984">
        <ele>141.5</ele>
        <time>2023-06-21T14:23:51Z</time>
      </trkpt>
      <trkpt lat="49.76733" lon="2.12986">
        <ele>141.5</ele>
        <time>2023-06-21T14:23:52Z</time>
      </trkpt>
      <trkpt lat="49.76735" lon="2.1299">
        <ele>141.4</ele>
        <time>2023-06-21T14:23:54Z</time>
      </trkpt>
      <trkpt lat="49.76736" lon="2.12991">
        <ele>141.4</ele>
        <time>2023-06-21T14:23:55Z</time>
      </trkpt>
      <trkpt lat="49.76737" lon="2.12994">
        <ele>141.4</ele>
        <time>2023-06-21T14:23:56Z</time>
      </trkpt>
      <trkpt lat="49.76739" lon="2.12998">
        <ele>141.3</ele>
        <time>2023-06-21T14:23:58Z</time>
      </trkpt>
      <trkpt lat="49.7674" lon="2.13">
        <ele>141.3</ele>
        <time>2023-06-21T14:23:59Z</time>
      </trkpt>
      <trkpt lat="49.76743" lon="2.13003">
        <ele>141.2</ele>
        <time>2023-06-21T14:24:01Z</time>
      </trkpt>
      <trkpt lat="49.76743" lon="2.13004">
        <ele>141.2</ele>
        <time>2023-06-21T14:24:02Z</time>
      </trkpt>
      <trkpt lat="49.76745" lon="2.13005">
        <ele>141.2</ele>
        <time>2023-06-21T14:24:03Z</time>
      </trkpt>
      <trkpt lat="49.76746" lon="2.13006">
        <ele>141.2</ele>
        <time>2023-06-21T14:24:04Z</time>
      </trkpt>
      <trkpt lat="49.76747" lon="2.13009">
        <ele>141.2</ele>
        <time>2023-06-21T14:24:05Z</time>
      </trkpt>
      <trkpt lat="49.76748" lon="2.1301">
        <ele>141.1</ele>
        <time>2023-06-21T14:24:06Z</time>
      </trkpt>
      <trkpt lat="49.76748" lon="2.13011">
        <ele>141.1</ele>
        <time>2023-06-21T14:24:08Z</time>
      </trkpt>
      <trkpt lat="49.76749" lon="2.13013">
        <ele>141.1</ele>
        <time>2023-06-21T14:24:09Z</time>
      </trkpt>
      <trkpt lat="49.76749" lon="2.13014">
        <ele>141.1</ele>
        <time>2023-06-21T14:24:11Z</time>
      </trkpt>
      <trkpt lat="49.7675" lon="2.13015">
        <ele>141.1</ele>
        <time>2023-06-21T14:24:12Z</time>
      </trkpt>
      <trkpt lat="49.76751" lon="2.13018">
        <ele>141.1</ele>
        <time>2023-06-21T14:24:13Z</time>
      </trkpt>
      <trkpt lat="49.76751" lon="2.1302">
        <ele>141.1</ele>
        <time>2023-06-21T14:24:14Z</time>
      </trkpt>
      <trkpt lat="49.76751" lon="2.13021">
        <ele>141</ele>
        <time>2023-06-21T14:24:15Z</time>
      </trkpt>
      <trkpt lat="49.76751" lon="2.13026">
        <ele>141</ele>
        <time>2023-06-21T14:24:17Z</time>
      </trkpt>
      <trkpt lat="49.76751" lon="2.13027">
        <ele>141</ele>
        <time>2023-06-21T14:24:18Z</time>
      </trkpt>
      <trkpt lat="49.76751" lon="2.13028">
        <ele>141</ele>
        <time>2023-06-21T14:24:19Z</time>
      </trkpt>
      <trkpt lat="49.76752" lon="2.1303">
        <ele>141</ele>
        <time>2023-06-21T14:24:20Z</time>
      </trkpt>
      <trkpt lat="49.76752" lon="2.13032">
        <ele>141</ele>
        <time>2023-06-21T14:24:21Z</time>
      </trkpt>
      <trkpt lat="49.76752" lon="2.13033">
        <ele>141</ele>
        <time>2023-06-21T14:24:23Z</time>
      </trkpt>
      <trkpt lat="49.76752" lon="2.13035">
        <ele>141</ele>
        <time>2023-06-21T14:24:24Z</time>
      </trkpt>
      <trkpt lat="49.76752" lon="2.13036">
        <ele>141</ele>
        <time>2023-06-21T14:24:25Z</time>
      </trkpt>
      <trkpt lat="49.76751" lon="2.13037">
        <ele>141</ele>
        <time>2023-06-21T14:24:26Z</time>
      </trkpt>
      <trkpt lat="49.76751" lon="2.13039">
        <ele>141</ele>
        <time>2023-06-21T14:24:27Z</time>
      </trkpt>
      <trkpt lat="49.76751" lon="2.13041">
        <ele>141</ele>
        <time>2023-06-21T14:24:28Z</time>
      </trkpt>
      <trkpt lat="49.7675" lon="2.13044">
        <ele>141</ele>
        <time>2023-06-21T14:24:30Z</time>
      </trkpt>
      <trkpt lat="49.76749" lon="2.13047">
        <ele>141</ele>
        <time>2023-06-21T14:24:31Z</time>
      </trkpt>
      <trkpt lat="49.76749" lon="2.13048">
        <ele>141</ele>
        <time>2023-06-21T14:24:32Z</time>
      </trkpt>
      <trkpt lat="49.76749" lon="2.13049">
        <ele>141</ele>
        <time>2023-06-21T14:24:33Z</time>
      </trkpt>
      <trkpt lat="49.76748" lon="2.13052">
        <ele>141</ele>
        <time>2023-06-21T14:24:34Z</time>
      </trkpt>
      <trkpt lat="49.76747" lon="2.13053">
        <ele>141</ele>
        <time>2023-06-21T14:24:35Z</time>
      </trkpt>
      <trkpt lat="49.76746" lon="2.13053">
        <ele>141</ele>
        <time>2023-06-21T14:24:36Z</time>
      </trkpt>
      <trkpt lat="49.76746" lon="2.13054">
        <ele>141</ele>
        <time>2023-06-21T14:24:37Z</time>
      </trkpt>
      <trkpt lat="49.76744" lon="2.13055">
        <ele>141.1</ele>
        <time>2023-06-21T14:24:39Z</time>
      </trkpt>
      <trkpt lat="49.76743" lon="2.13055">
        <ele>141.1</ele>
        <time>2023-06-21T14:24:40Z</time>
      </trkpt>
      <trkpt lat="49.76739" lon="2.13054">
        <ele>141.1</ele>
        <time>2023-06-21T14:24:42Z</time>
      </trkpt>
      <trkpt lat="49.76738" lon="2.13053">
        <ele>141.1</ele>
        <time>2023-06-21T14:24:43Z</time>
      </trkpt>
      <trkpt lat="49.76736" lon="2.13054">
        <ele>141.1</ele>
        <time>2023-06-21T14:24:44Z</time>
      </trkpt>
      <trkpt lat="49.76735" lon="2.13055">
        <ele>141.1</ele>
        <time>2023-06-21T14:24:45Z</time>
      </trkpt>
      <trkpt lat="49.76733" lon="2.13056">
        <ele>141.1</ele>
        <time>2023-06-21T14:24:46Z</time>
      </trkpt>
      <trkpt lat="49.76731" lon="2.13057">
        <ele>141.1</ele>
        <time>2023-06-21T14:24:47Z</time>
      </trkpt>
      <trkpt lat="49.7673" lon="2.13058">
        <ele>141.1</ele>
        <time>2023-06-21T14:24:48Z</time>
      </trkpt>
      <trkpt lat="49.76728" lon="2.1306">
        <ele>141.1</ele>
        <time>2023-06-21T14:24:50Z</time>
      </trkpt>
      <trkpt lat="49.76727" lon="2.13061">
        <ele>141.1</ele>
        <time>2023-06-21T14:24:51Z</time>
      </trkpt>
      <trkpt lat="49.76726" lon="2.13063">
        <ele>141</ele>
        <time>2023-06-21T14:24:52Z</time>
      </trkpt>
      <trkpt lat="49.76725" lon="2.13065">
        <ele>141</ele>
        <time>2023-06-21T14:24:53Z</time>
      </trkpt>
      <trkpt lat="49.76723" lon="2.13068">
        <ele>141</ele>
        <time>2023-06-21T14:24:55Z</time>
      </trkpt>
      <trkpt lat="49.76722" lon="2.1307">
        <ele>141</ele>
        <time>2023-06-21T14:24:56Z</time>
      </trkpt>
      <trkpt lat="49.76722" lon="2.13072">
        <ele>141</ele>
        <time>2023-06-21T14:24:57Z</time>
      </trkpt>
      <trkpt lat="49.76721" lon="2.13074">
        <ele>140.9</ele>
        <time>2023-06-21T14:24:58Z</time>
      </trkpt>
      <trkpt lat="49.7672" lon="2.13076">
        <ele>140.9</ele>
        <time>2023-06-21T14:24:59Z</time>
      </trkpt>
      <trkpt lat="49.76719" lon="2.13078">
        <ele>140.9</ele>
        <time>2023-06-21T14:25:01Z</time>
      </trkpt>
      <trkpt lat="49.76718" lon="2.1308">
        <ele>140.9</ele>
        <time>2023-06-21T14:25:02Z</time>
      </trkpt>
      <trkpt lat="49.76717" lon="2.13083">
        <ele>140.8</ele>
        <time>2023-06-21T14:25:03Z</time>
      </trkpt>
      <trkpt lat="49.76717" lon="2.13085">
        <ele>140.8</ele>
        <time>2023-06-21T14:25:04Z</time>
      </trkpt>
      <trkpt lat="49.76716" lon="2.13087">
        <ele>140.7</ele>
        <time>2023-06-21T14:25:05Z</time>
      </trkpt>
      <trkpt lat="49.76716" lon="2.13088">
        <ele>140.7</ele>
        <time>2023-06-21T14:25:06Z</time>
      </trkpt>
      <trkpt lat="49.76717" lon="2.1309">
        <ele>140.7</ele>
        <time>2023-06-21T14:25:07Z</time>
      </trkpt>
      <trkpt lat="49.76717" lon="2.13092">
        <ele>140.6</ele>
        <time>2023-06-21T14:25:08Z</time>
      </trkpt>
      <trkpt lat="49.76717" lon="2.13094">
        <ele>140.6</ele>
        <time>2023-06-21T14:25:09Z</time>
      </trkpt>
      <trkpt lat="49.76717" lon="2.13096">
        <ele>140.6</ele>
        <time>2023-06-21T14:25:11Z</time>
      </trkpt>
      <trkpt lat="49.76717" lon="2.13097">
        <ele>140.5</ele>
        <time>2023-06-21T14:25:12Z</time>
      </trkpt>
      <trkpt lat="49.76718" lon="2.131">
        <ele>140.5</ele>
        <time>2023-06-21T14:25:13Z</time>
      </trkpt>
      <trkpt lat="49.76718" lon="2.13101">
        <ele>140.4</ele>
        <time>2023-06-21T14:25:15Z</time>
      </trkpt>
      <trkpt lat="49.76718" lon="2.13104">
        <ele>140.4</ele>
        <time>2023-06-21T14:25:16Z</time>
      </trkpt>
      <trkpt lat="49.76719" lon="2.13105">
        <ele>140.3</ele>
        <time>2023-06-21T14:25:17Z</time>
      </trkpt>
      <trkpt lat="49.76721" lon="2.1311">
        <ele>140.2</ele>
        <time>2023-06-21T14:25:18Z</time>
      </trkpt>
      <trkpt lat="49.76722" lon="2.13111">
        <ele>140.2</ele>
        <time>2023-06-21T14:25:19Z</time>
      </trkpt>
      <trkpt lat="49.76722" lon="2.13114">
        <ele>140.1</ele>
        <time>2023-06-21T14:25:20Z</time>
      </trkpt>
      <trkpt lat="49.76724" lon="2.13117">
        <ele>140</ele>
        <time>2023-06-21T14:25:22Z</time>
      </trkpt>
      <trkpt lat="49.76725" lon="2.13121">
        <ele>139.9</ele>
        <time>2023-06-21T14:25:23Z</time>
      </trkpt>
      <trkpt lat="49.76725" lon="2.13122">
        <ele>139.8</ele>
        <time>2023-06-21T14:25:24Z</time>
      </trkpt>
      <trkpt lat="49.76727" lon="2.13126">
        <ele>139.7</ele>
        <time>2023-06-21T14:25:26Z</time>
      </trkpt>
      <trkpt lat="49.76728" lon="2.13127">
        <ele>139.7</ele>
        <time>2023-06-21T14:25:27Z</time>
      </trkpt>
      <trkpt lat="49.76729" lon="2.13129">
        <ele>139.6</ele>
        <time>2023-06-21T14:25:28Z</time>
      </trkpt>
      <trkpt lat="49.7673" lon="2.13131">
        <ele>139.5</ele>
        <time>2023-06-21T14:25:29Z</time>
      </trkpt>
      <trkpt lat="49.76731" lon="2.13133">
        <ele>139.5</ele>
        <time>2023-06-21T14:25:31Z</time>
      </trkpt>
      <trkpt lat="49.76732" lon="2.13133">
        <ele>139.4</ele>
        <time>2023-06-21T14:25:32Z</time>
      </trkpt>
      <trkpt lat="49.76733" lon="2.13134">
        <ele>139.4</ele>
        <time>2023-06-21T14:25:33Z</time>
      </trkpt>
      <trkpt lat="49.76733" lon="2.13137">
        <ele>139.3</ele>
        <time>2023-06-21T14:25:34Z</time>
      </trkpt>
      <trkpt lat="49.76734" lon="2.13139">
        <ele>139.2</ele>
        <time>2023-06-21T14:25:35Z</time>
      </trkpt>
      <trkpt lat="49.76735" lon="2.13143">
        <ele>139.1</ele>
        <time>2023-06-21T14:25:36Z</time>
      </trkpt>
      <trkpt lat="49.76736" lon="2.13144">
        <ele>139.1</ele>
        <time>2023-06-21T14:25:38Z</time>
      </trkpt>
      <trkpt lat="49.76736" lon="2.13145">
        <ele>139</ele>
        <time>2023-06-21T14:25:39Z</time>
      </trkpt>
      <trkpt lat="49.76737" lon="2.13146">
        <ele>139</ele>
        <time>2023-06-21T14:25:40Z</time>
      </trkpt>
      <trkpt lat="49.76738" lon="2.13148">
        <ele>138.9</ele>
        <time>2023-06-21T14:25:41Z</time>
      </trkpt>
      <trkpt lat="49.76739" lon="2.1315">
        <ele>138.8</ele>
        <time>2023-06-21T14:25:42Z</time>
      </trkpt>
      <trkpt lat="49.76739" lon="2.13152">
        <ele>138.8</ele>
        <time>2023-06-21T14:25:43Z</time>
      </trkpt>
      <trkpt lat="49.7674" lon="2.13155">
        <ele>138.6</ele>
        <time>2023-06-21T14:25:44Z</time>
      </trkpt>
      <trkpt lat="49.7674" lon="2.13157">
        <ele>138.6</ele>
        <time>2023-06-21T14:25:46Z</time>
      </trkpt>
      <trkpt lat="49.76741" lon="2.13158">
        <ele>138.5</ele>
        <time>2023-06-21T14:25:47Z</time>
      </trkpt>
      <trkpt lat="49.76741" lon="2.1316">
        <ele>138.5</ele>
        <time>2023-06-21T14:25:48Z</time>
      </trkpt>
      <trkpt lat="49.76741" lon="2.13162">
        <ele>138.4</ele>
        <time>2023-06-21T14:25:49Z</time>
      </trkpt>
      <trkpt lat="49.76741" lon="2.13165">
        <ele>138.3</ele>
        <time>2023-06-21T14:25:51Z</time>
      </trkpt>
      <trkpt lat="49.76741" lon="2.13167">
        <ele>138.2</ele>
        <time>2023-06-21T14:25:52Z</time>
      </trkpt>
      <trkpt lat="49.76741" lon="2.13169">
        <ele>138.1</ele>
        <time>2023-06-21T14:25:53Z</time>
      </trkpt>
      <trkpt lat="49.76741" lon="2.13172">
        <ele>138</ele>
        <time>2023-06-21T14:25:54Z</time>
      </trkpt>
      <trkpt lat="49.76742" lon="2.13176">
        <ele>137.9</ele>
        <time>2023-06-21T14:25:55Z</time>
      </trkpt>
      <trkpt lat="49.76743" lon="2.13178">
        <ele>137.8</ele>
        <time>2023-06-21T14:25:56Z</time>
      </trkpt>
      <trkpt lat="49.76743" lon="2.1318">
        <ele>137.7</ele>
        <time>2023-06-21T14:25:57Z</time>
      </trkpt>
      <trkpt lat="49.76744" lon="2.13183">
        <ele>137.6</ele>
        <time>2023-06-21T14:25:58Z</time>
      </trkpt>
      <trkpt lat="49.76744" lon="2.13185">
        <ele>137.5</ele>
        <time>2023-06-21T14:26:00Z</time>
      </trkpt>
      <trkpt lat="49.76745" lon="2.13187">
        <ele>137.5</ele>
        <time>2023-06-21T14:26:01Z</time>
      </trkpt>
      <trkpt lat="49.76745" lon="2.13189">
        <ele>137.4</ele>
        <time>2023-06-21T14:26:02Z</time>
      </trkpt>
      <trkpt lat="49.76745" lon="2.13191">
        <ele>137.3</ele>
        <time>2023-06-21T14:26:03Z</time>
      </trkpt>
      <trkpt lat="49.76746" lon="2.13192">
        <ele>137.3</ele>
        <time>2023-06-21T14:26:04Z</time>
      </trkpt>
      <trkpt lat="49.76746" lon="2.13195">
        <ele>137.2</ele>
        <time>2023-06-21T14:26:05Z</time>
      </trkpt>
      <trkpt lat="49.76746" lon="2.13196">
        <ele>137.1</ele>
        <time>2023-06-21T14:26:06Z</time>
      </trkpt>
      <trkpt lat="49.76747" lon="2.13198">
        <ele>137</ele>
        <time>2023-06-21T14:26:08Z</time>
      </trkpt>
      <trkpt lat="49.76747" lon="2.132">
        <ele>137</ele>
        <time>2023-06-21T14:26:09Z</time>
      </trkpt>
      <trkpt lat="49.76747" lon="2.13204">
        <ele>136.8</ele>
        <time>2023-06-21T14:26:11Z</time>
      </trkpt>
      <trkpt lat="49.76748" lon="2.13207">
        <ele>136.7</ele>
        <time>2023-06-21T14:26:12Z</time>
      </trkpt>
      <trkpt lat="49.76748" lon="2.13208">
        <ele>136.7</ele>
        <time>2023-06-21T14:26:13Z</time>
      </trkpt>
      <trkpt lat="49.76748" lon="2.13209">
        <ele>136.6</ele>
        <time>2023-06-21T14:26:14Z</time>
      </trkpt>
      <trkpt lat="49.76749" lon="2.13211">
        <ele>136.5</ele>
        <time>2023-06-21T14:26:15Z</time>
      </trkpt>
      <trkpt lat="49.76749" lon="2.13213">
        <ele>136.4</ele>
        <time>2023-06-21T14:26:16Z</time>
      </trkpt>
      <trkpt lat="49.7675" lon="2.13215">
        <ele>136.4</ele>
        <time>2023-06-21T14:26:18Z</time>
      </trkpt>
      <trkpt lat="49.7675" lon="2.13216">
        <ele>136.3</ele>
        <time>2023-06-21T14:26:19Z</time>
      </trkpt>
      <trkpt lat="49.76751" lon="2.13218">
        <ele>136.2</ele>
        <time>2023-06-21T14:26:20Z</time>
      </trkpt>
      <trkpt lat="49.76751" lon="2.1322">
        <ele>136.1</ele>
        <time>2023-06-21T14:26:21Z</time>
      </trkpt>
      <trkpt lat="49.76752" lon="2.13222">
        <ele>136</ele>
        <time>2023-06-21T14:26:22Z</time>
      </trkpt>
      <trkpt lat="49.76753" lon="2.13226">
        <ele>135.8</ele>
        <time>2023-06-21T14:26:24Z</time>
      </trkpt>
      <trkpt lat="49.76754" lon="2.1323">
        <ele>135.7</ele>
        <time>2023-06-21T14:26:25Z</time>
      </trkpt>
      <trkpt lat="49.76755" lon="2.13231">
        <ele>135.6</ele>
        <time>2023-06-21T14:26:26Z</time>
      </trkpt>
      <trkpt lat="49.76755" lon="2.13233">
        <ele>135.5</ele>
        <time>2023-06-21T14:26:27Z</time>
      </trkpt>
      <trkpt lat="49.76756" lon="2.13234">
        <ele>135.5</ele>
        <time>2023-06-21T14:26:28Z</time>
      </trkpt>
      <trkpt lat="49.76756" lon="2.13235">
        <ele>135.4</ele>
        <time>2023-06-21T14:26:29Z</time>
      </trkpt>
      <trkpt lat="49.76757" lon="2.13237">
        <ele>135.3</ele>
        <time>2023-06-21T14:26:31Z</time>
      </trkpt>
      <trkpt lat="49.76757" lon="2.13238">
        <ele>135.3</ele>
        <time>2023-06-21T14:26:33Z</time>
      </trkpt>
      <trkpt lat="49.76758" lon="2.1324">
        <ele>135.2</ele>
        <time>2023-06-21T14:26:34Z</time>
      </trkpt>
      <trkpt lat="49.76758" lon="2.13241">
        <ele>135.1</ele>
        <time>2023-06-21T14:26:35Z</time>
      </trkpt>
      <trkpt lat="49.76759" lon="2.13243">
        <ele>135</ele>
        <time>2023-06-21T14:26:36Z</time>
      </trkpt>
      <trkpt lat="49.76759" lon="2.13245">
        <ele>134.9</ele>
        <time>2023-06-21T14:26:38Z</time>
      </trkpt>
      <trkpt lat="49.7676" lon="2.13247">
        <ele>134.9</ele>
        <time>2023-06-21T14:26:39Z</time>
      </trkpt>
      <trkpt lat="49.7676" lon="2.13249">
        <ele>134.8</ele>
        <time>2023-06-21T14:26:40Z</time>
      </trkpt>
      <trkpt lat="49.76761" lon="2.1325">
        <ele>134.7</ele>
        <time>2023-06-21T14:26:41Z</time>
      </trkpt>
      <trkpt lat="49.76761" lon="2.13252">
        <ele>134.7</ele>
        <time>2023-06-21T14:26:43Z</time>
      </trkpt>
      <trkpt lat="49.76762" lon="2.13254">
        <ele>134.6</ele>
        <time>2023-06-21T14:26:44Z</time>
      </trkpt>
      <trkpt lat="49.76762" lon="2.13257">
        <ele>134.4</ele>
        <time>2023-06-21T14:26:46Z</time>
      </trkpt>
      <trkpt lat="49.76763" lon="2.13259">
        <ele>134.4</ele>
        <time>2023-06-21T14:26:47Z</time>
      </trkpt>
      <trkpt lat="49.76763" lon="2.1326">
        <ele>134.3</ele>
        <time>2023-06-21T14:26:48Z</time>
      </trkpt>
      <trkpt lat="49.76763" lon="2.1326">
        <ele>134.3</ele>
        <time>2023-06-21T14:26:49Z</time>
      </trkpt>
      <trkpt lat="49.76763" lon="2.13261">
        <ele>134.3</ele>
        <time>2023-06-21T14:26:50Z</time>
      </trkpt>
      <trkpt lat="49.76763" lon="2.13263">
        <ele>134.2</ele>
        <time>2023-06-21T14:26:51Z</time>
      </trkpt>
      <trkpt lat="49.76764" lon="2.13266">
        <ele>134.1</ele>
        <time>2023-06-21T14:26:53Z</time>
      </trkpt>
      <trkpt lat="49.76765" lon="2.13268">
        <ele>134</ele>
        <time>2023-06-21T14:26:54Z</time>
      </trkpt>
      <trkpt lat="49.76765" lon="2.1327">
        <ele>133.9</ele>
        <time>2023-06-21T14:26:55Z</time>
      </trkpt>
      <trkpt lat="49.76766" lon="2.13273">
        <ele>133.8</ele>
        <time>2023-06-21T14:26:56Z</time>
      </trkpt>
      <trkpt lat="49.76766" lon="2.13275">
        <ele>133.8</ele>
        <time>2023-06-21T14:26:57Z</time>
      </trkpt>
      <trkpt lat="49.76767" lon="2.13276">
        <ele>133.7</ele>
        <time>2023-06-21T14:26:58Z</time>
      </trkpt>
      <trkpt lat="49.76767" lon="2.13277">
        <ele>133.7</ele>
        <time>2023-06-21T14:26:59Z</time>
      </trkpt>
      <trkpt lat="49.76767" lon="2.13278">
        <ele>133.6</ele>
        <time>2023-06-21T14:27:00Z</time>
      </trkpt>
      <trkpt lat="49.76767" lon="2.13279">
        <ele>133.6</ele>
        <time>2023-06-21T14:27:01Z</time>
      </trkpt>
      <trkpt lat="49.76768" lon="2.13281">
        <ele>133.5</ele>
        <time>2023-06-21T14:27:02Z</time>
      </trkpt>
      <trkpt lat="49.76768" lon="2.13283">
        <ele>133.5</ele>
        <time>2023-06-21T14:27:04Z</time>
      </trkpt>
      <trkpt lat="49.76769" lon="2.13285">
        <ele>133.4</ele>
        <time>2023-06-21T14:27:05Z</time>
      </trkpt>
      <trkpt lat="49.7677" lon="2.1329">
        <ele>133.2</ele>
        <time>2023-06-21T14:27:07Z</time>
      </trkpt>
      <trkpt lat="49.7677" lon="2.13294">
        <ele>133.1</ele>
        <time>2023-06-21T14:27:08Z</time>
      </trkpt>
      <trkpt lat="49.76771" lon="2.13296">
        <ele>133</ele>
        <time>2023-06-21T14:27:09Z</time>
      </trkpt>
      <trkpt lat="49.76772" lon="2.13301">
        <ele>132.9</ele>
        <time>2023-06-21T14:27:10Z</time>
      </trkpt>
      <trkpt lat="49.76773" lon="2.13302">
        <ele>132.8</ele>
        <time>2023-06-21T14:27:11Z</time>
      </trkpt>
      <trkpt lat="49.76774" lon="2.13306">
        <ele>132.7</ele>
        <time>2023-06-21T14:27:12Z</time>
      </trkpt>
      <trkpt lat="49.76775" lon="2.13309">
        <ele>132.6</ele>
        <time>2023-06-21T14:27:14Z</time>
      </trkpt>
      <trkpt lat="49.76775" lon="2.13312">
        <ele>132.5</ele>
        <time>2023-06-21T14:27:15Z</time>
      </trkpt>
      <trkpt lat="49.76776" lon="2.13313">
        <ele>132.5</ele>
        <time>2023-06-21T14:27:16Z</time>
      </trkpt>
      <trkpt lat="49.76778" lon="2.13317">
        <ele>132.3</ele>
        <time>2023-06-21T14:27:18Z</time>
      </trkpt>
      <trkpt lat="49.76779" lon="2.13318">
        <ele>132.3</ele>
        <time>2023-06-21T14:27:19Z</time>
      </trkpt>
      <trkpt lat="49.7678" lon="2.13321">
        <ele>132.2</ele>
        <time>2023-06-21T14:27:20Z</time>
      </trkpt>
      <trkpt lat="49.76781" lon="2.13322">
        <ele>132.1</ele>
        <time>2023-06-21T14:27:21Z</time>
      </trkpt>
      <trkpt lat="49.76782" lon="2.13324">
        <ele>132.1</ele>
        <time>2023-06-21T14:27:22Z</time>
      </trkpt>
      <trkpt lat="49.76782" lon="2.13326">
        <ele>132</ele>
        <time>2023-06-21T14:27:23Z</time>
      </trkpt>
      <trkpt lat="49.76783" lon="2.13327">
        <ele>132</ele>
        <time>2023-06-21T14:27:24Z</time>
      </trkpt>
      <trkpt lat="49.76783" lon="2.13328">
        <ele>131.9</ele>
        <time>2023-06-21T14:27:26Z</time>
      </trkpt>
      <trkpt lat="49.76784" lon="2.13329">
        <ele>131.9</ele>
        <time>2023-06-21T14:27:27Z</time>
      </trkpt>
      <trkpt lat="49.76784" lon="2.1333">
        <ele>131.9</ele>
        <time>2023-06-21T14:27:28Z</time>
      </trkpt>
      <trkpt lat="49.76785" lon="2.1333">
        <ele>131.8</ele>
        <time>2023-06-21T14:27:29Z</time>
      </trkpt>
      <trkpt lat="49.76785" lon="2.1333">
        <ele>131.8</ele>
        <time>2023-06-21T14:27:30Z</time>
      </trkpt>
      <trkpt lat="49.76785" lon="2.1333">
        <ele>131.8</ele>
        <time>2023-06-21T14:27:31Z</time>
      </trkpt>
      <trkpt lat="49.76786" lon="2.1333">
        <ele>131.8</ele>
        <time>2023-06-21T14:27:32Z</time>
      </trkpt>
      <trkpt lat="49.76787" lon="2.13334">
        <ele>131.7</ele>
        <time>2023-06-21T14:27:34Z</time>
      </trkpt>
      <trkpt lat="49.76787" lon="2.13335">
        <ele>131.6</ele>
        <time>2023-06-21T14:27:35Z</time>
      </trkpt>
      <trkpt lat="49.76788" lon="2.13336">
        <ele>131.6</ele>
        <time>2023-06-21T14:27:36Z</time>
      </trkpt>
      <trkpt lat="49.76789" lon="2.13338">
        <ele>131.5</ele>
        <time>2023-06-21T14:27:37Z</time>
      </trkpt>
      <trkpt lat="49.76789" lon="2.1334">
        <ele>131.5</ele>
        <time>2023-06-21T14:27:39Z</time>
      </trkpt>
      <trkpt lat="49.76789" lon="2.13341">
        <ele>131.4</ele>
        <time>2023-06-21T14:27:40Z</time>
      </trkpt>
      <trkpt lat="49.7679" lon="2.13342">
        <ele>131.4</ele>
        <time>2023-06-21T14:27:41Z</time>
      </trkpt>
      <trkpt lat="49.7679" lon="2.13343">
        <ele>131.3</ele>
        <time>2023-06-21T14:27:42Z</time>
      </trkpt>
      <trkpt lat="49.76791" lon="2.13347">
        <ele>131.2</ele>
        <time>2023-06-21T14:27:44Z</time>
      </trkpt>
      <trkpt lat="49.76791" lon="2.13349">
        <ele>131.1</ele>
        <time>2023-06-21T14:27:45Z</time>
      </trkpt>
      <trkpt lat="49.76792" lon="2.13351">
        <ele>131.1</ele>
        <time>2023-06-21T14:27:46Z</time>
      </trkpt>
      <trkpt lat="49.76792" lon="2.13353">
        <ele>131</ele>
        <time>2023-06-21T14:27:47Z</time>
      </trkpt>
      <trkpt lat="49.76793" lon="2.13355">
        <ele>130.9</ele>
        <time>2023-06-21T14:27:48Z</time>
      </trkpt>
      <trkpt lat="49.76793" lon="2.13357">
        <ele>130.9</ele>
        <time>2023-06-21T14:27:49Z</time>
      </trkpt>
      <trkpt lat="49.76793" lon="2.13359">
        <ele>130.8</ele>
        <time>2023-06-21T14:27:51Z</time>
      </trkpt>
      <trkpt lat="49.76794" lon="2.13361">
        <ele>130.7</ele>
        <time>2023-06-21T14:27:52Z</time>
      </trkpt>
      <trkpt lat="49.76794" lon="2.13364">
        <ele>130.6</ele>
        <time>2023-06-21T14:27:53Z</time>
      </trkpt>
      <trkpt lat="49.76795" lon="2.13365">
        <ele>130.6</ele>
        <time>2023-06-21T14:27:54Z</time>
      </trkpt>
      <trkpt lat="49.76795" lon="2.13366">
        <ele>130.5</ele>
        <time>2023-06-21T14:27:55Z</time>
      </trkpt>
      <trkpt lat="49.76796" lon="2.13368">
        <ele>130.5</ele>
        <time>2023-06-21T14:27:56Z</time>
      </trkpt>
      <trkpt lat="49.76796" lon="2.13371">
        <ele>130.4</ele>
        <time>2023-06-21T14:27:58Z</time>
      </trkpt>
      <trkpt lat="49.76797" lon="2.13373">
        <ele>130.3</ele>
        <time>2023-06-21T14:27:59Z</time>
      </trkpt>
      <trkpt lat="49.76797" lon="2.13374">
        <ele>130.3</ele>
        <time>2023-06-21T14:28:00Z</time>
      </trkpt>
      <trkpt lat="49.76797" lon="2.13376">
        <ele>130.2</ele>
        <time>2023-06-21T14:28:01Z</time>
      </trkpt>
      <trkpt lat="49.76797" lon="2.13379">
        <ele>130.1</ele>
        <time>2023-06-21T14:28:02Z</time>
      </trkpt>
      <trkpt lat="49.76797" lon="2.1338">
        <ele>130.1</ele>
        <time>2023-06-21T14:28:03Z</time>
      </trkpt>
      <trkpt lat="49.76798" lon="2.13382">
        <ele>130</ele>
        <time>2023-06-21T14:28:05Z</time>
      </trkpt>
      <trkpt lat="49.76798" lon="2.13383">
        <ele>130</ele>
        <time>2023-06-21T14:28:06Z</time>
      </trkpt>
      <trkpt lat="49.76798" lon="2.13385">
        <ele>129.9</ele>
        <time>2023-06-21T14:28:07Z</time>
      </trkpt>
      <trkpt lat="49.76799" lon="2.13386">
        <ele>129.9</ele>
        <time>2023-06-21T14:28:08Z</time>
      </trkpt>
      <trkpt lat="49.76799" lon="2.13388">
        <ele>129.8</ele>
        <time>2023-06-21T14:28:09Z</time>
      </trkpt>
      <trkpt lat="49.768" lon="2.1339">
        <ele>129.8</ele>
        <time>2023-06-21T14:28:10Z</time>
      </trkpt>
      <trkpt lat="49.768" lon="2.13393">
        <ele>129.7</ele>
        <time>2023-06-21T14:28:12Z</time>
      </trkpt>
      <trkpt lat="49.76801" lon="2.13394">
        <ele>129.7</ele>
        <time>2023-06-21T14:28:13Z</time>
      </trkpt>
      <trkpt lat="49.76801" lon="2.13396">
        <ele>129.6</ele>
        <time>2023-06-21T14:28:14Z</time>
      </trkpt>
      <trkpt lat="49.76802" lon="2.13397">
        <ele>129.6</ele>
        <time>2023-06-21T14:28:15Z</time>
      </trkpt>
      <trkpt lat="49.76802" lon="2.134">
        <ele>129.5</ele>
        <time>2023-06-21T14:28:17Z</time>
      </trkpt>
      <trkpt lat="49.76802" lon="2.13402">
        <ele>129.4</ele>
        <time>2023-06-21T14:28:18Z</time>
      </trkpt>
      <trkpt lat="49.76802" lon="2.13403">
        <ele>129.4</ele>
        <time>2023-06-21T14:28:19Z</time>
      </trkpt>
      <trkpt lat="49.76802" lon="2.13409">
        <ele>129.2</ele>
        <time>2023-06-21T14:28:21Z</time>
      </trkpt>
      <trkpt lat="49.76802" lon="2.13411">
        <ele>129.2</ele>
        <time>2023-06-21T14:28:22Z</time>
      </trkpt>
      <trkpt lat="49.76803" lon="2.13412">
        <ele>129.1</ele>
        <time>2023-06-21T14:28:23Z</time>
      </trkpt>
      <trkpt lat="49.76803" lon="2.13414">
        <ele>129.1</ele>
        <time>2023-06-21T14:28:24Z</time>
      </trkpt>
      <trkpt lat="49.76803" lon="2.13417">
        <ele>129</ele>
        <time>2023-06-21T14:28:25Z</time>
      </trkpt>
      <trkpt lat="49.76803" lon="2.13418">
        <ele>129</ele>
        <time>2023-06-21T14:28:26Z</time>
      </trkpt>
      <trkpt lat="49.76803" lon="2.1342">
        <ele>128.9</ele>
        <time>2023-06-21T14:28:28Z</time>
      </trkpt>
      <trkpt lat="49.76804" lon="2.13421">
        <ele>128.9</ele>
        <time>2023-06-21T14:28:29Z</time>
      </trkpt>
      <trkpt lat="49.76804" lon="2.13423">
        <ele>128.8</ele>
        <time>2023-06-21T14:28:30Z</time>
      </trkpt>
      <trkpt lat="49.76804" lon="2.13426">
        <ele>128.8</ele>
        <time>2023-06-21T14:28:31Z</time>
      </trkpt>
      <trkpt lat="49.76804" lon="2.13427">
        <ele>128.7</ele>
        <time>2023-06-21T14:28:32Z</time>
      </trkpt>
      <trkpt lat="49.76805" lon="2.13428">
        <ele>128.7</ele>
        <time>2023-06-21T14:28:33Z</time>
      </trkpt>
      <trkpt lat="49.76806" lon="2.13433">
        <ele>128.6</ele>
        <time>2023-06-21T14:28:34Z</time>
      </trkpt>
      <trkpt lat="49.76806" lon="2.13434">
        <ele>128.5</ele>
        <time>2023-06-21T14:28:35Z</time>
      </trkpt>
      <trkpt lat="49.76806" lon="2.13439">
        <ele>128.4</ele>
        <time>2023-06-21T14:28:36Z</time>
      </trkpt>
      <trkpt lat="49.76806" lon="2.1344">
        <ele>128.4</ele>
        <time>2023-06-21T14:28:37Z</time>
      </trkpt>
      <trkpt lat="49.76807" lon="2.13445">
        <ele>128.3</ele>
        <time>2023-06-21T14:28:39Z</time>
      </trkpt>
      <trkpt lat="49.76807" lon="2.13446">
        <ele>128.2</ele>
        <time>2023-06-21T14:28:40Z</time>
      </trkpt>
      <trkpt lat="49.76807" lon="2.13448">
        <ele>128.2</ele>
        <time>2023-06-21T14:28:41Z</time>
      </trkpt>
      <trkpt lat="49.76807" lon="2.13449">
        <ele>128.2</ele>
        <time>2023-06-21T14:28:42Z</time>
      </trkpt>
      <trkpt lat="49.76807" lon="2.13454">
        <ele>128.1</ele>
        <time>2023-06-21T14:28:44Z</time>
      </trkpt>
      <trkpt lat="49.76807" lon="2.13455">
        <ele>128</ele>
        <time>2023-06-21T14:28:45Z</time>
      </trkpt>
      <trkpt lat="49.76807" lon="2.13456">
        <ele>128</ele>
        <time>2023-06-21T14:28:46Z</time>
      </trkpt>
      <trkpt lat="49.76807" lon="2.13456">
        <ele>128</ele>
        <time>2023-06-21T14:28:47Z</time>
      </trkpt>
      <trkpt lat="49.76807" lon="2.13457">
        <ele>128</ele>
        <time>2023-06-21T14:28:48Z</time>
      </trkpt>
      <trkpt lat="49.76807" lon="2.13457">
        <ele>128</ele>
        <time>2023-06-21T14:28:49Z</time>
      </trkpt>
      <trkpt lat="49.76807" lon="2.13458">
        <ele>128</ele>
        <time>2023-06-21T14:28:51Z</time>
      </trkpt>
      <trkpt lat="49.76807" lon="2.13458">
        <ele>128</ele>
        <time>2023-06-21T14:28:52Z</time>
      </trkpt>
      <trkpt lat="49.76807" lon="2.13459">
        <ele>127.9</ele>
        <time>2023-06-21T14:28:53Z</time>
      </trkpt>
      <trkpt lat="49.76807" lon="2.13459">
        <ele>127.9</ele>
        <time>2023-06-21T14:28:54Z</time>
      </trkpt>
      <trkpt lat="49.76807" lon="2.13459">
        <ele>127.9</ele>
        <time>2023-06-21T14:28:55Z</time>
      </trkpt>
      <trkpt lat="49.76808" lon="2.13462">
        <ele>127.8</ele>
        <time>2023-06-21T14:28:57Z</time>
      </trkpt>
      <trkpt lat="49.76808" lon="2.13464">
        <ele>127.8</ele>
        <time>2023-06-21T14:28:58Z</time>
      </trkpt>
      <trkpt lat="49.76809" lon="2.13465">
        <ele>127.8</ele>
        <time>2023-06-21T14:28:59Z</time>
      </trkpt>
      <trkpt lat="49.76809" lon="2.13467">
        <ele>127.7</ele>
        <time>2023-06-21T14:29:00Z</time>
      </trkpt>
      <trkpt lat="49.76809" lon="2.13469">
        <ele>127.7</ele>
        <time>2023-06-21T14:29:01Z</time>
      </trkpt>
      <trkpt lat="49.7681" lon="2.13472">
        <ele>127.6</ele>
        <time>2023-06-21T14:29:03Z</time>
      </trkpt>
      <trkpt lat="49.7681" lon="2.13474">
        <ele>127.6</ele>
        <time>2023-06-21T14:29:04Z</time>
      </trkpt>
      <trkpt lat="49.7681" lon="2.13477">
        <ele>127.5</ele>
        <time>2023-06-21T14:29:05Z</time>
      </trkpt>
      <trkpt lat="49.76811" lon="2.13478">
        <ele>127.5</ele>
        <time>2023-06-21T14:29:06Z</time>
      </trkpt>
      <trkpt lat="49.76811" lon="2.13481">
        <ele>127.4</ele>
        <time>2023-06-21T14:29:08Z</time>
      </trkpt>
      <trkpt lat="49.76812" lon="2.13482">
        <ele>127.4</ele>
        <time>2023-06-21T14:29:09Z</time>
      </trkpt>
      <trkpt lat="49.76813" lon="2.13482">
        <ele>127.4</ele>
        <time>2023-06-21T14:29:10Z</time>
      </trkpt>
      <trkpt lat="49.76813" lon="2.13484">
        <ele>127.3</ele>
        <time>2023-06-21T14:29:11Z</time>
      </trkpt>
      <trkpt lat="49.76814" lon="2.13485">
        <ele>127.3</ele>
        <time>2023-06-21T14:29:12Z</time>
      </trkpt>
      <trkpt lat="49.76814" lon="2.13487">
        <ele>127.2</ele>
        <time>2023-06-21T14:29:13Z</time>
      </trkpt>
      <trkpt lat="49.76815" lon="2.13489">
        <ele>127.2</ele>
        <time>2023-06-21T14:29:15Z</time>
      </trkpt>
      <trkpt lat="49.76815" lon="2.13491">
        <ele>127.1</ele>
        <time>2023-06-21T14:29:16Z</time>
      </trkpt>
      <trkpt lat="49.76816" lon="2.13493">
        <ele>127.1</ele>
        <time>2023-06-21T14:29:17Z</time>
      </trkpt>
      <trkpt lat="49.76816" lon="2.13495">
        <ele>127.1</ele>
        <time>2023-06-21T14:29:18Z</time>
      </trkpt>
      <trkpt lat="49.76817" lon="2.13496">
        <ele>127</ele>
        <time>2023-06-21T14:29:19Z</time>
      </trkpt>
      <trkpt lat="49.76818" lon="2.135">
        <ele>126.9</ele>
        <time>2023-06-21T14:29:21Z</time>
      </trkpt>
      <trkpt lat="49.7682" lon="2.13504">
        <ele>126.9</ele>
        <time>2023-06-21T14:29:22Z</time>
      </trkpt>
      <trkpt lat="49.7682" lon="2.13505">
        <ele>126.8</ele>
        <time>2023-06-21T14:29:23Z</time>
      </trkpt>
      <trkpt lat="49.76822" lon="2.13509">
        <ele>126.8</ele>
        <time>2023-06-21T14:29:24Z</time>
      </trkpt>
      <trkpt lat="49.76823" lon="2.1351">
        <ele>126.7</ele>
        <time>2023-06-21T14:29:26Z</time>
      </trkpt>
      <trkpt lat="49.76823" lon="2.13512">
        <ele>126.7</ele>
        <time>2023-06-21T14:29:27Z</time>
      </trkpt>
      <trkpt lat="49.76824" lon="2.13513">
        <ele>126.7</ele>
        <time>2023-06-21T14:29:28Z</time>
      </trkpt>
      <trkpt lat="49.76825" lon="2.13515">
        <ele>126.6</ele>
        <time>2023-06-21T14:29:29Z</time>
      </trkpt>
      <trkpt lat="49.76825" lon="2.13517">
        <ele>126.6</ele>
        <time>2023-06-21T14:29:30Z</time>
      </trkpt>
      <trkpt lat="49.76826" lon="2.13519">
        <ele>126.6</ele>
        <time>2023-06-21T14:29:31Z</time>
      </trkpt>
      <trkpt lat="49.76827" lon="2.13522">
        <ele>126.5</ele>
        <time>2023-06-21T14:29:32Z</time>
      </trkpt>
      <trkpt lat="49.76828" lon="2.13524">
        <ele>126.5</ele>
        <time>2023-06-21T14:29:33Z</time>
      </trkpt>
      <trkpt lat="49.76828" lon="2.13527">
        <ele>126.4</ele>
        <time>2023-06-21T14:29:34Z</time>
      </trkpt>
      <trkpt lat="49.76829" lon="2.13529">
        <ele>126.4</ele>
        <time>2023-06-21T14:29:35Z</time>
      </trkpt>
      <trkpt lat="49.76829" lon="2.13531">
        <ele>126.4</ele>
        <time>2023-06-21T14:29:36Z</time>
      </trkpt>
      <trkpt lat="49.7683" lon="2.13534">
        <ele>126.3</ele>
        <time>2023-06-21T14:29:38Z</time>
      </trkpt>
      <trkpt lat="49.7683" lon="2.13536">
        <ele>126.3</ele>
        <time>2023-06-21T14:29:39Z</time>
      </trkpt>
      <trkpt lat="49.76831" lon="2.13538">
        <ele>126.2</ele>
        <time>2023-06-21T14:29:40Z</time>
      </trkpt>
      <trkpt lat="49.76831" lon="2.13539">
        <ele>126.2</ele>
        <time>2023-06-21T14:29:41Z</time>
      </trkpt>
      <trkpt lat="49.76831" lon="2.1354">
        <ele>126.2</ele>
        <time>2023-06-21T14:29:42Z</time>
      </trkpt>
      <trkpt lat="49.76831" lon="2.13541">
        <ele>126.2</ele>
        <time>2023-06-21T14:29:44Z</time>
      </trkpt>
      <trkpt lat="49.76831" lon="2.13541">
        <ele>126.2</ele>
        <time>2023-06-21T14:29:45Z</time>
      </trkpt>
      <trkpt lat="49.7683" lon="2.13541">
        <ele>126.2</ele>
        <time>2023-06-21T14:29:46Z</time>
      </trkpt>
      <trkpt lat="49.7683" lon="2.13543">
        <ele>126.1</ele>
        <time>2023-06-21T14:29:47Z</time>
      </trkpt>
      <trkpt lat="49.7683" lon="2.13545">
        <ele>126.1</ele>
        <time>2023-06-21T14:29:48Z</time>
      </trkpt>
      <trkpt lat="49.7683" lon="2.13546">
        <ele>126.1</ele>
        <time>2023-06-21T14:29:49Z</time>
      </trkpt>
      <trkpt lat="49.7683" lon="2.13548">
        <ele>126</ele>
        <time>2023-06-21T14:29:51Z</time>
      </trkpt>
      <trkpt lat="49.76831" lon="2.13549">
        <ele>126</ele>
        <time>2023-06-21T14:29:52Z</time>
      </trkpt>
      <trkpt lat="49.76831" lon="2.13553">
        <ele>125.9</ele>
        <time>2023-06-21T14:29:53Z</time>
      </trkpt>
      <trkpt lat="49.76831" lon="2.13554">
        <ele>125.9</ele>
        <time>2023-06-21T14:29:54Z</time>
      </trkpt>
      <trkpt lat="49.76831" lon="2.13555">
        <ele>125.9</ele>
        <time>2023-06-21T14:29:55Z</time>
      </trkpt>
      <trkpt lat="49.76831" lon="2.13556">
        <ele>125.8</ele>
        <time>2023-06-21T14:29:56Z</time>
      </trkpt>
      <trkpt lat="49.7683" lon="2.13556">
        <ele>125.8</ele>
        <time>2023-06-21T14:29:57Z</time>
      </trkpt>
      <trkpt lat="49.7683" lon="2.13555">
        <ele>125.8</ele>
        <time>2023-06-21T14:29:59Z</time>
      </trkpt>
      <trkpt lat="49.76829" lon="2.13556">
        <ele>125.8</ele>
        <time>2023-06-21T14:30:01Z</time>
      </trkpt>
      <trkpt lat="49.76829" lon="2.13557">
        <ele>125.7</ele>
        <time>2023-06-21T14:30:02Z</time>
      </trkpt>
      <trkpt lat="49.76829" lon="2.13559">
        <ele>125.7</ele>
        <time>2023-06-21T14:30:03Z</time>
      </trkpt>
      <trkpt lat="49.76829" lon="2.1356">
        <ele>125.7</ele>
        <time>2023-06-21T14:30:04Z</time>
      </trkpt>
      <trkpt lat="49.76829" lon="2.13562">
        <ele>125.6</ele>
        <time>2023-06-21T14:30:05Z</time>
      </trkpt>
      <trkpt lat="49.76829" lon="2.13564">
        <ele>125.6</ele>
        <time>2023-06-21T14:30:06Z</time>
      </trkpt>
      <trkpt lat="49.76829" lon="2.13566">
        <ele>125.5</ele>
        <time>2023-06-21T14:30:07Z</time>
      </trkpt>
      <trkpt lat="49.76829" lon="2.13566">
        <ele>125.5</ele>
        <time>2023-06-21T14:30:09Z</time>
      </trkpt>
      <trkpt lat="49.76829" lon="2.13567">
        <ele>125.5</ele>
        <time>2023-06-21T14:30:10Z</time>
      </trkpt>
      <trkpt lat="49.7683" lon="2.13568">
        <ele>125.5</ele>
        <time>2023-06-21T14:30:11Z</time>
      </trkpt>
      <trkpt lat="49.7683" lon="2.13569">
        <ele>125.4</ele>
        <time>2023-06-21T14:30:12Z</time>
      </trkpt>
      <trkpt lat="49.76831" lon="2.13572">
        <ele>125.4</ele>
        <time>2023-06-21T14:30:13Z</time>
      </trkpt>
      <trkpt lat="49.76831" lon="2.13574">
        <ele>125.3</ele>
        <time>2023-06-21T14:30:15Z</time>
      </trkpt>
      <trkpt lat="49.76831" lon="2.13576">
        <ele>125.2</ele>
        <time>2023-06-21T14:30:16Z</time>
      </trkpt>
      <trkpt lat="49.76831" lon="2.13579">
        <ele>125.2</ele>
        <time>2023-06-21T14:30:17Z</time>
      </trkpt>
      <trkpt lat="49.7683" lon="2.13583">
        <ele>125</ele>
        <time>2023-06-21T14:30:18Z</time>
      </trkpt>
      <trkpt lat="49.76829" lon="2.13584">
        <ele>125</ele>
        <time>2023-06-21T14:30:19Z</time>
      </trkpt>
      <trkpt lat="49.76829" lon="2.13578">
        <ele>124.8</ele>
        <time>2023-06-21T14:30:20Z</time>
      </trkpt>
      <trkpt lat="49.76829" lon="2.13576">
        <ele>124.7</ele>
        <time>2023-06-21T14:30:21Z</time>
      </trkpt>
      <trkpt lat="49.7683" lon="2.1357">
        <ele>124.6</ele>
        <time>2023-06-21T14:30:22Z</time>
      </trkpt>
      <trkpt lat="49.7683" lon="2.1357">
        <ele>124.6</ele>
        <time>2023-06-21T14:30:24Z</time>
      </trkpt>
      <trkpt lat="49.76831" lon="2.13571">
        <ele>124.5</ele>
        <time>2023-06-21T14:30:25Z</time>
      </trkpt>
      <trkpt lat="49.76831" lon="2.13573">
        <ele>124.5</ele>
        <time>2023-06-21T14:30:26Z</time>
      </trkpt>
      <trkpt lat="49.76832" lon="2.13574">
        <ele>124.4</ele>
        <time>2023-06-21T14:30:27Z</time>
      </trkpt>
      <trkpt lat="49.76833" lon="2.13575">
        <ele>124.4</ele>
        <time>2023-06-21T14:30:28Z</time>
      </trkpt>
      <trkpt lat="49.76834" lon="2.13577">
        <ele>124.3</ele>
        <time>2023-06-21T14:30:29Z</time>
      </trkpt>
      <trkpt lat="49.76835" lon="2.1358">
        <ele>124.2</ele>
        <time>2023-06-21T14:30:30Z</time>
      </trkpt>
      <trkpt lat="49.76835" lon="2.13582">
        <ele>124.1</ele>
        <time>2023-06-21T14:30:32Z</time>
      </trkpt>
      <trkpt lat="49.76836" lon="2.13584">
        <ele>124.1</ele>
        <time>2023-06-21T14:30:33Z</time>
      </trkpt>
      <trkpt lat="49.76836" lon="2.13586">
        <ele>124</ele>
        <time>2023-06-21T14:30:34Z</time>
      </trkpt>
      <trkpt lat="49.76837" lon="2.13592">
        <ele>123.8</ele>
        <time>2023-06-21T14:30:35Z</time>
      </trkpt>
      <trkpt lat="49.76837" lon="2.13594">
        <ele>123.7</ele>
        <time>2023-06-21T14:30:36Z</time>
      </trkpt>
      <trkpt lat="49.76838" lon="2.13598">
        <ele>123.6</ele>
        <time>2023-06-21T14:30:37Z</time>
      </trkpt>
      <trkpt lat="49.76839" lon="2.13601">
        <ele>123.5</ele>
        <time>2023-06-21T14:30:39Z</time>
      </trkpt>
      <trkpt lat="49.7684" lon="2.13607">
        <ele>123.3</ele>
        <time>2023-06-21T14:30:40Z</time>
      </trkpt>
      <trkpt lat="49.7684" lon="2.13608">
        <ele>123.2</ele>
        <time>2023-06-21T14:30:41Z</time>
      </trkpt>
      <trkpt lat="49.7684" lon="2.13613">
        <ele>123.1</ele>
        <time>2023-06-21T14:30:42Z</time>
      </trkpt>
      <trkpt lat="49.7684" lon="2.13614">
        <ele>123</ele>
        <time>2023-06-21T14:30:43Z</time>
      </trkpt>
      <trkpt lat="49.7684" lon="2.1362">
        <ele>122.8</ele>
        <time>2023-06-21T14:30:44Z</time>
      </trkpt>
      <trkpt lat="49.7684" lon="2.13621">
        <ele>122.8</ele>
        <time>2023-06-21T14:30:45Z</time>
      </trkpt>
      <trkpt lat="49.7684" lon="2.13626">
        <ele>122.6</ele>
        <time>2023-06-21T14:30:46Z</time>
      </trkpt>
      <trkpt lat="49.7684" lon="2.13628">
        <ele>122.6</ele>
        <time>2023-06-21T14:30:47Z</time>
      </trkpt>
      <trkpt lat="49.7684" lon="2.13631">
        <ele>122.5</ele>
        <time>2023-06-21T14:30:49Z</time>
      </trkpt>
      <trkpt lat="49.76841" lon="2.13633">
        <ele>122.4</ele>
        <time>2023-06-21T14:30:50Z</time>
      </trkpt>
      <trkpt lat="49.76841" lon="2.13634">
        <ele>122.3</ele>
        <time>2023-06-21T14:30:51Z</time>
      </trkpt>
      <trkpt lat="49.76841" lon="2.13634">
        <ele>122.3</ele>
        <time>2023-06-21T14:30:52Z</time>
      </trkpt>
      <trkpt lat="49.7684" lon="2.13635">
        <ele>122.3</ele>
        <time>2023-06-21T14:30:53Z</time>
      </trkpt>
      <trkpt lat="49.7684" lon="2.13636">
        <ele>122.3</ele>
        <time>2023-06-21T14:30:54Z</time>
      </trkpt>
      <trkpt lat="49.76841" lon="2.13638">
        <ele>122.2</ele>
        <time>2023-06-21T14:30:55Z</time>
      </trkpt>
      <trkpt lat="49.76841" lon="2.13638">
        <ele>122.2</ele>
        <time>2023-06-21T14:30:57Z</time>
      </trkpt>
      <trkpt lat="49.76841" lon="2.13637">
        <ele>122.1</ele>
        <time>2023-06-21T14:30:58Z</time>
      </trkpt>
      <trkpt lat="49.7684" lon="2.13637">
        <ele>122.1</ele>
        <time>2023-06-21T14:30:59Z</time>
      </trkpt>
      <trkpt lat="49.7684" lon="2.13638">
        <ele>122.1</ele>
        <time>2023-06-21T14:31:00Z</time>
      </trkpt>
      <trkpt lat="49.7684" lon="2.13641">
        <ele>122</ele>
        <time>2023-06-21T14:31:02Z</time>
      </trkpt>
      <trkpt lat="49.7684" lon="2.13642">
        <ele>121.9</ele>
        <time>2023-06-21T14:31:03Z</time>
      </trkpt>
      <trkpt lat="49.7684" lon="2.13647">
        <ele>121.7</ele>
        <time>2023-06-21T14:31:04Z</time>
      </trkpt>
      <trkpt lat="49.7684" lon="2.13648">
        <ele>121.6</ele>
        <time>2023-06-21T14:31:05Z</time>
      </trkpt>
      <trkpt lat="49.76841" lon="2.1365">
        <ele>121.6</ele>
        <time>2023-06-21T14:31:06Z</time>
      </trkpt>
      <trkpt lat="49.76842" lon="2.13651">
        <ele>121.5</ele>
        <time>2023-06-21T14:31:07Z</time>
      </trkpt>
      <trkpt lat="49.76844" lon="2.13652">
        <ele>121.4</ele>
        <time>2023-06-21T14:31:09Z</time>
      </trkpt>
      <trkpt lat="49.76844" lon="2.13653">
        <ele>121.3</ele>
        <time>2023-06-21T14:31:10Z</time>
      </trkpt>
      <trkpt lat="49.76844" lon="2.13654">
        <ele>121.3</ele>
        <time>2023-06-21T14:31:11Z</time>
      </trkpt>
      <trkpt lat="49.76844" lon="2.13655">
        <ele>121.2</ele>
        <time>2023-06-21T14:31:12Z</time>
      </trkpt>
      <trkpt lat="49.76844" lon="2.13657">
        <ele>121.1</ele>
        <time>2023-06-21T14:31:13Z</time>
      </trkpt>
      <trkpt lat="49.76844" lon="2.13659">
        <ele>121.1</ele>
        <time>2023-06-21T14:31:14Z</time>
      </trkpt>
      <trkpt lat="49.76843" lon="2.13661">
        <ele>121</ele>
        <time>2023-06-21T14:31:15Z</time>
      </trkpt>
      <trkpt lat="49.76843" lon="2.13662">
        <ele>120.9</ele>
        <time>2023-06-21T14:31:17Z</time>
      </trkpt>
      <trkpt lat="49.76843" lon="2.13663">
        <ele>120.9</ele>
        <time>2023-06-21T14:31:18Z</time>
      </trkpt>
      <trkpt lat="49.76843" lon="2.13664">
        <ele>120.8</ele>
        <time>2023-06-21T14:31:19Z</time>
      </trkpt>
      <trkpt lat="49.76842" lon="2.13665">
        <ele>120.8</ele>
        <time>2023-06-21T14:31:20Z</time>
      </trkpt>
      <trkpt lat="49.76842" lon="2.13667">
        <ele>120.7</ele>
        <time>2023-06-21T14:31:21Z</time>
      </trkpt>
      <trkpt lat="49.76842" lon="2.1367">
        <ele>120.6</ele>
        <time>2023-06-21T14:31:22Z</time>
      </trkpt>
      <trkpt lat="49.76842" lon="2.13672">
        <ele>120.5</ele>
        <time>2023-06-21T14:31:24Z</time>
      </trkpt>
      <trkpt lat="49.76841" lon="2.13675">
        <ele>120.3</ele>
        <time>2023-06-21T14:31:25Z</time>
      </trkpt>
      <trkpt lat="49.76841" lon="2.13677">
        <ele>120.2</ele>
        <time>2023-06-21T14:31:26Z</time>
      </trkpt>
      <trkpt lat="49.76839" lon="2.13681">
        <ele>120</ele>
        <time>2023-06-21T14:31:27Z</time>
      </trkpt>
      <trkpt lat="49.76839" lon="2.13683">
        <ele>119.9</ele>
        <time>2023-06-21T14:31:28Z</time>
      </trkpt>
      <trkpt lat="49.76839" lon="2.13687">
        <ele>119.7</ele>
        <time>2023-06-21T14:31:29Z</time>
      </trkpt>
      <trkpt lat="49.76839" lon="2.13688">
        <ele>119.7</ele>
        <time>2023-06-21T14:31:30Z</time>
      </trkpt>
      <trkpt lat="49.76839" lon="2.13691">
        <ele>119.5</ele>
        <time>2023-06-21T14:31:31Z</time>
      </trkpt>
      <trkpt lat="49.76839" lon="2.13693">
        <ele>119.4</ele>
        <time>2023-06-21T14:31:33Z</time>
      </trkpt>
      <trkpt lat="49.76839" lon="2.13696">
        <ele>119.3</ele>
        <time>2023-06-21T14:31:34Z</time>
      </trkpt>
      <trkpt lat="49.76839" lon="2.13697">
        <ele>119.2</ele>
        <time>2023-06-21T14:31:35Z</time>
      </trkpt>
      <trkpt lat="49.7684" lon="2.13698">
        <ele>119.1</ele>
        <time>2023-06-21T14:31:36Z</time>
      </trkpt>
      <trkpt lat="49.76841" lon="2.13699">
        <ele>119</ele>
        <time>2023-06-21T14:31:37Z</time>
      </trkpt>
      <trkpt lat="49.76842" lon="2.13701">
        <ele>118.9</ele>
        <time>2023-06-21T14:31:38Z</time>
      </trkpt>
      <trkpt lat="49.76842" lon="2.13703">
        <ele>118.8</ele>
        <time>2023-06-21T14:31:39Z</time>
      </trkpt>
      <trkpt lat="49.76842" lon="2.13705">
        <ele>118.7</ele>
        <time>2023-06-21T14:31:41Z</time>
      </trkpt>
      <trkpt lat="49.76842" lon="2.13708">
        <ele>118.5</ele>
        <time>2023-06-21T14:31:42Z</time>
      </trkpt>
      <trkpt lat="49.76842" lon="2.13715">
        <ele>118.1</ele>
        <time>2023-06-21T14:31:44Z</time>
      </trkpt>
      <trkpt lat="49.76842" lon="2.13716">
        <ele>118.1</ele>
        <time>2023-06-21T14:31:45Z</time>
      </trkpt>
      <trkpt lat="49.76842" lon="2.13718">
        <ele>118</ele>
        <time>2023-06-21T14:31:46Z</time>
      </trkpt>
      <trkpt lat="49.76843" lon="2.13719">
        <ele>117.9</ele>
        <time>2023-06-21T14:31:47Z</time>
      </trkpt>
      <trkpt lat="49.76843" lon="2.1372">
        <ele>117.8</ele>
        <time>2023-06-21T14:31:49Z</time>
      </trkpt>
      <trkpt lat="49.76844" lon="2.13721">
        <ele>117.8</ele>
        <time>2023-06-21T14:31:50Z</time>
      </trkpt>
      <trkpt lat="49.76845" lon="2.13721">
        <ele>117.7</ele>
        <time>2023-06-21T14:31:51Z</time>
      </trkpt>
      <trkpt lat="49.76845" lon="2.13723">
        <ele>117.6</ele>
        <time>2023-06-21T14:31:52Z</time>
      </trkpt>
      <trkpt lat="49.76845" lon="2.13728">
        <ele>117.3</ele>
        <time>2023-06-21T14:31:54Z</time>
      </trkpt>
      <trkpt lat="49.76845" lon="2.13729">
        <ele>117.3</ele>
        <time>2023-06-21T14:31:55Z</time>
      </trkpt>
      <trkpt lat="49.76845" lon="2.13732">
        <ele>117.1</ele>
        <time>2023-06-21T14:31:56Z</time>
      </trkpt>
      <trkpt lat="49.76846" lon="2.13733">
        <ele>117.1</ele>
        <time>2023-06-21T14:31:57Z</time>
      </trkpt>
      <trkpt lat="49.76847" lon="2.13735">
        <ele>117</ele>
        <time>2023-06-21T14:31:58Z</time>
      </trkpt>
      <trkpt lat="49.76848" lon="2.13737">
        <ele>116.8</ele>
        <time>2023-06-21T14:31:59Z</time>
      </trkpt>
      <trkpt lat="49.76848" lon="2.13738">
        <ele>116.7</ele>
        <time>2023-06-21T14:32:01Z</time>
      </trkpt>
      <trkpt lat="49.76848" lon="2.13739">
        <ele>116.7</ele>
        <time>2023-06-21T14:32:02Z</time>
      </trkpt>
      <trkpt lat="49.76849" lon="2.1374">
        <ele>116.6</ele>
        <time>2023-06-21T14:32:03Z</time>
      </trkpt>
      <trkpt lat="49.76849" lon="2.13739">
        <ele>116.6</ele>
        <time>2023-06-21T14:32:04Z</time>
      </trkpt>
      <trkpt lat="49.76849" lon="2.13739">
        <ele>116.6</ele>
        <time>2023-06-21T14:32:05Z</time>
      </trkpt>
      <trkpt lat="49.76849" lon="2.13741">
        <ele>116.5</ele>
        <time>2023-06-21T14:32:06Z</time>
      </trkpt>
      <trkpt lat="49.76849" lon="2.13745">
        <ele>116.3</ele>
        <time>2023-06-21T14:32:07Z</time>
      </trkpt>
      <trkpt lat="49.7685" lon="2.13747">
        <ele>116.2</ele>
        <time>2023-06-21T14:32:09Z</time>
      </trkpt>
      <trkpt lat="49.7685" lon="2.13748">
        <ele>116.1</ele>
        <time>2023-06-21T14:32:10Z</time>
      </trkpt>
      <trkpt lat="49.76851" lon="2.1375">
        <ele>116</ele>
        <time>2023-06-21T14:32:11Z</time>
      </trkpt>
      <trkpt lat="49.76852" lon="2.13754">
        <ele>115.8</ele>
        <time>2023-06-21T14:32:13Z</time>
      </trkpt>
      <trkpt lat="49.76852" lon="2.13755">
        <ele>115.7</ele>
        <time>2023-06-21T14:32:14Z</time>
      </trkpt>
      <trkpt lat="49.76853" lon="2.13758">
        <ele>115.5</ele>
        <time>2023-06-21T14:32:15Z</time>
      </trkpt>
      <trkpt lat="49.76853" lon="2.1376">
        <ele>115.5</ele>
        <time>2023-06-21T14:32:17Z</time>
      </trkpt>
      <trkpt lat="49.76853" lon="2.13762">
        <ele>115.4</ele>
        <time>2023-06-21T14:32:19Z</time>
      </trkpt>
      <trkpt lat="49.76853" lon="2.13763">
        <ele>115.3</ele>
        <time>2023-06-21T14:32:20Z</time>
      </trkpt>
      <trkpt lat="49.76853" lon="2.13765">
        <ele>115.2</ele>
        <time>2023-06-21T14:32:21Z</time>
      </trkpt>
      <trkpt lat="49.76853" lon="2.13766">
        <ele>115.1</ele>
        <time>2023-06-21T14:32:22Z</time>
      </trkpt>
      <trkpt lat="49.76853" lon="2.13769">
        <ele>115</ele>
        <time>2023-06-21T14:32:24Z</time>
      </trkpt>
      <trkpt lat="49.76853" lon="2.1377">
        <ele>114.9</ele>
        <time>2023-06-21T14:32:25Z</time>
      </trkpt>
      <trkpt lat="49.76853" lon="2.13772">
        <ele>114.8</ele>
        <time>2023-06-21T14:32:26Z</time>
      </trkpt>
      <trkpt lat="49.76853" lon="2.13774">
        <ele>114.8</ele>
        <time>2023-06-21T14:32:27Z</time>
      </trkpt>
      <trkpt lat="49.76853" lon="2.13775">
        <ele>114.7</ele>
        <time>2023-06-21T14:32:28Z</time>
      </trkpt>
      <trkpt lat="49.76853" lon="2.13777">
        <ele>114.6</ele>
        <time>2023-06-21T14:32:29Z</time>
      </trkpt>
      <trkpt lat="49.76854" lon="2.13779">
        <ele>114.5</ele>
        <time>2023-06-21T14:32:30Z</time>
      </trkpt>
      <trkpt lat="49.76854" lon="2.13781">
        <ele>114.4</ele>
        <time>2023-06-21T14:32:32Z</time>
      </trkpt>
      <trkpt lat="49.76854" lon="2.13784">
        <ele>114.3</ele>
        <time>2023-06-21T14:32:33Z</time>
      </trkpt>
      <trkpt lat="49.76854" lon="2.13788">
        <ele>114.1</ele>
        <time>2023-06-21T14:32:35Z</time>
      </trkpt>
      <trkpt lat="49.76855" lon="2.13792">
        <ele>113.9</ele>
        <time>2023-06-21T14:32:36Z</time>
      </trkpt>
      <trkpt lat="49.76855" lon="2.13794">
        <ele>113.8</ele>
        <time>2023-06-21T14:32:37Z</time>
      </trkpt>
      <trkpt lat="49.76856" lon="2.13796">
        <ele>113.7</ele>
        <time>2023-06-21T14:32:38Z</time>
      </trkpt>
      <trkpt lat="49.76856" lon="2.13799">
        <ele>113.6</ele>
        <time>2023-06-21T14:32:39Z</time>
      </trkpt>
      <trkpt lat="49.76856" lon="2.13802">
        <ele>113.5</ele>
        <time>2023-06-21T14:32:41Z</time>
      </trkpt>
      <trkpt lat="49.76856" lon="2.13804">
        <ele>113.4</ele>
        <time>2023-06-21T14:32:42Z</time>
      </trkpt>
      <trkpt lat="49.76856" lon="2.13806">
        <ele>113.3</ele>
        <time>2023-06-21T14:32:43Z</time>
      </trkpt>
      <trkpt lat="49.76856" lon="2.13807">
        <ele>113.3</ele>
        <time>2023-06-21T14:32:44Z</time>
      </trkpt>
      <trkpt lat="49.76856" lon="2.13809">
        <ele>113.2</ele>
        <time>2023-06-21T14:32:45Z</time>
      </trkpt>
      <trkpt lat="49.76855" lon="2.13809">
        <ele>113.2</ele>
        <time>2023-06-21T14:32:46Z</time>
      </trkpt>
      <trkpt lat="49.76855" lon="2.1381">
        <ele>113.1</ele>
        <time>2023-06-21T14:32:47Z</time>
      </trkpt>
      <trkpt lat="49.76855" lon="2.13811">
        <ele>113.1</ele>
        <time>2023-06-21T14:32:48Z</time>
      </trkpt>
      <trkpt lat="49.76855" lon="2.13812">
        <ele>113</ele>
        <time>2023-06-21T14:32:49Z</time>
      </trkpt>
      <trkpt lat="49.76855" lon="2.13813">
        <ele>113</ele>
        <time>2023-06-21T14:32:50Z</time>
      </trkpt>
      <trkpt lat="49.76855" lon="2.13814">
        <ele>113</ele>
        <time>2023-06-21T14:32:52Z</time>
      </trkpt>
      <trkpt lat="49.76855" lon="2.13815">
        <ele>112.9</ele>
        <time>2023-06-21T14:32:53Z</time>
      </trkpt>
      <trkpt lat="49.76855" lon="2.13816">
        <ele>112.9</ele>
        <time>2023-06-21T14:32:54Z</time>
      </trkpt>
      <trkpt lat="49.76855" lon="2.13818">
        <ele>112.8</ele>
        <time>2023-06-21T14:32:55Z</time>
      </trkpt>
      <trkpt lat="49.76855" lon="2.13821">
        <ele>112.7</ele>
        <time>2023-06-21T14:32:56Z</time>
      </trkpt>
      <trkpt lat="49.76855" lon="2.13823">
        <ele>112.6</ele>
        <time>2023-06-21T14:32:57Z</time>
      </trkpt>
      <trkpt lat="49.76855" lon="2.13825">
        <ele>112.5</ele>
        <time>2023-06-21T14:32:59Z</time>
      </trkpt>
      <trkpt lat="49.76855" lon="2.13826">
        <ele>112.5</ele>
        <time>2023-06-21T14:33:00Z</time>
      </trkpt>
      <trkpt lat="49.76854" lon="2.13827">
        <ele>112.4</ele>
        <time>2023-06-21T14:33:01Z</time>
      </trkpt>
      <trkpt lat="49.76854" lon="2.13827">
        <ele>112.4</ele>
        <time>2023-06-21T14:33:02Z</time>
      </trkpt>
      <trkpt lat="49.76854" lon="2.13828">
        <ele>112.4</ele>
        <time>2023-06-21T14:33:03Z</time>
      </trkpt>
      <trkpt lat="49.76853" lon="2.13828">
        <ele>112.3</ele>
        <time>2023-06-21T14:33:04Z</time>
      </trkpt>
      <trkpt lat="49.76853" lon="2.13828">
        <ele>112.3</ele>
        <time>2023-06-21T14:33:05Z</time>
      </trkpt>
      <trkpt lat="49.76853" lon="2.13829">
        <ele>112.3</ele>
        <time>2023-06-21T14:33:07Z</time>
      </trkpt>
      <trkpt lat="49.76852" lon="2.1383">
        <ele>112.2</ele>
        <time>2023-06-21T14:33:08Z</time>
      </trkpt>
      <trkpt lat="49.76852" lon="2.13831">
        <ele>112.2</ele>
        <time>2023-06-21T14:33:09Z</time>
      </trkpt>
      <trkpt lat="49.76852" lon="2.13833">
        <ele>112.1</ele>
        <time>2023-06-21T14:33:10Z</time>
      </trkpt>
      <trkpt lat="49.76852" lon="2.13834">
        <ele>112</ele>
        <time>2023-06-21T14:33:11Z</time>
      </trkpt>
      <trkpt lat="49.76852" lon="2.13835">
        <ele>112</ele>
        <time>2023-06-21T14:33:12Z</time>
      </trkpt>
      <trkpt lat="49.76853" lon="2.13837">
        <ele>111.9</ele>
        <time>2023-06-21T14:33:13Z</time>
      </trkpt>
      <trkpt lat="49.76853" lon="2.13838">
        <ele>111.8</ele>
        <time>2023-06-21T14:33:15Z</time>
      </trkpt>
      <trkpt lat="49.76853" lon="2.13839">
        <ele>111.8</ele>
        <time>2023-06-21T14:33:16Z</time>
      </trkpt>
      <trkpt lat="49.76854" lon="2.1384">
        <ele>111.7</ele>
        <time>2023-06-21T14:33:17Z</time>
      </trkpt>
      <trkpt lat="49.76854" lon="2.13841">
        <ele>111.7</ele>
        <time>2023-06-21T14:33:18Z</time>
      </trkpt>
      <trkpt lat="49.76854" lon="2.13842">
        <ele>111.6</ele>
        <time>2023-06-21T14:33:20Z</time>
      </trkpt>
      <trkpt lat="49.76854" lon="2.13843">
        <ele>111.6</ele>
        <time>2023-06-21T14:33:21Z</time>
      </trkpt>
      <trkpt lat="49.76855" lon="2.13844">
        <ele>111.5</ele>
        <time>2023-06-21T14:33:22Z</time>
      </trkpt>
      <trkpt lat="49.76855" lon="2.13845">
        <ele>111.5</ele>
        <time>2023-06-21T14:33:23Z</time>
      </trkpt>
      <trkpt lat="49.76855" lon="2.13846">
        <ele>111.4</ele>
        <time>2023-06-21T14:33:24Z</time>
      </trkpt>
      <trkpt lat="49.76856" lon="2.13848">
        <ele>111.4</ele>
        <time>2023-06-21T14:33:25Z</time>
      </trkpt>
      <trkpt lat="49.76856" lon="2.1385">
        <ele>111.2</ele>
        <time>2023-06-21T14:33:26Z</time>
      </trkpt>
      <trkpt lat="49.76856" lon="2.13853">
        <ele>111.1</ele>
        <time>2023-06-21T14:33:27Z</time>
      </trkpt>
      <trkpt lat="49.76856" lon="2.13855">
        <ele>111</ele>
        <time>2023-06-21T14:33:29Z</time>
      </trkpt>
      <trkpt lat="49.76856" lon="2.13858">
        <ele>110.9</ele>
        <time>2023-06-21T14:33:30Z</time>
      </trkpt>
      <trkpt lat="49.76856" lon="2.13861">
        <ele>110.8</ele>
        <time>2023-06-21T14:33:31Z</time>
      </trkpt>
      <trkpt lat="49.76856" lon="2.13863">
        <ele>110.7</ele>
        <time>2023-06-21T14:33:32Z</time>
      </trkpt>
      <trkpt lat="49.76856" lon="2.13866">
        <ele>110.5</ele>
        <time>2023-06-21T14:33:34Z</time>
      </trkpt>
      <trkpt lat="49.76856" lon="2.13869">
        <ele>110.4</ele>
        <time>2023-06-21T14:33:35Z</time>
      </trkpt>
      <trkpt lat="49.76856" lon="2.1387">
        <ele>110.3</ele>
        <time>2023-06-21T14:33:36Z</time>
      </trkpt>
      <trkpt lat="49.76856" lon="2.13871">
        <ele>110.3</ele>
        <time>2023-06-21T14:33:37Z</time>
      </trkpt>
      <trkpt lat="49.76856" lon="2.13873">
        <ele>110.2</ele>
        <time>2023-06-21T14:33:38Z</time>
      </trkpt>
      <trkpt lat="49.76856" lon="2.13873">
        <ele>110.2</ele>
        <time>2023-06-21T14:33:39Z</time>
      </trkpt>
      <trkpt lat="49.76855" lon="2.13874">
        <ele>110.2</ele>
        <time>2023-06-21T14:33:41Z</time>
      </trkpt>
      <trkpt lat="49.76855" lon="2.13874">
        <ele>110.1</ele>
        <time>2023-06-21T14:33:42Z</time>
      </trkpt>
      <trkpt lat="49.76855" lon="2.13875">
        <ele>110.1</ele>
        <time>2023-06-21T14:33:43Z</time>
      </trkpt>
      <trkpt lat="49.76855" lon="2.13875">
        <ele>110.1</ele>
        <time>2023-06-21T14:33:44Z</time>
      </trkpt>
      <trkpt lat="49.76854" lon="2.13876">
        <ele>110</ele>
        <time>2023-06-21T14:33:45Z</time>
      </trkpt>
      <trkpt lat="49.76853" lon="2.13878">
        <ele>109.9</ele>
        <time>2023-06-21T14:33:46Z</time>
      </trkpt>
      <trkpt lat="49.76852" lon="2.13881">
        <ele>109.8</ele>
        <time>2023-06-21T14:33:48Z</time>
      </trkpt>
      <trkpt lat="49.76852" lon="2.13883">
        <ele>109.7</ele>
        <time>2023-06-21T14:33:49Z</time>
      </trkpt>
      <trkpt lat="49.76853" lon="2.13884">
        <ele>109.6</ele>
        <time>2023-06-21T14:33:50Z</time>
      </trkpt>
      <trkpt lat="49.76854" lon="2.13887">
        <ele>109.4</ele>
        <time>2023-06-21T14:33:52Z</time>
      </trkpt>
      <trkpt lat="49.76855" lon="2.13886">
        <ele>109.3</ele>
        <time>2023-06-21T14:33:53Z</time>
      </trkpt>
      <trkpt lat="49.76857" lon="2.13885">
        <ele>109.2</ele>
        <time>2023-06-21T14:33:54Z</time>
      </trkpt>
      <trkpt lat="49.76858" lon="2.13884">
        <ele>109.1</ele>
        <time>2023-06-21T14:33:56Z</time>
      </trkpt>
      <trkpt lat="49.76858" lon="2.13884">
        <ele>109.1</ele>
        <time>2023-06-21T14:33:57Z</time>
      </trkpt>
      <trkpt lat="49.76858" lon="2.13884">
        <ele>109.1</ele>
        <time>2023-06-21T14:33:58Z</time>
      </trkpt>
      <trkpt lat="49.76858" lon="2.13884">
        <ele>109.1</ele>
        <time>2023-06-21T14:34:00Z</time>
      </trkpt>
      <trkpt lat="49.76858" lon="2.13883">
        <ele>109.1</ele>
        <time>2023-06-21T14:34:01Z</time>
      </trkpt>
      <trkpt lat="49.76858" lon="2.13883">
        <ele>109.1</ele>
        <time>2023-06-21T14:34:03Z</time>
      </trkpt>
      <trkpt lat="49.76858" lon="2.13883">
        <ele>109.1</ele>
        <time>2023-06-21T14:34:04Z</time>
      </trkpt>
      <trkpt lat="49.76858" lon="2.13883">
        <ele>109.1</ele>
        <time>2023-06-21T14:34:06Z</time>
      </trkpt>
      <trkpt lat="49.76858" lon="2.13883">
        <ele>109.1</ele>
        <time>2023-06-21T14:34:07Z</time>
      </trkpt>
      <trkpt lat="49.76858" lon="2.13883">
        <ele>109.1</ele>
        <time>2023-06-21T14:34:08Z</time>
      </trkpt>
      <trkpt lat="49.76858" lon="2.13883">
        <ele>109.1</ele>
        <time>2023-06-21T14:34:09Z</time>
      </trkpt>
      <trkpt lat="49.76858" lon="2.13883">
        <ele>109.1</ele>
        <time>2023-06-21T14:34:10Z</time>
      </trkpt>
      <trkpt lat="49.76858" lon="2.13883">
        <ele>109.1</ele>
        <time>2023-06-21T14:34:11Z</time>
      </trkpt>
      <trkpt lat="49.76858" lon="2.13883">
        <ele>109.1</ele>
        <time>2023-06-21T14:34:12Z</time>
      </trkpt>
      <trkpt lat="49.76858" lon="2.13883">
        <ele>109.1</ele>
        <time>2023-06-21T14:34:13Z</time>
      </trkpt>
      <trkpt lat="49.76858" lon="2.13882">
        <ele>109.1</ele>
        <time>2023-06-21T14:34:14Z</time>
      </trkpt>
      <trkpt lat="49.76858" lon="2.13882">
        <ele>109</ele>
        <time>2023-06-21T14:34:15Z</time>
      </trkpt>
      <trkpt lat="49.76858" lon="2.13882">
        <ele>109</ele>
        <time>2023-06-21T14:34:16Z</time>
      </trkpt>
      <trkpt lat="49.76858" lon="2.13882">
        <ele>109</ele>
        <time>2023-06-21T14:34:17Z</time>
      </trkpt>
      <trkpt lat="49.76858" lon="2.13882">
        <ele>109</ele>
        <time>2023-06-21T14:34:18Z</time>
      </trkpt>
      <trkpt lat="49.76858" lon="2.13882">
        <ele>109</ele>
        <time>2023-06-21T14:34:19Z</time>
      </trkpt>
      <trkpt lat="49.76858" lon="2.13882">
        <ele>109</ele>
        <time>2023-06-21T14:34:20Z</time>
      </trkpt>
      <trkpt lat="49.76858" lon="2.13882">
        <ele>109</ele>
        <time>2023-06-21T14:34:21Z</time>
      </trkpt>
      <trkpt lat="49.76858" lon="2.13882">
        <ele>109</ele>
        <time>2023-06-21T14:34:22Z</time>
      </trkpt>
      <trkpt lat="49.76858" lon="2.13882">
        <ele>109</ele>
        <time>2023-06-21T14:34:23Z</time>
      </trkpt>
      <trkpt lat="49.76858" lon="2.13882">
        <ele>109</ele>
        <time>2023-06-21T14:34:24Z</time>
      </trkpt>
      <trkpt lat="49.76858" lon="2.13881">
        <ele>109</ele>
        <time>2023-06-21T14:34:25Z</time>
      </trkpt>
      <trkpt lat="49.76858" lon="2.13881">
        <ele>109</ele>
        <time>2023-06-21T14:34:26Z</time>
      </trkpt>
      <trkpt lat="49.76858" lon="2.13881">
        <ele>109</ele>
        <time>2023-06-21T14:34:27Z</time>
      </trkpt>
      <trkpt lat="49.76858" lon="2.13881">
        <ele>109</ele>
        <time>2023-06-21T14:34:28Z</time>
      </trkpt>
      <trkpt lat="49.76858" lon="2.13881">
        <ele>109</ele>
        <time>2023-06-21T14:34:29Z</time>
      </trkpt>
      <trkpt lat="49.76858" lon="2.13881">
        <ele>109</ele>
        <time>2023-06-21T14:34:30Z</time>
      </trkpt>
      <trkpt lat="49.76858" lon="2.13881">
        <ele>109</ele>
        <time>2023-06-21T14:34:31Z</time>
      </trkpt>
      <trkpt lat="49.76858" lon="2.13881">
        <ele>109</ele>
        <time>2023-06-21T14:34:32Z</time>
      </trkpt>
      <trkpt lat="49.76858" lon="2.13881">
        <ele>109</ele>
        <time>2023-06-21T14:34:33Z</time>
      </trkpt>
      <trkpt lat="49.76858" lon="2.13881">
        <ele>109</ele>
        <time>2023-06-21T14:34:34Z</time>
      </trkpt>
      <trkpt lat="49.76858" lon="2.1388">
        <ele>109</ele>
        <time>2023-06-21T14:34:35Z</time>
      </trkpt>
      <trkpt lat="49.76858" lon="2.1388">
        <ele>108.9</ele>
        <time>2023-06-21T14:34:36Z</time>
      </trkpt>
      <trkpt lat="49.76858" lon="2.1388">
        <ele>108.9</ele>
        <time>2023-06-21T14:34:37Z</time>
      </trkpt>
      <trkpt lat="49.76858" lon="2.1388">
        <ele>108.9</ele>
        <time>2023-06-21T14:34:38Z</time>
      </trkpt>
      <trkpt lat="49.76858" lon="2.1388">
        <ele>108.9</ele>
        <time>2023-06-21T14:34:39Z</time>
      </trkpt>
      <trkpt lat="49.76858" lon="2.1388">
        <ele>108.9</ele>
        <time>2023-06-21T14:34:40Z</time>
      </trkpt>
      <trkpt lat="49.76858" lon="2.1388">
        <ele>108.9</ele>
        <time>2023-06-21T14:34:41Z</time>
      </trkpt>
      <trkpt lat="49.76858" lon="2.1388">
        <ele>108.9</ele>
        <time>2023-06-21T14:34:42Z</time>
      </trkpt>
      <trkpt lat="49.76858" lon="2.1388">
        <ele>108.9</ele>
        <time>2023-06-21T14:34:43Z</time>
      </trkpt>
      <trkpt lat="49.76858" lon="2.1388">
        <ele>108.9</ele>
        <time>2023-06-21T14:34:44Z</time>
      </trkpt>
      <trkpt lat="49.76858" lon="2.1388">
        <ele>108.9</ele>
        <time>2023-06-21T14:34:45Z</time>
      </trkpt>
      <trkpt lat="49.76858" lon="2.13879">
        <ele>108.9</ele>
        <time>2023-06-21T14:34:46Z</time>
      </trkpt>
      <trkpt lat="49.76858" lon="2.13879">
        <ele>108.9</ele>
        <time>2023-06-21T14:34:47Z</time>
      </trkpt>
      <trkpt lat="49.76858" lon="2.13879">
        <ele>108.9</ele>
        <time>2023-06-21T14:34:48Z</time>
      </trkpt>
      <trkpt lat="49.76858" lon="2.13879">
        <ele>108.9</ele>
        <time>2023-06-21T14:34:49Z</time>
      </trkpt>
      <trkpt lat="49.76858" lon="2.13879">
        <ele>108.9</ele>
        <time>2023-06-21T14:34:50Z</time>
      </trkpt>
      <trkpt lat="49.76858" lon="2.13879">
        <ele>108.9</ele>
        <time>2023-06-21T14:34:51Z</time>
      </trkpt>
      <trkpt lat="49.76858" lon="2.13879">
        <ele>108.9</ele>
        <time>2023-06-21T14:34:52Z</time>
      </trkpt>
      <trkpt lat="49.76858" lon="2.13879">
        <ele>108.9</ele>
        <time>2023-06-21T14:34:53Z</time>
      </trkpt>
      <trkpt lat="49.76858" lon="2.13879">
        <ele>108.9</ele>
        <time>2023-06-21T14:34:54Z</time>
      </trkpt>
      <trkpt lat="49.76858" lon="2.13879">
        <ele>108.9</ele>
        <time>2023-06-21T14:34:55Z</time>
      </trkpt>
      <trkpt lat="49.76858" lon="2.13879">
        <ele>108.9</ele>
        <time>2023-06-21T14:34:56Z</time>
      </trkpt>
      <trkpt lat="49.76858" lon="2.13878">
        <ele>108.8</ele>
        <time>2023-06-21T14:34:57Z</time>
      </trkpt>
      <trkpt lat="49.76858" lon="2.13878">
        <ele>108.8</ele>
        <time>2023-06-21T14:34:58Z</time>
      </trkpt>
      <trkpt lat="49.76858" lon="2.13878">
        <ele>108.8</ele>
        <time>2023-06-21T14:34:59Z</time>
      </trkpt>
      <trkpt lat="49.76858" lon="2.13878">
        <ele>108.8</ele>
        <time>2023-06-21T14:35:00Z</time>
      </trkpt>
      <trkpt lat="49.76858" lon="2.13878">
        <ele>108.8</ele>
        <time>2023-06-21T14:35:01Z</time>
      </trkpt>
      <trkpt lat="49.76858" lon="2.13878">
        <ele>108.8</ele>
        <time>2023-06-21T14:35:02Z</time>
      </trkpt>
      <trkpt lat="49.76858" lon="2.13878">
        <ele>108.8</ele>
        <time>2023-06-21T14:35:03Z</time>
      </trkpt>
      <trkpt lat="49.76858" lon="2.13878">
        <ele>108.8</ele>
        <time>2023-06-21T14:35:04Z</time>
      </trkpt>
      <trkpt lat="49.76859" lon="2.13878">
        <ele>108.8</ele>
        <time>2023-06-21T14:35:05Z</time>
      </trkpt>
      <trkpt lat="49.76859" lon="2.13878">
        <ele>108.8</ele>
        <time>2023-06-21T14:35:06Z</time>
      </trkpt>
      <trkpt lat="49.76859" lon="2.13877">
        <ele>108.8</ele>
        <time>2023-06-21T14:35:07Z</time>
      </trkpt>
      <trkpt lat="49.76859" lon="2.13877">
        <ele>108.8</ele>
        <time>2023-06-21T14:35:08Z</time>
      </trkpt>
      <trkpt lat="49.76859" lon="2.13877">
        <ele>108.8</ele>
        <time>2023-06-21T14:35:09Z</time>
      </trkpt>
      <trkpt lat="49.76859" lon="2.13877">
        <ele>108.8</ele>
        <time>2023-06-21T14:35:10Z</time>
      </trkpt>
      <trkpt lat="49.76859" lon="2.13877">
        <ele>108.8</ele>
        <time>2023-06-21T14:35:11Z</time>
      </trkpt>
      <trkpt lat="49.76859" lon="2.13877">
        <ele>108.8</ele>
        <time>2023-06-21T14:35:12Z</time>
      </trkpt>
      <trkpt lat="49.76859" lon="2.13877">
        <ele>108.8</ele>
        <time>2023-06-21T14:35:13Z</time>
      </trkpt>
      <trkpt lat="49.76859" lon="2.13877">
        <ele>108.8</ele>
        <time>2023-06-21T14:35:14Z</time>
      </trkpt>
      <trkpt lat="49.76859" lon="2.13877">
        <ele>108.8</ele>
        <time>2023-06-21T14:35:15Z</time>
      </trkpt>
      <trkpt lat="49.76859" lon="2.13877">
        <ele>108.8</ele>
        <time>2023-06-21T14:35:16Z</time>
      </trkpt>
      <trkpt lat="49.76859" lon="2.13877">
        <ele>108.8</ele>
        <time>2023-06-21T14:35:17Z</time>
      </trkpt>
      <trkpt lat="49.76859" lon="2.13876">
        <ele>108.7</ele>
        <time>2023-06-21T14:35:18Z</time>
      </trkpt>
      <trkpt lat="49.76859" lon="2.13876">
        <ele>108.7</ele>
        <time>2023-06-21T14:35:19Z</time>
      </trkpt>
      <trkpt lat="49.76859" lon="2.13876">
        <ele>108.7</ele>
        <time>2023-06-21T14:35:20Z</time>
      </trkpt>
      <trkpt lat="49.76859" lon="2.13876">
        <ele>108.7</ele>
        <time>2023-06-21T14:35:21Z</time>
      </trkpt>
      <trkpt lat="49.76859" lon="2.13876">
        <ele>108.7</ele>
        <time>2023-06-21T14:35:22Z</time>
      </trkpt>
      <trkpt lat="49.76859" lon="2.13876">
        <ele>108.7</ele>
        <time>2023-06-21T14:35:23Z</time>
      </trkpt>
      <trkpt lat="49.76859" lon="2.13876">
        <ele>108.7</ele>
        <time>2023-06-21T14:35:24Z</time>
      </trkpt>
      <trkpt lat="49.76859" lon="2.13876">
        <ele>108.7</ele>
        <time>2023-06-21T14:35:25Z</time>
      </trkpt>
      <trkpt lat="49.76859" lon="2.13876">
        <ele>108.7</ele>
        <time>2023-06-21T14:35:26Z</time>
      </trkpt>
      <trkpt lat="49.76859" lon="2.13876">
        <ele>108.7</ele>
        <time>2023-06-21T14:35:27Z</time>
      </trkpt>
      <trkpt lat="49.76859" lon="2.13876">
        <ele>108.7</ele>
        <time>2023-06-21T14:35:28Z</time>
      </trkpt>
      <trkpt lat="49.76859" lon="2.13875">
        <ele>108.7</ele>
        <time>2023-06-21T14:35:29Z</time>
      </trkpt>
      <trkpt lat="49.76859" lon="2.13875">
        <ele>108.7</ele>
        <time>2023-06-21T14:35:30Z</time>
      </trkpt>
      <trkpt lat="49.76859" lon="2.13875">
        <ele>108.7</ele>
        <time>2023-06-21T14:35:31Z</time>
      </trkpt>
      <trkpt lat="49.76859" lon="2.13875">
        <ele>108.7</ele>
        <time>2023-06-21T14:35:32Z</time>
      </trkpt>
      <trkpt lat="49.76859" lon="2.13875">
        <ele>108.7</ele>
        <time>2023-06-21T14:35:33Z</time>
      </trkpt>
      <trkpt lat="49.76859" lon="2.13875">
        <ele>108.7</ele>
        <time>2023-06-21T14:35:34Z</time>
      </trkpt>
      <trkpt lat="49.76859" lon="2.13875">
        <ele>108.7</ele>
        <time>2023-06-21T14:35:35Z</time>
      </trkpt>
      <trkpt lat="49.76859" lon="2.13875">
        <ele>108.7</ele>
        <time>2023-06-21T14:35:36Z</time>
      </trkpt>
      <trkpt lat="49.76859" lon="2.13875">
        <ele>108.7</ele>
        <time>2023-06-21T14:35:37Z</time>
      </trkpt>
      <trkpt lat="49.76859" lon="2.13875">
        <ele>108.7</ele>
        <time>2023-06-21T14:35:38Z</time>
      </trkpt>
      <trkpt lat="49.76859" lon="2.13874">
        <ele>108.6</ele>
        <time>2023-06-21T14:35:39Z</time>
      </trkpt>
      <trkpt lat="49.76859" lon="2.13874">
        <ele>108.6</ele>
        <time>2023-06-21T14:35:40Z</time>
      </trkpt>
      <trkpt lat="49.76859" lon="2.13874">
        <ele>108.6</ele>
        <time>2023-06-21T14:35:41Z</time>
      </trkpt>
      <trkpt lat="49.76859" lon="2.13872">
        <ele>108.5</ele>
        <time>2023-06-21T14:35:42Z</time>
      </trkpt>
      <trkpt lat="49.76859" lon="2.13871">
        <ele>108.5</ele>
        <time>2023-06-21T14:35:43Z</time>
      </trkpt>
      <trkpt lat="49.76859" lon="2.1387">
        <ele>108.4</ele>
        <time>2023-06-21T14:35:44Z</time>
      </trkpt>
      <trkpt lat="49.76859" lon="2.1387">
        <ele>108.4</ele>
        <time>2023-06-21T14:35:45Z</time>
      </trkpt>
      <trkpt lat="49.76859" lon="2.1387">
        <ele>108.4</ele>
        <time>2023-06-21T14:35:46Z</time>
      </trkpt>
      <trkpt lat="49.76859" lon="2.1387">
        <ele>108.4</ele>
        <time>2023-06-21T14:35:47Z</time>
      </trkpt>
      <trkpt lat="49.76859" lon="2.1387">
        <ele>108.4</ele>
        <time>2023-06-21T14:35:48Z</time>
      </trkpt>
      <trkpt lat="49.76859" lon="2.1387">
        <ele>108.4</ele>
        <time>2023-06-21T14:35:49Z</time>
      </trkpt>
      <trkpt lat="49.76859" lon="2.1387">
        <ele>108.4</ele>
        <time>2023-06-21T14:35:50Z</time>
      </trkpt>
      <trkpt lat="49.76859" lon="2.1387">
        <ele>108.4</ele>
        <time>2023-06-21T14:35:51Z</time>
      </trkpt>
      <trkpt lat="49.76859" lon="2.13871">
        <ele>108.4</ele>
        <time>2023-06-21T14:35:52Z</time>
      </trkpt>
      <trkpt lat="49.76859" lon="2.13871">
        <ele>108.4</ele>
        <time>2023-06-21T14:35:53Z</time>
      </trkpt>
      <trkpt lat="49.76859" lon="2.13871">
        <ele>108.4</ele>
        <time>2023-06-21T14:35:54Z</time>
      </trkpt>
      <trkpt lat="49.76859" lon="2.13871">
        <ele>108.4</ele>
        <time>2023-06-21T14:35:55Z</time>
      </trkpt>
      <trkpt lat="49.76859" lon="2.13871">
        <ele>108.4</ele>
        <time>2023-06-21T14:35:56Z</time>
      </trkpt>
      <trkpt lat="49.76859" lon="2.13871">
        <ele>108.4</ele>
        <time>2023-06-21T14:35:57Z</time>
      </trkpt>
      <trkpt lat="49.76859" lon="2.13871">
        <ele>108.4</ele>
        <time>2023-06-21T14:35:58Z</time>
      </trkpt>
      <trkpt lat="49.76859" lon="2.13871">
        <ele>108.4</ele>
        <time>2023-06-21T14:35:59Z</time>
      </trkpt>
      <trkpt lat="49.76859" lon="2.13871">
        <ele>108.4</ele>
        <time>2023-06-21T14:36:00Z</time>
      </trkpt>
      <trkpt lat="49.76859" lon="2.13871">
        <ele>108.4</ele>
        <time>2023-06-21T14:36:01Z</time>
      </trkpt>
      <trkpt lat="49.76859" lon="2.13871">
        <ele>108.4</ele>
        <time>2023-06-21T14:36:02Z</time>
      </trkpt>
      <trkpt lat="49.76859" lon="2.13871">
        <ele>108.4</ele>
        <time>2023-06-21T14:36:03Z</time>
      </trkpt>
      <trkpt lat="49.76859" lon="2.13871">
        <ele>108.4</ele>
        <time>2023-06-21T14:36:04Z</time>
      </trkpt>
      <trkpt lat="49.76859" lon="2.13871">
        <ele>108.4</ele>
        <time>2023-06-21T14:36:05Z</time>
      </trkpt>
      <trkpt lat="49.76859" lon="2.13871">
        <ele>108.4</ele>
        <time>2023-06-21T14:36:06Z</time>
      </trkpt>
      <trkpt lat="49.76859" lon="2.13872">
        <ele>108.4</ele>
        <time>2023-06-21T14:36:08Z</time>
      </trkpt>
      <trkpt lat="49.76859" lon="2.13872">
        <ele>108.4</ele>
        <time>2023-06-21T14:36:10Z</time>
      </trkpt>
      <trkpt lat="49.76859" lon="2.13872">
        <ele>108.4</ele>
        <time>2023-06-21T14:36:11Z</time>
      </trkpt>
      <trkpt lat="49.76859" lon="2.13872">
        <ele>108.4</ele>
        <time>2023-06-21T14:36:13Z</time>
      </trkpt>
      <trkpt lat="49.76859" lon="2.13872">
        <ele>108.4</ele>
        <time>2023-06-21T14:36:14Z</time>
      </trkpt>
      <trkpt lat="49.76859" lon="2.13872">
        <ele>108.4</ele>
        <time>2023-06-21T14:36:15Z</time>
      </trkpt>
      <trkpt lat="49.76859" lon="2.13872">
        <ele>108.4</ele>
        <time>2023-06-21T14:36:17Z</time>
      </trkpt>
      <trkpt lat="49.76859" lon="2.13872">
        <ele>108.4</ele>
        <time>2023-06-21T14:36:18Z</time>
      </trkpt>
      <trkpt lat="49.76859" lon="2.13872">
        <ele>108.3</ele>
        <time>2023-06-21T14:36:19Z</time>
      </trkpt>
      <trkpt lat="49.76859" lon="2.13872">
        <ele>108.3</ele>
        <time>2023-06-21T14:36:20Z</time>
      </trkpt>
      <trkpt lat="49.76859" lon="2.13872">
        <ele>108.3</ele>
        <time>2023-06-21T14:36:21Z</time>
      </trkpt>
      <trkpt lat="49.76859" lon="2.13872">
        <ele>108.3</ele>
        <time>2023-06-21T14:36:22Z</time>
      </trkpt>
      <trkpt lat="49.76859" lon="2.13872">
        <ele>108.3</ele>
        <time>2023-06-21T14:36:23Z</time>
      </trkpt>
      <trkpt lat="49.76859" lon="2.13872">
        <ele>108.3</ele>
        <time>2023-06-21T14:36:24Z</time>
      </trkpt>
      <trkpt lat="49.76859" lon="2.13872">
        <ele>108.3</ele>
        <time>2023-06-21T14:36:25Z</time>
      </trkpt>
      <trkpt lat="49.76859" lon="2.13873">
        <ele>108.3</ele>
        <time>2023-06-21T14:36:26Z</time>
      </trkpt>
      <trkpt lat="49.76859" lon="2.13873">
        <ele>108.3</ele>
        <time>2023-06-21T14:36:27Z</time>
      </trkpt>
      <trkpt lat="49.76859" lon="2.13873">
        <ele>108.3</ele>
        <time>2023-06-21T14:36:28Z</time>
      </trkpt>
      <trkpt lat="49.76859" lon="2.13873">
        <ele>108.3</ele>
        <time>2023-06-21T14:36:29Z</time>
      </trkpt>
      <trkpt lat="49.76859" lon="2.13873">
        <ele>108.3</ele>
        <time>2023-06-21T14:36:30Z</time>
      </trkpt>
      <trkpt lat="49.76859" lon="2.13873">
        <ele>108.3</ele>
        <time>2023-06-21T14:36:31Z</time>
      </trkpt>
      <trkpt lat="49.76859" lon="2.13873">
        <ele>108.3</ele>
        <time>2023-06-21T14:36:32Z</time>
      </trkpt>
      <trkpt lat="49.76859" lon="2.13873">
        <ele>108.3</ele>
        <time>2023-06-21T14:36:33Z</time>
      </trkpt>
      <trkpt lat="49.76859" lon="2.13873">
        <ele>108.3</ele>
        <time>2023-06-21T14:36:34Z</time>
      </trkpt>
      <trkpt lat="49.76859" lon="2.13873">
        <ele>108.3</ele>
        <time>2023-06-21T14:36:35Z</time>
      </trkpt>
      <trkpt lat="49.76859" lon="2.13873">
        <ele>108.3</ele>
        <time>2023-06-21T14:36:36Z</time>
      </trkpt>
      <trkpt lat="49.76859" lon="2.13873">
        <ele>108.3</ele>
        <time>2023-06-21T14:36:37Z</time>
      </trkpt>
      <trkpt lat="49.76859" lon="2.13873">
        <ele>108.3</ele>
        <time>2023-06-21T14:36:38Z</time>
      </trkpt>
      <trkpt lat="49.76859" lon="2.13873">
        <ele>108.3</ele>
        <time>2023-06-21T14:36:39Z</time>
      </trkpt>
      <trkpt lat="49.76859" lon="2.13873">
        <ele>108.3</ele>
        <time>2023-06-21T14:36:40Z</time>
      </trkpt>
      <trkpt lat="49.76859" lon="2.13874">
        <ele>108.3</ele>
        <time>2023-06-21T14:36:41Z</time>
      </trkpt>
      <trkpt lat="49.76859" lon="2.13874">
        <ele>108.3</ele>
        <time>2023-06-21T14:36:42Z</time>
      </trkpt>
      <trkpt lat="49.76859" lon="2.13874">
        <ele>108.3</ele>
        <time>2023-06-21T14:36:43Z</time>
      </trkpt>
      <trkpt lat="49.76859" lon="2.13874">
        <ele>108.3</ele>
        <time>2023-06-21T14:36:44Z</time>
      </trkpt>
      <trkpt lat="49.76859" lon="2.13874">
        <ele>108.3</ele>
        <time>2023-06-21T14:36:45Z</time>
      </trkpt>
      <trkpt lat="49.76859" lon="2.13874">
        <ele>108.3</ele>
        <time>2023-06-21T14:36:46Z</time>
      </trkpt>
      <trkpt lat="49.76859" lon="2.13874">
        <ele>108.3</ele>
        <time>2023-06-21T14:36:47Z</time>
      </trkpt>
      <trkpt lat="49.76859" lon="2.13874">
        <ele>108.3</ele>
        <time>2023-06-21T14:36:48Z</time>
      </trkpt>
      <trkpt lat="49.76859" lon="2.13874">
        <ele>108.3</ele>
        <time>2023-06-21T14:36:49Z</time>
      </trkpt>
      <trkpt lat="49.76859" lon="2.13874">
        <ele>108.2</ele>
        <time>2023-06-21T14:36:50Z</time>
      </trkpt>
      <trkpt lat="49.76859" lon="2.13874">
        <ele>108.2</ele>
        <time>2023-06-21T14:36:51Z</time>
      </trkpt>
      <trkpt lat="49.76859" lon="2.13874">
        <ele>108.2</ele>
        <time>2023-06-21T14:36:52Z</time>
      </trkpt>
      <trkpt lat="49.76859" lon="2.13874">
        <ele>108.2</ele>
        <time>2023-06-21T14:36:53Z</time>
      </trkpt>
      <trkpt lat="49.76859" lon="2.13874">
        <ele>108.2</ele>
        <time>2023-06-21T14:36:54Z</time>
      </trkpt>
      <trkpt lat="49.76859" lon="2.13874">
        <ele>108.2</ele>
        <time>2023-06-21T14:36:55Z</time>
      </trkpt>
      <trkpt lat="49.76859" lon="2.13875">
        <ele>108.2</ele>
        <time>2023-06-21T14:36:56Z</time>
      </trkpt>
      <trkpt lat="49.76859" lon="2.13875">
        <ele>108.2</ele>
        <time>2023-06-21T14:36:57Z</time>
      </trkpt>
      <trkpt lat="49.76859" lon="2.13875">
        <ele>108.2</ele>
        <time>2023-06-21T14:36:58Z</time>
      </trkpt>
      <trkpt lat="49.76859" lon="2.13875">
        <ele>108.2</ele>
        <time>2023-06-21T14:36:59Z</time>
      </trkpt>
      <trkpt lat="49.76859" lon="2.13875">
        <ele>108.2</ele>
        <time>2023-06-21T14:37:00Z</time>
      </trkpt>
      <trkpt lat="49.76859" lon="2.13875">
        <ele>108.2</ele>
        <time>2023-06-21T14:37:01Z</time>
      </trkpt>
      <trkpt lat="49.76859" lon="2.13875">
        <ele>108.2</ele>
        <time>2023-06-21T14:37:02Z</time>
      </trkpt>
      <trkpt lat="49.76859" lon="2.13875">
        <ele>108.2</ele>
        <time>2023-06-21T14:37:03Z</time>
      </trkpt>
      <trkpt lat="49.76859" lon="2.13875">
        <ele>108.2</ele>
        <time>2023-06-21T14:37:04Z</time>
      </trkpt>
      <trkpt lat="49.76859" lon="2.13875">
        <ele>108.2</ele>
        <time>2023-06-21T14:37:05Z</time>
      </trkpt>
      <trkpt lat="49.76859" lon="2.13875">
        <ele>108.2</ele>
        <time>2023-06-21T14:37:06Z</time>
      </trkpt>
      <trkpt lat="49.76859" lon="2.13875">
        <ele>108.2</ele>
        <time>2023-06-21T14:37:07Z</time>
      </trkpt>
      <trkpt lat="49.76859" lon="2.13875">
        <ele>108.2</ele>
        <time>2023-06-21T14:37:08Z</time>
      </trkpt>
      <trkpt lat="49.76859" lon="2.13875">
        <ele>108.2</ele>
        <time>2023-06-21T14:37:09Z</time>
      </trkpt>
      <trkpt lat="49.76859" lon="2.13875">
        <ele>108.2</ele>
        <time>2023-06-21T14:37:10Z</time>
      </trkpt>
      <trkpt lat="49.76859" lon="2.13876">
        <ele>108.2</ele>
        <time>2023-06-21T14:37:11Z</time>
      </trkpt>
      <trkpt lat="49.76859" lon="2.13876">
        <ele>108.2</ele>
        <time>2023-06-21T14:37:12Z</time>
      </trkpt>
      <trkpt lat="49.76859" lon="2.13876">
        <ele>108.2</ele>
        <time>2023-06-21T14:37:13Z</time>
      </trkpt>
      <trkpt lat="49.76859" lon="2.13876">
        <ele>108.2</ele>
        <time>2023-06-21T14:37:14Z</time>
      </trkpt>
      <trkpt lat="49.76859" lon="2.13876">
        <ele>108.2</ele>
        <time>2023-06-21T14:37:16Z</time>
      </trkpt>
      <trkpt lat="49.76859" lon="2.13876">
        <ele>108.2</ele>
        <time>2023-06-21T14:37:17Z</time>
      </trkpt>
      <trkpt lat="49.76859" lon="2.1388">
        <ele>108</ele>
        <time>2023-06-21T14:37:18Z</time>
      </trkpt>
      <trkpt lat="49.7686" lon="2.13882">
        <ele>107.9</ele>
        <time>2023-06-21T14:37:19Z</time>
      </trkpt>
      <trkpt lat="49.7686" lon="2.13885">
        <ele>107.7</ele>
        <time>2023-06-21T14:37:21Z</time>
      </trkpt>
      <trkpt lat="49.76859" lon="2.13886">
        <ele>107.7</ele>
        <time>2023-06-21T14:37:22Z</time>
      </trkpt>
      <trkpt lat="49.76859" lon="2.13888">
        <ele>107.6</ele>
        <time>2023-06-21T14:37:23Z</time>
      </trkpt>
      <trkpt lat="49.76859" lon="2.13889">
        <ele>107.5</ele>
        <time>2023-06-21T14:37:24Z</time>
      </trkpt>
      <trkpt lat="49.76859" lon="2.13891">
        <ele>107.5</ele>
        <time>2023-06-21T14:37:25Z</time>
      </trkpt>
      <trkpt lat="49.76859" lon="2.13891">
        <ele>107.4</ele>
        <time>2023-06-21T14:37:26Z</time>
      </trkpt>
      <trkpt lat="49.76859" lon="2.13893">
        <ele>107.4</ele>
        <time>2023-06-21T14:37:28Z</time>
      </trkpt>
      <trkpt lat="49.76858" lon="2.13894">
        <ele>107.3</ele>
        <time>2023-06-21T14:37:29Z</time>
      </trkpt>
      <trkpt lat="49.76858" lon="2.13895">
        <ele>107.3</ele>
        <time>2023-06-21T14:37:30Z</time>
      </trkpt>
      <trkpt lat="49.76859" lon="2.13895">
        <ele>107.2</ele>
        <time>2023-06-21T14:37:31Z</time>
      </trkpt>
      <trkpt lat="49.76859" lon="2.13896">
        <ele>107.2</ele>
        <time>2023-06-21T14:37:32Z</time>
      </trkpt>
      <trkpt lat="49.76859" lon="2.13897">
        <ele>107.1</ele>
        <time>2023-06-21T14:37:34Z</time>
      </trkpt>
      <trkpt lat="49.76859" lon="2.13898">
        <ele>107.1</ele>
        <time>2023-06-21T14:37:35Z</time>
      </trkpt>
      <trkpt lat="49.7686" lon="2.139">
        <ele>107</ele>
        <time>2023-06-21T14:37:36Z</time>
      </trkpt>
      <trkpt lat="49.7686" lon="2.13902">
        <ele>106.9</ele>
        <time>2023-06-21T14:37:37Z</time>
      </trkpt>
      <trkpt lat="49.76861" lon="2.13905">
        <ele>106.7</ele>
        <time>2023-06-21T14:37:39Z</time>
      </trkpt>
      <trkpt lat="49.76861" lon="2.13907">
        <ele>106.6</ele>
        <time>2023-06-21T14:37:40Z</time>
      </trkpt>
      <trkpt lat="49.76862" lon="2.13912">
        <ele>106.4</ele>
        <time>2023-06-21T14:37:41Z</time>
      </trkpt>
      <trkpt lat="49.76862" lon="2.13914">
        <ele>106.2</ele>
        <time>2023-06-21T14:37:43Z</time>
      </trkpt>
      <trkpt lat="49.76862" lon="2.13915">
        <ele>106.1</ele>
        <time>2023-06-21T14:37:44Z</time>
      </trkpt>
      <trkpt lat="49.76863" lon="2.13917">
        <ele>106</ele>
        <time>2023-06-21T14:37:45Z</time>
      </trkpt>
      <trkpt lat="49.76863" lon="2.13922">
        <ele>105.8</ele>
        <time>2023-06-21T14:37:46Z</time>
      </trkpt>
      <trkpt lat="49.76863" lon="2.13924">
        <ele>105.7</ele>
        <time>2023-06-21T14:37:47Z</time>
      </trkpt>
      <trkpt lat="49.76863" lon="2.13928">
        <ele>105.5</ele>
        <time>2023-06-21T14:37:48Z</time>
      </trkpt>
      <trkpt lat="49.76863" lon="2.1393">
        <ele>105.4</ele>
        <time>2023-06-21T14:37:49Z</time>
      </trkpt>
      <trkpt lat="49.76863" lon="2.13933">
        <ele>105.2</ele>
        <time>2023-06-21T14:37:51Z</time>
      </trkpt>
      <trkpt lat="49.76864" lon="2.13934">
        <ele>105.1</ele>
        <time>2023-06-21T14:37:52Z</time>
      </trkpt>
      <trkpt lat="49.76864" lon="2.13936">
        <ele>105.1</ele>
        <time>2023-06-21T14:37:53Z</time>
      </trkpt>
      <trkpt lat="49.76864" lon="2.13937">
        <ele>105</ele>
        <time>2023-06-21T14:37:54Z</time>
      </trkpt>
      <trkpt lat="49.76864" lon="2.13939">
        <ele>104.9</ele>
        <time>2023-06-21T14:37:55Z</time>
      </trkpt>
      <trkpt lat="49.76864" lon="2.13941">
        <ele>104.8</ele>
        <time>2023-06-21T14:37:56Z</time>
      </trkpt>
      <trkpt lat="49.76864" lon="2.13944">
        <ele>104.7</ele>
        <time>2023-06-21T14:37:57Z</time>
      </trkpt>
      <trkpt lat="49.76864" lon="2.13945">
        <ele>104.6</ele>
        <time>2023-06-21T14:37:58Z</time>
      </trkpt>
      <trkpt lat="49.76864" lon="2.13946">
        <ele>104.5</ele>
        <time>2023-06-21T14:38:00Z</time>
      </trkpt>
      <trkpt lat="49.76864" lon="2.13947">
        <ele>104.5</ele>
        <time>2023-06-21T14:38:01Z</time>
      </trkpt>
      <trkpt lat="49.76864" lon="2.1395">
        <ele>104.3</ele>
        <time>2023-06-21T14:38:02Z</time>
      </trkpt>
      <trkpt lat="49.76864" lon="2.13952">
        <ele>104.3</ele>
        <time>2023-06-21T14:38:03Z</time>
      </trkpt>
      <trkpt lat="49.76864" lon="2.13953">
        <ele>104.2</ele>
        <time>2023-06-21T14:38:04Z</time>
      </trkpt>
      <trkpt lat="49.76864" lon="2.13955">
        <ele>104.1</ele>
        <time>2023-06-21T14:38:05Z</time>
      </trkpt>
      <trkpt lat="49.76864" lon="2.13957">
        <ele>104</ele>
        <time>2023-06-21T14:38:06Z</time>
      </trkpt>
      <trkpt lat="49.76865" lon="2.13958">
        <ele>103.9</ele>
        <time>2023-06-21T14:38:08Z</time>
      </trkpt>
      <trkpt lat="49.76865" lon="2.1396">
        <ele>103.8</ele>
        <time>2023-06-21T14:38:09Z</time>
      </trkpt>
      <trkpt lat="49.76865" lon="2.13962">
        <ele>103.8</ele>
        <time>2023-06-21T14:38:10Z</time>
      </trkpt>
      <trkpt lat="49.76865" lon="2.13963">
        <ele>103.7</ele>
        <time>2023-06-21T14:38:11Z</time>
      </trkpt>
      <trkpt lat="49.76866" lon="2.13965">
        <ele>103.6</ele>
        <time>2023-06-21T14:38:12Z</time>
      </trkpt>
      <trkpt lat="49.76866" lon="2.13967">
        <ele>103.5</ele>
        <time>2023-06-21T14:38:13Z</time>
      </trkpt>
      <trkpt lat="49.76867" lon="2.13972">
        <ele>103.2</ele>
        <time>2023-06-21T14:38:15Z</time>
      </trkpt>
      <trkpt lat="49.76867" lon="2.13974">
        <ele>103.1</ele>
        <time>2023-06-21T14:38:16Z</time>
      </trkpt>
      <trkpt lat="49.76868" lon="2.13976">
        <ele>103</ele>
        <time>2023-06-21T14:38:18Z</time>
      </trkpt>
      <trkpt lat="49.76868" lon="2.13979">
        <ele>102.9</ele>
        <time>2023-06-21T14:38:19Z</time>
      </trkpt>
      <trkpt lat="49.76868" lon="2.13982">
        <ele>102.7</ele>
        <time>2023-06-21T14:38:21Z</time>
      </trkpt>
      <trkpt lat="49.76868" lon="2.13983">
        <ele>102.7</ele>
        <time>2023-06-21T14:38:22Z</time>
      </trkpt>
      <trkpt lat="49.76868" lon="2.13984">
        <ele>102.6</ele>
        <time>2023-06-21T14:38:23Z</time>
      </trkpt>
      <trkpt lat="49.76867" lon="2.13986">
        <ele>102.5</ele>
        <time>2023-06-21T14:38:24Z</time>
      </trkpt>
      <trkpt lat="49.76866" lon="2.1399">
        <ele>102.3</ele>
        <time>2023-06-21T14:38:25Z</time>
      </trkpt>
      <trkpt lat="49.76866" lon="2.13991">
        <ele>102.2</ele>
        <time>2023-06-21T14:38:26Z</time>
      </trkpt>
      <trkpt lat="49.76866" lon="2.13993">
        <ele>102.1</ele>
        <time>2023-06-21T14:38:27Z</time>
      </trkpt>
      <trkpt lat="49.76866" lon="2.13995">
        <ele>102</ele>
        <time>2023-06-21T14:38:28Z</time>
      </trkpt>
      <trkpt lat="49.76866" lon="2.13997">
        <ele>101.9</ele>
        <time>2023-06-21T14:38:30Z</time>
      </trkpt>
      <trkpt lat="49.76865" lon="2.13999">
        <ele>101.8</ele>
        <time>2023-06-21T14:38:31Z</time>
      </trkpt>
      <trkpt lat="49.76865" lon="2.14001">
        <ele>101.7</ele>
        <time>2023-06-21T14:38:32Z</time>
      </trkpt>
      <trkpt lat="49.76865" lon="2.14003">
        <ele>101.6</ele>
        <time>2023-06-21T14:38:33Z</time>
      </trkpt>
      <trkpt lat="49.76865" lon="2.14005">
        <ele>101.5</ele>
        <time>2023-06-21T14:38:34Z</time>
      </trkpt>
      <trkpt lat="49.76865" lon="2.14006">
        <ele>101.4</ele>
        <time>2023-06-21T14:38:35Z</time>
      </trkpt>
      <trkpt lat="49.76865" lon="2.14008">
        <ele>101.3</ele>
        <time>2023-06-21T14:38:36Z</time>
      </trkpt>
      <trkpt lat="49.76865" lon="2.1401">
        <ele>101.2</ele>
        <time>2023-06-21T14:38:37Z</time>
      </trkpt>
      <trkpt lat="49.76865" lon="2.14012">
        <ele>101.1</ele>
        <time>2023-06-21T14:38:39Z</time>
      </trkpt>
      <trkpt lat="49.76865" lon="2.14015">
        <ele>101</ele>
        <time>2023-06-21T14:38:40Z</time>
      </trkpt>
      <trkpt lat="49.76865" lon="2.14015">
        <ele>101</ele>
        <time>2023-06-21T14:38:41Z</time>
      </trkpt>
      <trkpt lat="49.76866" lon="2.14016">
        <ele>100.9</ele>
        <time>2023-06-21T14:38:42Z</time>
      </trkpt>
      <trkpt lat="49.76866" lon="2.14018">
        <ele>100.9</ele>
        <time>2023-06-21T14:38:43Z</time>
      </trkpt>
      <trkpt lat="49.76866" lon="2.1402">
        <ele>100.7</ele>
        <time>2023-06-21T14:38:44Z</time>
      </trkpt>
      <trkpt lat="49.76866" lon="2.14021">
        <ele>100.7</ele>
        <time>2023-06-21T14:38:46Z</time>
      </trkpt>
      <trkpt lat="49.76866" lon="2.14022">
        <ele>100.6</ele>
        <time>2023-06-21T14:38:47Z</time>
      </trkpt>
      <trkpt lat="49.76866" lon="2.14023">
        <ele>100.6</ele>
        <time>2023-06-21T14:38:48Z</time>
      </trkpt>
      <trkpt lat="49.76866" lon="2.14025">
        <ele>100.5</ele>
        <time>2023-06-21T14:38:49Z</time>
      </trkpt>
      <trkpt lat="49.76866" lon="2.14028">
        <ele>100.3</ele>
        <time>2023-06-21T14:38:50Z</time>
      </trkpt>
      <trkpt lat="49.76866" lon="2.1403">
        <ele>100.2</ele>
        <time>2023-06-21T14:38:51Z</time>
      </trkpt>
      <trkpt lat="49.76866" lon="2.14032">
        <ele>100.1</ele>
        <time>2023-06-21T14:38:52Z</time>
      </trkpt>
      <trkpt lat="49.76867" lon="2.14033">
        <ele>100.1</ele>
        <time>2023-06-21T14:38:54Z</time>
      </trkpt>
      <trkpt lat="49.76867" lon="2.14034">
        <ele>100</ele>
        <time>2023-06-21T14:38:55Z</time>
      </trkpt>
      <trkpt lat="49.76867" lon="2.14036">
        <ele>100</ele>
        <time>2023-06-21T14:38:56Z</time>
      </trkpt>
      <trkpt lat="49.76867" lon="2.14037">
        <ele>99.9</ele>
        <time>2023-06-21T14:38:57Z</time>
      </trkpt>
      <trkpt lat="49.76867" lon="2.14039">
        <ele>99.8</ele>
        <time>2023-06-21T14:38:58Z</time>
      </trkpt>
      <trkpt lat="49.76867" lon="2.14042">
        <ele>99.7</ele>
        <time>2023-06-21T14:39:00Z</time>
      </trkpt>
      <trkpt lat="49.76867" lon="2.14043">
        <ele>99.7</ele>
        <time>2023-06-21T14:39:01Z</time>
      </trkpt>
      <trkpt lat="49.76867" lon="2.14044">
        <ele>99.6</ele>
        <time>2023-06-21T14:39:02Z</time>
      </trkpt>
      <trkpt lat="49.76867" lon="2.14045">
        <ele>99.6</ele>
        <time>2023-06-21T14:39:03Z</time>
      </trkpt>
      <trkpt lat="49.76867" lon="2.14047">
        <ele>99.5</ele>
        <time>2023-06-21T14:39:05Z</time>
      </trkpt>
      <trkpt lat="49.76867" lon="2.14048">
        <ele>99.4</ele>
        <time>2023-06-21T14:39:06Z</time>
      </trkpt>
      <trkpt lat="49.76867" lon="2.14049">
        <ele>99.4</ele>
        <time>2023-06-21T14:39:07Z</time>
      </trkpt>
      <trkpt lat="49.76868" lon="2.1405">
        <ele>99.4</ele>
        <time>2023-06-21T14:39:08Z</time>
      </trkpt>
      <trkpt lat="49.76868" lon="2.14051">
        <ele>99.3</ele>
        <time>2023-06-21T14:39:09Z</time>
      </trkpt>
      <trkpt lat="49.76868" lon="2.14054">
        <ele>99.2</ele>
        <time>2023-06-21T14:39:10Z</time>
      </trkpt>
      <trkpt lat="49.76868" lon="2.14055">
        <ele>99.1</ele>
        <time>2023-06-21T14:39:12Z</time>
      </trkpt>
      <trkpt lat="49.76868" lon="2.14057">
        <ele>99</ele>
        <time>2023-06-21T14:39:13Z</time>
      </trkpt>
      <trkpt lat="49.76868" lon="2.14059">
        <ele>99</ele>
        <time>2023-06-21T14:39:14Z</time>
      </trkpt>
      <trkpt lat="49.76868" lon="2.14061">
        <ele>98.8</ele>
        <time>2023-06-21T14:39:15Z</time>
      </trkpt>
      <trkpt lat="49.76868" lon="2.14064">
        <ele>98.7</ele>
        <time>2023-06-21T14:39:16Z</time>
      </trkpt>
      <trkpt lat="49.76868" lon="2.14066">
        <ele>98.6</ele>
        <time>2023-06-21T14:39:18Z</time>
      </trkpt>
      <trkpt lat="49.76867" lon="2.14068">
        <ele>98.5</ele>
        <time>2023-06-21T14:39:19Z</time>
      </trkpt>
      <trkpt lat="49.76867" lon="2.14068">
        <ele>98.5</ele>
        <time>2023-06-21T14:39:20Z</time>
      </trkpt>
      <trkpt lat="49.76867" lon="2.1407">
        <ele>98.4</ele>
        <time>2023-06-21T14:39:21Z</time>
      </trkpt>
      <trkpt lat="49.76867" lon="2.14073">
        <ele>98.2</ele>
        <time>2023-06-21T14:39:22Z</time>
      </trkpt>
      <trkpt lat="49.76867" lon="2.14074">
        <ele>98.2</ele>
        <time>2023-06-21T14:39:24Z</time>
      </trkpt>
      <trkpt lat="49.76867" lon="2.14076">
        <ele>98.1</ele>
        <time>2023-06-21T14:39:25Z</time>
      </trkpt>
      <trkpt lat="49.76867" lon="2.14077">
        <ele>98</ele>
        <time>2023-06-21T14:39:26Z</time>
      </trkpt>
      <trkpt lat="49.76867" lon="2.14078">
        <ele>98</ele>
        <time>2023-06-21T14:39:27Z</time>
      </trkpt>
      <trkpt lat="49.76868" lon="2.14079">
        <ele>97.9</ele>
        <time>2023-06-21T14:39:28Z</time>
      </trkpt>
      <trkpt lat="49.76868" lon="2.1408">
        <ele>97.9</ele>
        <time>2023-06-21T14:39:29Z</time>
      </trkpt>
      <trkpt lat="49.76869" lon="2.14082">
        <ele>97.7</ele>
        <time>2023-06-21T14:39:30Z</time>
      </trkpt>
      <trkpt lat="49.7687" lon="2.14084">
        <ele>97.6</ele>
        <time>2023-06-21T14:39:32Z</time>
      </trkpt>
      <trkpt lat="49.7687" lon="2.14085">
        <ele>97.6</ele>
        <time>2023-06-21T14:39:33Z</time>
      </trkpt>
      <trkpt lat="49.76871" lon="2.14086">
        <ele>97.5</ele>
        <time>2023-06-21T14:39:34Z</time>
      </trkpt>
      <trkpt lat="49.76871" lon="2.14087">
        <ele>97.4</ele>
        <time>2023-06-21T14:39:35Z</time>
      </trkpt>
      <trkpt lat="49.76871" lon="2.1409">
        <ele>97.3</ele>
        <time>2023-06-21T14:39:37Z</time>
      </trkpt>
      <trkpt lat="49.76872" lon="2.14091">
        <ele>97.2</ele>
        <time>2023-06-21T14:39:38Z</time>
      </trkpt>
      <trkpt lat="49.76872" lon="2.14094">
        <ele>97.1</ele>
        <time>2023-06-21T14:39:40Z</time>
      </trkpt>
      <trkpt lat="49.76873" lon="2.14096">
        <ele>97</ele>
        <time>2023-06-21T14:39:41Z</time>
      </trkpt>
      <trkpt lat="49.76873" lon="2.14097">
        <ele>96.9</ele>
        <time>2023-06-21T14:39:42Z</time>
      </trkpt>
      <trkpt lat="49.76873" lon="2.14099">
        <ele>96.9</ele>
        <time>2023-06-21T14:39:43Z</time>
      </trkpt>
      <trkpt lat="49.76874" lon="2.14101">
        <ele>96.8</ele>
        <time>2023-06-21T14:39:44Z</time>
      </trkpt>
      <trkpt lat="49.76874" lon="2.14102">
        <ele>96.7</ele>
        <time>2023-06-21T14:39:45Z</time>
      </trkpt>
      <trkpt lat="49.76874" lon="2.14103">
        <ele>96.7</ele>
        <time>2023-06-21T14:39:46Z</time>
      </trkpt>
      <trkpt lat="49.76875" lon="2.14105">
        <ele>96.6</ele>
        <time>2023-06-21T14:39:48Z</time>
      </trkpt>
      <trkpt lat="49.76875" lon="2.14106">
        <ele>96.6</ele>
        <time>2023-06-21T14:39:49Z</time>
      </trkpt>
      <trkpt lat="49.76875" lon="2.1411">
        <ele>96.4</ele>
        <time>2023-06-21T14:39:51Z</time>
      </trkpt>
      <trkpt lat="49.76875" lon="2.14113">
        <ele>96.3</ele>
        <time>2023-06-21T14:39:52Z</time>
      </trkpt>
      <trkpt lat="49.76875" lon="2.14114">
        <ele>96.2</ele>
        <time>2023-06-21T14:39:53Z</time>
      </trkpt>
      <trkpt lat="49.76875" lon="2.14116">
        <ele>96.2</ele>
        <time>2023-06-21T14:39:54Z</time>
      </trkpt>
      <trkpt lat="49.76875" lon="2.14118">
        <ele>96.1</ele>
        <time>2023-06-21T14:39:55Z</time>
      </trkpt>
      <trkpt lat="49.76875" lon="2.14121">
        <ele>96</ele>
        <time>2023-06-21T14:39:56Z</time>
      </trkpt>
      <trkpt lat="49.76875" lon="2.14124">
        <ele>95.8</ele>
        <time>2023-06-21T14:39:58Z</time>
      </trkpt>
      <trkpt lat="49.76875" lon="2.14125">
        <ele>95.8</ele>
        <time>2023-06-21T14:39:59Z</time>
      </trkpt>
      <trkpt lat="49.76876" lon="2.14127">
        <ele>95.7</ele>
        <time>2023-06-21T14:40:00Z</time>
      </trkpt>
      <trkpt lat="49.76876" lon="2.14127">
        <ele>95.7</ele>
        <time>2023-06-21T14:40:01Z</time>
      </trkpt>
      <trkpt lat="49.76876" lon="2.14129">
        <ele>95.6</ele>
        <time>2023-06-21T14:40:02Z</time>
      </trkpt>
      <trkpt lat="49.76876" lon="2.1413">
        <ele>95.6</ele>
        <time>2023-06-21T14:40:03Z</time>
      </trkpt>
      <trkpt lat="49.76876" lon="2.14132">
        <ele>95.5</ele>
        <time>2023-06-21T14:40:05Z</time>
      </trkpt>
      <trkpt lat="49.76877" lon="2.14134">
        <ele>95.4</ele>
        <time>2023-06-21T14:40:06Z</time>
      </trkpt>
      <trkpt lat="49.76877" lon="2.14135">
        <ele>95.4</ele>
        <time>2023-06-21T14:40:07Z</time>
      </trkpt>
      <trkpt lat="49.76878" lon="2.14137">
        <ele>95.3</ele>
        <time>2023-06-21T14:40:08Z</time>
      </trkpt>
      <trkpt lat="49.76878" lon="2.14141">
        <ele>95.2</ele>
        <time>2023-06-21T14:40:10Z</time>
      </trkpt>
      <trkpt lat="49.76878" lon="2.14142">
        <ele>95.1</ele>
        <time>2023-06-21T14:40:11Z</time>
      </trkpt>
      <trkpt lat="49.76878" lon="2.14146">
        <ele>95</ele>
        <time>2023-06-21T14:40:12Z</time>
      </trkpt>
      <trkpt lat="49.76879" lon="2.14147">
        <ele>95</ele>
        <time>2023-06-21T14:40:13Z</time>
      </trkpt>
      <trkpt lat="49.76879" lon="2.14148">
        <ele>94.9</ele>
        <time>2023-06-21T14:40:14Z</time>
      </trkpt>
      <trkpt lat="49.76879" lon="2.14152">
        <ele>94.8</ele>
        <time>2023-06-21T14:40:15Z</time>
      </trkpt>
      <trkpt lat="49.76879" lon="2.14153">
        <ele>94.8</ele>
        <time>2023-06-21T14:40:16Z</time>
      </trkpt>
      <trkpt lat="49.76879" lon="2.14154">
        <ele>94.8</ele>
        <time>2023-06-21T14:40:17Z</time>
      </trkpt>
      <trkpt lat="49.7688" lon="2.14156">
        <ele>94.7</ele>
        <time>2023-06-21T14:40:19Z</time>
      </trkpt>
      <trkpt lat="49.7688" lon="2.14159">
        <ele>94.6</ele>
        <time>2023-06-21T14:40:20Z</time>
      </trkpt>
      <trkpt lat="49.7688" lon="2.14161">
        <ele>94.5</ele>
        <time>2023-06-21T14:40:21Z</time>
      </trkpt>
      <trkpt lat="49.76881" lon="2.14162">
        <ele>94.5</ele>
        <time>2023-06-21T14:40:22Z</time>
      </trkpt>
      <trkpt lat="49.76881" lon="2.14164">
        <ele>94.4</ele>
        <time>2023-06-21T14:40:23Z</time>
      </trkpt>
      <trkpt lat="49.76881" lon="2.14166">
        <ele>94.4</ele>
        <time>2023-06-21T14:40:24Z</time>
      </trkpt>
      <trkpt lat="49.76882" lon="2.14168">
        <ele>94.3</ele>
        <time>2023-06-21T14:40:25Z</time>
      </trkpt>
      <trkpt lat="49.76882" lon="2.14169">
        <ele>94.3</ele>
        <time>2023-06-21T14:40:26Z</time>
      </trkpt>
      <trkpt lat="49.76882" lon="2.1417">
        <ele>94.2</ele>
        <time>2023-06-21T14:40:27Z</time>
      </trkpt>
      <trkpt lat="49.76883" lon="2.14172">
        <ele>94.2</ele>
        <time>2023-06-21T14:40:29Z</time>
      </trkpt>
      <trkpt lat="49.76882" lon="2.14173">
        <ele>94.1</ele>
        <time>2023-06-21T14:40:30Z</time>
      </trkpt>
      <trkpt lat="49.76882" lon="2.14173">
        <ele>94.1</ele>
        <time>2023-06-21T14:40:31Z</time>
      </trkpt>
      <trkpt lat="49.76883" lon="2.14174">
        <ele>94.1</ele>
        <time>2023-06-21T14:40:32Z</time>
      </trkpt>
      <trkpt lat="49.76883" lon="2.14175">
        <ele>94.1</ele>
        <time>2023-06-21T14:40:33Z</time>
      </trkpt>
      <trkpt lat="49.76883" lon="2.14178">
        <ele>94</ele>
        <time>2023-06-21T14:40:35Z</time>
      </trkpt>
      <trkpt lat="49.76883" lon="2.14179">
        <ele>93.9</ele>
        <time>2023-06-21T14:40:36Z</time>
      </trkpt>
      <trkpt lat="49.76883" lon="2.14181">
        <ele>93.9</ele>
        <time>2023-06-21T14:40:37Z</time>
      </trkpt>
      <trkpt lat="49.76883" lon="2.14183">
        <ele>93.8</ele>
        <time>2023-06-21T14:40:38Z</time>
      </trkpt>
      <trkpt lat="49.76884" lon="2.14184">
        <ele>93.8</ele>
        <time>2023-06-21T14:40:39Z</time>
      </trkpt>
      <trkpt lat="49.76884" lon="2.14185">
        <ele>93.8</ele>
        <time>2023-06-21T14:40:40Z</time>
      </trkpt>
      <trkpt lat="49.76884" lon="2.14187">
        <ele>93.7</ele>
        <time>2023-06-21T14:40:42Z</time>
      </trkpt>
      <trkpt lat="49.76884" lon="2.14189">
        <ele>93.6</ele>
        <time>2023-06-21T14:40:43Z</time>
      </trkpt>
      <trkpt lat="49.76884" lon="2.14191">
        <ele>93.6</ele>
        <time>2023-06-21T14:40:44Z</time>
      </trkpt>
      <trkpt lat="49.76884" lon="2.14192">
        <ele>93.5</ele>
        <time>2023-06-21T14:40:45Z</time>
      </trkpt>
      <trkpt lat="49.76884" lon="2.14195">
        <ele>93.5</ele>
        <time>2023-06-21T14:40:46Z</time>
      </trkpt>
      <trkpt lat="49.76884" lon="2.14196">
        <ele>93.4</ele>
        <time>2023-06-21T14:40:47Z</time>
      </trkpt>
      <trkpt lat="49.76884" lon="2.14198">
        <ele>93.4</ele>
        <time>2023-06-21T14:40:48Z</time>
      </trkpt>
      <trkpt lat="49.76884" lon="2.14199">
        <ele>93.3</ele>
        <time>2023-06-21T14:40:49Z</time>
      </trkpt>
      <trkpt lat="49.76884" lon="2.14201">
        <ele>93.3</ele>
        <time>2023-06-21T14:40:50Z</time>
      </trkpt>
      <trkpt lat="49.76883" lon="2.14203">
        <ele>93.2</ele>
        <time>2023-06-21T14:40:51Z</time>
      </trkpt>
      <trkpt lat="49.76883" lon="2.14206">
        <ele>93.1</ele>
        <time>2023-06-21T14:40:52Z</time>
      </trkpt>
      <trkpt lat="49.76883" lon="2.14208">
        <ele>93.1</ele>
        <time>2023-06-21T14:40:54Z</time>
      </trkpt>
      <trkpt lat="49.76883" lon="2.1421">
        <ele>93</ele>
        <time>2023-06-21T14:40:55Z</time>
      </trkpt>
      <trkpt lat="49.76883" lon="2.14212">
        <ele>93</ele>
        <time>2023-06-21T14:40:56Z</time>
      </trkpt>
      <trkpt lat="49.76883" lon="2.14214">
        <ele>92.9</ele>
        <time>2023-06-21T14:40:57Z</time>
      </trkpt>
      <trkpt lat="49.76883" lon="2.14218">
        <ele>92.8</ele>
        <time>2023-06-21T14:40:58Z</time>
      </trkpt>
      <trkpt lat="49.76883" lon="2.14219">
        <ele>92.8</ele>
        <time>2023-06-21T14:40:59Z</time>
      </trkpt>
      <trkpt lat="49.76883" lon="2.1422">
        <ele>92.7</ele>
        <time>2023-06-21T14:41:00Z</time>
      </trkpt>
      <trkpt lat="49.76884" lon="2.14223">
        <ele>92.7</ele>
        <time>2023-06-21T14:41:01Z</time>
      </trkpt>
      <trkpt lat="49.76884" lon="2.14224">
        <ele>92.6</ele>
        <time>2023-06-21T14:41:02Z</time>
      </trkpt>
      <trkpt lat="49.76884" lon="2.14225">
        <ele>92.6</ele>
        <time>2023-06-21T14:41:04Z</time>
      </trkpt>
      <trkpt lat="49.76884" lon="2.14226">
        <ele>92.6</ele>
        <time>2023-06-21T14:41:05Z</time>
      </trkpt>
      <trkpt lat="49.76885" lon="2.1423">
        <ele>92.5</ele>
        <time>2023-06-21T14:41:07Z</time>
      </trkpt>
      <trkpt lat="49.76885" lon="2.14231">
        <ele>92.5</ele>
        <time>2023-06-21T14:41:08Z</time>
      </trkpt>
      <trkpt lat="49.76885" lon="2.14233">
        <ele>92.4</ele>
        <time>2023-06-21T14:41:09Z</time>
      </trkpt>
      <trkpt lat="49.76886" lon="2.14234">
        <ele>92.4</ele>
        <time>2023-06-21T14:41:10Z</time>
      </trkpt>
      <trkpt lat="49.76886" lon="2.14236">
        <ele>92.3</ele>
        <time>2023-06-21T14:41:11Z</time>
      </trkpt>
      <trkpt lat="49.76886" lon="2.14238">
        <ele>92.3</ele>
        <time>2023-06-21T14:41:12Z</time>
      </trkpt>
      <trkpt lat="49.76886" lon="2.1424">
        <ele>92.2</ele>
        <time>2023-06-21T14:41:14Z</time>
      </trkpt>
      <trkpt lat="49.76886" lon="2.14242">
        <ele>92.2</ele>
        <time>2023-06-21T14:41:15Z</time>
      </trkpt>
      <trkpt lat="49.76886" lon="2.14243">
        <ele>92.2</ele>
        <time>2023-06-21T14:41:16Z</time>
      </trkpt>
      <trkpt lat="49.76886" lon="2.14245">
        <ele>92.1</ele>
        <time>2023-06-21T14:41:17Z</time>
      </trkpt>
      <trkpt lat="49.76886" lon="2.14246">
        <ele>92.1</ele>
        <time>2023-06-21T14:41:18Z</time>
      </trkpt>
      <trkpt lat="49.76887" lon="2.14248">
        <ele>92.1</ele>
        <time>2023-06-21T14:41:19Z</time>
      </trkpt>
      <trkpt lat="49.76887" lon="2.1425">
        <ele>92</ele>
        <time>2023-06-21T14:41:20Z</time>
      </trkpt>
      <trkpt lat="49.76887" lon="2.14252">
        <ele>92</ele>
        <time>2023-06-21T14:41:21Z</time>
      </trkpt>
      <trkpt lat="49.76887" lon="2.14253">
        <ele>91.9</ele>
        <time>2023-06-21T14:41:23Z</time>
      </trkpt>
      <trkpt lat="49.76887" lon="2.14255">
        <ele>91.9</ele>
        <time>2023-06-21T14:41:24Z</time>
      </trkpt>
      <trkpt lat="49.76887" lon="2.14258">
        <ele>91.8</ele>
        <time>2023-06-21T14:41:25Z</time>
      </trkpt>
      <trkpt lat="49.76887" lon="2.14259">
        <ele>91.8</ele>
        <time>2023-06-21T14:41:26Z</time>
      </trkpt>
      <trkpt lat="49.76887" lon="2.14261">
        <ele>91.7</ele>
        <time>2023-06-21T14:41:27Z</time>
      </trkpt>
      <trkpt lat="49.76888" lon="2.14264">
        <ele>91.7</ele>
        <time>2023-06-21T14:41:28Z</time>
      </trkpt>
      <trkpt lat="49.76888" lon="2.14265">
        <ele>91.6</ele>
        <time>2023-06-21T14:41:30Z</time>
      </trkpt>
      <trkpt lat="49.76889" lon="2.14267">
        <ele>91.5</ele>
        <time>2023-06-21T14:41:31Z</time>
      </trkpt>
      <trkpt lat="49.7689" lon="2.14269">
        <ele>91.5</ele>
        <time>2023-06-21T14:41:32Z</time>
      </trkpt>
      <trkpt lat="49.76889" lon="2.1427">
        <ele>91.4</ele>
        <time>2023-06-21T14:41:33Z</time>
      </trkpt>
      <trkpt lat="49.76889" lon="2.14272">
        <ele>91.4</ele>
        <time>2023-06-21T14:41:34Z</time>
      </trkpt>
      <trkpt lat="49.76889" lon="2.14275">
        <ele>91.3</ele>
        <time>2023-06-21T14:41:36Z</time>
      </trkpt>
      <trkpt lat="49.76889" lon="2.14275">
        <ele>91.3</ele>
        <time>2023-06-21T14:41:38Z</time>
      </trkpt>
      <trkpt lat="49.76889" lon="2.14276">
        <ele>91.3</ele>
        <time>2023-06-21T14:41:39Z</time>
      </trkpt>
      <trkpt lat="49.76889" lon="2.14276">
        <ele>91.3</ele>
        <time>2023-06-21T14:41:40Z</time>
      </trkpt>
      <trkpt lat="49.76889" lon="2.14278">
        <ele>91.2</ele>
        <time>2023-06-21T14:41:42Z</time>
      </trkpt>
      <trkpt lat="49.76888" lon="2.14279">
        <ele>91.2</ele>
        <time>2023-06-21T14:41:43Z</time>
      </trkpt>
      <trkpt lat="49.76888" lon="2.1428">
        <ele>91.1</ele>
        <time>2023-06-21T14:41:45Z</time>
      </trkpt>
      <trkpt lat="49.76888" lon="2.1428">
        <ele>91.1</ele>
        <time>2023-06-21T14:41:46Z</time>
      </trkpt>
      <trkpt lat="49.76888" lon="2.1428">
        <ele>91.1</ele>
        <time>2023-06-21T14:41:47Z</time>
      </trkpt>
      <trkpt lat="49.76888" lon="2.1428">
        <ele>91.1</ele>
        <time>2023-06-21T14:41:48Z</time>
      </trkpt>
      <trkpt lat="49.76888" lon="2.1428">
        <ele>91.1</ele>
        <time>2023-06-21T14:41:49Z</time>
      </trkpt>
      <trkpt lat="49.76888" lon="2.1428">
        <ele>91.1</ele>
        <time>2023-06-21T14:41:50Z</time>
      </trkpt>
      <trkpt lat="49.76888" lon="2.1428">
        <ele>91.1</ele>
        <time>2023-06-21T14:41:52Z</time>
      </trkpt>
      <trkpt lat="49.76888" lon="2.14281">
        <ele>91</ele>
        <time>2023-06-21T14:41:53Z</time>
      </trkpt>
      <trkpt lat="49.76888" lon="2.14282">
        <ele>91</ele>
        <time>2023-06-21T14:41:54Z</time>
      </trkpt>
      <trkpt lat="49.76888" lon="2.14282">
        <ele>91</ele>
        <time>2023-06-21T14:41:55Z</time>
      </trkpt>
      <trkpt lat="49.76888" lon="2.14284">
        <ele>91</ele>
        <time>2023-06-21T14:41:57Z</time>
      </trkpt>
      <trkpt lat="49.76888" lon="2.14285">
        <ele>90.9</ele>
        <time>2023-06-21T14:41:58Z</time>
      </trkpt>
      <trkpt lat="49.76888" lon="2.14286">
        <ele>90.9</ele>
        <time>2023-06-21T14:41:59Z</time>
      </trkpt>
      <trkpt lat="49.76889" lon="2.14287">
        <ele>90.8</ele>
        <time>2023-06-21T14:42:00Z</time>
      </trkpt>
      <trkpt lat="49.76889" lon="2.14289">
        <ele>90.8</ele>
        <time>2023-06-21T14:42:01Z</time>
      </trkpt>
      <trkpt lat="49.76889" lon="2.14291">
        <ele>90.7</ele>
        <time>2023-06-21T14:42:02Z</time>
      </trkpt>
      <trkpt lat="49.76889" lon="2.14292">
        <ele>90.7</ele>
        <time>2023-06-21T14:42:03Z</time>
      </trkpt>
      <trkpt lat="49.76889" lon="2.14294">
        <ele>90.6</ele>
        <time>2023-06-21T14:42:04Z</time>
      </trkpt>
      <trkpt lat="49.76889" lon="2.14296">
        <ele>90.5</ele>
        <time>2023-06-21T14:42:06Z</time>
      </trkpt>
      <trkpt lat="49.76889" lon="2.14299">
        <ele>90.4</ele>
        <time>2023-06-21T14:42:07Z</time>
      </trkpt>
      <trkpt lat="49.76889" lon="2.14302">
        <ele>90.3</ele>
        <time>2023-06-21T14:42:08Z</time>
      </trkpt>
      <trkpt lat="49.76888" lon="2.14307">
        <ele>90.2</ele>
        <time>2023-06-21T14:42:10Z</time>
      </trkpt>
      <trkpt lat="49.76888" lon="2.14311">
        <ele>90</ele>
        <time>2023-06-21T14:42:11Z</time>
      </trkpt>
      <trkpt lat="49.76889" lon="2.14313">
        <ele>90</ele>
        <time>2023-06-21T14:42:12Z</time>
      </trkpt>
      <trkpt lat="49.76889" lon="2.14315">
        <ele>89.9</ele>
        <time>2023-06-21T14:42:13Z</time>
      </trkpt>
      <trkpt lat="49.7689" lon="2.14317">
        <ele>89.8</ele>
        <time>2023-06-21T14:42:15Z</time>
      </trkpt>
      <trkpt lat="49.7689" lon="2.14319">
        <ele>89.7</ele>
        <time>2023-06-21T14:42:16Z</time>
      </trkpt>
      <trkpt lat="49.7689" lon="2.1432">
        <ele>89.7</ele>
        <time>2023-06-21T14:42:17Z</time>
      </trkpt>
      <trkpt lat="49.7689" lon="2.14324">
        <ele>89.6</ele>
        <time>2023-06-21T14:42:19Z</time>
      </trkpt>
      <trkpt lat="49.7689" lon="2.14327">
        <ele>89.5</ele>
        <time>2023-06-21T14:42:20Z</time>
      </trkpt>
      <trkpt lat="49.7689" lon="2.14328">
        <ele>89.4</ele>
        <time>2023-06-21T14:42:21Z</time>
      </trkpt>
      <trkpt lat="49.7689" lon="2.14329">
        <ele>89.4</ele>
        <time>2023-06-21T14:42:22Z</time>
      </trkpt>
      <trkpt lat="49.7689" lon="2.14332">
        <ele>89.3</ele>
        <time>2023-06-21T14:42:24Z</time>
      </trkpt>
      <trkpt lat="49.7689" lon="2.14333">
        <ele>89.3</ele>
        <time>2023-06-21T14:42:25Z</time>
      </trkpt>
      <trkpt lat="49.7689" lon="2.14335">
        <ele>89.2</ele>
        <time>2023-06-21T14:42:26Z</time>
      </trkpt>
      <trkpt lat="49.76891" lon="2.14337">
        <ele>89.2</ele>
        <time>2023-06-21T14:42:27Z</time>
      </trkpt>
      <trkpt lat="49.76891" lon="2.14338">
        <ele>89.1</ele>
        <time>2023-06-21T14:42:28Z</time>
      </trkpt>
      <trkpt lat="49.76891" lon="2.1434">
        <ele>89.1</ele>
        <time>2023-06-21T14:42:29Z</time>
      </trkpt>
      <trkpt lat="49.76891" lon="2.14341">
        <ele>89.1</ele>
        <time>2023-06-21T14:42:30Z</time>
      </trkpt>
      <trkpt lat="49.76892" lon="2.14344">
        <ele>89</ele>
        <time>2023-06-21T14:42:32Z</time>
      </trkpt>
      <trkpt lat="49.76892" lon="2.14346">
        <ele>88.9</ele>
        <time>2023-06-21T14:42:33Z</time>
      </trkpt>
      <trkpt lat="49.76893" lon="2.1435">
        <ele>88.8</ele>
        <time>2023-06-21T14:42:35Z</time>
      </trkpt>
      <trkpt lat="49.76892" lon="2.14352">
        <ele>88.8</ele>
        <time>2023-06-21T14:42:36Z</time>
      </trkpt>
      <trkpt lat="49.76893" lon="2.14354">
        <ele>88.7</ele>
        <time>2023-06-21T14:42:37Z</time>
      </trkpt>
      <trkpt lat="49.76893" lon="2.14356">
        <ele>88.7</ele>
        <time>2023-06-21T14:42:38Z</time>
      </trkpt>
      <trkpt lat="49.76893" lon="2.14358">
        <ele>88.6</ele>
        <time>2023-06-21T14:42:39Z</time>
      </trkpt>
      <trkpt lat="49.76894" lon="2.14359">
        <ele>88.6</ele>
        <time>2023-06-21T14:42:40Z</time>
      </trkpt>
      <trkpt lat="49.76894" lon="2.14362">
        <ele>88.5</ele>
        <time>2023-06-21T14:42:42Z</time>
      </trkpt>
      <trkpt lat="49.76894" lon="2.14364">
        <ele>88.5</ele>
        <time>2023-06-21T14:42:43Z</time>
      </trkpt>
      <trkpt lat="49.76895" lon="2.14366">
        <ele>88.4</ele>
        <time>2023-06-21T14:42:44Z</time>
      </trkpt>
      <trkpt lat="49.76895" lon="2.14367">
        <ele>88.4</ele>
        <time>2023-06-21T14:42:45Z</time>
      </trkpt>
      <trkpt lat="49.76896" lon="2.14369">
        <ele>88.4</ele>
        <time>2023-06-21T14:42:47Z</time>
      </trkpt>
      <trkpt lat="49.76896" lon="2.1437">
        <ele>88.3</ele>
        <time>2023-06-21T14:42:48Z</time>
      </trkpt>
      <trkpt lat="49.76896" lon="2.14374">
        <ele>88.2</ele>
        <time>2023-06-21T14:42:50Z</time>
      </trkpt>
      <trkpt lat="49.76896" lon="2.14377">
        <ele>88.2</ele>
        <time>2023-06-21T14:42:51Z</time>
      </trkpt>
      <trkpt lat="49.76897" lon="2.14379">
        <ele>88.2</ele>
        <time>2023-06-21T14:42:52Z</time>
      </trkpt>
      <trkpt lat="49.76897" lon="2.14382">
        <ele>88.1</ele>
        <time>2023-06-21T14:42:53Z</time>
      </trkpt>
      <trkpt lat="49.76897" lon="2.14384">
        <ele>88.1</ele>
        <time>2023-06-21T14:42:54Z</time>
      </trkpt>
      <trkpt lat="49.76898" lon="2.14386">
        <ele>88</ele>
        <time>2023-06-21T14:42:56Z</time>
      </trkpt>
      <trkpt lat="49.76898" lon="2.14387">
        <ele>88</ele>
        <time>2023-06-21T14:42:57Z</time>
      </trkpt>
      <trkpt lat="49.76898" lon="2.14388">
        <ele>88</ele>
        <time>2023-06-21T14:42:58Z</time>
      </trkpt>
      <trkpt lat="49.76898" lon="2.14391">
        <ele>88</ele>
        <time>2023-06-21T14:42:59Z</time>
      </trkpt>
      <trkpt lat="49.76899" lon="2.14392">
        <ele>87.9</ele>
        <time>2023-06-21T14:43:01Z</time>
      </trkpt>
      <trkpt lat="49.76899" lon="2.14394">
        <ele>87.9</ele>
        <time>2023-06-21T14:43:02Z</time>
      </trkpt>
      <trkpt lat="49.76899" lon="2.14395">
        <ele>87.9</ele>
        <time>2023-06-21T14:43:03Z</time>
      </trkpt>
      <trkpt lat="49.76899" lon="2.14397">
        <ele>87.9</ele>
        <time>2023-06-21T14:43:04Z</time>
      </trkpt>
      <trkpt lat="49.769" lon="2.14399">
        <ele>87.8</ele>
        <time>2023-06-21T14:43:05Z</time>
      </trkpt>
      <trkpt lat="49.769" lon="2.14401">
        <ele>87.8</ele>
        <time>2023-06-21T14:43:06Z</time>
      </trkpt>
      <trkpt lat="49.769" lon="2.14403">
        <ele>87.8</ele>
        <time>2023-06-21T14:43:07Z</time>
      </trkpt>
      <trkpt lat="49.769" lon="2.14407">
        <ele>87.7</ele>
        <time>2023-06-21T14:43:09Z</time>
      </trkpt>
      <trkpt lat="49.76901" lon="2.1441">
        <ele>87.7</ele>
        <time>2023-06-21T14:43:10Z</time>
      </trkpt>
      <trkpt lat="49.76901" lon="2.14411">
        <ele>87.7</ele>
        <time>2023-06-21T14:43:11Z</time>
      </trkpt>
      <trkpt lat="49.76902" lon="2.14412">
        <ele>87.7</ele>
        <time>2023-06-21T14:43:12Z</time>
      </trkpt>
      <trkpt lat="49.76902" lon="2.14415">
        <ele>87.6</ele>
        <time>2023-06-21T14:43:13Z</time>
      </trkpt>
      <trkpt lat="49.76902" lon="2.14417">
        <ele>87.6</ele>
        <time>2023-06-21T14:43:15Z</time>
      </trkpt>
      <trkpt lat="49.76902" lon="2.14418">
        <ele>87.6</ele>
        <time>2023-06-21T14:43:16Z</time>
      </trkpt>
      <trkpt lat="49.76903" lon="2.14421">
        <ele>87.5</ele>
        <time>2023-06-21T14:43:18Z</time>
      </trkpt>
      <trkpt lat="49.76903" lon="2.14423">
        <ele>87.5</ele>
        <time>2023-06-21T14:43:19Z</time>
      </trkpt>
      <trkpt lat="49.76903" lon="2.14426">
        <ele>87.5</ele>
        <time>2023-06-21T14:43:21Z</time>
      </trkpt>
      <trkpt lat="49.76903" lon="2.14428">
        <ele>87.4</ele>
        <time>2023-06-21T14:43:22Z</time>
      </trkpt>
      <trkpt lat="49.76903" lon="2.14429">
        <ele>87.4</ele>
        <time>2023-06-21T14:43:23Z</time>
      </trkpt>
      <trkpt lat="49.76903" lon="2.14431">
        <ele>87.4</ele>
        <time>2023-06-21T14:43:24Z</time>
      </trkpt>
      <trkpt lat="49.76903" lon="2.14434">
        <ele>87.4</ele>
        <time>2023-06-21T14:43:25Z</time>
      </trkpt>
      <trkpt lat="49.76903" lon="2.14437">
        <ele>87.3</ele>
        <time>2023-06-21T14:43:27Z</time>
      </trkpt>
      <trkpt lat="49.76903" lon="2.14438">
        <ele>87.3</ele>
        <time>2023-06-21T14:43:28Z</time>
      </trkpt>
      <trkpt lat="49.76903" lon="2.1444">
        <ele>87.3</ele>
        <time>2023-06-21T14:43:29Z</time>
      </trkpt>
      <trkpt lat="49.76903" lon="2.14442">
        <ele>87.3</ele>
        <time>2023-06-21T14:43:31Z</time>
      </trkpt>
      <trkpt lat="49.76903" lon="2.14444">
        <ele>87.2</ele>
        <time>2023-06-21T14:43:32Z</time>
      </trkpt>
      <trkpt lat="49.76904" lon="2.14446">
        <ele>87.2</ele>
        <time>2023-06-21T14:43:33Z</time>
      </trkpt>
      <trkpt lat="49.76904" lon="2.14448">
        <ele>87.2</ele>
        <time>2023-06-21T14:43:34Z</time>
      </trkpt>
      <trkpt lat="49.76903" lon="2.14449">
        <ele>87.2</ele>
        <time>2023-06-21T14:43:35Z</time>
      </trkpt>
      <trkpt lat="49.76903" lon="2.1445">
        <ele>87.1</ele>
        <time>2023-06-21T14:43:36Z</time>
      </trkpt>
      <trkpt lat="49.76902" lon="2.14454">
        <ele>87.1</ele>
        <time>2023-06-21T14:43:38Z</time>
      </trkpt>
      <trkpt lat="49.76902" lon="2.14456">
        <ele>87.1</ele>
        <time>2023-06-21T14:43:39Z</time>
      </trkpt>
      <trkpt lat="49.76902" lon="2.14458">
        <ele>87</ele>
        <time>2023-06-21T14:43:40Z</time>
      </trkpt>
      <trkpt lat="49.76902" lon="2.14461">
        <ele>87</ele>
        <time>2023-06-21T14:43:41Z</time>
      </trkpt>
      <trkpt lat="49.76902" lon="2.14463">
        <ele>87</ele>
        <time>2023-06-21T14:43:42Z</time>
      </trkpt>
      <trkpt lat="49.76902" lon="2.14464">
        <ele>87</ele>
        <time>2023-06-21T14:43:43Z</time>
      </trkpt>
      <trkpt lat="49.76902" lon="2.14466">
        <ele>87</ele>
        <time>2023-06-21T14:43:45Z</time>
      </trkpt>
      <trkpt lat="49.76902" lon="2.14467">
        <ele>87</ele>
        <time>2023-06-21T14:43:46Z</time>
      </trkpt>
      <trkpt lat="49.76902" lon="2.1447">
        <ele>86.9</ele>
        <time>2023-06-21T14:43:48Z</time>
      </trkpt>
      <trkpt lat="49.76901" lon="2.14472">
        <ele>86.9</ele>
        <time>2023-06-21T14:43:49Z</time>
      </trkpt>
      <trkpt lat="49.76901" lon="2.14473">
        <ele>86.9</ele>
        <time>2023-06-21T14:43:50Z</time>
      </trkpt>
      <trkpt lat="49.769" lon="2.14475">
        <ele>86.9</ele>
        <time>2023-06-21T14:43:51Z</time>
      </trkpt>
      <trkpt lat="49.769" lon="2.14476">
        <ele>86.8</ele>
        <time>2023-06-21T14:43:52Z</time>
      </trkpt>
      <trkpt lat="49.769" lon="2.14478">
        <ele>86.8</ele>
        <time>2023-06-21T14:43:54Z</time>
      </trkpt>
      <trkpt lat="49.769" lon="2.14479">
        <ele>86.8</ele>
        <time>2023-06-21T14:43:55Z</time>
      </trkpt>
      <trkpt lat="49.769" lon="2.14483">
        <ele>86.8</ele>
        <time>2023-06-21T14:43:56Z</time>
      </trkpt>
      <trkpt lat="49.769" lon="2.14484">
        <ele>86.8</ele>
        <time>2023-06-21T14:43:57Z</time>
      </trkpt>
      <trkpt lat="49.76901" lon="2.14486">
        <ele>86.7</ele>
        <time>2023-06-21T14:43:58Z</time>
      </trkpt>
      <trkpt lat="49.76901" lon="2.14488">
        <ele>86.7</ele>
        <time>2023-06-21T14:44:00Z</time>
      </trkpt>
      <trkpt lat="49.76902" lon="2.1449">
        <ele>86.7</ele>
        <time>2023-06-21T14:44:01Z</time>
      </trkpt>
      <trkpt lat="49.76902" lon="2.14495">
        <ele>86.6</ele>
        <time>2023-06-21T14:44:03Z</time>
      </trkpt>
      <trkpt lat="49.76902" lon="2.14496">
        <ele>86.6</ele>
        <time>2023-06-21T14:44:04Z</time>
      </trkpt>
      <trkpt lat="49.76902" lon="2.14498">
        <ele>86.6</ele>
        <time>2023-06-21T14:44:05Z</time>
      </trkpt>
      <trkpt lat="49.76903" lon="2.14501">
        <ele>86.6</ele>
        <time>2023-06-21T14:44:06Z</time>
      </trkpt>
      <trkpt lat="49.76903" lon="2.14504">
        <ele>86.6</ele>
        <time>2023-06-21T14:44:08Z</time>
      </trkpt>
      <trkpt lat="49.76903" lon="2.14506">
        <ele>86.6</ele>
        <time>2023-06-21T14:44:09Z</time>
      </trkpt>
      <trkpt lat="49.76904" lon="2.14507">
        <ele>86.5</ele>
        <time>2023-06-21T14:44:10Z</time>
      </trkpt>
      <trkpt lat="49.76904" lon="2.1451">
        <ele>86.5</ele>
        <time>2023-06-21T14:44:11Z</time>
      </trkpt>
      <trkpt lat="49.76905" lon="2.14512">
        <ele>86.5</ele>
        <time>2023-06-21T14:44:13Z</time>
      </trkpt>
      <trkpt lat="49.76905" lon="2.14514">
        <ele>86.5</ele>
        <time>2023-06-21T14:44:14Z</time>
      </trkpt>
      <trkpt lat="49.76906" lon="2.14515">
        <ele>86.5</ele>
        <time>2023-06-21T14:44:15Z</time>
      </trkpt>
      <trkpt lat="49.76906" lon="2.14519">
        <ele>86.5</ele>
        <time>2023-06-21T14:44:17Z</time>
      </trkpt>
      <trkpt lat="49.76907" lon="2.1452">
        <ele>86.4</ele>
        <time>2023-06-21T14:44:18Z</time>
      </trkpt>
      <trkpt lat="49.76907" lon="2.14522">
        <ele>86.4</ele>
        <time>2023-06-21T14:44:19Z</time>
      </trkpt>
      <trkpt lat="49.76907" lon="2.14525">
        <ele>86.4</ele>
        <time>2023-06-21T14:44:21Z</time>
      </trkpt>
      <trkpt lat="49.76907" lon="2.14527">
        <ele>86.4</ele>
        <time>2023-06-21T14:44:22Z</time>
      </trkpt>
      <trkpt lat="49.76907" lon="2.1453">
        <ele>86.4</ele>
        <time>2023-06-21T14:44:23Z</time>
      </trkpt>
      <trkpt lat="49.76908" lon="2.14532">
        <ele>86.4</ele>
        <time>2023-06-21T14:44:24Z</time>
      </trkpt>
      <trkpt lat="49.76908" lon="2.14534">
        <ele>86.4</ele>
        <time>2023-06-21T14:44:26Z</time>
      </trkpt>
      <trkpt lat="49.76908" lon="2.14536">
        <ele>86.4</ele>
        <time>2023-06-21T14:44:27Z</time>
      </trkpt>
      <trkpt lat="49.76909" lon="2.14538">
        <ele>86.4</ele>
        <time>2023-06-21T14:44:28Z</time>
      </trkpt>
      <trkpt lat="49.76909" lon="2.1454">
        <ele>86.3</ele>
        <time>2023-06-21T14:44:29Z</time>
      </trkpt>
      <trkpt lat="49.76909" lon="2.14542">
        <ele>86.3</ele>
        <time>2023-06-21T14:44:30Z</time>
      </trkpt>
      <trkpt lat="49.76909" lon="2.14543">
        <ele>86.3</ele>
        <time>2023-06-21T14:44:31Z</time>
      </trkpt>
      <trkpt lat="49.7691" lon="2.14545">
        <ele>86.3</ele>
        <time>2023-06-21T14:44:33Z</time>
      </trkpt>
      <trkpt lat="49.76911" lon="2.14548">
        <ele>86.3</ele>
        <time>2023-06-21T14:44:34Z</time>
      </trkpt>
      <trkpt lat="49.76911" lon="2.14549">
        <ele>86.3</ele>
        <time>2023-06-21T14:44:35Z</time>
      </trkpt>
      <trkpt lat="49.76911" lon="2.14551">
        <ele>86.3</ele>
        <time>2023-06-21T14:44:36Z</time>
      </trkpt>
      <trkpt lat="49.76912" lon="2.14553">
        <ele>86.3</ele>
        <time>2023-06-21T14:44:37Z</time>
      </trkpt>
      <trkpt lat="49.76912" lon="2.14555">
        <ele>86.3</ele>
        <time>2023-06-21T14:44:38Z</time>
      </trkpt>
      <trkpt lat="49.76912" lon="2.14556">
        <ele>86.3</ele>
        <time>2023-06-21T14:44:39Z</time>
      </trkpt>
      <trkpt lat="49.76913" lon="2.14561">
        <ele>86.3</ele>
        <time>2023-06-21T14:44:41Z</time>
      </trkpt>
      <trkpt lat="49.76913" lon="2.14562">
        <ele>86.3</ele>
        <time>2023-06-21T14:44:42Z</time>
      </trkpt>
      <trkpt lat="49.76913" lon="2.14565">
        <ele>86.3</ele>
        <time>2023-06-21T14:44:43Z</time>
      </trkpt>
      <trkpt lat="49.76913" lon="2.14566">
        <ele>86.3</ele>
        <time>2023-06-21T14:44:44Z</time>
      </trkpt>
      <trkpt lat="49.76913" lon="2.14568">
        <ele>86.3</ele>
        <time>2023-06-21T14:44:45Z</time>
      </trkpt>
      <trkpt lat="49.76913" lon="2.1457">
        <ele>86.3</ele>
        <time>2023-06-21T14:44:46Z</time>
      </trkpt>
      <trkpt lat="49.76913" lon="2.14572">
        <ele>86.3</ele>
        <time>2023-06-21T14:44:48Z</time>
      </trkpt>
      <trkpt lat="49.76914" lon="2.14574">
        <ele>86.3</ele>
        <time>2023-06-21T14:44:49Z</time>
      </trkpt>
      <trkpt lat="49.76914" lon="2.14577">
        <ele>86.3</ele>
        <time>2023-06-21T14:44:51Z</time>
      </trkpt>
      <trkpt lat="49.76914" lon="2.14579">
        <ele>86.3</ele>
        <time>2023-06-21T14:44:52Z</time>
      </trkpt>
      <trkpt lat="49.76914" lon="2.14582">
        <ele>86.3</ele>
        <time>2023-06-21T14:44:54Z</time>
      </trkpt>
      <trkpt lat="49.76914" lon="2.14585">
        <ele>86.3</ele>
        <time>2023-06-21T14:44:55Z</time>
      </trkpt>
      <trkpt lat="49.76914" lon="2.14587">
        <ele>86.2</ele>
        <time>2023-06-21T14:44:56Z</time>
      </trkpt>
      <trkpt lat="49.76913" lon="2.14589">
        <ele>86.2</ele>
        <time>2023-06-21T14:44:57Z</time>
      </trkpt>
      <trkpt lat="49.76913" lon="2.14592">
        <ele>86.2</ele>
        <time>2023-06-21T14:44:58Z</time>
      </trkpt>
      <trkpt lat="49.76913" lon="2.14597">
        <ele>86.2</ele>
        <time>2023-06-21T14:45:00Z</time>
      </trkpt>
      <trkpt lat="49.76913" lon="2.14599">
        <ele>86.2</ele>
        <time>2023-06-21T14:45:01Z</time>
      </trkpt>
      <trkpt lat="49.76914" lon="2.14601">
        <ele>86.2</ele>
        <time>2023-06-21T14:45:02Z</time>
      </trkpt>
      <trkpt lat="49.76914" lon="2.14603">
        <ele>86.2</ele>
        <time>2023-06-21T14:45:03Z</time>
      </trkpt>
      <trkpt lat="49.76914" lon="2.14606">
        <ele>86.2</ele>
        <time>2023-06-21T14:45:04Z</time>
      </trkpt>
      <trkpt lat="49.76913" lon="2.14607">
        <ele>86.2</ele>
        <time>2023-06-21T14:45:06Z</time>
      </trkpt>
      <trkpt lat="49.76913" lon="2.14609">
        <ele>86.2</ele>
        <time>2023-06-21T14:45:07Z</time>
      </trkpt>
      <trkpt lat="49.76913" lon="2.14613">
        <ele>86.2</ele>
        <time>2023-06-21T14:45:09Z</time>
      </trkpt>
      <trkpt lat="49.76913" lon="2.14614">
        <ele>86.2</ele>
        <time>2023-06-21T14:45:10Z</time>
      </trkpt>
      <trkpt lat="49.76914" lon="2.14616">
        <ele>86.2</ele>
        <time>2023-06-21T14:45:11Z</time>
      </trkpt>
      <trkpt lat="49.76914" lon="2.14618">
        <ele>86.3</ele>
        <time>2023-06-21T14:45:12Z</time>
      </trkpt>
      <trkpt lat="49.76914" lon="2.14619">
        <ele>86.3</ele>
        <time>2023-06-21T14:45:13Z</time>
      </trkpt>
      <trkpt lat="49.76914" lon="2.14623">
        <ele>86.3</ele>
        <time>2023-06-21T14:45:14Z</time>
      </trkpt>
      <trkpt lat="49.76914" lon="2.14625">
        <ele>86.3</ele>
        <time>2023-06-21T14:45:16Z</time>
      </trkpt>
      <trkpt lat="49.76914" lon="2.14627">
        <ele>86.3</ele>
        <time>2023-06-21T14:45:17Z</time>
      </trkpt>
      <trkpt lat="49.76914" lon="2.14629">
        <ele>86.3</ele>
        <time>2023-06-21T14:45:18Z</time>
      </trkpt>
      <trkpt lat="49.76914" lon="2.14631">
        <ele>86.3</ele>
        <time>2023-06-21T14:45:19Z</time>
      </trkpt>
      <trkpt lat="49.76914" lon="2.14633">
        <ele>86.3</ele>
        <time>2023-06-21T14:45:20Z</time>
      </trkpt>
      <trkpt lat="49.76914" lon="2.14634">
        <ele>86.3</ele>
        <time>2023-06-21T14:45:21Z</time>
      </trkpt>
      <trkpt lat="49.76915" lon="2.14636">
        <ele>86.3</ele>
        <time>2023-06-21T14:45:22Z</time>
      </trkpt>
      <trkpt lat="49.76915" lon="2.14638">
        <ele>86.3</ele>
        <time>2023-06-21T14:45:24Z</time>
      </trkpt>
      <trkpt lat="49.76915" lon="2.1464">
        <ele>86.3</ele>
        <time>2023-06-21T14:45:25Z</time>
      </trkpt>
      <trkpt lat="49.76915" lon="2.14642">
        <ele>86.3</ele>
        <time>2023-06-21T14:45:26Z</time>
      </trkpt>
      <trkpt lat="49.76915" lon="2.14643">
        <ele>86.3</ele>
        <time>2023-06-21T14:45:27Z</time>
      </trkpt>
      <trkpt lat="49.76915" lon="2.14645">
        <ele>86.3</ele>
        <time>2023-06-21T14:45:28Z</time>
      </trkpt>
      <trkpt lat="49.76915" lon="2.14647">
        <ele>86.3</ele>
        <time>2023-06-21T14:45:29Z</time>
      </trkpt>
      <trkpt lat="49.76916" lon="2.1465">
        <ele>86.4</ele>
        <time>2023-06-21T14:45:30Z</time>
      </trkpt>
      <trkpt lat="49.76916" lon="2.14651">
        <ele>86.4</ele>
        <time>2023-06-21T14:45:31Z</time>
      </trkpt>
      <trkpt lat="49.76916" lon="2.14653">
        <ele>86.4</ele>
        <time>2023-06-21T14:45:32Z</time>
      </trkpt>
      <trkpt lat="49.76917" lon="2.14656">
        <ele>86.4</ele>
        <time>2023-06-21T14:45:34Z</time>
      </trkpt>
      <trkpt lat="49.76917" lon="2.14657">
        <ele>86.4</ele>
        <time>2023-06-21T14:45:35Z</time>
      </trkpt>
      <trkpt lat="49.76917" lon="2.14658">
        <ele>86.4</ele>
        <time>2023-06-21T14:45:36Z</time>
      </trkpt>
      <trkpt lat="49.76917" lon="2.1466">
        <ele>86.4</ele>
        <time>2023-06-21T14:45:37Z</time>
      </trkpt>
      <trkpt lat="49.76917" lon="2.14662">
        <ele>86.4</ele>
        <time>2023-06-21T14:45:38Z</time>
      </trkpt>
      <trkpt lat="49.76917" lon="2.14662">
        <ele>86.4</ele>
        <time>2023-06-21T14:45:39Z</time>
      </trkpt>
      <trkpt lat="49.76918" lon="2.14666">
        <ele>86.4</ele>
        <time>2023-06-21T14:45:40Z</time>
      </trkpt>
      <trkpt lat="49.76918" lon="2.14667">
        <ele>86.4</ele>
        <time>2023-06-21T14:45:42Z</time>
      </trkpt>
      <trkpt lat="49.76918" lon="2.14668">
        <ele>86.5</ele>
        <time>2023-06-21T14:45:43Z</time>
      </trkpt>
      <trkpt lat="49.76918" lon="2.1467">
        <ele>86.5</ele>
        <time>2023-06-21T14:45:44Z</time>
      </trkpt>
      <trkpt lat="49.76918" lon="2.14673">
        <ele>86.5</ele>
        <time>2023-06-21T14:45:46Z</time>
      </trkpt>
      <trkpt lat="49.76919" lon="2.14676">
        <ele>86.5</ele>
        <time>2023-06-21T14:45:47Z</time>
      </trkpt>
      <trkpt lat="49.76919" lon="2.14678">
        <ele>86.5</ele>
        <time>2023-06-21T14:45:48Z</time>
      </trkpt>
      <trkpt lat="49.76919" lon="2.1468">
        <ele>86.6</ele>
        <time>2023-06-21T14:45:49Z</time>
      </trkpt>
      <trkpt lat="49.76919" lon="2.14682">
        <ele>86.6</ele>
        <time>2023-06-21T14:45:50Z</time>
      </trkpt>
      <trkpt lat="49.76919" lon="2.14686">
        <ele>86.6</ele>
        <time>2023-06-21T14:45:52Z</time>
      </trkpt>
      <trkpt lat="49.76919" lon="2.14687">
        <ele>86.7</ele>
        <time>2023-06-21T14:45:53Z</time>
      </trkpt>
      <trkpt lat="49.76919" lon="2.14689">
        <ele>86.7</ele>
        <time>2023-06-21T14:45:55Z</time>
      </trkpt>
      <trkpt lat="49.76919" lon="2.14691">
        <ele>86.7</ele>
        <time>2023-06-21T14:45:56Z</time>
      </trkpt>
      <trkpt lat="49.7692" lon="2.14694">
        <ele>86.8</ele>
        <time>2023-06-21T14:45:57Z</time>
      </trkpt>
      <trkpt lat="49.7692" lon="2.14697">
        <ele>86.8</ele>
        <time>2023-06-21T14:45:59Z</time>
      </trkpt>
      <trkpt lat="49.76921" lon="2.14698">
        <ele>86.8</ele>
        <time>2023-06-21T14:46:00Z</time>
      </trkpt>
      <trkpt lat="49.76921" lon="2.147">
        <ele>86.9</ele>
        <time>2023-06-21T14:46:01Z</time>
      </trkpt>
      <trkpt lat="49.76921" lon="2.14702">
        <ele>86.9</ele>
        <time>2023-06-21T14:46:02Z</time>
      </trkpt>
      <trkpt lat="49.76922" lon="2.14704">
        <ele>86.9</ele>
        <time>2023-06-21T14:46:03Z</time>
      </trkpt>
      <trkpt lat="49.76922" lon="2.14706">
        <ele>87</ele>
        <time>2023-06-21T14:46:04Z</time>
      </trkpt>
      <trkpt lat="49.76923" lon="2.14708">
        <ele>87</ele>
        <time>2023-06-21T14:46:06Z</time>
      </trkpt>
      <trkpt lat="49.76923" lon="2.1471">
        <ele>87.1</ele>
        <time>2023-06-21T14:46:07Z</time>
      </trkpt>
      <trkpt lat="49.76923" lon="2.14711">
        <ele>87.1</ele>
        <time>2023-06-21T14:46:08Z</time>
      </trkpt>
      <trkpt lat="49.76924" lon="2.14714">
        <ele>87.2</ele>
        <time>2023-06-21T14:46:10Z</time>
      </trkpt>
      <trkpt lat="49.76924" lon="2.14716">
        <ele>87.2</ele>
        <time>2023-06-21T14:46:11Z</time>
      </trkpt>
      <trkpt lat="49.76924" lon="2.14719">
        <ele>87.3</ele>
        <time>2023-06-21T14:46:12Z</time>
      </trkpt>
      <trkpt lat="49.76924" lon="2.14721">
        <ele>87.3</ele>
        <time>2023-06-21T14:46:14Z</time>
      </trkpt>
      <trkpt lat="49.76924" lon="2.14724">
        <ele>87.4</ele>
        <time>2023-06-21T14:46:15Z</time>
      </trkpt>
      <trkpt lat="49.76924" lon="2.14726">
        <ele>87.4</ele>
        <time>2023-06-21T14:46:16Z</time>
      </trkpt>
      <trkpt lat="49.76925" lon="2.14728">
        <ele>87.5</ele>
        <time>2023-06-21T14:46:17Z</time>
      </trkpt>
      <trkpt lat="49.76925" lon="2.1473">
        <ele>87.5</ele>
        <time>2023-06-21T14:46:18Z</time>
      </trkpt>
      <trkpt lat="49.76925" lon="2.14732">
        <ele>87.6</ele>
        <time>2023-06-21T14:46:19Z</time>
      </trkpt>
      <trkpt lat="49.76925" lon="2.14734">
        <ele>87.6</ele>
        <time>2023-06-21T14:46:21Z</time>
      </trkpt>
      <trkpt lat="49.76925" lon="2.14736">
        <ele>87.7</ele>
        <time>2023-06-21T14:46:22Z</time>
      </trkpt>
      <trkpt lat="49.76925" lon="2.14737">
        <ele>87.7</ele>
        <time>2023-06-21T14:46:23Z</time>
      </trkpt>
      <trkpt lat="49.76925" lon="2.14739">
        <ele>87.7</ele>
        <time>2023-06-21T14:46:24Z</time>
      </trkpt>
      <trkpt lat="49.76925" lon="2.1474">
        <ele>87.8</ele>
        <time>2023-06-21T14:46:25Z</time>
      </trkpt>
      <trkpt lat="49.76926" lon="2.14744">
        <ele>87.9</ele>
        <time>2023-06-21T14:46:26Z</time>
      </trkpt>
      <trkpt lat="49.76926" lon="2.14746">
        <ele>87.9</ele>
        <time>2023-06-21T14:46:28Z</time>
      </trkpt>
      <trkpt lat="49.76926" lon="2.14748">
        <ele>88</ele>
        <time>2023-06-21T14:46:29Z</time>
      </trkpt>
      <trkpt lat="49.76926" lon="2.14749">
        <ele>88</ele>
        <time>2023-06-21T14:46:30Z</time>
      </trkpt>
      <trkpt lat="49.76926" lon="2.14751">
        <ele>88.1</ele>
        <time>2023-06-21T14:46:32Z</time>
      </trkpt>
      <trkpt lat="49.76926" lon="2.14753">
        <ele>88.1</ele>
        <time>2023-06-21T14:46:33Z</time>
      </trkpt>
      <trkpt lat="49.76926" lon="2.14755">
        <ele>88.1</ele>
        <time>2023-06-21T14:46:34Z</time>
      </trkpt>
      <trkpt lat="49.76926" lon="2.14756">
        <ele>88.2</ele>
        <time>2023-06-21T14:46:35Z</time>
      </trkpt>
      <trkpt lat="49.76927" lon="2.1476">
        <ele>88.3</ele>
        <time>2023-06-21T14:46:37Z</time>
      </trkpt>
      <trkpt lat="49.76927" lon="2.14761">
        <ele>88.3</ele>
        <time>2023-06-21T14:46:38Z</time>
      </trkpt>
      <trkpt lat="49.76927" lon="2.14763">
        <ele>88.3</ele>
        <time>2023-06-21T14:46:39Z</time>
      </trkpt>
      <trkpt lat="49.76927" lon="2.14765">
        <ele>88.4</ele>
        <time>2023-06-21T14:46:40Z</time>
      </trkpt>
      <trkpt lat="49.76927" lon="2.14766">
        <ele>88.4</ele>
        <time>2023-06-21T14:46:41Z</time>
      </trkpt>
      <trkpt lat="49.76927" lon="2.14768">
        <ele>88.5</ele>
        <time>2023-06-21T14:46:42Z</time>
      </trkpt>
      <trkpt lat="49.76927" lon="2.1477">
        <ele>88.5</ele>
        <time>2023-06-21T14:46:44Z</time>
      </trkpt>
      <trkpt lat="49.76927" lon="2.14772">
        <ele>88.5</ele>
        <time>2023-06-21T14:46:45Z</time>
      </trkpt>
      <trkpt lat="49.76927" lon="2.14775">
        <ele>88.6</ele>
        <time>2023-06-21T14:46:46Z</time>
      </trkpt>
      <trkpt lat="49.76927" lon="2.14776">
        <ele>88.6</ele>
        <time>2023-06-21T14:46:47Z</time>
      </trkpt>
      <trkpt lat="49.76927" lon="2.14778">
        <ele>88.6</ele>
        <time>2023-06-21T14:46:48Z</time>
      </trkpt>
      <trkpt lat="49.76927" lon="2.14779">
        <ele>88.7</ele>
        <time>2023-06-21T14:46:49Z</time>
      </trkpt>
      <trkpt lat="49.76927" lon="2.14781">
        <ele>88.7</ele>
        <time>2023-06-21T14:46:50Z</time>
      </trkpt>
      <trkpt lat="49.76927" lon="2.14783">
        <ele>88.8</ele>
        <time>2023-06-21T14:46:52Z</time>
      </trkpt>
      <trkpt lat="49.76927" lon="2.14785">
        <ele>88.8</ele>
        <time>2023-06-21T14:46:53Z</time>
      </trkpt>
      <trkpt lat="49.76928" lon="2.14786">
        <ele>88.8</ele>
        <time>2023-06-21T14:46:54Z</time>
      </trkpt>
      <trkpt lat="49.76928" lon="2.14789">
        <ele>88.9</ele>
        <time>2023-06-21T14:46:56Z</time>
      </trkpt>
      <trkpt lat="49.76928" lon="2.14792">
        <ele>88.9</ele>
        <time>2023-06-21T14:46:57Z</time>
      </trkpt>
      <trkpt lat="49.76928" lon="2.14793">
        <ele>89</ele>
        <time>2023-06-21T14:46:58Z</time>
      </trkpt>
      <trkpt lat="49.76928" lon="2.14795">
        <ele>89</ele>
        <time>2023-06-21T14:46:59Z</time>
      </trkpt>
      <trkpt lat="49.76928" lon="2.14796">
        <ele>89</ele>
        <time>2023-06-21T14:47:00Z</time>
      </trkpt>
      <trkpt lat="49.76928" lon="2.14799">
        <ele>89.1</ele>
        <time>2023-06-21T14:47:01Z</time>
      </trkpt>
      <trkpt lat="49.76928" lon="2.148">
        <ele>89.1</ele>
        <time>2023-06-21T14:47:03Z</time>
      </trkpt>
      <trkpt lat="49.76928" lon="2.14802">
        <ele>89.1</ele>
        <time>2023-06-21T14:47:04Z</time>
      </trkpt>
      <trkpt lat="49.76929" lon="2.14804">
        <ele>89.1</ele>
        <time>2023-06-21T14:47:05Z</time>
      </trkpt>
      <trkpt lat="49.76929" lon="2.14806">
        <ele>89.2</ele>
        <time>2023-06-21T14:47:07Z</time>
      </trkpt>
      <trkpt lat="49.76929" lon="2.14809">
        <ele>89.2</ele>
        <time>2023-06-21T14:47:08Z</time>
      </trkpt>
      <trkpt lat="49.76929" lon="2.14811">
        <ele>89.3</ele>
        <time>2023-06-21T14:47:09Z</time>
      </trkpt>
      <trkpt lat="49.76929" lon="2.14812">
        <ele>89.3</ele>
        <time>2023-06-21T14:47:10Z</time>
      </trkpt>
      <trkpt lat="49.76929" lon="2.14814">
        <ele>89.3</ele>
        <time>2023-06-21T14:47:11Z</time>
      </trkpt>
      <trkpt lat="49.76929" lon="2.14816">
        <ele>89.3</ele>
        <time>2023-06-21T14:47:13Z</time>
      </trkpt>
      <trkpt lat="49.76929" lon="2.14817">
        <ele>89.3</ele>
        <time>2023-06-21T14:47:14Z</time>
      </trkpt>
      <trkpt lat="49.76928" lon="2.14819">
        <ele>89.4</ele>
        <time>2023-06-21T14:47:15Z</time>
      </trkpt>
      <trkpt lat="49.76928" lon="2.14821">
        <ele>89.4</ele>
        <time>2023-06-21T14:47:16Z</time>
      </trkpt>
      <trkpt lat="49.76928" lon="2.14824">
        <ele>89.4</ele>
        <time>2023-06-21T14:47:18Z</time>
      </trkpt>
      <trkpt lat="49.76929" lon="2.14825">
        <ele>89.4</ele>
        <time>2023-06-21T14:47:19Z</time>
      </trkpt>
      <trkpt lat="49.76929" lon="2.14827">
        <ele>89.4</ele>
        <time>2023-06-21T14:47:20Z</time>
      </trkpt>
      <trkpt lat="49.76929" lon="2.14829">
        <ele>89.5</ele>
        <time>2023-06-21T14:47:21Z</time>
      </trkpt>
      <trkpt lat="49.76929" lon="2.14832">
        <ele>89.5</ele>
        <time>2023-06-21T14:47:23Z</time>
      </trkpt>
      <trkpt lat="49.76929" lon="2.14834">
        <ele>89.5</ele>
        <time>2023-06-21T14:47:24Z</time>
      </trkpt>
      <trkpt lat="49.76929" lon="2.14835">
        <ele>89.5</ele>
        <time>2023-06-21T14:47:25Z</time>
      </trkpt>
      <trkpt lat="49.76929" lon="2.14838">
        <ele>89.5</ele>
        <time>2023-06-21T14:47:27Z</time>
      </trkpt>
      <trkpt lat="49.7693" lon="2.1484">
        <ele>89.5</ele>
        <time>2023-06-21T14:47:28Z</time>
      </trkpt>
      <trkpt lat="49.7693" lon="2.14842">
        <ele>89.5</ele>
        <time>2023-06-21T14:47:29Z</time>
      </trkpt>
      <trkpt lat="49.7693" lon="2.14844">
        <ele>89.5</ele>
        <time>2023-06-21T14:47:30Z</time>
      </trkpt>
      <trkpt lat="49.76931" lon="2.14846">
        <ele>89.5</ele>
        <time>2023-06-21T14:47:32Z</time>
      </trkpt>
      <trkpt lat="49.76931" lon="2.14848">
        <ele>89.5</ele>
        <time>2023-06-21T14:47:33Z</time>
      </trkpt>
      <trkpt lat="49.76932" lon="2.14849">
        <ele>89.5</ele>
        <time>2023-06-21T14:47:34Z</time>
      </trkpt>
      <trkpt lat="49.76932" lon="2.14851">
        <ele>89.5</ele>
        <time>2023-06-21T14:47:35Z</time>
      </trkpt>
      <trkpt lat="49.76933" lon="2.14853">
        <ele>89.5</ele>
        <time>2023-06-21T14:47:37Z</time>
      </trkpt>
      <trkpt lat="49.76933" lon="2.14855">
        <ele>89.5</ele>
        <time>2023-06-21T14:47:38Z</time>
      </trkpt>
      <trkpt lat="49.76933" lon="2.14856">
        <ele>89.5</ele>
        <time>2023-06-21T14:47:39Z</time>
      </trkpt>
      <trkpt lat="49.76933" lon="2.14858">
        <ele>89.5</ele>
        <time>2023-06-21T14:47:40Z</time>
      </trkpt>
      <trkpt lat="49.76934" lon="2.14861">
        <ele>89.5</ele>
        <time>2023-06-21T14:47:41Z</time>
      </trkpt>
      <trkpt lat="49.76934" lon="2.14863">
        <ele>89.5</ele>
        <time>2023-06-21T14:47:43Z</time>
      </trkpt>
      <trkpt lat="49.76934" lon="2.14864">
        <ele>89.5</ele>
        <time>2023-06-21T14:47:44Z</time>
      </trkpt>
      <trkpt lat="49.76934" lon="2.14866">
        <ele>89.5</ele>
        <time>2023-06-21T14:47:46Z</time>
      </trkpt>
      <trkpt lat="49.76934" lon="2.14867">
        <ele>89.4</ele>
        <time>2023-06-21T14:47:47Z</time>
      </trkpt>
      <trkpt lat="49.76934" lon="2.14869">
        <ele>89.4</ele>
        <time>2023-06-21T14:47:48Z</time>
      </trkpt>
      <trkpt lat="49.76934" lon="2.14871">
        <ele>89.4</ele>
        <time>2023-06-21T14:47:49Z</time>
      </trkpt>
      <trkpt lat="49.76935" lon="2.14874">
        <ele>89.4</ele>
        <time>2023-06-21T14:47:50Z</time>
      </trkpt>
      <trkpt lat="49.76935" lon="2.14876">
        <ele>89.4</ele>
        <time>2023-06-21T14:47:51Z</time>
      </trkpt>
      <trkpt lat="49.76935" lon="2.14878">
        <ele>89.4</ele>
        <time>2023-06-21T14:47:53Z</time>
      </trkpt>
      <trkpt lat="49.76935" lon="2.14881">
        <ele>89.3</ele>
        <time>2023-06-21T14:47:54Z</time>
      </trkpt>
      <trkpt lat="49.76935" lon="2.14885">
        <ele>89.3</ele>
        <time>2023-06-21T14:47:56Z</time>
      </trkpt>
      <trkpt lat="49.76935" lon="2.14887">
        <ele>89.3</ele>
        <time>2023-06-21T14:47:57Z</time>
      </trkpt>
      <trkpt lat="49.76935" lon="2.14889">
        <ele>89.3</ele>
        <time>2023-06-21T14:47:58Z</time>
      </trkpt>
      <trkpt lat="49.76935" lon="2.14894">
        <ele>89.2</ele>
        <time>2023-06-21T14:48:00Z</time>
      </trkpt>
      <trkpt lat="49.76935" lon="2.14895">
        <ele>89.2</ele>
        <time>2023-06-21T14:48:01Z</time>
      </trkpt>
      <trkpt lat="49.76936" lon="2.14898">
        <ele>89.2</ele>
        <time>2023-06-21T14:48:02Z</time>
      </trkpt>
      <trkpt lat="49.76936" lon="2.149">
        <ele>89.2</ele>
        <time>2023-06-21T14:48:03Z</time>
      </trkpt>
      <trkpt lat="49.76936" lon="2.14902">
        <ele>89.1</ele>
        <time>2023-06-21T14:48:04Z</time>
      </trkpt>
      <trkpt lat="49.76936" lon="2.14904">
        <ele>89.1</ele>
        <time>2023-06-21T14:48:06Z</time>
      </trkpt>
      <trkpt lat="49.76936" lon="2.14905">
        <ele>89.1</ele>
        <time>2023-06-21T14:48:07Z</time>
      </trkpt>
      <trkpt lat="49.76937" lon="2.14907">
        <ele>89.1</ele>
        <time>2023-06-21T14:48:08Z</time>
      </trkpt>
      <trkpt lat="49.76937" lon="2.14908">
        <ele>89.1</ele>
        <time>2023-06-21T14:48:09Z</time>
      </trkpt>
      <trkpt lat="49.76937" lon="2.14909">
        <ele>89.1</ele>
        <time>2023-06-21T14:48:10Z</time>
      </trkpt>
      <trkpt lat="49.76937" lon="2.1491">
        <ele>89.1</ele>
        <time>2023-06-21T14:48:11Z</time>
      </trkpt>
      <trkpt lat="49.76937" lon="2.14911">
        <ele>89.1</ele>
        <time>2023-06-21T14:48:12Z</time>
      </trkpt>
      <trkpt lat="49.76937" lon="2.14914">
        <ele>89</ele>
        <time>2023-06-21T14:48:14Z</time>
      </trkpt>
      <trkpt lat="49.76937" lon="2.14915">
        <ele>89</ele>
        <time>2023-06-21T14:48:15Z</time>
      </trkpt>
      <trkpt lat="49.76938" lon="2.14916">
        <ele>89</ele>
        <time>2023-06-21T14:48:16Z</time>
      </trkpt>
      <trkpt lat="49.76938" lon="2.14918">
        <ele>89</ele>
        <time>2023-06-21T14:48:17Z</time>
      </trkpt>
      <trkpt lat="49.76938" lon="2.1492">
        <ele>88.9</ele>
        <time>2023-06-21T14:48:18Z</time>
      </trkpt>
      <trkpt lat="49.76938" lon="2.14923">
        <ele>88.9</ele>
        <time>2023-06-21T14:48:19Z</time>
      </trkpt>
      <trkpt lat="49.76939" lon="2.14926">
        <ele>88.9</ele>
        <time>2023-06-21T14:48:20Z</time>
      </trkpt>
      <trkpt lat="49.76939" lon="2.14928">
        <ele>88.8</ele>
        <time>2023-06-21T14:48:22Z</time>
      </trkpt>
      <trkpt lat="49.7694" lon="2.1493">
        <ele>88.8</ele>
        <time>2023-06-21T14:48:23Z</time>
      </trkpt>
      <trkpt lat="49.7694" lon="2.14932">
        <ele>88.8</ele>
        <time>2023-06-21T14:48:24Z</time>
      </trkpt>
      <trkpt lat="49.7694" lon="2.14934">
        <ele>88.8</ele>
        <time>2023-06-21T14:48:26Z</time>
      </trkpt>
      <trkpt lat="49.7694" lon="2.14936">
        <ele>88.7</ele>
        <time>2023-06-21T14:48:27Z</time>
      </trkpt>
      <trkpt lat="49.7694" lon="2.14938">
        <ele>88.7</ele>
        <time>2023-06-21T14:48:28Z</time>
      </trkpt>
      <trkpt lat="49.76941" lon="2.14942">
        <ele>88.7</ele>
        <time>2023-06-21T14:48:30Z</time>
      </trkpt>
      <trkpt lat="49.76941" lon="2.14945">
        <ele>88.6</ele>
        <time>2023-06-21T14:48:31Z</time>
      </trkpt>
      <trkpt lat="49.76941" lon="2.14946">
        <ele>88.6</ele>
        <time>2023-06-21T14:48:32Z</time>
      </trkpt>
      <trkpt lat="49.76941" lon="2.14948">
        <ele>88.6</ele>
        <time>2023-06-21T14:48:33Z</time>
      </trkpt>
      <trkpt lat="49.76941" lon="2.1495">
        <ele>88.6</ele>
        <time>2023-06-21T14:48:34Z</time>
      </trkpt>
      <trkpt lat="49.76941" lon="2.14952">
        <ele>88.6</ele>
        <time>2023-06-21T14:48:35Z</time>
      </trkpt>
      <trkpt lat="49.76942" lon="2.14956">
        <ele>88.5</ele>
        <time>2023-06-21T14:48:36Z</time>
      </trkpt>
      <trkpt lat="49.76942" lon="2.14957">
        <ele>88.5</ele>
        <time>2023-06-21T14:48:37Z</time>
      </trkpt>
      <trkpt lat="49.76942" lon="2.14958">
        <ele>88.5</ele>
        <time>2023-06-21T14:48:38Z</time>
      </trkpt>
      <trkpt lat="49.76942" lon="2.14959">
        <ele>88.5</ele>
        <time>2023-06-21T14:48:39Z</time>
      </trkpt>
      <trkpt lat="49.76943" lon="2.14961">
        <ele>88.5</ele>
        <time>2023-06-21T14:48:41Z</time>
      </trkpt>
      <trkpt lat="49.76943" lon="2.14963">
        <ele>88.4</ele>
        <time>2023-06-21T14:48:42Z</time>
      </trkpt>
      <trkpt lat="49.76943" lon="2.14965">
        <ele>88.4</ele>
        <time>2023-06-21T14:48:43Z</time>
      </trkpt>
      <trkpt lat="49.76944" lon="2.14967">
        <ele>88.4</ele>
        <time>2023-06-21T14:48:44Z</time>
      </trkpt>
      <trkpt lat="49.76944" lon="2.14968">
        <ele>88.4</ele>
        <time>2023-06-21T14:48:45Z</time>
      </trkpt>
      <trkpt lat="49.76944" lon="2.14971">
        <ele>88.3</ele>
        <time>2023-06-21T14:48:47Z</time>
      </trkpt>
      <trkpt lat="49.76944" lon="2.14973">
        <ele>88.3</ele>
        <time>2023-06-21T14:48:48Z</time>
      </trkpt>
      <trkpt lat="49.76943" lon="2.14976">
        <ele>88.3</ele>
        <time>2023-06-21T14:48:49Z</time>
      </trkpt>
      <trkpt lat="49.76943" lon="2.14978">
        <ele>88.3</ele>
        <time>2023-06-21T14:48:50Z</time>
      </trkpt>
      <trkpt lat="49.76944" lon="2.14979">
        <ele>88.2</ele>
        <time>2023-06-21T14:48:51Z</time>
      </trkpt>
      <trkpt lat="49.76944" lon="2.14982">
        <ele>88.2</ele>
        <time>2023-06-21T14:48:53Z</time>
      </trkpt>
      <trkpt lat="49.76944" lon="2.14984">
        <ele>88.2</ele>
        <time>2023-06-21T14:48:54Z</time>
      </trkpt>
      <trkpt lat="49.76944" lon="2.14987">
        <ele>88.1</ele>
        <time>2023-06-21T14:48:55Z</time>
      </trkpt>
      <trkpt lat="49.76944" lon="2.14989">
        <ele>88.1</ele>
        <time>2023-06-21T14:48:56Z</time>
      </trkpt>
      <trkpt lat="49.76944" lon="2.1499">
        <ele>88.1</ele>
        <time>2023-06-21T14:48:57Z</time>
      </trkpt>
      <trkpt lat="49.76945" lon="2.14992">
        <ele>88.1</ele>
        <time>2023-06-21T14:48:58Z</time>
      </trkpt>
      <trkpt lat="49.76945" lon="2.14995">
        <ele>88</ele>
        <time>2023-06-21T14:49:00Z</time>
      </trkpt>
      <trkpt lat="49.76945" lon="2.14998">
        <ele>88</ele>
        <time>2023-06-21T14:49:02Z</time>
      </trkpt>
      <trkpt lat="49.76945" lon="2.15">
        <ele>87.9</ele>
        <time>2023-06-21T14:49:03Z</time>
      </trkpt>
      <trkpt lat="49.76945" lon="2.15003">
        <ele>87.9</ele>
        <time>2023-06-21T14:49:04Z</time>
      </trkpt>
      <trkpt lat="49.76945" lon="2.15005">
        <ele>87.9</ele>
        <time>2023-06-21T14:49:05Z</time>
      </trkpt>
      <trkpt lat="49.76945" lon="2.15008">
        <ele>87.8</ele>
        <time>2023-06-21T14:49:06Z</time>
      </trkpt>
      <trkpt lat="49.76945" lon="2.15009">
        <ele>87.8</ele>
        <time>2023-06-21T14:49:08Z</time>
      </trkpt>
      <trkpt lat="49.76946" lon="2.15011">
        <ele>87.8</ele>
        <time>2023-06-21T14:49:09Z</time>
      </trkpt>
      <trkpt lat="49.76946" lon="2.15013">
        <ele>87.8</ele>
        <time>2023-06-21T14:49:10Z</time>
      </trkpt>
      <trkpt lat="49.76946" lon="2.15015">
        <ele>87.7</ele>
        <time>2023-06-21T14:49:11Z</time>
      </trkpt>
      <trkpt lat="49.76946" lon="2.15016">
        <ele>87.7</ele>
        <time>2023-06-21T14:49:12Z</time>
      </trkpt>
      <trkpt lat="49.76947" lon="2.15018">
        <ele>87.7</ele>
        <time>2023-06-21T14:49:14Z</time>
      </trkpt>
      <trkpt lat="49.76947" lon="2.15019">
        <ele>87.7</ele>
        <time>2023-06-21T14:49:15Z</time>
      </trkpt>
      <trkpt lat="49.76947" lon="2.15023">
        <ele>87.6</ele>
        <time>2023-06-21T14:49:17Z</time>
      </trkpt>
      <trkpt lat="49.76947" lon="2.15025">
        <ele>87.6</ele>
        <time>2023-06-21T14:49:18Z</time>
      </trkpt>
      <trkpt lat="49.76947" lon="2.15028">
        <ele>87.6</ele>
        <time>2023-06-21T14:49:20Z</time>
      </trkpt>
      <trkpt lat="49.76948" lon="2.1503">
        <ele>87.6</ele>
        <time>2023-06-21T14:49:21Z</time>
      </trkpt>
      <trkpt lat="49.76948" lon="2.15033">
        <ele>87.5</ele>
        <time>2023-06-21T14:49:22Z</time>
      </trkpt>
      <trkpt lat="49.76948" lon="2.15038">
        <ele>87.5</ele>
        <time>2023-06-21T14:49:23Z</time>
      </trkpt>
      <trkpt lat="49.76948" lon="2.1504">
        <ele>87.5</ele>
        <time>2023-06-21T14:49:24Z</time>
      </trkpt>
      <trkpt lat="49.76948" lon="2.15042">
        <ele>87.4</ele>
        <time>2023-06-21T14:49:25Z</time>
      </trkpt>
      <trkpt lat="49.76949" lon="2.15044">
        <ele>87.4</ele>
        <time>2023-06-21T14:49:27Z</time>
      </trkpt>
      <trkpt lat="49.76949" lon="2.15046">
        <ele>87.4</ele>
        <time>2023-06-21T14:49:28Z</time>
      </trkpt>
      <trkpt lat="49.76949" lon="2.15047">
        <ele>87.4</ele>
        <time>2023-06-21T14:49:29Z</time>
      </trkpt>
      <trkpt lat="49.76949" lon="2.15049">
        <ele>87.4</ele>
        <time>2023-06-21T14:49:30Z</time>
      </trkpt>
      <trkpt lat="49.76949" lon="2.15053">
        <ele>87.3</ele>
        <time>2023-06-21T14:49:31Z</time>
      </trkpt>
      <trkpt lat="49.7695" lon="2.15054">
        <ele>87.3</ele>
        <time>2023-06-21T14:49:33Z</time>
      </trkpt>
      <trkpt lat="49.7695" lon="2.15055">
        <ele>87.3</ele>
        <time>2023-06-21T14:49:34Z</time>
      </trkpt>
      <trkpt lat="49.76949" lon="2.15057">
        <ele>87.3</ele>
        <time>2023-06-21T14:49:35Z</time>
      </trkpt>
      <trkpt lat="49.76949" lon="2.15059">
        <ele>87.3</ele>
        <time>2023-06-21T14:49:36Z</time>
      </trkpt>
      <trkpt lat="49.7695" lon="2.15062">
        <ele>87.2</ele>
        <time>2023-06-21T14:49:38Z</time>
      </trkpt>
      <trkpt lat="49.7695" lon="2.15064">
        <ele>87.2</ele>
        <time>2023-06-21T14:49:39Z</time>
      </trkpt>
      <trkpt lat="49.7695" lon="2.15066">
        <ele>87.2</ele>
        <time>2023-06-21T14:49:40Z</time>
      </trkpt>
      <trkpt lat="49.7695" lon="2.15068">
        <ele>87.2</ele>
        <time>2023-06-21T14:49:42Z</time>
      </trkpt>
      <trkpt lat="49.7695" lon="2.1507">
        <ele>87.2</ele>
        <time>2023-06-21T14:49:43Z</time>
      </trkpt>
      <trkpt lat="49.7695" lon="2.15072">
        <ele>87.1</ele>
        <time>2023-06-21T14:49:44Z</time>
      </trkpt>
      <trkpt lat="49.76951" lon="2.15078">
        <ele>87.1</ele>
        <time>2023-06-21T14:49:46Z</time>
      </trkpt>
      <trkpt lat="49.76951" lon="2.15079">
        <ele>87.1</ele>
        <time>2023-06-21T14:49:47Z</time>
      </trkpt>
      <trkpt lat="49.76951" lon="2.15082">
        <ele>87</ele>
        <time>2023-06-21T14:49:48Z</time>
      </trkpt>
      <trkpt lat="49.76951" lon="2.15084">
        <ele>87</ele>
        <time>2023-06-21T14:49:49Z</time>
      </trkpt>
      <trkpt lat="49.76951" lon="2.15086">
        <ele>87</ele>
        <time>2023-06-21T14:49:50Z</time>
      </trkpt>
      <trkpt lat="49.76951" lon="2.15089">
        <ele>86.9</ele>
        <time>2023-06-21T14:49:51Z</time>
      </trkpt>
      <trkpt lat="49.76952" lon="2.15091">
        <ele>86.9</ele>
        <time>2023-06-21T14:49:53Z</time>
      </trkpt>
      <trkpt lat="49.76952" lon="2.15092">
        <ele>86.9</ele>
        <time>2023-06-21T14:49:55Z</time>
      </trkpt>
      <trkpt lat="49.76952" lon="2.15093">
        <ele>86.9</ele>
        <time>2023-06-21T14:49:56Z</time>
      </trkpt>
      <trkpt lat="49.76952" lon="2.15094">
        <ele>86.9</ele>
        <time>2023-06-21T14:49:58Z</time>
      </trkpt>
      <trkpt lat="49.76952" lon="2.15095">
        <ele>86.9</ele>
        <time>2023-06-21T14:49:59Z</time>
      </trkpt>
      <trkpt lat="49.76952" lon="2.15096">
        <ele>86.9</ele>
        <time>2023-06-21T14:50:00Z</time>
      </trkpt>
      <trkpt lat="49.76953" lon="2.15098">
        <ele>86.8</ele>
        <time>2023-06-21T14:50:01Z</time>
      </trkpt>
      <trkpt lat="49.76953" lon="2.151">
        <ele>86.8</ele>
        <time>2023-06-21T14:50:03Z</time>
      </trkpt>
      <trkpt lat="49.76954" lon="2.15102">
        <ele>86.8</ele>
        <time>2023-06-21T14:50:04Z</time>
      </trkpt>
      <trkpt lat="49.76954" lon="2.15105">
        <ele>86.8</ele>
        <time>2023-06-21T14:50:05Z</time>
      </trkpt>
      <trkpt lat="49.76954" lon="2.15108">
        <ele>86.7</ele>
        <time>2023-06-21T14:50:07Z</time>
      </trkpt>
      <trkpt lat="49.76954" lon="2.1511">
        <ele>86.7</ele>
        <time>2023-06-21T14:50:08Z</time>
      </trkpt>
      <trkpt lat="49.76954" lon="2.15112">
        <ele>86.7</ele>
        <time>2023-06-21T14:50:09Z</time>
      </trkpt>
      <trkpt lat="49.76955" lon="2.15117">
        <ele>86.6</ele>
        <time>2023-06-21T14:50:11Z</time>
      </trkpt>
      <trkpt lat="49.76955" lon="2.15118">
        <ele>86.6</ele>
        <time>2023-06-21T14:50:12Z</time>
      </trkpt>
      <trkpt lat="49.76955" lon="2.15119">
        <ele>86.6</ele>
        <time>2023-06-21T14:50:13Z</time>
      </trkpt>
      <trkpt lat="49.76955" lon="2.1512">
        <ele>86.6</ele>
        <time>2023-06-21T14:50:14Z</time>
      </trkpt>
      <trkpt lat="49.76955" lon="2.15122">
        <ele>86.5</ele>
        <time>2023-06-21T14:50:15Z</time>
      </trkpt>
      <trkpt lat="49.76955" lon="2.15124">
        <ele>86.5</ele>
        <time>2023-06-21T14:50:16Z</time>
      </trkpt>
      <trkpt lat="49.76955" lon="2.15127">
        <ele>86.5</ele>
        <time>2023-06-21T14:50:17Z</time>
      </trkpt>
      <trkpt lat="49.76954" lon="2.15128">
        <ele>86.4</ele>
        <time>2023-06-21T14:50:18Z</time>
      </trkpt>
      <trkpt lat="49.76954" lon="2.1513">
        <ele>86.4</ele>
        <time>2023-06-21T14:50:19Z</time>
      </trkpt>
      <trkpt lat="49.76954" lon="2.1513">
        <ele>86.4</ele>
        <time>2023-06-21T14:50:20Z</time>
      </trkpt>
      <trkpt lat="49.76954" lon="2.15131">
        <ele>86.4</ele>
        <time>2023-06-21T14:50:22Z</time>
      </trkpt>
      <trkpt lat="49.76953" lon="2.15132">
        <ele>86.4</ele>
        <time>2023-06-21T14:50:23Z</time>
      </trkpt>
      <trkpt lat="49.76953" lon="2.15134">
        <ele>86.3</ele>
        <time>2023-06-21T14:50:24Z</time>
      </trkpt>
      <trkpt lat="49.76953" lon="2.15134">
        <ele>86.3</ele>
        <time>2023-06-21T14:50:25Z</time>
      </trkpt>
      <trkpt lat="49.76953" lon="2.15136">
        <ele>86.3</ele>
        <time>2023-06-21T14:50:26Z</time>
      </trkpt>
      <trkpt lat="49.76952" lon="2.15138">
        <ele>86.2</ele>
        <time>2023-06-21T14:50:27Z</time>
      </trkpt>
      <trkpt lat="49.76952" lon="2.1514">
        <ele>86.2</ele>
        <time>2023-06-21T14:50:28Z</time>
      </trkpt>
      <trkpt lat="49.76952" lon="2.15141">
        <ele>86.2</ele>
        <time>2023-06-21T14:50:29Z</time>
      </trkpt>
      <trkpt lat="49.76952" lon="2.15143">
        <ele>86.2</ele>
        <time>2023-06-21T14:50:30Z</time>
      </trkpt>
      <trkpt lat="49.76951" lon="2.15145">
        <ele>86.1</ele>
        <time>2023-06-21T14:50:31Z</time>
      </trkpt>
      <trkpt lat="49.76951" lon="2.15147">
        <ele>86.1</ele>
        <time>2023-06-21T14:50:33Z</time>
      </trkpt>
      <trkpt lat="49.7695" lon="2.15149">
        <ele>86</ele>
        <time>2023-06-21T14:50:34Z</time>
      </trkpt>
      <trkpt lat="49.7695" lon="2.15152">
        <ele>86</ele>
        <time>2023-06-21T14:50:35Z</time>
      </trkpt>
      <trkpt lat="49.76949" lon="2.15154">
        <ele>85.9</ele>
        <time>2023-06-21T14:50:37Z</time>
      </trkpt>
      <trkpt lat="49.76949" lon="2.15156">
        <ele>85.9</ele>
        <time>2023-06-21T14:50:38Z</time>
      </trkpt>
      <trkpt lat="49.76948" lon="2.15159">
        <ele>85.8</ele>
        <time>2023-06-21T14:50:39Z</time>
      </trkpt>
      <trkpt lat="49.76948" lon="2.15161">
        <ele>85.8</ele>
        <time>2023-06-21T14:50:40Z</time>
      </trkpt>
      <trkpt lat="49.76948" lon="2.15162">
        <ele>85.8</ele>
        <time>2023-06-21T14:50:41Z</time>
      </trkpt>
      <trkpt lat="49.76948" lon="2.15165">
        <ele>85.7</ele>
        <time>2023-06-21T14:50:42Z</time>
      </trkpt>
      <trkpt lat="49.76947" lon="2.15168">
        <ele>85.7</ele>
        <time>2023-06-21T14:50:44Z</time>
      </trkpt>
      <trkpt lat="49.76947" lon="2.1517">
        <ele>85.6</ele>
        <time>2023-06-21T14:50:45Z</time>
      </trkpt>
      <trkpt lat="49.76946" lon="2.15173">
        <ele>85.6</ele>
        <time>2023-06-21T14:50:46Z</time>
      </trkpt>
      <trkpt lat="49.76945" lon="2.15177">
        <ele>85.5</ele>
        <time>2023-06-21T14:50:47Z</time>
      </trkpt>
      <trkpt lat="49.76945" lon="2.15178">
        <ele>85.5</ele>
        <time>2023-06-21T14:50:48Z</time>
      </trkpt>
      <trkpt lat="49.76945" lon="2.15183">
        <ele>85.4</ele>
        <time>2023-06-21T14:50:50Z</time>
      </trkpt>
      <trkpt lat="49.76944" lon="2.15184">
        <ele>85.3</ele>
        <time>2023-06-21T14:50:51Z</time>
      </trkpt>
      <trkpt lat="49.76943" lon="2.15189">
        <ele>85.2</ele>
        <time>2023-06-21T14:50:53Z</time>
      </trkpt>
      <trkpt lat="49.76942" lon="2.15192">
        <ele>85.2</ele>
        <time>2023-06-21T14:50:54Z</time>
      </trkpt>
      <trkpt lat="49.76942" lon="2.15194">
        <ele>85.1</ele>
        <time>2023-06-21T14:50:55Z</time>
      </trkpt>
      <trkpt lat="49.76942" lon="2.15196">
        <ele>85.1</ele>
        <time>2023-06-21T14:50:56Z</time>
      </trkpt>
      <trkpt lat="49.76941" lon="2.15198">
        <ele>85</ele>
        <time>2023-06-21T14:50:57Z</time>
      </trkpt>
      <trkpt lat="49.76941" lon="2.15199">
        <ele>85</ele>
        <time>2023-06-21T14:50:58Z</time>
      </trkpt>
      <trkpt lat="49.7694" lon="2.15201">
        <ele>85</ele>
        <time>2023-06-21T14:50:59Z</time>
      </trkpt>
      <trkpt lat="49.76939" lon="2.15203">
        <ele>84.9</ele>
        <time>2023-06-21T14:51:01Z</time>
      </trkpt>
      <trkpt lat="49.76939" lon="2.15204">
        <ele>84.9</ele>
        <time>2023-06-21T14:51:02Z</time>
      </trkpt>
      <trkpt lat="49.76939" lon="2.15206">
        <ele>84.9</ele>
        <time>2023-06-21T14:51:03Z</time>
      </trkpt>
      <trkpt lat="49.76938" lon="2.1521">
        <ele>84.8</ele>
        <time>2023-06-21T14:51:05Z</time>
      </trkpt>
      <trkpt lat="49.76937" lon="2.15212">
        <ele>84.8</ele>
        <time>2023-06-21T14:51:06Z</time>
      </trkpt>
      <trkpt lat="49.76937" lon="2.15214">
        <ele>84.8</ele>
        <time>2023-06-21T14:51:07Z</time>
      </trkpt>
      <trkpt lat="49.76936" lon="2.15215">
        <ele>84.7</ele>
        <time>2023-06-21T14:51:08Z</time>
      </trkpt>
      <trkpt lat="49.76936" lon="2.15218">
        <ele>84.7</ele>
        <time>2023-06-21T14:51:10Z</time>
      </trkpt>
      <trkpt lat="49.76935" lon="2.15218">
        <ele>84.7</ele>
        <time>2023-06-21T14:51:11Z</time>
      </trkpt>
      <trkpt lat="49.76935" lon="2.15219">
        <ele>84.7</ele>
        <time>2023-06-21T14:51:12Z</time>
      </trkpt>
      <trkpt lat="49.76934" lon="2.15221">
        <ele>84.7</ele>
        <time>2023-06-21T14:51:13Z</time>
      </trkpt>
      <trkpt lat="49.76933" lon="2.15222">
        <ele>84.6</ele>
        <time>2023-06-21T14:51:14Z</time>
      </trkpt>
      <trkpt lat="49.76933" lon="2.15225">
        <ele>84.6</ele>
        <time>2023-06-21T14:51:15Z</time>
      </trkpt>
      <trkpt lat="49.76932" lon="2.15227">
        <ele>84.6</ele>
        <time>2023-06-21T14:51:17Z</time>
      </trkpt>
      <trkpt lat="49.76932" lon="2.15228">
        <ele>84.6</ele>
        <time>2023-06-21T14:51:18Z</time>
      </trkpt>
      <trkpt lat="49.76931" lon="2.1523">
        <ele>84.5</ele>
        <time>2023-06-21T14:51:19Z</time>
      </trkpt>
      <trkpt lat="49.7693" lon="2.15232">
        <ele>84.5</ele>
        <time>2023-06-21T14:51:20Z</time>
      </trkpt>
      <trkpt lat="49.76929" lon="2.15233">
        <ele>84.5</ele>
        <time>2023-06-21T14:51:22Z</time>
      </trkpt>
      <trkpt lat="49.76929" lon="2.15234">
        <ele>84.5</ele>
        <time>2023-06-21T14:51:23Z</time>
      </trkpt>
      <trkpt lat="49.76928" lon="2.15235">
        <ele>84.5</ele>
        <time>2023-06-21T14:51:24Z</time>
      </trkpt>
      <trkpt lat="49.76927" lon="2.15236">
        <ele>84.4</ele>
        <time>2023-06-21T14:51:25Z</time>
      </trkpt>
      <trkpt lat="49.76926" lon="2.15238">
        <ele>84.4</ele>
        <time>2023-06-21T14:51:26Z</time>
      </trkpt>
      <trkpt lat="49.76925" lon="2.1524">
        <ele>84.4</ele>
        <time>2023-06-21T14:51:28Z</time>
      </trkpt>
      <trkpt lat="49.76924" lon="2.15242">
        <ele>84.4</ele>
        <time>2023-06-21T14:51:29Z</time>
      </trkpt>
      <trkpt lat="49.76924" lon="2.15243">
        <ele>84.3</ele>
        <time>2023-06-21T14:51:30Z</time>
      </trkpt>
      <trkpt lat="49.76923" lon="2.15245">
        <ele>84.3</ele>
        <time>2023-06-21T14:51:31Z</time>
      </trkpt>
      <trkpt lat="49.76922" lon="2.15246">
        <ele>84.3</ele>
        <time>2023-06-21T14:51:32Z</time>
      </trkpt>
      <trkpt lat="49.76921" lon="2.15248">
        <ele>84.3</ele>
        <time>2023-06-21T14:51:33Z</time>
      </trkpt>
      <trkpt lat="49.7692" lon="2.15251">
        <ele>84.2</ele>
        <time>2023-06-21T14:51:35Z</time>
      </trkpt>
      <trkpt lat="49.7692" lon="2.15253">
        <ele>84.2</ele>
        <time>2023-06-21T14:51:36Z</time>
      </trkpt>
      <trkpt lat="49.76919" lon="2.15255">
        <ele>84.2</ele>
        <time>2023-06-21T14:51:37Z</time>
      </trkpt>
      <trkpt lat="49.76918" lon="2.15257">
        <ele>84.2</ele>
        <time>2023-06-21T14:51:38Z</time>
      </trkpt>
      <trkpt lat="49.76918" lon="2.15259">
        <ele>84.2</ele>
        <time>2023-06-21T14:51:39Z</time>
      </trkpt>
      <trkpt lat="49.76917" lon="2.15261">
        <ele>84.1</ele>
        <time>2023-06-21T14:51:40Z</time>
      </trkpt>
      <trkpt lat="49.76917" lon="2.15263">
        <ele>84.1</ele>
        <time>2023-06-21T14:51:41Z</time>
      </trkpt>
      <trkpt lat="49.76917" lon="2.15265">
        <ele>84.1</ele>
        <time>2023-06-21T14:51:42Z</time>
      </trkpt>
      <trkpt lat="49.76916" lon="2.15266">
        <ele>84.1</ele>
        <time>2023-06-21T14:51:43Z</time>
      </trkpt>
      <trkpt lat="49.76916" lon="2.15267">
        <ele>84.1</ele>
        <time>2023-06-21T14:51:45Z</time>
      </trkpt>
      <trkpt lat="49.76916" lon="2.15269">
        <ele>84.1</ele>
        <time>2023-06-21T14:51:46Z</time>
      </trkpt>
      <trkpt lat="49.76916" lon="2.15271">
        <ele>84.1</ele>
        <time>2023-06-21T14:51:47Z</time>
      </trkpt>
      <trkpt lat="49.76915" lon="2.15275">
        <ele>84</ele>
        <time>2023-06-21T14:51:48Z</time>
      </trkpt>
      <trkpt lat="49.76914" lon="2.15277">
        <ele>84</ele>
        <time>2023-06-21T14:51:50Z</time>
      </trkpt>
      <trkpt lat="49.76914" lon="2.1528">
        <ele>84</ele>
        <time>2023-06-21T14:51:51Z</time>
      </trkpt>
      <trkpt lat="49.76914" lon="2.15282">
        <ele>84</ele>
        <time>2023-06-21T14:51:52Z</time>
      </trkpt>
      <trkpt lat="49.76913" lon="2.15283">
        <ele>84</ele>
        <time>2023-06-21T14:51:53Z</time>
      </trkpt>
      <trkpt lat="49.76913" lon="2.15284">
        <ele>84</ele>
        <time>2023-06-21T14:51:54Z</time>
      </trkpt>
      <trkpt lat="49.76913" lon="2.15286">
        <ele>83.9</ele>
        <time>2023-06-21T14:51:55Z</time>
      </trkpt>
      <trkpt lat="49.76913" lon="2.15287">
        <ele>83.9</ele>
        <time>2023-06-21T14:51:56Z</time>
      </trkpt>
      <trkpt lat="49.76912" lon="2.15288">
        <ele>83.9</ele>
        <time>2023-06-21T14:51:57Z</time>
      </trkpt>
      <trkpt lat="49.76912" lon="2.15289">
        <ele>83.9</ele>
        <time>2023-06-21T14:51:59Z</time>
      </trkpt>
      <trkpt lat="49.76911" lon="2.15291">
        <ele>83.9</ele>
        <time>2023-06-21T14:52:00Z</time>
      </trkpt>
      <trkpt lat="49.76911" lon="2.15292">
        <ele>83.9</ele>
        <time>2023-06-21T14:52:01Z</time>
      </trkpt>
      <trkpt lat="49.76911" lon="2.15293">
        <ele>83.9</ele>
        <time>2023-06-21T14:52:02Z</time>
      </trkpt>
      <trkpt lat="49.76911" lon="2.15295">
        <ele>83.9</ele>
        <time>2023-06-21T14:52:03Z</time>
      </trkpt>
      <trkpt lat="49.76911" lon="2.15297">
        <ele>83.9</ele>
        <time>2023-06-21T14:52:04Z</time>
      </trkpt>
      <trkpt lat="49.76911" lon="2.15298">
        <ele>83.9</ele>
        <time>2023-06-21T14:52:05Z</time>
      </trkpt>
      <trkpt lat="49.7691" lon="2.153">
        <ele>83.9</ele>
        <time>2023-06-21T14:52:07Z</time>
      </trkpt>
      <trkpt lat="49.7691" lon="2.15301">
        <ele>83.9</ele>
        <time>2023-06-21T14:52:08Z</time>
      </trkpt>
      <trkpt lat="49.7691" lon="2.15303">
        <ele>83.9</ele>
        <time>2023-06-21T14:52:09Z</time>
      </trkpt>
      <trkpt lat="49.7691" lon="2.15304">
        <ele>83.9</ele>
        <time>2023-06-21T14:52:10Z</time>
      </trkpt>
      <trkpt lat="49.7691" lon="2.15305">
        <ele>83.9</ele>
        <time>2023-06-21T14:52:11Z</time>
      </trkpt>
      <trkpt lat="49.76909" lon="2.15306">
        <ele>83.9</ele>
        <time>2023-06-21T14:52:12Z</time>
      </trkpt>
      <trkpt lat="49.76909" lon="2.15308">
        <ele>83.9</ele>
        <time>2023-06-21T14:52:13Z</time>
      </trkpt>
      <trkpt lat="49.76908" lon="2.15309">
        <ele>83.9</ele>
        <time>2023-06-21T14:52:15Z</time>
      </trkpt>
      <trkpt lat="49.76907" lon="2.15311">
        <ele>83.9</ele>
        <time>2023-06-21T14:52:16Z</time>
      </trkpt>
      <trkpt lat="49.76907" lon="2.15312">
        <ele>83.9</ele>
        <time>2023-06-21T14:52:17Z</time>
      </trkpt>
      <trkpt lat="49.76907" lon="2.15312">
        <ele>83.9</ele>
        <time>2023-06-21T14:52:18Z</time>
      </trkpt>
      <trkpt lat="49.76907" lon="2.15314">
        <ele>83.9</ele>
        <time>2023-06-21T14:52:19Z</time>
      </trkpt>
      <trkpt lat="49.76907" lon="2.15315">
        <ele>83.9</ele>
        <time>2023-06-21T14:52:20Z</time>
      </trkpt>
      <trkpt lat="49.76906" lon="2.15317">
        <ele>83.9</ele>
        <time>2023-06-21T14:52:21Z</time>
      </trkpt>
      <trkpt lat="49.76906" lon="2.15319">
        <ele>83.9</ele>
        <time>2023-06-21T14:52:23Z</time>
      </trkpt>
      <trkpt lat="49.76905" lon="2.15321">
        <ele>83.9</ele>
        <time>2023-06-21T14:52:24Z</time>
      </trkpt>
      <trkpt lat="49.76905" lon="2.15322">
        <ele>83.9</ele>
        <time>2023-06-21T14:52:25Z</time>
      </trkpt>
      <trkpt lat="49.76905" lon="2.15324">
        <ele>83.9</ele>
        <time>2023-06-21T14:52:26Z</time>
      </trkpt>
      <trkpt lat="49.76904" lon="2.15326">
        <ele>83.9</ele>
        <time>2023-06-21T14:52:27Z</time>
      </trkpt>
      <trkpt lat="49.76904" lon="2.15327">
        <ele>83.9</ele>
        <time>2023-06-21T14:52:28Z</time>
      </trkpt>
      <trkpt lat="49.76904" lon="2.15329">
        <ele>83.9</ele>
        <time>2023-06-21T14:52:30Z</time>
      </trkpt>
      <trkpt lat="49.76904" lon="2.1533">
        <ele>83.9</ele>
        <time>2023-06-21T14:52:31Z</time>
      </trkpt>
      <trkpt lat="49.76904" lon="2.15331">
        <ele>83.9</ele>
        <time>2023-06-21T14:52:32Z</time>
      </trkpt>
      <trkpt lat="49.76903" lon="2.15332">
        <ele>83.9</ele>
        <time>2023-06-21T14:52:33Z</time>
      </trkpt>
      <trkpt lat="49.76903" lon="2.15333">
        <ele>83.9</ele>
        <time>2023-06-21T14:52:34Z</time>
      </trkpt>
      <trkpt lat="49.76902" lon="2.15336">
        <ele>83.9</ele>
        <time>2023-06-21T14:52:36Z</time>
      </trkpt>
      <trkpt lat="49.76902" lon="2.15338">
        <ele>83.9</ele>
        <time>2023-06-21T14:52:37Z</time>
      </trkpt>
      <trkpt lat="49.76902" lon="2.1534">
        <ele>83.9</ele>
        <time>2023-06-21T14:52:38Z</time>
      </trkpt>
      <trkpt lat="49.76901" lon="2.15341">
        <ele>83.9</ele>
        <time>2023-06-21T14:52:39Z</time>
      </trkpt>
      <trkpt lat="49.76901" lon="2.15343">
        <ele>83.9</ele>
        <time>2023-06-21T14:52:40Z</time>
      </trkpt>
      <trkpt lat="49.76901" lon="2.15345">
        <ele>83.9</ele>
        <time>2023-06-21T14:52:42Z</time>
      </trkpt>
      <trkpt lat="49.769" lon="2.15347">
        <ele>83.9</ele>
        <time>2023-06-21T14:52:43Z</time>
      </trkpt>
      <trkpt lat="49.76899" lon="2.1535">
        <ele>83.9</ele>
        <time>2023-06-21T14:52:45Z</time>
      </trkpt>
      <trkpt lat="49.76898" lon="2.15352">
        <ele>83.9</ele>
        <time>2023-06-21T14:52:46Z</time>
      </trkpt>
      <trkpt lat="49.76897" lon="2.15354">
        <ele>83.9</ele>
        <time>2023-06-21T14:52:47Z</time>
      </trkpt>
      <trkpt lat="49.76896" lon="2.15356">
        <ele>83.9</ele>
        <time>2023-06-21T14:52:48Z</time>
      </trkpt>
      <trkpt lat="49.76896" lon="2.15358">
        <ele>83.9</ele>
        <time>2023-06-21T14:52:49Z</time>
      </trkpt>
      <trkpt lat="49.76895" lon="2.15361">
        <ele>83.9</ele>
        <time>2023-06-21T14:52:50Z</time>
      </trkpt>
      <trkpt lat="49.76894" lon="2.15362">
        <ele>83.9</ele>
        <time>2023-06-21T14:52:51Z</time>
      </trkpt>
      <trkpt lat="49.76894" lon="2.15363">
        <ele>83.9</ele>
        <time>2023-06-21T14:52:53Z</time>
      </trkpt>
      <trkpt lat="49.76893" lon="2.15364">
        <ele>83.9</ele>
        <time>2023-06-21T14:52:54Z</time>
      </trkpt>
      <trkpt lat="49.76893" lon="2.15366">
        <ele>83.9</ele>
        <time>2023-06-21T14:52:55Z</time>
      </trkpt>
      <trkpt lat="49.76892" lon="2.15367">
        <ele>83.9</ele>
        <time>2023-06-21T14:52:56Z</time>
      </trkpt>
      <trkpt lat="49.76891" lon="2.1537">
        <ele>83.9</ele>
        <time>2023-06-21T14:52:58Z</time>
      </trkpt>
      <trkpt lat="49.7689" lon="2.15371">
        <ele>83.9</ele>
        <time>2023-06-21T14:52:59Z</time>
      </trkpt>
      <trkpt lat="49.76889" lon="2.15373">
        <ele>83.9</ele>
        <time>2023-06-21T14:53:00Z</time>
      </trkpt>
      <trkpt lat="49.76889" lon="2.15374">
        <ele>83.9</ele>
        <time>2023-06-21T14:53:01Z</time>
      </trkpt>
      <trkpt lat="49.76888" lon="2.15374">
        <ele>83.9</ele>
        <time>2023-06-21T14:53:02Z</time>
      </trkpt>
      <trkpt lat="49.76887" lon="2.15376">
        <ele>83.8</ele>
        <time>2023-06-21T14:53:04Z</time>
      </trkpt>
      <trkpt lat="49.76886" lon="2.15376">
        <ele>83.8</ele>
        <time>2023-06-21T14:53:05Z</time>
      </trkpt>
      <trkpt lat="49.76885" lon="2.15376">
        <ele>83.8</ele>
        <time>2023-06-21T14:53:06Z</time>
      </trkpt>
      <trkpt lat="49.76884" lon="2.15376">
        <ele>83.8</ele>
        <time>2023-06-21T14:53:07Z</time>
      </trkpt>
      <trkpt lat="49.76884" lon="2.15377">
        <ele>83.8</ele>
        <time>2023-06-21T14:53:08Z</time>
      </trkpt>
      <trkpt lat="49.76884" lon="2.15378">
        <ele>83.8</ele>
        <time>2023-06-21T14:53:09Z</time>
      </trkpt>
      <trkpt lat="49.76884" lon="2.1538">
        <ele>83.8</ele>
        <time>2023-06-21T14:53:11Z</time>
      </trkpt>
      <trkpt lat="49.76884" lon="2.15383">
        <ele>83.8</ele>
        <time>2023-06-21T14:53:12Z</time>
      </trkpt>
      <trkpt lat="49.76883" lon="2.15385">
        <ele>83.8</ele>
        <time>2023-06-21T14:53:14Z</time>
      </trkpt>
      <trkpt lat="49.76884" lon="2.15386">
        <ele>83.8</ele>
        <time>2023-06-21T14:53:15Z</time>
      </trkpt>
      <trkpt lat="49.76884" lon="2.15388">
        <ele>83.8</ele>
        <time>2023-06-21T14:53:16Z</time>
      </trkpt>
      <trkpt lat="49.76885" lon="2.1539">
        <ele>83.8</ele>
        <time>2023-06-21T14:53:17Z</time>
      </trkpt>
      <trkpt lat="49.76886" lon="2.15392">
        <ele>83.8</ele>
        <time>2023-06-21T14:53:18Z</time>
      </trkpt>
      <trkpt lat="49.76886" lon="2.15393">
        <ele>83.8</ele>
        <time>2023-06-21T14:53:20Z</time>
      </trkpt>
      <trkpt lat="49.76887" lon="2.15395">
        <ele>83.8</ele>
        <time>2023-06-21T14:53:21Z</time>
      </trkpt>
      <trkpt lat="49.76887" lon="2.15397">
        <ele>83.8</ele>
        <time>2023-06-21T14:53:23Z</time>
      </trkpt>
      <trkpt lat="49.76887" lon="2.15399">
        <ele>83.8</ele>
        <time>2023-06-21T14:53:24Z</time>
      </trkpt>
      <trkpt lat="49.76887" lon="2.15401">
        <ele>83.8</ele>
        <time>2023-06-21T14:53:25Z</time>
      </trkpt>
      <trkpt lat="49.76887" lon="2.15404">
        <ele>83.8</ele>
        <time>2023-06-21T14:53:26Z</time>
      </trkpt>
      <trkpt lat="49.76886" lon="2.15406">
        <ele>83.7</ele>
        <time>2023-06-21T14:53:27Z</time>
      </trkpt>
      <trkpt lat="49.76886" lon="2.15408">
        <ele>83.7</ele>
        <time>2023-06-21T14:53:28Z</time>
      </trkpt>
      <trkpt lat="49.76886" lon="2.1541">
        <ele>83.7</ele>
        <time>2023-06-21T14:53:30Z</time>
      </trkpt>
      <trkpt lat="49.76886" lon="2.15412">
        <ele>83.7</ele>
        <time>2023-06-21T14:53:31Z</time>
      </trkpt>
      <trkpt lat="49.76886" lon="2.15414">
        <ele>83.7</ele>
        <time>2023-06-21T14:53:32Z</time>
      </trkpt>
      <trkpt lat="49.76885" lon="2.15417">
        <ele>83.7</ele>
        <time>2023-06-21T14:53:33Z</time>
      </trkpt>
      <trkpt lat="49.76885" lon="2.15418">
        <ele>83.6</ele>
        <time>2023-06-21T14:53:34Z</time>
      </trkpt>
      <trkpt lat="49.76885" lon="2.15419">
        <ele>83.6</ele>
        <time>2023-06-21T14:53:35Z</time>
      </trkpt>
      <trkpt lat="49.76884" lon="2.15422">
        <ele>83.6</ele>
        <time>2023-06-21T14:53:36Z</time>
      </trkpt>
      <trkpt lat="49.76884" lon="2.15423">
        <ele>83.6</ele>
        <time>2023-06-21T14:53:38Z</time>
      </trkpt>
      <trkpt lat="49.76884" lon="2.15425">
        <ele>83.6</ele>
        <time>2023-06-21T14:53:39Z</time>
      </trkpt>
      <trkpt lat="49.76884" lon="2.15426">
        <ele>83.5</ele>
        <time>2023-06-21T14:53:40Z</time>
      </trkpt>
      <trkpt lat="49.76883" lon="2.15428">
        <ele>83.5</ele>
        <time>2023-06-21T14:53:41Z</time>
      </trkpt>
      <trkpt lat="49.76883" lon="2.15429">
        <ele>83.5</ele>
        <time>2023-06-21T14:53:42Z</time>
      </trkpt>
      <trkpt lat="49.76882" lon="2.15432">
        <ele>83.5</ele>
        <time>2023-06-21T14:53:44Z</time>
      </trkpt>
      <trkpt lat="49.76882" lon="2.15434">
        <ele>83.4</ele>
        <time>2023-06-21T14:53:45Z</time>
      </trkpt>
      <trkpt lat="49.76881" lon="2.15436">
        <ele>83.4</ele>
        <time>2023-06-21T14:53:46Z</time>
      </trkpt>
      <trkpt lat="49.76881" lon="2.15438">
        <ele>83.4</ele>
        <time>2023-06-21T14:53:47Z</time>
      </trkpt>
      <trkpt lat="49.7688" lon="2.15439">
        <ele>83.3</ele>
        <time>2023-06-21T14:53:49Z</time>
      </trkpt>
      <trkpt lat="49.76879" lon="2.15441">
        <ele>83.3</ele>
        <time>2023-06-21T14:53:50Z</time>
      </trkpt>
      <trkpt lat="49.76878" lon="2.15442">
        <ele>83.3</ele>
        <time>2023-06-21T14:53:51Z</time>
      </trkpt>
      <trkpt lat="49.76878" lon="2.15443">
        <ele>83.2</ele>
        <time>2023-06-21T14:53:52Z</time>
      </trkpt>
      <trkpt lat="49.76877" lon="2.15446">
        <ele>83.2</ele>
        <time>2023-06-21T14:53:54Z</time>
      </trkpt>
      <trkpt lat="49.76876" lon="2.15447">
        <ele>83.1</ele>
        <time>2023-06-21T14:53:55Z</time>
      </trkpt>
      <trkpt lat="49.76875" lon="2.15449">
        <ele>83.1</ele>
        <time>2023-06-21T14:53:56Z</time>
      </trkpt>
      <trkpt lat="49.76874" lon="2.1545">
        <ele>83.1</ele>
        <time>2023-06-21T14:53:57Z</time>
      </trkpt>
      <trkpt lat="49.76874" lon="2.15452">
        <ele>83</ele>
        <time>2023-06-21T14:53:59Z</time>
      </trkpt>
      <trkpt lat="49.76873" lon="2.15453">
        <ele>83</ele>
        <time>2023-06-21T14:54:00Z</time>
      </trkpt>
      <trkpt lat="49.76873" lon="2.15455">
        <ele>83</ele>
        <time>2023-06-21T14:54:01Z</time>
      </trkpt>
      <trkpt lat="49.76872" lon="2.15458">
        <ele>82.9</ele>
        <time>2023-06-21T14:54:03Z</time>
      </trkpt>
      <trkpt lat="49.76871" lon="2.15459">
        <ele>82.9</ele>
        <time>2023-06-21T14:54:04Z</time>
      </trkpt>
      <trkpt lat="49.76871" lon="2.15461">
        <ele>82.8</ele>
        <time>2023-06-21T14:54:05Z</time>
      </trkpt>
      <trkpt lat="49.7687" lon="2.15463">
        <ele>82.8</ele>
        <time>2023-06-21T14:54:06Z</time>
      </trkpt>
      <trkpt lat="49.7687" lon="2.15465">
        <ele>82.7</ele>
        <time>2023-06-21T14:54:07Z</time>
      </trkpt>
      <trkpt lat="49.76869" lon="2.15467">
        <ele>82.7</ele>
        <time>2023-06-21T14:54:08Z</time>
      </trkpt>
      <trkpt lat="49.76869" lon="2.15468">
        <ele>82.7</ele>
        <time>2023-06-21T14:54:09Z</time>
      </trkpt>
      <trkpt lat="49.76868" lon="2.15469">
        <ele>82.6</ele>
        <time>2023-06-21T14:54:11Z</time>
      </trkpt>
      <trkpt lat="49.76868" lon="2.15471">
        <ele>82.6</ele>
        <time>2023-06-21T14:54:12Z</time>
      </trkpt>
      <trkpt lat="49.76867" lon="2.15476">
        <ele>82.4</ele>
        <time>2023-06-21T14:54:14Z</time>
      </trkpt>
      <trkpt lat="49.76867" lon="2.15477">
        <ele>82.4</ele>
        <time>2023-06-21T14:54:15Z</time>
      </trkpt>
      <trkpt lat="49.76867" lon="2.15479">
        <ele>82.4</ele>
        <time>2023-06-21T14:54:16Z</time>
      </trkpt>
      <trkpt lat="49.76867" lon="2.15482">
        <ele>82.3</ele>
        <time>2023-06-21T14:54:17Z</time>
      </trkpt>
      <trkpt lat="49.76867" lon="2.15484">
        <ele>82.3</ele>
        <time>2023-06-21T14:54:18Z</time>
      </trkpt>
      <trkpt lat="49.76867" lon="2.15486">
        <ele>82.2</ele>
        <time>2023-06-21T14:54:19Z</time>
      </trkpt>
      <trkpt lat="49.76866" lon="2.15489">
        <ele>82.1</ele>
        <time>2023-06-21T14:54:20Z</time>
      </trkpt>
      <trkpt lat="49.76866" lon="2.15492">
        <ele>82.1</ele>
        <time>2023-06-21T14:54:21Z</time>
      </trkpt>
      <trkpt lat="49.76866" lon="2.15495">
        <ele>82</ele>
        <time>2023-06-21T14:54:23Z</time>
      </trkpt>
      <trkpt lat="49.76865" lon="2.15497">
        <ele>81.9</ele>
        <time>2023-06-21T14:54:24Z</time>
      </trkpt>
      <trkpt lat="49.76865" lon="2.155">
        <ele>81.9</ele>
        <time>2023-06-21T14:54:25Z</time>
      </trkpt>
      <trkpt lat="49.76865" lon="2.15504">
        <ele>81.8</ele>
        <time>2023-06-21T14:54:27Z</time>
      </trkpt>
      <trkpt lat="49.76864" lon="2.15506">
        <ele>81.7</ele>
        <time>2023-06-21T14:54:28Z</time>
      </trkpt>
      <trkpt lat="49.76864" lon="2.15509">
        <ele>81.7</ele>
        <time>2023-06-21T14:54:29Z</time>
      </trkpt>
      <trkpt lat="49.76864" lon="2.15511">
        <ele>81.6</ele>
        <time>2023-06-21T14:54:30Z</time>
      </trkpt>
      <trkpt lat="49.76864" lon="2.15512">
        <ele>81.6</ele>
        <time>2023-06-21T14:54:31Z</time>
      </trkpt>
      <trkpt lat="49.76863" lon="2.15514">
        <ele>81.6</ele>
        <time>2023-06-21T14:54:32Z</time>
      </trkpt>
      <trkpt lat="49.76862" lon="2.15517">
        <ele>81.5</ele>
        <time>2023-06-21T14:54:33Z</time>
      </trkpt>
      <trkpt lat="49.76862" lon="2.15518">
        <ele>81.5</ele>
        <time>2023-06-21T14:54:35Z</time>
      </trkpt>
      <trkpt lat="49.76862" lon="2.15519">
        <ele>81.4</ele>
        <time>2023-06-21T14:54:36Z</time>
      </trkpt>
      <trkpt lat="49.76861" lon="2.15522">
        <ele>81.4</ele>
        <time>2023-06-21T14:54:37Z</time>
      </trkpt>
      <trkpt lat="49.76861" lon="2.15523">
        <ele>81.4</ele>
        <time>2023-06-21T14:54:38Z</time>
      </trkpt>
      <trkpt lat="49.76861" lon="2.15524">
        <ele>81.4</ele>
        <time>2023-06-21T14:54:39Z</time>
      </trkpt>
      <trkpt lat="49.7686" lon="2.15525">
        <ele>81.3</ele>
        <time>2023-06-21T14:54:40Z</time>
      </trkpt>
      <trkpt lat="49.7686" lon="2.15527">
        <ele>81.3</ele>
        <time>2023-06-21T14:54:41Z</time>
      </trkpt>
      <trkpt lat="49.7686" lon="2.15528">
        <ele>81.3</ele>
        <time>2023-06-21T14:54:42Z</time>
      </trkpt>
      <trkpt lat="49.76859" lon="2.1553">
        <ele>81.2</ele>
        <time>2023-06-21T14:54:44Z</time>
      </trkpt>
      <trkpt lat="49.76858" lon="2.15533">
        <ele>81.2</ele>
        <time>2023-06-21T14:54:45Z</time>
      </trkpt>
      <trkpt lat="49.76857" lon="2.15536">
        <ele>81.1</ele>
        <time>2023-06-21T14:54:47Z</time>
      </trkpt>
      <trkpt lat="49.76857" lon="2.15538">
        <ele>81.1</ele>
        <time>2023-06-21T14:54:48Z</time>
      </trkpt>
      <trkpt lat="49.76856" lon="2.1554">
        <ele>81</ele>
        <time>2023-06-21T14:54:49Z</time>
      </trkpt>
      <trkpt lat="49.76855" lon="2.1554">
        <ele>81.1</ele>
        <time>2023-06-21T14:54:50Z</time>
      </trkpt>
      <trkpt lat="49.76854" lon="2.15541">
        <ele>81.2</ele>
        <time>2023-06-21T14:54:51Z</time>
      </trkpt>
      <trkpt lat="49.76853" lon="2.15543">
        <ele>81.3</ele>
        <time>2023-06-21T14:54:52Z</time>
      </trkpt>
      <trkpt lat="49.76851" lon="2.15544">
        <ele>81.5</ele>
        <time>2023-06-21T14:54:53Z</time>
      </trkpt>
      <trkpt lat="49.7685" lon="2.15545">
        <ele>81.6</ele>
        <time>2023-06-21T14:54:55Z</time>
      </trkpt>
      <trkpt lat="49.76849" lon="2.15545">
        <ele>81.7</ele>
        <time>2023-06-21T14:54:56Z</time>
      </trkpt>
      <trkpt lat="49.76847" lon="2.15544">
        <ele>81.9</ele>
        <time>2023-06-21T14:54:57Z</time>
      </trkpt>
      <trkpt lat="49.76846" lon="2.15544">
        <ele>82</ele>
        <time>2023-06-21T14:54:58Z</time>
      </trkpt>
      <trkpt lat="49.76844" lon="2.15544">
        <ele>82.1</ele>
        <time>2023-06-21T14:54:59Z</time>
      </trkpt>
      <trkpt lat="49.76842" lon="2.15543">
        <ele>82.3</ele>
        <time>2023-06-21T14:55:00Z</time>
      </trkpt>
      <trkpt lat="49.76841" lon="2.15542">
        <ele>82.4</ele>
        <time>2023-06-21T14:55:02Z</time>
      </trkpt>
      <trkpt lat="49.7684" lon="2.15542">
        <ele>82.5</ele>
        <time>2023-06-21T14:55:03Z</time>
      </trkpt>
      <trkpt lat="49.76838" lon="2.15541">
        <ele>82.7</ele>
        <time>2023-06-21T14:55:04Z</time>
      </trkpt>
      <trkpt lat="49.76837" lon="2.15539">
        <ele>82.8</ele>
        <time>2023-06-21T14:55:05Z</time>
      </trkpt>
      <trkpt lat="49.76836" lon="2.15538">
        <ele>82.9</ele>
        <time>2023-06-21T14:55:06Z</time>
      </trkpt>
      <trkpt lat="49.76834" lon="2.15537">
        <ele>83.1</ele>
        <time>2023-06-21T14:55:07Z</time>
      </trkpt>
      <trkpt lat="49.76833" lon="2.15534">
        <ele>83.3</ele>
        <time>2023-06-21T14:55:09Z</time>
      </trkpt>
      <trkpt lat="49.76833" lon="2.15533">
        <ele>83.3</ele>
        <time>2023-06-21T14:55:10Z</time>
      </trkpt>
      <trkpt lat="49.76832" lon="2.15532">
        <ele>83.4</ele>
        <time>2023-06-21T14:55:11Z</time>
      </trkpt>
      <trkpt lat="49.76832" lon="2.15531">
        <ele>83.5</ele>
        <time>2023-06-21T14:55:12Z</time>
      </trkpt>
      <trkpt lat="49.76831" lon="2.1553">
        <ele>83.5</ele>
        <time>2023-06-21T14:55:13Z</time>
      </trkpt>
      <trkpt lat="49.7683" lon="2.15529">
        <ele>83.6</ele>
        <time>2023-06-21T14:55:15Z</time>
      </trkpt>
      <trkpt lat="49.76829" lon="2.15528">
        <ele>83.6</ele>
        <time>2023-06-21T14:55:16Z</time>
      </trkpt>
      <trkpt lat="49.76829" lon="2.15527">
        <ele>83.7</ele>
        <time>2023-06-21T14:55:17Z</time>
      </trkpt>
      <trkpt lat="49.76828" lon="2.15526">
        <ele>83.7</ele>
        <time>2023-06-21T14:55:18Z</time>
      </trkpt>
      <trkpt lat="49.76828" lon="2.15525">
        <ele>83.7</ele>
        <time>2023-06-21T14:55:19Z</time>
      </trkpt>
      <trkpt lat="49.76827" lon="2.15525">
        <ele>83.8</ele>
        <time>2023-06-21T14:55:20Z</time>
      </trkpt>
      <trkpt lat="49.76826" lon="2.15523">
        <ele>83.8</ele>
        <time>2023-06-21T14:55:22Z</time>
      </trkpt>
      <trkpt lat="49.76825" lon="2.15522">
        <ele>83.9</ele>
        <time>2023-06-21T14:55:24Z</time>
      </trkpt>
      <trkpt lat="49.76825" lon="2.15522">
        <ele>83.9</ele>
        <time>2023-06-21T14:55:25Z</time>
      </trkpt>
      <trkpt lat="49.76824" lon="2.15521">
        <ele>84</ele>
        <time>2023-06-21T14:55:26Z</time>
      </trkpt>
      <trkpt lat="49.76823" lon="2.1552">
        <ele>84</ele>
        <time>2023-06-21T14:55:28Z</time>
      </trkpt>
      <trkpt lat="49.76822" lon="2.1552">
        <ele>84.1</ele>
        <time>2023-06-21T14:55:29Z</time>
      </trkpt>
      <trkpt lat="49.76821" lon="2.15519">
        <ele>84.1</ele>
        <time>2023-06-21T14:55:30Z</time>
      </trkpt>
      <trkpt lat="49.7682" lon="2.15519">
        <ele>84.1</ele>
        <time>2023-06-21T14:55:31Z</time>
      </trkpt>
      <trkpt lat="49.76819" lon="2.15518">
        <ele>84.2</ele>
        <time>2023-06-21T14:55:32Z</time>
      </trkpt>
      <trkpt lat="49.76818" lon="2.15518">
        <ele>84.2</ele>
        <time>2023-06-21T14:55:33Z</time>
      </trkpt>
      <trkpt lat="49.76817" lon="2.15517">
        <ele>84.2</ele>
        <time>2023-06-21T14:55:34Z</time>
      </trkpt>
      <trkpt lat="49.76816" lon="2.15516">
        <ele>84.2</ele>
        <time>2023-06-21T14:55:36Z</time>
      </trkpt>
      <trkpt lat="49.76816" lon="2.15516">
        <ele>84.3</ele>
        <time>2023-06-21T14:55:37Z</time>
      </trkpt>
      <trkpt lat="49.76815" lon="2.15516">
        <ele>84.3</ele>
        <time>2023-06-21T14:55:38Z</time>
      </trkpt>
      <trkpt lat="49.76814" lon="2.15518">
        <ele>84.3</ele>
        <time>2023-06-21T14:55:41Z</time>
      </trkpt>
      <trkpt lat="49.76814" lon="2.15518">
        <ele>84.3</ele>
        <time>2023-06-21T14:55:42Z</time>
      </trkpt>
    </trkseg>
  </trk>
</gpx>